<?xml version="1.0" encoding="UTF-8" standalone="no" ?>
<gpx xmlns="http://www.topografix.com/GPX/1/1" xmlns:xsi="http://www.w3.org/2001/XMLSchema-instance" xsi:schemaLocation="http://www.topografix.com/GPX/1/1 http://www.topografix.com/GPX/1/1/gpx.xsd" version="1.1" creator="VisuGPX - https://www.visugpx.com">
  <metadata>
    <name>Bagimont</name>
  </metadata>
  <trk>
    <name><![CDATA[Bagimont_1]]></name>
    <trkseg>
      <trkpt lat="49.75381" lon="4.82178">
        <ele>212</ele>
        <time>2021-05-15T07:15:33.000Z</time>
      </trkpt>
      <trkpt lat="49.75381" lon="4.82178">
        <ele>212</ele>
        <time>2021-05-15T07:15:34.000Z</time>
      </trkpt>
      <trkpt lat="49.75381" lon="4.82177">
        <ele>212</ele>
        <time>2021-05-15T07:15:35.000Z</time>
      </trkpt>
      <trkpt lat="49.75383" lon="4.82175">
        <ele>213</ele>
        <time>2021-05-15T07:15:36.000Z</time>
      </trkpt>
      <trkpt lat="49.75383" lon="4.82174">
        <ele>213</ele>
        <time>2021-05-15T07:15:37.000Z</time>
      </trkpt>
      <trkpt lat="49.75385" lon="4.82173">
        <ele>213</ele>
        <time>2021-05-15T07:15:38.000Z</time>
      </trkpt>
      <trkpt lat="49.75386" lon="4.82171">
        <ele>212</ele>
        <time>2021-05-15T07:15:39.000Z</time>
      </trkpt>
      <trkpt lat="49.75388" lon="4.82171">
        <ele>210</ele>
        <time>2021-05-15T07:15:40.000Z</time>
      </trkpt>
      <trkpt lat="49.75392" lon="4.82172">
        <ele>208</ele>
        <time>2021-05-15T07:15:41.000Z</time>
      </trkpt>
      <trkpt lat="49.75397" lon="4.82174">
        <ele>207</ele>
        <time>2021-05-15T07:15:42.000Z</time>
      </trkpt>
      <trkpt lat="49.75401" lon="4.82177">
        <ele>206</ele>
        <time>2021-05-15T07:15:43.000Z</time>
      </trkpt>
      <trkpt lat="49.75406" lon="4.8218">
        <ele>205</ele>
        <time>2021-05-15T07:15:44.000Z</time>
      </trkpt>
      <trkpt lat="49.75411" lon="4.82183">
        <ele>204</ele>
        <time>2021-05-15T07:15:45.000Z</time>
      </trkpt>
      <trkpt lat="49.75416" lon="4.82187">
        <ele>204</ele>
        <time>2021-05-15T07:15:46.000Z</time>
      </trkpt>
      <trkpt lat="49.75421" lon="4.82191">
        <ele>203</ele>
        <time>2021-05-15T07:15:47.000Z</time>
      </trkpt>
      <trkpt lat="49.75426" lon="4.82194">
        <ele>202</ele>
        <time>2021-05-15T07:15:48.000Z</time>
      </trkpt>
      <trkpt lat="49.75431" lon="4.82198">
        <ele>202</ele>
        <time>2021-05-15T07:15:49.000Z</time>
      </trkpt>
      <trkpt lat="49.75435" lon="4.82205">
        <ele>201</ele>
        <time>2021-05-15T07:15:50.000Z</time>
      </trkpt>
      <trkpt lat="49.75439" lon="4.8221">
        <ele>200</ele>
        <time>2021-05-15T07:15:51.000Z</time>
      </trkpt>
      <trkpt lat="49.75444" lon="4.82213">
        <ele>200</ele>
        <time>2021-05-15T07:15:52.000Z</time>
      </trkpt>
      <trkpt lat="49.75449" lon="4.82215">
        <ele>199</ele>
        <time>2021-05-15T07:15:53.000Z</time>
      </trkpt>
      <trkpt lat="49.75455" lon="4.82216">
        <ele>199</ele>
        <time>2021-05-15T07:15:54.000Z</time>
      </trkpt>
      <trkpt lat="49.7546" lon="4.82219">
        <ele>198</ele>
        <time>2021-05-15T07:15:55.000Z</time>
      </trkpt>
      <trkpt lat="49.75465" lon="4.82224">
        <ele>198</ele>
        <time>2021-05-15T07:15:56.000Z</time>
      </trkpt>
      <trkpt lat="49.7547" lon="4.82231">
        <ele>197</ele>
        <time>2021-05-15T07:15:57.000Z</time>
      </trkpt>
      <trkpt lat="49.75475" lon="4.82238">
        <ele>197</ele>
        <time>2021-05-15T07:15:58.000Z</time>
      </trkpt>
      <trkpt lat="49.7548" lon="4.82244">
        <ele>196</ele>
        <time>2021-05-15T07:15:59.000Z</time>
      </trkpt>
      <trkpt lat="49.75485" lon="4.8225">
        <ele>196</ele>
        <time>2021-05-15T07:16:00.000Z</time>
      </trkpt>
      <trkpt lat="49.7549" lon="4.82255">
        <ele>196</ele>
        <time>2021-05-15T07:16:01.000Z</time>
      </trkpt>
      <trkpt lat="49.75496" lon="4.82259">
        <ele>195</ele>
        <time>2021-05-15T07:16:02.000Z</time>
      </trkpt>
      <trkpt lat="49.75502" lon="4.82262">
        <ele>195</ele>
        <time>2021-05-15T07:16:03.000Z</time>
      </trkpt>
      <trkpt lat="49.75508" lon="4.82266">
        <ele>195</ele>
        <time>2021-05-15T07:16:04.000Z</time>
      </trkpt>
      <trkpt lat="49.75514" lon="4.82269">
        <ele>195</ele>
        <time>2021-05-15T07:16:05.000Z</time>
      </trkpt>
      <trkpt lat="49.75519" lon="4.82272">
        <ele>195</ele>
        <time>2021-05-15T07:16:06.000Z</time>
      </trkpt>
      <trkpt lat="49.75525" lon="4.82275">
        <ele>194</ele>
        <time>2021-05-15T07:16:07.000Z</time>
      </trkpt>
      <trkpt lat="49.7553" lon="4.82278">
        <ele>194</ele>
        <time>2021-05-15T07:16:08.000Z</time>
      </trkpt>
      <trkpt lat="49.75536" lon="4.8228">
        <ele>194</ele>
        <time>2021-05-15T07:16:09.000Z</time>
      </trkpt>
      <trkpt lat="49.75541" lon="4.8228">
        <ele>194</ele>
        <time>2021-05-15T07:16:10.000Z</time>
      </trkpt>
      <trkpt lat="49.75546" lon="4.82279">
        <ele>194</ele>
        <time>2021-05-15T07:16:11.000Z</time>
      </trkpt>
      <trkpt lat="49.75549" lon="4.82274">
        <ele>193</ele>
        <time>2021-05-15T07:16:12.000Z</time>
      </trkpt>
      <trkpt lat="49.7555" lon="4.82267">
        <ele>193</ele>
        <time>2021-05-15T07:16:13.000Z</time>
      </trkpt>
      <trkpt lat="49.75551" lon="4.82261">
        <ele>193</ele>
        <time>2021-05-15T07:16:14.000Z</time>
      </trkpt>
      <trkpt lat="49.75551" lon="4.82254">
        <ele>192</ele>
        <time>2021-05-15T07:16:15.000Z</time>
      </trkpt>
      <trkpt lat="49.75549" lon="4.82247">
        <ele>192</ele>
        <time>2021-05-15T07:16:16.000Z</time>
      </trkpt>
      <trkpt lat="49.75546" lon="4.8224">
        <ele>192</ele>
        <time>2021-05-15T07:16:17.000Z</time>
      </trkpt>
      <trkpt lat="49.75543" lon="4.82234">
        <ele>192</ele>
        <time>2021-05-15T07:16:18.000Z</time>
      </trkpt>
      <trkpt lat="49.75539" lon="4.82227">
        <ele>192</ele>
        <time>2021-05-15T07:16:19.000Z</time>
      </trkpt>
      <trkpt lat="49.75536" lon="4.8222">
        <ele>192</ele>
        <time>2021-05-15T07:16:20.000Z</time>
      </trkpt>
      <trkpt lat="49.75532" lon="4.82213">
        <ele>192</ele>
        <time>2021-05-15T07:16:21.000Z</time>
      </trkpt>
      <trkpt lat="49.75528" lon="4.82206">
        <ele>192</ele>
        <time>2021-05-15T07:16:22.000Z</time>
      </trkpt>
      <trkpt lat="49.75525" lon="4.82199">
        <ele>191</ele>
        <time>2021-05-15T07:16:23.000Z</time>
      </trkpt>
      <trkpt lat="49.75521" lon="4.82191">
        <ele>191</ele>
        <time>2021-05-15T07:16:24.000Z</time>
      </trkpt>
      <trkpt lat="49.75518" lon="4.82184">
        <ele>191</ele>
        <time>2021-05-15T07:16:25.000Z</time>
      </trkpt>
      <trkpt lat="49.75514" lon="4.82177">
        <ele>191</ele>
        <time>2021-05-15T07:16:26.000Z</time>
      </trkpt>
      <trkpt lat="49.7551" lon="4.82171">
        <ele>191</ele>
        <time>2021-05-15T07:16:27.000Z</time>
      </trkpt>
      <trkpt lat="49.75506" lon="4.82164">
        <ele>192</ele>
        <time>2021-05-15T07:16:28.000Z</time>
      </trkpt>
      <trkpt lat="49.75502" lon="4.82157">
        <ele>192</ele>
        <time>2021-05-15T07:16:29.000Z</time>
      </trkpt>
      <trkpt lat="49.75498" lon="4.82151">
        <ele>192</ele>
        <time>2021-05-15T07:16:30.000Z</time>
      </trkpt>
      <trkpt lat="49.75494" lon="4.82144">
        <ele>192</ele>
        <time>2021-05-15T07:16:31.000Z</time>
      </trkpt>
      <trkpt lat="49.7549" lon="4.82137">
        <ele>192</ele>
        <time>2021-05-15T07:16:32.000Z</time>
      </trkpt>
      <trkpt lat="49.75486" lon="4.82131">
        <ele>192</ele>
        <time>2021-05-15T07:16:33.000Z</time>
      </trkpt>
      <trkpt lat="49.75482" lon="4.82125">
        <ele>192</ele>
        <time>2021-05-15T07:16:34.000Z</time>
      </trkpt>
      <trkpt lat="49.75477" lon="4.82119">
        <ele>192</ele>
        <time>2021-05-15T07:16:35.000Z</time>
      </trkpt>
      <trkpt lat="49.75473" lon="4.82112">
        <ele>192</ele>
        <time>2021-05-15T07:16:36.000Z</time>
      </trkpt>
      <trkpt lat="49.75469" lon="4.82107">
        <ele>193</ele>
        <time>2021-05-15T07:16:37.000Z</time>
      </trkpt>
      <trkpt lat="49.75465" lon="4.82102">
        <ele>193</ele>
        <time>2021-05-15T07:16:38.000Z</time>
      </trkpt>
      <trkpt lat="49.7546" lon="4.82097">
        <ele>193</ele>
        <time>2021-05-15T07:16:39.000Z</time>
      </trkpt>
      <trkpt lat="49.75455" lon="4.82092">
        <ele>193</ele>
        <time>2021-05-15T07:16:40.000Z</time>
      </trkpt>
      <trkpt lat="49.7545" lon="4.82088">
        <ele>193</ele>
        <time>2021-05-15T07:16:41.000Z</time>
      </trkpt>
      <trkpt lat="49.75446" lon="4.82083">
        <ele>193</ele>
        <time>2021-05-15T07:16:42.000Z</time>
      </trkpt>
      <trkpt lat="49.75441" lon="4.82078">
        <ele>193</ele>
        <time>2021-05-15T07:16:43.000Z</time>
      </trkpt>
      <trkpt lat="49.75436" lon="4.82073">
        <ele>193</ele>
        <time>2021-05-15T07:16:44.000Z</time>
      </trkpt>
      <trkpt lat="49.75431" lon="4.82068">
        <ele>193</ele>
        <time>2021-05-15T07:16:45.000Z</time>
      </trkpt>
      <trkpt lat="49.75427" lon="4.82063">
        <ele>193</ele>
        <time>2021-05-15T07:16:46.000Z</time>
      </trkpt>
      <trkpt lat="49.75422" lon="4.82058">
        <ele>193</ele>
        <time>2021-05-15T07:16:47.000Z</time>
      </trkpt>
      <trkpt lat="49.75417" lon="4.82054">
        <ele>193</ele>
        <time>2021-05-15T07:16:48.000Z</time>
      </trkpt>
      <trkpt lat="49.75412" lon="4.82049">
        <ele>193</ele>
        <time>2021-05-15T07:16:49.000Z</time>
      </trkpt>
      <trkpt lat="49.75407" lon="4.82044">
        <ele>193</ele>
        <time>2021-05-15T07:16:50.000Z</time>
      </trkpt>
      <trkpt lat="49.75403" lon="4.8204">
        <ele>193</ele>
        <time>2021-05-15T07:16:51.000Z</time>
      </trkpt>
      <trkpt lat="49.75397" lon="4.82036">
        <ele>193</ele>
        <time>2021-05-15T07:16:52.000Z</time>
      </trkpt>
      <trkpt lat="49.75392" lon="4.82032">
        <ele>193</ele>
        <time>2021-05-15T07:16:53.000Z</time>
      </trkpt>
      <trkpt lat="49.75387" lon="4.82028">
        <ele>193</ele>
        <time>2021-05-15T07:16:54.000Z</time>
      </trkpt>
      <trkpt lat="49.75382" lon="4.82025">
        <ele>193</ele>
        <time>2021-05-15T07:16:55.000Z</time>
      </trkpt>
      <trkpt lat="49.75377" lon="4.82022">
        <ele>194</ele>
        <time>2021-05-15T07:16:56.000Z</time>
      </trkpt>
      <trkpt lat="49.75371" lon="4.82019">
        <ele>194</ele>
        <time>2021-05-15T07:16:57.000Z</time>
      </trkpt>
      <trkpt lat="49.75366" lon="4.82016">
        <ele>194</ele>
        <time>2021-05-15T07:16:58.000Z</time>
      </trkpt>
      <trkpt lat="49.75361" lon="4.82013">
        <ele>194</ele>
        <time>2021-05-15T07:16:59.000Z</time>
      </trkpt>
      <trkpt lat="49.75356" lon="4.82011">
        <ele>194</ele>
        <time>2021-05-15T07:17:00.000Z</time>
      </trkpt>
      <trkpt lat="49.75351" lon="4.82008">
        <ele>194</ele>
        <time>2021-05-15T07:17:01.000Z</time>
      </trkpt>
      <trkpt lat="49.75346" lon="4.82005">
        <ele>194</ele>
        <time>2021-05-15T07:17:02.000Z</time>
      </trkpt>
      <trkpt lat="49.75341" lon="4.82002">
        <ele>195</ele>
        <time>2021-05-15T07:17:03.000Z</time>
      </trkpt>
      <trkpt lat="49.75336" lon="4.82">
        <ele>195</ele>
        <time>2021-05-15T07:17:04.000Z</time>
      </trkpt>
      <trkpt lat="49.75331" lon="4.81997">
        <ele>195</ele>
        <time>2021-05-15T07:17:05.000Z</time>
      </trkpt>
      <trkpt lat="49.75326" lon="4.81994">
        <ele>195</ele>
        <time>2021-05-15T07:17:06.000Z</time>
      </trkpt>
      <trkpt lat="49.75322" lon="4.81991">
        <ele>195</ele>
        <time>2021-05-15T07:17:07.000Z</time>
      </trkpt>
      <trkpt lat="49.75317" lon="4.81987">
        <ele>195</ele>
        <time>2021-05-15T07:17:08.000Z</time>
      </trkpt>
      <trkpt lat="49.75313" lon="4.81984">
        <ele>195</ele>
        <time>2021-05-15T07:17:09.000Z</time>
      </trkpt>
      <trkpt lat="49.75309" lon="4.81982">
        <ele>195</ele>
        <time>2021-05-15T07:17:10.000Z</time>
      </trkpt>
      <trkpt lat="49.75304" lon="4.81979">
        <ele>195</ele>
        <time>2021-05-15T07:17:11.000Z</time>
      </trkpt>
      <trkpt lat="49.75301" lon="4.81977">
        <ele>196</ele>
        <time>2021-05-15T07:17:12.000Z</time>
      </trkpt>
      <trkpt lat="49.75297" lon="4.81974">
        <ele>196</ele>
        <time>2021-05-15T07:17:13.000Z</time>
      </trkpt>
      <trkpt lat="49.75293" lon="4.81971">
        <ele>196</ele>
        <time>2021-05-15T07:17:14.000Z</time>
      </trkpt>
      <trkpt lat="49.7529" lon="4.81968">
        <ele>196</ele>
        <time>2021-05-15T07:17:15.000Z</time>
      </trkpt>
      <trkpt lat="49.75286" lon="4.81965">
        <ele>196</ele>
        <time>2021-05-15T07:17:16.000Z</time>
      </trkpt>
      <trkpt lat="49.75282" lon="4.81962">
        <ele>196</ele>
        <time>2021-05-15T07:17:17.000Z</time>
      </trkpt>
      <trkpt lat="49.75278" lon="4.81959">
        <ele>196</ele>
        <time>2021-05-15T07:17:18.000Z</time>
      </trkpt>
      <trkpt lat="49.75274" lon="4.81956">
        <ele>197</ele>
        <time>2021-05-15T07:17:19.000Z</time>
      </trkpt>
      <trkpt lat="49.75271" lon="4.81953">
        <ele>197</ele>
        <time>2021-05-15T07:17:20.000Z</time>
      </trkpt>
      <trkpt lat="49.75267" lon="4.8195">
        <ele>197</ele>
        <time>2021-05-15T07:17:21.000Z</time>
      </trkpt>
      <trkpt lat="49.75264" lon="4.81947">
        <ele>197</ele>
        <time>2021-05-15T07:17:22.000Z</time>
      </trkpt>
      <trkpt lat="49.7526" lon="4.81943">
        <ele>197</ele>
        <time>2021-05-15T07:17:23.000Z</time>
      </trkpt>
      <trkpt lat="49.75257" lon="4.81939">
        <ele>197</ele>
        <time>2021-05-15T07:17:24.000Z</time>
      </trkpt>
      <trkpt lat="49.75254" lon="4.81936">
        <ele>197</ele>
        <time>2021-05-15T07:17:25.000Z</time>
      </trkpt>
      <trkpt lat="49.75251" lon="4.81931">
        <ele>197</ele>
        <time>2021-05-15T07:17:26.000Z</time>
      </trkpt>
      <trkpt lat="49.75249" lon="4.81927">
        <ele>197</ele>
        <time>2021-05-15T07:17:27.000Z</time>
      </trkpt>
      <trkpt lat="49.75246" lon="4.81923">
        <ele>197</ele>
        <time>2021-05-15T07:17:28.000Z</time>
      </trkpt>
      <trkpt lat="49.75243" lon="4.81919">
        <ele>197</ele>
        <time>2021-05-15T07:17:29.000Z</time>
      </trkpt>
      <trkpt lat="49.7524" lon="4.81916">
        <ele>198</ele>
        <time>2021-05-15T07:17:30.000Z</time>
      </trkpt>
      <trkpt lat="49.75237" lon="4.81913">
        <ele>198</ele>
        <time>2021-05-15T07:17:31.000Z</time>
      </trkpt>
      <trkpt lat="49.75234" lon="4.81909">
        <ele>198</ele>
        <time>2021-05-15T07:17:32.000Z</time>
      </trkpt>
      <trkpt lat="49.75231" lon="4.81906">
        <ele>198</ele>
        <time>2021-05-15T07:17:33.000Z</time>
      </trkpt>
      <trkpt lat="49.75228" lon="4.81902">
        <ele>198</ele>
        <time>2021-05-15T07:17:34.000Z</time>
      </trkpt>
      <trkpt lat="49.75224" lon="4.81898">
        <ele>198</ele>
        <time>2021-05-15T07:17:35.000Z</time>
      </trkpt>
      <trkpt lat="49.75221" lon="4.81893">
        <ele>198</ele>
        <time>2021-05-15T07:17:36.000Z</time>
      </trkpt>
      <trkpt lat="49.75217" lon="4.81889">
        <ele>199</ele>
        <time>2021-05-15T07:17:37.000Z</time>
      </trkpt>
      <trkpt lat="49.75214" lon="4.81885">
        <ele>199</ele>
        <time>2021-05-15T07:17:38.000Z</time>
      </trkpt>
      <trkpt lat="49.75211" lon="4.8188">
        <ele>199</ele>
        <time>2021-05-15T07:17:39.000Z</time>
      </trkpt>
      <trkpt lat="49.75207" lon="4.81876">
        <ele>199</ele>
        <time>2021-05-15T07:17:40.000Z</time>
      </trkpt>
      <trkpt lat="49.75204" lon="4.81871">
        <ele>199</ele>
        <time>2021-05-15T07:17:41.000Z</time>
      </trkpt>
      <trkpt lat="49.75201" lon="4.81866">
        <ele>199</ele>
        <time>2021-05-15T07:17:42.000Z</time>
      </trkpt>
      <trkpt lat="49.75197" lon="4.81861">
        <ele>199</ele>
        <time>2021-05-15T07:17:43.000Z</time>
      </trkpt>
      <trkpt lat="49.75194" lon="4.81856">
        <ele>199</ele>
        <time>2021-05-15T07:17:44.000Z</time>
      </trkpt>
      <trkpt lat="49.75191" lon="4.81851">
        <ele>199</ele>
        <time>2021-05-15T07:17:45.000Z</time>
      </trkpt>
      <trkpt lat="49.75188" lon="4.81846">
        <ele>200</ele>
        <time>2021-05-15T07:17:46.000Z</time>
      </trkpt>
      <trkpt lat="49.75185" lon="4.8184">
        <ele>200</ele>
        <time>2021-05-15T07:17:47.000Z</time>
      </trkpt>
      <trkpt lat="49.75182" lon="4.81835">
        <ele>200</ele>
        <time>2021-05-15T07:17:48.000Z</time>
      </trkpt>
      <trkpt lat="49.75179" lon="4.81829">
        <ele>200</ele>
        <time>2021-05-15T07:17:49.000Z</time>
      </trkpt>
      <trkpt lat="49.75176" lon="4.81824">
        <ele>200</ele>
        <time>2021-05-15T07:17:50.000Z</time>
      </trkpt>
      <trkpt lat="49.75173" lon="4.81819">
        <ele>200</ele>
        <time>2021-05-15T07:17:51.000Z</time>
      </trkpt>
      <trkpt lat="49.7517" lon="4.81813">
        <ele>200</ele>
        <time>2021-05-15T07:17:52.000Z</time>
      </trkpt>
      <trkpt lat="49.75166" lon="4.81808">
        <ele>200</ele>
        <time>2021-05-15T07:17:53.000Z</time>
      </trkpt>
      <trkpt lat="49.75163" lon="4.81803">
        <ele>200</ele>
        <time>2021-05-15T07:17:54.000Z</time>
      </trkpt>
      <trkpt lat="49.7516" lon="4.81798">
        <ele>200</ele>
        <time>2021-05-15T07:17:55.000Z</time>
      </trkpt>
      <trkpt lat="49.75158" lon="4.81793">
        <ele>200</ele>
        <time>2021-05-15T07:17:56.000Z</time>
      </trkpt>
      <trkpt lat="49.75155" lon="4.81787">
        <ele>200</ele>
        <time>2021-05-15T07:17:57.000Z</time>
      </trkpt>
      <trkpt lat="49.75151" lon="4.81782">
        <ele>200</ele>
        <time>2021-05-15T07:17:58.000Z</time>
      </trkpt>
      <trkpt lat="49.75148" lon="4.81776">
        <ele>200</ele>
        <time>2021-05-15T07:17:59.000Z</time>
      </trkpt>
      <trkpt lat="49.75145" lon="4.81771">
        <ele>200</ele>
        <time>2021-05-15T07:18:00.000Z</time>
      </trkpt>
      <trkpt lat="49.75141" lon="4.81765">
        <ele>200</ele>
        <time>2021-05-15T07:18:01.000Z</time>
      </trkpt>
      <trkpt lat="49.75138" lon="4.81758">
        <ele>199</ele>
        <time>2021-05-15T07:18:02.000Z</time>
      </trkpt>
      <trkpt lat="49.75136" lon="4.81751">
        <ele>199</ele>
        <time>2021-05-15T07:18:03.000Z</time>
      </trkpt>
      <trkpt lat="49.75134" lon="4.81744">
        <ele>199</ele>
        <time>2021-05-15T07:18:04.000Z</time>
      </trkpt>
      <trkpt lat="49.75131" lon="4.81737">
        <ele>200</ele>
        <time>2021-05-15T07:18:05.000Z</time>
      </trkpt>
      <trkpt lat="49.75129" lon="4.81729">
        <ele>200</ele>
        <time>2021-05-15T07:18:06.000Z</time>
      </trkpt>
      <trkpt lat="49.75127" lon="4.81722">
        <ele>200</ele>
        <time>2021-05-15T07:18:07.000Z</time>
      </trkpt>
      <trkpt lat="49.75125" lon="4.81716">
        <ele>200</ele>
        <time>2021-05-15T07:18:08.000Z</time>
      </trkpt>
      <trkpt lat="49.75122" lon="4.81709">
        <ele>200</ele>
        <time>2021-05-15T07:18:09.000Z</time>
      </trkpt>
      <trkpt lat="49.7512" lon="4.81702">
        <ele>200</ele>
        <time>2021-05-15T07:18:10.000Z</time>
      </trkpt>
      <trkpt lat="49.75118" lon="4.81695">
        <ele>200</ele>
        <time>2021-05-15T07:18:11.000Z</time>
      </trkpt>
      <trkpt lat="49.75117" lon="4.81688">
        <ele>201</ele>
        <time>2021-05-15T07:18:12.000Z</time>
      </trkpt>
      <trkpt lat="49.75116" lon="4.8168">
        <ele>201</ele>
        <time>2021-05-15T07:18:13.000Z</time>
      </trkpt>
      <trkpt lat="49.75115" lon="4.81673">
        <ele>201</ele>
        <time>2021-05-15T07:18:14.000Z</time>
      </trkpt>
      <trkpt lat="49.75114" lon="4.81665">
        <ele>201</ele>
        <time>2021-05-15T07:18:15.000Z</time>
      </trkpt>
      <trkpt lat="49.75114" lon="4.81657">
        <ele>201</ele>
        <time>2021-05-15T07:18:16.000Z</time>
      </trkpt>
      <trkpt lat="49.75113" lon="4.81649">
        <ele>201</ele>
        <time>2021-05-15T07:18:17.000Z</time>
      </trkpt>
      <trkpt lat="49.75113" lon="4.81641">
        <ele>201</ele>
        <time>2021-05-15T07:18:18.000Z</time>
      </trkpt>
      <trkpt lat="49.75113" lon="4.81633">
        <ele>201</ele>
        <time>2021-05-15T07:18:19.000Z</time>
      </trkpt>
      <trkpt lat="49.75113" lon="4.81625">
        <ele>201</ele>
        <time>2021-05-15T07:18:20.000Z</time>
      </trkpt>
      <trkpt lat="49.75113" lon="4.81616">
        <ele>201</ele>
        <time>2021-05-15T07:18:21.000Z</time>
      </trkpt>
      <trkpt lat="49.75112" lon="4.81608">
        <ele>201</ele>
        <time>2021-05-15T07:18:22.000Z</time>
      </trkpt>
      <trkpt lat="49.75113" lon="4.816">
        <ele>201</ele>
        <time>2021-05-15T07:18:23.000Z</time>
      </trkpt>
      <trkpt lat="49.75113" lon="4.81592">
        <ele>201</ele>
        <time>2021-05-15T07:18:24.000Z</time>
      </trkpt>
      <trkpt lat="49.75113" lon="4.81583">
        <ele>201</ele>
        <time>2021-05-15T07:18:25.000Z</time>
      </trkpt>
      <trkpt lat="49.75113" lon="4.81575">
        <ele>201</ele>
        <time>2021-05-15T07:18:26.000Z</time>
      </trkpt>
      <trkpt lat="49.75114" lon="4.81567">
        <ele>201</ele>
        <time>2021-05-15T07:18:27.000Z</time>
      </trkpt>
      <trkpt lat="49.75115" lon="4.81558">
        <ele>201</ele>
        <time>2021-05-15T07:18:28.000Z</time>
      </trkpt>
      <trkpt lat="49.75116" lon="4.8155">
        <ele>201</ele>
        <time>2021-05-15T07:18:29.000Z</time>
      </trkpt>
      <trkpt lat="49.75118" lon="4.81541">
        <ele>201</ele>
        <time>2021-05-15T07:18:30.000Z</time>
      </trkpt>
      <trkpt lat="49.75119" lon="4.81533">
        <ele>201</ele>
        <time>2021-05-15T07:18:31.000Z</time>
      </trkpt>
      <trkpt lat="49.7512" lon="4.81525">
        <ele>201</ele>
        <time>2021-05-15T07:18:32.000Z</time>
      </trkpt>
      <trkpt lat="49.75122" lon="4.81517">
        <ele>202</ele>
        <time>2021-05-15T07:18:33.000Z</time>
      </trkpt>
      <trkpt lat="49.75124" lon="4.81509">
        <ele>202</ele>
        <time>2021-05-15T07:18:34.000Z</time>
      </trkpt>
      <trkpt lat="49.75126" lon="4.81501">
        <ele>202</ele>
        <time>2021-05-15T07:18:35.000Z</time>
      </trkpt>
      <trkpt lat="49.75127" lon="4.81493">
        <ele>202</ele>
        <time>2021-05-15T07:18:36.000Z</time>
      </trkpt>
      <trkpt lat="49.75129" lon="4.81486">
        <ele>202</ele>
        <time>2021-05-15T07:18:37.000Z</time>
      </trkpt>
      <trkpt lat="49.75131" lon="4.81479">
        <ele>202</ele>
        <time>2021-05-15T07:18:38.000Z</time>
      </trkpt>
      <trkpt lat="49.75133" lon="4.81472">
        <ele>203</ele>
        <time>2021-05-15T07:18:39.000Z</time>
      </trkpt>
      <trkpt lat="49.75134" lon="4.81465">
        <ele>203</ele>
        <time>2021-05-15T07:18:40.000Z</time>
      </trkpt>
      <trkpt lat="49.75136" lon="4.81459">
        <ele>203</ele>
        <time>2021-05-15T07:18:41.000Z</time>
      </trkpt>
      <trkpt lat="49.75137" lon="4.81453">
        <ele>203</ele>
        <time>2021-05-15T07:18:42.000Z</time>
      </trkpt>
      <trkpt lat="49.75138" lon="4.81447">
        <ele>203</ele>
        <time>2021-05-15T07:18:43.000Z</time>
      </trkpt>
      <trkpt lat="49.75139" lon="4.81442">
        <ele>203</ele>
        <time>2021-05-15T07:18:44.000Z</time>
      </trkpt>
      <trkpt lat="49.7514" lon="4.81437">
        <ele>204</ele>
        <time>2021-05-15T07:18:45.000Z</time>
      </trkpt>
      <trkpt lat="49.7514" lon="4.81431">
        <ele>204</ele>
        <time>2021-05-15T07:18:46.000Z</time>
      </trkpt>
      <trkpt lat="49.7514" lon="4.81426">
        <ele>204</ele>
        <time>2021-05-15T07:18:47.000Z</time>
      </trkpt>
      <trkpt lat="49.75141" lon="4.81421">
        <ele>204</ele>
        <time>2021-05-15T07:18:48.000Z</time>
      </trkpt>
      <trkpt lat="49.75141" lon="4.81417">
        <ele>204</ele>
        <time>2021-05-15T07:18:49.000Z</time>
      </trkpt>
      <trkpt lat="49.75142" lon="4.81412">
        <ele>205</ele>
        <time>2021-05-15T07:18:50.000Z</time>
      </trkpt>
      <trkpt lat="49.75142" lon="4.81407">
        <ele>205</ele>
        <time>2021-05-15T07:18:51.000Z</time>
      </trkpt>
      <trkpt lat="49.75143" lon="4.81403">
        <ele>205</ele>
        <time>2021-05-15T07:18:52.000Z</time>
      </trkpt>
      <trkpt lat="49.75144" lon="4.81398">
        <ele>205</ele>
        <time>2021-05-15T07:18:53.000Z</time>
      </trkpt>
      <trkpt lat="49.75144" lon="4.81394">
        <ele>205</ele>
        <time>2021-05-15T07:18:54.000Z</time>
      </trkpt>
      <trkpt lat="49.75144" lon="4.81389">
        <ele>205</ele>
        <time>2021-05-15T07:18:55.000Z</time>
      </trkpt>
      <trkpt lat="49.75145" lon="4.81384">
        <ele>206</ele>
        <time>2021-05-15T07:18:56.000Z</time>
      </trkpt>
      <trkpt lat="49.75145" lon="4.8138">
        <ele>206</ele>
        <time>2021-05-15T07:18:57.000Z</time>
      </trkpt>
      <trkpt lat="49.75145" lon="4.81375">
        <ele>206</ele>
        <time>2021-05-15T07:18:58.000Z</time>
      </trkpt>
      <trkpt lat="49.75146" lon="4.81371">
        <ele>206</ele>
        <time>2021-05-15T07:18:59.000Z</time>
      </trkpt>
      <trkpt lat="49.75146" lon="4.81367">
        <ele>206</ele>
        <time>2021-05-15T07:19:00.000Z</time>
      </trkpt>
      <trkpt lat="49.75146" lon="4.81362">
        <ele>207</ele>
        <time>2021-05-15T07:19:01.000Z</time>
      </trkpt>
      <trkpt lat="49.75146" lon="4.81358">
        <ele>207</ele>
        <time>2021-05-15T07:19:02.000Z</time>
      </trkpt>
      <trkpt lat="49.75146" lon="4.81354">
        <ele>207</ele>
        <time>2021-05-15T07:19:03.000Z</time>
      </trkpt>
      <trkpt lat="49.75146" lon="4.81349">
        <ele>207</ele>
        <time>2021-05-15T07:19:04.000Z</time>
      </trkpt>
      <trkpt lat="49.75145" lon="4.81345">
        <ele>208</ele>
        <time>2021-05-15T07:19:05.000Z</time>
      </trkpt>
      <trkpt lat="49.75145" lon="4.8134">
        <ele>208</ele>
        <time>2021-05-15T07:19:06.000Z</time>
      </trkpt>
      <trkpt lat="49.75145" lon="4.81336">
        <ele>208</ele>
        <time>2021-05-15T07:19:07.000Z</time>
      </trkpt>
      <trkpt lat="49.75144" lon="4.81331">
        <ele>209</ele>
        <time>2021-05-15T07:19:08.000Z</time>
      </trkpt>
      <trkpt lat="49.75144" lon="4.81327">
        <ele>209</ele>
        <time>2021-05-15T07:19:09.000Z</time>
      </trkpt>
      <trkpt lat="49.75144" lon="4.81322">
        <ele>209</ele>
        <time>2021-05-15T07:19:10.000Z</time>
      </trkpt>
      <trkpt lat="49.75144" lon="4.81317">
        <ele>210</ele>
        <time>2021-05-15T07:19:11.000Z</time>
      </trkpt>
      <trkpt lat="49.75144" lon="4.81312">
        <ele>210</ele>
        <time>2021-05-15T07:19:12.000Z</time>
      </trkpt>
      <trkpt lat="49.75143" lon="4.81307">
        <ele>210</ele>
        <time>2021-05-15T07:19:13.000Z</time>
      </trkpt>
      <trkpt lat="49.75143" lon="4.81302">
        <ele>211</ele>
        <time>2021-05-15T07:19:14.000Z</time>
      </trkpt>
      <trkpt lat="49.75142" lon="4.81297">
        <ele>211</ele>
        <time>2021-05-15T07:19:15.000Z</time>
      </trkpt>
      <trkpt lat="49.75142" lon="4.81293">
        <ele>211</ele>
        <time>2021-05-15T07:19:16.000Z</time>
      </trkpt>
      <trkpt lat="49.75141" lon="4.81288">
        <ele>211</ele>
        <time>2021-05-15T07:19:17.000Z</time>
      </trkpt>
      <trkpt lat="49.7514" lon="4.81283">
        <ele>212</ele>
        <time>2021-05-15T07:19:18.000Z</time>
      </trkpt>
      <trkpt lat="49.75138" lon="4.81278">
        <ele>212</ele>
        <time>2021-05-15T07:19:19.000Z</time>
      </trkpt>
      <trkpt lat="49.75137" lon="4.81273">
        <ele>212</ele>
        <time>2021-05-15T07:19:20.000Z</time>
      </trkpt>
      <trkpt lat="49.75136" lon="4.81268">
        <ele>213</ele>
        <time>2021-05-15T07:19:21.000Z</time>
      </trkpt>
      <trkpt lat="49.75135" lon="4.81263">
        <ele>213</ele>
        <time>2021-05-15T07:19:22.000Z</time>
      </trkpt>
      <trkpt lat="49.75134" lon="4.81258">
        <ele>213</ele>
        <time>2021-05-15T07:19:23.000Z</time>
      </trkpt>
      <trkpt lat="49.75132" lon="4.81253">
        <ele>213</ele>
        <time>2021-05-15T07:19:24.000Z</time>
      </trkpt>
      <trkpt lat="49.75131" lon="4.81248">
        <ele>214</ele>
        <time>2021-05-15T07:19:25.000Z</time>
      </trkpt>
      <trkpt lat="49.7513" lon="4.81243">
        <ele>214</ele>
        <time>2021-05-15T07:19:26.000Z</time>
      </trkpt>
      <trkpt lat="49.75129" lon="4.81238">
        <ele>214</ele>
        <time>2021-05-15T07:19:27.000Z</time>
      </trkpt>
      <trkpt lat="49.75128" lon="4.81233">
        <ele>214</ele>
        <time>2021-05-15T07:19:28.000Z</time>
      </trkpt>
      <trkpt lat="49.75127" lon="4.81229">
        <ele>214</ele>
        <time>2021-05-15T07:19:29.000Z</time>
      </trkpt>
      <trkpt lat="49.75127" lon="4.81225">
        <ele>215</ele>
        <time>2021-05-15T07:19:30.000Z</time>
      </trkpt>
      <trkpt lat="49.75126" lon="4.8122">
        <ele>215</ele>
        <time>2021-05-15T07:19:31.000Z</time>
      </trkpt>
      <trkpt lat="49.75126" lon="4.81216">
        <ele>215</ele>
        <time>2021-05-15T07:19:32.000Z</time>
      </trkpt>
      <trkpt lat="49.75125" lon="4.81212">
        <ele>215</ele>
        <time>2021-05-15T07:19:33.000Z</time>
      </trkpt>
      <trkpt lat="49.75125" lon="4.81207">
        <ele>215</ele>
        <time>2021-05-15T07:19:34.000Z</time>
      </trkpt>
      <trkpt lat="49.75124" lon="4.81202">
        <ele>215</ele>
        <time>2021-05-15T07:19:35.000Z</time>
      </trkpt>
      <trkpt lat="49.75123" lon="4.81197">
        <ele>215</ele>
        <time>2021-05-15T07:19:36.000Z</time>
      </trkpt>
      <trkpt lat="49.75122" lon="4.81192">
        <ele>215</ele>
        <time>2021-05-15T07:19:37.000Z</time>
      </trkpt>
      <trkpt lat="49.75121" lon="4.81186">
        <ele>216</ele>
        <time>2021-05-15T07:19:38.000Z</time>
      </trkpt>
      <trkpt lat="49.7512" lon="4.81181">
        <ele>216</ele>
        <time>2021-05-15T07:19:39.000Z</time>
      </trkpt>
      <trkpt lat="49.75119" lon="4.81176">
        <ele>216</ele>
        <time>2021-05-15T07:19:40.000Z</time>
      </trkpt>
      <trkpt lat="49.75118" lon="4.8117">
        <ele>216</ele>
        <time>2021-05-15T07:19:41.000Z</time>
      </trkpt>
      <trkpt lat="49.75117" lon="4.81165">
        <ele>216</ele>
        <time>2021-05-15T07:19:42.000Z</time>
      </trkpt>
      <trkpt lat="49.75116" lon="4.8116">
        <ele>216</ele>
        <time>2021-05-15T07:19:43.000Z</time>
      </trkpt>
      <trkpt lat="49.75114" lon="4.81155">
        <ele>217</ele>
        <time>2021-05-15T07:19:44.000Z</time>
      </trkpt>
      <trkpt lat="49.75113" lon="4.81149">
        <ele>217</ele>
        <time>2021-05-15T07:19:45.000Z</time>
      </trkpt>
      <trkpt lat="49.75112" lon="4.81143">
        <ele>217</ele>
        <time>2021-05-15T07:19:46.000Z</time>
      </trkpt>
      <trkpt lat="49.7511" lon="4.81137">
        <ele>217</ele>
        <time>2021-05-15T07:19:47.000Z</time>
      </trkpt>
      <trkpt lat="49.75109" lon="4.81132">
        <ele>217</ele>
        <time>2021-05-15T07:19:48.000Z</time>
      </trkpt>
      <trkpt lat="49.75108" lon="4.81125">
        <ele>218</ele>
        <time>2021-05-15T07:19:49.000Z</time>
      </trkpt>
      <trkpt lat="49.75106" lon="4.81119">
        <ele>218</ele>
        <time>2021-05-15T07:19:50.000Z</time>
      </trkpt>
      <trkpt lat="49.75104" lon="4.81113">
        <ele>218</ele>
        <time>2021-05-15T07:19:51.000Z</time>
      </trkpt>
      <trkpt lat="49.75102" lon="4.81107">
        <ele>218</ele>
        <time>2021-05-15T07:19:52.000Z</time>
      </trkpt>
      <trkpt lat="49.75101" lon="4.81101">
        <ele>218</ele>
        <time>2021-05-15T07:19:53.000Z</time>
      </trkpt>
      <trkpt lat="49.75099" lon="4.81095">
        <ele>218</ele>
        <time>2021-05-15T07:19:54.000Z</time>
      </trkpt>
      <trkpt lat="49.75097" lon="4.81089">
        <ele>218</ele>
        <time>2021-05-15T07:19:55.000Z</time>
      </trkpt>
      <trkpt lat="49.75096" lon="4.81083">
        <ele>218</ele>
        <time>2021-05-15T07:19:56.000Z</time>
      </trkpt>
      <trkpt lat="49.75095" lon="4.81077">
        <ele>218</ele>
        <time>2021-05-15T07:19:57.000Z</time>
      </trkpt>
      <trkpt lat="49.75093" lon="4.8107">
        <ele>218</ele>
        <time>2021-05-15T07:19:58.000Z</time>
      </trkpt>
      <trkpt lat="49.75092" lon="4.81064">
        <ele>218</ele>
        <time>2021-05-15T07:19:59.000Z</time>
      </trkpt>
      <trkpt lat="49.75091" lon="4.81057">
        <ele>218</ele>
        <time>2021-05-15T07:20:00.000Z</time>
      </trkpt>
      <trkpt lat="49.75089" lon="4.8105">
        <ele>218</ele>
        <time>2021-05-15T07:20:01.000Z</time>
      </trkpt>
      <trkpt lat="49.75087" lon="4.81042">
        <ele>218</ele>
        <time>2021-05-15T07:20:02.000Z</time>
      </trkpt>
      <trkpt lat="49.75086" lon="4.81036">
        <ele>218</ele>
        <time>2021-05-15T07:20:03.000Z</time>
      </trkpt>
      <trkpt lat="49.75084" lon="4.81029">
        <ele>218</ele>
        <time>2021-05-15T07:20:04.000Z</time>
      </trkpt>
      <trkpt lat="49.75083" lon="4.81022">
        <ele>218</ele>
        <time>2021-05-15T07:20:05.000Z</time>
      </trkpt>
      <trkpt lat="49.75082" lon="4.81014">
        <ele>218</ele>
        <time>2021-05-15T07:20:06.000Z</time>
      </trkpt>
      <trkpt lat="49.7508" lon="4.81007">
        <ele>218</ele>
        <time>2021-05-15T07:20:07.000Z</time>
      </trkpt>
      <trkpt lat="49.75078" lon="4.81001">
        <ele>218</ele>
        <time>2021-05-15T07:20:08.000Z</time>
      </trkpt>
      <trkpt lat="49.75076" lon="4.80995">
        <ele>218</ele>
        <time>2021-05-15T07:20:09.000Z</time>
      </trkpt>
      <trkpt lat="49.75074" lon="4.80988">
        <ele>218</ele>
        <time>2021-05-15T07:20:10.000Z</time>
      </trkpt>
      <trkpt lat="49.75071" lon="4.80981">
        <ele>218</ele>
        <time>2021-05-15T07:20:11.000Z</time>
      </trkpt>
      <trkpt lat="49.75069" lon="4.80974">
        <ele>218</ele>
        <time>2021-05-15T07:20:12.000Z</time>
      </trkpt>
      <trkpt lat="49.75067" lon="4.80967">
        <ele>218</ele>
        <time>2021-05-15T07:20:13.000Z</time>
      </trkpt>
      <trkpt lat="49.75065" lon="4.80959">
        <ele>219</ele>
        <time>2021-05-15T07:20:14.000Z</time>
      </trkpt>
      <trkpt lat="49.75062" lon="4.80952">
        <ele>219</ele>
        <time>2021-05-15T07:20:15.000Z</time>
      </trkpt>
      <trkpt lat="49.7506" lon="4.80944">
        <ele>219</ele>
        <time>2021-05-15T07:20:16.000Z</time>
      </trkpt>
      <trkpt lat="49.75059" lon="4.80936">
        <ele>219</ele>
        <time>2021-05-15T07:20:17.000Z</time>
      </trkpt>
      <trkpt lat="49.75057" lon="4.80928">
        <ele>219</ele>
        <time>2021-05-15T07:20:18.000Z</time>
      </trkpt>
      <trkpt lat="49.75056" lon="4.80919">
        <ele>218</ele>
        <time>2021-05-15T07:20:19.000Z</time>
      </trkpt>
      <trkpt lat="49.75055" lon="4.80909">
        <ele>218</ele>
        <time>2021-05-15T07:20:20.000Z</time>
      </trkpt>
      <trkpt lat="49.75055" lon="4.80898">
        <ele>218</ele>
        <time>2021-05-15T07:20:21.000Z</time>
      </trkpt>
      <trkpt lat="49.75056" lon="4.80887">
        <ele>218</ele>
        <time>2021-05-15T07:20:22.000Z</time>
      </trkpt>
      <trkpt lat="49.75057" lon="4.80875">
        <ele>218</ele>
        <time>2021-05-15T07:20:23.000Z</time>
      </trkpt>
      <trkpt lat="49.75058" lon="4.80862">
        <ele>218</ele>
        <time>2021-05-15T07:20:24.000Z</time>
      </trkpt>
      <trkpt lat="49.75059" lon="4.80847">
        <ele>218</ele>
        <time>2021-05-15T07:20:25.000Z</time>
      </trkpt>
      <trkpt lat="49.75061" lon="4.80832">
        <ele>218</ele>
        <time>2021-05-15T07:20:26.000Z</time>
      </trkpt>
      <trkpt lat="49.75062" lon="4.80816">
        <ele>218</ele>
        <time>2021-05-15T07:20:27.000Z</time>
      </trkpt>
      <trkpt lat="49.75065" lon="4.808">
        <ele>217</ele>
        <time>2021-05-15T07:20:28.000Z</time>
      </trkpt>
      <trkpt lat="49.75068" lon="4.80785">
        <ele>217</ele>
        <time>2021-05-15T07:20:29.000Z</time>
      </trkpt>
      <trkpt lat="49.75072" lon="4.80768">
        <ele>217</ele>
        <time>2021-05-15T07:20:30.000Z</time>
      </trkpt>
      <trkpt lat="49.75076" lon="4.80752">
        <ele>217</ele>
        <time>2021-05-15T07:20:31.000Z</time>
      </trkpt>
      <trkpt lat="49.75081" lon="4.80735">
        <ele>216</ele>
        <time>2021-05-15T07:20:32.000Z</time>
      </trkpt>
      <trkpt lat="49.75087" lon="4.80721">
        <ele>216</ele>
        <time>2021-05-15T07:20:33.000Z</time>
      </trkpt>
      <trkpt lat="49.75095" lon="4.8071">
        <ele>215</ele>
        <time>2021-05-15T07:20:34.000Z</time>
      </trkpt>
      <trkpt lat="49.75105" lon="4.80702">
        <ele>215</ele>
        <time>2021-05-15T07:20:35.000Z</time>
      </trkpt>
      <trkpt lat="49.75114" lon="4.80696">
        <ele>214</ele>
        <time>2021-05-15T07:20:36.000Z</time>
      </trkpt>
      <trkpt lat="49.75123" lon="4.80691">
        <ele>213</ele>
        <time>2021-05-15T07:20:37.000Z</time>
      </trkpt>
      <trkpt lat="49.75132" lon="4.80688">
        <ele>212</ele>
        <time>2021-05-15T07:20:38.000Z</time>
      </trkpt>
      <trkpt lat="49.7514" lon="4.80688">
        <ele>212</ele>
        <time>2021-05-15T07:20:39.000Z</time>
      </trkpt>
      <trkpt lat="49.75149" lon="4.80689">
        <ele>211</ele>
        <time>2021-05-15T07:20:40.000Z</time>
      </trkpt>
      <trkpt lat="49.75158" lon="4.80689">
        <ele>210</ele>
        <time>2021-05-15T07:20:41.000Z</time>
      </trkpt>
      <trkpt lat="49.75166" lon="4.80689">
        <ele>210</ele>
        <time>2021-05-15T07:20:42.000Z</time>
      </trkpt>
      <trkpt lat="49.75174" lon="4.80689">
        <ele>209</ele>
        <time>2021-05-15T07:20:43.000Z</time>
      </trkpt>
      <trkpt lat="49.75181" lon="4.80688">
        <ele>209</ele>
        <time>2021-05-15T07:20:44.000Z</time>
      </trkpt>
      <trkpt lat="49.75188" lon="4.80688">
        <ele>209</ele>
        <time>2021-05-15T07:20:45.000Z</time>
      </trkpt>
      <trkpt lat="49.75196" lon="4.80688">
        <ele>208</ele>
        <time>2021-05-15T07:20:46.000Z</time>
      </trkpt>
      <trkpt lat="49.75203" lon="4.80687">
        <ele>208</ele>
        <time>2021-05-15T07:20:47.000Z</time>
      </trkpt>
      <trkpt lat="49.75209" lon="4.80687">
        <ele>208</ele>
        <time>2021-05-15T07:20:48.000Z</time>
      </trkpt>
      <trkpt lat="49.75216" lon="4.80688">
        <ele>208</ele>
        <time>2021-05-15T07:20:49.000Z</time>
      </trkpt>
      <trkpt lat="49.75222" lon="4.80688">
        <ele>207</ele>
        <time>2021-05-15T07:20:50.000Z</time>
      </trkpt>
      <trkpt lat="49.75228" lon="4.80689">
        <ele>207</ele>
        <time>2021-05-15T07:20:51.000Z</time>
      </trkpt>
      <trkpt lat="49.75233" lon="4.80691">
        <ele>207</ele>
        <time>2021-05-15T07:20:52.000Z</time>
      </trkpt>
      <trkpt lat="49.75239" lon="4.80693">
        <ele>207</ele>
        <time>2021-05-15T07:20:53.000Z</time>
      </trkpt>
      <trkpt lat="49.75244" lon="4.80695">
        <ele>207</ele>
        <time>2021-05-15T07:20:54.000Z</time>
      </trkpt>
      <trkpt lat="49.7525" lon="4.80695">
        <ele>207</ele>
        <time>2021-05-15T07:20:55.000Z</time>
      </trkpt>
      <trkpt lat="49.75255" lon="4.80695">
        <ele>207</ele>
        <time>2021-05-15T07:20:56.000Z</time>
      </trkpt>
      <trkpt lat="49.75259" lon="4.80694">
        <ele>207</ele>
        <time>2021-05-15T07:20:57.000Z</time>
      </trkpt>
      <trkpt lat="49.75264" lon="4.80693">
        <ele>207</ele>
        <time>2021-05-15T07:20:58.000Z</time>
      </trkpt>
      <trkpt lat="49.75268" lon="4.80691">
        <ele>207</ele>
        <time>2021-05-15T07:20:59.000Z</time>
      </trkpt>
      <trkpt lat="49.75272" lon="4.80688">
        <ele>207</ele>
        <time>2021-05-15T07:21:00.000Z</time>
      </trkpt>
      <trkpt lat="49.75276" lon="4.80685">
        <ele>207</ele>
        <time>2021-05-15T07:21:01.000Z</time>
      </trkpt>
      <trkpt lat="49.7528" lon="4.80683">
        <ele>207</ele>
        <time>2021-05-15T07:21:02.000Z</time>
      </trkpt>
      <trkpt lat="49.75284" lon="4.8068">
        <ele>207</ele>
        <time>2021-05-15T07:21:03.000Z</time>
      </trkpt>
      <trkpt lat="49.75288" lon="4.80677">
        <ele>207</ele>
        <time>2021-05-15T07:21:04.000Z</time>
      </trkpt>
      <trkpt lat="49.75292" lon="4.80675">
        <ele>207</ele>
        <time>2021-05-15T07:21:05.000Z</time>
      </trkpt>
      <trkpt lat="49.75295" lon="4.80673">
        <ele>207</ele>
        <time>2021-05-15T07:21:06.000Z</time>
      </trkpt>
      <trkpt lat="49.75299" lon="4.80671">
        <ele>207</ele>
        <time>2021-05-15T07:21:07.000Z</time>
      </trkpt>
      <trkpt lat="49.75303" lon="4.80671">
        <ele>207</ele>
        <time>2021-05-15T07:21:08.000Z</time>
      </trkpt>
      <trkpt lat="49.75309" lon="4.8067">
        <ele>207</ele>
        <time>2021-05-15T07:21:09.000Z</time>
      </trkpt>
      <trkpt lat="49.75314" lon="4.8067">
        <ele>207</ele>
        <time>2021-05-15T07:21:10.000Z</time>
      </trkpt>
      <trkpt lat="49.75319" lon="4.8067">
        <ele>207</ele>
        <time>2021-05-15T07:21:11.000Z</time>
      </trkpt>
      <trkpt lat="49.75323" lon="4.80669">
        <ele>207</ele>
        <time>2021-05-15T07:21:12.000Z</time>
      </trkpt>
      <trkpt lat="49.75327" lon="4.8067">
        <ele>207</ele>
        <time>2021-05-15T07:21:13.000Z</time>
      </trkpt>
      <trkpt lat="49.75331" lon="4.8067">
        <ele>207</ele>
        <time>2021-05-15T07:21:14.000Z</time>
      </trkpt>
      <trkpt lat="49.75335" lon="4.80671">
        <ele>207</ele>
        <time>2021-05-15T07:21:15.000Z</time>
      </trkpt>
      <trkpt lat="49.75338" lon="4.80672">
        <ele>207</ele>
        <time>2021-05-15T07:21:16.000Z</time>
      </trkpt>
      <trkpt lat="49.75342" lon="4.80673">
        <ele>207</ele>
        <time>2021-05-15T07:21:17.000Z</time>
      </trkpt>
      <trkpt lat="49.75345" lon="4.80673">
        <ele>207</ele>
        <time>2021-05-15T07:21:18.000Z</time>
      </trkpt>
      <trkpt lat="49.75349" lon="4.80673">
        <ele>207</ele>
        <time>2021-05-15T07:21:19.000Z</time>
      </trkpt>
      <trkpt lat="49.75352" lon="4.80674">
        <ele>207</ele>
        <time>2021-05-15T07:21:20.000Z</time>
      </trkpt>
      <trkpt lat="49.75356" lon="4.80675">
        <ele>207</ele>
        <time>2021-05-15T07:21:21.000Z</time>
      </trkpt>
      <trkpt lat="49.75359" lon="4.80675">
        <ele>207</ele>
        <time>2021-05-15T07:21:22.000Z</time>
      </trkpt>
      <trkpt lat="49.75362" lon="4.80675">
        <ele>208</ele>
        <time>2021-05-15T07:21:23.000Z</time>
      </trkpt>
      <trkpt lat="49.75366" lon="4.80676">
        <ele>208</ele>
        <time>2021-05-15T07:21:24.000Z</time>
      </trkpt>
      <trkpt lat="49.75369" lon="4.80678">
        <ele>208</ele>
        <time>2021-05-15T07:21:25.000Z</time>
      </trkpt>
      <trkpt lat="49.75373" lon="4.8068">
        <ele>208</ele>
        <time>2021-05-15T07:21:26.000Z</time>
      </trkpt>
      <trkpt lat="49.75377" lon="4.80681">
        <ele>208</ele>
        <time>2021-05-15T07:21:27.000Z</time>
      </trkpt>
      <trkpt lat="49.7538" lon="4.80683">
        <ele>209</ele>
        <time>2021-05-15T07:21:28.000Z</time>
      </trkpt>
      <trkpt lat="49.75384" lon="4.80685">
        <ele>209</ele>
        <time>2021-05-15T07:21:29.000Z</time>
      </trkpt>
      <trkpt lat="49.75387" lon="4.80687">
        <ele>209</ele>
        <time>2021-05-15T07:21:30.000Z</time>
      </trkpt>
      <trkpt lat="49.75389" lon="4.80689">
        <ele>209</ele>
        <time>2021-05-15T07:21:31.000Z</time>
      </trkpt>
      <trkpt lat="49.75392" lon="4.80691">
        <ele>209</ele>
        <time>2021-05-15T07:21:32.000Z</time>
      </trkpt>
      <trkpt lat="49.75395" lon="4.80693">
        <ele>209</ele>
        <time>2021-05-15T07:21:33.000Z</time>
      </trkpt>
      <trkpt lat="49.75398" lon="4.80695">
        <ele>209</ele>
        <time>2021-05-15T07:21:34.000Z</time>
      </trkpt>
      <trkpt lat="49.75401" lon="4.80696">
        <ele>209</ele>
        <time>2021-05-15T07:21:35.000Z</time>
      </trkpt>
      <trkpt lat="49.75404" lon="4.80697">
        <ele>209</ele>
        <time>2021-05-15T07:21:36.000Z</time>
      </trkpt>
      <trkpt lat="49.75408" lon="4.80697">
        <ele>209</ele>
        <time>2021-05-15T07:21:37.000Z</time>
      </trkpt>
      <trkpt lat="49.75411" lon="4.80698">
        <ele>210</ele>
        <time>2021-05-15T07:21:38.000Z</time>
      </trkpt>
      <trkpt lat="49.75413" lon="4.80699">
        <ele>210</ele>
        <time>2021-05-15T07:21:39.000Z</time>
      </trkpt>
      <trkpt lat="49.75416" lon="4.807">
        <ele>210</ele>
        <time>2021-05-15T07:21:40.000Z</time>
      </trkpt>
      <trkpt lat="49.75418" lon="4.80701">
        <ele>210</ele>
        <time>2021-05-15T07:21:41.000Z</time>
      </trkpt>
      <trkpt lat="49.75421" lon="4.80703">
        <ele>210</ele>
        <time>2021-05-15T07:21:42.000Z</time>
      </trkpt>
      <trkpt lat="49.75424" lon="4.80704">
        <ele>210</ele>
        <time>2021-05-15T07:21:43.000Z</time>
      </trkpt>
      <trkpt lat="49.75427" lon="4.80706">
        <ele>210</ele>
        <time>2021-05-15T07:21:44.000Z</time>
      </trkpt>
      <trkpt lat="49.7543" lon="4.80708">
        <ele>210</ele>
        <time>2021-05-15T07:21:45.000Z</time>
      </trkpt>
      <trkpt lat="49.75433" lon="4.8071">
        <ele>210</ele>
        <time>2021-05-15T07:21:46.000Z</time>
      </trkpt>
      <trkpt lat="49.75436" lon="4.80712">
        <ele>211</ele>
        <time>2021-05-15T07:21:47.000Z</time>
      </trkpt>
      <trkpt lat="49.75439" lon="4.80714">
        <ele>211</ele>
        <time>2021-05-15T07:21:48.000Z</time>
      </trkpt>
      <trkpt lat="49.75441" lon="4.80716">
        <ele>211</ele>
        <time>2021-05-15T07:21:49.000Z</time>
      </trkpt>
      <trkpt lat="49.75443" lon="4.80717">
        <ele>211</ele>
        <time>2021-05-15T07:21:50.000Z</time>
      </trkpt>
      <trkpt lat="49.75446" lon="4.80719">
        <ele>211</ele>
        <time>2021-05-15T07:21:51.000Z</time>
      </trkpt>
      <trkpt lat="49.75449" lon="4.80721">
        <ele>211</ele>
        <time>2021-05-15T07:21:52.000Z</time>
      </trkpt>
      <trkpt lat="49.75451" lon="4.80723">
        <ele>212</ele>
        <time>2021-05-15T07:21:53.000Z</time>
      </trkpt>
      <trkpt lat="49.75454" lon="4.80725">
        <ele>212</ele>
        <time>2021-05-15T07:21:54.000Z</time>
      </trkpt>
      <trkpt lat="49.75457" lon="4.80728">
        <ele>212</ele>
        <time>2021-05-15T07:21:55.000Z</time>
      </trkpt>
      <trkpt lat="49.7546" lon="4.80731">
        <ele>212</ele>
        <time>2021-05-15T07:21:56.000Z</time>
      </trkpt>
      <trkpt lat="49.75463" lon="4.80732">
        <ele>212</ele>
        <time>2021-05-15T07:21:57.000Z</time>
      </trkpt>
      <trkpt lat="49.75466" lon="4.80734">
        <ele>212</ele>
        <time>2021-05-15T07:21:58.000Z</time>
      </trkpt>
      <trkpt lat="49.75469" lon="4.80735">
        <ele>212</ele>
        <time>2021-05-15T07:21:59.000Z</time>
      </trkpt>
      <trkpt lat="49.75472" lon="4.80738">
        <ele>213</ele>
        <time>2021-05-15T07:22:00.000Z</time>
      </trkpt>
      <trkpt lat="49.75475" lon="4.8074">
        <ele>213</ele>
        <time>2021-05-15T07:22:01.000Z</time>
      </trkpt>
      <trkpt lat="49.75478" lon="4.80743">
        <ele>213</ele>
        <time>2021-05-15T07:22:02.000Z</time>
      </trkpt>
      <trkpt lat="49.75481" lon="4.80745">
        <ele>213</ele>
        <time>2021-05-15T07:22:03.000Z</time>
      </trkpt>
      <trkpt lat="49.75483" lon="4.80748">
        <ele>213</ele>
        <time>2021-05-15T07:22:04.000Z</time>
      </trkpt>
      <trkpt lat="49.75486" lon="4.80751">
        <ele>213</ele>
        <time>2021-05-15T07:22:05.000Z</time>
      </trkpt>
      <trkpt lat="49.75489" lon="4.80754">
        <ele>213</ele>
        <time>2021-05-15T07:22:06.000Z</time>
      </trkpt>
      <trkpt lat="49.75491" lon="4.80756">
        <ele>213</ele>
        <time>2021-05-15T07:22:07.000Z</time>
      </trkpt>
      <trkpt lat="49.75494" lon="4.80757">
        <ele>213</ele>
        <time>2021-05-15T07:22:08.000Z</time>
      </trkpt>
      <trkpt lat="49.75497" lon="4.80759">
        <ele>213</ele>
        <time>2021-05-15T07:22:09.000Z</time>
      </trkpt>
      <trkpt lat="49.75499" lon="4.80761">
        <ele>214</ele>
        <time>2021-05-15T07:22:10.000Z</time>
      </trkpt>
      <trkpt lat="49.75501" lon="4.80762">
        <ele>214</ele>
        <time>2021-05-15T07:22:11.000Z</time>
      </trkpt>
      <trkpt lat="49.75504" lon="4.80764">
        <ele>214</ele>
        <time>2021-05-15T07:22:12.000Z</time>
      </trkpt>
      <trkpt lat="49.75506" lon="4.80765">
        <ele>215</ele>
        <time>2021-05-15T07:22:13.000Z</time>
      </trkpt>
      <trkpt lat="49.75508" lon="4.80767">
        <ele>215</ele>
        <time>2021-05-15T07:22:14.000Z</time>
      </trkpt>
      <trkpt lat="49.75511" lon="4.80768">
        <ele>215</ele>
        <time>2021-05-15T07:22:15.000Z</time>
      </trkpt>
      <trkpt lat="49.75513" lon="4.8077">
        <ele>216</ele>
        <time>2021-05-15T07:22:16.000Z</time>
      </trkpt>
      <trkpt lat="49.75516" lon="4.80772">
        <ele>216</ele>
        <time>2021-05-15T07:22:17.000Z</time>
      </trkpt>
      <trkpt lat="49.75519" lon="4.80774">
        <ele>216</ele>
        <time>2021-05-15T07:22:18.000Z</time>
      </trkpt>
      <trkpt lat="49.75522" lon="4.80777">
        <ele>216</ele>
        <time>2021-05-15T07:22:19.000Z</time>
      </trkpt>
      <trkpt lat="49.75525" lon="4.80779">
        <ele>217</ele>
        <time>2021-05-15T07:22:20.000Z</time>
      </trkpt>
      <trkpt lat="49.75528" lon="4.80782">
        <ele>217</ele>
        <time>2021-05-15T07:22:21.000Z</time>
      </trkpt>
      <trkpt lat="49.75531" lon="4.80785">
        <ele>217</ele>
        <time>2021-05-15T07:22:22.000Z</time>
      </trkpt>
      <trkpt lat="49.75534" lon="4.80787">
        <ele>218</ele>
        <time>2021-05-15T07:22:23.000Z</time>
      </trkpt>
      <trkpt lat="49.75537" lon="4.8079">
        <ele>218</ele>
        <time>2021-05-15T07:22:24.000Z</time>
      </trkpt>
      <trkpt lat="49.75538" lon="4.80792">
        <ele>219</ele>
        <time>2021-05-15T07:22:25.000Z</time>
      </trkpt>
      <trkpt lat="49.7554" lon="4.80795">
        <ele>219</ele>
        <time>2021-05-15T07:22:26.000Z</time>
      </trkpt>
      <trkpt lat="49.75542" lon="4.80798">
        <ele>220</ele>
        <time>2021-05-15T07:22:27.000Z</time>
      </trkpt>
      <trkpt lat="49.75544" lon="4.80801">
        <ele>220</ele>
        <time>2021-05-15T07:22:28.000Z</time>
      </trkpt>
      <trkpt lat="49.75546" lon="4.80803">
        <ele>220</ele>
        <time>2021-05-15T07:22:29.000Z</time>
      </trkpt>
      <trkpt lat="49.75548" lon="4.80806">
        <ele>221</ele>
        <time>2021-05-15T07:22:30.000Z</time>
      </trkpt>
      <trkpt lat="49.75551" lon="4.80809">
        <ele>221</ele>
        <time>2021-05-15T07:22:31.000Z</time>
      </trkpt>
      <trkpt lat="49.75554" lon="4.80812">
        <ele>221</ele>
        <time>2021-05-15T07:22:32.000Z</time>
      </trkpt>
      <trkpt lat="49.75556" lon="4.80814">
        <ele>221</ele>
        <time>2021-05-15T07:22:33.000Z</time>
      </trkpt>
      <trkpt lat="49.75558" lon="4.80816">
        <ele>222</ele>
        <time>2021-05-15T07:22:34.000Z</time>
      </trkpt>
      <trkpt lat="49.7556" lon="4.80819">
        <ele>222</ele>
        <time>2021-05-15T07:22:35.000Z</time>
      </trkpt>
      <trkpt lat="49.75563" lon="4.80822">
        <ele>222</ele>
        <time>2021-05-15T07:22:36.000Z</time>
      </trkpt>
      <trkpt lat="49.75566" lon="4.80824">
        <ele>223</ele>
        <time>2021-05-15T07:22:37.000Z</time>
      </trkpt>
      <trkpt lat="49.75568" lon="4.80826">
        <ele>223</ele>
        <time>2021-05-15T07:22:38.000Z</time>
      </trkpt>
      <trkpt lat="49.75571" lon="4.80827">
        <ele>223</ele>
        <time>2021-05-15T07:22:39.000Z</time>
      </trkpt>
      <trkpt lat="49.75573" lon="4.80828">
        <ele>223</ele>
        <time>2021-05-15T07:22:40.000Z</time>
      </trkpt>
      <trkpt lat="49.75575" lon="4.80828">
        <ele>223</ele>
        <time>2021-05-15T07:22:41.000Z</time>
      </trkpt>
      <trkpt lat="49.75577" lon="4.80829">
        <ele>224</ele>
        <time>2021-05-15T07:22:42.000Z</time>
      </trkpt>
      <trkpt lat="49.75579" lon="4.8083">
        <ele>224</ele>
        <time>2021-05-15T07:22:43.000Z</time>
      </trkpt>
      <trkpt lat="49.75582" lon="4.80831">
        <ele>224</ele>
        <time>2021-05-15T07:22:44.000Z</time>
      </trkpt>
      <trkpt lat="49.75585" lon="4.80831">
        <ele>224</ele>
        <time>2021-05-15T07:22:45.000Z</time>
      </trkpt>
      <trkpt lat="49.75587" lon="4.80832">
        <ele>225</ele>
        <time>2021-05-15T07:22:46.000Z</time>
      </trkpt>
      <trkpt lat="49.7559" lon="4.80833">
        <ele>225</ele>
        <time>2021-05-15T07:22:47.000Z</time>
      </trkpt>
      <trkpt lat="49.75593" lon="4.80834">
        <ele>225</ele>
        <time>2021-05-15T07:22:48.000Z</time>
      </trkpt>
      <trkpt lat="49.75596" lon="4.80835">
        <ele>225</ele>
        <time>2021-05-15T07:22:49.000Z</time>
      </trkpt>
      <trkpt lat="49.75598" lon="4.80837">
        <ele>225</ele>
        <time>2021-05-15T07:22:50.000Z</time>
      </trkpt>
      <trkpt lat="49.75601" lon="4.80838">
        <ele>225</ele>
        <time>2021-05-15T07:22:51.000Z</time>
      </trkpt>
      <trkpt lat="49.75604" lon="4.8084">
        <ele>226</ele>
        <time>2021-05-15T07:22:52.000Z</time>
      </trkpt>
      <trkpt lat="49.75608" lon="4.80842">
        <ele>226</ele>
        <time>2021-05-15T07:22:53.000Z</time>
      </trkpt>
      <trkpt lat="49.75611" lon="4.80844">
        <ele>226</ele>
        <time>2021-05-15T07:22:54.000Z</time>
      </trkpt>
      <trkpt lat="49.75615" lon="4.80846">
        <ele>226</ele>
        <time>2021-05-15T07:22:55.000Z</time>
      </trkpt>
      <trkpt lat="49.75619" lon="4.80848">
        <ele>226</ele>
        <time>2021-05-15T07:22:56.000Z</time>
      </trkpt>
      <trkpt lat="49.75623" lon="4.8085">
        <ele>226</ele>
        <time>2021-05-15T07:22:57.000Z</time>
      </trkpt>
      <trkpt lat="49.75627" lon="4.80851">
        <ele>226</ele>
        <time>2021-05-15T07:22:58.000Z</time>
      </trkpt>
      <trkpt lat="49.75631" lon="4.80853">
        <ele>227</ele>
        <time>2021-05-15T07:22:59.000Z</time>
      </trkpt>
      <trkpt lat="49.75635" lon="4.80854">
        <ele>227</ele>
        <time>2021-05-15T07:23:00.000Z</time>
      </trkpt>
      <trkpt lat="49.75638" lon="4.80855">
        <ele>227</ele>
        <time>2021-05-15T07:23:01.000Z</time>
      </trkpt>
      <trkpt lat="49.75642" lon="4.80857">
        <ele>227</ele>
        <time>2021-05-15T07:23:02.000Z</time>
      </trkpt>
      <trkpt lat="49.75646" lon="4.80859">
        <ele>227</ele>
        <time>2021-05-15T07:23:03.000Z</time>
      </trkpt>
      <trkpt lat="49.75649" lon="4.8086">
        <ele>228</ele>
        <time>2021-05-15T07:23:04.000Z</time>
      </trkpt>
      <trkpt lat="49.75652" lon="4.80861">
        <ele>228</ele>
        <time>2021-05-15T07:23:05.000Z</time>
      </trkpt>
      <trkpt lat="49.75655" lon="4.80863">
        <ele>228</ele>
        <time>2021-05-15T07:23:06.000Z</time>
      </trkpt>
      <trkpt lat="49.75659" lon="4.80864">
        <ele>228</ele>
        <time>2021-05-15T07:23:07.000Z</time>
      </trkpt>
      <trkpt lat="49.75663" lon="4.80866">
        <ele>228</ele>
        <time>2021-05-15T07:23:08.000Z</time>
      </trkpt>
      <trkpt lat="49.75666" lon="4.80867">
        <ele>229</ele>
        <time>2021-05-15T07:23:09.000Z</time>
      </trkpt>
      <trkpt lat="49.7567" lon="4.80868">
        <ele>229</ele>
        <time>2021-05-15T07:23:10.000Z</time>
      </trkpt>
      <trkpt lat="49.75674" lon="4.80869">
        <ele>229</ele>
        <time>2021-05-15T07:23:11.000Z</time>
      </trkpt>
      <trkpt lat="49.75678" lon="4.80869">
        <ele>229</ele>
        <time>2021-05-15T07:23:12.000Z</time>
      </trkpt>
      <trkpt lat="49.75682" lon="4.8087">
        <ele>230</ele>
        <time>2021-05-15T07:23:13.000Z</time>
      </trkpt>
      <trkpt lat="49.75685" lon="4.80872">
        <ele>230</ele>
        <time>2021-05-15T07:23:14.000Z</time>
      </trkpt>
      <trkpt lat="49.75688" lon="4.80873">
        <ele>230</ele>
        <time>2021-05-15T07:23:15.000Z</time>
      </trkpt>
      <trkpt lat="49.75691" lon="4.80874">
        <ele>230</ele>
        <time>2021-05-15T07:23:16.000Z</time>
      </trkpt>
      <trkpt lat="49.75693" lon="4.80875">
        <ele>231</ele>
        <time>2021-05-15T07:23:17.000Z</time>
      </trkpt>
      <trkpt lat="49.75696" lon="4.80875">
        <ele>231</ele>
        <time>2021-05-15T07:23:18.000Z</time>
      </trkpt>
      <trkpt lat="49.757" lon="4.80877">
        <ele>231</ele>
        <time>2021-05-15T07:23:19.000Z</time>
      </trkpt>
      <trkpt lat="49.75703" lon="4.80878">
        <ele>231</ele>
        <time>2021-05-15T07:23:20.000Z</time>
      </trkpt>
      <trkpt lat="49.75706" lon="4.80879">
        <ele>232</ele>
        <time>2021-05-15T07:23:21.000Z</time>
      </trkpt>
      <trkpt lat="49.75709" lon="4.8088">
        <ele>232</ele>
        <time>2021-05-15T07:23:22.000Z</time>
      </trkpt>
      <trkpt lat="49.75713" lon="4.80881">
        <ele>232</ele>
        <time>2021-05-15T07:23:23.000Z</time>
      </trkpt>
      <trkpt lat="49.75716" lon="4.80882">
        <ele>233</ele>
        <time>2021-05-15T07:23:24.000Z</time>
      </trkpt>
      <trkpt lat="49.75719" lon="4.80884">
        <ele>233</ele>
        <time>2021-05-15T07:23:25.000Z</time>
      </trkpt>
      <trkpt lat="49.75722" lon="4.80885">
        <ele>233</ele>
        <time>2021-05-15T07:23:26.000Z</time>
      </trkpt>
      <trkpt lat="49.75724" lon="4.80886">
        <ele>233</ele>
        <time>2021-05-15T07:23:27.000Z</time>
      </trkpt>
      <trkpt lat="49.75727" lon="4.80888">
        <ele>233</ele>
        <time>2021-05-15T07:23:28.000Z</time>
      </trkpt>
      <trkpt lat="49.75729" lon="4.80889">
        <ele>234</ele>
        <time>2021-05-15T07:23:29.000Z</time>
      </trkpt>
      <trkpt lat="49.75732" lon="4.8089">
        <ele>234</ele>
        <time>2021-05-15T07:23:30.000Z</time>
      </trkpt>
      <trkpt lat="49.75735" lon="4.8089">
        <ele>234</ele>
        <time>2021-05-15T07:23:31.000Z</time>
      </trkpt>
      <trkpt lat="49.75739" lon="4.8089">
        <ele>235</ele>
        <time>2021-05-15T07:23:32.000Z</time>
      </trkpt>
      <trkpt lat="49.75743" lon="4.8089">
        <ele>235</ele>
        <time>2021-05-15T07:23:33.000Z</time>
      </trkpt>
      <trkpt lat="49.75746" lon="4.8089">
        <ele>235</ele>
        <time>2021-05-15T07:23:34.000Z</time>
      </trkpt>
      <trkpt lat="49.75749" lon="4.80891">
        <ele>236</ele>
        <time>2021-05-15T07:23:35.000Z</time>
      </trkpt>
      <trkpt lat="49.75752" lon="4.80891">
        <ele>236</ele>
        <time>2021-05-15T07:23:36.000Z</time>
      </trkpt>
      <trkpt lat="49.75756" lon="4.80891">
        <ele>236</ele>
        <time>2021-05-15T07:23:37.000Z</time>
      </trkpt>
      <trkpt lat="49.75758" lon="4.8089">
        <ele>236</ele>
        <time>2021-05-15T07:23:38.000Z</time>
      </trkpt>
      <trkpt lat="49.75762" lon="4.8089">
        <ele>237</ele>
        <time>2021-05-15T07:23:39.000Z</time>
      </trkpt>
      <trkpt lat="49.75765" lon="4.8089">
        <ele>237</ele>
        <time>2021-05-15T07:23:40.000Z</time>
      </trkpt>
      <trkpt lat="49.75769" lon="4.8089">
        <ele>237</ele>
        <time>2021-05-15T07:23:41.000Z</time>
      </trkpt>
      <trkpt lat="49.75773" lon="4.80891">
        <ele>237</ele>
        <time>2021-05-15T07:23:42.000Z</time>
      </trkpt>
      <trkpt lat="49.75776" lon="4.80892">
        <ele>237</ele>
        <time>2021-05-15T07:23:43.000Z</time>
      </trkpt>
      <trkpt lat="49.7578" lon="4.80893">
        <ele>238</ele>
        <time>2021-05-15T07:23:44.000Z</time>
      </trkpt>
      <trkpt lat="49.75783" lon="4.80893">
        <ele>238</ele>
        <time>2021-05-15T07:23:45.000Z</time>
      </trkpt>
      <trkpt lat="49.75786" lon="4.80893">
        <ele>238</ele>
        <time>2021-05-15T07:23:46.000Z</time>
      </trkpt>
      <trkpt lat="49.7579" lon="4.80893">
        <ele>238</ele>
        <time>2021-05-15T07:23:47.000Z</time>
      </trkpt>
      <trkpt lat="49.75792" lon="4.80894">
        <ele>239</ele>
        <time>2021-05-15T07:23:48.000Z</time>
      </trkpt>
      <trkpt lat="49.75795" lon="4.80894">
        <ele>239</ele>
        <time>2021-05-15T07:23:49.000Z</time>
      </trkpt>
      <trkpt lat="49.75797" lon="4.80895">
        <ele>239</ele>
        <time>2021-05-15T07:23:50.000Z</time>
      </trkpt>
      <trkpt lat="49.758" lon="4.80897">
        <ele>239</ele>
        <time>2021-05-15T07:23:51.000Z</time>
      </trkpt>
      <trkpt lat="49.75803" lon="4.809">
        <ele>240</ele>
        <time>2021-05-15T07:23:52.000Z</time>
      </trkpt>
      <trkpt lat="49.75805" lon="4.80901">
        <ele>240</ele>
        <time>2021-05-15T07:23:53.000Z</time>
      </trkpt>
      <trkpt lat="49.75809" lon="4.80902">
        <ele>240</ele>
        <time>2021-05-15T07:23:54.000Z</time>
      </trkpt>
      <trkpt lat="49.75812" lon="4.80903">
        <ele>240</ele>
        <time>2021-05-15T07:23:55.000Z</time>
      </trkpt>
      <trkpt lat="49.75816" lon="4.80906">
        <ele>240</ele>
        <time>2021-05-15T07:23:56.000Z</time>
      </trkpt>
      <trkpt lat="49.7582" lon="4.80908">
        <ele>240</ele>
        <time>2021-05-15T07:23:57.000Z</time>
      </trkpt>
      <trkpt lat="49.75824" lon="4.80911">
        <ele>241</ele>
        <time>2021-05-15T07:23:58.000Z</time>
      </trkpt>
      <trkpt lat="49.75828" lon="4.80913">
        <ele>241</ele>
        <time>2021-05-15T07:23:59.000Z</time>
      </trkpt>
      <trkpt lat="49.75832" lon="4.80916">
        <ele>241</ele>
        <time>2021-05-15T07:24:00.000Z</time>
      </trkpt>
      <trkpt lat="49.75835" lon="4.8092">
        <ele>241</ele>
        <time>2021-05-15T07:24:01.000Z</time>
      </trkpt>
      <trkpt lat="49.75838" lon="4.80923">
        <ele>241</ele>
        <time>2021-05-15T07:24:02.000Z</time>
      </trkpt>
      <trkpt lat="49.75841" lon="4.80926">
        <ele>241</ele>
        <time>2021-05-15T07:24:03.000Z</time>
      </trkpt>
      <trkpt lat="49.75844" lon="4.80929">
        <ele>241</ele>
        <time>2021-05-15T07:24:04.000Z</time>
      </trkpt>
      <trkpt lat="49.75848" lon="4.80932">
        <ele>241</ele>
        <time>2021-05-15T07:24:05.000Z</time>
      </trkpt>
      <trkpt lat="49.75851" lon="4.80935">
        <ele>240</ele>
        <time>2021-05-15T07:24:06.000Z</time>
      </trkpt>
      <trkpt lat="49.75853" lon="4.80938">
        <ele>240</ele>
        <time>2021-05-15T07:24:07.000Z</time>
      </trkpt>
      <trkpt lat="49.75856" lon="4.80941">
        <ele>240</ele>
        <time>2021-05-15T07:24:08.000Z</time>
      </trkpt>
      <trkpt lat="49.75859" lon="4.80945">
        <ele>240</ele>
        <time>2021-05-15T07:24:09.000Z</time>
      </trkpt>
      <trkpt lat="49.75862" lon="4.80948">
        <ele>240</ele>
        <time>2021-05-15T07:24:10.000Z</time>
      </trkpt>
      <trkpt lat="49.75865" lon="4.80951">
        <ele>240</ele>
        <time>2021-05-15T07:24:11.000Z</time>
      </trkpt>
      <trkpt lat="49.75868" lon="4.80955">
        <ele>240</ele>
        <time>2021-05-15T07:24:12.000Z</time>
      </trkpt>
      <trkpt lat="49.75871" lon="4.80958">
        <ele>240</ele>
        <time>2021-05-15T07:24:13.000Z</time>
      </trkpt>
      <trkpt lat="49.75874" lon="4.80961">
        <ele>240</ele>
        <time>2021-05-15T07:24:14.000Z</time>
      </trkpt>
      <trkpt lat="49.75877" lon="4.80964">
        <ele>240</ele>
        <time>2021-05-15T07:24:15.000Z</time>
      </trkpt>
      <trkpt lat="49.7588" lon="4.80967">
        <ele>240</ele>
        <time>2021-05-15T07:24:16.000Z</time>
      </trkpt>
      <trkpt lat="49.75883" lon="4.8097">
        <ele>240</ele>
        <time>2021-05-15T07:24:17.000Z</time>
      </trkpt>
      <trkpt lat="49.75886" lon="4.80974">
        <ele>240</ele>
        <time>2021-05-15T07:24:18.000Z</time>
      </trkpt>
      <trkpt lat="49.75889" lon="4.80978">
        <ele>240</ele>
        <time>2021-05-15T07:24:19.000Z</time>
      </trkpt>
      <trkpt lat="49.75892" lon="4.80982">
        <ele>241</ele>
        <time>2021-05-15T07:24:20.000Z</time>
      </trkpt>
      <trkpt lat="49.75895" lon="4.80987">
        <ele>241</ele>
        <time>2021-05-15T07:24:21.000Z</time>
      </trkpt>
      <trkpt lat="49.75897" lon="4.8099">
        <ele>241</ele>
        <time>2021-05-15T07:24:22.000Z</time>
      </trkpt>
      <trkpt lat="49.759" lon="4.80994">
        <ele>241</ele>
        <time>2021-05-15T07:24:23.000Z</time>
      </trkpt>
      <trkpt lat="49.75902" lon="4.80998">
        <ele>241</ele>
        <time>2021-05-15T07:24:24.000Z</time>
      </trkpt>
      <trkpt lat="49.75904" lon="4.81001">
        <ele>241</ele>
        <time>2021-05-15T07:24:25.000Z</time>
      </trkpt>
      <trkpt lat="49.75906" lon="4.81005">
        <ele>241</ele>
        <time>2021-05-15T07:24:26.000Z</time>
      </trkpt>
      <trkpt lat="49.75909" lon="4.81009">
        <ele>241</ele>
        <time>2021-05-15T07:24:27.000Z</time>
      </trkpt>
      <trkpt lat="49.75911" lon="4.81013">
        <ele>241</ele>
        <time>2021-05-15T07:24:28.000Z</time>
      </trkpt>
      <trkpt lat="49.75913" lon="4.81018">
        <ele>241</ele>
        <time>2021-05-15T07:24:29.000Z</time>
      </trkpt>
      <trkpt lat="49.75914" lon="4.81021">
        <ele>241</ele>
        <time>2021-05-15T07:24:30.000Z</time>
      </trkpt>
      <trkpt lat="49.75917" lon="4.81025">
        <ele>241</ele>
        <time>2021-05-15T07:24:31.000Z</time>
      </trkpt>
      <trkpt lat="49.75919" lon="4.81029">
        <ele>242</ele>
        <time>2021-05-15T07:24:32.000Z</time>
      </trkpt>
      <trkpt lat="49.7592" lon="4.81032">
        <ele>242</ele>
        <time>2021-05-15T07:24:33.000Z</time>
      </trkpt>
      <trkpt lat="49.75921" lon="4.81036">
        <ele>242</ele>
        <time>2021-05-15T07:24:34.000Z</time>
      </trkpt>
      <trkpt lat="49.75922" lon="4.81038">
        <ele>242</ele>
        <time>2021-05-15T07:24:35.000Z</time>
      </trkpt>
      <trkpt lat="49.75924" lon="4.81041">
        <ele>242</ele>
        <time>2021-05-15T07:24:36.000Z</time>
      </trkpt>
      <trkpt lat="49.75924" lon="4.81043">
        <ele>242</ele>
        <time>2021-05-15T07:24:37.000Z</time>
      </trkpt>
      <trkpt lat="49.75925" lon="4.81045">
        <ele>243</ele>
        <time>2021-05-15T07:24:38.000Z</time>
      </trkpt>
      <trkpt lat="49.75927" lon="4.81048">
        <ele>243</ele>
        <time>2021-05-15T07:24:39.000Z</time>
      </trkpt>
      <trkpt lat="49.75928" lon="4.81051">
        <ele>243</ele>
        <time>2021-05-15T07:24:40.000Z</time>
      </trkpt>
      <trkpt lat="49.75929" lon="4.81053">
        <ele>244</ele>
        <time>2021-05-15T07:24:41.000Z</time>
      </trkpt>
      <trkpt lat="49.75931" lon="4.81056">
        <ele>244</ele>
        <time>2021-05-15T07:24:42.000Z</time>
      </trkpt>
      <trkpt lat="49.75932" lon="4.81058">
        <ele>244</ele>
        <time>2021-05-15T07:24:43.000Z</time>
      </trkpt>
      <trkpt lat="49.75933" lon="4.81061">
        <ele>245</ele>
        <time>2021-05-15T07:24:44.000Z</time>
      </trkpt>
      <trkpt lat="49.75935" lon="4.81063">
        <ele>245</ele>
        <time>2021-05-15T07:24:45.000Z</time>
      </trkpt>
      <trkpt lat="49.75937" lon="4.81067">
        <ele>245</ele>
        <time>2021-05-15T07:24:46.000Z</time>
      </trkpt>
      <trkpt lat="49.75939" lon="4.8107">
        <ele>245</ele>
        <time>2021-05-15T07:24:47.000Z</time>
      </trkpt>
      <trkpt lat="49.7594" lon="4.81074">
        <ele>246</ele>
        <time>2021-05-15T07:24:48.000Z</time>
      </trkpt>
      <trkpt lat="49.75942" lon="4.81077">
        <ele>246</ele>
        <time>2021-05-15T07:24:49.000Z</time>
      </trkpt>
      <trkpt lat="49.75944" lon="4.8108">
        <ele>246</ele>
        <time>2021-05-15T07:24:50.000Z</time>
      </trkpt>
      <trkpt lat="49.75946" lon="4.81084">
        <ele>246</ele>
        <time>2021-05-15T07:24:51.000Z</time>
      </trkpt>
      <trkpt lat="49.75948" lon="4.81087">
        <ele>246</ele>
        <time>2021-05-15T07:24:52.000Z</time>
      </trkpt>
      <trkpt lat="49.7595" lon="4.8109">
        <ele>247</ele>
        <time>2021-05-15T07:24:53.000Z</time>
      </trkpt>
      <trkpt lat="49.75952" lon="4.81092">
        <ele>247</ele>
        <time>2021-05-15T07:24:54.000Z</time>
      </trkpt>
      <trkpt lat="49.75953" lon="4.81095">
        <ele>247</ele>
        <time>2021-05-15T07:24:55.000Z</time>
      </trkpt>
      <trkpt lat="49.75955" lon="4.81097">
        <ele>247</ele>
        <time>2021-05-15T07:24:56.000Z</time>
      </trkpt>
      <trkpt lat="49.75957" lon="4.811">
        <ele>247</ele>
        <time>2021-05-15T07:24:57.000Z</time>
      </trkpt>
      <trkpt lat="49.7596" lon="4.81103">
        <ele>247</ele>
        <time>2021-05-15T07:24:58.000Z</time>
      </trkpt>
      <trkpt lat="49.75962" lon="4.81106">
        <ele>247</ele>
        <time>2021-05-15T07:24:59.000Z</time>
      </trkpt>
      <trkpt lat="49.75964" lon="4.8111">
        <ele>247</ele>
        <time>2021-05-15T07:25:00.000Z</time>
      </trkpt>
      <trkpt lat="49.75966" lon="4.81113">
        <ele>248</ele>
        <time>2021-05-15T07:25:01.000Z</time>
      </trkpt>
      <trkpt lat="49.75969" lon="4.81116">
        <ele>248</ele>
        <time>2021-05-15T07:25:02.000Z</time>
      </trkpt>
      <trkpt lat="49.75972" lon="4.81119">
        <ele>248</ele>
        <time>2021-05-15T07:25:03.000Z</time>
      </trkpt>
      <trkpt lat="49.75975" lon="4.81122">
        <ele>248</ele>
        <time>2021-05-15T07:25:04.000Z</time>
      </trkpt>
      <trkpt lat="49.75978" lon="4.81124">
        <ele>248</ele>
        <time>2021-05-15T07:25:05.000Z</time>
      </trkpt>
      <trkpt lat="49.75981" lon="4.81127">
        <ele>248</ele>
        <time>2021-05-15T07:25:06.000Z</time>
      </trkpt>
      <trkpt lat="49.75984" lon="4.8113">
        <ele>248</ele>
        <time>2021-05-15T07:25:07.000Z</time>
      </trkpt>
      <trkpt lat="49.75987" lon="4.81133">
        <ele>248</ele>
        <time>2021-05-15T07:25:08.000Z</time>
      </trkpt>
      <trkpt lat="49.7599" lon="4.81135">
        <ele>249</ele>
        <time>2021-05-15T07:25:09.000Z</time>
      </trkpt>
      <trkpt lat="49.75993" lon="4.81138">
        <ele>249</ele>
        <time>2021-05-15T07:25:10.000Z</time>
      </trkpt>
      <trkpt lat="49.75996" lon="4.81141">
        <ele>249</ele>
        <time>2021-05-15T07:25:11.000Z</time>
      </trkpt>
      <trkpt lat="49.75998" lon="4.81144">
        <ele>249</ele>
        <time>2021-05-15T07:25:12.000Z</time>
      </trkpt>
      <trkpt lat="49.76" lon="4.81147">
        <ele>249</ele>
        <time>2021-05-15T07:25:13.000Z</time>
      </trkpt>
      <trkpt lat="49.76002" lon="4.81151">
        <ele>249</ele>
        <time>2021-05-15T07:25:14.000Z</time>
      </trkpt>
      <trkpt lat="49.76004" lon="4.81154">
        <ele>250</ele>
        <time>2021-05-15T07:25:15.000Z</time>
      </trkpt>
      <trkpt lat="49.76006" lon="4.81156">
        <ele>250</ele>
        <time>2021-05-15T07:25:16.000Z</time>
      </trkpt>
      <trkpt lat="49.76008" lon="4.81159">
        <ele>250</ele>
        <time>2021-05-15T07:25:17.000Z</time>
      </trkpt>
      <trkpt lat="49.76011" lon="4.81162">
        <ele>250</ele>
        <time>2021-05-15T07:25:18.000Z</time>
      </trkpt>
      <trkpt lat="49.76014" lon="4.81165">
        <ele>250</ele>
        <time>2021-05-15T07:25:19.000Z</time>
      </trkpt>
      <trkpt lat="49.76016" lon="4.81169">
        <ele>251</ele>
        <time>2021-05-15T07:25:20.000Z</time>
      </trkpt>
      <trkpt lat="49.76018" lon="4.81173">
        <ele>251</ele>
        <time>2021-05-15T07:25:21.000Z</time>
      </trkpt>
      <trkpt lat="49.76021" lon="4.81176">
        <ele>251</ele>
        <time>2021-05-15T07:25:22.000Z</time>
      </trkpt>
      <trkpt lat="49.76023" lon="4.8118">
        <ele>251</ele>
        <time>2021-05-15T07:25:23.000Z</time>
      </trkpt>
      <trkpt lat="49.76025" lon="4.81183">
        <ele>251</ele>
        <time>2021-05-15T07:25:24.000Z</time>
      </trkpt>
      <trkpt lat="49.76027" lon="4.81186">
        <ele>252</ele>
        <time>2021-05-15T07:25:25.000Z</time>
      </trkpt>
      <trkpt lat="49.76029" lon="4.81189">
        <ele>252</ele>
        <time>2021-05-15T07:25:26.000Z</time>
      </trkpt>
      <trkpt lat="49.76032" lon="4.81192">
        <ele>252</ele>
        <time>2021-05-15T07:25:27.000Z</time>
      </trkpt>
      <trkpt lat="49.76035" lon="4.81195">
        <ele>252</ele>
        <time>2021-05-15T07:25:28.000Z</time>
      </trkpt>
      <trkpt lat="49.76037" lon="4.81198">
        <ele>252</ele>
        <time>2021-05-15T07:25:29.000Z</time>
      </trkpt>
      <trkpt lat="49.76039" lon="4.81201">
        <ele>253</ele>
        <time>2021-05-15T07:25:30.000Z</time>
      </trkpt>
      <trkpt lat="49.76042" lon="4.81204">
        <ele>253</ele>
        <time>2021-05-15T07:25:31.000Z</time>
      </trkpt>
      <trkpt lat="49.76044" lon="4.81206">
        <ele>253</ele>
        <time>2021-05-15T07:25:32.000Z</time>
      </trkpt>
      <trkpt lat="49.76046" lon="4.8121">
        <ele>253</ele>
        <time>2021-05-15T07:25:33.000Z</time>
      </trkpt>
      <trkpt lat="49.76048" lon="4.81213">
        <ele>253</ele>
        <time>2021-05-15T07:25:34.000Z</time>
      </trkpt>
      <trkpt lat="49.7605" lon="4.81216">
        <ele>253</ele>
        <time>2021-05-15T07:25:35.000Z</time>
      </trkpt>
      <trkpt lat="49.76053" lon="4.81219">
        <ele>254</ele>
        <time>2021-05-15T07:25:36.000Z</time>
      </trkpt>
      <trkpt lat="49.76056" lon="4.81222">
        <ele>254</ele>
        <time>2021-05-15T07:25:37.000Z</time>
      </trkpt>
      <trkpt lat="49.76059" lon="4.81225">
        <ele>254</ele>
        <time>2021-05-15T07:25:38.000Z</time>
      </trkpt>
      <trkpt lat="49.76061" lon="4.81228">
        <ele>254</ele>
        <time>2021-05-15T07:25:39.000Z</time>
      </trkpt>
      <trkpt lat="49.76064" lon="4.81232">
        <ele>254</ele>
        <time>2021-05-15T07:25:40.000Z</time>
      </trkpt>
      <trkpt lat="49.76067" lon="4.81235">
        <ele>255</ele>
        <time>2021-05-15T07:25:41.000Z</time>
      </trkpt>
      <trkpt lat="49.76069" lon="4.81238">
        <ele>255</ele>
        <time>2021-05-15T07:25:42.000Z</time>
      </trkpt>
      <trkpt lat="49.76071" lon="4.81241">
        <ele>255</ele>
        <time>2021-05-15T07:25:43.000Z</time>
      </trkpt>
      <trkpt lat="49.76074" lon="4.81244">
        <ele>255</ele>
        <time>2021-05-15T07:25:44.000Z</time>
      </trkpt>
      <trkpt lat="49.76076" lon="4.81247">
        <ele>255</ele>
        <time>2021-05-15T07:25:45.000Z</time>
      </trkpt>
      <trkpt lat="49.76078" lon="4.8125">
        <ele>255</ele>
        <time>2021-05-15T07:25:46.000Z</time>
      </trkpt>
      <trkpt lat="49.76081" lon="4.81254">
        <ele>255</ele>
        <time>2021-05-15T07:25:47.000Z</time>
      </trkpt>
      <trkpt lat="49.76084" lon="4.81257">
        <ele>255</ele>
        <time>2021-05-15T07:25:48.000Z</time>
      </trkpt>
      <trkpt lat="49.76086" lon="4.81259">
        <ele>256</ele>
        <time>2021-05-15T07:25:49.000Z</time>
      </trkpt>
      <trkpt lat="49.76088" lon="4.81261">
        <ele>256</ele>
        <time>2021-05-15T07:25:50.000Z</time>
      </trkpt>
      <trkpt lat="49.7609" lon="4.81262">
        <ele>256</ele>
        <time>2021-05-15T07:25:51.000Z</time>
      </trkpt>
      <trkpt lat="49.76092" lon="4.81264">
        <ele>256</ele>
        <time>2021-05-15T07:25:52.000Z</time>
      </trkpt>
      <trkpt lat="49.76095" lon="4.81266">
        <ele>256</ele>
        <time>2021-05-15T07:25:53.000Z</time>
      </trkpt>
      <trkpt lat="49.76097" lon="4.81268">
        <ele>256</ele>
        <time>2021-05-15T07:25:54.000Z</time>
      </trkpt>
      <trkpt lat="49.761" lon="4.81271">
        <ele>257</ele>
        <time>2021-05-15T07:25:55.000Z</time>
      </trkpt>
      <trkpt lat="49.76102" lon="4.81274">
        <ele>257</ele>
        <time>2021-05-15T07:25:56.000Z</time>
      </trkpt>
      <trkpt lat="49.76104" lon="4.81276">
        <ele>257</ele>
        <time>2021-05-15T07:25:57.000Z</time>
      </trkpt>
      <trkpt lat="49.76106" lon="4.81278">
        <ele>257</ele>
        <time>2021-05-15T07:25:58.000Z</time>
      </trkpt>
      <trkpt lat="49.76108" lon="4.8128">
        <ele>257</ele>
        <time>2021-05-15T07:25:59.000Z</time>
      </trkpt>
      <trkpt lat="49.7611" lon="4.81283">
        <ele>258</ele>
        <time>2021-05-15T07:26:00.000Z</time>
      </trkpt>
      <trkpt lat="49.76112" lon="4.81285">
        <ele>258</ele>
        <time>2021-05-15T07:26:01.000Z</time>
      </trkpt>
      <trkpt lat="49.76113" lon="4.81286">
        <ele>258</ele>
        <time>2021-05-15T07:26:02.000Z</time>
      </trkpt>
      <trkpt lat="49.76115" lon="4.81288">
        <ele>258</ele>
        <time>2021-05-15T07:26:03.000Z</time>
      </trkpt>
      <trkpt lat="49.76117" lon="4.81289">
        <ele>258</ele>
        <time>2021-05-15T07:26:04.000Z</time>
      </trkpt>
      <trkpt lat="49.76119" lon="4.8129">
        <ele>258</ele>
        <time>2021-05-15T07:26:05.000Z</time>
      </trkpt>
      <trkpt lat="49.76121" lon="4.81291">
        <ele>259</ele>
        <time>2021-05-15T07:26:06.000Z</time>
      </trkpt>
      <trkpt lat="49.76123" lon="4.81293">
        <ele>259</ele>
        <time>2021-05-15T07:26:07.000Z</time>
      </trkpt>
      <trkpt lat="49.76125" lon="4.81294">
        <ele>259</ele>
        <time>2021-05-15T07:26:08.000Z</time>
      </trkpt>
      <trkpt lat="49.76127" lon="4.81297">
        <ele>260</ele>
        <time>2021-05-15T07:26:09.000Z</time>
      </trkpt>
      <trkpt lat="49.76128" lon="4.81299">
        <ele>260</ele>
        <time>2021-05-15T07:26:10.000Z</time>
      </trkpt>
      <trkpt lat="49.7613" lon="4.81303">
        <ele>260</ele>
        <time>2021-05-15T07:26:11.000Z</time>
      </trkpt>
      <trkpt lat="49.7613" lon="4.81306">
        <ele>261</ele>
        <time>2021-05-15T07:26:12.000Z</time>
      </trkpt>
      <trkpt lat="49.7613" lon="4.8131">
        <ele>261</ele>
        <time>2021-05-15T07:26:13.000Z</time>
      </trkpt>
      <trkpt lat="49.7613" lon="4.81313">
        <ele>261</ele>
        <time>2021-05-15T07:26:14.000Z</time>
      </trkpt>
      <trkpt lat="49.7613" lon="4.81316">
        <ele>261</ele>
        <time>2021-05-15T07:26:15.000Z</time>
      </trkpt>
      <trkpt lat="49.76129" lon="4.81319">
        <ele>262</ele>
        <time>2021-05-15T07:26:16.000Z</time>
      </trkpt>
      <trkpt lat="49.76129" lon="4.81322">
        <ele>262</ele>
        <time>2021-05-15T07:26:17.000Z</time>
      </trkpt>
      <trkpt lat="49.76129" lon="4.81325">
        <ele>262</ele>
        <time>2021-05-15T07:26:18.000Z</time>
      </trkpt>
      <trkpt lat="49.76128" lon="4.81328">
        <ele>263</ele>
        <time>2021-05-15T07:26:19.000Z</time>
      </trkpt>
      <trkpt lat="49.76128" lon="4.8133">
        <ele>263</ele>
        <time>2021-05-15T07:26:20.000Z</time>
      </trkpt>
      <trkpt lat="49.76128" lon="4.81332">
        <ele>263</ele>
        <time>2021-05-15T07:26:21.000Z</time>
      </trkpt>
      <trkpt lat="49.76129" lon="4.81335">
        <ele>264</ele>
        <time>2021-05-15T07:26:22.000Z</time>
      </trkpt>
      <trkpt lat="49.76129" lon="4.81337">
        <ele>264</ele>
        <time>2021-05-15T07:26:23.000Z</time>
      </trkpt>
      <trkpt lat="49.7613" lon="4.81338">
        <ele>264</ele>
        <time>2021-05-15T07:26:24.000Z</time>
      </trkpt>
      <trkpt lat="49.76131" lon="4.81339">
        <ele>265</ele>
        <time>2021-05-15T07:26:25.000Z</time>
      </trkpt>
      <trkpt lat="49.76131" lon="4.81341">
        <ele>265</ele>
        <time>2021-05-15T07:26:26.000Z</time>
      </trkpt>
      <trkpt lat="49.7613" lon="4.81343">
        <ele>265</ele>
        <time>2021-05-15T07:26:27.000Z</time>
      </trkpt>
      <trkpt lat="49.7613" lon="4.81345">
        <ele>266</ele>
        <time>2021-05-15T07:26:28.000Z</time>
      </trkpt>
      <trkpt lat="49.76129" lon="4.81347">
        <ele>266</ele>
        <time>2021-05-15T07:26:29.000Z</time>
      </trkpt>
      <trkpt lat="49.76129" lon="4.81349">
        <ele>266</ele>
        <time>2021-05-15T07:26:30.000Z</time>
      </trkpt>
      <trkpt lat="49.76129" lon="4.81352">
        <ele>266</ele>
        <time>2021-05-15T07:26:31.000Z</time>
      </trkpt>
      <trkpt lat="49.7613" lon="4.81355">
        <ele>266</ele>
        <time>2021-05-15T07:26:32.000Z</time>
      </trkpt>
      <trkpt lat="49.76129" lon="4.81357">
        <ele>266</ele>
        <time>2021-05-15T07:26:33.000Z</time>
      </trkpt>
      <trkpt lat="49.76129" lon="4.8136">
        <ele>266</ele>
        <time>2021-05-15T07:26:34.000Z</time>
      </trkpt>
      <trkpt lat="49.76129" lon="4.81362">
        <ele>267</ele>
        <time>2021-05-15T07:26:35.000Z</time>
      </trkpt>
      <trkpt lat="49.76129" lon="4.81365">
        <ele>267</ele>
        <time>2021-05-15T07:26:36.000Z</time>
      </trkpt>
      <trkpt lat="49.76129" lon="4.81367">
        <ele>267</ele>
        <time>2021-05-15T07:26:37.000Z</time>
      </trkpt>
      <trkpt lat="49.76128" lon="4.8137">
        <ele>267</ele>
        <time>2021-05-15T07:26:38.000Z</time>
      </trkpt>
      <trkpt lat="49.76128" lon="4.81373">
        <ele>267</ele>
        <time>2021-05-15T07:26:39.000Z</time>
      </trkpt>
      <trkpt lat="49.76128" lon="4.81376">
        <ele>267</ele>
        <time>2021-05-15T07:26:40.000Z</time>
      </trkpt>
      <trkpt lat="49.76128" lon="4.81379">
        <ele>267</ele>
        <time>2021-05-15T07:26:41.000Z</time>
      </trkpt>
      <trkpt lat="49.76127" lon="4.81382">
        <ele>268</ele>
        <time>2021-05-15T07:26:42.000Z</time>
      </trkpt>
      <trkpt lat="49.76127" lon="4.81384">
        <ele>268</ele>
        <time>2021-05-15T07:26:43.000Z</time>
      </trkpt>
      <trkpt lat="49.76126" lon="4.81387">
        <ele>268</ele>
        <time>2021-05-15T07:26:44.000Z</time>
      </trkpt>
      <trkpt lat="49.76126" lon="4.81389">
        <ele>268</ele>
        <time>2021-05-15T07:26:45.000Z</time>
      </trkpt>
      <trkpt lat="49.76126" lon="4.81392">
        <ele>268</ele>
        <time>2021-05-15T07:26:46.000Z</time>
      </trkpt>
      <trkpt lat="49.76126" lon="4.81396">
        <ele>268</ele>
        <time>2021-05-15T07:26:47.000Z</time>
      </trkpt>
      <trkpt lat="49.76126" lon="4.81399">
        <ele>268</ele>
        <time>2021-05-15T07:26:48.000Z</time>
      </trkpt>
      <trkpt lat="49.76126" lon="4.81403">
        <ele>268</ele>
        <time>2021-05-15T07:26:49.000Z</time>
      </trkpt>
      <trkpt lat="49.76126" lon="4.81406">
        <ele>268</ele>
        <time>2021-05-15T07:26:50.000Z</time>
      </trkpt>
      <trkpt lat="49.76126" lon="4.81409">
        <ele>268</ele>
        <time>2021-05-15T07:26:51.000Z</time>
      </trkpt>
      <trkpt lat="49.76127" lon="4.81411">
        <ele>268</ele>
        <time>2021-05-15T07:26:52.000Z</time>
      </trkpt>
      <trkpt lat="49.76128" lon="4.81414">
        <ele>269</ele>
        <time>2021-05-15T07:26:53.000Z</time>
      </trkpt>
      <trkpt lat="49.7613" lon="4.81417">
        <ele>269</ele>
        <time>2021-05-15T07:26:54.000Z</time>
      </trkpt>
      <trkpt lat="49.76131" lon="4.8142">
        <ele>269</ele>
        <time>2021-05-15T07:26:55.000Z</time>
      </trkpt>
      <trkpt lat="49.76133" lon="4.81422">
        <ele>269</ele>
        <time>2021-05-15T07:26:56.000Z</time>
      </trkpt>
      <trkpt lat="49.76134" lon="4.81423">
        <ele>269</ele>
        <time>2021-05-15T07:26:57.000Z</time>
      </trkpt>
      <trkpt lat="49.76136" lon="4.81424">
        <ele>270</ele>
        <time>2021-05-15T07:26:58.000Z</time>
      </trkpt>
      <trkpt lat="49.76138" lon="4.81425">
        <ele>270</ele>
        <time>2021-05-15T07:26:59.000Z</time>
      </trkpt>
      <trkpt lat="49.76141" lon="4.81426">
        <ele>270</ele>
        <time>2021-05-15T07:27:00.000Z</time>
      </trkpt>
      <trkpt lat="49.76143" lon="4.81428">
        <ele>270</ele>
        <time>2021-05-15T07:27:01.000Z</time>
      </trkpt>
      <trkpt lat="49.76146" lon="4.81429">
        <ele>270</ele>
        <time>2021-05-15T07:27:02.000Z</time>
      </trkpt>
      <trkpt lat="49.76148" lon="4.8143">
        <ele>270</ele>
        <time>2021-05-15T07:27:03.000Z</time>
      </trkpt>
      <trkpt lat="49.7615" lon="4.81431">
        <ele>270</ele>
        <time>2021-05-15T07:27:04.000Z</time>
      </trkpt>
      <trkpt lat="49.76153" lon="4.81432">
        <ele>270</ele>
        <time>2021-05-15T07:27:05.000Z</time>
      </trkpt>
      <trkpt lat="49.76155" lon="4.81434">
        <ele>270</ele>
        <time>2021-05-15T07:27:06.000Z</time>
      </trkpt>
      <trkpt lat="49.76158" lon="4.81435">
        <ele>270</ele>
        <time>2021-05-15T07:27:07.000Z</time>
      </trkpt>
      <trkpt lat="49.76162" lon="4.81436">
        <ele>270</ele>
        <time>2021-05-15T07:27:08.000Z</time>
      </trkpt>
      <trkpt lat="49.76165" lon="4.81437">
        <ele>270</ele>
        <time>2021-05-15T07:27:09.000Z</time>
      </trkpt>
      <trkpt lat="49.76168" lon="4.81438">
        <ele>270</ele>
        <time>2021-05-15T07:27:10.000Z</time>
      </trkpt>
      <trkpt lat="49.7617" lon="4.81437">
        <ele>270</ele>
        <time>2021-05-15T07:27:11.000Z</time>
      </trkpt>
      <trkpt lat="49.76173" lon="4.81436">
        <ele>270</ele>
        <time>2021-05-15T07:27:12.000Z</time>
      </trkpt>
      <trkpt lat="49.76175" lon="4.81434">
        <ele>270</ele>
        <time>2021-05-15T07:27:13.000Z</time>
      </trkpt>
      <trkpt lat="49.76176" lon="4.81431">
        <ele>270</ele>
        <time>2021-05-15T07:27:14.000Z</time>
      </trkpt>
      <trkpt lat="49.76178" lon="4.81426">
        <ele>270</ele>
        <time>2021-05-15T07:27:15.000Z</time>
      </trkpt>
      <trkpt lat="49.76179" lon="4.8142">
        <ele>270</ele>
        <time>2021-05-15T07:27:16.000Z</time>
      </trkpt>
      <trkpt lat="49.76179" lon="4.81412">
        <ele>269</ele>
        <time>2021-05-15T07:27:17.000Z</time>
      </trkpt>
      <trkpt lat="49.7618" lon="4.81403">
        <ele>269</ele>
        <time>2021-05-15T07:27:18.000Z</time>
      </trkpt>
      <trkpt lat="49.7618" lon="4.81394">
        <ele>269</ele>
        <time>2021-05-15T07:27:19.000Z</time>
      </trkpt>
      <trkpt lat="49.76181" lon="4.81384">
        <ele>269</ele>
        <time>2021-05-15T07:27:20.000Z</time>
      </trkpt>
      <trkpt lat="49.76181" lon="4.81374">
        <ele>269</ele>
        <time>2021-05-15T07:27:21.000Z</time>
      </trkpt>
      <trkpt lat="49.76182" lon="4.81363">
        <ele>269</ele>
        <time>2021-05-15T07:27:22.000Z</time>
      </trkpt>
      <trkpt lat="49.76183" lon="4.81351">
        <ele>269</ele>
        <time>2021-05-15T07:27:23.000Z</time>
      </trkpt>
      <trkpt lat="49.76183" lon="4.81338">
        <ele>269</ele>
        <time>2021-05-15T07:27:24.000Z</time>
      </trkpt>
      <trkpt lat="49.76183" lon="4.81325">
        <ele>268</ele>
        <time>2021-05-15T07:27:25.000Z</time>
      </trkpt>
      <trkpt lat="49.76184" lon="4.81312">
        <ele>268</ele>
        <time>2021-05-15T07:27:26.000Z</time>
      </trkpt>
      <trkpt lat="49.76184" lon="4.81301">
        <ele>268</ele>
        <time>2021-05-15T07:27:27.000Z</time>
      </trkpt>
      <trkpt lat="49.76183" lon="4.81291">
        <ele>268</ele>
        <time>2021-05-15T07:27:28.000Z</time>
      </trkpt>
      <trkpt lat="49.76183" lon="4.81283">
        <ele>268</ele>
        <time>2021-05-15T07:27:29.000Z</time>
      </trkpt>
      <trkpt lat="49.76184" lon="4.81276">
        <ele>268</ele>
        <time>2021-05-15T07:27:30.000Z</time>
      </trkpt>
      <trkpt lat="49.76184" lon="4.81269">
        <ele>268</ele>
        <time>2021-05-15T07:27:31.000Z</time>
      </trkpt>
      <trkpt lat="49.76184" lon="4.81262">
        <ele>268</ele>
        <time>2021-05-15T07:27:32.000Z</time>
      </trkpt>
      <trkpt lat="49.76183" lon="4.81255">
        <ele>268</ele>
        <time>2021-05-15T07:27:33.000Z</time>
      </trkpt>
      <trkpt lat="49.76182" lon="4.81248">
        <ele>268</ele>
        <time>2021-05-15T07:27:34.000Z</time>
      </trkpt>
      <trkpt lat="49.76182" lon="4.81241">
        <ele>268</ele>
        <time>2021-05-15T07:27:35.000Z</time>
      </trkpt>
      <trkpt lat="49.76182" lon="4.81233">
        <ele>268</ele>
        <time>2021-05-15T07:27:36.000Z</time>
      </trkpt>
      <trkpt lat="49.76183" lon="4.81226">
        <ele>268</ele>
        <time>2021-05-15T07:27:37.000Z</time>
      </trkpt>
      <trkpt lat="49.76183" lon="4.81218">
        <ele>268</ele>
        <time>2021-05-15T07:27:38.000Z</time>
      </trkpt>
      <trkpt lat="49.76183" lon="4.8121">
        <ele>268</ele>
        <time>2021-05-15T07:27:39.000Z</time>
      </trkpt>
      <trkpt lat="49.76184" lon="4.81203">
        <ele>268</ele>
        <time>2021-05-15T07:27:40.000Z</time>
      </trkpt>
      <trkpt lat="49.76185" lon="4.81196">
        <ele>268</ele>
        <time>2021-05-15T07:27:41.000Z</time>
      </trkpt>
      <trkpt lat="49.76187" lon="4.81188">
        <ele>268</ele>
        <time>2021-05-15T07:27:42.000Z</time>
      </trkpt>
      <trkpt lat="49.76187" lon="4.81181">
        <ele>268</ele>
        <time>2021-05-15T07:27:43.000Z</time>
      </trkpt>
      <trkpt lat="49.76188" lon="4.81172">
        <ele>268</ele>
        <time>2021-05-15T07:27:44.000Z</time>
      </trkpt>
      <trkpt lat="49.76189" lon="4.81164">
        <ele>268</ele>
        <time>2021-05-15T07:27:45.000Z</time>
      </trkpt>
      <trkpt lat="49.76189" lon="4.81154">
        <ele>267</ele>
        <time>2021-05-15T07:27:46.000Z</time>
      </trkpt>
      <trkpt lat="49.7619" lon="4.81145">
        <ele>267</ele>
        <time>2021-05-15T07:27:47.000Z</time>
      </trkpt>
      <trkpt lat="49.76192" lon="4.81135">
        <ele>267</ele>
        <time>2021-05-15T07:27:48.000Z</time>
      </trkpt>
      <trkpt lat="49.76193" lon="4.81126">
        <ele>267</ele>
        <time>2021-05-15T07:27:49.000Z</time>
      </trkpt>
      <trkpt lat="49.76193" lon="4.81116">
        <ele>267</ele>
        <time>2021-05-15T07:27:50.000Z</time>
      </trkpt>
      <trkpt lat="49.76194" lon="4.81106">
        <ele>267</ele>
        <time>2021-05-15T07:27:51.000Z</time>
      </trkpt>
      <trkpt lat="49.76194" lon="4.81096">
        <ele>267</ele>
        <time>2021-05-15T07:27:52.000Z</time>
      </trkpt>
      <trkpt lat="49.76195" lon="4.81085">
        <ele>266</ele>
        <time>2021-05-15T07:27:53.000Z</time>
      </trkpt>
      <trkpt lat="49.76195" lon="4.81074">
        <ele>266</ele>
        <time>2021-05-15T07:27:54.000Z</time>
      </trkpt>
      <trkpt lat="49.76196" lon="4.81063">
        <ele>266</ele>
        <time>2021-05-15T07:27:55.000Z</time>
      </trkpt>
      <trkpt lat="49.76197" lon="4.81052">
        <ele>266</ele>
        <time>2021-05-15T07:27:56.000Z</time>
      </trkpt>
      <trkpt lat="49.76198" lon="4.81041">
        <ele>265</ele>
        <time>2021-05-15T07:27:57.000Z</time>
      </trkpt>
      <trkpt lat="49.76197" lon="4.81031">
        <ele>265</ele>
        <time>2021-05-15T07:27:58.000Z</time>
      </trkpt>
      <trkpt lat="49.76198" lon="4.81022">
        <ele>265</ele>
        <time>2021-05-15T07:27:59.000Z</time>
      </trkpt>
      <trkpt lat="49.76198" lon="4.81014">
        <ele>265</ele>
        <time>2021-05-15T07:28:00.000Z</time>
      </trkpt>
      <trkpt lat="49.76199" lon="4.81005">
        <ele>265</ele>
        <time>2021-05-15T07:28:01.000Z</time>
      </trkpt>
      <trkpt lat="49.762" lon="4.80996">
        <ele>265</ele>
        <time>2021-05-15T07:28:02.000Z</time>
      </trkpt>
      <trkpt lat="49.762" lon="4.80988">
        <ele>265</ele>
        <time>2021-05-15T07:28:03.000Z</time>
      </trkpt>
      <trkpt lat="49.762" lon="4.8098">
        <ele>265</ele>
        <time>2021-05-15T07:28:04.000Z</time>
      </trkpt>
      <trkpt lat="49.76201" lon="4.80972">
        <ele>265</ele>
        <time>2021-05-15T07:28:05.000Z</time>
      </trkpt>
      <trkpt lat="49.76201" lon="4.80964">
        <ele>265</ele>
        <time>2021-05-15T07:28:06.000Z</time>
      </trkpt>
      <trkpt lat="49.76201" lon="4.80956">
        <ele>265</ele>
        <time>2021-05-15T07:28:07.000Z</time>
      </trkpt>
      <trkpt lat="49.76201" lon="4.80948">
        <ele>265</ele>
        <time>2021-05-15T07:28:08.000Z</time>
      </trkpt>
      <trkpt lat="49.762" lon="4.8094">
        <ele>264</ele>
        <time>2021-05-15T07:28:09.000Z</time>
      </trkpt>
      <trkpt lat="49.76198" lon="4.80932">
        <ele>264</ele>
        <time>2021-05-15T07:28:10.000Z</time>
      </trkpt>
      <trkpt lat="49.76197" lon="4.80922">
        <ele>264</ele>
        <time>2021-05-15T07:28:11.000Z</time>
      </trkpt>
      <trkpt lat="49.76198" lon="4.80914">
        <ele>264</ele>
        <time>2021-05-15T07:28:12.000Z</time>
      </trkpt>
      <trkpt lat="49.762" lon="4.80909">
        <ele>264</ele>
        <time>2021-05-15T07:28:13.000Z</time>
      </trkpt>
      <trkpt lat="49.76204" lon="4.80905">
        <ele>264</ele>
        <time>2021-05-15T07:28:14.000Z</time>
      </trkpt>
      <trkpt lat="49.76209" lon="4.80904">
        <ele>264</ele>
        <time>2021-05-15T07:28:15.000Z</time>
      </trkpt>
      <trkpt lat="49.76214" lon="4.80904">
        <ele>264</ele>
        <time>2021-05-15T07:28:16.000Z</time>
      </trkpt>
      <trkpt lat="49.76219" lon="4.80905">
        <ele>264</ele>
        <time>2021-05-15T07:28:17.000Z</time>
      </trkpt>
      <trkpt lat="49.76223" lon="4.80907">
        <ele>264</ele>
        <time>2021-05-15T07:28:18.000Z</time>
      </trkpt>
      <trkpt lat="49.76227" lon="4.80908">
        <ele>264</ele>
        <time>2021-05-15T07:28:19.000Z</time>
      </trkpt>
      <trkpt lat="49.76231" lon="4.8091">
        <ele>264</ele>
        <time>2021-05-15T07:28:20.000Z</time>
      </trkpt>
      <trkpt lat="49.76234" lon="4.80911">
        <ele>264</ele>
        <time>2021-05-15T07:28:21.000Z</time>
      </trkpt>
      <trkpt lat="49.76238" lon="4.80913">
        <ele>264</ele>
        <time>2021-05-15T07:28:22.000Z</time>
      </trkpt>
      <trkpt lat="49.76241" lon="4.80914">
        <ele>265</ele>
        <time>2021-05-15T07:28:23.000Z</time>
      </trkpt>
      <trkpt lat="49.76245" lon="4.80916">
        <ele>265</ele>
        <time>2021-05-15T07:28:24.000Z</time>
      </trkpt>
      <trkpt lat="49.76248" lon="4.80917">
        <ele>265</ele>
        <time>2021-05-15T07:28:25.000Z</time>
      </trkpt>
      <trkpt lat="49.76251" lon="4.80919">
        <ele>265</ele>
        <time>2021-05-15T07:28:26.000Z</time>
      </trkpt>
      <trkpt lat="49.76254" lon="4.8092">
        <ele>265</ele>
        <time>2021-05-15T07:28:27.000Z</time>
      </trkpt>
      <trkpt lat="49.76258" lon="4.80922">
        <ele>265</ele>
        <time>2021-05-15T07:28:28.000Z</time>
      </trkpt>
      <trkpt lat="49.76262" lon="4.80924">
        <ele>265</ele>
        <time>2021-05-15T07:28:29.000Z</time>
      </trkpt>
      <trkpt lat="49.76266" lon="4.80925">
        <ele>265</ele>
        <time>2021-05-15T07:28:30.000Z</time>
      </trkpt>
      <trkpt lat="49.76269" lon="4.80927">
        <ele>266</ele>
        <time>2021-05-15T07:28:31.000Z</time>
      </trkpt>
      <trkpt lat="49.76273" lon="4.80928">
        <ele>266</ele>
        <time>2021-05-15T07:28:32.000Z</time>
      </trkpt>
      <trkpt lat="49.76276" lon="4.8093">
        <ele>266</ele>
        <time>2021-05-15T07:28:33.000Z</time>
      </trkpt>
      <trkpt lat="49.7628" lon="4.80932">
        <ele>266</ele>
        <time>2021-05-15T07:28:34.000Z</time>
      </trkpt>
      <trkpt lat="49.76283" lon="4.80933">
        <ele>266</ele>
        <time>2021-05-15T07:28:35.000Z</time>
      </trkpt>
      <trkpt lat="49.76287" lon="4.80934">
        <ele>266</ele>
        <time>2021-05-15T07:28:36.000Z</time>
      </trkpt>
      <trkpt lat="49.76291" lon="4.80936">
        <ele>267</ele>
        <time>2021-05-15T07:28:37.000Z</time>
      </trkpt>
      <trkpt lat="49.76294" lon="4.80937">
        <ele>267</ele>
        <time>2021-05-15T07:28:38.000Z</time>
      </trkpt>
      <trkpt lat="49.76297" lon="4.80938">
        <ele>267</ele>
        <time>2021-05-15T07:28:39.000Z</time>
      </trkpt>
      <trkpt lat="49.763" lon="4.80939">
        <ele>267</ele>
        <time>2021-05-15T07:28:40.000Z</time>
      </trkpt>
      <trkpt lat="49.76304" lon="4.80938">
        <ele>267</ele>
        <time>2021-05-15T07:28:41.000Z</time>
      </trkpt>
      <trkpt lat="49.76307" lon="4.80935">
        <ele>267</ele>
        <time>2021-05-15T07:28:42.000Z</time>
      </trkpt>
      <trkpt lat="49.76308" lon="4.8093">
        <ele>267</ele>
        <time>2021-05-15T07:28:43.000Z</time>
      </trkpt>
      <trkpt lat="49.76309" lon="4.80923">
        <ele>267</ele>
        <time>2021-05-15T07:28:44.000Z</time>
      </trkpt>
      <trkpt lat="49.7631" lon="4.80916">
        <ele>267</ele>
        <time>2021-05-15T07:28:45.000Z</time>
      </trkpt>
      <trkpt lat="49.76311" lon="4.80909">
        <ele>267</ele>
        <time>2021-05-15T07:28:46.000Z</time>
      </trkpt>
      <trkpt lat="49.76313" lon="4.80903">
        <ele>268</ele>
        <time>2021-05-15T07:28:47.000Z</time>
      </trkpt>
      <trkpt lat="49.76313" lon="4.80896">
        <ele>268</ele>
        <time>2021-05-15T07:28:48.000Z</time>
      </trkpt>
      <trkpt lat="49.76314" lon="4.80889">
        <ele>268</ele>
        <time>2021-05-15T07:28:49.000Z</time>
      </trkpt>
      <trkpt lat="49.76314" lon="4.80883">
        <ele>268</ele>
        <time>2021-05-15T07:28:50.000Z</time>
      </trkpt>
      <trkpt lat="49.76314" lon="4.80876">
        <ele>268</ele>
        <time>2021-05-15T07:28:51.000Z</time>
      </trkpt>
      <trkpt lat="49.76314" lon="4.80869">
        <ele>268</ele>
        <time>2021-05-15T07:28:52.000Z</time>
      </trkpt>
      <trkpt lat="49.76315" lon="4.80863">
        <ele>268</ele>
        <time>2021-05-15T07:28:53.000Z</time>
      </trkpt>
      <trkpt lat="49.76315" lon="4.80857">
        <ele>268</ele>
        <time>2021-05-15T07:28:54.000Z</time>
      </trkpt>
      <trkpt lat="49.76315" lon="4.80851">
        <ele>268</ele>
        <time>2021-05-15T07:28:55.000Z</time>
      </trkpt>
      <trkpt lat="49.76315" lon="4.80844">
        <ele>268</ele>
        <time>2021-05-15T07:28:56.000Z</time>
      </trkpt>
      <trkpt lat="49.76315" lon="4.80837">
        <ele>268</ele>
        <time>2021-05-15T07:28:57.000Z</time>
      </trkpt>
      <trkpt lat="49.76315" lon="4.80831">
        <ele>268</ele>
        <time>2021-05-15T07:28:58.000Z</time>
      </trkpt>
      <trkpt lat="49.76315" lon="4.80824">
        <ele>268</ele>
        <time>2021-05-15T07:28:59.000Z</time>
      </trkpt>
      <trkpt lat="49.76314" lon="4.80817">
        <ele>268</ele>
        <time>2021-05-15T07:29:00.000Z</time>
      </trkpt>
      <trkpt lat="49.76314" lon="4.8081">
        <ele>268</ele>
        <time>2021-05-15T07:29:01.000Z</time>
      </trkpt>
      <trkpt lat="49.76314" lon="4.80803">
        <ele>269</ele>
        <time>2021-05-15T07:29:02.000Z</time>
      </trkpt>
      <trkpt lat="49.76313" lon="4.80797">
        <ele>269</ele>
        <time>2021-05-15T07:29:03.000Z</time>
      </trkpt>
      <trkpt lat="49.76313" lon="4.8079">
        <ele>269</ele>
        <time>2021-05-15T07:29:04.000Z</time>
      </trkpt>
      <trkpt lat="49.76313" lon="4.80783">
        <ele>269</ele>
        <time>2021-05-15T07:29:05.000Z</time>
      </trkpt>
      <trkpt lat="49.76313" lon="4.80776">
        <ele>269</ele>
        <time>2021-05-15T07:29:06.000Z</time>
      </trkpt>
      <trkpt lat="49.76313" lon="4.80769">
        <ele>269</ele>
        <time>2021-05-15T07:29:07.000Z</time>
      </trkpt>
      <trkpt lat="49.76314" lon="4.80762">
        <ele>269</ele>
        <time>2021-05-15T07:29:08.000Z</time>
      </trkpt>
      <trkpt lat="49.76315" lon="4.80755">
        <ele>269</ele>
        <time>2021-05-15T07:29:09.000Z</time>
      </trkpt>
      <trkpt lat="49.76316" lon="4.80748">
        <ele>269</ele>
        <time>2021-05-15T07:29:10.000Z</time>
      </trkpt>
      <trkpt lat="49.76317" lon="4.80742">
        <ele>269</ele>
        <time>2021-05-15T07:29:11.000Z</time>
      </trkpt>
      <trkpt lat="49.76319" lon="4.80736">
        <ele>269</ele>
        <time>2021-05-15T07:29:12.000Z</time>
      </trkpt>
      <trkpt lat="49.76321" lon="4.8073">
        <ele>269</ele>
        <time>2021-05-15T07:29:13.000Z</time>
      </trkpt>
      <trkpt lat="49.76324" lon="4.80725">
        <ele>270</ele>
        <time>2021-05-15T07:29:14.000Z</time>
      </trkpt>
      <trkpt lat="49.76327" lon="4.80719">
        <ele>270</ele>
        <time>2021-05-15T07:29:15.000Z</time>
      </trkpt>
      <trkpt lat="49.76329" lon="4.80713">
        <ele>270</ele>
        <time>2021-05-15T07:29:16.000Z</time>
      </trkpt>
      <trkpt lat="49.76332" lon="4.80707">
        <ele>270</ele>
        <time>2021-05-15T07:29:17.000Z</time>
      </trkpt>
      <trkpt lat="49.76335" lon="4.80702">
        <ele>270</ele>
        <time>2021-05-15T07:29:18.000Z</time>
      </trkpt>
      <trkpt lat="49.76338" lon="4.80696">
        <ele>270</ele>
        <time>2021-05-15T07:29:19.000Z</time>
      </trkpt>
      <trkpt lat="49.76341" lon="4.8069">
        <ele>270</ele>
        <time>2021-05-15T07:29:20.000Z</time>
      </trkpt>
      <trkpt lat="49.76344" lon="4.80685">
        <ele>270</ele>
        <time>2021-05-15T07:29:21.000Z</time>
      </trkpt>
      <trkpt lat="49.76347" lon="4.8068">
        <ele>270</ele>
        <time>2021-05-15T07:29:22.000Z</time>
      </trkpt>
      <trkpt lat="49.7635" lon="4.80674">
        <ele>270</ele>
        <time>2021-05-15T07:29:23.000Z</time>
      </trkpt>
      <trkpt lat="49.76354" lon="4.80669">
        <ele>271</ele>
        <time>2021-05-15T07:29:24.000Z</time>
      </trkpt>
      <trkpt lat="49.76357" lon="4.80664">
        <ele>271</ele>
        <time>2021-05-15T07:29:25.000Z</time>
      </trkpt>
      <trkpt lat="49.7636" lon="4.80659">
        <ele>271</ele>
        <time>2021-05-15T07:29:26.000Z</time>
      </trkpt>
      <trkpt lat="49.76364" lon="4.80654">
        <ele>271</ele>
        <time>2021-05-15T07:29:27.000Z</time>
      </trkpt>
      <trkpt lat="49.76369" lon="4.80649">
        <ele>271</ele>
        <time>2021-05-15T07:29:28.000Z</time>
      </trkpt>
      <trkpt lat="49.76373" lon="4.80645">
        <ele>271</ele>
        <time>2021-05-15T07:29:29.000Z</time>
      </trkpt>
      <trkpt lat="49.76378" lon="4.80641">
        <ele>271</ele>
        <time>2021-05-15T07:29:30.000Z</time>
      </trkpt>
      <trkpt lat="49.76384" lon="4.80637">
        <ele>271</ele>
        <time>2021-05-15T07:29:31.000Z</time>
      </trkpt>
      <trkpt lat="49.76389" lon="4.80633">
        <ele>271</ele>
        <time>2021-05-15T07:29:32.000Z</time>
      </trkpt>
      <trkpt lat="49.76394" lon="4.80629">
        <ele>271</ele>
        <time>2021-05-15T07:29:33.000Z</time>
      </trkpt>
      <trkpt lat="49.76399" lon="4.80625">
        <ele>271</ele>
        <time>2021-05-15T07:29:34.000Z</time>
      </trkpt>
      <trkpt lat="49.76405" lon="4.80621">
        <ele>271</ele>
        <time>2021-05-15T07:29:35.000Z</time>
      </trkpt>
      <trkpt lat="49.7641" lon="4.80617">
        <ele>272</ele>
        <time>2021-05-15T07:29:36.000Z</time>
      </trkpt>
      <trkpt lat="49.76415" lon="4.80614">
        <ele>272</ele>
        <time>2021-05-15T07:29:37.000Z</time>
      </trkpt>
      <trkpt lat="49.76421" lon="4.8061">
        <ele>272</ele>
        <time>2021-05-15T07:29:38.000Z</time>
      </trkpt>
      <trkpt lat="49.76426" lon="4.80607">
        <ele>272</ele>
        <time>2021-05-15T07:29:39.000Z</time>
      </trkpt>
      <trkpt lat="49.76431" lon="4.80603">
        <ele>272</ele>
        <time>2021-05-15T07:29:40.000Z</time>
      </trkpt>
      <trkpt lat="49.76437" lon="4.80599">
        <ele>272</ele>
        <time>2021-05-15T07:29:41.000Z</time>
      </trkpt>
      <trkpt lat="49.76442" lon="4.80595">
        <ele>272</ele>
        <time>2021-05-15T07:29:42.000Z</time>
      </trkpt>
      <trkpt lat="49.76447" lon="4.80591">
        <ele>272</ele>
        <time>2021-05-15T07:29:43.000Z</time>
      </trkpt>
      <trkpt lat="49.76453" lon="4.80587">
        <ele>272</ele>
        <time>2021-05-15T07:29:44.000Z</time>
      </trkpt>
      <trkpt lat="49.76458" lon="4.80583">
        <ele>272</ele>
        <time>2021-05-15T07:29:45.000Z</time>
      </trkpt>
      <trkpt lat="49.76463" lon="4.80579">
        <ele>272</ele>
        <time>2021-05-15T07:29:46.000Z</time>
      </trkpt>
      <trkpt lat="49.76468" lon="4.80574">
        <ele>272</ele>
        <time>2021-05-15T07:29:47.000Z</time>
      </trkpt>
      <trkpt lat="49.76473" lon="4.8057">
        <ele>272</ele>
        <time>2021-05-15T07:29:48.000Z</time>
      </trkpt>
      <trkpt lat="49.76478" lon="4.80565">
        <ele>272</ele>
        <time>2021-05-15T07:29:49.000Z</time>
      </trkpt>
      <trkpt lat="49.76484" lon="4.80561">
        <ele>272</ele>
        <time>2021-05-15T07:29:50.000Z</time>
      </trkpt>
      <trkpt lat="49.76489" lon="4.80557">
        <ele>272</ele>
        <time>2021-05-15T07:29:51.000Z</time>
      </trkpt>
      <trkpt lat="49.76494" lon="4.80552">
        <ele>272</ele>
        <time>2021-05-15T07:29:52.000Z</time>
      </trkpt>
      <trkpt lat="49.76499" lon="4.80547">
        <ele>272</ele>
        <time>2021-05-15T07:29:53.000Z</time>
      </trkpt>
      <trkpt lat="49.76503" lon="4.80543">
        <ele>272</ele>
        <time>2021-05-15T07:29:54.000Z</time>
      </trkpt>
      <trkpt lat="49.76508" lon="4.80538">
        <ele>272</ele>
        <time>2021-05-15T07:29:55.000Z</time>
      </trkpt>
      <trkpt lat="49.76513" lon="4.80534">
        <ele>272</ele>
        <time>2021-05-15T07:29:56.000Z</time>
      </trkpt>
      <trkpt lat="49.76518" lon="4.8053">
        <ele>272</ele>
        <time>2021-05-15T07:29:57.000Z</time>
      </trkpt>
      <trkpt lat="49.76522" lon="4.80526">
        <ele>273</ele>
        <time>2021-05-15T07:29:58.000Z</time>
      </trkpt>
      <trkpt lat="49.76527" lon="4.80522">
        <ele>273</ele>
        <time>2021-05-15T07:29:59.000Z</time>
      </trkpt>
      <trkpt lat="49.76531" lon="4.8052">
        <ele>273</ele>
        <time>2021-05-15T07:30:00.000Z</time>
      </trkpt>
      <trkpt lat="49.76536" lon="4.80519">
        <ele>273</ele>
        <time>2021-05-15T07:30:01.000Z</time>
      </trkpt>
      <trkpt lat="49.76541" lon="4.80518">
        <ele>273</ele>
        <time>2021-05-15T07:30:02.000Z</time>
      </trkpt>
      <trkpt lat="49.76545" lon="4.80517">
        <ele>273</ele>
        <time>2021-05-15T07:30:03.000Z</time>
      </trkpt>
      <trkpt lat="49.76549" lon="4.80515">
        <ele>273</ele>
        <time>2021-05-15T07:30:04.000Z</time>
      </trkpt>
      <trkpt lat="49.76553" lon="4.80514">
        <ele>273</ele>
        <time>2021-05-15T07:30:05.000Z</time>
      </trkpt>
      <trkpt lat="49.76556" lon="4.80512">
        <ele>273</ele>
        <time>2021-05-15T07:30:06.000Z</time>
      </trkpt>
      <trkpt lat="49.76561" lon="4.8051">
        <ele>273</ele>
        <time>2021-05-15T07:30:07.000Z</time>
      </trkpt>
      <trkpt lat="49.76565" lon="4.80509">
        <ele>273</ele>
        <time>2021-05-15T07:30:08.000Z</time>
      </trkpt>
      <trkpt lat="49.76569" lon="4.80508">
        <ele>273</ele>
        <time>2021-05-15T07:30:09.000Z</time>
      </trkpt>
      <trkpt lat="49.76573" lon="4.80506">
        <ele>273</ele>
        <time>2021-05-15T07:30:10.000Z</time>
      </trkpt>
      <trkpt lat="49.76577" lon="4.80504">
        <ele>273</ele>
        <time>2021-05-15T07:30:11.000Z</time>
      </trkpt>
      <trkpt lat="49.76582" lon="4.80503">
        <ele>273</ele>
        <time>2021-05-15T07:30:12.000Z</time>
      </trkpt>
      <trkpt lat="49.76587" lon="4.80502">
        <ele>273</ele>
        <time>2021-05-15T07:30:13.000Z</time>
      </trkpt>
      <trkpt lat="49.76591" lon="4.80501">
        <ele>274</ele>
        <time>2021-05-15T07:30:14.000Z</time>
      </trkpt>
      <trkpt lat="49.76594" lon="4.80499">
        <ele>274</ele>
        <time>2021-05-15T07:30:15.000Z</time>
      </trkpt>
      <trkpt lat="49.76597" lon="4.80497">
        <ele>274</ele>
        <time>2021-05-15T07:30:16.000Z</time>
      </trkpt>
      <trkpt lat="49.766" lon="4.80496">
        <ele>274</ele>
        <time>2021-05-15T07:30:17.000Z</time>
      </trkpt>
      <trkpt lat="49.76604" lon="4.80495">
        <ele>274</ele>
        <time>2021-05-15T07:30:18.000Z</time>
      </trkpt>
      <trkpt lat="49.76608" lon="4.80494">
        <ele>274</ele>
        <time>2021-05-15T07:30:19.000Z</time>
      </trkpt>
      <trkpt lat="49.76611" lon="4.80492">
        <ele>275</ele>
        <time>2021-05-15T07:30:20.000Z</time>
      </trkpt>
      <trkpt lat="49.76614" lon="4.8049">
        <ele>275</ele>
        <time>2021-05-15T07:30:21.000Z</time>
      </trkpt>
      <trkpt lat="49.76618" lon="4.80489">
        <ele>275</ele>
        <time>2021-05-15T07:30:22.000Z</time>
      </trkpt>
      <trkpt lat="49.76621" lon="4.80487">
        <ele>275</ele>
        <time>2021-05-15T07:30:23.000Z</time>
      </trkpt>
      <trkpt lat="49.76624" lon="4.80486">
        <ele>275</ele>
        <time>2021-05-15T07:30:24.000Z</time>
      </trkpt>
      <trkpt lat="49.76626" lon="4.80485">
        <ele>276</ele>
        <time>2021-05-15T07:30:25.000Z</time>
      </trkpt>
      <trkpt lat="49.76629" lon="4.80484">
        <ele>276</ele>
        <time>2021-05-15T07:30:26.000Z</time>
      </trkpt>
      <trkpt lat="49.76632" lon="4.80483">
        <ele>276</ele>
        <time>2021-05-15T07:30:27.000Z</time>
      </trkpt>
      <trkpt lat="49.76635" lon="4.80482">
        <ele>276</ele>
        <time>2021-05-15T07:30:28.000Z</time>
      </trkpt>
      <trkpt lat="49.76638" lon="4.80481">
        <ele>277</ele>
        <time>2021-05-15T07:30:29.000Z</time>
      </trkpt>
      <trkpt lat="49.76642" lon="4.8048">
        <ele>277</ele>
        <time>2021-05-15T07:30:30.000Z</time>
      </trkpt>
      <trkpt lat="49.76646" lon="4.8048">
        <ele>277</ele>
        <time>2021-05-15T07:30:31.000Z</time>
      </trkpt>
      <trkpt lat="49.76651" lon="4.8048">
        <ele>278</ele>
        <time>2021-05-15T07:30:32.000Z</time>
      </trkpt>
      <trkpt lat="49.76656" lon="4.8048">
        <ele>278</ele>
        <time>2021-05-15T07:30:33.000Z</time>
      </trkpt>
      <trkpt lat="49.76661" lon="4.8048">
        <ele>278</ele>
        <time>2021-05-15T07:30:34.000Z</time>
      </trkpt>
      <trkpt lat="49.76665" lon="4.80481">
        <ele>278</ele>
        <time>2021-05-15T07:30:35.000Z</time>
      </trkpt>
      <trkpt lat="49.76669" lon="4.80482">
        <ele>278</ele>
        <time>2021-05-15T07:30:36.000Z</time>
      </trkpt>
      <trkpt lat="49.76674" lon="4.80483">
        <ele>279</ele>
        <time>2021-05-15T07:30:37.000Z</time>
      </trkpt>
      <trkpt lat="49.76678" lon="4.80483">
        <ele>279</ele>
        <time>2021-05-15T07:30:38.000Z</time>
      </trkpt>
      <trkpt lat="49.76682" lon="4.80483">
        <ele>279</ele>
        <time>2021-05-15T07:30:39.000Z</time>
      </trkpt>
      <trkpt lat="49.76686" lon="4.80482">
        <ele>279</ele>
        <time>2021-05-15T07:30:40.000Z</time>
      </trkpt>
      <trkpt lat="49.76691" lon="4.80481">
        <ele>279</ele>
        <time>2021-05-15T07:30:41.000Z</time>
      </trkpt>
      <trkpt lat="49.76695" lon="4.80479">
        <ele>279</ele>
        <time>2021-05-15T07:30:42.000Z</time>
      </trkpt>
      <trkpt lat="49.767" lon="4.80477">
        <ele>279</ele>
        <time>2021-05-15T07:30:43.000Z</time>
      </trkpt>
      <trkpt lat="49.76705" lon="4.80475">
        <ele>279</ele>
        <time>2021-05-15T07:30:44.000Z</time>
      </trkpt>
      <trkpt lat="49.7671" lon="4.80473">
        <ele>279</ele>
        <time>2021-05-15T07:30:45.000Z</time>
      </trkpt>
      <trkpt lat="49.76714" lon="4.80472">
        <ele>279</ele>
        <time>2021-05-15T07:30:46.000Z</time>
      </trkpt>
      <trkpt lat="49.76719" lon="4.8047">
        <ele>280</ele>
        <time>2021-05-15T07:30:47.000Z</time>
      </trkpt>
      <trkpt lat="49.76724" lon="4.80469">
        <ele>280</ele>
        <time>2021-05-15T07:30:48.000Z</time>
      </trkpt>
      <trkpt lat="49.76729" lon="4.80467">
        <ele>280</ele>
        <time>2021-05-15T07:30:49.000Z</time>
      </trkpt>
      <trkpt lat="49.76734" lon="4.80467">
        <ele>280</ele>
        <time>2021-05-15T07:30:50.000Z</time>
      </trkpt>
      <trkpt lat="49.76738" lon="4.80466">
        <ele>280</ele>
        <time>2021-05-15T07:30:51.000Z</time>
      </trkpt>
      <trkpt lat="49.76743" lon="4.80464">
        <ele>280</ele>
        <time>2021-05-15T07:30:52.000Z</time>
      </trkpt>
      <trkpt lat="49.76748" lon="4.80463">
        <ele>280</ele>
        <time>2021-05-15T07:30:53.000Z</time>
      </trkpt>
      <trkpt lat="49.76753" lon="4.80461">
        <ele>280</ele>
        <time>2021-05-15T07:30:54.000Z</time>
      </trkpt>
      <trkpt lat="49.76758" lon="4.8046">
        <ele>280</ele>
        <time>2021-05-15T07:30:55.000Z</time>
      </trkpt>
      <trkpt lat="49.76763" lon="4.80459">
        <ele>280</ele>
        <time>2021-05-15T07:30:56.000Z</time>
      </trkpt>
      <trkpt lat="49.76768" lon="4.80457">
        <ele>280</ele>
        <time>2021-05-15T07:30:57.000Z</time>
      </trkpt>
      <trkpt lat="49.76773" lon="4.80456">
        <ele>280</ele>
        <time>2021-05-15T07:30:58.000Z</time>
      </trkpt>
      <trkpt lat="49.76778" lon="4.80454">
        <ele>280</ele>
        <time>2021-05-15T07:30:59.000Z</time>
      </trkpt>
      <trkpt lat="49.76783" lon="4.80452">
        <ele>280</ele>
        <time>2021-05-15T07:31:00.000Z</time>
      </trkpt>
      <trkpt lat="49.76788" lon="4.8045">
        <ele>280</ele>
        <time>2021-05-15T07:31:01.000Z</time>
      </trkpt>
      <trkpt lat="49.76792" lon="4.80448">
        <ele>280</ele>
        <time>2021-05-15T07:31:02.000Z</time>
      </trkpt>
      <trkpt lat="49.76797" lon="4.80446">
        <ele>280</ele>
        <time>2021-05-15T07:31:03.000Z</time>
      </trkpt>
      <trkpt lat="49.76802" lon="4.80444">
        <ele>280</ele>
        <time>2021-05-15T07:31:04.000Z</time>
      </trkpt>
      <trkpt lat="49.76806" lon="4.80441">
        <ele>280</ele>
        <time>2021-05-15T07:31:05.000Z</time>
      </trkpt>
      <trkpt lat="49.76811" lon="4.80438">
        <ele>280</ele>
        <time>2021-05-15T07:31:06.000Z</time>
      </trkpt>
      <trkpt lat="49.76815" lon="4.80435">
        <ele>280</ele>
        <time>2021-05-15T07:31:07.000Z</time>
      </trkpt>
      <trkpt lat="49.7682" lon="4.80433">
        <ele>280</ele>
        <time>2021-05-15T07:31:08.000Z</time>
      </trkpt>
      <trkpt lat="49.76824" lon="4.80431">
        <ele>280</ele>
        <time>2021-05-15T07:31:09.000Z</time>
      </trkpt>
      <trkpt lat="49.76829" lon="4.80428">
        <ele>280</ele>
        <time>2021-05-15T07:31:10.000Z</time>
      </trkpt>
      <trkpt lat="49.76833" lon="4.80424">
        <ele>280</ele>
        <time>2021-05-15T07:31:11.000Z</time>
      </trkpt>
      <trkpt lat="49.76837" lon="4.80421">
        <ele>280</ele>
        <time>2021-05-15T07:31:12.000Z</time>
      </trkpt>
      <trkpt lat="49.76841" lon="4.80417">
        <ele>280</ele>
        <time>2021-05-15T07:31:13.000Z</time>
      </trkpt>
      <trkpt lat="49.76846" lon="4.80413">
        <ele>280</ele>
        <time>2021-05-15T07:31:14.000Z</time>
      </trkpt>
      <trkpt lat="49.7685" lon="4.8041">
        <ele>280</ele>
        <time>2021-05-15T07:31:15.000Z</time>
      </trkpt>
      <trkpt lat="49.76855" lon="4.80406">
        <ele>280</ele>
        <time>2021-05-15T07:31:16.000Z</time>
      </trkpt>
      <trkpt lat="49.7686" lon="4.80403">
        <ele>280</ele>
        <time>2021-05-15T07:31:17.000Z</time>
      </trkpt>
      <trkpt lat="49.76864" lon="4.80401">
        <ele>280</ele>
        <time>2021-05-15T07:31:18.000Z</time>
      </trkpt>
      <trkpt lat="49.76869" lon="4.80398">
        <ele>280</ele>
        <time>2021-05-15T07:31:19.000Z</time>
      </trkpt>
      <trkpt lat="49.76874" lon="4.80396">
        <ele>280</ele>
        <time>2021-05-15T07:31:20.000Z</time>
      </trkpt>
      <trkpt lat="49.76878" lon="4.80394">
        <ele>281</ele>
        <time>2021-05-15T07:31:21.000Z</time>
      </trkpt>
      <trkpt lat="49.76883" lon="4.80391">
        <ele>281</ele>
        <time>2021-05-15T07:31:22.000Z</time>
      </trkpt>
      <trkpt lat="49.76887" lon="4.80389">
        <ele>281</ele>
        <time>2021-05-15T07:31:23.000Z</time>
      </trkpt>
      <trkpt lat="49.76891" lon="4.80386">
        <ele>281</ele>
        <time>2021-05-15T07:31:24.000Z</time>
      </trkpt>
      <trkpt lat="49.76896" lon="4.80382">
        <ele>281</ele>
        <time>2021-05-15T07:31:25.000Z</time>
      </trkpt>
      <trkpt lat="49.769" lon="4.80378">
        <ele>281</ele>
        <time>2021-05-15T07:31:26.000Z</time>
      </trkpt>
      <trkpt lat="49.76904" lon="4.80373">
        <ele>281</ele>
        <time>2021-05-15T07:31:27.000Z</time>
      </trkpt>
      <trkpt lat="49.76908" lon="4.80367">
        <ele>281</ele>
        <time>2021-05-15T07:31:28.000Z</time>
      </trkpt>
      <trkpt lat="49.76912" lon="4.80361">
        <ele>281</ele>
        <time>2021-05-15T07:31:29.000Z</time>
      </trkpt>
      <trkpt lat="49.76917" lon="4.80355">
        <ele>281</ele>
        <time>2021-05-15T07:31:30.000Z</time>
      </trkpt>
      <trkpt lat="49.76921" lon="4.80349">
        <ele>281</ele>
        <time>2021-05-15T07:31:31.000Z</time>
      </trkpt>
      <trkpt lat="49.76925" lon="4.80343">
        <ele>282</ele>
        <time>2021-05-15T07:31:32.000Z</time>
      </trkpt>
      <trkpt lat="49.7693" lon="4.80339">
        <ele>282</ele>
        <time>2021-05-15T07:31:33.000Z</time>
      </trkpt>
      <trkpt lat="49.76934" lon="4.80335">
        <ele>282</ele>
        <time>2021-05-15T07:31:34.000Z</time>
      </trkpt>
      <trkpt lat="49.76939" lon="4.80331">
        <ele>282</ele>
        <time>2021-05-15T07:31:35.000Z</time>
      </trkpt>
      <trkpt lat="49.76943" lon="4.80327">
        <ele>282</ele>
        <time>2021-05-15T07:31:36.000Z</time>
      </trkpt>
      <trkpt lat="49.76946" lon="4.80322">
        <ele>282</ele>
        <time>2021-05-15T07:31:37.000Z</time>
      </trkpt>
      <trkpt lat="49.7695" lon="4.80318">
        <ele>282</ele>
        <time>2021-05-15T07:31:38.000Z</time>
      </trkpt>
      <trkpt lat="49.76953" lon="4.80314">
        <ele>282</ele>
        <time>2021-05-15T07:31:39.000Z</time>
      </trkpt>
      <trkpt lat="49.76955" lon="4.80311">
        <ele>282</ele>
        <time>2021-05-15T07:31:40.000Z</time>
      </trkpt>
      <trkpt lat="49.76958" lon="4.80307">
        <ele>283</ele>
        <time>2021-05-15T07:31:41.000Z</time>
      </trkpt>
      <trkpt lat="49.76961" lon="4.80304">
        <ele>283</ele>
        <time>2021-05-15T07:31:42.000Z</time>
      </trkpt>
      <trkpt lat="49.76963" lon="4.80301">
        <ele>283</ele>
        <time>2021-05-15T07:31:43.000Z</time>
      </trkpt>
      <trkpt lat="49.76965" lon="4.80297">
        <ele>283</ele>
        <time>2021-05-15T07:31:44.000Z</time>
      </trkpt>
      <trkpt lat="49.76967" lon="4.80294">
        <ele>283</ele>
        <time>2021-05-15T07:31:45.000Z</time>
      </trkpt>
      <trkpt lat="49.7697" lon="4.80291">
        <ele>284</ele>
        <time>2021-05-15T07:31:46.000Z</time>
      </trkpt>
      <trkpt lat="49.76972" lon="4.80289">
        <ele>284</ele>
        <time>2021-05-15T07:31:47.000Z</time>
      </trkpt>
      <trkpt lat="49.76974" lon="4.80285">
        <ele>284</ele>
        <time>2021-05-15T07:31:48.000Z</time>
      </trkpt>
      <trkpt lat="49.76976" lon="4.80282">
        <ele>284</ele>
        <time>2021-05-15T07:31:49.000Z</time>
      </trkpt>
      <trkpt lat="49.76978" lon="4.80279">
        <ele>285</ele>
        <time>2021-05-15T07:31:50.000Z</time>
      </trkpt>
      <trkpt lat="49.76979" lon="4.80276">
        <ele>285</ele>
        <time>2021-05-15T07:31:51.000Z</time>
      </trkpt>
      <trkpt lat="49.76981" lon="4.80273">
        <ele>285</ele>
        <time>2021-05-15T07:31:52.000Z</time>
      </trkpt>
      <trkpt lat="49.76983" lon="4.8027">
        <ele>285</ele>
        <time>2021-05-15T07:31:53.000Z</time>
      </trkpt>
      <trkpt lat="49.76984" lon="4.80267">
        <ele>286</ele>
        <time>2021-05-15T07:31:54.000Z</time>
      </trkpt>
      <trkpt lat="49.76987" lon="4.80264">
        <ele>286</ele>
        <time>2021-05-15T07:31:55.000Z</time>
      </trkpt>
      <trkpt lat="49.76989" lon="4.80261">
        <ele>286</ele>
        <time>2021-05-15T07:31:56.000Z</time>
      </trkpt>
      <trkpt lat="49.76992" lon="4.80259">
        <ele>286</ele>
        <time>2021-05-15T07:31:57.000Z</time>
      </trkpt>
      <trkpt lat="49.76994" lon="4.80257">
        <ele>286</ele>
        <time>2021-05-15T07:31:58.000Z</time>
      </trkpt>
      <trkpt lat="49.76996" lon="4.80254">
        <ele>287</ele>
        <time>2021-05-15T07:31:59.000Z</time>
      </trkpt>
      <trkpt lat="49.76998" lon="4.80251">
        <ele>287</ele>
        <time>2021-05-15T07:32:00.000Z</time>
      </trkpt>
      <trkpt lat="49.77" lon="4.80248">
        <ele>287</ele>
        <time>2021-05-15T07:32:01.000Z</time>
      </trkpt>
      <trkpt lat="49.77003" lon="4.80245">
        <ele>287</ele>
        <time>2021-05-15T07:32:02.000Z</time>
      </trkpt>
      <trkpt lat="49.77005" lon="4.80242">
        <ele>287</ele>
        <time>2021-05-15T07:32:03.000Z</time>
      </trkpt>
      <trkpt lat="49.77008" lon="4.80239">
        <ele>288</ele>
        <time>2021-05-15T07:32:04.000Z</time>
      </trkpt>
      <trkpt lat="49.7701" lon="4.80235">
        <ele>288</ele>
        <time>2021-05-15T07:32:05.000Z</time>
      </trkpt>
      <trkpt lat="49.77013" lon="4.80232">
        <ele>288</ele>
        <time>2021-05-15T07:32:06.000Z</time>
      </trkpt>
      <trkpt lat="49.77015" lon="4.80229">
        <ele>289</ele>
        <time>2021-05-15T07:32:07.000Z</time>
      </trkpt>
      <trkpt lat="49.77018" lon="4.80225">
        <ele>289</ele>
        <time>2021-05-15T07:32:08.000Z</time>
      </trkpt>
      <trkpt lat="49.77021" lon="4.80222">
        <ele>289</ele>
        <time>2021-05-15T07:32:09.000Z</time>
      </trkpt>
      <trkpt lat="49.77023" lon="4.80219">
        <ele>290</ele>
        <time>2021-05-15T07:32:10.000Z</time>
      </trkpt>
      <trkpt lat="49.77026" lon="4.80216">
        <ele>290</ele>
        <time>2021-05-15T07:32:11.000Z</time>
      </trkpt>
      <trkpt lat="49.7703" lon="4.80212">
        <ele>290</ele>
        <time>2021-05-15T07:32:12.000Z</time>
      </trkpt>
      <trkpt lat="49.77033" lon="4.80209">
        <ele>291</ele>
        <time>2021-05-15T07:32:13.000Z</time>
      </trkpt>
      <trkpt lat="49.77037" lon="4.80205">
        <ele>291</ele>
        <time>2021-05-15T07:32:14.000Z</time>
      </trkpt>
      <trkpt lat="49.7704" lon="4.80202">
        <ele>291</ele>
        <time>2021-05-15T07:32:15.000Z</time>
      </trkpt>
      <trkpt lat="49.77044" lon="4.80198">
        <ele>292</ele>
        <time>2021-05-15T07:32:16.000Z</time>
      </trkpt>
      <trkpt lat="49.77047" lon="4.80194">
        <ele>292</ele>
        <time>2021-05-15T07:32:17.000Z</time>
      </trkpt>
      <trkpt lat="49.7705" lon="4.80191">
        <ele>292</ele>
        <time>2021-05-15T07:32:18.000Z</time>
      </trkpt>
      <trkpt lat="49.77053" lon="4.80187">
        <ele>292</ele>
        <time>2021-05-15T07:32:19.000Z</time>
      </trkpt>
      <trkpt lat="49.77056" lon="4.80184">
        <ele>293</ele>
        <time>2021-05-15T07:32:20.000Z</time>
      </trkpt>
      <trkpt lat="49.77058" lon="4.8018">
        <ele>293</ele>
        <time>2021-05-15T07:32:21.000Z</time>
      </trkpt>
      <trkpt lat="49.7706" lon="4.80176">
        <ele>293</ele>
        <time>2021-05-15T07:32:22.000Z</time>
      </trkpt>
      <trkpt lat="49.77063" lon="4.80172">
        <ele>293</ele>
        <time>2021-05-15T07:32:23.000Z</time>
      </trkpt>
      <trkpt lat="49.77066" lon="4.80168">
        <ele>293</ele>
        <time>2021-05-15T07:32:24.000Z</time>
      </trkpt>
      <trkpt lat="49.77069" lon="4.80164">
        <ele>293</ele>
        <time>2021-05-15T07:32:25.000Z</time>
      </trkpt>
      <trkpt lat="49.77073" lon="4.80162">
        <ele>293</ele>
        <time>2021-05-15T07:32:26.000Z</time>
      </trkpt>
      <trkpt lat="49.77077" lon="4.80162">
        <ele>294</ele>
        <time>2021-05-15T07:32:27.000Z</time>
      </trkpt>
      <trkpt lat="49.7708" lon="4.80163">
        <ele>294</ele>
        <time>2021-05-15T07:32:28.000Z</time>
      </trkpt>
      <trkpt lat="49.77083" lon="4.80164">
        <ele>294</ele>
        <time>2021-05-15T07:32:29.000Z</time>
      </trkpt>
      <trkpt lat="49.77085" lon="4.80166">
        <ele>294</ele>
        <time>2021-05-15T07:32:30.000Z</time>
      </trkpt>
      <trkpt lat="49.77088" lon="4.80169">
        <ele>294</ele>
        <time>2021-05-15T07:32:31.000Z</time>
      </trkpt>
      <trkpt lat="49.77092" lon="4.80172">
        <ele>295</ele>
        <time>2021-05-15T07:32:32.000Z</time>
      </trkpt>
      <trkpt lat="49.77096" lon="4.80174">
        <ele>295</ele>
        <time>2021-05-15T07:32:33.000Z</time>
      </trkpt>
      <trkpt lat="49.771" lon="4.80176">
        <ele>295</ele>
        <time>2021-05-15T07:32:34.000Z</time>
      </trkpt>
      <trkpt lat="49.77103" lon="4.80178">
        <ele>295</ele>
        <time>2021-05-15T07:32:35.000Z</time>
      </trkpt>
      <trkpt lat="49.77107" lon="4.80178">
        <ele>295</ele>
        <time>2021-05-15T07:32:36.000Z</time>
      </trkpt>
      <trkpt lat="49.77111" lon="4.80179">
        <ele>295</ele>
        <time>2021-05-15T07:32:37.000Z</time>
      </trkpt>
      <trkpt lat="49.77114" lon="4.80179">
        <ele>295</ele>
        <time>2021-05-15T07:32:38.000Z</time>
      </trkpt>
      <trkpt lat="49.77118" lon="4.80178">
        <ele>295</ele>
        <time>2021-05-15T07:32:39.000Z</time>
      </trkpt>
      <trkpt lat="49.77122" lon="4.80177">
        <ele>295</ele>
        <time>2021-05-15T07:32:40.000Z</time>
      </trkpt>
      <trkpt lat="49.77127" lon="4.80175">
        <ele>295</ele>
        <time>2021-05-15T07:32:41.000Z</time>
      </trkpt>
      <trkpt lat="49.77131" lon="4.80174">
        <ele>295</ele>
        <time>2021-05-15T07:32:42.000Z</time>
      </trkpt>
      <trkpt lat="49.77136" lon="4.80173">
        <ele>295</ele>
        <time>2021-05-15T07:32:43.000Z</time>
      </trkpt>
      <trkpt lat="49.7714" lon="4.80172">
        <ele>295</ele>
        <time>2021-05-15T07:32:44.000Z</time>
      </trkpt>
      <trkpt lat="49.77144" lon="4.8017">
        <ele>295</ele>
        <time>2021-05-15T07:32:45.000Z</time>
      </trkpt>
      <trkpt lat="49.77148" lon="4.8017">
        <ele>294</ele>
        <time>2021-05-15T07:32:46.000Z</time>
      </trkpt>
      <trkpt lat="49.77153" lon="4.8017">
        <ele>294</ele>
        <time>2021-05-15T07:32:47.000Z</time>
      </trkpt>
      <trkpt lat="49.77158" lon="4.8017">
        <ele>294</ele>
        <time>2021-05-15T07:32:48.000Z</time>
      </trkpt>
      <trkpt lat="49.77163" lon="4.80171">
        <ele>294</ele>
        <time>2021-05-15T07:32:49.000Z</time>
      </trkpt>
      <trkpt lat="49.77168" lon="4.80171">
        <ele>294</ele>
        <time>2021-05-15T07:32:50.000Z</time>
      </trkpt>
      <trkpt lat="49.77173" lon="4.80171">
        <ele>294</ele>
        <time>2021-05-15T07:32:51.000Z</time>
      </trkpt>
      <trkpt lat="49.77179" lon="4.80171">
        <ele>294</ele>
        <time>2021-05-15T07:32:52.000Z</time>
      </trkpt>
      <trkpt lat="49.77185" lon="4.8017">
        <ele>294</ele>
        <time>2021-05-15T07:32:53.000Z</time>
      </trkpt>
      <trkpt lat="49.7719" lon="4.80169">
        <ele>294</ele>
        <time>2021-05-15T07:32:54.000Z</time>
      </trkpt>
      <trkpt lat="49.77196" lon="4.80169">
        <ele>294</ele>
        <time>2021-05-15T07:32:55.000Z</time>
      </trkpt>
      <trkpt lat="49.77202" lon="4.80168">
        <ele>294</ele>
        <time>2021-05-15T07:32:56.000Z</time>
      </trkpt>
      <trkpt lat="49.77208" lon="4.80167">
        <ele>294</ele>
        <time>2021-05-15T07:32:57.000Z</time>
      </trkpt>
      <trkpt lat="49.77214" lon="4.80166">
        <ele>293</ele>
        <time>2021-05-15T07:32:58.000Z</time>
      </trkpt>
      <trkpt lat="49.7722" lon="4.80166">
        <ele>293</ele>
        <time>2021-05-15T07:32:59.000Z</time>
      </trkpt>
      <trkpt lat="49.77226" lon="4.80165">
        <ele>293</ele>
        <time>2021-05-15T07:33:00.000Z</time>
      </trkpt>
      <trkpt lat="49.77233" lon="4.80164">
        <ele>293</ele>
        <time>2021-05-15T07:33:01.000Z</time>
      </trkpt>
      <trkpt lat="49.77239" lon="4.80163">
        <ele>293</ele>
        <time>2021-05-15T07:33:02.000Z</time>
      </trkpt>
      <trkpt lat="49.77245" lon="4.80162">
        <ele>293</ele>
        <time>2021-05-15T07:33:03.000Z</time>
      </trkpt>
      <trkpt lat="49.77252" lon="4.80161">
        <ele>293</ele>
        <time>2021-05-15T07:33:04.000Z</time>
      </trkpt>
      <trkpt lat="49.77258" lon="4.8016">
        <ele>292</ele>
        <time>2021-05-15T07:33:05.000Z</time>
      </trkpt>
      <trkpt lat="49.77264" lon="4.80159">
        <ele>292</ele>
        <time>2021-05-15T07:33:06.000Z</time>
      </trkpt>
      <trkpt lat="49.77271" lon="4.80158">
        <ele>292</ele>
        <time>2021-05-15T07:33:07.000Z</time>
      </trkpt>
      <trkpt lat="49.77277" lon="4.80157">
        <ele>292</ele>
        <time>2021-05-15T07:33:08.000Z</time>
      </trkpt>
      <trkpt lat="49.77283" lon="4.80156">
        <ele>292</ele>
        <time>2021-05-15T07:33:09.000Z</time>
      </trkpt>
      <trkpt lat="49.7729" lon="4.80154">
        <ele>291</ele>
        <time>2021-05-15T07:33:10.000Z</time>
      </trkpt>
      <trkpt lat="49.77297" lon="4.80153">
        <ele>291</ele>
        <time>2021-05-15T07:33:11.000Z</time>
      </trkpt>
      <trkpt lat="49.77304" lon="4.80151">
        <ele>291</ele>
        <time>2021-05-15T07:33:12.000Z</time>
      </trkpt>
      <trkpt lat="49.77311" lon="4.8015">
        <ele>291</ele>
        <time>2021-05-15T07:33:13.000Z</time>
      </trkpt>
      <trkpt lat="49.77318" lon="4.80148">
        <ele>290</ele>
        <time>2021-05-15T07:33:14.000Z</time>
      </trkpt>
      <trkpt lat="49.77325" lon="4.80145">
        <ele>290</ele>
        <time>2021-05-15T07:33:15.000Z</time>
      </trkpt>
      <trkpt lat="49.77331" lon="4.80142">
        <ele>290</ele>
        <time>2021-05-15T07:33:16.000Z</time>
      </trkpt>
      <trkpt lat="49.77338" lon="4.80138">
        <ele>290</ele>
        <time>2021-05-15T07:33:17.000Z</time>
      </trkpt>
      <trkpt lat="49.77343" lon="4.80134">
        <ele>289</ele>
        <time>2021-05-15T07:33:18.000Z</time>
      </trkpt>
      <trkpt lat="49.77349" lon="4.80129">
        <ele>289</ele>
        <time>2021-05-15T07:33:19.000Z</time>
      </trkpt>
      <trkpt lat="49.77354" lon="4.80123">
        <ele>289</ele>
        <time>2021-05-15T07:33:20.000Z</time>
      </trkpt>
      <trkpt lat="49.7736" lon="4.80117">
        <ele>289</ele>
        <time>2021-05-15T07:33:21.000Z</time>
      </trkpt>
      <trkpt lat="49.77365" lon="4.80111">
        <ele>288</ele>
        <time>2021-05-15T07:33:22.000Z</time>
      </trkpt>
      <trkpt lat="49.7737" lon="4.80104">
        <ele>288</ele>
        <time>2021-05-15T07:33:23.000Z</time>
      </trkpt>
      <trkpt lat="49.77375" lon="4.80096">
        <ele>288</ele>
        <time>2021-05-15T07:33:24.000Z</time>
      </trkpt>
      <trkpt lat="49.77381" lon="4.80087">
        <ele>288</ele>
        <time>2021-05-15T07:33:25.000Z</time>
      </trkpt>
      <trkpt lat="49.77386" lon="4.80078">
        <ele>288</ele>
        <time>2021-05-15T07:33:26.000Z</time>
      </trkpt>
      <trkpt lat="49.77391" lon="4.8007">
        <ele>287</ele>
        <time>2021-05-15T07:33:27.000Z</time>
      </trkpt>
      <trkpt lat="49.77395" lon="4.80061">
        <ele>287</ele>
        <time>2021-05-15T07:33:28.000Z</time>
      </trkpt>
      <trkpt lat="49.774" lon="4.80053">
        <ele>287</ele>
        <time>2021-05-15T07:33:29.000Z</time>
      </trkpt>
      <trkpt lat="49.77404" lon="4.80047">
        <ele>287</ele>
        <time>2021-05-15T07:33:30.000Z</time>
      </trkpt>
      <trkpt lat="49.7741" lon="4.80042">
        <ele>286</ele>
        <time>2021-05-15T07:33:31.000Z</time>
      </trkpt>
      <trkpt lat="49.77415" lon="4.80039">
        <ele>286</ele>
        <time>2021-05-15T07:33:32.000Z</time>
      </trkpt>
      <trkpt lat="49.77422" lon="4.80038">
        <ele>286</ele>
        <time>2021-05-15T07:33:33.000Z</time>
      </trkpt>
      <trkpt lat="49.7743" lon="4.80038">
        <ele>285</ele>
        <time>2021-05-15T07:33:34.000Z</time>
      </trkpt>
      <trkpt lat="49.77438" lon="4.80038">
        <ele>285</ele>
        <time>2021-05-15T07:33:35.000Z</time>
      </trkpt>
      <trkpt lat="49.77447" lon="4.80038">
        <ele>284</ele>
        <time>2021-05-15T07:33:36.000Z</time>
      </trkpt>
      <trkpt lat="49.77456" lon="4.80035">
        <ele>284</ele>
        <time>2021-05-15T07:33:37.000Z</time>
      </trkpt>
      <trkpt lat="49.77465" lon="4.80029">
        <ele>283</ele>
        <time>2021-05-15T07:33:38.000Z</time>
      </trkpt>
      <trkpt lat="49.77473" lon="4.80022">
        <ele>282</ele>
        <time>2021-05-15T07:33:39.000Z</time>
      </trkpt>
      <trkpt lat="49.77482" lon="4.80016">
        <ele>281</ele>
        <time>2021-05-15T07:33:40.000Z</time>
      </trkpt>
      <trkpt lat="49.77491" lon="4.80009">
        <ele>280</ele>
        <time>2021-05-15T07:33:41.000Z</time>
      </trkpt>
      <trkpt lat="49.775" lon="4.80003">
        <ele>279</ele>
        <time>2021-05-15T07:33:42.000Z</time>
      </trkpt>
      <trkpt lat="49.7751" lon="4.79998">
        <ele>278</ele>
        <time>2021-05-15T07:33:43.000Z</time>
      </trkpt>
      <trkpt lat="49.77521" lon="4.79994">
        <ele>277</ele>
        <time>2021-05-15T07:33:44.000Z</time>
      </trkpt>
      <trkpt lat="49.77532" lon="4.79992">
        <ele>275</ele>
        <time>2021-05-15T07:33:45.000Z</time>
      </trkpt>
      <trkpt lat="49.77543" lon="4.7999">
        <ele>274</ele>
        <time>2021-05-15T07:33:46.000Z</time>
      </trkpt>
      <trkpt lat="49.77554" lon="4.79988">
        <ele>273</ele>
        <time>2021-05-15T07:33:47.000Z</time>
      </trkpt>
      <trkpt lat="49.77566" lon="4.79986">
        <ele>272</ele>
        <time>2021-05-15T07:33:48.000Z</time>
      </trkpt>
      <trkpt lat="49.77577" lon="4.79984">
        <ele>271</ele>
        <time>2021-05-15T07:33:49.000Z</time>
      </trkpt>
      <trkpt lat="49.77588" lon="4.79983">
        <ele>269</ele>
        <time>2021-05-15T07:33:50.000Z</time>
      </trkpt>
      <trkpt lat="49.776" lon="4.79982">
        <ele>268</ele>
        <time>2021-05-15T07:33:51.000Z</time>
      </trkpt>
      <trkpt lat="49.77611" lon="4.7998">
        <ele>267</ele>
        <time>2021-05-15T07:33:52.000Z</time>
      </trkpt>
      <trkpt lat="49.77622" lon="4.79977">
        <ele>267</ele>
        <time>2021-05-15T07:33:53.000Z</time>
      </trkpt>
      <trkpt lat="49.77632" lon="4.79974">
        <ele>266</ele>
        <time>2021-05-15T07:33:54.000Z</time>
      </trkpt>
      <trkpt lat="49.77642" lon="4.79969">
        <ele>266</ele>
        <time>2021-05-15T07:33:55.000Z</time>
      </trkpt>
      <trkpt lat="49.77651" lon="4.79963">
        <ele>265</ele>
        <time>2021-05-15T07:33:56.000Z</time>
      </trkpt>
      <trkpt lat="49.7766" lon="4.79956">
        <ele>265</ele>
        <time>2021-05-15T07:33:57.000Z</time>
      </trkpt>
      <trkpt lat="49.77668" lon="4.79948">
        <ele>264</ele>
        <time>2021-05-15T07:33:58.000Z</time>
      </trkpt>
      <trkpt lat="49.77676" lon="4.7994">
        <ele>263</ele>
        <time>2021-05-15T07:33:59.000Z</time>
      </trkpt>
      <trkpt lat="49.77684" lon="4.79931">
        <ele>263</ele>
        <time>2021-05-15T07:34:00.000Z</time>
      </trkpt>
      <trkpt lat="49.77691" lon="4.79922">
        <ele>262</ele>
        <time>2021-05-15T07:34:01.000Z</time>
      </trkpt>
      <trkpt lat="49.77699" lon="4.79913">
        <ele>261</ele>
        <time>2021-05-15T07:34:02.000Z</time>
      </trkpt>
      <trkpt lat="49.77707" lon="4.79904">
        <ele>261</ele>
        <time>2021-05-15T07:34:03.000Z</time>
      </trkpt>
      <trkpt lat="49.77715" lon="4.79895">
        <ele>260</ele>
        <time>2021-05-15T07:34:04.000Z</time>
      </trkpt>
      <trkpt lat="49.77724" lon="4.79888">
        <ele>259</ele>
        <time>2021-05-15T07:34:05.000Z</time>
      </trkpt>
      <trkpt lat="49.77732" lon="4.79881">
        <ele>259</ele>
        <time>2021-05-15T07:34:06.000Z</time>
      </trkpt>
      <trkpt lat="49.77741" lon="4.79875">
        <ele>259</ele>
        <time>2021-05-15T07:34:07.000Z</time>
      </trkpt>
      <trkpt lat="49.77749" lon="4.79868">
        <ele>258</ele>
        <time>2021-05-15T07:34:08.000Z</time>
      </trkpt>
      <trkpt lat="49.77758" lon="4.79861">
        <ele>258</ele>
        <time>2021-05-15T07:34:09.000Z</time>
      </trkpt>
      <trkpt lat="49.77766" lon="4.79854">
        <ele>257</ele>
        <time>2021-05-15T07:34:10.000Z</time>
      </trkpt>
      <trkpt lat="49.77774" lon="4.79847">
        <ele>257</ele>
        <time>2021-05-15T07:34:11.000Z</time>
      </trkpt>
      <trkpt lat="49.77781" lon="4.79839">
        <ele>257</ele>
        <time>2021-05-15T07:34:12.000Z</time>
      </trkpt>
      <trkpt lat="49.77787" lon="4.79831">
        <ele>257</ele>
        <time>2021-05-15T07:34:13.000Z</time>
      </trkpt>
      <trkpt lat="49.77793" lon="4.79824">
        <ele>257</ele>
        <time>2021-05-15T07:34:14.000Z</time>
      </trkpt>
      <trkpt lat="49.778" lon="4.79817">
        <ele>256</ele>
        <time>2021-05-15T07:34:15.000Z</time>
      </trkpt>
      <trkpt lat="49.77806" lon="4.79812">
        <ele>256</ele>
        <time>2021-05-15T07:34:16.000Z</time>
      </trkpt>
      <trkpt lat="49.77813" lon="4.79808">
        <ele>256</ele>
        <time>2021-05-15T07:34:17.000Z</time>
      </trkpt>
      <trkpt lat="49.77819" lon="4.79805">
        <ele>256</ele>
        <time>2021-05-15T07:34:18.000Z</time>
      </trkpt>
      <trkpt lat="49.77825" lon="4.79802">
        <ele>256</ele>
        <time>2021-05-15T07:34:19.000Z</time>
      </trkpt>
      <trkpt lat="49.7783" lon="4.798">
        <ele>256</ele>
        <time>2021-05-15T07:34:20.000Z</time>
      </trkpt>
      <trkpt lat="49.77836" lon="4.79797">
        <ele>256</ele>
        <time>2021-05-15T07:34:21.000Z</time>
      </trkpt>
      <trkpt lat="49.77841" lon="4.79794">
        <ele>255</ele>
        <time>2021-05-15T07:34:22.000Z</time>
      </trkpt>
      <trkpt lat="49.77847" lon="4.79789">
        <ele>255</ele>
        <time>2021-05-15T07:34:23.000Z</time>
      </trkpt>
      <trkpt lat="49.77853" lon="4.79784">
        <ele>255</ele>
        <time>2021-05-15T07:34:24.000Z</time>
      </trkpt>
      <trkpt lat="49.7786" lon="4.79779">
        <ele>255</ele>
        <time>2021-05-15T07:34:25.000Z</time>
      </trkpt>
      <trkpt lat="49.77867" lon="4.79773">
        <ele>255</ele>
        <time>2021-05-15T07:34:26.000Z</time>
      </trkpt>
      <trkpt lat="49.77873" lon="4.79767">
        <ele>254</ele>
        <time>2021-05-15T07:34:27.000Z</time>
      </trkpt>
      <trkpt lat="49.7788" lon="4.79761">
        <ele>254</ele>
        <time>2021-05-15T07:34:28.000Z</time>
      </trkpt>
      <trkpt lat="49.77888" lon="4.79756">
        <ele>254</ele>
        <time>2021-05-15T07:34:29.000Z</time>
      </trkpt>
      <trkpt lat="49.77895" lon="4.7975">
        <ele>254</ele>
        <time>2021-05-15T07:34:30.000Z</time>
      </trkpt>
      <trkpt lat="49.77902" lon="4.79744">
        <ele>253</ele>
        <time>2021-05-15T07:34:31.000Z</time>
      </trkpt>
      <trkpt lat="49.7791" lon="4.79738">
        <ele>253</ele>
        <time>2021-05-15T07:34:32.000Z</time>
      </trkpt>
      <trkpt lat="49.77918" lon="4.79734">
        <ele>253</ele>
        <time>2021-05-15T07:34:33.000Z</time>
      </trkpt>
      <trkpt lat="49.77927" lon="4.7973">
        <ele>252</ele>
        <time>2021-05-15T07:34:34.000Z</time>
      </trkpt>
      <trkpt lat="49.77936" lon="4.79726">
        <ele>252</ele>
        <time>2021-05-15T07:34:35.000Z</time>
      </trkpt>
      <trkpt lat="49.77945" lon="4.79725">
        <ele>251</ele>
        <time>2021-05-15T07:34:36.000Z</time>
      </trkpt>
      <trkpt lat="49.77953" lon="4.79724">
        <ele>251</ele>
        <time>2021-05-15T07:34:37.000Z</time>
      </trkpt>
      <trkpt lat="49.77961" lon="4.79724">
        <ele>250</ele>
        <time>2021-05-15T07:34:38.000Z</time>
      </trkpt>
      <trkpt lat="49.77967" lon="4.79727">
        <ele>250</ele>
        <time>2021-05-15T07:34:39.000Z</time>
      </trkpt>
      <trkpt lat="49.77972" lon="4.79731">
        <ele>250</ele>
        <time>2021-05-15T07:34:40.000Z</time>
      </trkpt>
      <trkpt lat="49.77976" lon="4.79738">
        <ele>250</ele>
        <time>2021-05-15T07:34:41.000Z</time>
      </trkpt>
      <trkpt lat="49.77978" lon="4.79746">
        <ele>249</ele>
        <time>2021-05-15T07:34:42.000Z</time>
      </trkpt>
      <trkpt lat="49.7798" lon="4.79753">
        <ele>249</ele>
        <time>2021-05-15T07:34:43.000Z</time>
      </trkpt>
      <trkpt lat="49.77983" lon="4.79758">
        <ele>249</ele>
        <time>2021-05-15T07:34:44.000Z</time>
      </trkpt>
      <trkpt lat="49.77986" lon="4.79763">
        <ele>249</ele>
        <time>2021-05-15T07:34:45.000Z</time>
      </trkpt>
      <trkpt lat="49.77989" lon="4.79768">
        <ele>249</ele>
        <time>2021-05-15T07:34:46.000Z</time>
      </trkpt>
      <trkpt lat="49.77993" lon="4.79771">
        <ele>249</ele>
        <time>2021-05-15T07:34:47.000Z</time>
      </trkpt>
      <trkpt lat="49.77997" lon="4.79774">
        <ele>250</ele>
        <time>2021-05-15T07:34:48.000Z</time>
      </trkpt>
      <trkpt lat="49.78001" lon="4.79777">
        <ele>250</ele>
        <time>2021-05-15T07:34:49.000Z</time>
      </trkpt>
      <trkpt lat="49.78006" lon="4.79779">
        <ele>250</ele>
        <time>2021-05-15T07:34:50.000Z</time>
      </trkpt>
      <trkpt lat="49.78011" lon="4.7978">
        <ele>250</ele>
        <time>2021-05-15T07:34:51.000Z</time>
      </trkpt>
      <trkpt lat="49.78016" lon="4.79781">
        <ele>250</ele>
        <time>2021-05-15T07:34:52.000Z</time>
      </trkpt>
      <trkpt lat="49.78021" lon="4.79782">
        <ele>250</ele>
        <time>2021-05-15T07:34:53.000Z</time>
      </trkpt>
      <trkpt lat="49.78026" lon="4.79782">
        <ele>250</ele>
        <time>2021-05-15T07:34:54.000Z</time>
      </trkpt>
      <trkpt lat="49.78031" lon="4.79782">
        <ele>250</ele>
        <time>2021-05-15T07:34:55.000Z</time>
      </trkpt>
      <trkpt lat="49.78037" lon="4.79782">
        <ele>250</ele>
        <time>2021-05-15T07:34:56.000Z</time>
      </trkpt>
      <trkpt lat="49.78042" lon="4.79781">
        <ele>250</ele>
        <time>2021-05-15T07:34:57.000Z</time>
      </trkpt>
      <trkpt lat="49.78047" lon="4.7978">
        <ele>250</ele>
        <time>2021-05-15T07:34:58.000Z</time>
      </trkpt>
      <trkpt lat="49.78052" lon="4.7978">
        <ele>250</ele>
        <time>2021-05-15T07:34:59.000Z</time>
      </trkpt>
      <trkpt lat="49.78057" lon="4.7978">
        <ele>251</ele>
        <time>2021-05-15T07:35:00.000Z</time>
      </trkpt>
      <trkpt lat="49.78062" lon="4.79778">
        <ele>251</ele>
        <time>2021-05-15T07:35:01.000Z</time>
      </trkpt>
      <trkpt lat="49.78067" lon="4.79776">
        <ele>251</ele>
        <time>2021-05-15T07:35:02.000Z</time>
      </trkpt>
      <trkpt lat="49.78072" lon="4.79773">
        <ele>251</ele>
        <time>2021-05-15T07:35:03.000Z</time>
      </trkpt>
      <trkpt lat="49.78077" lon="4.79768">
        <ele>251</ele>
        <time>2021-05-15T07:35:04.000Z</time>
      </trkpt>
      <trkpt lat="49.78081" lon="4.79764">
        <ele>250</ele>
        <time>2021-05-15T07:35:05.000Z</time>
      </trkpt>
      <trkpt lat="49.78085" lon="4.7976">
        <ele>250</ele>
        <time>2021-05-15T07:35:06.000Z</time>
      </trkpt>
      <trkpt lat="49.78088" lon="4.79754">
        <ele>250</ele>
        <time>2021-05-15T07:35:07.000Z</time>
      </trkpt>
      <trkpt lat="49.78092" lon="4.79747">
        <ele>250</ele>
        <time>2021-05-15T07:35:08.000Z</time>
      </trkpt>
      <trkpt lat="49.78096" lon="4.7974">
        <ele>250</ele>
        <time>2021-05-15T07:35:09.000Z</time>
      </trkpt>
      <trkpt lat="49.781" lon="4.79734">
        <ele>250</ele>
        <time>2021-05-15T07:35:10.000Z</time>
      </trkpt>
      <trkpt lat="49.78104" lon="4.79728">
        <ele>250</ele>
        <time>2021-05-15T07:35:11.000Z</time>
      </trkpt>
      <trkpt lat="49.78107" lon="4.79721">
        <ele>250</ele>
        <time>2021-05-15T07:35:12.000Z</time>
      </trkpt>
      <trkpt lat="49.7811" lon="4.79715">
        <ele>251</ele>
        <time>2021-05-15T07:35:13.000Z</time>
      </trkpt>
      <trkpt lat="49.78113" lon="4.79709">
        <ele>251</ele>
        <time>2021-05-15T07:35:14.000Z</time>
      </trkpt>
      <trkpt lat="49.78117" lon="4.79704">
        <ele>251</ele>
        <time>2021-05-15T07:35:15.000Z</time>
      </trkpt>
      <trkpt lat="49.78122" lon="4.79699">
        <ele>251</ele>
        <time>2021-05-15T07:35:16.000Z</time>
      </trkpt>
      <trkpt lat="49.78127" lon="4.79696">
        <ele>251</ele>
        <time>2021-05-15T07:35:17.000Z</time>
      </trkpt>
      <trkpt lat="49.78132" lon="4.79693">
        <ele>252</ele>
        <time>2021-05-15T07:35:18.000Z</time>
      </trkpt>
      <trkpt lat="49.78137" lon="4.7969">
        <ele>252</ele>
        <time>2021-05-15T07:35:19.000Z</time>
      </trkpt>
      <trkpt lat="49.78142" lon="4.79687">
        <ele>252</ele>
        <time>2021-05-15T07:35:20.000Z</time>
      </trkpt>
      <trkpt lat="49.78147" lon="4.79684">
        <ele>252</ele>
        <time>2021-05-15T07:35:21.000Z</time>
      </trkpt>
      <trkpt lat="49.78152" lon="4.7968">
        <ele>252</ele>
        <time>2021-05-15T07:35:22.000Z</time>
      </trkpt>
      <trkpt lat="49.78157" lon="4.79676">
        <ele>253</ele>
        <time>2021-05-15T07:35:23.000Z</time>
      </trkpt>
      <trkpt lat="49.78162" lon="4.79672">
        <ele>253</ele>
        <time>2021-05-15T07:35:24.000Z</time>
      </trkpt>
      <trkpt lat="49.78167" lon="4.79668">
        <ele>253</ele>
        <time>2021-05-15T07:35:25.000Z</time>
      </trkpt>
      <trkpt lat="49.78171" lon="4.79663">
        <ele>253</ele>
        <time>2021-05-15T07:35:26.000Z</time>
      </trkpt>
      <trkpt lat="49.78176" lon="4.7966">
        <ele>253</ele>
        <time>2021-05-15T07:35:27.000Z</time>
      </trkpt>
      <trkpt lat="49.7818" lon="4.79656">
        <ele>253</ele>
        <time>2021-05-15T07:35:28.000Z</time>
      </trkpt>
      <trkpt lat="49.78184" lon="4.79652">
        <ele>253</ele>
        <time>2021-05-15T07:35:29.000Z</time>
      </trkpt>
      <trkpt lat="49.78189" lon="4.79648">
        <ele>253</ele>
        <time>2021-05-15T07:35:30.000Z</time>
      </trkpt>
      <trkpt lat="49.78194" lon="4.79645">
        <ele>253</ele>
        <time>2021-05-15T07:35:31.000Z</time>
      </trkpt>
      <trkpt lat="49.78199" lon="4.79641">
        <ele>253</ele>
        <time>2021-05-15T07:35:32.000Z</time>
      </trkpt>
      <trkpt lat="49.78204" lon="4.79637">
        <ele>253</ele>
        <time>2021-05-15T07:35:33.000Z</time>
      </trkpt>
      <trkpt lat="49.7821" lon="4.79633">
        <ele>253</ele>
        <time>2021-05-15T07:35:34.000Z</time>
      </trkpt>
      <trkpt lat="49.78215" lon="4.79628">
        <ele>253</ele>
        <time>2021-05-15T07:35:35.000Z</time>
      </trkpt>
      <trkpt lat="49.78221" lon="4.79624">
        <ele>253</ele>
        <time>2021-05-15T07:35:36.000Z</time>
      </trkpt>
      <trkpt lat="49.78227" lon="4.7962">
        <ele>253</ele>
        <time>2021-05-15T07:35:37.000Z</time>
      </trkpt>
      <trkpt lat="49.78233" lon="4.79616">
        <ele>252</ele>
        <time>2021-05-15T07:35:38.000Z</time>
      </trkpt>
      <trkpt lat="49.7824" lon="4.79612">
        <ele>252</ele>
        <time>2021-05-15T07:35:39.000Z</time>
      </trkpt>
      <trkpt lat="49.78248" lon="4.79608">
        <ele>252</ele>
        <time>2021-05-15T07:35:40.000Z</time>
      </trkpt>
      <trkpt lat="49.78256" lon="4.79605">
        <ele>251</ele>
        <time>2021-05-15T07:35:41.000Z</time>
      </trkpt>
      <trkpt lat="49.78263" lon="4.79602">
        <ele>251</ele>
        <time>2021-05-15T07:35:42.000Z</time>
      </trkpt>
      <trkpt lat="49.78271" lon="4.79599">
        <ele>251</ele>
        <time>2021-05-15T07:35:43.000Z</time>
      </trkpt>
      <trkpt lat="49.78279" lon="4.79597">
        <ele>250</ele>
        <time>2021-05-15T07:35:44.000Z</time>
      </trkpt>
      <trkpt lat="49.78287" lon="4.79595">
        <ele>250</ele>
        <time>2021-05-15T07:35:45.000Z</time>
      </trkpt>
      <trkpt lat="49.78295" lon="4.79594">
        <ele>250</ele>
        <time>2021-05-15T07:35:46.000Z</time>
      </trkpt>
      <trkpt lat="49.78303" lon="4.79593">
        <ele>249</ele>
        <time>2021-05-15T07:35:47.000Z</time>
      </trkpt>
      <trkpt lat="49.78311" lon="4.79596">
        <ele>249</ele>
        <time>2021-05-15T07:35:48.000Z</time>
      </trkpt>
      <trkpt lat="49.78318" lon="4.796">
        <ele>250</ele>
        <time>2021-05-15T07:35:49.000Z</time>
      </trkpt>
      <trkpt lat="49.78326" lon="4.79605">
        <ele>250</ele>
        <time>2021-05-15T07:35:50.000Z</time>
      </trkpt>
      <trkpt lat="49.78333" lon="4.79609">
        <ele>250</ele>
        <time>2021-05-15T07:35:51.000Z</time>
      </trkpt>
      <trkpt lat="49.7834" lon="4.79614">
        <ele>250</ele>
        <time>2021-05-15T07:35:52.000Z</time>
      </trkpt>
      <trkpt lat="49.78347" lon="4.79618">
        <ele>250</ele>
        <time>2021-05-15T07:35:53.000Z</time>
      </trkpt>
      <trkpt lat="49.78353" lon="4.79623">
        <ele>250</ele>
        <time>2021-05-15T07:35:54.000Z</time>
      </trkpt>
      <trkpt lat="49.7836" lon="4.79627">
        <ele>250</ele>
        <time>2021-05-15T07:35:55.000Z</time>
      </trkpt>
      <trkpt lat="49.78367" lon="4.79631">
        <ele>250</ele>
        <time>2021-05-15T07:35:56.000Z</time>
      </trkpt>
      <trkpt lat="49.78374" lon="4.79635">
        <ele>250</ele>
        <time>2021-05-15T07:35:57.000Z</time>
      </trkpt>
      <trkpt lat="49.7838" lon="4.79638">
        <ele>250</ele>
        <time>2021-05-15T07:35:58.000Z</time>
      </trkpt>
      <trkpt lat="49.78387" lon="4.79642">
        <ele>251</ele>
        <time>2021-05-15T07:35:59.000Z</time>
      </trkpt>
      <trkpt lat="49.78393" lon="4.79645">
        <ele>251</ele>
        <time>2021-05-15T07:36:00.000Z</time>
      </trkpt>
      <trkpt lat="49.784" lon="4.79648">
        <ele>251</ele>
        <time>2021-05-15T07:36:01.000Z</time>
      </trkpt>
      <trkpt lat="49.78406" lon="4.79651">
        <ele>251</ele>
        <time>2021-05-15T07:36:02.000Z</time>
      </trkpt>
      <trkpt lat="49.78413" lon="4.79654">
        <ele>251</ele>
        <time>2021-05-15T07:36:03.000Z</time>
      </trkpt>
      <trkpt lat="49.78419" lon="4.79657">
        <ele>252</ele>
        <time>2021-05-15T07:36:04.000Z</time>
      </trkpt>
      <trkpt lat="49.78425" lon="4.7966">
        <ele>252</ele>
        <time>2021-05-15T07:36:05.000Z</time>
      </trkpt>
      <trkpt lat="49.78431" lon="4.79662">
        <ele>252</ele>
        <time>2021-05-15T07:36:06.000Z</time>
      </trkpt>
      <trkpt lat="49.78437" lon="4.79665">
        <ele>252</ele>
        <time>2021-05-15T07:36:07.000Z</time>
      </trkpt>
      <trkpt lat="49.78443" lon="4.79667">
        <ele>252</ele>
        <time>2021-05-15T07:36:08.000Z</time>
      </trkpt>
      <trkpt lat="49.78448" lon="4.7967">
        <ele>253</ele>
        <time>2021-05-15T07:36:09.000Z</time>
      </trkpt>
      <trkpt lat="49.78454" lon="4.79672">
        <ele>253</ele>
        <time>2021-05-15T07:36:10.000Z</time>
      </trkpt>
      <trkpt lat="49.7846" lon="4.79674">
        <ele>253</ele>
        <time>2021-05-15T07:36:11.000Z</time>
      </trkpt>
      <trkpt lat="49.78466" lon="4.79676">
        <ele>253</ele>
        <time>2021-05-15T07:36:12.000Z</time>
      </trkpt>
      <trkpt lat="49.78471" lon="4.79678">
        <ele>254</ele>
        <time>2021-05-15T07:36:13.000Z</time>
      </trkpt>
      <trkpt lat="49.78477" lon="4.7968">
        <ele>254</ele>
        <time>2021-05-15T07:36:14.000Z</time>
      </trkpt>
      <trkpt lat="49.78483" lon="4.79683">
        <ele>254</ele>
        <time>2021-05-15T07:36:15.000Z</time>
      </trkpt>
      <trkpt lat="49.78488" lon="4.79685">
        <ele>255</ele>
        <time>2021-05-15T07:36:16.000Z</time>
      </trkpt>
      <trkpt lat="49.78494" lon="4.79687">
        <ele>255</ele>
        <time>2021-05-15T07:36:17.000Z</time>
      </trkpt>
      <trkpt lat="49.78499" lon="4.79689">
        <ele>255</ele>
        <time>2021-05-15T07:36:18.000Z</time>
      </trkpt>
      <trkpt lat="49.78505" lon="4.79692">
        <ele>255</ele>
        <time>2021-05-15T07:36:19.000Z</time>
      </trkpt>
      <trkpt lat="49.7851" lon="4.79694">
        <ele>256</ele>
        <time>2021-05-15T07:36:20.000Z</time>
      </trkpt>
      <trkpt lat="49.78515" lon="4.79696">
        <ele>256</ele>
        <time>2021-05-15T07:36:21.000Z</time>
      </trkpt>
      <trkpt lat="49.78521" lon="4.79698">
        <ele>256</ele>
        <time>2021-05-15T07:36:22.000Z</time>
      </trkpt>
      <trkpt lat="49.78526" lon="4.79699">
        <ele>257</ele>
        <time>2021-05-15T07:36:23.000Z</time>
      </trkpt>
      <trkpt lat="49.78531" lon="4.79701">
        <ele>257</ele>
        <time>2021-05-15T07:36:24.000Z</time>
      </trkpt>
      <trkpt lat="49.78536" lon="4.79703">
        <ele>257</ele>
        <time>2021-05-15T07:36:25.000Z</time>
      </trkpt>
      <trkpt lat="49.78541" lon="4.79704">
        <ele>257</ele>
        <time>2021-05-15T07:36:26.000Z</time>
      </trkpt>
      <trkpt lat="49.78546" lon="4.79706">
        <ele>258</ele>
        <time>2021-05-15T07:36:27.000Z</time>
      </trkpt>
      <trkpt lat="49.78551" lon="4.79707">
        <ele>258</ele>
        <time>2021-05-15T07:36:28.000Z</time>
      </trkpt>
      <trkpt lat="49.78556" lon="4.79709">
        <ele>258</ele>
        <time>2021-05-15T07:36:29.000Z</time>
      </trkpt>
      <trkpt lat="49.78561" lon="4.79711">
        <ele>258</ele>
        <time>2021-05-15T07:36:30.000Z</time>
      </trkpt>
      <trkpt lat="49.78566" lon="4.79713">
        <ele>258</ele>
        <time>2021-05-15T07:36:31.000Z</time>
      </trkpt>
      <trkpt lat="49.78571" lon="4.79715">
        <ele>259</ele>
        <time>2021-05-15T07:36:32.000Z</time>
      </trkpt>
      <trkpt lat="49.78576" lon="4.79717">
        <ele>259</ele>
        <time>2021-05-15T07:36:33.000Z</time>
      </trkpt>
      <trkpt lat="49.78582" lon="4.79719">
        <ele>259</ele>
        <time>2021-05-15T07:36:34.000Z</time>
      </trkpt>
      <trkpt lat="49.78587" lon="4.79721">
        <ele>260</ele>
        <time>2021-05-15T07:36:35.000Z</time>
      </trkpt>
      <trkpt lat="49.78592" lon="4.79723">
        <ele>260</ele>
        <time>2021-05-15T07:36:36.000Z</time>
      </trkpt>
      <trkpt lat="49.78598" lon="4.79725">
        <ele>260</ele>
        <time>2021-05-15T07:36:37.000Z</time>
      </trkpt>
      <trkpt lat="49.78603" lon="4.79727">
        <ele>260</ele>
        <time>2021-05-15T07:36:38.000Z</time>
      </trkpt>
      <trkpt lat="49.78609" lon="4.79729">
        <ele>260</ele>
        <time>2021-05-15T07:36:39.000Z</time>
      </trkpt>
      <trkpt lat="49.78614" lon="4.79731">
        <ele>261</ele>
        <time>2021-05-15T07:36:40.000Z</time>
      </trkpt>
      <trkpt lat="49.7862" lon="4.79733">
        <ele>261</ele>
        <time>2021-05-15T07:36:41.000Z</time>
      </trkpt>
      <trkpt lat="49.78625" lon="4.79735">
        <ele>261</ele>
        <time>2021-05-15T07:36:42.000Z</time>
      </trkpt>
      <trkpt lat="49.78631" lon="4.79737">
        <ele>261</ele>
        <time>2021-05-15T07:36:43.000Z</time>
      </trkpt>
      <trkpt lat="49.78636" lon="4.79739">
        <ele>261</ele>
        <time>2021-05-15T07:36:44.000Z</time>
      </trkpt>
      <trkpt lat="49.78642" lon="4.79741">
        <ele>261</ele>
        <time>2021-05-15T07:36:45.000Z</time>
      </trkpt>
      <trkpt lat="49.78647" lon="4.79743">
        <ele>262</ele>
        <time>2021-05-15T07:36:46.000Z</time>
      </trkpt>
      <trkpt lat="49.78653" lon="4.79745">
        <ele>262</ele>
        <time>2021-05-15T07:36:47.000Z</time>
      </trkpt>
      <trkpt lat="49.78658" lon="4.79747">
        <ele>262</ele>
        <time>2021-05-15T07:36:48.000Z</time>
      </trkpt>
      <trkpt lat="49.78664" lon="4.79749">
        <ele>262</ele>
        <time>2021-05-15T07:36:49.000Z</time>
      </trkpt>
      <trkpt lat="49.78669" lon="4.79751">
        <ele>262</ele>
        <time>2021-05-15T07:36:50.000Z</time>
      </trkpt>
      <trkpt lat="49.78675" lon="4.79753">
        <ele>262</ele>
        <time>2021-05-15T07:36:51.000Z</time>
      </trkpt>
      <trkpt lat="49.7868" lon="4.79755">
        <ele>262</ele>
        <time>2021-05-15T07:36:52.000Z</time>
      </trkpt>
      <trkpt lat="49.78686" lon="4.79757">
        <ele>263</ele>
        <time>2021-05-15T07:36:53.000Z</time>
      </trkpt>
      <trkpt lat="49.78691" lon="4.79759">
        <ele>263</ele>
        <time>2021-05-15T07:36:54.000Z</time>
      </trkpt>
      <trkpt lat="49.78696" lon="4.7976">
        <ele>263</ele>
        <time>2021-05-15T07:36:55.000Z</time>
      </trkpt>
      <trkpt lat="49.78701" lon="4.79762">
        <ele>263</ele>
        <time>2021-05-15T07:36:56.000Z</time>
      </trkpt>
      <trkpt lat="49.78707" lon="4.79764">
        <ele>263</ele>
        <time>2021-05-15T07:36:57.000Z</time>
      </trkpt>
      <trkpt lat="49.78712" lon="4.79766">
        <ele>263</ele>
        <time>2021-05-15T07:36:58.000Z</time>
      </trkpt>
      <trkpt lat="49.78718" lon="4.79768">
        <ele>263</ele>
        <time>2021-05-15T07:36:59.000Z</time>
      </trkpt>
      <trkpt lat="49.78724" lon="4.79771">
        <ele>263</ele>
        <time>2021-05-15T07:37:00.000Z</time>
      </trkpt>
      <trkpt lat="49.7873" lon="4.79773">
        <ele>263</ele>
        <time>2021-05-15T07:37:01.000Z</time>
      </trkpt>
      <trkpt lat="49.78736" lon="4.79775">
        <ele>264</ele>
        <time>2021-05-15T07:37:02.000Z</time>
      </trkpt>
      <trkpt lat="49.78742" lon="4.79777">
        <ele>264</ele>
        <time>2021-05-15T07:37:03.000Z</time>
      </trkpt>
      <trkpt lat="49.78748" lon="4.7978">
        <ele>264</ele>
        <time>2021-05-15T07:37:04.000Z</time>
      </trkpt>
      <trkpt lat="49.78754" lon="4.79782">
        <ele>264</ele>
        <time>2021-05-15T07:37:05.000Z</time>
      </trkpt>
      <trkpt lat="49.7876" lon="4.79785">
        <ele>264</ele>
        <time>2021-05-15T07:37:06.000Z</time>
      </trkpt>
      <trkpt lat="49.78766" lon="4.79787">
        <ele>264</ele>
        <time>2021-05-15T07:37:07.000Z</time>
      </trkpt>
      <trkpt lat="49.78772" lon="4.7979">
        <ele>264</ele>
        <time>2021-05-15T07:37:08.000Z</time>
      </trkpt>
      <trkpt lat="49.78778" lon="4.79793">
        <ele>265</ele>
        <time>2021-05-15T07:37:09.000Z</time>
      </trkpt>
      <trkpt lat="49.78785" lon="4.79795">
        <ele>265</ele>
        <time>2021-05-15T07:37:10.000Z</time>
      </trkpt>
      <trkpt lat="49.78791" lon="4.79798">
        <ele>265</ele>
        <time>2021-05-15T07:37:11.000Z</time>
      </trkpt>
      <trkpt lat="49.78798" lon="4.79801">
        <ele>265</ele>
        <time>2021-05-15T07:37:12.000Z</time>
      </trkpt>
      <trkpt lat="49.78804" lon="4.79804">
        <ele>265</ele>
        <time>2021-05-15T07:37:13.000Z</time>
      </trkpt>
      <trkpt lat="49.78811" lon="4.79808">
        <ele>265</ele>
        <time>2021-05-15T07:37:14.000Z</time>
      </trkpt>
      <trkpt lat="49.78817" lon="4.79811">
        <ele>265</ele>
        <time>2021-05-15T07:37:15.000Z</time>
      </trkpt>
      <trkpt lat="49.78824" lon="4.79815">
        <ele>265</ele>
        <time>2021-05-15T07:37:16.000Z</time>
      </trkpt>
      <trkpt lat="49.7883" lon="4.79818">
        <ele>265</ele>
        <time>2021-05-15T07:37:17.000Z</time>
      </trkpt>
      <trkpt lat="49.78837" lon="4.79822">
        <ele>265</ele>
        <time>2021-05-15T07:37:18.000Z</time>
      </trkpt>
      <trkpt lat="49.78843" lon="4.79826">
        <ele>265</ele>
        <time>2021-05-15T07:37:19.000Z</time>
      </trkpt>
      <trkpt lat="49.7885" lon="4.7983">
        <ele>265</ele>
        <time>2021-05-15T07:37:20.000Z</time>
      </trkpt>
      <trkpt lat="49.78856" lon="4.79834">
        <ele>265</ele>
        <time>2021-05-15T07:37:21.000Z</time>
      </trkpt>
      <trkpt lat="49.78863" lon="4.79839">
        <ele>265</ele>
        <time>2021-05-15T07:37:22.000Z</time>
      </trkpt>
      <trkpt lat="49.78869" lon="4.79843">
        <ele>265</ele>
        <time>2021-05-15T07:37:23.000Z</time>
      </trkpt>
      <trkpt lat="49.78876" lon="4.79848">
        <ele>265</ele>
        <time>2021-05-15T07:37:24.000Z</time>
      </trkpt>
      <trkpt lat="49.78882" lon="4.79852">
        <ele>265</ele>
        <time>2021-05-15T07:37:25.000Z</time>
      </trkpt>
      <trkpt lat="49.78889" lon="4.79857">
        <ele>265</ele>
        <time>2021-05-15T07:37:26.000Z</time>
      </trkpt>
      <trkpt lat="49.78895" lon="4.79862">
        <ele>265</ele>
        <time>2021-05-15T07:37:27.000Z</time>
      </trkpt>
      <trkpt lat="49.78901" lon="4.79867">
        <ele>265</ele>
        <time>2021-05-15T07:37:28.000Z</time>
      </trkpt>
      <trkpt lat="49.78908" lon="4.79872">
        <ele>265</ele>
        <time>2021-05-15T07:37:29.000Z</time>
      </trkpt>
      <trkpt lat="49.78914" lon="4.79877">
        <ele>265</ele>
        <time>2021-05-15T07:37:30.000Z</time>
      </trkpt>
      <trkpt lat="49.78921" lon="4.79882">
        <ele>265</ele>
        <time>2021-05-15T07:37:31.000Z</time>
      </trkpt>
      <trkpt lat="49.78927" lon="4.79887">
        <ele>265</ele>
        <time>2021-05-15T07:37:32.000Z</time>
      </trkpt>
      <trkpt lat="49.78933" lon="4.79892">
        <ele>265</ele>
        <time>2021-05-15T07:37:33.000Z</time>
      </trkpt>
      <trkpt lat="49.7894" lon="4.79898">
        <ele>265</ele>
        <time>2021-05-15T07:37:34.000Z</time>
      </trkpt>
      <trkpt lat="49.78946" lon="4.79903">
        <ele>265</ele>
        <time>2021-05-15T07:37:35.000Z</time>
      </trkpt>
      <trkpt lat="49.78953" lon="4.79909">
        <ele>264</ele>
        <time>2021-05-15T07:37:36.000Z</time>
      </trkpt>
      <trkpt lat="49.78959" lon="4.79915">
        <ele>264</ele>
        <time>2021-05-15T07:37:37.000Z</time>
      </trkpt>
      <trkpt lat="49.78966" lon="4.79921">
        <ele>264</ele>
        <time>2021-05-15T07:37:38.000Z</time>
      </trkpt>
      <trkpt lat="49.78972" lon="4.79926">
        <ele>264</ele>
        <time>2021-05-15T07:37:39.000Z</time>
      </trkpt>
      <trkpt lat="49.78979" lon="4.79932">
        <ele>264</ele>
        <time>2021-05-15T07:37:40.000Z</time>
      </trkpt>
      <trkpt lat="49.78985" lon="4.79938">
        <ele>264</ele>
        <time>2021-05-15T07:37:41.000Z</time>
      </trkpt>
      <trkpt lat="49.78992" lon="4.79944">
        <ele>264</ele>
        <time>2021-05-15T07:37:42.000Z</time>
      </trkpt>
      <trkpt lat="49.78998" lon="4.7995">
        <ele>264</ele>
        <time>2021-05-15T07:37:43.000Z</time>
      </trkpt>
      <trkpt lat="49.79005" lon="4.79956">
        <ele>264</ele>
        <time>2021-05-15T07:37:44.000Z</time>
      </trkpt>
      <trkpt lat="49.79012" lon="4.79962">
        <ele>264</ele>
        <time>2021-05-15T07:37:45.000Z</time>
      </trkpt>
      <trkpt lat="49.79019" lon="4.79968">
        <ele>264</ele>
        <time>2021-05-15T07:37:46.000Z</time>
      </trkpt>
      <trkpt lat="49.79025" lon="4.79974">
        <ele>263</ele>
        <time>2021-05-15T07:37:47.000Z</time>
      </trkpt>
      <trkpt lat="49.79032" lon="4.79981">
        <ele>263</ele>
        <time>2021-05-15T07:37:48.000Z</time>
      </trkpt>
      <trkpt lat="49.79039" lon="4.79987">
        <ele>263</ele>
        <time>2021-05-15T07:37:49.000Z</time>
      </trkpt>
      <trkpt lat="49.79046" lon="4.79994">
        <ele>263</ele>
        <time>2021-05-15T07:37:50.000Z</time>
      </trkpt>
      <trkpt lat="49.79053" lon="4.8">
        <ele>263</ele>
        <time>2021-05-15T07:37:51.000Z</time>
      </trkpt>
      <trkpt lat="49.79059" lon="4.80006">
        <ele>263</ele>
        <time>2021-05-15T07:37:52.000Z</time>
      </trkpt>
      <trkpt lat="49.79066" lon="4.80012">
        <ele>263</ele>
        <time>2021-05-15T07:37:53.000Z</time>
      </trkpt>
      <trkpt lat="49.79073" lon="4.80018">
        <ele>263</ele>
        <time>2021-05-15T07:37:54.000Z</time>
      </trkpt>
      <trkpt lat="49.7908" lon="4.80024">
        <ele>263</ele>
        <time>2021-05-15T07:37:55.000Z</time>
      </trkpt>
      <trkpt lat="49.79086" lon="4.8003">
        <ele>263</ele>
        <time>2021-05-15T07:37:56.000Z</time>
      </trkpt>
      <trkpt lat="49.79093" lon="4.80036">
        <ele>263</ele>
        <time>2021-05-15T07:37:57.000Z</time>
      </trkpt>
      <trkpt lat="49.791" lon="4.80042">
        <ele>263</ele>
        <time>2021-05-15T07:37:58.000Z</time>
      </trkpt>
      <trkpt lat="49.79107" lon="4.80048">
        <ele>263</ele>
        <time>2021-05-15T07:37:59.000Z</time>
      </trkpt>
      <trkpt lat="49.79112" lon="4.80053">
        <ele>263</ele>
        <time>2021-05-15T07:38:00.000Z</time>
      </trkpt>
      <trkpt lat="49.79116" lon="4.80057">
        <ele>263</ele>
        <time>2021-05-15T07:38:01.000Z</time>
      </trkpt>
      <trkpt lat="49.7912" lon="4.8006">
        <ele>264</ele>
        <time>2021-05-15T07:38:02.000Z</time>
      </trkpt>
      <trkpt lat="49.79124" lon="4.80063">
        <ele>264</ele>
        <time>2021-05-15T07:38:03.000Z</time>
      </trkpt>
      <trkpt lat="49.79127" lon="4.80063">
        <ele>264</ele>
        <time>2021-05-15T07:38:04.000Z</time>
      </trkpt>
      <trkpt lat="49.79131" lon="4.80064">
        <ele>264</ele>
        <time>2021-05-15T07:38:05.000Z</time>
      </trkpt>
      <trkpt lat="49.79137" lon="4.80066">
        <ele>264</ele>
        <time>2021-05-15T07:38:06.000Z</time>
      </trkpt>
      <trkpt lat="49.79142" lon="4.80069">
        <ele>264</ele>
        <time>2021-05-15T07:38:07.000Z</time>
      </trkpt>
      <trkpt lat="49.79147" lon="4.8007">
        <ele>264</ele>
        <time>2021-05-15T07:38:08.000Z</time>
      </trkpt>
      <trkpt lat="49.79151" lon="4.8007">
        <ele>264</ele>
        <time>2021-05-15T07:38:09.000Z</time>
      </trkpt>
      <trkpt lat="49.79157" lon="4.80071">
        <ele>264</ele>
        <time>2021-05-15T07:38:10.000Z</time>
      </trkpt>
      <trkpt lat="49.79162" lon="4.8007">
        <ele>264</ele>
        <time>2021-05-15T07:38:11.000Z</time>
      </trkpt>
      <trkpt lat="49.79167" lon="4.80067">
        <ele>264</ele>
        <time>2021-05-15T07:38:12.000Z</time>
      </trkpt>
      <trkpt lat="49.79172" lon="4.80065">
        <ele>264</ele>
        <time>2021-05-15T07:38:13.000Z</time>
      </trkpt>
      <trkpt lat="49.79177" lon="4.80064">
        <ele>264</ele>
        <time>2021-05-15T07:38:14.000Z</time>
      </trkpt>
      <trkpt lat="49.79182" lon="4.80063">
        <ele>265</ele>
        <time>2021-05-15T07:38:15.000Z</time>
      </trkpt>
      <trkpt lat="49.79187" lon="4.80062">
        <ele>265</ele>
        <time>2021-05-15T07:38:16.000Z</time>
      </trkpt>
      <trkpt lat="49.79192" lon="4.80061">
        <ele>265</ele>
        <time>2021-05-15T07:38:17.000Z</time>
      </trkpt>
      <trkpt lat="49.79196" lon="4.80059">
        <ele>265</ele>
        <time>2021-05-15T07:38:18.000Z</time>
      </trkpt>
      <trkpt lat="49.792" lon="4.80058">
        <ele>265</ele>
        <time>2021-05-15T07:38:19.000Z</time>
      </trkpt>
      <trkpt lat="49.79205" lon="4.80057">
        <ele>265</ele>
        <time>2021-05-15T07:38:20.000Z</time>
      </trkpt>
      <trkpt lat="49.79208" lon="4.80056">
        <ele>265</ele>
        <time>2021-05-15T07:38:21.000Z</time>
      </trkpt>
      <trkpt lat="49.79211" lon="4.80056">
        <ele>265</ele>
        <time>2021-05-15T07:38:22.000Z</time>
      </trkpt>
      <trkpt lat="49.79215" lon="4.80055">
        <ele>266</ele>
        <time>2021-05-15T07:38:23.000Z</time>
      </trkpt>
      <trkpt lat="49.79219" lon="4.80054">
        <ele>266</ele>
        <time>2021-05-15T07:38:24.000Z</time>
      </trkpt>
      <trkpt lat="49.79222" lon="4.80053">
        <ele>266</ele>
        <time>2021-05-15T07:38:25.000Z</time>
      </trkpt>
      <trkpt lat="49.79225" lon="4.80053">
        <ele>266</ele>
        <time>2021-05-15T07:38:26.000Z</time>
      </trkpt>
      <trkpt lat="49.79228" lon="4.80052">
        <ele>266</ele>
        <time>2021-05-15T07:38:27.000Z</time>
      </trkpt>
      <trkpt lat="49.79231" lon="4.80051">
        <ele>266</ele>
        <time>2021-05-15T07:38:28.000Z</time>
      </trkpt>
      <trkpt lat="49.79233" lon="4.8005">
        <ele>267</ele>
        <time>2021-05-15T07:38:29.000Z</time>
      </trkpt>
      <trkpt lat="49.79236" lon="4.80049">
        <ele>267</ele>
        <time>2021-05-15T07:38:30.000Z</time>
      </trkpt>
      <trkpt lat="49.7924" lon="4.80048">
        <ele>267</ele>
        <time>2021-05-15T07:38:31.000Z</time>
      </trkpt>
      <trkpt lat="49.79244" lon="4.80047">
        <ele>267</ele>
        <time>2021-05-15T07:38:32.000Z</time>
      </trkpt>
      <trkpt lat="49.79248" lon="4.80046">
        <ele>267</ele>
        <time>2021-05-15T07:38:33.000Z</time>
      </trkpt>
      <trkpt lat="49.7925" lon="4.80044">
        <ele>268</ele>
        <time>2021-05-15T07:38:34.000Z</time>
      </trkpt>
      <trkpt lat="49.79253" lon="4.80043">
        <ele>268</ele>
        <time>2021-05-15T07:38:35.000Z</time>
      </trkpt>
      <trkpt lat="49.79256" lon="4.80041">
        <ele>268</ele>
        <time>2021-05-15T07:38:36.000Z</time>
      </trkpt>
      <trkpt lat="49.7926" lon="4.8004">
        <ele>268</ele>
        <time>2021-05-15T07:38:37.000Z</time>
      </trkpt>
      <trkpt lat="49.79264" lon="4.80039">
        <ele>269</ele>
        <time>2021-05-15T07:38:38.000Z</time>
      </trkpt>
      <trkpt lat="49.79267" lon="4.80038">
        <ele>269</ele>
        <time>2021-05-15T07:38:39.000Z</time>
      </trkpt>
      <trkpt lat="49.79271" lon="4.80038">
        <ele>269</ele>
        <time>2021-05-15T07:38:40.000Z</time>
      </trkpt>
      <trkpt lat="49.79275" lon="4.80037">
        <ele>269</ele>
        <time>2021-05-15T07:38:41.000Z</time>
      </trkpt>
      <trkpt lat="49.79278" lon="4.80036">
        <ele>270</ele>
        <time>2021-05-15T07:38:42.000Z</time>
      </trkpt>
      <trkpt lat="49.7928" lon="4.80037">
        <ele>270</ele>
        <time>2021-05-15T07:38:43.000Z</time>
      </trkpt>
      <trkpt lat="49.79283" lon="4.80037">
        <ele>270</ele>
        <time>2021-05-15T07:38:44.000Z</time>
      </trkpt>
      <trkpt lat="49.79285" lon="4.80036">
        <ele>271</ele>
        <time>2021-05-15T07:38:45.000Z</time>
      </trkpt>
      <trkpt lat="49.79288" lon="4.80036">
        <ele>271</ele>
        <time>2021-05-15T07:38:46.000Z</time>
      </trkpt>
      <trkpt lat="49.79291" lon="4.80035">
        <ele>271</ele>
        <time>2021-05-15T07:38:47.000Z</time>
      </trkpt>
      <trkpt lat="49.79295" lon="4.80034">
        <ele>272</ele>
        <time>2021-05-15T07:38:48.000Z</time>
      </trkpt>
      <trkpt lat="49.79298" lon="4.80032">
        <ele>272</ele>
        <time>2021-05-15T07:38:49.000Z</time>
      </trkpt>
      <trkpt lat="49.793" lon="4.80029">
        <ele>272</ele>
        <time>2021-05-15T07:38:50.000Z</time>
      </trkpt>
      <trkpt lat="49.79302" lon="4.80025">
        <ele>273</ele>
        <time>2021-05-15T07:38:51.000Z</time>
      </trkpt>
      <trkpt lat="49.79305" lon="4.8002">
        <ele>273</ele>
        <time>2021-05-15T07:38:52.000Z</time>
      </trkpt>
      <trkpt lat="49.79308" lon="4.80016">
        <ele>273</ele>
        <time>2021-05-15T07:38:53.000Z</time>
      </trkpt>
      <trkpt lat="49.79311" lon="4.80011">
        <ele>273</ele>
        <time>2021-05-15T07:38:54.000Z</time>
      </trkpt>
      <trkpt lat="49.79314" lon="4.80005">
        <ele>274</ele>
        <time>2021-05-15T07:38:55.000Z</time>
      </trkpt>
      <trkpt lat="49.79317" lon="4.79999">
        <ele>274</ele>
        <time>2021-05-15T07:38:56.000Z</time>
      </trkpt>
      <trkpt lat="49.7932" lon="4.79994">
        <ele>274</ele>
        <time>2021-05-15T07:38:57.000Z</time>
      </trkpt>
      <trkpt lat="49.79323" lon="4.79987">
        <ele>274</ele>
        <time>2021-05-15T07:38:58.000Z</time>
      </trkpt>
      <trkpt lat="49.79326" lon="4.79981">
        <ele>274</ele>
        <time>2021-05-15T07:38:59.000Z</time>
      </trkpt>
      <trkpt lat="49.79329" lon="4.79976">
        <ele>275</ele>
        <time>2021-05-15T07:39:00.000Z</time>
      </trkpt>
      <trkpt lat="49.79332" lon="4.7997">
        <ele>275</ele>
        <time>2021-05-15T07:39:01.000Z</time>
      </trkpt>
      <trkpt lat="49.79334" lon="4.79965">
        <ele>275</ele>
        <time>2021-05-15T07:39:02.000Z</time>
      </trkpt>
      <trkpt lat="49.79336" lon="4.7996">
        <ele>275</ele>
        <time>2021-05-15T07:39:03.000Z</time>
      </trkpt>
      <trkpt lat="49.79339" lon="4.79954">
        <ele>275</ele>
        <time>2021-05-15T07:39:04.000Z</time>
      </trkpt>
      <trkpt lat="49.79341" lon="4.79949">
        <ele>275</ele>
        <time>2021-05-15T07:39:05.000Z</time>
      </trkpt>
      <trkpt lat="49.79343" lon="4.79943">
        <ele>275</ele>
        <time>2021-05-15T07:39:06.000Z</time>
      </trkpt>
      <trkpt lat="49.79345" lon="4.79938">
        <ele>276</ele>
        <time>2021-05-15T07:39:07.000Z</time>
      </trkpt>
      <trkpt lat="49.79347" lon="4.79934">
        <ele>276</ele>
        <time>2021-05-15T07:39:08.000Z</time>
      </trkpt>
      <trkpt lat="49.79351" lon="4.79929">
        <ele>276</ele>
        <time>2021-05-15T07:39:09.000Z</time>
      </trkpt>
      <trkpt lat="49.79354" lon="4.79924">
        <ele>276</ele>
        <time>2021-05-15T07:39:10.000Z</time>
      </trkpt>
      <trkpt lat="49.79356" lon="4.79918">
        <ele>276</ele>
        <time>2021-05-15T07:39:11.000Z</time>
      </trkpt>
      <trkpt lat="49.79359" lon="4.79914">
        <ele>276</ele>
        <time>2021-05-15T07:39:12.000Z</time>
      </trkpt>
      <trkpt lat="49.7936" lon="4.7991">
        <ele>276</ele>
        <time>2021-05-15T07:39:13.000Z</time>
      </trkpt>
      <trkpt lat="49.79362" lon="4.79906">
        <ele>276</ele>
        <time>2021-05-15T07:39:14.000Z</time>
      </trkpt>
      <trkpt lat="49.79364" lon="4.79901">
        <ele>277</ele>
        <time>2021-05-15T07:39:15.000Z</time>
      </trkpt>
      <trkpt lat="49.79367" lon="4.79897">
        <ele>277</ele>
        <time>2021-05-15T07:39:16.000Z</time>
      </trkpt>
      <trkpt lat="49.7937" lon="4.79893">
        <ele>277</ele>
        <time>2021-05-15T07:39:17.000Z</time>
      </trkpt>
      <trkpt lat="49.79372" lon="4.79889">
        <ele>277</ele>
        <time>2021-05-15T07:39:18.000Z</time>
      </trkpt>
      <trkpt lat="49.79374" lon="4.79885">
        <ele>277</ele>
        <time>2021-05-15T07:39:19.000Z</time>
      </trkpt>
      <trkpt lat="49.79376" lon="4.79881">
        <ele>278</ele>
        <time>2021-05-15T07:39:20.000Z</time>
      </trkpt>
      <trkpt lat="49.79377" lon="4.79877">
        <ele>278</ele>
        <time>2021-05-15T07:39:21.000Z</time>
      </trkpt>
      <trkpt lat="49.79378" lon="4.79873">
        <ele>278</ele>
        <time>2021-05-15T07:39:22.000Z</time>
      </trkpt>
      <trkpt lat="49.7938" lon="4.79868">
        <ele>278</ele>
        <time>2021-05-15T07:39:23.000Z</time>
      </trkpt>
      <trkpt lat="49.79381" lon="4.79863">
        <ele>278</ele>
        <time>2021-05-15T07:39:24.000Z</time>
      </trkpt>
      <trkpt lat="49.79382" lon="4.79859">
        <ele>279</ele>
        <time>2021-05-15T07:39:25.000Z</time>
      </trkpt>
      <trkpt lat="49.79384" lon="4.79854">
        <ele>279</ele>
        <time>2021-05-15T07:39:26.000Z</time>
      </trkpt>
      <trkpt lat="49.79386" lon="4.7985">
        <ele>279</ele>
        <time>2021-05-15T07:39:27.000Z</time>
      </trkpt>
      <trkpt lat="49.79388" lon="4.79847">
        <ele>279</ele>
        <time>2021-05-15T07:39:28.000Z</time>
      </trkpt>
      <trkpt lat="49.7939" lon="4.79847">
        <ele>279</ele>
        <time>2021-05-15T07:39:29.000Z</time>
      </trkpt>
      <trkpt lat="49.79393" lon="4.79846">
        <ele>280</ele>
        <time>2021-05-15T07:39:30.000Z</time>
      </trkpt>
      <trkpt lat="49.79395" lon="4.79846">
        <ele>280</ele>
        <time>2021-05-15T07:39:31.000Z</time>
      </trkpt>
      <trkpt lat="49.79397" lon="4.79845">
        <ele>280</ele>
        <time>2021-05-15T07:39:32.000Z</time>
      </trkpt>
      <trkpt lat="49.79399" lon="4.79844">
        <ele>280</ele>
        <time>2021-05-15T07:39:33.000Z</time>
      </trkpt>
      <trkpt lat="49.79401" lon="4.79844">
        <ele>280</ele>
        <time>2021-05-15T07:39:34.000Z</time>
      </trkpt>
      <trkpt lat="49.79403" lon="4.79844">
        <ele>280</ele>
        <time>2021-05-15T07:39:35.000Z</time>
      </trkpt>
      <trkpt lat="49.79405" lon="4.79843">
        <ele>280</ele>
        <time>2021-05-15T07:39:36.000Z</time>
      </trkpt>
      <trkpt lat="49.79407" lon="4.79842">
        <ele>281</ele>
        <time>2021-05-15T07:39:37.000Z</time>
      </trkpt>
      <trkpt lat="49.79408" lon="4.79842">
        <ele>281</ele>
        <time>2021-05-15T07:39:38.000Z</time>
      </trkpt>
      <trkpt lat="49.7941" lon="4.79842">
        <ele>281</ele>
        <time>2021-05-15T07:39:39.000Z</time>
      </trkpt>
      <trkpt lat="49.79411" lon="4.79842">
        <ele>281</ele>
        <time>2021-05-15T07:39:40.000Z</time>
      </trkpt>
      <trkpt lat="49.79413" lon="4.79841">
        <ele>281</ele>
        <time>2021-05-15T07:39:41.000Z</time>
      </trkpt>
      <trkpt lat="49.79416" lon="4.79841">
        <ele>281</ele>
        <time>2021-05-15T07:39:42.000Z</time>
      </trkpt>
      <trkpt lat="49.79418" lon="4.7984">
        <ele>281</ele>
        <time>2021-05-15T07:39:43.000Z</time>
      </trkpt>
      <trkpt lat="49.79421" lon="4.79839">
        <ele>282</ele>
        <time>2021-05-15T07:39:44.000Z</time>
      </trkpt>
      <trkpt lat="49.79424" lon="4.79839">
        <ele>282</ele>
        <time>2021-05-15T07:39:45.000Z</time>
      </trkpt>
      <trkpt lat="49.79427" lon="4.79839">
        <ele>282</ele>
        <time>2021-05-15T07:39:46.000Z</time>
      </trkpt>
      <trkpt lat="49.79429" lon="4.79839">
        <ele>282</ele>
        <time>2021-05-15T07:39:47.000Z</time>
      </trkpt>
      <trkpt lat="49.79432" lon="4.79839">
        <ele>282</ele>
        <time>2021-05-15T07:39:48.000Z</time>
      </trkpt>
      <trkpt lat="49.79435" lon="4.79839">
        <ele>282</ele>
        <time>2021-05-15T07:39:49.000Z</time>
      </trkpt>
      <trkpt lat="49.79438" lon="4.79839">
        <ele>282</ele>
        <time>2021-05-15T07:39:50.000Z</time>
      </trkpt>
      <trkpt lat="49.79441" lon="4.79838">
        <ele>283</ele>
        <time>2021-05-15T07:39:51.000Z</time>
      </trkpt>
      <trkpt lat="49.79443" lon="4.79838">
        <ele>283</ele>
        <time>2021-05-15T07:39:52.000Z</time>
      </trkpt>
      <trkpt lat="49.79446" lon="4.79837">
        <ele>283</ele>
        <time>2021-05-15T07:39:53.000Z</time>
      </trkpt>
      <trkpt lat="49.79448" lon="4.79837">
        <ele>283</ele>
        <time>2021-05-15T07:39:54.000Z</time>
      </trkpt>
      <trkpt lat="49.79452" lon="4.79836">
        <ele>283</ele>
        <time>2021-05-15T07:39:55.000Z</time>
      </trkpt>
      <trkpt lat="49.79455" lon="4.79835">
        <ele>283</ele>
        <time>2021-05-15T07:39:56.000Z</time>
      </trkpt>
      <trkpt lat="49.79458" lon="4.79835">
        <ele>283</ele>
        <time>2021-05-15T07:39:57.000Z</time>
      </trkpt>
      <trkpt lat="49.7946" lon="4.79836">
        <ele>284</ele>
        <time>2021-05-15T07:39:58.000Z</time>
      </trkpt>
      <trkpt lat="49.79463" lon="4.79835">
        <ele>284</ele>
        <time>2021-05-15T07:39:59.000Z</time>
      </trkpt>
      <trkpt lat="49.79465" lon="4.79834">
        <ele>284</ele>
        <time>2021-05-15T07:40:00.000Z</time>
      </trkpt>
      <trkpt lat="49.79467" lon="4.79834">
        <ele>285</ele>
        <time>2021-05-15T07:40:01.000Z</time>
      </trkpt>
      <trkpt lat="49.79469" lon="4.79833">
        <ele>285</ele>
        <time>2021-05-15T07:40:02.000Z</time>
      </trkpt>
      <trkpt lat="49.79472" lon="4.79833">
        <ele>285</ele>
        <time>2021-05-15T07:40:03.000Z</time>
      </trkpt>
      <trkpt lat="49.79475" lon="4.79833">
        <ele>285</ele>
        <time>2021-05-15T07:40:04.000Z</time>
      </trkpt>
      <trkpt lat="49.79479" lon="4.79833">
        <ele>286</ele>
        <time>2021-05-15T07:40:05.000Z</time>
      </trkpt>
      <trkpt lat="49.79483" lon="4.79833">
        <ele>286</ele>
        <time>2021-05-15T07:40:06.000Z</time>
      </trkpt>
      <trkpt lat="49.79486" lon="4.79834">
        <ele>286</ele>
        <time>2021-05-15T07:40:07.000Z</time>
      </trkpt>
      <trkpt lat="49.79489" lon="4.79834">
        <ele>287</ele>
        <time>2021-05-15T07:40:08.000Z</time>
      </trkpt>
      <trkpt lat="49.79491" lon="4.79834">
        <ele>287</ele>
        <time>2021-05-15T07:40:09.000Z</time>
      </trkpt>
      <trkpt lat="49.79495" lon="4.79833">
        <ele>287</ele>
        <time>2021-05-15T07:40:10.000Z</time>
      </trkpt>
      <trkpt lat="49.79499" lon="4.79833">
        <ele>287</ele>
        <time>2021-05-15T07:40:11.000Z</time>
      </trkpt>
      <trkpt lat="49.79503" lon="4.79832">
        <ele>288</ele>
        <time>2021-05-15T07:40:12.000Z</time>
      </trkpt>
      <trkpt lat="49.79505" lon="4.79832">
        <ele>288</ele>
        <time>2021-05-15T07:40:13.000Z</time>
      </trkpt>
      <trkpt lat="49.79508" lon="4.79831">
        <ele>288</ele>
        <time>2021-05-15T07:40:14.000Z</time>
      </trkpt>
      <trkpt lat="49.79511" lon="4.7983">
        <ele>288</ele>
        <time>2021-05-15T07:40:15.000Z</time>
      </trkpt>
      <trkpt lat="49.79515" lon="4.7983">
        <ele>288</ele>
        <time>2021-05-15T07:40:16.000Z</time>
      </trkpt>
      <trkpt lat="49.79518" lon="4.7983">
        <ele>289</ele>
        <time>2021-05-15T07:40:17.000Z</time>
      </trkpt>
      <trkpt lat="49.79522" lon="4.7983">
        <ele>289</ele>
        <time>2021-05-15T07:40:18.000Z</time>
      </trkpt>
      <trkpt lat="49.79525" lon="4.79829">
        <ele>289</ele>
        <time>2021-05-15T07:40:19.000Z</time>
      </trkpt>
      <trkpt lat="49.79527" lon="4.79828">
        <ele>289</ele>
        <time>2021-05-15T07:40:20.000Z</time>
      </trkpt>
      <trkpt lat="49.7953" lon="4.79827">
        <ele>289</ele>
        <time>2021-05-15T07:40:21.000Z</time>
      </trkpt>
      <trkpt lat="49.79533" lon="4.79827">
        <ele>290</ele>
        <time>2021-05-15T07:40:22.000Z</time>
      </trkpt>
      <trkpt lat="49.79536" lon="4.79827">
        <ele>290</ele>
        <time>2021-05-15T07:40:23.000Z</time>
      </trkpt>
      <trkpt lat="49.79539" lon="4.79827">
        <ele>290</ele>
        <time>2021-05-15T07:40:24.000Z</time>
      </trkpt>
      <trkpt lat="49.79542" lon="4.79827">
        <ele>290</ele>
        <time>2021-05-15T07:40:25.000Z</time>
      </trkpt>
      <trkpt lat="49.79545" lon="4.79828">
        <ele>290</ele>
        <time>2021-05-15T07:40:26.000Z</time>
      </trkpt>
      <trkpt lat="49.79548" lon="4.79828">
        <ele>290</ele>
        <time>2021-05-15T07:40:27.000Z</time>
      </trkpt>
      <trkpt lat="49.79551" lon="4.79828">
        <ele>291</ele>
        <time>2021-05-15T07:40:28.000Z</time>
      </trkpt>
      <trkpt lat="49.79554" lon="4.79828">
        <ele>291</ele>
        <time>2021-05-15T07:40:29.000Z</time>
      </trkpt>
      <trkpt lat="49.79557" lon="4.79828">
        <ele>291</ele>
        <time>2021-05-15T07:40:30.000Z</time>
      </trkpt>
      <trkpt lat="49.7956" lon="4.79827">
        <ele>291</ele>
        <time>2021-05-15T07:40:31.000Z</time>
      </trkpt>
      <trkpt lat="49.79563" lon="4.79827">
        <ele>291</ele>
        <time>2021-05-15T07:40:32.000Z</time>
      </trkpt>
      <trkpt lat="49.79565" lon="4.79827">
        <ele>291</ele>
        <time>2021-05-15T07:40:33.000Z</time>
      </trkpt>
      <trkpt lat="49.79568" lon="4.79828">
        <ele>291</ele>
        <time>2021-05-15T07:40:34.000Z</time>
      </trkpt>
      <trkpt lat="49.79571" lon="4.79827">
        <ele>291</ele>
        <time>2021-05-15T07:40:35.000Z</time>
      </trkpt>
      <trkpt lat="49.79574" lon="4.79827">
        <ele>291</ele>
        <time>2021-05-15T07:40:36.000Z</time>
      </trkpt>
      <trkpt lat="49.79577" lon="4.79826">
        <ele>291</ele>
        <time>2021-05-15T07:40:37.000Z</time>
      </trkpt>
      <trkpt lat="49.7958" lon="4.79826">
        <ele>291</ele>
        <time>2021-05-15T07:40:38.000Z</time>
      </trkpt>
      <trkpt lat="49.79584" lon="4.79825">
        <ele>291</ele>
        <time>2021-05-15T07:40:39.000Z</time>
      </trkpt>
      <trkpt lat="49.79587" lon="4.79825">
        <ele>291</ele>
        <time>2021-05-15T07:40:40.000Z</time>
      </trkpt>
      <trkpt lat="49.7959" lon="4.79825">
        <ele>291</ele>
        <time>2021-05-15T07:40:41.000Z</time>
      </trkpt>
      <trkpt lat="49.79593" lon="4.79824">
        <ele>291</ele>
        <time>2021-05-15T07:40:42.000Z</time>
      </trkpt>
      <trkpt lat="49.79597" lon="4.79823">
        <ele>291</ele>
        <time>2021-05-15T07:40:43.000Z</time>
      </trkpt>
      <trkpt lat="49.79601" lon="4.79824">
        <ele>291</ele>
        <time>2021-05-15T07:40:44.000Z</time>
      </trkpt>
      <trkpt lat="49.79604" lon="4.79823">
        <ele>292</ele>
        <time>2021-05-15T07:40:45.000Z</time>
      </trkpt>
      <trkpt lat="49.79606" lon="4.79823">
        <ele>292</ele>
        <time>2021-05-15T07:40:46.000Z</time>
      </trkpt>
      <trkpt lat="49.79609" lon="4.79823">
        <ele>292</ele>
        <time>2021-05-15T07:40:47.000Z</time>
      </trkpt>
      <trkpt lat="49.79613" lon="4.79822">
        <ele>292</ele>
        <time>2021-05-15T07:40:48.000Z</time>
      </trkpt>
      <trkpt lat="49.79615" lon="4.79822">
        <ele>292</ele>
        <time>2021-05-15T07:40:49.000Z</time>
      </trkpt>
      <trkpt lat="49.79619" lon="4.79821">
        <ele>292</ele>
        <time>2021-05-15T07:40:50.000Z</time>
      </trkpt>
      <trkpt lat="49.79622" lon="4.7982">
        <ele>292</ele>
        <time>2021-05-15T07:40:51.000Z</time>
      </trkpt>
      <trkpt lat="49.79624" lon="4.7982">
        <ele>293</ele>
        <time>2021-05-15T07:40:52.000Z</time>
      </trkpt>
      <trkpt lat="49.79627" lon="4.7982">
        <ele>293</ele>
        <time>2021-05-15T07:40:53.000Z</time>
      </trkpt>
      <trkpt lat="49.79631" lon="4.79819">
        <ele>293</ele>
        <time>2021-05-15T07:40:54.000Z</time>
      </trkpt>
      <trkpt lat="49.79635" lon="4.79819">
        <ele>293</ele>
        <time>2021-05-15T07:40:55.000Z</time>
      </trkpt>
      <trkpt lat="49.79639" lon="4.7982">
        <ele>293</ele>
        <time>2021-05-15T07:40:56.000Z</time>
      </trkpt>
      <trkpt lat="49.79643" lon="4.7982">
        <ele>293</ele>
        <time>2021-05-15T07:40:57.000Z</time>
      </trkpt>
      <trkpt lat="49.79646" lon="4.79819">
        <ele>293</ele>
        <time>2021-05-15T07:40:58.000Z</time>
      </trkpt>
      <trkpt lat="49.7965" lon="4.7982">
        <ele>294</ele>
        <time>2021-05-15T07:40:59.000Z</time>
      </trkpt>
      <trkpt lat="49.79654" lon="4.7982">
        <ele>294</ele>
        <time>2021-05-15T07:41:00.000Z</time>
      </trkpt>
      <trkpt lat="49.79659" lon="4.7982">
        <ele>294</ele>
        <time>2021-05-15T07:41:01.000Z</time>
      </trkpt>
      <trkpt lat="49.79663" lon="4.79819">
        <ele>294</ele>
        <time>2021-05-15T07:41:02.000Z</time>
      </trkpt>
      <trkpt lat="49.79668" lon="4.79818">
        <ele>294</ele>
        <time>2021-05-15T07:41:03.000Z</time>
      </trkpt>
      <trkpt lat="49.79673" lon="4.79817">
        <ele>294</ele>
        <time>2021-05-15T07:41:04.000Z</time>
      </trkpt>
      <trkpt lat="49.79678" lon="4.79817">
        <ele>295</ele>
        <time>2021-05-15T07:41:05.000Z</time>
      </trkpt>
      <trkpt lat="49.79684" lon="4.79817">
        <ele>295</ele>
        <time>2021-05-15T07:41:06.000Z</time>
      </trkpt>
      <trkpt lat="49.7969" lon="4.79817">
        <ele>295</ele>
        <time>2021-05-15T07:41:07.000Z</time>
      </trkpt>
      <trkpt lat="49.79695" lon="4.79817">
        <ele>295</ele>
        <time>2021-05-15T07:41:08.000Z</time>
      </trkpt>
      <trkpt lat="49.79701" lon="4.79817">
        <ele>295</ele>
        <time>2021-05-15T07:41:09.000Z</time>
      </trkpt>
      <trkpt lat="49.79706" lon="4.79816">
        <ele>296</ele>
        <time>2021-05-15T07:41:10.000Z</time>
      </trkpt>
      <trkpt lat="49.79711" lon="4.79815">
        <ele>296</ele>
        <time>2021-05-15T07:41:11.000Z</time>
      </trkpt>
      <trkpt lat="49.79716" lon="4.79814">
        <ele>296</ele>
        <time>2021-05-15T07:41:12.000Z</time>
      </trkpt>
      <trkpt lat="49.79722" lon="4.79813">
        <ele>296</ele>
        <time>2021-05-15T07:41:13.000Z</time>
      </trkpt>
      <trkpt lat="49.79728" lon="4.79812">
        <ele>296</ele>
        <time>2021-05-15T07:41:14.000Z</time>
      </trkpt>
      <trkpt lat="49.79734" lon="4.79811">
        <ele>296</ele>
        <time>2021-05-15T07:41:15.000Z</time>
      </trkpt>
      <trkpt lat="49.7974" lon="4.7981">
        <ele>296</ele>
        <time>2021-05-15T07:41:16.000Z</time>
      </trkpt>
      <trkpt lat="49.79745" lon="4.7981">
        <ele>296</ele>
        <time>2021-05-15T07:41:17.000Z</time>
      </trkpt>
      <trkpt lat="49.79751" lon="4.7981">
        <ele>297</ele>
        <time>2021-05-15T07:41:18.000Z</time>
      </trkpt>
      <trkpt lat="49.79757" lon="4.79811">
        <ele>297</ele>
        <time>2021-05-15T07:41:19.000Z</time>
      </trkpt>
      <trkpt lat="49.79762" lon="4.7981">
        <ele>297</ele>
        <time>2021-05-15T07:41:20.000Z</time>
      </trkpt>
      <trkpt lat="49.79768" lon="4.7981">
        <ele>297</ele>
        <time>2021-05-15T07:41:21.000Z</time>
      </trkpt>
      <trkpt lat="49.79774" lon="4.7981">
        <ele>297</ele>
        <time>2021-05-15T07:41:22.000Z</time>
      </trkpt>
      <trkpt lat="49.79779" lon="4.79809">
        <ele>297</ele>
        <time>2021-05-15T07:41:23.000Z</time>
      </trkpt>
      <trkpt lat="49.79784" lon="4.79809">
        <ele>297</ele>
        <time>2021-05-15T07:41:24.000Z</time>
      </trkpt>
      <trkpt lat="49.79791" lon="4.7981">
        <ele>297</ele>
        <time>2021-05-15T07:41:25.000Z</time>
      </trkpt>
      <trkpt lat="49.79797" lon="4.7981">
        <ele>297</ele>
        <time>2021-05-15T07:41:26.000Z</time>
      </trkpt>
      <trkpt lat="49.79803" lon="4.7981">
        <ele>297</ele>
        <time>2021-05-15T07:41:27.000Z</time>
      </trkpt>
      <trkpt lat="49.7981" lon="4.79809">
        <ele>297</ele>
        <time>2021-05-15T07:41:28.000Z</time>
      </trkpt>
      <trkpt lat="49.79817" lon="4.79809">
        <ele>297</ele>
        <time>2021-05-15T07:41:29.000Z</time>
      </trkpt>
      <trkpt lat="49.79824" lon="4.79808">
        <ele>297</ele>
        <time>2021-05-15T07:41:30.000Z</time>
      </trkpt>
      <trkpt lat="49.7983" lon="4.79807">
        <ele>297</ele>
        <time>2021-05-15T07:41:31.000Z</time>
      </trkpt>
      <trkpt lat="49.79836" lon="4.79807">
        <ele>297</ele>
        <time>2021-05-15T07:41:32.000Z</time>
      </trkpt>
      <trkpt lat="49.79843" lon="4.79807">
        <ele>297</ele>
        <time>2021-05-15T07:41:33.000Z</time>
      </trkpt>
      <trkpt lat="49.79849" lon="4.79806">
        <ele>297</ele>
        <time>2021-05-15T07:41:34.000Z</time>
      </trkpt>
      <trkpt lat="49.79854" lon="4.79805">
        <ele>297</ele>
        <time>2021-05-15T07:41:35.000Z</time>
      </trkpt>
      <trkpt lat="49.79859" lon="4.79803">
        <ele>297</ele>
        <time>2021-05-15T07:41:36.000Z</time>
      </trkpt>
      <trkpt lat="49.79864" lon="4.79802">
        <ele>297</ele>
        <time>2021-05-15T07:41:37.000Z</time>
      </trkpt>
      <trkpt lat="49.79869" lon="4.79802">
        <ele>297</ele>
        <time>2021-05-15T07:41:38.000Z</time>
      </trkpt>
      <trkpt lat="49.79875" lon="4.79801">
        <ele>297</ele>
        <time>2021-05-15T07:41:39.000Z</time>
      </trkpt>
      <trkpt lat="49.7988" lon="4.79801">
        <ele>297</ele>
        <time>2021-05-15T07:41:40.000Z</time>
      </trkpt>
      <trkpt lat="49.79885" lon="4.798">
        <ele>297</ele>
        <time>2021-05-15T07:41:41.000Z</time>
      </trkpt>
      <trkpt lat="49.7989" lon="4.798">
        <ele>297</ele>
        <time>2021-05-15T07:41:42.000Z</time>
      </trkpt>
      <trkpt lat="49.79896" lon="4.798">
        <ele>297</ele>
        <time>2021-05-15T07:41:43.000Z</time>
      </trkpt>
      <trkpt lat="49.79901" lon="4.798">
        <ele>297</ele>
        <time>2021-05-15T07:41:44.000Z</time>
      </trkpt>
      <trkpt lat="49.79906" lon="4.79799">
        <ele>297</ele>
        <time>2021-05-15T07:41:45.000Z</time>
      </trkpt>
      <trkpt lat="49.79911" lon="4.79799">
        <ele>297</ele>
        <time>2021-05-15T07:41:46.000Z</time>
      </trkpt>
      <trkpt lat="49.79916" lon="4.79798">
        <ele>297</ele>
        <time>2021-05-15T07:41:47.000Z</time>
      </trkpt>
      <trkpt lat="49.79922" lon="4.79798">
        <ele>297</ele>
        <time>2021-05-15T07:41:48.000Z</time>
      </trkpt>
      <trkpt lat="49.79928" lon="4.79798">
        <ele>297</ele>
        <time>2021-05-15T07:41:49.000Z</time>
      </trkpt>
      <trkpt lat="49.79933" lon="4.79797">
        <ele>297</ele>
        <time>2021-05-15T07:41:50.000Z</time>
      </trkpt>
      <trkpt lat="49.79939" lon="4.79796">
        <ele>297</ele>
        <time>2021-05-15T07:41:51.000Z</time>
      </trkpt>
      <trkpt lat="49.79944" lon="4.79795">
        <ele>297</ele>
        <time>2021-05-15T07:41:52.000Z</time>
      </trkpt>
      <trkpt lat="49.79951" lon="4.79794">
        <ele>297</ele>
        <time>2021-05-15T07:41:53.000Z</time>
      </trkpt>
      <trkpt lat="49.79957" lon="4.79794">
        <ele>297</ele>
        <time>2021-05-15T07:41:54.000Z</time>
      </trkpt>
      <trkpt lat="49.79964" lon="4.79794">
        <ele>297</ele>
        <time>2021-05-15T07:41:55.000Z</time>
      </trkpt>
      <trkpt lat="49.79971" lon="4.79793">
        <ele>297</ele>
        <time>2021-05-15T07:41:56.000Z</time>
      </trkpt>
      <trkpt lat="49.79979" lon="4.79793">
        <ele>297</ele>
        <time>2021-05-15T07:41:57.000Z</time>
      </trkpt>
      <trkpt lat="49.79986" lon="4.79792">
        <ele>297</ele>
        <time>2021-05-15T07:41:58.000Z</time>
      </trkpt>
      <trkpt lat="49.79993" lon="4.79792">
        <ele>297</ele>
        <time>2021-05-15T07:41:59.000Z</time>
      </trkpt>
      <trkpt lat="49.79999" lon="4.79791">
        <ele>297</ele>
        <time>2021-05-15T07:42:00.000Z</time>
      </trkpt>
      <trkpt lat="49.80006" lon="4.7979">
        <ele>297</ele>
        <time>2021-05-15T07:42:01.000Z</time>
      </trkpt>
      <trkpt lat="49.80012" lon="4.7979">
        <ele>296</ele>
        <time>2021-05-15T07:42:02.000Z</time>
      </trkpt>
      <trkpt lat="49.80019" lon="4.7979">
        <ele>296</ele>
        <time>2021-05-15T07:42:03.000Z</time>
      </trkpt>
      <trkpt lat="49.80026" lon="4.7979">
        <ele>296</ele>
        <time>2021-05-15T07:42:04.000Z</time>
      </trkpt>
      <trkpt lat="49.80033" lon="4.79789">
        <ele>296</ele>
        <time>2021-05-15T07:42:05.000Z</time>
      </trkpt>
      <trkpt lat="49.80041" lon="4.7979">
        <ele>296</ele>
        <time>2021-05-15T07:42:06.000Z</time>
      </trkpt>
      <trkpt lat="49.80048" lon="4.7979">
        <ele>296</ele>
        <time>2021-05-15T07:42:07.000Z</time>
      </trkpt>
      <trkpt lat="49.80055" lon="4.79789">
        <ele>296</ele>
        <time>2021-05-15T07:42:08.000Z</time>
      </trkpt>
      <trkpt lat="49.80062" lon="4.79788">
        <ele>296</ele>
        <time>2021-05-15T07:42:09.000Z</time>
      </trkpt>
      <trkpt lat="49.80068" lon="4.79788">
        <ele>296</ele>
        <time>2021-05-15T07:42:10.000Z</time>
      </trkpt>
      <trkpt lat="49.80075" lon="4.79788">
        <ele>296</ele>
        <time>2021-05-15T07:42:11.000Z</time>
      </trkpt>
      <trkpt lat="49.80082" lon="4.79788">
        <ele>295</ele>
        <time>2021-05-15T07:42:12.000Z</time>
      </trkpt>
      <trkpt lat="49.80089" lon="4.79787">
        <ele>295</ele>
        <time>2021-05-15T07:42:13.000Z</time>
      </trkpt>
      <trkpt lat="49.80096" lon="4.79786">
        <ele>295</ele>
        <time>2021-05-15T07:42:14.000Z</time>
      </trkpt>
      <trkpt lat="49.80103" lon="4.79785">
        <ele>295</ele>
        <time>2021-05-15T07:42:15.000Z</time>
      </trkpt>
      <trkpt lat="49.8011" lon="4.79784">
        <ele>295</ele>
        <time>2021-05-15T07:42:16.000Z</time>
      </trkpt>
      <trkpt lat="49.80117" lon="4.79783">
        <ele>295</ele>
        <time>2021-05-15T07:42:17.000Z</time>
      </trkpt>
      <trkpt lat="49.80123" lon="4.79781">
        <ele>295</ele>
        <time>2021-05-15T07:42:18.000Z</time>
      </trkpt>
      <trkpt lat="49.8013" lon="4.79781">
        <ele>294</ele>
        <time>2021-05-15T07:42:19.000Z</time>
      </trkpt>
      <trkpt lat="49.80135" lon="4.7978">
        <ele>294</ele>
        <time>2021-05-15T07:42:20.000Z</time>
      </trkpt>
      <trkpt lat="49.8014" lon="4.7978">
        <ele>294</ele>
        <time>2021-05-15T07:42:21.000Z</time>
      </trkpt>
      <trkpt lat="49.80145" lon="4.79778">
        <ele>294</ele>
        <time>2021-05-15T07:42:22.000Z</time>
      </trkpt>
      <trkpt lat="49.80149" lon="4.79777">
        <ele>293</ele>
        <time>2021-05-15T07:42:23.000Z</time>
      </trkpt>
      <trkpt lat="49.80152" lon="4.79777">
        <ele>293</ele>
        <time>2021-05-15T07:42:24.000Z</time>
      </trkpt>
      <trkpt lat="49.80155" lon="4.79777">
        <ele>293</ele>
        <time>2021-05-15T07:42:25.000Z</time>
      </trkpt>
      <trkpt lat="49.80157" lon="4.79779">
        <ele>293</ele>
        <time>2021-05-15T07:42:26.000Z</time>
      </trkpt>
      <trkpt lat="49.80159" lon="4.79781">
        <ele>292</ele>
        <time>2021-05-15T07:42:27.000Z</time>
      </trkpt>
      <trkpt lat="49.80162" lon="4.79784">
        <ele>292</ele>
        <time>2021-05-15T07:42:28.000Z</time>
      </trkpt>
      <trkpt lat="49.80165" lon="4.79787">
        <ele>292</ele>
        <time>2021-05-15T07:42:29.000Z</time>
      </trkpt>
      <trkpt lat="49.80167" lon="4.7979">
        <ele>291</ele>
        <time>2021-05-15T07:42:30.000Z</time>
      </trkpt>
      <trkpt lat="49.8017" lon="4.79794">
        <ele>291</ele>
        <time>2021-05-15T07:42:31.000Z</time>
      </trkpt>
      <trkpt lat="49.80173" lon="4.79798">
        <ele>291</ele>
        <time>2021-05-15T07:42:32.000Z</time>
      </trkpt>
      <trkpt lat="49.80175" lon="4.79802">
        <ele>291</ele>
        <time>2021-05-15T07:42:33.000Z</time>
      </trkpt>
      <trkpt lat="49.80177" lon="4.79806">
        <ele>291</ele>
        <time>2021-05-15T07:42:34.000Z</time>
      </trkpt>
      <trkpt lat="49.80179" lon="4.79809">
        <ele>290</ele>
        <time>2021-05-15T07:42:35.000Z</time>
      </trkpt>
      <trkpt lat="49.8018" lon="4.79813">
        <ele>290</ele>
        <time>2021-05-15T07:42:36.000Z</time>
      </trkpt>
      <trkpt lat="49.80182" lon="4.79816">
        <ele>290</ele>
        <time>2021-05-15T07:42:37.000Z</time>
      </trkpt>
      <trkpt lat="49.80184" lon="4.79817">
        <ele>290</ele>
        <time>2021-05-15T07:42:38.000Z</time>
      </trkpt>
      <trkpt lat="49.80186" lon="4.79818">
        <ele>290</ele>
        <time>2021-05-15T07:42:39.000Z</time>
      </trkpt>
      <trkpt lat="49.80188" lon="4.79818">
        <ele>290</ele>
        <time>2021-05-15T07:42:40.000Z</time>
      </trkpt>
      <trkpt lat="49.80191" lon="4.7982">
        <ele>290</ele>
        <time>2021-05-15T07:42:41.000Z</time>
      </trkpt>
      <trkpt lat="49.80194" lon="4.79821">
        <ele>290</ele>
        <time>2021-05-15T07:42:42.000Z</time>
      </trkpt>
      <trkpt lat="49.80196" lon="4.79821">
        <ele>289</ele>
        <time>2021-05-15T07:42:43.000Z</time>
      </trkpt>
      <trkpt lat="49.80199" lon="4.79822">
        <ele>289</ele>
        <time>2021-05-15T07:42:44.000Z</time>
      </trkpt>
      <trkpt lat="49.80202" lon="4.79822">
        <ele>289</ele>
        <time>2021-05-15T07:42:45.000Z</time>
      </trkpt>
      <trkpt lat="49.80205" lon="4.79822">
        <ele>289</ele>
        <time>2021-05-15T07:42:46.000Z</time>
      </trkpt>
      <trkpt lat="49.80208" lon="4.79822">
        <ele>289</ele>
        <time>2021-05-15T07:42:47.000Z</time>
      </trkpt>
      <trkpt lat="49.8021" lon="4.79822">
        <ele>289</ele>
        <time>2021-05-15T07:42:48.000Z</time>
      </trkpt>
      <trkpt lat="49.80213" lon="4.79822">
        <ele>289</ele>
        <time>2021-05-15T07:42:49.000Z</time>
      </trkpt>
      <trkpt lat="49.80216" lon="4.79822">
        <ele>289</ele>
        <time>2021-05-15T07:42:50.000Z</time>
      </trkpt>
      <trkpt lat="49.80219" lon="4.79823">
        <ele>289</ele>
        <time>2021-05-15T07:42:51.000Z</time>
      </trkpt>
      <trkpt lat="49.80223" lon="4.79823">
        <ele>289</ele>
        <time>2021-05-15T07:42:52.000Z</time>
      </trkpt>
      <trkpt lat="49.80226" lon="4.79823">
        <ele>289</ele>
        <time>2021-05-15T07:42:53.000Z</time>
      </trkpt>
      <trkpt lat="49.8023" lon="4.79824">
        <ele>289</ele>
        <time>2021-05-15T07:42:54.000Z</time>
      </trkpt>
      <trkpt lat="49.80233" lon="4.79824">
        <ele>289</ele>
        <time>2021-05-15T07:42:55.000Z</time>
      </trkpt>
      <trkpt lat="49.80236" lon="4.79824">
        <ele>289</ele>
        <time>2021-05-15T07:42:56.000Z</time>
      </trkpt>
      <trkpt lat="49.8024" lon="4.79824">
        <ele>289</ele>
        <time>2021-05-15T07:42:57.000Z</time>
      </trkpt>
      <trkpt lat="49.80243" lon="4.79824">
        <ele>290</ele>
        <time>2021-05-15T07:42:58.000Z</time>
      </trkpt>
      <trkpt lat="49.80247" lon="4.79824">
        <ele>290</ele>
        <time>2021-05-15T07:42:59.000Z</time>
      </trkpt>
      <trkpt lat="49.8025" lon="4.79823">
        <ele>290</ele>
        <time>2021-05-15T07:43:00.000Z</time>
      </trkpt>
      <trkpt lat="49.80254" lon="4.79824">
        <ele>290</ele>
        <time>2021-05-15T07:43:01.000Z</time>
      </trkpt>
      <trkpt lat="49.80257" lon="4.79825">
        <ele>290</ele>
        <time>2021-05-15T07:43:02.000Z</time>
      </trkpt>
      <trkpt lat="49.80261" lon="4.79825">
        <ele>290</ele>
        <time>2021-05-15T07:43:03.000Z</time>
      </trkpt>
      <trkpt lat="49.80263" lon="4.79826">
        <ele>290</ele>
        <time>2021-05-15T07:43:04.000Z</time>
      </trkpt>
      <trkpt lat="49.80266" lon="4.79826">
        <ele>290</ele>
        <time>2021-05-15T07:43:05.000Z</time>
      </trkpt>
      <trkpt lat="49.80269" lon="4.79826">
        <ele>290</ele>
        <time>2021-05-15T07:43:06.000Z</time>
      </trkpt>
      <trkpt lat="49.80272" lon="4.79827">
        <ele>290</ele>
        <time>2021-05-15T07:43:07.000Z</time>
      </trkpt>
      <trkpt lat="49.80274" lon="4.7983">
        <ele>291</ele>
        <time>2021-05-15T07:43:08.000Z</time>
      </trkpt>
      <trkpt lat="49.80277" lon="4.79832">
        <ele>291</ele>
        <time>2021-05-15T07:43:09.000Z</time>
      </trkpt>
      <trkpt lat="49.8028" lon="4.79834">
        <ele>291</ele>
        <time>2021-05-15T07:43:10.000Z</time>
      </trkpt>
      <trkpt lat="49.80282" lon="4.79836">
        <ele>290</ele>
        <time>2021-05-15T07:43:11.000Z</time>
      </trkpt>
      <trkpt lat="49.80283" lon="4.79839">
        <ele>290</ele>
        <time>2021-05-15T07:43:12.000Z</time>
      </trkpt>
      <trkpt lat="49.80284" lon="4.79841">
        <ele>290</ele>
        <time>2021-05-15T07:43:13.000Z</time>
      </trkpt>
      <trkpt lat="49.80287" lon="4.79843">
        <ele>290</ele>
        <time>2021-05-15T07:43:14.000Z</time>
      </trkpt>
      <trkpt lat="49.8029" lon="4.79845">
        <ele>290</ele>
        <time>2021-05-15T07:43:15.000Z</time>
      </trkpt>
      <trkpt lat="49.80293" lon="4.79847">
        <ele>290</ele>
        <time>2021-05-15T07:43:16.000Z</time>
      </trkpt>
      <trkpt lat="49.80296" lon="4.79849">
        <ele>290</ele>
        <time>2021-05-15T07:43:17.000Z</time>
      </trkpt>
      <trkpt lat="49.80299" lon="4.79852">
        <ele>290</ele>
        <time>2021-05-15T07:43:18.000Z</time>
      </trkpt>
      <trkpt lat="49.80302" lon="4.79855">
        <ele>290</ele>
        <time>2021-05-15T07:43:19.000Z</time>
      </trkpt>
      <trkpt lat="49.80304" lon="4.79858">
        <ele>290</ele>
        <time>2021-05-15T07:43:20.000Z</time>
      </trkpt>
      <trkpt lat="49.80307" lon="4.79862">
        <ele>290</ele>
        <time>2021-05-15T07:43:21.000Z</time>
      </trkpt>
      <trkpt lat="49.80309" lon="4.79867">
        <ele>290</ele>
        <time>2021-05-15T07:43:22.000Z</time>
      </trkpt>
      <trkpt lat="49.8031" lon="4.79871">
        <ele>290</ele>
        <time>2021-05-15T07:43:23.000Z</time>
      </trkpt>
      <trkpt lat="49.8031" lon="4.79877">
        <ele>290</ele>
        <time>2021-05-15T07:43:24.000Z</time>
      </trkpt>
      <trkpt lat="49.80309" lon="4.79882">
        <ele>290</ele>
        <time>2021-05-15T07:43:25.000Z</time>
      </trkpt>
      <trkpt lat="49.80308" lon="4.79887">
        <ele>290</ele>
        <time>2021-05-15T07:43:26.000Z</time>
      </trkpt>
      <trkpt lat="49.80308" lon="4.79893">
        <ele>290</ele>
        <time>2021-05-15T07:43:27.000Z</time>
      </trkpt>
      <trkpt lat="49.80307" lon="4.79899">
        <ele>290</ele>
        <time>2021-05-15T07:43:28.000Z</time>
      </trkpt>
      <trkpt lat="49.80307" lon="4.79905">
        <ele>290</ele>
        <time>2021-05-15T07:43:29.000Z</time>
      </trkpt>
      <trkpt lat="49.80307" lon="4.79911">
        <ele>290</ele>
        <time>2021-05-15T07:43:30.000Z</time>
      </trkpt>
      <trkpt lat="49.80307" lon="4.79917">
        <ele>290</ele>
        <time>2021-05-15T07:43:31.000Z</time>
      </trkpt>
      <trkpt lat="49.80305" lon="4.79922">
        <ele>290</ele>
        <time>2021-05-15T07:43:32.000Z</time>
      </trkpt>
      <trkpt lat="49.80304" lon="4.79927">
        <ele>290</ele>
        <time>2021-05-15T07:43:33.000Z</time>
      </trkpt>
      <trkpt lat="49.80303" lon="4.79934">
        <ele>290</ele>
        <time>2021-05-15T07:43:34.000Z</time>
      </trkpt>
      <trkpt lat="49.80302" lon="4.7994">
        <ele>290</ele>
        <time>2021-05-15T07:43:35.000Z</time>
      </trkpt>
      <trkpt lat="49.80301" lon="4.79948">
        <ele>290</ele>
        <time>2021-05-15T07:43:36.000Z</time>
      </trkpt>
      <trkpt lat="49.803" lon="4.79955">
        <ele>290</ele>
        <time>2021-05-15T07:43:37.000Z</time>
      </trkpt>
      <trkpt lat="49.80299" lon="4.79962">
        <ele>290</ele>
        <time>2021-05-15T07:43:38.000Z</time>
      </trkpt>
      <trkpt lat="49.80299" lon="4.79971">
        <ele>290</ele>
        <time>2021-05-15T07:43:39.000Z</time>
      </trkpt>
      <trkpt lat="49.80298" lon="4.7998">
        <ele>290</ele>
        <time>2021-05-15T07:43:40.000Z</time>
      </trkpt>
      <trkpt lat="49.80297" lon="4.79988">
        <ele>290</ele>
        <time>2021-05-15T07:43:41.000Z</time>
      </trkpt>
      <trkpt lat="49.80296" lon="4.79995">
        <ele>290</ele>
        <time>2021-05-15T07:43:42.000Z</time>
      </trkpt>
      <trkpt lat="49.80295" lon="4.80002">
        <ele>290</ele>
        <time>2021-05-15T07:43:43.000Z</time>
      </trkpt>
      <trkpt lat="49.80294" lon="4.80008">
        <ele>290</ele>
        <time>2021-05-15T07:43:44.000Z</time>
      </trkpt>
      <trkpt lat="49.80293" lon="4.80015">
        <ele>290</ele>
        <time>2021-05-15T07:43:45.000Z</time>
      </trkpt>
      <trkpt lat="49.80294" lon="4.80022">
        <ele>290</ele>
        <time>2021-05-15T07:43:46.000Z</time>
      </trkpt>
      <trkpt lat="49.80296" lon="4.8003">
        <ele>291</ele>
        <time>2021-05-15T07:43:47.000Z</time>
      </trkpt>
      <trkpt lat="49.80298" lon="4.80039">
        <ele>291</ele>
        <time>2021-05-15T07:43:48.000Z</time>
      </trkpt>
      <trkpt lat="49.803" lon="4.80048">
        <ele>291</ele>
        <time>2021-05-15T07:43:49.000Z</time>
      </trkpt>
      <trkpt lat="49.80302" lon="4.80056">
        <ele>291</ele>
        <time>2021-05-15T07:43:50.000Z</time>
      </trkpt>
      <trkpt lat="49.80304" lon="4.80064">
        <ele>291</ele>
        <time>2021-05-15T07:43:51.000Z</time>
      </trkpt>
      <trkpt lat="49.80306" lon="4.80072">
        <ele>291</ele>
        <time>2021-05-15T07:43:52.000Z</time>
      </trkpt>
      <trkpt lat="49.80309" lon="4.80081">
        <ele>291</ele>
        <time>2021-05-15T07:43:53.000Z</time>
      </trkpt>
      <trkpt lat="49.80311" lon="4.80089">
        <ele>291</ele>
        <time>2021-05-15T07:43:54.000Z</time>
      </trkpt>
      <trkpt lat="49.80314" lon="4.80098">
        <ele>290</ele>
        <time>2021-05-15T07:43:55.000Z</time>
      </trkpt>
      <trkpt lat="49.80316" lon="4.80106">
        <ele>290</ele>
        <time>2021-05-15T07:43:56.000Z</time>
      </trkpt>
      <trkpt lat="49.80318" lon="4.80114">
        <ele>290</ele>
        <time>2021-05-15T07:43:57.000Z</time>
      </trkpt>
      <trkpt lat="49.8032" lon="4.80123">
        <ele>290</ele>
        <time>2021-05-15T07:43:58.000Z</time>
      </trkpt>
      <trkpt lat="49.80322" lon="4.80131">
        <ele>290</ele>
        <time>2021-05-15T07:43:59.000Z</time>
      </trkpt>
      <trkpt lat="49.80325" lon="4.80137">
        <ele>290</ele>
        <time>2021-05-15T07:44:00.000Z</time>
      </trkpt>
      <trkpt lat="49.80328" lon="4.80145">
        <ele>290</ele>
        <time>2021-05-15T07:44:01.000Z</time>
      </trkpt>
      <trkpt lat="49.80329" lon="4.80154">
        <ele>289</ele>
        <time>2021-05-15T07:44:02.000Z</time>
      </trkpt>
      <trkpt lat="49.8033" lon="4.80163">
        <ele>289</ele>
        <time>2021-05-15T07:44:03.000Z</time>
      </trkpt>
      <trkpt lat="49.80331" lon="4.80173">
        <ele>289</ele>
        <time>2021-05-15T07:44:04.000Z</time>
      </trkpt>
      <trkpt lat="49.80331" lon="4.80182">
        <ele>289</ele>
        <time>2021-05-15T07:44:05.000Z</time>
      </trkpt>
      <trkpt lat="49.80332" lon="4.80192">
        <ele>288</ele>
        <time>2021-05-15T07:44:06.000Z</time>
      </trkpt>
      <trkpt lat="49.80332" lon="4.80201">
        <ele>288</ele>
        <time>2021-05-15T07:44:07.000Z</time>
      </trkpt>
      <trkpt lat="49.80332" lon="4.80208">
        <ele>288</ele>
        <time>2021-05-15T07:44:08.000Z</time>
      </trkpt>
      <trkpt lat="49.80333" lon="4.80213">
        <ele>287</ele>
        <time>2021-05-15T07:44:09.000Z</time>
      </trkpt>
      <trkpt lat="49.80334" lon="4.80218">
        <ele>287</ele>
        <time>2021-05-15T07:44:10.000Z</time>
      </trkpt>
      <trkpt lat="49.80337" lon="4.80223">
        <ele>287</ele>
        <time>2021-05-15T07:44:11.000Z</time>
      </trkpt>
      <trkpt lat="49.8034" lon="4.80228">
        <ele>286</ele>
        <time>2021-05-15T07:44:12.000Z</time>
      </trkpt>
      <trkpt lat="49.80342" lon="4.80235">
        <ele>286</ele>
        <time>2021-05-15T07:44:13.000Z</time>
      </trkpt>
      <trkpt lat="49.80345" lon="4.80243">
        <ele>285</ele>
        <time>2021-05-15T07:44:14.000Z</time>
      </trkpt>
      <trkpt lat="49.80349" lon="4.80252">
        <ele>285</ele>
        <time>2021-05-15T07:44:15.000Z</time>
      </trkpt>
      <trkpt lat="49.80352" lon="4.80262">
        <ele>284</ele>
        <time>2021-05-15T07:44:16.000Z</time>
      </trkpt>
      <trkpt lat="49.80355" lon="4.80273">
        <ele>284</ele>
        <time>2021-05-15T07:44:17.000Z</time>
      </trkpt>
      <trkpt lat="49.80358" lon="4.80284">
        <ele>283</ele>
        <time>2021-05-15T07:44:18.000Z</time>
      </trkpt>
      <trkpt lat="49.80361" lon="4.80296">
        <ele>283</ele>
        <time>2021-05-15T07:44:19.000Z</time>
      </trkpt>
      <trkpt lat="49.80363" lon="4.80309">
        <ele>282</ele>
        <time>2021-05-15T07:44:20.000Z</time>
      </trkpt>
      <trkpt lat="49.80366" lon="4.80321">
        <ele>281</ele>
        <time>2021-05-15T07:44:21.000Z</time>
      </trkpt>
      <trkpt lat="49.80369" lon="4.80333">
        <ele>280</ele>
        <time>2021-05-15T07:44:22.000Z</time>
      </trkpt>
      <trkpt lat="49.80371" lon="4.80345">
        <ele>279</ele>
        <time>2021-05-15T07:44:23.000Z</time>
      </trkpt>
      <trkpt lat="49.80374" lon="4.80355">
        <ele>278</ele>
        <time>2021-05-15T07:44:24.000Z</time>
      </trkpt>
      <trkpt lat="49.80377" lon="4.80364">
        <ele>278</ele>
        <time>2021-05-15T07:44:25.000Z</time>
      </trkpt>
      <trkpt lat="49.80381" lon="4.80373">
        <ele>277</ele>
        <time>2021-05-15T07:44:26.000Z</time>
      </trkpt>
      <trkpt lat="49.80385" lon="4.80382">
        <ele>276</ele>
        <time>2021-05-15T07:44:27.000Z</time>
      </trkpt>
      <trkpt lat="49.80389" lon="4.8039">
        <ele>275</ele>
        <time>2021-05-15T07:44:28.000Z</time>
      </trkpt>
      <trkpt lat="49.80393" lon="4.80398">
        <ele>274</ele>
        <time>2021-05-15T07:44:29.000Z</time>
      </trkpt>
      <trkpt lat="49.80398" lon="4.80405">
        <ele>273</ele>
        <time>2021-05-15T07:44:30.000Z</time>
      </trkpt>
      <trkpt lat="49.80402" lon="4.80412">
        <ele>272</ele>
        <time>2021-05-15T07:44:31.000Z</time>
      </trkpt>
      <trkpt lat="49.80406" lon="4.80418">
        <ele>271</ele>
        <time>2021-05-15T07:44:32.000Z</time>
      </trkpt>
      <trkpt lat="49.8041" lon="4.80423">
        <ele>270</ele>
        <time>2021-05-15T07:44:33.000Z</time>
      </trkpt>
      <trkpt lat="49.80415" lon="4.80427">
        <ele>268</ele>
        <time>2021-05-15T07:44:34.000Z</time>
      </trkpt>
      <trkpt lat="49.80418" lon="4.80429">
        <ele>267</ele>
        <time>2021-05-15T07:44:35.000Z</time>
      </trkpt>
      <trkpt lat="49.80421" lon="4.8043">
        <ele>266</ele>
        <time>2021-05-15T07:44:36.000Z</time>
      </trkpt>
      <trkpt lat="49.80424" lon="4.8043">
        <ele>266</ele>
        <time>2021-05-15T07:44:37.000Z</time>
      </trkpt>
      <trkpt lat="49.80428" lon="4.80429">
        <ele>265</ele>
        <time>2021-05-15T07:44:38.000Z</time>
      </trkpt>
      <trkpt lat="49.80433" lon="4.80426">
        <ele>264</ele>
        <time>2021-05-15T07:44:39.000Z</time>
      </trkpt>
      <trkpt lat="49.80438" lon="4.80422">
        <ele>263</ele>
        <time>2021-05-15T07:44:40.000Z</time>
      </trkpt>
      <trkpt lat="49.80444" lon="4.80416">
        <ele>262</ele>
        <time>2021-05-15T07:44:41.000Z</time>
      </trkpt>
      <trkpt lat="49.80448" lon="4.80408">
        <ele>261</ele>
        <time>2021-05-15T07:44:42.000Z</time>
      </trkpt>
      <trkpt lat="49.80453" lon="4.80399">
        <ele>260</ele>
        <time>2021-05-15T07:44:43.000Z</time>
      </trkpt>
      <trkpt lat="49.80457" lon="4.80392">
        <ele>260</ele>
        <time>2021-05-15T07:44:44.000Z</time>
      </trkpt>
      <trkpt lat="49.80462" lon="4.80385">
        <ele>259</ele>
        <time>2021-05-15T07:44:45.000Z</time>
      </trkpt>
      <trkpt lat="49.80466" lon="4.80378">
        <ele>258</ele>
        <time>2021-05-15T07:44:46.000Z</time>
      </trkpt>
      <trkpt lat="49.80471" lon="4.80373">
        <ele>258</ele>
        <time>2021-05-15T07:44:47.000Z</time>
      </trkpt>
      <trkpt lat="49.80475" lon="4.80368">
        <ele>257</ele>
        <time>2021-05-15T07:44:48.000Z</time>
      </trkpt>
      <trkpt lat="49.80479" lon="4.80364">
        <ele>256</ele>
        <time>2021-05-15T07:44:49.000Z</time>
      </trkpt>
      <trkpt lat="49.80485" lon="4.8036">
        <ele>256</ele>
        <time>2021-05-15T07:44:50.000Z</time>
      </trkpt>
      <trkpt lat="49.80492" lon="4.80356">
        <ele>255</ele>
        <time>2021-05-15T07:44:51.000Z</time>
      </trkpt>
      <trkpt lat="49.80499" lon="4.80352">
        <ele>254</ele>
        <time>2021-05-15T07:44:52.000Z</time>
      </trkpt>
      <trkpt lat="49.80507" lon="4.80348">
        <ele>254</ele>
        <time>2021-05-15T07:44:53.000Z</time>
      </trkpt>
      <trkpt lat="49.80515" lon="4.80343">
        <ele>253</ele>
        <time>2021-05-15T07:44:54.000Z</time>
      </trkpt>
      <trkpt lat="49.80523" lon="4.80338">
        <ele>252</ele>
        <time>2021-05-15T07:44:55.000Z</time>
      </trkpt>
      <trkpt lat="49.80532" lon="4.80333">
        <ele>251</ele>
        <time>2021-05-15T07:44:56.000Z</time>
      </trkpt>
      <trkpt lat="49.8054" lon="4.80328">
        <ele>250</ele>
        <time>2021-05-15T07:44:57.000Z</time>
      </trkpt>
      <trkpt lat="49.80548" lon="4.80323">
        <ele>250</ele>
        <time>2021-05-15T07:44:58.000Z</time>
      </trkpt>
      <trkpt lat="49.80555" lon="4.80317">
        <ele>249</ele>
        <time>2021-05-15T07:44:59.000Z</time>
      </trkpt>
      <trkpt lat="49.80563" lon="4.80312">
        <ele>248</ele>
        <time>2021-05-15T07:45:00.000Z</time>
      </trkpt>
      <trkpt lat="49.8057" lon="4.80307">
        <ele>247</ele>
        <time>2021-05-15T07:45:01.000Z</time>
      </trkpt>
      <trkpt lat="49.80576" lon="4.80303">
        <ele>246</ele>
        <time>2021-05-15T07:45:02.000Z</time>
      </trkpt>
      <trkpt lat="49.80582" lon="4.80298">
        <ele>246</ele>
        <time>2021-05-15T07:45:03.000Z</time>
      </trkpt>
      <trkpt lat="49.80588" lon="4.80292">
        <ele>245</ele>
        <time>2021-05-15T07:45:04.000Z</time>
      </trkpt>
      <trkpt lat="49.80594" lon="4.80284">
        <ele>245</ele>
        <time>2021-05-15T07:45:05.000Z</time>
      </trkpt>
      <trkpt lat="49.80599" lon="4.80276">
        <ele>244</ele>
        <time>2021-05-15T07:45:06.000Z</time>
      </trkpt>
      <trkpt lat="49.80604" lon="4.80268">
        <ele>244</ele>
        <time>2021-05-15T07:45:07.000Z</time>
      </trkpt>
      <trkpt lat="49.80609" lon="4.8026">
        <ele>243</ele>
        <time>2021-05-15T07:45:08.000Z</time>
      </trkpt>
      <trkpt lat="49.80615" lon="4.80252">
        <ele>242</ele>
        <time>2021-05-15T07:45:09.000Z</time>
      </trkpt>
      <trkpt lat="49.80621" lon="4.80243">
        <ele>242</ele>
        <time>2021-05-15T07:45:10.000Z</time>
      </trkpt>
      <trkpt lat="49.80627" lon="4.80234">
        <ele>241</ele>
        <time>2021-05-15T07:45:11.000Z</time>
      </trkpt>
      <trkpt lat="49.80635" lon="4.80223">
        <ele>240</ele>
        <time>2021-05-15T07:45:12.000Z</time>
      </trkpt>
      <trkpt lat="49.80642" lon="4.80211">
        <ele>239</ele>
        <time>2021-05-15T07:45:13.000Z</time>
      </trkpt>
      <trkpt lat="49.80651" lon="4.80199">
        <ele>238</ele>
        <time>2021-05-15T07:45:14.000Z</time>
      </trkpt>
      <trkpt lat="49.80659" lon="4.80188">
        <ele>237</ele>
        <time>2021-05-15T07:45:15.000Z</time>
      </trkpt>
      <trkpt lat="49.80668" lon="4.80177">
        <ele>236</ele>
        <time>2021-05-15T07:45:16.000Z</time>
      </trkpt>
      <trkpt lat="49.80675" lon="4.80167">
        <ele>235</ele>
        <time>2021-05-15T07:45:17.000Z</time>
      </trkpt>
      <trkpt lat="49.80682" lon="4.80158">
        <ele>233</ele>
        <time>2021-05-15T07:45:18.000Z</time>
      </trkpt>
      <trkpt lat="49.80689" lon="4.80148">
        <ele>232</ele>
        <time>2021-05-15T07:45:19.000Z</time>
      </trkpt>
      <trkpt lat="49.80696" lon="4.80139">
        <ele>231</ele>
        <time>2021-05-15T07:45:20.000Z</time>
      </trkpt>
      <trkpt lat="49.80703" lon="4.80131">
        <ele>229</ele>
        <time>2021-05-15T07:45:21.000Z</time>
      </trkpt>
      <trkpt lat="49.8071" lon="4.80123">
        <ele>228</ele>
        <time>2021-05-15T07:45:22.000Z</time>
      </trkpt>
      <trkpt lat="49.80718" lon="4.80117">
        <ele>226</ele>
        <time>2021-05-15T07:45:23.000Z</time>
      </trkpt>
      <trkpt lat="49.80724" lon="4.80112">
        <ele>225</ele>
        <time>2021-05-15T07:45:24.000Z</time>
      </trkpt>
      <trkpt lat="49.80731" lon="4.80109">
        <ele>224</ele>
        <time>2021-05-15T07:45:25.000Z</time>
      </trkpt>
      <trkpt lat="49.80737" lon="4.80106">
        <ele>223</ele>
        <time>2021-05-15T07:45:26.000Z</time>
      </trkpt>
      <trkpt lat="49.80744" lon="4.80103">
        <ele>221</ele>
        <time>2021-05-15T07:45:27.000Z</time>
      </trkpt>
      <trkpt lat="49.8075" lon="4.801">
        <ele>220</ele>
        <time>2021-05-15T07:45:28.000Z</time>
      </trkpt>
      <trkpt lat="49.80755" lon="4.80094">
        <ele>219</ele>
        <time>2021-05-15T07:45:29.000Z</time>
      </trkpt>
      <trkpt lat="49.8076" lon="4.80087">
        <ele>218</ele>
        <time>2021-05-15T07:45:30.000Z</time>
      </trkpt>
      <trkpt lat="49.80764" lon="4.80078">
        <ele>217</ele>
        <time>2021-05-15T07:45:31.000Z</time>
      </trkpt>
      <trkpt lat="49.80768" lon="4.80068">
        <ele>216</ele>
        <time>2021-05-15T07:45:32.000Z</time>
      </trkpt>
      <trkpt lat="49.80772" lon="4.80058">
        <ele>215</ele>
        <time>2021-05-15T07:45:33.000Z</time>
      </trkpt>
      <trkpt lat="49.80775" lon="4.80047">
        <ele>214</ele>
        <time>2021-05-15T07:45:34.000Z</time>
      </trkpt>
      <trkpt lat="49.80779" lon="4.80036">
        <ele>213</ele>
        <time>2021-05-15T07:45:35.000Z</time>
      </trkpt>
      <trkpt lat="49.80782" lon="4.80025">
        <ele>212</ele>
        <time>2021-05-15T07:45:36.000Z</time>
      </trkpt>
      <trkpt lat="49.80785" lon="4.80014">
        <ele>211</ele>
        <time>2021-05-15T07:45:37.000Z</time>
      </trkpt>
      <trkpt lat="49.80789" lon="4.80002">
        <ele>210</ele>
        <time>2021-05-15T07:45:38.000Z</time>
      </trkpt>
      <trkpt lat="49.80792" lon="4.79991">
        <ele>210</ele>
        <time>2021-05-15T07:45:39.000Z</time>
      </trkpt>
      <trkpt lat="49.80795" lon="4.7998">
        <ele>209</ele>
        <time>2021-05-15T07:45:40.000Z</time>
      </trkpt>
      <trkpt lat="49.80799" lon="4.7997">
        <ele>208</ele>
        <time>2021-05-15T07:45:41.000Z</time>
      </trkpt>
      <trkpt lat="49.80802" lon="4.79959">
        <ele>207</ele>
        <time>2021-05-15T07:45:42.000Z</time>
      </trkpt>
      <trkpt lat="49.80806" lon="4.79948">
        <ele>206</ele>
        <time>2021-05-15T07:45:43.000Z</time>
      </trkpt>
      <trkpt lat="49.8081" lon="4.79936">
        <ele>206</ele>
        <time>2021-05-15T07:45:44.000Z</time>
      </trkpt>
      <trkpt lat="49.80814" lon="4.79924">
        <ele>205</ele>
        <time>2021-05-15T07:45:45.000Z</time>
      </trkpt>
      <trkpt lat="49.80819" lon="4.79912">
        <ele>204</ele>
        <time>2021-05-15T07:45:46.000Z</time>
      </trkpt>
      <trkpt lat="49.80824" lon="4.79901">
        <ele>203</ele>
        <time>2021-05-15T07:45:47.000Z</time>
      </trkpt>
      <trkpt lat="49.8083" lon="4.79889">
        <ele>202</ele>
        <time>2021-05-15T07:45:48.000Z</time>
      </trkpt>
      <trkpt lat="49.80837" lon="4.79879">
        <ele>202</ele>
        <time>2021-05-15T07:45:49.000Z</time>
      </trkpt>
      <trkpt lat="49.80844" lon="4.79869">
        <ele>201</ele>
        <time>2021-05-15T07:45:50.000Z</time>
      </trkpt>
      <trkpt lat="49.80853" lon="4.79859">
        <ele>199</ele>
        <time>2021-05-15T07:45:51.000Z</time>
      </trkpt>
      <trkpt lat="49.80862" lon="4.7985">
        <ele>198</ele>
        <time>2021-05-15T07:45:52.000Z</time>
      </trkpt>
      <trkpt lat="49.80871" lon="4.79841">
        <ele>197</ele>
        <time>2021-05-15T07:45:53.000Z</time>
      </trkpt>
      <trkpt lat="49.8088" lon="4.79833">
        <ele>196</ele>
        <time>2021-05-15T07:45:54.000Z</time>
      </trkpt>
      <trkpt lat="49.80889" lon="4.79826">
        <ele>195</ele>
        <time>2021-05-15T07:45:55.000Z</time>
      </trkpt>
      <trkpt lat="49.80897" lon="4.79819">
        <ele>194</ele>
        <time>2021-05-15T07:45:56.000Z</time>
      </trkpt>
      <trkpt lat="49.80905" lon="4.79811">
        <ele>192</ele>
        <time>2021-05-15T07:45:57.000Z</time>
      </trkpt>
      <trkpt lat="49.80913" lon="4.79804">
        <ele>191</ele>
        <time>2021-05-15T07:45:58.000Z</time>
      </trkpt>
      <trkpt lat="49.8092" lon="4.79796">
        <ele>190</ele>
        <time>2021-05-15T07:45:59.000Z</time>
      </trkpt>
      <trkpt lat="49.80928" lon="4.79788">
        <ele>188</ele>
        <time>2021-05-15T07:46:00.000Z</time>
      </trkpt>
      <trkpt lat="49.80936" lon="4.79782">
        <ele>187</ele>
        <time>2021-05-15T07:46:01.000Z</time>
      </trkpt>
      <trkpt lat="49.80944" lon="4.79776">
        <ele>186</ele>
        <time>2021-05-15T07:46:02.000Z</time>
      </trkpt>
      <trkpt lat="49.80952" lon="4.79771">
        <ele>185</ele>
        <time>2021-05-15T07:46:03.000Z</time>
      </trkpt>
      <trkpt lat="49.80959" lon="4.79768">
        <ele>185</ele>
        <time>2021-05-15T07:46:04.000Z</time>
      </trkpt>
      <trkpt lat="49.80966" lon="4.79765">
        <ele>184</ele>
        <time>2021-05-15T07:46:05.000Z</time>
      </trkpt>
      <trkpt lat="49.80973" lon="4.79761">
        <ele>183</ele>
        <time>2021-05-15T07:46:06.000Z</time>
      </trkpt>
      <trkpt lat="49.8098" lon="4.79755">
        <ele>183</ele>
        <time>2021-05-15T07:46:07.000Z</time>
      </trkpt>
      <trkpt lat="49.80986" lon="4.79749">
        <ele>182</ele>
        <time>2021-05-15T07:46:08.000Z</time>
      </trkpt>
      <trkpt lat="49.80992" lon="4.79743">
        <ele>182</ele>
        <time>2021-05-15T07:46:09.000Z</time>
      </trkpt>
      <trkpt lat="49.80999" lon="4.79737">
        <ele>182</ele>
        <time>2021-05-15T07:46:10.000Z</time>
      </trkpt>
      <trkpt lat="49.81005" lon="4.79731">
        <ele>182</ele>
        <time>2021-05-15T07:46:11.000Z</time>
      </trkpt>
      <trkpt lat="49.8101" lon="4.79726">
        <ele>181</ele>
        <time>2021-05-15T07:46:12.000Z</time>
      </trkpt>
      <trkpt lat="49.81016" lon="4.79721">
        <ele>181</ele>
        <time>2021-05-15T07:46:13.000Z</time>
      </trkpt>
      <trkpt lat="49.81022" lon="4.79715">
        <ele>181</ele>
        <time>2021-05-15T07:46:14.000Z</time>
      </trkpt>
      <trkpt lat="49.81028" lon="4.79709">
        <ele>181</ele>
        <time>2021-05-15T07:46:15.000Z</time>
      </trkpt>
      <trkpt lat="49.81034" lon="4.79704">
        <ele>181</ele>
        <time>2021-05-15T07:46:16.000Z</time>
      </trkpt>
      <trkpt lat="49.81039" lon="4.79698">
        <ele>181</ele>
        <time>2021-05-15T07:46:17.000Z</time>
      </trkpt>
      <trkpt lat="49.81045" lon="4.79692">
        <ele>181</ele>
        <time>2021-05-15T07:46:18.000Z</time>
      </trkpt>
      <trkpt lat="49.81051" lon="4.79686">
        <ele>181</ele>
        <time>2021-05-15T07:46:19.000Z</time>
      </trkpt>
      <trkpt lat="49.81057" lon="4.79681">
        <ele>181</ele>
        <time>2021-05-15T07:46:20.000Z</time>
      </trkpt>
      <trkpt lat="49.81063" lon="4.79677">
        <ele>181</ele>
        <time>2021-05-15T07:46:21.000Z</time>
      </trkpt>
      <trkpt lat="49.81069" lon="4.79674">
        <ele>181</ele>
        <time>2021-05-15T07:46:22.000Z</time>
      </trkpt>
      <trkpt lat="49.81076" lon="4.79671">
        <ele>181</ele>
        <time>2021-05-15T07:46:23.000Z</time>
      </trkpt>
      <trkpt lat="49.81081" lon="4.79666">
        <ele>181</ele>
        <time>2021-05-15T07:46:24.000Z</time>
      </trkpt>
      <trkpt lat="49.81086" lon="4.79659">
        <ele>180</ele>
        <time>2021-05-15T07:46:25.000Z</time>
      </trkpt>
      <trkpt lat="49.8109" lon="4.7965">
        <ele>180</ele>
        <time>2021-05-15T07:46:26.000Z</time>
      </trkpt>
      <trkpt lat="49.81093" lon="4.79641">
        <ele>180</ele>
        <time>2021-05-15T07:46:27.000Z</time>
      </trkpt>
      <trkpt lat="49.81096" lon="4.7963">
        <ele>180</ele>
        <time>2021-05-15T07:46:28.000Z</time>
      </trkpt>
      <trkpt lat="49.81098" lon="4.7962">
        <ele>180</ele>
        <time>2021-05-15T07:46:29.000Z</time>
      </trkpt>
      <trkpt lat="49.81099" lon="4.79609">
        <ele>180</ele>
        <time>2021-05-15T07:46:30.000Z</time>
      </trkpt>
      <trkpt lat="49.81099" lon="4.79598">
        <ele>180</ele>
        <time>2021-05-15T07:46:31.000Z</time>
      </trkpt>
      <trkpt lat="49.81098" lon="4.79588">
        <ele>180</ele>
        <time>2021-05-15T07:46:32.000Z</time>
      </trkpt>
      <trkpt lat="49.81096" lon="4.79578">
        <ele>180</ele>
        <time>2021-05-15T07:46:33.000Z</time>
      </trkpt>
      <trkpt lat="49.81093" lon="4.79568">
        <ele>180</ele>
        <time>2021-05-15T07:46:34.000Z</time>
      </trkpt>
      <trkpt lat="49.81089" lon="4.7956">
        <ele>180</ele>
        <time>2021-05-15T07:46:35.000Z</time>
      </trkpt>
      <trkpt lat="49.81085" lon="4.79551">
        <ele>181</ele>
        <time>2021-05-15T07:46:36.000Z</time>
      </trkpt>
      <trkpt lat="49.81081" lon="4.79544">
        <ele>181</ele>
        <time>2021-05-15T07:46:37.000Z</time>
      </trkpt>
      <trkpt lat="49.81077" lon="4.79536">
        <ele>181</ele>
        <time>2021-05-15T07:46:38.000Z</time>
      </trkpt>
      <trkpt lat="49.81073" lon="4.79529">
        <ele>181</ele>
        <time>2021-05-15T07:46:39.000Z</time>
      </trkpt>
      <trkpt lat="49.81069" lon="4.79522">
        <ele>181</ele>
        <time>2021-05-15T07:46:40.000Z</time>
      </trkpt>
      <trkpt lat="49.81066" lon="4.79515">
        <ele>181</ele>
        <time>2021-05-15T07:46:41.000Z</time>
      </trkpt>
      <trkpt lat="49.81062" lon="4.79508">
        <ele>181</ele>
        <time>2021-05-15T07:46:42.000Z</time>
      </trkpt>
      <trkpt lat="49.81059" lon="4.795">
        <ele>181</ele>
        <time>2021-05-15T07:46:43.000Z</time>
      </trkpt>
      <trkpt lat="49.81055" lon="4.79492">
        <ele>181</ele>
        <time>2021-05-15T07:46:44.000Z</time>
      </trkpt>
      <trkpt lat="49.81052" lon="4.79485">
        <ele>182</ele>
        <time>2021-05-15T07:46:45.000Z</time>
      </trkpt>
      <trkpt lat="49.81049" lon="4.79477">
        <ele>182</ele>
        <time>2021-05-15T07:46:46.000Z</time>
      </trkpt>
      <trkpt lat="49.81045" lon="4.7947">
        <ele>182</ele>
        <time>2021-05-15T07:46:47.000Z</time>
      </trkpt>
      <trkpt lat="49.81042" lon="4.79463">
        <ele>182</ele>
        <time>2021-05-15T07:46:48.000Z</time>
      </trkpt>
      <trkpt lat="49.81038" lon="4.79456">
        <ele>182</ele>
        <time>2021-05-15T07:46:49.000Z</time>
      </trkpt>
      <trkpt lat="49.81035" lon="4.79449">
        <ele>182</ele>
        <time>2021-05-15T07:46:50.000Z</time>
      </trkpt>
      <trkpt lat="49.81032" lon="4.79442">
        <ele>182</ele>
        <time>2021-05-15T07:46:51.000Z</time>
      </trkpt>
      <trkpt lat="49.81028" lon="4.79436">
        <ele>182</ele>
        <time>2021-05-15T07:46:52.000Z</time>
      </trkpt>
      <trkpt lat="49.81025" lon="4.7943">
        <ele>182</ele>
        <time>2021-05-15T07:46:53.000Z</time>
      </trkpt>
      <trkpt lat="49.81022" lon="4.79424">
        <ele>182</ele>
        <time>2021-05-15T07:46:54.000Z</time>
      </trkpt>
      <trkpt lat="49.81019" lon="4.79418">
        <ele>182</ele>
        <time>2021-05-15T07:46:55.000Z</time>
      </trkpt>
      <trkpt lat="49.81016" lon="4.79412">
        <ele>182</ele>
        <time>2021-05-15T07:46:56.000Z</time>
      </trkpt>
      <trkpt lat="49.81013" lon="4.79407">
        <ele>183</ele>
        <time>2021-05-15T07:46:57.000Z</time>
      </trkpt>
      <trkpt lat="49.81011" lon="4.79402">
        <ele>183</ele>
        <time>2021-05-15T07:46:58.000Z</time>
      </trkpt>
      <trkpt lat="49.81008" lon="4.79396">
        <ele>183</ele>
        <time>2021-05-15T07:46:59.000Z</time>
      </trkpt>
      <trkpt lat="49.81006" lon="4.7939">
        <ele>183</ele>
        <time>2021-05-15T07:47:00.000Z</time>
      </trkpt>
      <trkpt lat="49.81005" lon="4.79385">
        <ele>183</ele>
        <time>2021-05-15T07:47:01.000Z</time>
      </trkpt>
      <trkpt lat="49.81003" lon="4.79379">
        <ele>183</ele>
        <time>2021-05-15T07:47:02.000Z</time>
      </trkpt>
      <trkpt lat="49.81002" lon="4.79374">
        <ele>184</ele>
        <time>2021-05-15T07:47:03.000Z</time>
      </trkpt>
      <trkpt lat="49.81" lon="4.79369">
        <ele>184</ele>
        <time>2021-05-15T07:47:04.000Z</time>
      </trkpt>
      <trkpt lat="49.80998" lon="4.79364">
        <ele>184</ele>
        <time>2021-05-15T07:47:05.000Z</time>
      </trkpt>
      <trkpt lat="49.80996" lon="4.79359">
        <ele>184</ele>
        <time>2021-05-15T07:47:06.000Z</time>
      </trkpt>
      <trkpt lat="49.80993" lon="4.79356">
        <ele>184</ele>
        <time>2021-05-15T07:47:07.000Z</time>
      </trkpt>
      <trkpt lat="49.80991" lon="4.79352">
        <ele>184</ele>
        <time>2021-05-15T07:47:08.000Z</time>
      </trkpt>
      <trkpt lat="49.80989" lon="4.79347">
        <ele>185</ele>
        <time>2021-05-15T07:47:09.000Z</time>
      </trkpt>
      <trkpt lat="49.80987" lon="4.79342">
        <ele>185</ele>
        <time>2021-05-15T07:47:10.000Z</time>
      </trkpt>
      <trkpt lat="49.80985" lon="4.79338">
        <ele>185</ele>
        <time>2021-05-15T07:47:11.000Z</time>
      </trkpt>
      <trkpt lat="49.80983" lon="4.79334">
        <ele>185</ele>
        <time>2021-05-15T07:47:12.000Z</time>
      </trkpt>
      <trkpt lat="49.8098" lon="4.79331">
        <ele>185</ele>
        <time>2021-05-15T07:47:13.000Z</time>
      </trkpt>
      <trkpt lat="49.80978" lon="4.79327">
        <ele>185</ele>
        <time>2021-05-15T07:47:14.000Z</time>
      </trkpt>
      <trkpt lat="49.80975" lon="4.79324">
        <ele>185</ele>
        <time>2021-05-15T07:47:15.000Z</time>
      </trkpt>
      <trkpt lat="49.80973" lon="4.7932">
        <ele>185</ele>
        <time>2021-05-15T07:47:16.000Z</time>
      </trkpt>
      <trkpt lat="49.80972" lon="4.79317">
        <ele>186</ele>
        <time>2021-05-15T07:47:17.000Z</time>
      </trkpt>
      <trkpt lat="49.8097" lon="4.79314">
        <ele>186</ele>
        <time>2021-05-15T07:47:18.000Z</time>
      </trkpt>
      <trkpt lat="49.80968" lon="4.79311">
        <ele>186</ele>
        <time>2021-05-15T07:47:19.000Z</time>
      </trkpt>
      <trkpt lat="49.80967" lon="4.79308">
        <ele>186</ele>
        <time>2021-05-15T07:47:20.000Z</time>
      </trkpt>
      <trkpt lat="49.80967" lon="4.79307">
        <ele>186</ele>
        <time>2021-05-15T07:47:21.000Z</time>
      </trkpt>
      <trkpt lat="49.80967" lon="4.79308">
        <ele>186</ele>
        <time>2021-05-15T07:47:22.000Z</time>
      </trkpt>
      <trkpt lat="49.80967" lon="4.7931">
        <ele>186</ele>
        <time>2021-05-15T07:47:23.000Z</time>
      </trkpt>
      <trkpt lat="49.80969" lon="4.79312">
        <ele>187</ele>
        <time>2021-05-15T07:47:24.000Z</time>
      </trkpt>
      <trkpt lat="49.80971" lon="4.79316">
        <ele>187</ele>
        <time>2021-05-15T07:47:25.000Z</time>
      </trkpt>
      <trkpt lat="49.80974" lon="4.79322">
        <ele>187</ele>
        <time>2021-05-15T07:47:26.000Z</time>
      </trkpt>
      <trkpt lat="49.80977" lon="4.79327">
        <ele>187</ele>
        <time>2021-05-15T07:47:27.000Z</time>
      </trkpt>
      <trkpt lat="49.8098" lon="4.79334">
        <ele>187</ele>
        <time>2021-05-15T07:47:28.000Z</time>
      </trkpt>
      <trkpt lat="49.80983" lon="4.7934">
        <ele>187</ele>
        <time>2021-05-15T07:47:29.000Z</time>
      </trkpt>
      <trkpt lat="49.80986" lon="4.79345">
        <ele>187</ele>
        <time>2021-05-15T07:47:30.000Z</time>
      </trkpt>
      <trkpt lat="49.80988" lon="4.79351">
        <ele>187</ele>
        <time>2021-05-15T07:47:31.000Z</time>
      </trkpt>
      <trkpt lat="49.8099" lon="4.79354">
        <ele>186</ele>
        <time>2021-05-15T07:47:32.000Z</time>
      </trkpt>
      <trkpt lat="49.80993" lon="4.79357">
        <ele>186</ele>
        <time>2021-05-15T07:47:33.000Z</time>
      </trkpt>
      <trkpt lat="49.80995" lon="4.79357">
        <ele>186</ele>
        <time>2021-05-15T07:47:34.000Z</time>
      </trkpt>
      <trkpt lat="49.80998" lon="4.79356">
        <ele>187</ele>
        <time>2021-05-15T07:47:35.000Z</time>
      </trkpt>
      <trkpt lat="49.81" lon="4.79353">
        <ele>187</ele>
        <time>2021-05-15T07:47:36.000Z</time>
      </trkpt>
      <trkpt lat="49.81002" lon="4.79349">
        <ele>187</ele>
        <time>2021-05-15T07:47:37.000Z</time>
      </trkpt>
      <trkpt lat="49.81004" lon="4.79344">
        <ele>187</ele>
        <time>2021-05-15T07:47:38.000Z</time>
      </trkpt>
      <trkpt lat="49.81005" lon="4.79338">
        <ele>187</ele>
        <time>2021-05-15T07:47:39.000Z</time>
      </trkpt>
      <trkpt lat="49.81006" lon="4.79333">
        <ele>188</ele>
        <time>2021-05-15T07:47:40.000Z</time>
      </trkpt>
      <trkpt lat="49.81006" lon="4.79328">
        <ele>188</ele>
        <time>2021-05-15T07:47:41.000Z</time>
      </trkpt>
      <trkpt lat="49.81004" lon="4.79324">
        <ele>189</ele>
        <time>2021-05-15T07:47:42.000Z</time>
      </trkpt>
      <trkpt lat="49.81004" lon="4.7932">
        <ele>189</ele>
        <time>2021-05-15T07:47:43.000Z</time>
      </trkpt>
      <trkpt lat="49.81003" lon="4.79316">
        <ele>189</ele>
        <time>2021-05-15T07:47:44.000Z</time>
      </trkpt>
      <trkpt lat="49.81002" lon="4.79312">
        <ele>190</ele>
        <time>2021-05-15T07:47:45.000Z</time>
      </trkpt>
      <trkpt lat="49.81001" lon="4.79309">
        <ele>190</ele>
        <time>2021-05-15T07:47:46.000Z</time>
      </trkpt>
      <trkpt lat="49.81" lon="4.79305">
        <ele>190</ele>
        <time>2021-05-15T07:47:47.000Z</time>
      </trkpt>
      <trkpt lat="49.80998" lon="4.79302">
        <ele>190</ele>
        <time>2021-05-15T07:47:48.000Z</time>
      </trkpt>
      <trkpt lat="49.80997" lon="4.79298">
        <ele>191</ele>
        <time>2021-05-15T07:47:49.000Z</time>
      </trkpt>
      <trkpt lat="49.80996" lon="4.79295">
        <ele>191</ele>
        <time>2021-05-15T07:47:50.000Z</time>
      </trkpt>
      <trkpt lat="49.80995" lon="4.79291">
        <ele>191</ele>
        <time>2021-05-15T07:47:51.000Z</time>
      </trkpt>
      <trkpt lat="49.80993" lon="4.79287">
        <ele>191</ele>
        <time>2021-05-15T07:47:52.000Z</time>
      </trkpt>
      <trkpt lat="49.80991" lon="4.79283">
        <ele>192</ele>
        <time>2021-05-15T07:47:53.000Z</time>
      </trkpt>
      <trkpt lat="49.80989" lon="4.79279">
        <ele>192</ele>
        <time>2021-05-15T07:47:54.000Z</time>
      </trkpt>
      <trkpt lat="49.80987" lon="4.79275">
        <ele>192</ele>
        <time>2021-05-15T07:47:55.000Z</time>
      </trkpt>
      <trkpt lat="49.80986" lon="4.79271">
        <ele>192</ele>
        <time>2021-05-15T07:47:56.000Z</time>
      </trkpt>
      <trkpt lat="49.80984" lon="4.79266">
        <ele>192</ele>
        <time>2021-05-15T07:47:57.000Z</time>
      </trkpt>
      <trkpt lat="49.80982" lon="4.79261">
        <ele>192</ele>
        <time>2021-05-15T07:47:58.000Z</time>
      </trkpt>
      <trkpt lat="49.8098" lon="4.79256">
        <ele>192</ele>
        <time>2021-05-15T07:47:59.000Z</time>
      </trkpt>
      <trkpt lat="49.80978" lon="4.79251">
        <ele>193</ele>
        <time>2021-05-15T07:48:00.000Z</time>
      </trkpt>
      <trkpt lat="49.80976" lon="4.79245">
        <ele>193</ele>
        <time>2021-05-15T07:48:01.000Z</time>
      </trkpt>
      <trkpt lat="49.80974" lon="4.7924">
        <ele>193</ele>
        <time>2021-05-15T07:48:02.000Z</time>
      </trkpt>
      <trkpt lat="49.80972" lon="4.79235">
        <ele>193</ele>
        <time>2021-05-15T07:48:03.000Z</time>
      </trkpt>
      <trkpt lat="49.8097" lon="4.79229">
        <ele>193</ele>
        <time>2021-05-15T07:48:04.000Z</time>
      </trkpt>
      <trkpt lat="49.80968" lon="4.79224">
        <ele>193</ele>
        <time>2021-05-15T07:48:05.000Z</time>
      </trkpt>
      <trkpt lat="49.80966" lon="4.79218">
        <ele>193</ele>
        <time>2021-05-15T07:48:06.000Z</time>
      </trkpt>
      <trkpt lat="49.80964" lon="4.79213">
        <ele>193</ele>
        <time>2021-05-15T07:48:07.000Z</time>
      </trkpt>
      <trkpt lat="49.80962" lon="4.79208">
        <ele>193</ele>
        <time>2021-05-15T07:48:08.000Z</time>
      </trkpt>
      <trkpt lat="49.8096" lon="4.79202">
        <ele>193</ele>
        <time>2021-05-15T07:48:09.000Z</time>
      </trkpt>
      <trkpt lat="49.80958" lon="4.79197">
        <ele>193</ele>
        <time>2021-05-15T07:48:10.000Z</time>
      </trkpt>
      <trkpt lat="49.80956" lon="4.79192">
        <ele>193</ele>
        <time>2021-05-15T07:48:11.000Z</time>
      </trkpt>
      <trkpt lat="49.80954" lon="4.79187">
        <ele>194</ele>
        <time>2021-05-15T07:48:12.000Z</time>
      </trkpt>
      <trkpt lat="49.80953" lon="4.79182">
        <ele>194</ele>
        <time>2021-05-15T07:48:13.000Z</time>
      </trkpt>
      <trkpt lat="49.80951" lon="4.79177">
        <ele>194</ele>
        <time>2021-05-15T07:48:14.000Z</time>
      </trkpt>
      <trkpt lat="49.80949" lon="4.79173">
        <ele>194</ele>
        <time>2021-05-15T07:48:15.000Z</time>
      </trkpt>
      <trkpt lat="49.80948" lon="4.79168">
        <ele>194</ele>
        <time>2021-05-15T07:48:16.000Z</time>
      </trkpt>
      <trkpt lat="49.80946" lon="4.79163">
        <ele>194</ele>
        <time>2021-05-15T07:48:17.000Z</time>
      </trkpt>
      <trkpt lat="49.80945" lon="4.79159">
        <ele>194</ele>
        <time>2021-05-15T07:48:18.000Z</time>
      </trkpt>
      <trkpt lat="49.80943" lon="4.79155">
        <ele>194</ele>
        <time>2021-05-15T07:48:19.000Z</time>
      </trkpt>
      <trkpt lat="49.80941" lon="4.79151">
        <ele>195</ele>
        <time>2021-05-15T07:48:20.000Z</time>
      </trkpt>
      <trkpt lat="49.80939" lon="4.79147">
        <ele>195</ele>
        <time>2021-05-15T07:48:21.000Z</time>
      </trkpt>
      <trkpt lat="49.80938" lon="4.79142">
        <ele>195</ele>
        <time>2021-05-15T07:48:22.000Z</time>
      </trkpt>
      <trkpt lat="49.80936" lon="4.79138">
        <ele>195</ele>
        <time>2021-05-15T07:48:23.000Z</time>
      </trkpt>
      <trkpt lat="49.80934" lon="4.79133">
        <ele>195</ele>
        <time>2021-05-15T07:48:24.000Z</time>
      </trkpt>
      <trkpt lat="49.80932" lon="4.79129">
        <ele>195</ele>
        <time>2021-05-15T07:48:25.000Z</time>
      </trkpt>
      <trkpt lat="49.8093" lon="4.79124">
        <ele>196</ele>
        <time>2021-05-15T07:48:26.000Z</time>
      </trkpt>
      <trkpt lat="49.80928" lon="4.79119">
        <ele>196</ele>
        <time>2021-05-15T07:48:27.000Z</time>
      </trkpt>
      <trkpt lat="49.80926" lon="4.79115">
        <ele>196</ele>
        <time>2021-05-15T07:48:28.000Z</time>
      </trkpt>
      <trkpt lat="49.80924" lon="4.7911">
        <ele>196</ele>
        <time>2021-05-15T07:48:29.000Z</time>
      </trkpt>
      <trkpt lat="49.80922" lon="4.79105">
        <ele>196</ele>
        <time>2021-05-15T07:48:30.000Z</time>
      </trkpt>
      <trkpt lat="49.80919" lon="4.791">
        <ele>196</ele>
        <time>2021-05-15T07:48:31.000Z</time>
      </trkpt>
      <trkpt lat="49.80917" lon="4.79096">
        <ele>196</ele>
        <time>2021-05-15T07:48:32.000Z</time>
      </trkpt>
      <trkpt lat="49.80915" lon="4.79091">
        <ele>197</ele>
        <time>2021-05-15T07:48:33.000Z</time>
      </trkpt>
      <trkpt lat="49.80913" lon="4.79087">
        <ele>197</ele>
        <time>2021-05-15T07:48:34.000Z</time>
      </trkpt>
      <trkpt lat="49.80911" lon="4.79082">
        <ele>197</ele>
        <time>2021-05-15T07:48:35.000Z</time>
      </trkpt>
      <trkpt lat="49.80909" lon="4.79078">
        <ele>197</ele>
        <time>2021-05-15T07:48:36.000Z</time>
      </trkpt>
      <trkpt lat="49.80907" lon="4.79074">
        <ele>197</ele>
        <time>2021-05-15T07:48:37.000Z</time>
      </trkpt>
      <trkpt lat="49.80906" lon="4.7907">
        <ele>198</ele>
        <time>2021-05-15T07:48:38.000Z</time>
      </trkpt>
      <trkpt lat="49.80904" lon="4.79065">
        <ele>198</ele>
        <time>2021-05-15T07:48:39.000Z</time>
      </trkpt>
      <trkpt lat="49.80902" lon="4.79061">
        <ele>198</ele>
        <time>2021-05-15T07:48:40.000Z</time>
      </trkpt>
      <trkpt lat="49.809" lon="4.79057">
        <ele>198</ele>
        <time>2021-05-15T07:48:41.000Z</time>
      </trkpt>
      <trkpt lat="49.80898" lon="4.79052">
        <ele>198</ele>
        <time>2021-05-15T07:48:42.000Z</time>
      </trkpt>
      <trkpt lat="49.80896" lon="4.79048">
        <ele>198</ele>
        <time>2021-05-15T07:48:43.000Z</time>
      </trkpt>
      <trkpt lat="49.80894" lon="4.79045">
        <ele>199</ele>
        <time>2021-05-15T07:48:44.000Z</time>
      </trkpt>
      <trkpt lat="49.80891" lon="4.79041">
        <ele>199</ele>
        <time>2021-05-15T07:48:45.000Z</time>
      </trkpt>
      <trkpt lat="49.80889" lon="4.79037">
        <ele>199</ele>
        <time>2021-05-15T07:48:46.000Z</time>
      </trkpt>
      <trkpt lat="49.80887" lon="4.79034">
        <ele>199</ele>
        <time>2021-05-15T07:48:47.000Z</time>
      </trkpt>
      <trkpt lat="49.80885" lon="4.79031">
        <ele>199</ele>
        <time>2021-05-15T07:48:48.000Z</time>
      </trkpt>
      <trkpt lat="49.80883" lon="4.79027">
        <ele>199</ele>
        <time>2021-05-15T07:48:49.000Z</time>
      </trkpt>
      <trkpt lat="49.80881" lon="4.79024">
        <ele>199</ele>
        <time>2021-05-15T07:48:50.000Z</time>
      </trkpt>
      <trkpt lat="49.80879" lon="4.79021">
        <ele>200</ele>
        <time>2021-05-15T07:48:51.000Z</time>
      </trkpt>
      <trkpt lat="49.80878" lon="4.79019">
        <ele>200</ele>
        <time>2021-05-15T07:48:52.000Z</time>
      </trkpt>
      <trkpt lat="49.80876" lon="4.79016">
        <ele>200</ele>
        <time>2021-05-15T07:48:53.000Z</time>
      </trkpt>
      <trkpt lat="49.80875" lon="4.79014">
        <ele>200</ele>
        <time>2021-05-15T07:48:54.000Z</time>
      </trkpt>
      <trkpt lat="49.80873" lon="4.79011">
        <ele>200</ele>
        <time>2021-05-15T07:48:55.000Z</time>
      </trkpt>
      <trkpt lat="49.80871" lon="4.79009">
        <ele>200</ele>
        <time>2021-05-15T07:48:56.000Z</time>
      </trkpt>
      <trkpt lat="49.80869" lon="4.79006">
        <ele>200</ele>
        <time>2021-05-15T07:48:57.000Z</time>
      </trkpt>
      <trkpt lat="49.80866" lon="4.79003">
        <ele>201</ele>
        <time>2021-05-15T07:48:58.000Z</time>
      </trkpt>
      <trkpt lat="49.80863" lon="4.79">
        <ele>201</ele>
        <time>2021-05-15T07:48:59.000Z</time>
      </trkpt>
      <trkpt lat="49.80861" lon="4.78998">
        <ele>201</ele>
        <time>2021-05-15T07:49:00.000Z</time>
      </trkpt>
      <trkpt lat="49.80859" lon="4.78995">
        <ele>201</ele>
        <time>2021-05-15T07:49:01.000Z</time>
      </trkpt>
      <trkpt lat="49.80857" lon="4.78993">
        <ele>201</ele>
        <time>2021-05-15T07:49:02.000Z</time>
      </trkpt>
      <trkpt lat="49.80856" lon="4.78991">
        <ele>201</ele>
        <time>2021-05-15T07:49:03.000Z</time>
      </trkpt>
      <trkpt lat="49.80854" lon="4.78989">
        <ele>201</ele>
        <time>2021-05-15T07:49:04.000Z</time>
      </trkpt>
      <trkpt lat="49.80852" lon="4.78987">
        <ele>201</ele>
        <time>2021-05-15T07:49:05.000Z</time>
      </trkpt>
      <trkpt lat="49.8085" lon="4.78984">
        <ele>202</ele>
        <time>2021-05-15T07:49:06.000Z</time>
      </trkpt>
      <trkpt lat="49.80848" lon="4.78981">
        <ele>202</ele>
        <time>2021-05-15T07:49:07.000Z</time>
      </trkpt>
      <trkpt lat="49.80845" lon="4.78979">
        <ele>202</ele>
        <time>2021-05-15T07:49:08.000Z</time>
      </trkpt>
      <trkpt lat="49.80843" lon="4.78977">
        <ele>202</ele>
        <time>2021-05-15T07:49:09.000Z</time>
      </trkpt>
      <trkpt lat="49.8084" lon="4.78974">
        <ele>202</ele>
        <time>2021-05-15T07:49:10.000Z</time>
      </trkpt>
      <trkpt lat="49.80838" lon="4.78971">
        <ele>203</ele>
        <time>2021-05-15T07:49:11.000Z</time>
      </trkpt>
      <trkpt lat="49.80835" lon="4.78968">
        <ele>203</ele>
        <time>2021-05-15T07:49:12.000Z</time>
      </trkpt>
      <trkpt lat="49.80832" lon="4.78965">
        <ele>203</ele>
        <time>2021-05-15T07:49:13.000Z</time>
      </trkpt>
      <trkpt lat="49.8083" lon="4.78963">
        <ele>203</ele>
        <time>2021-05-15T07:49:14.000Z</time>
      </trkpt>
      <trkpt lat="49.80827" lon="4.7896">
        <ele>203</ele>
        <time>2021-05-15T07:49:15.000Z</time>
      </trkpt>
      <trkpt lat="49.80824" lon="4.78957">
        <ele>204</ele>
        <time>2021-05-15T07:49:16.000Z</time>
      </trkpt>
      <trkpt lat="49.80821" lon="4.78954">
        <ele>204</ele>
        <time>2021-05-15T07:49:17.000Z</time>
      </trkpt>
      <trkpt lat="49.80819" lon="4.78951">
        <ele>204</ele>
        <time>2021-05-15T07:49:18.000Z</time>
      </trkpt>
      <trkpt lat="49.80817" lon="4.78949">
        <ele>204</ele>
        <time>2021-05-15T07:49:19.000Z</time>
      </trkpt>
      <trkpt lat="49.80815" lon="4.78946">
        <ele>204</ele>
        <time>2021-05-15T07:49:20.000Z</time>
      </trkpt>
      <trkpt lat="49.80812" lon="4.78944">
        <ele>205</ele>
        <time>2021-05-15T07:49:21.000Z</time>
      </trkpt>
      <trkpt lat="49.8081" lon="4.78941">
        <ele>205</ele>
        <time>2021-05-15T07:49:22.000Z</time>
      </trkpt>
      <trkpt lat="49.80809" lon="4.78939">
        <ele>205</ele>
        <time>2021-05-15T07:49:23.000Z</time>
      </trkpt>
      <trkpt lat="49.80806" lon="4.78937">
        <ele>205</ele>
        <time>2021-05-15T07:49:24.000Z</time>
      </trkpt>
      <trkpt lat="49.80805" lon="4.78936">
        <ele>206</ele>
        <time>2021-05-15T07:49:25.000Z</time>
      </trkpt>
      <trkpt lat="49.80802" lon="4.78934">
        <ele>206</ele>
        <time>2021-05-15T07:49:26.000Z</time>
      </trkpt>
      <trkpt lat="49.80799" lon="4.78933">
        <ele>206</ele>
        <time>2021-05-15T07:49:27.000Z</time>
      </trkpt>
      <trkpt lat="49.80797" lon="4.78931">
        <ele>206</ele>
        <time>2021-05-15T07:49:28.000Z</time>
      </trkpt>
      <trkpt lat="49.80794" lon="4.78929">
        <ele>207</ele>
        <time>2021-05-15T07:49:29.000Z</time>
      </trkpt>
      <trkpt lat="49.80792" lon="4.78927">
        <ele>207</ele>
        <time>2021-05-15T07:49:30.000Z</time>
      </trkpt>
      <trkpt lat="49.8079" lon="4.78924">
        <ele>207</ele>
        <time>2021-05-15T07:49:31.000Z</time>
      </trkpt>
      <trkpt lat="49.80787" lon="4.78922">
        <ele>207</ele>
        <time>2021-05-15T07:49:32.000Z</time>
      </trkpt>
      <trkpt lat="49.80785" lon="4.7892">
        <ele>207</ele>
        <time>2021-05-15T07:49:33.000Z</time>
      </trkpt>
      <trkpt lat="49.80782" lon="4.78918">
        <ele>207</ele>
        <time>2021-05-15T07:49:34.000Z</time>
      </trkpt>
      <trkpt lat="49.80779" lon="4.78916">
        <ele>207</ele>
        <time>2021-05-15T07:49:35.000Z</time>
      </trkpt>
      <trkpt lat="49.80775" lon="4.78914">
        <ele>207</ele>
        <time>2021-05-15T07:49:36.000Z</time>
      </trkpt>
      <trkpt lat="49.80772" lon="4.78913">
        <ele>207</ele>
        <time>2021-05-15T07:49:37.000Z</time>
      </trkpt>
      <trkpt lat="49.80769" lon="4.78911">
        <ele>208</ele>
        <time>2021-05-15T07:49:38.000Z</time>
      </trkpt>
      <trkpt lat="49.80765" lon="4.7891">
        <ele>208</ele>
        <time>2021-05-15T07:49:39.000Z</time>
      </trkpt>
      <trkpt lat="49.80761" lon="4.78908">
        <ele>208</ele>
        <time>2021-05-15T07:49:40.000Z</time>
      </trkpt>
      <trkpt lat="49.80758" lon="4.78906">
        <ele>208</ele>
        <time>2021-05-15T07:49:41.000Z</time>
      </trkpt>
      <trkpt lat="49.80755" lon="4.78904">
        <ele>208</ele>
        <time>2021-05-15T07:49:42.000Z</time>
      </trkpt>
      <trkpt lat="49.80752" lon="4.78902">
        <ele>208</ele>
        <time>2021-05-15T07:49:43.000Z</time>
      </trkpt>
      <trkpt lat="49.80749" lon="4.78901">
        <ele>208</ele>
        <time>2021-05-15T07:49:44.000Z</time>
      </trkpt>
      <trkpt lat="49.80746" lon="4.78899">
        <ele>208</ele>
        <time>2021-05-15T07:49:45.000Z</time>
      </trkpt>
      <trkpt lat="49.80742" lon="4.78898">
        <ele>209</ele>
        <time>2021-05-15T07:49:46.000Z</time>
      </trkpt>
      <trkpt lat="49.80739" lon="4.78897">
        <ele>209</ele>
        <time>2021-05-15T07:49:47.000Z</time>
      </trkpt>
      <trkpt lat="49.80736" lon="4.78897">
        <ele>209</ele>
        <time>2021-05-15T07:49:48.000Z</time>
      </trkpt>
      <trkpt lat="49.80732" lon="4.78897">
        <ele>209</ele>
        <time>2021-05-15T07:49:49.000Z</time>
      </trkpt>
      <trkpt lat="49.80728" lon="4.78898">
        <ele>209</ele>
        <time>2021-05-15T07:49:50.000Z</time>
      </trkpt>
      <trkpt lat="49.80723" lon="4.78898">
        <ele>209</ele>
        <time>2021-05-15T07:49:51.000Z</time>
      </trkpt>
      <trkpt lat="49.80719" lon="4.78898">
        <ele>209</ele>
        <time>2021-05-15T07:49:52.000Z</time>
      </trkpt>
      <trkpt lat="49.80716" lon="4.78897">
        <ele>209</ele>
        <time>2021-05-15T07:49:53.000Z</time>
      </trkpt>
      <trkpt lat="49.80711" lon="4.78897">
        <ele>209</ele>
        <time>2021-05-15T07:49:54.000Z</time>
      </trkpt>
      <trkpt lat="49.80706" lon="4.78898">
        <ele>209</ele>
        <time>2021-05-15T07:49:55.000Z</time>
      </trkpt>
      <trkpt lat="49.80702" lon="4.78899">
        <ele>209</ele>
        <time>2021-05-15T07:49:56.000Z</time>
      </trkpt>
      <trkpt lat="49.80697" lon="4.78899">
        <ele>210</ele>
        <time>2021-05-15T07:49:57.000Z</time>
      </trkpt>
      <trkpt lat="49.80693" lon="4.78898">
        <ele>210</ele>
        <time>2021-05-15T07:49:58.000Z</time>
      </trkpt>
      <trkpt lat="49.8069" lon="4.78898">
        <ele>210</ele>
        <time>2021-05-15T07:49:59.000Z</time>
      </trkpt>
      <trkpt lat="49.80686" lon="4.78897">
        <ele>210</ele>
        <time>2021-05-15T07:50:00.000Z</time>
      </trkpt>
      <trkpt lat="49.80683" lon="4.78897">
        <ele>210</ele>
        <time>2021-05-15T07:50:01.000Z</time>
      </trkpt>
      <trkpt lat="49.8068" lon="4.78896">
        <ele>210</ele>
        <time>2021-05-15T07:50:02.000Z</time>
      </trkpt>
      <trkpt lat="49.80677" lon="4.78894">
        <ele>210</ele>
        <time>2021-05-15T07:50:03.000Z</time>
      </trkpt>
      <trkpt lat="49.80674" lon="4.78891">
        <ele>210</ele>
        <time>2021-05-15T07:50:04.000Z</time>
      </trkpt>
      <trkpt lat="49.80669" lon="4.78889">
        <ele>210</ele>
        <time>2021-05-15T07:50:05.000Z</time>
      </trkpt>
      <trkpt lat="49.80665" lon="4.78886">
        <ele>210</ele>
        <time>2021-05-15T07:50:06.000Z</time>
      </trkpt>
      <trkpt lat="49.80661" lon="4.78883">
        <ele>210</ele>
        <time>2021-05-15T07:50:07.000Z</time>
      </trkpt>
      <trkpt lat="49.80658" lon="4.78881">
        <ele>210</ele>
        <time>2021-05-15T07:50:08.000Z</time>
      </trkpt>
      <trkpt lat="49.80655" lon="4.78877">
        <ele>210</ele>
        <time>2021-05-15T07:50:09.000Z</time>
      </trkpt>
      <trkpt lat="49.80651" lon="4.78873">
        <ele>210</ele>
        <time>2021-05-15T07:50:10.000Z</time>
      </trkpt>
      <trkpt lat="49.80648" lon="4.78868">
        <ele>210</ele>
        <time>2021-05-15T07:50:11.000Z</time>
      </trkpt>
      <trkpt lat="49.80646" lon="4.78864">
        <ele>210</ele>
        <time>2021-05-15T07:50:12.000Z</time>
      </trkpt>
      <trkpt lat="49.80644" lon="4.78859">
        <ele>210</ele>
        <time>2021-05-15T07:50:13.000Z</time>
      </trkpt>
      <trkpt lat="49.80641" lon="4.78855">
        <ele>210</ele>
        <time>2021-05-15T07:50:14.000Z</time>
      </trkpt>
      <trkpt lat="49.80639" lon="4.78852">
        <ele>210</ele>
        <time>2021-05-15T07:50:15.000Z</time>
      </trkpt>
      <trkpt lat="49.80637" lon="4.78848">
        <ele>210</ele>
        <time>2021-05-15T07:50:16.000Z</time>
      </trkpt>
      <trkpt lat="49.80634" lon="4.78844">
        <ele>210</ele>
        <time>2021-05-15T07:50:17.000Z</time>
      </trkpt>
      <trkpt lat="49.80632" lon="4.78841">
        <ele>210</ele>
        <time>2021-05-15T07:50:18.000Z</time>
      </trkpt>
      <trkpt lat="49.8063" lon="4.78838">
        <ele>211</ele>
        <time>2021-05-15T07:50:19.000Z</time>
      </trkpt>
      <trkpt lat="49.80628" lon="4.78836">
        <ele>211</ele>
        <time>2021-05-15T07:50:20.000Z</time>
      </trkpt>
      <trkpt lat="49.80626" lon="4.78833">
        <ele>211</ele>
        <time>2021-05-15T07:50:21.000Z</time>
      </trkpt>
      <trkpt lat="49.80624" lon="4.7883">
        <ele>211</ele>
        <time>2021-05-15T07:50:22.000Z</time>
      </trkpt>
      <trkpt lat="49.80622" lon="4.78827">
        <ele>211</ele>
        <time>2021-05-15T07:50:23.000Z</time>
      </trkpt>
      <trkpt lat="49.8062" lon="4.78822">
        <ele>211</ele>
        <time>2021-05-15T07:50:24.000Z</time>
      </trkpt>
      <trkpt lat="49.80619" lon="4.78818">
        <ele>211</ele>
        <time>2021-05-15T07:50:25.000Z</time>
      </trkpt>
      <trkpt lat="49.80617" lon="4.78813">
        <ele>212</ele>
        <time>2021-05-15T07:50:26.000Z</time>
      </trkpt>
      <trkpt lat="49.80615" lon="4.78809">
        <ele>212</ele>
        <time>2021-05-15T07:50:27.000Z</time>
      </trkpt>
      <trkpt lat="49.80614" lon="4.78805">
        <ele>212</ele>
        <time>2021-05-15T07:50:28.000Z</time>
      </trkpt>
      <trkpt lat="49.80611" lon="4.78801">
        <ele>212</ele>
        <time>2021-05-15T07:50:29.000Z</time>
      </trkpt>
      <trkpt lat="49.80608" lon="4.78797">
        <ele>212</ele>
        <time>2021-05-15T07:50:30.000Z</time>
      </trkpt>
      <trkpt lat="49.80606" lon="4.78793">
        <ele>213</ele>
        <time>2021-05-15T07:50:31.000Z</time>
      </trkpt>
      <trkpt lat="49.80603" lon="4.78788">
        <ele>213</ele>
        <time>2021-05-15T07:50:32.000Z</time>
      </trkpt>
      <trkpt lat="49.80601" lon="4.78783">
        <ele>213</ele>
        <time>2021-05-15T07:50:33.000Z</time>
      </trkpt>
      <trkpt lat="49.80599" lon="4.78778">
        <ele>213</ele>
        <time>2021-05-15T07:50:34.000Z</time>
      </trkpt>
      <trkpt lat="49.80597" lon="4.78773">
        <ele>213</ele>
        <time>2021-05-15T07:50:35.000Z</time>
      </trkpt>
      <trkpt lat="49.80594" lon="4.78768">
        <ele>213</ele>
        <time>2021-05-15T07:50:36.000Z</time>
      </trkpt>
      <trkpt lat="49.80592" lon="4.78763">
        <ele>213</ele>
        <time>2021-05-15T07:50:37.000Z</time>
      </trkpt>
      <trkpt lat="49.8059" lon="4.78759">
        <ele>213</ele>
        <time>2021-05-15T07:50:38.000Z</time>
      </trkpt>
      <trkpt lat="49.80589" lon="4.78754">
        <ele>214</ele>
        <time>2021-05-15T07:50:39.000Z</time>
      </trkpt>
      <trkpt lat="49.80588" lon="4.7875">
        <ele>214</ele>
        <time>2021-05-15T07:50:40.000Z</time>
      </trkpt>
      <trkpt lat="49.80586" lon="4.78745">
        <ele>214</ele>
        <time>2021-05-15T07:50:41.000Z</time>
      </trkpt>
      <trkpt lat="49.80585" lon="4.78742">
        <ele>214</ele>
        <time>2021-05-15T07:50:42.000Z</time>
      </trkpt>
      <trkpt lat="49.80585" lon="4.78738">
        <ele>214</ele>
        <time>2021-05-15T07:50:43.000Z</time>
      </trkpt>
      <trkpt lat="49.80584" lon="4.78734">
        <ele>214</ele>
        <time>2021-05-15T07:50:44.000Z</time>
      </trkpt>
      <trkpt lat="49.80585" lon="4.78729">
        <ele>214</ele>
        <time>2021-05-15T07:50:45.000Z</time>
      </trkpt>
      <trkpt lat="49.80585" lon="4.78723">
        <ele>214</ele>
        <time>2021-05-15T07:50:46.000Z</time>
      </trkpt>
      <trkpt lat="49.80586" lon="4.78718">
        <ele>215</ele>
        <time>2021-05-15T07:50:47.000Z</time>
      </trkpt>
      <trkpt lat="49.80588" lon="4.78713">
        <ele>215</ele>
        <time>2021-05-15T07:50:48.000Z</time>
      </trkpt>
      <trkpt lat="49.80589" lon="4.78709">
        <ele>215</ele>
        <time>2021-05-15T07:50:49.000Z</time>
      </trkpt>
      <trkpt lat="49.80589" lon="4.78705">
        <ele>215</ele>
        <time>2021-05-15T07:50:50.000Z</time>
      </trkpt>
      <trkpt lat="49.80589" lon="4.78702">
        <ele>215</ele>
        <time>2021-05-15T07:50:51.000Z</time>
      </trkpt>
      <trkpt lat="49.80588" lon="4.78699">
        <ele>215</ele>
        <time>2021-05-15T07:50:52.000Z</time>
      </trkpt>
      <trkpt lat="49.80587" lon="4.78698">
        <ele>215</ele>
        <time>2021-05-15T07:50:53.000Z</time>
      </trkpt>
      <trkpt lat="49.80586" lon="4.78696">
        <ele>216</ele>
        <time>2021-05-15T07:50:54.000Z</time>
      </trkpt>
      <trkpt lat="49.80584" lon="4.78695">
        <ele>216</ele>
        <time>2021-05-15T07:50:55.000Z</time>
      </trkpt>
      <trkpt lat="49.80583" lon="4.78692">
        <ele>216</ele>
        <time>2021-05-15T07:50:56.000Z</time>
      </trkpt>
      <trkpt lat="49.80583" lon="4.7869">
        <ele>216</ele>
        <time>2021-05-15T07:50:57.000Z</time>
      </trkpt>
      <trkpt lat="49.80584" lon="4.78687">
        <ele>216</ele>
        <time>2021-05-15T07:50:58.000Z</time>
      </trkpt>
      <trkpt lat="49.80584" lon="4.78685">
        <ele>216</ele>
        <time>2021-05-15T07:50:59.000Z</time>
      </trkpt>
      <trkpt lat="49.80585" lon="4.78682">
        <ele>217</ele>
        <time>2021-05-15T07:51:00.000Z</time>
      </trkpt>
      <trkpt lat="49.80586" lon="4.78681">
        <ele>217</ele>
        <time>2021-05-15T07:51:01.000Z</time>
      </trkpt>
      <trkpt lat="49.80587" lon="4.78679">
        <ele>217</ele>
        <time>2021-05-15T07:51:02.000Z</time>
      </trkpt>
      <trkpt lat="49.80588" lon="4.78677">
        <ele>217</ele>
        <time>2021-05-15T07:51:03.000Z</time>
      </trkpt>
      <trkpt lat="49.80589" lon="4.78676">
        <ele>217</ele>
        <time>2021-05-15T07:51:04.000Z</time>
      </trkpt>
      <trkpt lat="49.8059" lon="4.78674">
        <ele>218</ele>
        <time>2021-05-15T07:51:05.000Z</time>
      </trkpt>
      <trkpt lat="49.80591" lon="4.78672">
        <ele>218</ele>
        <time>2021-05-15T07:51:06.000Z</time>
      </trkpt>
      <trkpt lat="49.80591" lon="4.7867">
        <ele>218</ele>
        <time>2021-05-15T07:51:07.000Z</time>
      </trkpt>
      <trkpt lat="49.80592" lon="4.78668">
        <ele>218</ele>
        <time>2021-05-15T07:51:08.000Z</time>
      </trkpt>
      <trkpt lat="49.80593" lon="4.78666">
        <ele>219</ele>
        <time>2021-05-15T07:51:09.000Z</time>
      </trkpt>
      <trkpt lat="49.80593" lon="4.78664">
        <ele>219</ele>
        <time>2021-05-15T07:51:10.000Z</time>
      </trkpt>
      <trkpt lat="49.80594" lon="4.78662">
        <ele>219</ele>
        <time>2021-05-15T07:51:11.000Z</time>
      </trkpt>
      <trkpt lat="49.80594" lon="4.7866">
        <ele>220</ele>
        <time>2021-05-15T07:51:12.000Z</time>
      </trkpt>
      <trkpt lat="49.80594" lon="4.78657">
        <ele>220</ele>
        <time>2021-05-15T07:51:13.000Z</time>
      </trkpt>
      <trkpt lat="49.80595" lon="4.78655">
        <ele>220</ele>
        <time>2021-05-15T07:51:14.000Z</time>
      </trkpt>
      <trkpt lat="49.80597" lon="4.78653">
        <ele>221</ele>
        <time>2021-05-15T07:51:15.000Z</time>
      </trkpt>
      <trkpt lat="49.80598" lon="4.7865">
        <ele>221</ele>
        <time>2021-05-15T07:51:16.000Z</time>
      </trkpt>
      <trkpt lat="49.80599" lon="4.78648">
        <ele>221</ele>
        <time>2021-05-15T07:51:17.000Z</time>
      </trkpt>
      <trkpt lat="49.806" lon="4.78646">
        <ele>222</ele>
        <time>2021-05-15T07:51:18.000Z</time>
      </trkpt>
      <trkpt lat="49.80601" lon="4.78644">
        <ele>222</ele>
        <time>2021-05-15T07:51:19.000Z</time>
      </trkpt>
      <trkpt lat="49.80602" lon="4.78642">
        <ele>222</ele>
        <time>2021-05-15T07:51:20.000Z</time>
      </trkpt>
      <trkpt lat="49.80603" lon="4.7864">
        <ele>223</ele>
        <time>2021-05-15T07:51:21.000Z</time>
      </trkpt>
      <trkpt lat="49.80603" lon="4.78638">
        <ele>223</ele>
        <time>2021-05-15T07:51:22.000Z</time>
      </trkpt>
      <trkpt lat="49.80604" lon="4.78637">
        <ele>224</ele>
        <time>2021-05-15T07:51:23.000Z</time>
      </trkpt>
      <trkpt lat="49.80604" lon="4.78635">
        <ele>224</ele>
        <time>2021-05-15T07:51:24.000Z</time>
      </trkpt>
      <trkpt lat="49.80605" lon="4.78633">
        <ele>225</ele>
        <time>2021-05-15T07:51:25.000Z</time>
      </trkpt>
      <trkpt lat="49.80606" lon="4.78631">
        <ele>225</ele>
        <time>2021-05-15T07:51:26.000Z</time>
      </trkpt>
      <trkpt lat="49.80607" lon="4.78629">
        <ele>225</ele>
        <time>2021-05-15T07:51:27.000Z</time>
      </trkpt>
      <trkpt lat="49.80608" lon="4.78626">
        <ele>226</ele>
        <time>2021-05-15T07:51:28.000Z</time>
      </trkpt>
      <trkpt lat="49.80609" lon="4.78624">
        <ele>226</ele>
        <time>2021-05-15T07:51:29.000Z</time>
      </trkpt>
      <trkpt lat="49.8061" lon="4.78622">
        <ele>227</ele>
        <time>2021-05-15T07:51:30.000Z</time>
      </trkpt>
      <trkpt lat="49.80611" lon="4.7862">
        <ele>227</ele>
        <time>2021-05-15T07:51:31.000Z</time>
      </trkpt>
      <trkpt lat="49.80612" lon="4.78618">
        <ele>228</ele>
        <time>2021-05-15T07:51:32.000Z</time>
      </trkpt>
      <trkpt lat="49.80612" lon="4.78616">
        <ele>228</ele>
        <time>2021-05-15T07:51:33.000Z</time>
      </trkpt>
      <trkpt lat="49.80613" lon="4.78614">
        <ele>228</ele>
        <time>2021-05-15T07:51:34.000Z</time>
      </trkpt>
      <trkpt lat="49.80614" lon="4.78611">
        <ele>229</ele>
        <time>2021-05-15T07:51:35.000Z</time>
      </trkpt>
      <trkpt lat="49.80615" lon="4.78609">
        <ele>229</ele>
        <time>2021-05-15T07:51:36.000Z</time>
      </trkpt>
      <trkpt lat="49.80616" lon="4.78607">
        <ele>229</ele>
        <time>2021-05-15T07:51:37.000Z</time>
      </trkpt>
      <trkpt lat="49.80618" lon="4.78604">
        <ele>230</ele>
        <time>2021-05-15T07:51:38.000Z</time>
      </trkpt>
      <trkpt lat="49.80619" lon="4.78602">
        <ele>230</ele>
        <time>2021-05-15T07:51:39.000Z</time>
      </trkpt>
      <trkpt lat="49.8062" lon="4.786">
        <ele>231</ele>
        <time>2021-05-15T07:51:40.000Z</time>
      </trkpt>
      <trkpt lat="49.8062" lon="4.78598">
        <ele>231</ele>
        <time>2021-05-15T07:51:41.000Z</time>
      </trkpt>
      <trkpt lat="49.80621" lon="4.78596">
        <ele>232</ele>
        <time>2021-05-15T07:51:42.000Z</time>
      </trkpt>
      <trkpt lat="49.80621" lon="4.78593">
        <ele>232</ele>
        <time>2021-05-15T07:51:43.000Z</time>
      </trkpt>
      <trkpt lat="49.80622" lon="4.7859">
        <ele>233</ele>
        <time>2021-05-15T07:51:44.000Z</time>
      </trkpt>
      <trkpt lat="49.80622" lon="4.78588">
        <ele>233</ele>
        <time>2021-05-15T07:51:45.000Z</time>
      </trkpt>
      <trkpt lat="49.80623" lon="4.78586">
        <ele>233</ele>
        <time>2021-05-15T07:51:46.000Z</time>
      </trkpt>
      <trkpt lat="49.80623" lon="4.78584">
        <ele>234</ele>
        <time>2021-05-15T07:51:47.000Z</time>
      </trkpt>
      <trkpt lat="49.80624" lon="4.78582">
        <ele>234</ele>
        <time>2021-05-15T07:51:48.000Z</time>
      </trkpt>
      <trkpt lat="49.80624" lon="4.78581">
        <ele>235</ele>
        <time>2021-05-15T07:51:49.000Z</time>
      </trkpt>
      <trkpt lat="49.80625" lon="4.78579">
        <ele>235</ele>
        <time>2021-05-15T07:51:50.000Z</time>
      </trkpt>
      <trkpt lat="49.80626" lon="4.78577">
        <ele>236</ele>
        <time>2021-05-15T07:51:51.000Z</time>
      </trkpt>
      <trkpt lat="49.80627" lon="4.78575">
        <ele>236</ele>
        <time>2021-05-15T07:51:52.000Z</time>
      </trkpt>
      <trkpt lat="49.80628" lon="4.78574">
        <ele>237</ele>
        <time>2021-05-15T07:51:53.000Z</time>
      </trkpt>
      <trkpt lat="49.80629" lon="4.78572">
        <ele>237</ele>
        <time>2021-05-15T07:51:54.000Z</time>
      </trkpt>
      <trkpt lat="49.8063" lon="4.7857">
        <ele>238</ele>
        <time>2021-05-15T07:51:55.000Z</time>
      </trkpt>
      <trkpt lat="49.80631" lon="4.78569">
        <ele>238</ele>
        <time>2021-05-15T07:51:56.000Z</time>
      </trkpt>
      <trkpt lat="49.80632" lon="4.78567">
        <ele>239</ele>
        <time>2021-05-15T07:51:57.000Z</time>
      </trkpt>
      <trkpt lat="49.80633" lon="4.78565">
        <ele>239</ele>
        <time>2021-05-15T07:51:58.000Z</time>
      </trkpt>
      <trkpt lat="49.80634" lon="4.78563">
        <ele>240</ele>
        <time>2021-05-15T07:51:59.000Z</time>
      </trkpt>
      <trkpt lat="49.80634" lon="4.78561">
        <ele>240</ele>
        <time>2021-05-15T07:52:00.000Z</time>
      </trkpt>
      <trkpt lat="49.80635" lon="4.78559">
        <ele>241</ele>
        <time>2021-05-15T07:52:01.000Z</time>
      </trkpt>
      <trkpt lat="49.80636" lon="4.78557">
        <ele>241</ele>
        <time>2021-05-15T07:52:02.000Z</time>
      </trkpt>
      <trkpt lat="49.80637" lon="4.78555">
        <ele>242</ele>
        <time>2021-05-15T07:52:03.000Z</time>
      </trkpt>
      <trkpt lat="49.80637" lon="4.78552">
        <ele>242</ele>
        <time>2021-05-15T07:52:04.000Z</time>
      </trkpt>
      <trkpt lat="49.80638" lon="4.78549">
        <ele>242</ele>
        <time>2021-05-15T07:52:05.000Z</time>
      </trkpt>
      <trkpt lat="49.80639" lon="4.78547">
        <ele>243</ele>
        <time>2021-05-15T07:52:06.000Z</time>
      </trkpt>
      <trkpt lat="49.80639" lon="4.78545">
        <ele>243</ele>
        <time>2021-05-15T07:52:07.000Z</time>
      </trkpt>
      <trkpt lat="49.8064" lon="4.78542">
        <ele>243</ele>
        <time>2021-05-15T07:52:08.000Z</time>
      </trkpt>
      <trkpt lat="49.8064" lon="4.7854">
        <ele>244</ele>
        <time>2021-05-15T07:52:09.000Z</time>
      </trkpt>
      <trkpt lat="49.80641" lon="4.78539">
        <ele>244</ele>
        <time>2021-05-15T07:52:10.000Z</time>
      </trkpt>
      <trkpt lat="49.80642" lon="4.78537">
        <ele>244</ele>
        <time>2021-05-15T07:52:11.000Z</time>
      </trkpt>
      <trkpt lat="49.80643" lon="4.78535">
        <ele>244</ele>
        <time>2021-05-15T07:52:12.000Z</time>
      </trkpt>
      <trkpt lat="49.80643" lon="4.78532">
        <ele>244</ele>
        <time>2021-05-15T07:52:13.000Z</time>
      </trkpt>
      <trkpt lat="49.80644" lon="4.7853">
        <ele>244</ele>
        <time>2021-05-15T07:52:14.000Z</time>
      </trkpt>
      <trkpt lat="49.80645" lon="4.78528">
        <ele>244</ele>
        <time>2021-05-15T07:52:15.000Z</time>
      </trkpt>
      <trkpt lat="49.80645" lon="4.78526">
        <ele>244</ele>
        <time>2021-05-15T07:52:16.000Z</time>
      </trkpt>
      <trkpt lat="49.80646" lon="4.78523">
        <ele>245</ele>
        <time>2021-05-15T07:52:17.000Z</time>
      </trkpt>
      <trkpt lat="49.80647" lon="4.78521">
        <ele>245</ele>
        <time>2021-05-15T07:52:18.000Z</time>
      </trkpt>
      <trkpt lat="49.80648" lon="4.78519">
        <ele>245</ele>
        <time>2021-05-15T07:52:19.000Z</time>
      </trkpt>
      <trkpt lat="49.80649" lon="4.78517">
        <ele>245</ele>
        <time>2021-05-15T07:52:20.000Z</time>
      </trkpt>
      <trkpt lat="49.8065" lon="4.78515">
        <ele>245</ele>
        <time>2021-05-15T07:52:21.000Z</time>
      </trkpt>
      <trkpt lat="49.8065" lon="4.78513">
        <ele>245</ele>
        <time>2021-05-15T07:52:22.000Z</time>
      </trkpt>
      <trkpt lat="49.80651" lon="4.78511">
        <ele>245</ele>
        <time>2021-05-15T07:52:23.000Z</time>
      </trkpt>
      <trkpt lat="49.80651" lon="4.78508">
        <ele>245</ele>
        <time>2021-05-15T07:52:24.000Z</time>
      </trkpt>
      <trkpt lat="49.80651" lon="4.78507">
        <ele>245</ele>
        <time>2021-05-15T07:52:25.000Z</time>
      </trkpt>
      <trkpt lat="49.80652" lon="4.78504">
        <ele>245</ele>
        <time>2021-05-15T07:52:26.000Z</time>
      </trkpt>
      <trkpt lat="49.80653" lon="4.78502">
        <ele>245</ele>
        <time>2021-05-15T07:52:27.000Z</time>
      </trkpt>
      <trkpt lat="49.80654" lon="4.78501">
        <ele>245</ele>
        <time>2021-05-15T07:52:28.000Z</time>
      </trkpt>
      <trkpt lat="49.80655" lon="4.78498">
        <ele>245</ele>
        <time>2021-05-15T07:52:29.000Z</time>
      </trkpt>
      <trkpt lat="49.80656" lon="4.78496">
        <ele>245</ele>
        <time>2021-05-15T07:52:30.000Z</time>
      </trkpt>
      <trkpt lat="49.80656" lon="4.78494">
        <ele>246</ele>
        <time>2021-05-15T07:52:31.000Z</time>
      </trkpt>
      <trkpt lat="49.80657" lon="4.78492">
        <ele>246</ele>
        <time>2021-05-15T07:52:32.000Z</time>
      </trkpt>
      <trkpt lat="49.80657" lon="4.7849">
        <ele>246</ele>
        <time>2021-05-15T07:52:33.000Z</time>
      </trkpt>
      <trkpt lat="49.80658" lon="4.78488">
        <ele>246</ele>
        <time>2021-05-15T07:52:34.000Z</time>
      </trkpt>
      <trkpt lat="49.80658" lon="4.78486">
        <ele>246</ele>
        <time>2021-05-15T07:52:35.000Z</time>
      </trkpt>
      <trkpt lat="49.80658" lon="4.78484">
        <ele>246</ele>
        <time>2021-05-15T07:52:36.000Z</time>
      </trkpt>
      <trkpt lat="49.80658" lon="4.78481">
        <ele>246</ele>
        <time>2021-05-15T07:52:37.000Z</time>
      </trkpt>
      <trkpt lat="49.80658" lon="4.78479">
        <ele>246</ele>
        <time>2021-05-15T07:52:38.000Z</time>
      </trkpt>
      <trkpt lat="49.80659" lon="4.78477">
        <ele>247</ele>
        <time>2021-05-15T07:52:39.000Z</time>
      </trkpt>
      <trkpt lat="49.80659" lon="4.78474">
        <ele>247</ele>
        <time>2021-05-15T07:52:40.000Z</time>
      </trkpt>
      <trkpt lat="49.80659" lon="4.78472">
        <ele>247</ele>
        <time>2021-05-15T07:52:41.000Z</time>
      </trkpt>
      <trkpt lat="49.80659" lon="4.78469">
        <ele>247</ele>
        <time>2021-05-15T07:52:42.000Z</time>
      </trkpt>
      <trkpt lat="49.80659" lon="4.78467">
        <ele>247</ele>
        <time>2021-05-15T07:52:43.000Z</time>
      </trkpt>
      <trkpt lat="49.8066" lon="4.78465">
        <ele>247</ele>
        <time>2021-05-15T07:52:44.000Z</time>
      </trkpt>
      <trkpt lat="49.8066" lon="4.78462">
        <ele>248</ele>
        <time>2021-05-15T07:52:45.000Z</time>
      </trkpt>
      <trkpt lat="49.8066" lon="4.7846">
        <ele>248</ele>
        <time>2021-05-15T07:52:46.000Z</time>
      </trkpt>
      <trkpt lat="49.80661" lon="4.78458">
        <ele>248</ele>
        <time>2021-05-15T07:52:47.000Z</time>
      </trkpt>
      <trkpt lat="49.80661" lon="4.78457">
        <ele>249</ele>
        <time>2021-05-15T07:52:48.000Z</time>
      </trkpt>
      <trkpt lat="49.80661" lon="4.78454">
        <ele>249</ele>
        <time>2021-05-15T07:52:49.000Z</time>
      </trkpt>
      <trkpt lat="49.80661" lon="4.78452">
        <ele>249</ele>
        <time>2021-05-15T07:52:50.000Z</time>
      </trkpt>
      <trkpt lat="49.80661" lon="4.7845">
        <ele>249</ele>
        <time>2021-05-15T07:52:51.000Z</time>
      </trkpt>
      <trkpt lat="49.80661" lon="4.78448">
        <ele>250</ele>
        <time>2021-05-15T07:52:52.000Z</time>
      </trkpt>
      <trkpt lat="49.80661" lon="4.78445">
        <ele>250</ele>
        <time>2021-05-15T07:52:53.000Z</time>
      </trkpt>
      <trkpt lat="49.8066" lon="4.78443">
        <ele>251</ele>
        <time>2021-05-15T07:52:54.000Z</time>
      </trkpt>
      <trkpt lat="49.80659" lon="4.7844">
        <ele>251</ele>
        <time>2021-05-15T07:52:55.000Z</time>
      </trkpt>
      <trkpt lat="49.80659" lon="4.78438">
        <ele>251</ele>
        <time>2021-05-15T07:52:56.000Z</time>
      </trkpt>
      <trkpt lat="49.80659" lon="4.78436">
        <ele>252</ele>
        <time>2021-05-15T07:52:57.000Z</time>
      </trkpt>
      <trkpt lat="49.80658" lon="4.78433">
        <ele>252</ele>
        <time>2021-05-15T07:52:58.000Z</time>
      </trkpt>
      <trkpt lat="49.80658" lon="4.78431">
        <ele>253</ele>
        <time>2021-05-15T07:52:59.000Z</time>
      </trkpt>
      <trkpt lat="49.80658" lon="4.78429">
        <ele>253</ele>
        <time>2021-05-15T07:53:00.000Z</time>
      </trkpt>
      <trkpt lat="49.80658" lon="4.78427">
        <ele>253</ele>
        <time>2021-05-15T07:53:01.000Z</time>
      </trkpt>
      <trkpt lat="49.80659" lon="4.78425">
        <ele>254</ele>
        <time>2021-05-15T07:53:02.000Z</time>
      </trkpt>
      <trkpt lat="49.80659" lon="4.78423">
        <ele>254</ele>
        <time>2021-05-15T07:53:03.000Z</time>
      </trkpt>
      <trkpt lat="49.8066" lon="4.78421">
        <ele>254</ele>
        <time>2021-05-15T07:53:04.000Z</time>
      </trkpt>
      <trkpt lat="49.80659" lon="4.7842">
        <ele>254</ele>
        <time>2021-05-15T07:53:05.000Z</time>
      </trkpt>
      <trkpt lat="49.80659" lon="4.78419">
        <ele>254</ele>
        <time>2021-05-15T07:53:06.000Z</time>
      </trkpt>
      <trkpt lat="49.80658" lon="4.78418">
        <ele>255</ele>
        <time>2021-05-15T07:53:07.000Z</time>
      </trkpt>
      <trkpt lat="49.80658" lon="4.78416">
        <ele>255</ele>
        <time>2021-05-15T07:53:08.000Z</time>
      </trkpt>
      <trkpt lat="49.80658" lon="4.78416">
        <ele>255</ele>
        <time>2021-05-15T07:53:09.000Z</time>
      </trkpt>
      <trkpt lat="49.80658" lon="4.78415">
        <ele>255</ele>
        <time>2021-05-15T07:53:10.000Z</time>
      </trkpt>
      <trkpt lat="49.80658" lon="4.78415">
        <ele>255</ele>
        <time>2021-05-15T07:53:11.000Z</time>
      </trkpt>
      <trkpt lat="49.80658" lon="4.78414">
        <ele>256</ele>
        <time>2021-05-15T07:53:12.000Z</time>
      </trkpt>
      <trkpt lat="49.80658" lon="4.78413">
        <ele>256</ele>
        <time>2021-05-15T07:53:13.000Z</time>
      </trkpt>
      <trkpt lat="49.80658" lon="4.78411">
        <ele>256</ele>
        <time>2021-05-15T07:53:14.000Z</time>
      </trkpt>
      <trkpt lat="49.80658" lon="4.78409">
        <ele>256</ele>
        <time>2021-05-15T07:53:15.000Z</time>
      </trkpt>
      <trkpt lat="49.80658" lon="4.78406">
        <ele>256</ele>
        <time>2021-05-15T07:53:16.000Z</time>
      </trkpt>
      <trkpt lat="49.80658" lon="4.78404">
        <ele>256</ele>
        <time>2021-05-15T07:53:17.000Z</time>
      </trkpt>
      <trkpt lat="49.80658" lon="4.78401">
        <ele>256</ele>
        <time>2021-05-15T07:53:18.000Z</time>
      </trkpt>
      <trkpt lat="49.80659" lon="4.78399">
        <ele>256</ele>
        <time>2021-05-15T07:53:19.000Z</time>
      </trkpt>
      <trkpt lat="49.80659" lon="4.78397">
        <ele>256</ele>
        <time>2021-05-15T07:53:20.000Z</time>
      </trkpt>
      <trkpt lat="49.8066" lon="4.78394">
        <ele>257</ele>
        <time>2021-05-15T07:53:21.000Z</time>
      </trkpt>
      <trkpt lat="49.8066" lon="4.78392">
        <ele>257</ele>
        <time>2021-05-15T07:53:22.000Z</time>
      </trkpt>
      <trkpt lat="49.80661" lon="4.78389">
        <ele>257</ele>
        <time>2021-05-15T07:53:23.000Z</time>
      </trkpt>
      <trkpt lat="49.8066" lon="4.78387">
        <ele>257</ele>
        <time>2021-05-15T07:53:24.000Z</time>
      </trkpt>
      <trkpt lat="49.8066" lon="4.78384">
        <ele>257</ele>
        <time>2021-05-15T07:53:25.000Z</time>
      </trkpt>
      <trkpt lat="49.80661" lon="4.78382">
        <ele>257</ele>
        <time>2021-05-15T07:53:26.000Z</time>
      </trkpt>
      <trkpt lat="49.80662" lon="4.78379">
        <ele>257</ele>
        <time>2021-05-15T07:53:27.000Z</time>
      </trkpt>
      <trkpt lat="49.80662" lon="4.78377">
        <ele>257</ele>
        <time>2021-05-15T07:53:28.000Z</time>
      </trkpt>
      <trkpt lat="49.80663" lon="4.78374">
        <ele>258</ele>
        <time>2021-05-15T07:53:29.000Z</time>
      </trkpt>
      <trkpt lat="49.80663" lon="4.78372">
        <ele>258</ele>
        <time>2021-05-15T07:53:30.000Z</time>
      </trkpt>
      <trkpt lat="49.80663" lon="4.78369">
        <ele>258</ele>
        <time>2021-05-15T07:53:31.000Z</time>
      </trkpt>
      <trkpt lat="49.80664" lon="4.78366">
        <ele>258</ele>
        <time>2021-05-15T07:53:32.000Z</time>
      </trkpt>
      <trkpt lat="49.80664" lon="4.78364">
        <ele>258</ele>
        <time>2021-05-15T07:53:33.000Z</time>
      </trkpt>
      <trkpt lat="49.80664" lon="4.78362">
        <ele>258</ele>
        <time>2021-05-15T07:53:34.000Z</time>
      </trkpt>
      <trkpt lat="49.80665" lon="4.7836">
        <ele>258</ele>
        <time>2021-05-15T07:53:35.000Z</time>
      </trkpt>
      <trkpt lat="49.80665" lon="4.78358">
        <ele>258</ele>
        <time>2021-05-15T07:53:36.000Z</time>
      </trkpt>
      <trkpt lat="49.80666" lon="4.78356">
        <ele>258</ele>
        <time>2021-05-15T07:53:37.000Z</time>
      </trkpt>
      <trkpt lat="49.80666" lon="4.78353">
        <ele>258</ele>
        <time>2021-05-15T07:53:38.000Z</time>
      </trkpt>
      <trkpt lat="49.80666" lon="4.78351">
        <ele>259</ele>
        <time>2021-05-15T07:53:39.000Z</time>
      </trkpt>
      <trkpt lat="49.80666" lon="4.78348">
        <ele>259</ele>
        <time>2021-05-15T07:53:40.000Z</time>
      </trkpt>
      <trkpt lat="49.80666" lon="4.78346">
        <ele>259</ele>
        <time>2021-05-15T07:53:41.000Z</time>
      </trkpt>
      <trkpt lat="49.80667" lon="4.78344">
        <ele>259</ele>
        <time>2021-05-15T07:53:42.000Z</time>
      </trkpt>
      <trkpt lat="49.80667" lon="4.78342">
        <ele>259</ele>
        <time>2021-05-15T07:53:43.000Z</time>
      </trkpt>
      <trkpt lat="49.80667" lon="4.7834">
        <ele>260</ele>
        <time>2021-05-15T07:53:44.000Z</time>
      </trkpt>
      <trkpt lat="49.80668" lon="4.78338">
        <ele>260</ele>
        <time>2021-05-15T07:53:45.000Z</time>
      </trkpt>
      <trkpt lat="49.80668" lon="4.78336">
        <ele>260</ele>
        <time>2021-05-15T07:53:46.000Z</time>
      </trkpt>
      <trkpt lat="49.80668" lon="4.78333">
        <ele>260</ele>
        <time>2021-05-15T07:53:47.000Z</time>
      </trkpt>
      <trkpt lat="49.80669" lon="4.78331">
        <ele>260</ele>
        <time>2021-05-15T07:53:48.000Z</time>
      </trkpt>
      <trkpt lat="49.80669" lon="4.78329">
        <ele>260</ele>
        <time>2021-05-15T07:53:49.000Z</time>
      </trkpt>
      <trkpt lat="49.8067" lon="4.78327">
        <ele>260</ele>
        <time>2021-05-15T07:53:50.000Z</time>
      </trkpt>
      <trkpt lat="49.8067" lon="4.78325">
        <ele>261</ele>
        <time>2021-05-15T07:53:51.000Z</time>
      </trkpt>
      <trkpt lat="49.8067" lon="4.78323">
        <ele>261</ele>
        <time>2021-05-15T07:53:52.000Z</time>
      </trkpt>
      <trkpt lat="49.80669" lon="4.78321">
        <ele>261</ele>
        <time>2021-05-15T07:53:53.000Z</time>
      </trkpt>
      <trkpt lat="49.80669" lon="4.78318">
        <ele>262</ele>
        <time>2021-05-15T07:53:54.000Z</time>
      </trkpt>
      <trkpt lat="49.80669" lon="4.78316">
        <ele>262</ele>
        <time>2021-05-15T07:53:55.000Z</time>
      </trkpt>
      <trkpt lat="49.80669" lon="4.78314">
        <ele>262</ele>
        <time>2021-05-15T07:53:56.000Z</time>
      </trkpt>
      <trkpt lat="49.80669" lon="4.78312">
        <ele>262</ele>
        <time>2021-05-15T07:53:57.000Z</time>
      </trkpt>
      <trkpt lat="49.80669" lon="4.7831">
        <ele>262</ele>
        <time>2021-05-15T07:53:58.000Z</time>
      </trkpt>
      <trkpt lat="49.80669" lon="4.78307">
        <ele>263</ele>
        <time>2021-05-15T07:53:59.000Z</time>
      </trkpt>
      <trkpt lat="49.80669" lon="4.78304">
        <ele>263</ele>
        <time>2021-05-15T07:54:00.000Z</time>
      </trkpt>
      <trkpt lat="49.80669" lon="4.78302">
        <ele>263</ele>
        <time>2021-05-15T07:54:01.000Z</time>
      </trkpt>
      <trkpt lat="49.8067" lon="4.78299">
        <ele>264</ele>
        <time>2021-05-15T07:54:02.000Z</time>
      </trkpt>
      <trkpt lat="49.8067" lon="4.78297">
        <ele>264</ele>
        <time>2021-05-15T07:54:03.000Z</time>
      </trkpt>
      <trkpt lat="49.8067" lon="4.78295">
        <ele>264</ele>
        <time>2021-05-15T07:54:04.000Z</time>
      </trkpt>
      <trkpt lat="49.8067" lon="4.78292">
        <ele>264</ele>
        <time>2021-05-15T07:54:05.000Z</time>
      </trkpt>
      <trkpt lat="49.8067" lon="4.78289">
        <ele>265</ele>
        <time>2021-05-15T07:54:06.000Z</time>
      </trkpt>
      <trkpt lat="49.80671" lon="4.78286">
        <ele>265</ele>
        <time>2021-05-15T07:54:07.000Z</time>
      </trkpt>
      <trkpt lat="49.80671" lon="4.78284">
        <ele>265</ele>
        <time>2021-05-15T07:54:08.000Z</time>
      </trkpt>
      <trkpt lat="49.80671" lon="4.78282">
        <ele>265</ele>
        <time>2021-05-15T07:54:09.000Z</time>
      </trkpt>
      <trkpt lat="49.80671" lon="4.78279">
        <ele>265</ele>
        <time>2021-05-15T07:54:10.000Z</time>
      </trkpt>
      <trkpt lat="49.80671" lon="4.78277">
        <ele>266</ele>
        <time>2021-05-15T07:54:11.000Z</time>
      </trkpt>
      <trkpt lat="49.80671" lon="4.78275">
        <ele>266</ele>
        <time>2021-05-15T07:54:12.000Z</time>
      </trkpt>
      <trkpt lat="49.80671" lon="4.78272">
        <ele>266</ele>
        <time>2021-05-15T07:54:13.000Z</time>
      </trkpt>
      <trkpt lat="49.80671" lon="4.7827">
        <ele>266</ele>
        <time>2021-05-15T07:54:14.000Z</time>
      </trkpt>
      <trkpt lat="49.80671" lon="4.78267">
        <ele>267</ele>
        <time>2021-05-15T07:54:15.000Z</time>
      </trkpt>
      <trkpt lat="49.8067" lon="4.78265">
        <ele>267</ele>
        <time>2021-05-15T07:54:16.000Z</time>
      </trkpt>
      <trkpt lat="49.8067" lon="4.78262">
        <ele>267</ele>
        <time>2021-05-15T07:54:17.000Z</time>
      </trkpt>
      <trkpt lat="49.80669" lon="4.78259">
        <ele>267</ele>
        <time>2021-05-15T07:54:18.000Z</time>
      </trkpt>
      <trkpt lat="49.80669" lon="4.78256">
        <ele>268</ele>
        <time>2021-05-15T07:54:19.000Z</time>
      </trkpt>
      <trkpt lat="49.80669" lon="4.78253">
        <ele>268</ele>
        <time>2021-05-15T07:54:20.000Z</time>
      </trkpt>
      <trkpt lat="49.80669" lon="4.7825">
        <ele>268</ele>
        <time>2021-05-15T07:54:21.000Z</time>
      </trkpt>
      <trkpt lat="49.8067" lon="4.78248">
        <ele>268</ele>
        <time>2021-05-15T07:54:22.000Z</time>
      </trkpt>
      <trkpt lat="49.8067" lon="4.78245">
        <ele>269</ele>
        <time>2021-05-15T07:54:23.000Z</time>
      </trkpt>
      <trkpt lat="49.80671" lon="4.78242">
        <ele>269</ele>
        <time>2021-05-15T07:54:24.000Z</time>
      </trkpt>
      <trkpt lat="49.80671" lon="4.7824">
        <ele>269</ele>
        <time>2021-05-15T07:54:25.000Z</time>
      </trkpt>
      <trkpt lat="49.80672" lon="4.78238">
        <ele>269</ele>
        <time>2021-05-15T07:54:26.000Z</time>
      </trkpt>
      <trkpt lat="49.80673" lon="4.78235">
        <ele>270</ele>
        <time>2021-05-15T07:54:27.000Z</time>
      </trkpt>
      <trkpt lat="49.80673" lon="4.78233">
        <ele>270</ele>
        <time>2021-05-15T07:54:28.000Z</time>
      </trkpt>
      <trkpt lat="49.80674" lon="4.78229">
        <ele>270</ele>
        <time>2021-05-15T07:54:29.000Z</time>
      </trkpt>
      <trkpt lat="49.80674" lon="4.78226">
        <ele>270</ele>
        <time>2021-05-15T07:54:30.000Z</time>
      </trkpt>
      <trkpt lat="49.80674" lon="4.78223">
        <ele>271</ele>
        <time>2021-05-15T07:54:31.000Z</time>
      </trkpt>
      <trkpt lat="49.80675" lon="4.7822">
        <ele>271</ele>
        <time>2021-05-15T07:54:32.000Z</time>
      </trkpt>
      <trkpt lat="49.80675" lon="4.78217">
        <ele>271</ele>
        <time>2021-05-15T07:54:33.000Z</time>
      </trkpt>
      <trkpt lat="49.80675" lon="4.78213">
        <ele>271</ele>
        <time>2021-05-15T07:54:34.000Z</time>
      </trkpt>
      <trkpt lat="49.80675" lon="4.7821">
        <ele>272</ele>
        <time>2021-05-15T07:54:35.000Z</time>
      </trkpt>
      <trkpt lat="49.80676" lon="4.78207">
        <ele>272</ele>
        <time>2021-05-15T07:54:36.000Z</time>
      </trkpt>
      <trkpt lat="49.80677" lon="4.78204">
        <ele>272</ele>
        <time>2021-05-15T07:54:37.000Z</time>
      </trkpt>
      <trkpt lat="49.80678" lon="4.78201">
        <ele>272</ele>
        <time>2021-05-15T07:54:38.000Z</time>
      </trkpt>
      <trkpt lat="49.80679" lon="4.78198">
        <ele>273</ele>
        <time>2021-05-15T07:54:39.000Z</time>
      </trkpt>
      <trkpt lat="49.8068" lon="4.78196">
        <ele>273</ele>
        <time>2021-05-15T07:54:40.000Z</time>
      </trkpt>
      <trkpt lat="49.8068" lon="4.78193">
        <ele>273</ele>
        <time>2021-05-15T07:54:41.000Z</time>
      </trkpt>
      <trkpt lat="49.80681" lon="4.7819">
        <ele>273</ele>
        <time>2021-05-15T07:54:42.000Z</time>
      </trkpt>
      <trkpt lat="49.80681" lon="4.78187">
        <ele>274</ele>
        <time>2021-05-15T07:54:43.000Z</time>
      </trkpt>
      <trkpt lat="49.80682" lon="4.78185">
        <ele>274</ele>
        <time>2021-05-15T07:54:44.000Z</time>
      </trkpt>
      <trkpt lat="49.80682" lon="4.78182">
        <ele>274</ele>
        <time>2021-05-15T07:54:45.000Z</time>
      </trkpt>
      <trkpt lat="49.80683" lon="4.78179">
        <ele>274</ele>
        <time>2021-05-15T07:54:46.000Z</time>
      </trkpt>
      <trkpt lat="49.80683" lon="4.78176">
        <ele>274</ele>
        <time>2021-05-15T07:54:47.000Z</time>
      </trkpt>
      <trkpt lat="49.80682" lon="4.78173">
        <ele>275</ele>
        <time>2021-05-15T07:54:48.000Z</time>
      </trkpt>
      <trkpt lat="49.80682" lon="4.7817">
        <ele>275</ele>
        <time>2021-05-15T07:54:49.000Z</time>
      </trkpt>
      <trkpt lat="49.80681" lon="4.78167">
        <ele>275</ele>
        <time>2021-05-15T07:54:50.000Z</time>
      </trkpt>
      <trkpt lat="49.80681" lon="4.78163">
        <ele>275</ele>
        <time>2021-05-15T07:54:51.000Z</time>
      </trkpt>
      <trkpt lat="49.8068" lon="4.7816">
        <ele>276</ele>
        <time>2021-05-15T07:54:52.000Z</time>
      </trkpt>
      <trkpt lat="49.80679" lon="4.78157">
        <ele>276</ele>
        <time>2021-05-15T07:54:53.000Z</time>
      </trkpt>
      <trkpt lat="49.80678" lon="4.78154">
        <ele>276</ele>
        <time>2021-05-15T07:54:54.000Z</time>
      </trkpt>
      <trkpt lat="49.80678" lon="4.78151">
        <ele>277</ele>
        <time>2021-05-15T07:54:55.000Z</time>
      </trkpt>
      <trkpt lat="49.80678" lon="4.78148">
        <ele>277</ele>
        <time>2021-05-15T07:54:56.000Z</time>
      </trkpt>
      <trkpt lat="49.80677" lon="4.78146">
        <ele>277</ele>
        <time>2021-05-15T07:54:57.000Z</time>
      </trkpt>
      <trkpt lat="49.80677" lon="4.78143">
        <ele>277</ele>
        <time>2021-05-15T07:54:58.000Z</time>
      </trkpt>
      <trkpt lat="49.80677" lon="4.78141">
        <ele>277</ele>
        <time>2021-05-15T07:54:59.000Z</time>
      </trkpt>
      <trkpt lat="49.80677" lon="4.78139">
        <ele>278</ele>
        <time>2021-05-15T07:55:00.000Z</time>
      </trkpt>
      <trkpt lat="49.80676" lon="4.78136">
        <ele>278</ele>
        <time>2021-05-15T07:55:01.000Z</time>
      </trkpt>
      <trkpt lat="49.80676" lon="4.78134">
        <ele>278</ele>
        <time>2021-05-15T07:55:02.000Z</time>
      </trkpt>
      <trkpt lat="49.80676" lon="4.78132">
        <ele>278</ele>
        <time>2021-05-15T07:55:03.000Z</time>
      </trkpt>
      <trkpt lat="49.80676" lon="4.78131">
        <ele>278</ele>
        <time>2021-05-15T07:55:04.000Z</time>
      </trkpt>
      <trkpt lat="49.80676" lon="4.78129">
        <ele>278</ele>
        <time>2021-05-15T07:55:05.000Z</time>
      </trkpt>
      <trkpt lat="49.80677" lon="4.78126">
        <ele>279</ele>
        <time>2021-05-15T07:55:06.000Z</time>
      </trkpt>
      <trkpt lat="49.80676" lon="4.78123">
        <ele>279</ele>
        <time>2021-05-15T07:55:07.000Z</time>
      </trkpt>
      <trkpt lat="49.80676" lon="4.7812">
        <ele>279</ele>
        <time>2021-05-15T07:55:08.000Z</time>
      </trkpt>
      <trkpt lat="49.80676" lon="4.78117">
        <ele>279</ele>
        <time>2021-05-15T07:55:09.000Z</time>
      </trkpt>
      <trkpt lat="49.80676" lon="4.78114">
        <ele>279</ele>
        <time>2021-05-15T07:55:10.000Z</time>
      </trkpt>
      <trkpt lat="49.80677" lon="4.78112">
        <ele>280</ele>
        <time>2021-05-15T07:55:11.000Z</time>
      </trkpt>
      <trkpt lat="49.80678" lon="4.7811">
        <ele>280</ele>
        <time>2021-05-15T07:55:12.000Z</time>
      </trkpt>
      <trkpt lat="49.80678" lon="4.78107">
        <ele>280</ele>
        <time>2021-05-15T07:55:13.000Z</time>
      </trkpt>
      <trkpt lat="49.80679" lon="4.78103">
        <ele>280</ele>
        <time>2021-05-15T07:55:14.000Z</time>
      </trkpt>
      <trkpt lat="49.80679" lon="4.781">
        <ele>280</ele>
        <time>2021-05-15T07:55:15.000Z</time>
      </trkpt>
      <trkpt lat="49.80679" lon="4.78097">
        <ele>280</ele>
        <time>2021-05-15T07:55:16.000Z</time>
      </trkpt>
      <trkpt lat="49.80679" lon="4.78094">
        <ele>280</ele>
        <time>2021-05-15T07:55:17.000Z</time>
      </trkpt>
      <trkpt lat="49.80679" lon="4.78091">
        <ele>280</ele>
        <time>2021-05-15T07:55:18.000Z</time>
      </trkpt>
      <trkpt lat="49.80679" lon="4.78088">
        <ele>281</ele>
        <time>2021-05-15T07:55:19.000Z</time>
      </trkpt>
      <trkpt lat="49.8068" lon="4.78085">
        <ele>281</ele>
        <time>2021-05-15T07:55:20.000Z</time>
      </trkpt>
      <trkpt lat="49.8068" lon="4.78082">
        <ele>281</ele>
        <time>2021-05-15T07:55:21.000Z</time>
      </trkpt>
      <trkpt lat="49.80681" lon="4.78078">
        <ele>281</ele>
        <time>2021-05-15T07:55:22.000Z</time>
      </trkpt>
      <trkpt lat="49.80681" lon="4.78075">
        <ele>281</ele>
        <time>2021-05-15T07:55:23.000Z</time>
      </trkpt>
      <trkpt lat="49.80681" lon="4.78073">
        <ele>281</ele>
        <time>2021-05-15T07:55:24.000Z</time>
      </trkpt>
      <trkpt lat="49.80681" lon="4.7807">
        <ele>281</ele>
        <time>2021-05-15T07:55:25.000Z</time>
      </trkpt>
      <trkpt lat="49.80682" lon="4.78067">
        <ele>281</ele>
        <time>2021-05-15T07:55:26.000Z</time>
      </trkpt>
      <trkpt lat="49.80682" lon="4.78065">
        <ele>281</ele>
        <time>2021-05-15T07:55:27.000Z</time>
      </trkpt>
      <trkpt lat="49.80682" lon="4.78062">
        <ele>281</ele>
        <time>2021-05-15T07:55:28.000Z</time>
      </trkpt>
      <trkpt lat="49.80683" lon="4.78059">
        <ele>281</ele>
        <time>2021-05-15T07:55:29.000Z</time>
      </trkpt>
      <trkpt lat="49.80683" lon="4.78055">
        <ele>281</ele>
        <time>2021-05-15T07:55:30.000Z</time>
      </trkpt>
      <trkpt lat="49.80683" lon="4.78053">
        <ele>281</ele>
        <time>2021-05-15T07:55:31.000Z</time>
      </trkpt>
      <trkpt lat="49.80683" lon="4.7805">
        <ele>281</ele>
        <time>2021-05-15T07:55:32.000Z</time>
      </trkpt>
      <trkpt lat="49.80683" lon="4.78048">
        <ele>282</ele>
        <time>2021-05-15T07:55:33.000Z</time>
      </trkpt>
      <trkpt lat="49.80683" lon="4.78046">
        <ele>282</ele>
        <time>2021-05-15T07:55:34.000Z</time>
      </trkpt>
      <trkpt lat="49.80683" lon="4.78043">
        <ele>282</ele>
        <time>2021-05-15T07:55:35.000Z</time>
      </trkpt>
      <trkpt lat="49.80683" lon="4.7804">
        <ele>282</ele>
        <time>2021-05-15T07:55:36.000Z</time>
      </trkpt>
      <trkpt lat="49.80683" lon="4.78038">
        <ele>283</ele>
        <time>2021-05-15T07:55:37.000Z</time>
      </trkpt>
      <trkpt lat="49.80684" lon="4.78035">
        <ele>283</ele>
        <time>2021-05-15T07:55:38.000Z</time>
      </trkpt>
      <trkpt lat="49.80684" lon="4.78033">
        <ele>283</ele>
        <time>2021-05-15T07:55:39.000Z</time>
      </trkpt>
      <trkpt lat="49.80684" lon="4.7803">
        <ele>283</ele>
        <time>2021-05-15T07:55:40.000Z</time>
      </trkpt>
      <trkpt lat="49.80684" lon="4.78028">
        <ele>284</ele>
        <time>2021-05-15T07:55:41.000Z</time>
      </trkpt>
      <trkpt lat="49.80683" lon="4.78025">
        <ele>284</ele>
        <time>2021-05-15T07:55:42.000Z</time>
      </trkpt>
      <trkpt lat="49.80683" lon="4.78022">
        <ele>284</ele>
        <time>2021-05-15T07:55:43.000Z</time>
      </trkpt>
      <trkpt lat="49.80683" lon="4.7802">
        <ele>284</ele>
        <time>2021-05-15T07:55:44.000Z</time>
      </trkpt>
      <trkpt lat="49.80683" lon="4.78018">
        <ele>284</ele>
        <time>2021-05-15T07:55:45.000Z</time>
      </trkpt>
      <trkpt lat="49.80682" lon="4.78015">
        <ele>284</ele>
        <time>2021-05-15T07:55:46.000Z</time>
      </trkpt>
      <trkpt lat="49.80681" lon="4.78012">
        <ele>285</ele>
        <time>2021-05-15T07:55:47.000Z</time>
      </trkpt>
      <trkpt lat="49.80681" lon="4.78011">
        <ele>285</ele>
        <time>2021-05-15T07:55:48.000Z</time>
      </trkpt>
      <trkpt lat="49.80681" lon="4.78008">
        <ele>285</ele>
        <time>2021-05-15T07:55:49.000Z</time>
      </trkpt>
      <trkpt lat="49.80681" lon="4.78006">
        <ele>285</ele>
        <time>2021-05-15T07:55:50.000Z</time>
      </trkpt>
      <trkpt lat="49.80681" lon="4.78004">
        <ele>286</ele>
        <time>2021-05-15T07:55:51.000Z</time>
      </trkpt>
      <trkpt lat="49.80681" lon="4.78002">
        <ele>286</ele>
        <time>2021-05-15T07:55:52.000Z</time>
      </trkpt>
      <trkpt lat="49.80681" lon="4.78">
        <ele>286</ele>
        <time>2021-05-15T07:55:53.000Z</time>
      </trkpt>
      <trkpt lat="49.80681" lon="4.77998">
        <ele>286</ele>
        <time>2021-05-15T07:55:54.000Z</time>
      </trkpt>
      <trkpt lat="49.80681" lon="4.77996">
        <ele>286</ele>
        <time>2021-05-15T07:55:55.000Z</time>
      </trkpt>
      <trkpt lat="49.80681" lon="4.77994">
        <ele>286</ele>
        <time>2021-05-15T07:55:56.000Z</time>
      </trkpt>
      <trkpt lat="49.80681" lon="4.77992">
        <ele>287</ele>
        <time>2021-05-15T07:55:57.000Z</time>
      </trkpt>
      <trkpt lat="49.8068" lon="4.7799">
        <ele>287</ele>
        <time>2021-05-15T07:55:58.000Z</time>
      </trkpt>
      <trkpt lat="49.80679" lon="4.77989">
        <ele>287</ele>
        <time>2021-05-15T07:55:59.000Z</time>
      </trkpt>
      <trkpt lat="49.80678" lon="4.77987">
        <ele>287</ele>
        <time>2021-05-15T07:56:00.000Z</time>
      </trkpt>
      <trkpt lat="49.80677" lon="4.77986">
        <ele>287</ele>
        <time>2021-05-15T07:56:01.000Z</time>
      </trkpt>
      <trkpt lat="49.80676" lon="4.77985">
        <ele>287</ele>
        <time>2021-05-15T07:56:02.000Z</time>
      </trkpt>
      <trkpt lat="49.80675" lon="4.77984">
        <ele>287</ele>
        <time>2021-05-15T07:56:03.000Z</time>
      </trkpt>
      <trkpt lat="49.80674" lon="4.77983">
        <ele>287</ele>
        <time>2021-05-15T07:56:04.000Z</time>
      </trkpt>
      <trkpt lat="49.80673" lon="4.77982">
        <ele>288</ele>
        <time>2021-05-15T07:56:05.000Z</time>
      </trkpt>
      <trkpt lat="49.80673" lon="4.77981">
        <ele>288</ele>
        <time>2021-05-15T07:56:06.000Z</time>
      </trkpt>
      <trkpt lat="49.80672" lon="4.77979">
        <ele>288</ele>
        <time>2021-05-15T07:56:07.000Z</time>
      </trkpt>
      <trkpt lat="49.80671" lon="4.77979">
        <ele>288</ele>
        <time>2021-05-15T07:56:08.000Z</time>
      </trkpt>
      <trkpt lat="49.8067" lon="4.77977">
        <ele>288</ele>
        <time>2021-05-15T07:56:09.000Z</time>
      </trkpt>
      <trkpt lat="49.80669" lon="4.77977">
        <ele>288</ele>
        <time>2021-05-15T07:56:10.000Z</time>
      </trkpt>
      <trkpt lat="49.80668" lon="4.77976">
        <ele>289</ele>
        <time>2021-05-15T07:56:11.000Z</time>
      </trkpt>
      <trkpt lat="49.80667" lon="4.77975">
        <ele>289</ele>
        <time>2021-05-15T07:56:12.000Z</time>
      </trkpt>
      <trkpt lat="49.80666" lon="4.77975">
        <ele>289</ele>
        <time>2021-05-15T07:56:13.000Z</time>
      </trkpt>
      <trkpt lat="49.80665" lon="4.77975">
        <ele>290</ele>
        <time>2021-05-15T07:56:14.000Z</time>
      </trkpt>
      <trkpt lat="49.80664" lon="4.77974">
        <ele>290</ele>
        <time>2021-05-15T07:56:15.000Z</time>
      </trkpt>
      <trkpt lat="49.80663" lon="4.77974">
        <ele>290</ele>
        <time>2021-05-15T07:56:16.000Z</time>
      </trkpt>
      <trkpt lat="49.80662" lon="4.77973">
        <ele>290</ele>
        <time>2021-05-15T07:56:17.000Z</time>
      </trkpt>
      <trkpt lat="49.80661" lon="4.77972">
        <ele>291</ele>
        <time>2021-05-15T07:56:18.000Z</time>
      </trkpt>
      <trkpt lat="49.8066" lon="4.77972">
        <ele>291</ele>
        <time>2021-05-15T07:56:19.000Z</time>
      </trkpt>
      <trkpt lat="49.80659" lon="4.77971">
        <ele>291</ele>
        <time>2021-05-15T07:56:20.000Z</time>
      </trkpt>
      <trkpt lat="49.80658" lon="4.7797">
        <ele>291</ele>
        <time>2021-05-15T07:56:21.000Z</time>
      </trkpt>
      <trkpt lat="49.80657" lon="4.7797">
        <ele>291</ele>
        <time>2021-05-15T07:56:22.000Z</time>
      </trkpt>
      <trkpt lat="49.80656" lon="4.77969">
        <ele>292</ele>
        <time>2021-05-15T07:56:23.000Z</time>
      </trkpt>
      <trkpt lat="49.80655" lon="4.77968">
        <ele>292</ele>
        <time>2021-05-15T07:56:24.000Z</time>
      </trkpt>
      <trkpt lat="49.80654" lon="4.77967">
        <ele>292</ele>
        <time>2021-05-15T07:56:25.000Z</time>
      </trkpt>
      <trkpt lat="49.80652" lon="4.77966">
        <ele>292</ele>
        <time>2021-05-15T07:56:26.000Z</time>
      </trkpt>
      <trkpt lat="49.80651" lon="4.77965">
        <ele>292</ele>
        <time>2021-05-15T07:56:27.000Z</time>
      </trkpt>
      <trkpt lat="49.8065" lon="4.77964">
        <ele>293</ele>
        <time>2021-05-15T07:56:28.000Z</time>
      </trkpt>
      <trkpt lat="49.80649" lon="4.77963">
        <ele>293</ele>
        <time>2021-05-15T07:56:29.000Z</time>
      </trkpt>
      <trkpt lat="49.80648" lon="4.77962">
        <ele>293</ele>
        <time>2021-05-15T07:56:30.000Z</time>
      </trkpt>
      <trkpt lat="49.80647" lon="4.77961">
        <ele>293</ele>
        <time>2021-05-15T07:56:31.000Z</time>
      </trkpt>
      <trkpt lat="49.80646" lon="4.7796">
        <ele>293</ele>
        <time>2021-05-15T07:56:32.000Z</time>
      </trkpt>
      <trkpt lat="49.80644" lon="4.77959">
        <ele>294</ele>
        <time>2021-05-15T07:56:33.000Z</time>
      </trkpt>
      <trkpt lat="49.80643" lon="4.77958">
        <ele>294</ele>
        <time>2021-05-15T07:56:34.000Z</time>
      </trkpt>
      <trkpt lat="49.80641" lon="4.77957">
        <ele>294</ele>
        <time>2021-05-15T07:56:35.000Z</time>
      </trkpt>
      <trkpt lat="49.8064" lon="4.77956">
        <ele>294</ele>
        <time>2021-05-15T07:56:36.000Z</time>
      </trkpt>
      <trkpt lat="49.80639" lon="4.77955">
        <ele>294</ele>
        <time>2021-05-15T07:56:37.000Z</time>
      </trkpt>
      <trkpt lat="49.80637" lon="4.77954">
        <ele>294</ele>
        <time>2021-05-15T07:56:38.000Z</time>
      </trkpt>
      <trkpt lat="49.80636" lon="4.77953">
        <ele>294</ele>
        <time>2021-05-15T07:56:39.000Z</time>
      </trkpt>
      <trkpt lat="49.80635" lon="4.77952">
        <ele>294</ele>
        <time>2021-05-15T07:56:40.000Z</time>
      </trkpt>
      <trkpt lat="49.80633" lon="4.77951">
        <ele>294</ele>
        <time>2021-05-15T07:56:41.000Z</time>
      </trkpt>
      <trkpt lat="49.80632" lon="4.7795">
        <ele>294</ele>
        <time>2021-05-15T07:56:42.000Z</time>
      </trkpt>
      <trkpt lat="49.8063" lon="4.77949">
        <ele>294</ele>
        <time>2021-05-15T07:56:43.000Z</time>
      </trkpt>
      <trkpt lat="49.80628" lon="4.77949">
        <ele>294</ele>
        <time>2021-05-15T07:56:44.000Z</time>
      </trkpt>
      <trkpt lat="49.80627" lon="4.77948">
        <ele>295</ele>
        <time>2021-05-15T07:56:45.000Z</time>
      </trkpt>
      <trkpt lat="49.80625" lon="4.77947">
        <ele>295</ele>
        <time>2021-05-15T07:56:46.000Z</time>
      </trkpt>
      <trkpt lat="49.80624" lon="4.77946">
        <ele>295</ele>
        <time>2021-05-15T07:56:47.000Z</time>
      </trkpt>
      <trkpt lat="49.80622" lon="4.77945">
        <ele>295</ele>
        <time>2021-05-15T07:56:48.000Z</time>
      </trkpt>
      <trkpt lat="49.80621" lon="4.77944">
        <ele>295</ele>
        <time>2021-05-15T07:56:49.000Z</time>
      </trkpt>
      <trkpt lat="49.8062" lon="4.77943">
        <ele>295</ele>
        <time>2021-05-15T07:56:50.000Z</time>
      </trkpt>
      <trkpt lat="49.80618" lon="4.77942">
        <ele>295</ele>
        <time>2021-05-15T07:56:51.000Z</time>
      </trkpt>
      <trkpt lat="49.80617" lon="4.77941">
        <ele>295</ele>
        <time>2021-05-15T07:56:52.000Z</time>
      </trkpt>
      <trkpt lat="49.80615" lon="4.7794">
        <ele>295</ele>
        <time>2021-05-15T07:56:53.000Z</time>
      </trkpt>
      <trkpt lat="49.80613" lon="4.77938">
        <ele>295</ele>
        <time>2021-05-15T07:56:54.000Z</time>
      </trkpt>
      <trkpt lat="49.80611" lon="4.77937">
        <ele>295</ele>
        <time>2021-05-15T07:56:55.000Z</time>
      </trkpt>
      <trkpt lat="49.80609" lon="4.77936">
        <ele>295</ele>
        <time>2021-05-15T07:56:56.000Z</time>
      </trkpt>
      <trkpt lat="49.80607" lon="4.77935">
        <ele>295</ele>
        <time>2021-05-15T07:56:57.000Z</time>
      </trkpt>
      <trkpt lat="49.80605" lon="4.77933">
        <ele>295</ele>
        <time>2021-05-15T07:56:58.000Z</time>
      </trkpt>
      <trkpt lat="49.80603" lon="4.77932">
        <ele>295</ele>
        <time>2021-05-15T07:56:59.000Z</time>
      </trkpt>
      <trkpt lat="49.80601" lon="4.77931">
        <ele>295</ele>
        <time>2021-05-15T07:57:00.000Z</time>
      </trkpt>
      <trkpt lat="49.80599" lon="4.7793">
        <ele>295</ele>
        <time>2021-05-15T07:57:01.000Z</time>
      </trkpt>
      <trkpt lat="49.80597" lon="4.77928">
        <ele>295</ele>
        <time>2021-05-15T07:57:02.000Z</time>
      </trkpt>
      <trkpt lat="49.80594" lon="4.77927">
        <ele>295</ele>
        <time>2021-05-15T07:57:03.000Z</time>
      </trkpt>
      <trkpt lat="49.80592" lon="4.77925">
        <ele>296</ele>
        <time>2021-05-15T07:57:04.000Z</time>
      </trkpt>
      <trkpt lat="49.80589" lon="4.77924">
        <ele>296</ele>
        <time>2021-05-15T07:57:05.000Z</time>
      </trkpt>
      <trkpt lat="49.80587" lon="4.77923">
        <ele>296</ele>
        <time>2021-05-15T07:57:06.000Z</time>
      </trkpt>
      <trkpt lat="49.80584" lon="4.77921">
        <ele>296</ele>
        <time>2021-05-15T07:57:07.000Z</time>
      </trkpt>
      <trkpt lat="49.80581" lon="4.7792">
        <ele>296</ele>
        <time>2021-05-15T07:57:08.000Z</time>
      </trkpt>
      <trkpt lat="49.80578" lon="4.77918">
        <ele>296</ele>
        <time>2021-05-15T07:57:09.000Z</time>
      </trkpt>
      <trkpt lat="49.80575" lon="4.77916">
        <ele>296</ele>
        <time>2021-05-15T07:57:10.000Z</time>
      </trkpt>
      <trkpt lat="49.80572" lon="4.77915">
        <ele>296</ele>
        <time>2021-05-15T07:57:11.000Z</time>
      </trkpt>
      <trkpt lat="49.80569" lon="4.77913">
        <ele>296</ele>
        <time>2021-05-15T07:57:12.000Z</time>
      </trkpt>
      <trkpt lat="49.80566" lon="4.77911">
        <ele>297</ele>
        <time>2021-05-15T07:57:13.000Z</time>
      </trkpt>
      <trkpt lat="49.80562" lon="4.77909">
        <ele>297</ele>
        <time>2021-05-15T07:57:14.000Z</time>
      </trkpt>
      <trkpt lat="49.80559" lon="4.77907">
        <ele>297</ele>
        <time>2021-05-15T07:57:15.000Z</time>
      </trkpt>
      <trkpt lat="49.80556" lon="4.77904">
        <ele>297</ele>
        <time>2021-05-15T07:57:16.000Z</time>
      </trkpt>
      <trkpt lat="49.80553" lon="4.77902">
        <ele>297</ele>
        <time>2021-05-15T07:57:17.000Z</time>
      </trkpt>
      <trkpt lat="49.80549" lon="4.779">
        <ele>297</ele>
        <time>2021-05-15T07:57:18.000Z</time>
      </trkpt>
      <trkpt lat="49.80545" lon="4.77898">
        <ele>297</ele>
        <time>2021-05-15T07:57:19.000Z</time>
      </trkpt>
      <trkpt lat="49.80542" lon="4.77897">
        <ele>297</ele>
        <time>2021-05-15T07:57:20.000Z</time>
      </trkpt>
      <trkpt lat="49.80538" lon="4.77895">
        <ele>297</ele>
        <time>2021-05-15T07:57:21.000Z</time>
      </trkpt>
      <trkpt lat="49.80534" lon="4.77893">
        <ele>297</ele>
        <time>2021-05-15T07:57:22.000Z</time>
      </trkpt>
      <trkpt lat="49.8053" lon="4.77891">
        <ele>297</ele>
        <time>2021-05-15T07:57:23.000Z</time>
      </trkpt>
      <trkpt lat="49.80526" lon="4.77888">
        <ele>298</ele>
        <time>2021-05-15T07:57:24.000Z</time>
      </trkpt>
      <trkpt lat="49.80522" lon="4.77885">
        <ele>298</ele>
        <time>2021-05-15T07:57:25.000Z</time>
      </trkpt>
      <trkpt lat="49.80519" lon="4.77882">
        <ele>298</ele>
        <time>2021-05-15T07:57:26.000Z</time>
      </trkpt>
      <trkpt lat="49.80517" lon="4.77879">
        <ele>298</ele>
        <time>2021-05-15T07:57:27.000Z</time>
      </trkpt>
      <trkpt lat="49.80516" lon="4.77876">
        <ele>298</ele>
        <time>2021-05-15T07:57:28.000Z</time>
      </trkpt>
      <trkpt lat="49.80515" lon="4.77872">
        <ele>298</ele>
        <time>2021-05-15T07:57:29.000Z</time>
      </trkpt>
      <trkpt lat="49.80514" lon="4.77869">
        <ele>299</ele>
        <time>2021-05-15T07:57:30.000Z</time>
      </trkpt>
      <trkpt lat="49.80514" lon="4.77865">
        <ele>299</ele>
        <time>2021-05-15T07:57:31.000Z</time>
      </trkpt>
      <trkpt lat="49.80514" lon="4.77862">
        <ele>299</ele>
        <time>2021-05-15T07:57:32.000Z</time>
      </trkpt>
      <trkpt lat="49.80515" lon="4.77859">
        <ele>299</ele>
        <time>2021-05-15T07:57:33.000Z</time>
      </trkpt>
      <trkpt lat="49.80515" lon="4.77855">
        <ele>299</ele>
        <time>2021-05-15T07:57:34.000Z</time>
      </trkpt>
      <trkpt lat="49.80516" lon="4.7785">
        <ele>300</ele>
        <time>2021-05-15T07:57:35.000Z</time>
      </trkpt>
      <trkpt lat="49.80517" lon="4.77846">
        <ele>300</ele>
        <time>2021-05-15T07:57:36.000Z</time>
      </trkpt>
      <trkpt lat="49.80517" lon="4.77843">
        <ele>300</ele>
        <time>2021-05-15T07:57:37.000Z</time>
      </trkpt>
      <trkpt lat="49.80518" lon="4.77839">
        <ele>300</ele>
        <time>2021-05-15T07:57:38.000Z</time>
      </trkpt>
      <trkpt lat="49.80519" lon="4.77835">
        <ele>300</ele>
        <time>2021-05-15T07:57:39.000Z</time>
      </trkpt>
      <trkpt lat="49.8052" lon="4.7783">
        <ele>300</ele>
        <time>2021-05-15T07:57:40.000Z</time>
      </trkpt>
      <trkpt lat="49.80522" lon="4.77826">
        <ele>300</ele>
        <time>2021-05-15T07:57:41.000Z</time>
      </trkpt>
      <trkpt lat="49.80523" lon="4.77822">
        <ele>300</ele>
        <time>2021-05-15T07:57:42.000Z</time>
      </trkpt>
      <trkpt lat="49.80524" lon="4.77817">
        <ele>300</ele>
        <time>2021-05-15T07:57:43.000Z</time>
      </trkpt>
      <trkpt lat="49.80525" lon="4.77812">
        <ele>300</ele>
        <time>2021-05-15T07:57:44.000Z</time>
      </trkpt>
      <trkpt lat="49.80527" lon="4.77807">
        <ele>300</ele>
        <time>2021-05-15T07:57:45.000Z</time>
      </trkpt>
      <trkpt lat="49.80528" lon="4.77802">
        <ele>300</ele>
        <time>2021-05-15T07:57:46.000Z</time>
      </trkpt>
      <trkpt lat="49.80529" lon="4.77798">
        <ele>300</ele>
        <time>2021-05-15T07:57:47.000Z</time>
      </trkpt>
      <trkpt lat="49.80529" lon="4.77793">
        <ele>300</ele>
        <time>2021-05-15T07:57:48.000Z</time>
      </trkpt>
      <trkpt lat="49.8053" lon="4.77788">
        <ele>300</ele>
        <time>2021-05-15T07:57:49.000Z</time>
      </trkpt>
      <trkpt lat="49.80531" lon="4.77784">
        <ele>300</ele>
        <time>2021-05-15T07:57:50.000Z</time>
      </trkpt>
      <trkpt lat="49.80532" lon="4.7778">
        <ele>300</ele>
        <time>2021-05-15T07:57:51.000Z</time>
      </trkpt>
      <trkpt lat="49.80533" lon="4.77777">
        <ele>301</ele>
        <time>2021-05-15T07:57:52.000Z</time>
      </trkpt>
      <trkpt lat="49.80533" lon="4.77774">
        <ele>301</ele>
        <time>2021-05-15T07:57:53.000Z</time>
      </trkpt>
      <trkpt lat="49.80533" lon="4.77771">
        <ele>301</ele>
        <time>2021-05-15T07:57:54.000Z</time>
      </trkpt>
      <trkpt lat="49.80532" lon="4.77769">
        <ele>301</ele>
        <time>2021-05-15T07:57:55.000Z</time>
      </trkpt>
      <trkpt lat="49.8053" lon="4.77768">
        <ele>301</ele>
        <time>2021-05-15T07:57:56.000Z</time>
      </trkpt>
      <trkpt lat="49.80528" lon="4.77767">
        <ele>301</ele>
        <time>2021-05-15T07:57:57.000Z</time>
      </trkpt>
      <trkpt lat="49.80526" lon="4.77765">
        <ele>301</ele>
        <time>2021-05-15T07:57:58.000Z</time>
      </trkpt>
      <trkpt lat="49.80523" lon="4.77763">
        <ele>301</ele>
        <time>2021-05-15T07:57:59.000Z</time>
      </trkpt>
      <trkpt lat="49.80519" lon="4.77762">
        <ele>301</ele>
        <time>2021-05-15T07:58:00.000Z</time>
      </trkpt>
      <trkpt lat="49.80517" lon="4.7776">
        <ele>301</ele>
        <time>2021-05-15T07:58:01.000Z</time>
      </trkpt>
      <trkpt lat="49.80514" lon="4.77758">
        <ele>301</ele>
        <time>2021-05-15T07:58:02.000Z</time>
      </trkpt>
      <trkpt lat="49.8051" lon="4.77756">
        <ele>301</ele>
        <time>2021-05-15T07:58:03.000Z</time>
      </trkpt>
      <trkpt lat="49.80507" lon="4.77754">
        <ele>301</ele>
        <time>2021-05-15T07:58:04.000Z</time>
      </trkpt>
      <trkpt lat="49.80502" lon="4.77752">
        <ele>301</ele>
        <time>2021-05-15T07:58:05.000Z</time>
      </trkpt>
      <trkpt lat="49.80498" lon="4.7775">
        <ele>301</ele>
        <time>2021-05-15T07:58:06.000Z</time>
      </trkpt>
      <trkpt lat="49.80495" lon="4.77747">
        <ele>301</ele>
        <time>2021-05-15T07:58:07.000Z</time>
      </trkpt>
      <trkpt lat="49.80491" lon="4.77744">
        <ele>301</ele>
        <time>2021-05-15T07:58:08.000Z</time>
      </trkpt>
      <trkpt lat="49.80486" lon="4.77741">
        <ele>301</ele>
        <time>2021-05-15T07:58:09.000Z</time>
      </trkpt>
      <trkpt lat="49.80481" lon="4.77739">
        <ele>301</ele>
        <time>2021-05-15T07:58:10.000Z</time>
      </trkpt>
      <trkpt lat="49.80476" lon="4.77736">
        <ele>301</ele>
        <time>2021-05-15T07:58:11.000Z</time>
      </trkpt>
      <trkpt lat="49.80471" lon="4.77733">
        <ele>300</ele>
        <time>2021-05-15T07:58:12.000Z</time>
      </trkpt>
      <trkpt lat="49.80466" lon="4.7773">
        <ele>300</ele>
        <time>2021-05-15T07:58:13.000Z</time>
      </trkpt>
      <trkpt lat="49.8046" lon="4.77727">
        <ele>300</ele>
        <time>2021-05-15T07:58:14.000Z</time>
      </trkpt>
      <trkpt lat="49.80455" lon="4.77725">
        <ele>300</ele>
        <time>2021-05-15T07:58:15.000Z</time>
      </trkpt>
      <trkpt lat="49.8045" lon="4.77723">
        <ele>300</ele>
        <time>2021-05-15T07:58:16.000Z</time>
      </trkpt>
      <trkpt lat="49.80445" lon="4.7772">
        <ele>300</ele>
        <time>2021-05-15T07:58:17.000Z</time>
      </trkpt>
      <trkpt lat="49.80439" lon="4.77717">
        <ele>300</ele>
        <time>2021-05-15T07:58:18.000Z</time>
      </trkpt>
      <trkpt lat="49.80433" lon="4.77714">
        <ele>299</ele>
        <time>2021-05-15T07:58:19.000Z</time>
      </trkpt>
      <trkpt lat="49.80427" lon="4.77711">
        <ele>299</ele>
        <time>2021-05-15T07:58:20.000Z</time>
      </trkpt>
      <trkpt lat="49.80421" lon="4.77708">
        <ele>299</ele>
        <time>2021-05-15T07:58:21.000Z</time>
      </trkpt>
      <trkpt lat="49.80415" lon="4.77704">
        <ele>298</ele>
        <time>2021-05-15T07:58:22.000Z</time>
      </trkpt>
      <trkpt lat="49.80408" lon="4.777">
        <ele>298</ele>
        <time>2021-05-15T07:58:23.000Z</time>
      </trkpt>
      <trkpt lat="49.80401" lon="4.77696">
        <ele>298</ele>
        <time>2021-05-15T07:58:24.000Z</time>
      </trkpt>
      <trkpt lat="49.80394" lon="4.77691">
        <ele>297</ele>
        <time>2021-05-15T07:58:25.000Z</time>
      </trkpt>
      <trkpt lat="49.80386" lon="4.77687">
        <ele>297</ele>
        <time>2021-05-15T07:58:26.000Z</time>
      </trkpt>
      <trkpt lat="49.80378" lon="4.77682">
        <ele>296</ele>
        <time>2021-05-15T07:58:27.000Z</time>
      </trkpt>
      <trkpt lat="49.8037" lon="4.77678">
        <ele>296</ele>
        <time>2021-05-15T07:58:28.000Z</time>
      </trkpt>
      <trkpt lat="49.80362" lon="4.77673">
        <ele>295</ele>
        <time>2021-05-15T07:58:29.000Z</time>
      </trkpt>
      <trkpt lat="49.80354" lon="4.77668">
        <ele>294</ele>
        <time>2021-05-15T07:58:30.000Z</time>
      </trkpt>
      <trkpt lat="49.80348" lon="4.77663">
        <ele>294</ele>
        <time>2021-05-15T07:58:31.000Z</time>
      </trkpt>
      <trkpt lat="49.80341" lon="4.77659">
        <ele>293</ele>
        <time>2021-05-15T07:58:32.000Z</time>
      </trkpt>
      <trkpt lat="49.80336" lon="4.77656">
        <ele>292</ele>
        <time>2021-05-15T07:58:33.000Z</time>
      </trkpt>
      <trkpt lat="49.80331" lon="4.77653">
        <ele>292</ele>
        <time>2021-05-15T07:58:34.000Z</time>
      </trkpt>
      <trkpt lat="49.80329" lon="4.77652">
        <ele>291</ele>
        <time>2021-05-15T07:58:35.000Z</time>
      </trkpt>
      <trkpt lat="49.80327" lon="4.77652">
        <ele>291</ele>
        <time>2021-05-15T07:58:36.000Z</time>
      </trkpt>
      <trkpt lat="49.80325" lon="4.77654">
        <ele>290</ele>
        <time>2021-05-15T07:58:37.000Z</time>
      </trkpt>
      <trkpt lat="49.80322" lon="4.77657">
        <ele>290</ele>
        <time>2021-05-15T07:58:38.000Z</time>
      </trkpt>
      <trkpt lat="49.8032" lon="4.7766">
        <ele>290</ele>
        <time>2021-05-15T07:58:39.000Z</time>
      </trkpt>
      <trkpt lat="49.80316" lon="4.77665">
        <ele>289</ele>
        <time>2021-05-15T07:58:40.000Z</time>
      </trkpt>
      <trkpt lat="49.80313" lon="4.7767">
        <ele>289</ele>
        <time>2021-05-15T07:58:41.000Z</time>
      </trkpt>
      <trkpt lat="49.80309" lon="4.77675">
        <ele>289</ele>
        <time>2021-05-15T07:58:42.000Z</time>
      </trkpt>
      <trkpt lat="49.80305" lon="4.77679">
        <ele>289</ele>
        <time>2021-05-15T07:58:43.000Z</time>
      </trkpt>
      <trkpt lat="49.803" lon="4.77683">
        <ele>289</ele>
        <time>2021-05-15T07:58:44.000Z</time>
      </trkpt>
      <trkpt lat="49.80297" lon="4.77685">
        <ele>288</ele>
        <time>2021-05-15T07:58:45.000Z</time>
      </trkpt>
      <trkpt lat="49.80293" lon="4.77686">
        <ele>288</ele>
        <time>2021-05-15T07:58:46.000Z</time>
      </trkpt>
      <trkpt lat="49.80288" lon="4.77686">
        <ele>288</ele>
        <time>2021-05-15T07:58:47.000Z</time>
      </trkpt>
      <trkpt lat="49.80283" lon="4.77685">
        <ele>288</ele>
        <time>2021-05-15T07:58:48.000Z</time>
      </trkpt>
      <trkpt lat="49.80276" lon="4.77683">
        <ele>287</ele>
        <time>2021-05-15T07:58:49.000Z</time>
      </trkpt>
      <trkpt lat="49.80268" lon="4.77681">
        <ele>287</ele>
        <time>2021-05-15T07:58:50.000Z</time>
      </trkpt>
      <trkpt lat="49.80261" lon="4.77679">
        <ele>287</ele>
        <time>2021-05-15T07:58:51.000Z</time>
      </trkpt>
      <trkpt lat="49.80253" lon="4.77677">
        <ele>286</ele>
        <time>2021-05-15T07:58:52.000Z</time>
      </trkpt>
      <trkpt lat="49.80246" lon="4.77675">
        <ele>286</ele>
        <time>2021-05-15T07:58:53.000Z</time>
      </trkpt>
      <trkpt lat="49.80239" lon="4.77673">
        <ele>286</ele>
        <time>2021-05-15T07:58:54.000Z</time>
      </trkpt>
      <trkpt lat="49.80232" lon="4.7767">
        <ele>285</ele>
        <time>2021-05-15T07:58:55.000Z</time>
      </trkpt>
      <trkpt lat="49.80227" lon="4.77667">
        <ele>285</ele>
        <time>2021-05-15T07:58:56.000Z</time>
      </trkpt>
      <trkpt lat="49.80223" lon="4.77666">
        <ele>284</ele>
        <time>2021-05-15T07:58:57.000Z</time>
      </trkpt>
      <trkpt lat="49.80221" lon="4.77665">
        <ele>284</ele>
        <time>2021-05-15T07:58:58.000Z</time>
      </trkpt>
      <trkpt lat="49.80219" lon="4.77662">
        <ele>283</ele>
        <time>2021-05-15T07:58:59.000Z</time>
      </trkpt>
      <trkpt lat="49.80217" lon="4.77659">
        <ele>283</ele>
        <time>2021-05-15T07:59:00.000Z</time>
      </trkpt>
      <trkpt lat="49.80214" lon="4.77654">
        <ele>282</ele>
        <time>2021-05-15T07:59:01.000Z</time>
      </trkpt>
      <trkpt lat="49.80213" lon="4.77649">
        <ele>282</ele>
        <time>2021-05-15T07:59:02.000Z</time>
      </trkpt>
      <trkpt lat="49.80211" lon="4.77643">
        <ele>281</ele>
        <time>2021-05-15T07:59:03.000Z</time>
      </trkpt>
      <trkpt lat="49.80209" lon="4.77636">
        <ele>281</ele>
        <time>2021-05-15T07:59:04.000Z</time>
      </trkpt>
      <trkpt lat="49.80206" lon="4.7763">
        <ele>280</ele>
        <time>2021-05-15T07:59:05.000Z</time>
      </trkpt>
      <trkpt lat="49.80203" lon="4.77624">
        <ele>280</ele>
        <time>2021-05-15T07:59:06.000Z</time>
      </trkpt>
      <trkpt lat="49.802" lon="4.77621">
        <ele>279</ele>
        <time>2021-05-15T07:59:07.000Z</time>
      </trkpt>
      <trkpt lat="49.80196" lon="4.7762">
        <ele>279</ele>
        <time>2021-05-15T07:59:08.000Z</time>
      </trkpt>
      <trkpt lat="49.80193" lon="4.77619">
        <ele>278</ele>
        <time>2021-05-15T07:59:09.000Z</time>
      </trkpt>
      <trkpt lat="49.8019" lon="4.7762">
        <ele>278</ele>
        <time>2021-05-15T07:59:10.000Z</time>
      </trkpt>
      <trkpt lat="49.80187" lon="4.77621">
        <ele>277</ele>
        <time>2021-05-15T07:59:11.000Z</time>
      </trkpt>
      <trkpt lat="49.80185" lon="4.77623">
        <ele>277</ele>
        <time>2021-05-15T07:59:12.000Z</time>
      </trkpt>
      <trkpt lat="49.80183" lon="4.77624">
        <ele>277</ele>
        <time>2021-05-15T07:59:13.000Z</time>
      </trkpt>
      <trkpt lat="49.80181" lon="4.77624">
        <ele>276</ele>
        <time>2021-05-15T07:59:14.000Z</time>
      </trkpt>
      <trkpt lat="49.8018" lon="4.77624">
        <ele>276</ele>
        <time>2021-05-15T07:59:15.000Z</time>
      </trkpt>
      <trkpt lat="49.80178" lon="4.77624">
        <ele>275</ele>
        <time>2021-05-15T07:59:16.000Z</time>
      </trkpt>
      <trkpt lat="49.80177" lon="4.77624">
        <ele>275</ele>
        <time>2021-05-15T07:59:17.000Z</time>
      </trkpt>
      <trkpt lat="49.80175" lon="4.77624">
        <ele>275</ele>
        <time>2021-05-15T07:59:18.000Z</time>
      </trkpt>
      <trkpt lat="49.80174" lon="4.77624">
        <ele>274</ele>
        <time>2021-05-15T07:59:19.000Z</time>
      </trkpt>
      <trkpt lat="49.80172" lon="4.77624">
        <ele>274</ele>
        <time>2021-05-15T07:59:20.000Z</time>
      </trkpt>
      <trkpt lat="49.80171" lon="4.77624">
        <ele>274</ele>
        <time>2021-05-15T07:59:21.000Z</time>
      </trkpt>
      <trkpt lat="49.80169" lon="4.77623">
        <ele>273</ele>
        <time>2021-05-15T07:59:22.000Z</time>
      </trkpt>
      <trkpt lat="49.80168" lon="4.77622">
        <ele>273</ele>
        <time>2021-05-15T07:59:23.000Z</time>
      </trkpt>
      <trkpt lat="49.80166" lon="4.77621">
        <ele>273</ele>
        <time>2021-05-15T07:59:24.000Z</time>
      </trkpt>
      <trkpt lat="49.80165" lon="4.7762">
        <ele>273</ele>
        <time>2021-05-15T07:59:25.000Z</time>
      </trkpt>
      <trkpt lat="49.80163" lon="4.77619">
        <ele>272</ele>
        <time>2021-05-15T07:59:26.000Z</time>
      </trkpt>
      <trkpt lat="49.80162" lon="4.77618">
        <ele>272</ele>
        <time>2021-05-15T07:59:27.000Z</time>
      </trkpt>
      <trkpt lat="49.80161" lon="4.77617">
        <ele>272</ele>
        <time>2021-05-15T07:59:28.000Z</time>
      </trkpt>
      <trkpt lat="49.80159" lon="4.77616">
        <ele>272</ele>
        <time>2021-05-15T07:59:29.000Z</time>
      </trkpt>
      <trkpt lat="49.80158" lon="4.77615">
        <ele>271</ele>
        <time>2021-05-15T07:59:30.000Z</time>
      </trkpt>
      <trkpt lat="49.80156" lon="4.77614">
        <ele>271</ele>
        <time>2021-05-15T07:59:31.000Z</time>
      </trkpt>
      <trkpt lat="49.80155" lon="4.77612">
        <ele>271</ele>
        <time>2021-05-15T07:59:32.000Z</time>
      </trkpt>
      <trkpt lat="49.80154" lon="4.7761">
        <ele>270</ele>
        <time>2021-05-15T07:59:33.000Z</time>
      </trkpt>
      <trkpt lat="49.80153" lon="4.77609">
        <ele>270</ele>
        <time>2021-05-15T07:59:34.000Z</time>
      </trkpt>
      <trkpt lat="49.80151" lon="4.77607">
        <ele>270</ele>
        <time>2021-05-15T07:59:35.000Z</time>
      </trkpt>
      <trkpt lat="49.80149" lon="4.77605">
        <ele>270</ele>
        <time>2021-05-15T07:59:36.000Z</time>
      </trkpt>
      <trkpt lat="49.80148" lon="4.77603">
        <ele>270</ele>
        <time>2021-05-15T07:59:37.000Z</time>
      </trkpt>
      <trkpt lat="49.80147" lon="4.77601">
        <ele>270</ele>
        <time>2021-05-15T07:59:38.000Z</time>
      </trkpt>
      <trkpt lat="49.80145" lon="4.77599">
        <ele>270</ele>
        <time>2021-05-15T07:59:39.000Z</time>
      </trkpt>
      <trkpt lat="49.80144" lon="4.77597">
        <ele>270</ele>
        <time>2021-05-15T07:59:40.000Z</time>
      </trkpt>
      <trkpt lat="49.80143" lon="4.77596">
        <ele>270</ele>
        <time>2021-05-15T07:59:41.000Z</time>
      </trkpt>
      <trkpt lat="49.80141" lon="4.77594">
        <ele>270</ele>
        <time>2021-05-15T07:59:42.000Z</time>
      </trkpt>
      <trkpt lat="49.8014" lon="4.77592">
        <ele>270</ele>
        <time>2021-05-15T07:59:43.000Z</time>
      </trkpt>
      <trkpt lat="49.80139" lon="4.7759">
        <ele>270</ele>
        <time>2021-05-15T07:59:44.000Z</time>
      </trkpt>
      <trkpt lat="49.80137" lon="4.77587">
        <ele>270</ele>
        <time>2021-05-15T07:59:45.000Z</time>
      </trkpt>
      <trkpt lat="49.80136" lon="4.77585">
        <ele>270</ele>
        <time>2021-05-15T07:59:46.000Z</time>
      </trkpt>
      <trkpt lat="49.80134" lon="4.77583">
        <ele>271</ele>
        <time>2021-05-15T07:59:47.000Z</time>
      </trkpt>
      <trkpt lat="49.80132" lon="4.77581">
        <ele>271</ele>
        <time>2021-05-15T07:59:48.000Z</time>
      </trkpt>
      <trkpt lat="49.80131" lon="4.77578">
        <ele>271</ele>
        <time>2021-05-15T07:59:49.000Z</time>
      </trkpt>
      <trkpt lat="49.8013" lon="4.77576">
        <ele>271</ele>
        <time>2021-05-15T07:59:50.000Z</time>
      </trkpt>
      <trkpt lat="49.80129" lon="4.77574">
        <ele>271</ele>
        <time>2021-05-15T07:59:51.000Z</time>
      </trkpt>
      <trkpt lat="49.80128" lon="4.77571">
        <ele>271</ele>
        <time>2021-05-15T07:59:52.000Z</time>
      </trkpt>
      <trkpt lat="49.80127" lon="4.77569">
        <ele>271</ele>
        <time>2021-05-15T07:59:53.000Z</time>
      </trkpt>
      <trkpt lat="49.80126" lon="4.77566">
        <ele>271</ele>
        <time>2021-05-15T07:59:54.000Z</time>
      </trkpt>
      <trkpt lat="49.80125" lon="4.77564">
        <ele>271</ele>
        <time>2021-05-15T07:59:55.000Z</time>
      </trkpt>
      <trkpt lat="49.80124" lon="4.77562">
        <ele>271</ele>
        <time>2021-05-15T07:59:56.000Z</time>
      </trkpt>
      <trkpt lat="49.80123" lon="4.77559">
        <ele>271</ele>
        <time>2021-05-15T07:59:57.000Z</time>
      </trkpt>
      <trkpt lat="49.80122" lon="4.77557">
        <ele>271</ele>
        <time>2021-05-15T07:59:58.000Z</time>
      </trkpt>
      <trkpt lat="49.80121" lon="4.77555">
        <ele>271</ele>
        <time>2021-05-15T07:59:59.000Z</time>
      </trkpt>
      <trkpt lat="49.8012" lon="4.77554">
        <ele>271</ele>
        <time>2021-05-15T08:00:00.000Z</time>
      </trkpt>
      <trkpt lat="49.80119" lon="4.77552">
        <ele>271</ele>
        <time>2021-05-15T08:00:01.000Z</time>
      </trkpt>
      <trkpt lat="49.80118" lon="4.7755">
        <ele>271</ele>
        <time>2021-05-15T08:00:02.000Z</time>
      </trkpt>
      <trkpt lat="49.80117" lon="4.77548">
        <ele>272</ele>
        <time>2021-05-15T08:00:03.000Z</time>
      </trkpt>
      <trkpt lat="49.80116" lon="4.77547">
        <ele>272</ele>
        <time>2021-05-15T08:00:04.000Z</time>
      </trkpt>
      <trkpt lat="49.80115" lon="4.77545">
        <ele>272</ele>
        <time>2021-05-15T08:00:05.000Z</time>
      </trkpt>
      <trkpt lat="49.80114" lon="4.77543">
        <ele>272</ele>
        <time>2021-05-15T08:00:06.000Z</time>
      </trkpt>
      <trkpt lat="49.80111" lon="4.77541">
        <ele>272</ele>
        <time>2021-05-15T08:00:07.000Z</time>
      </trkpt>
      <trkpt lat="49.80109" lon="4.77539">
        <ele>272</ele>
        <time>2021-05-15T08:00:08.000Z</time>
      </trkpt>
      <trkpt lat="49.80108" lon="4.77538">
        <ele>273</ele>
        <time>2021-05-15T08:00:09.000Z</time>
      </trkpt>
      <trkpt lat="49.80106" lon="4.77536">
        <ele>273</ele>
        <time>2021-05-15T08:00:10.000Z</time>
      </trkpt>
      <trkpt lat="49.80104" lon="4.77534">
        <ele>273</ele>
        <time>2021-05-15T08:00:11.000Z</time>
      </trkpt>
      <trkpt lat="49.80102" lon="4.77532">
        <ele>274</ele>
        <time>2021-05-15T08:00:12.000Z</time>
      </trkpt>
      <trkpt lat="49.801" lon="4.7753">
        <ele>274</ele>
        <time>2021-05-15T08:00:13.000Z</time>
      </trkpt>
      <trkpt lat="49.80098" lon="4.77528">
        <ele>274</ele>
        <time>2021-05-15T08:00:14.000Z</time>
      </trkpt>
      <trkpt lat="49.80097" lon="4.77527">
        <ele>275</ele>
        <time>2021-05-15T08:00:15.000Z</time>
      </trkpt>
      <trkpt lat="49.80096" lon="4.77525">
        <ele>275</ele>
        <time>2021-05-15T08:00:16.000Z</time>
      </trkpt>
      <trkpt lat="49.80095" lon="4.77524">
        <ele>275</ele>
        <time>2021-05-15T08:00:17.000Z</time>
      </trkpt>
      <trkpt lat="49.80095" lon="4.77522">
        <ele>275</ele>
        <time>2021-05-15T08:00:18.000Z</time>
      </trkpt>
      <trkpt lat="49.80095" lon="4.7752">
        <ele>275</ele>
        <time>2021-05-15T08:00:19.000Z</time>
      </trkpt>
      <trkpt lat="49.80095" lon="4.77518">
        <ele>276</ele>
        <time>2021-05-15T08:00:20.000Z</time>
      </trkpt>
      <trkpt lat="49.80096" lon="4.77516">
        <ele>276</ele>
        <time>2021-05-15T08:00:21.000Z</time>
      </trkpt>
      <trkpt lat="49.80097" lon="4.77515">
        <ele>276</ele>
        <time>2021-05-15T08:00:22.000Z</time>
      </trkpt>
      <trkpt lat="49.80097" lon="4.77513">
        <ele>276</ele>
        <time>2021-05-15T08:00:23.000Z</time>
      </trkpt>
      <trkpt lat="49.80098" lon="4.77511">
        <ele>276</ele>
        <time>2021-05-15T08:00:24.000Z</time>
      </trkpt>
      <trkpt lat="49.80097" lon="4.7751">
        <ele>276</ele>
        <time>2021-05-15T08:00:25.000Z</time>
      </trkpt>
      <trkpt lat="49.80097" lon="4.77508">
        <ele>276</ele>
        <time>2021-05-15T08:00:26.000Z</time>
      </trkpt>
      <trkpt lat="49.80097" lon="4.77507">
        <ele>276</ele>
        <time>2021-05-15T08:00:27.000Z</time>
      </trkpt>
      <trkpt lat="49.80097" lon="4.77506">
        <ele>276</ele>
        <time>2021-05-15T08:00:28.000Z</time>
      </trkpt>
      <trkpt lat="49.80096" lon="4.77505">
        <ele>276</ele>
        <time>2021-05-15T08:00:29.000Z</time>
      </trkpt>
      <trkpt lat="49.80094" lon="4.77505">
        <ele>276</ele>
        <time>2021-05-15T08:00:30.000Z</time>
      </trkpt>
      <trkpt lat="49.80093" lon="4.77504">
        <ele>276</ele>
        <time>2021-05-15T08:00:31.000Z</time>
      </trkpt>
      <trkpt lat="49.80092" lon="4.77503">
        <ele>276</ele>
        <time>2021-05-15T08:00:32.000Z</time>
      </trkpt>
      <trkpt lat="49.80091" lon="4.77501">
        <ele>276</ele>
        <time>2021-05-15T08:00:33.000Z</time>
      </trkpt>
      <trkpt lat="49.8009" lon="4.77499">
        <ele>277</ele>
        <time>2021-05-15T08:00:34.000Z</time>
      </trkpt>
      <trkpt lat="49.80089" lon="4.77498">
        <ele>277</ele>
        <time>2021-05-15T08:00:35.000Z</time>
      </trkpt>
      <trkpt lat="49.80088" lon="4.77497">
        <ele>277</ele>
        <time>2021-05-15T08:00:36.000Z</time>
      </trkpt>
      <trkpt lat="49.80087" lon="4.77496">
        <ele>277</ele>
        <time>2021-05-15T08:00:37.000Z</time>
      </trkpt>
      <trkpt lat="49.80086" lon="4.77494">
        <ele>277</ele>
        <time>2021-05-15T08:00:38.000Z</time>
      </trkpt>
      <trkpt lat="49.80084" lon="4.77493">
        <ele>277</ele>
        <time>2021-05-15T08:00:39.000Z</time>
      </trkpt>
      <trkpt lat="49.80084" lon="4.77491">
        <ele>277</ele>
        <time>2021-05-15T08:00:40.000Z</time>
      </trkpt>
      <trkpt lat="49.80083" lon="4.77489">
        <ele>278</ele>
        <time>2021-05-15T08:00:41.000Z</time>
      </trkpt>
      <trkpt lat="49.80083" lon="4.77487">
        <ele>278</ele>
        <time>2021-05-15T08:00:42.000Z</time>
      </trkpt>
      <trkpt lat="49.80083" lon="4.77486">
        <ele>278</ele>
        <time>2021-05-15T08:00:43.000Z</time>
      </trkpt>
      <trkpt lat="49.80082" lon="4.77485">
        <ele>278</ele>
        <time>2021-05-15T08:00:44.000Z</time>
      </trkpt>
      <trkpt lat="49.80081" lon="4.77484">
        <ele>278</ele>
        <time>2021-05-15T08:00:45.000Z</time>
      </trkpt>
      <trkpt lat="49.8008" lon="4.77484">
        <ele>278</ele>
        <time>2021-05-15T08:00:46.000Z</time>
      </trkpt>
      <trkpt lat="49.80079" lon="4.77483">
        <ele>278</ele>
        <time>2021-05-15T08:00:47.000Z</time>
      </trkpt>
      <trkpt lat="49.80078" lon="4.77483">
        <ele>278</ele>
        <time>2021-05-15T08:00:48.000Z</time>
      </trkpt>
      <trkpt lat="49.80077" lon="4.77483">
        <ele>278</ele>
        <time>2021-05-15T08:00:49.000Z</time>
      </trkpt>
      <trkpt lat="49.80076" lon="4.77483">
        <ele>279</ele>
        <time>2021-05-15T08:00:50.000Z</time>
      </trkpt>
      <trkpt lat="49.80074" lon="4.77484">
        <ele>279</ele>
        <time>2021-05-15T08:00:51.000Z</time>
      </trkpt>
      <trkpt lat="49.80072" lon="4.77485">
        <ele>279</ele>
        <time>2021-05-15T08:00:52.000Z</time>
      </trkpt>
      <trkpt lat="49.8007" lon="4.77486">
        <ele>279</ele>
        <time>2021-05-15T08:00:53.000Z</time>
      </trkpt>
      <trkpt lat="49.80068" lon="4.77487">
        <ele>279</ele>
        <time>2021-05-15T08:00:54.000Z</time>
      </trkpt>
      <trkpt lat="49.80066" lon="4.77487">
        <ele>279</ele>
        <time>2021-05-15T08:00:55.000Z</time>
      </trkpt>
      <trkpt lat="49.80065" lon="4.77488">
        <ele>279</ele>
        <time>2021-05-15T08:00:56.000Z</time>
      </trkpt>
      <trkpt lat="49.80063" lon="4.77488">
        <ele>279</ele>
        <time>2021-05-15T08:00:57.000Z</time>
      </trkpt>
      <trkpt lat="49.80061" lon="4.77488">
        <ele>280</ele>
        <time>2021-05-15T08:00:58.000Z</time>
      </trkpt>
      <trkpt lat="49.8006" lon="4.77487">
        <ele>280</ele>
        <time>2021-05-15T08:00:59.000Z</time>
      </trkpt>
      <trkpt lat="49.80059" lon="4.77486">
        <ele>280</ele>
        <time>2021-05-15T08:01:00.000Z</time>
      </trkpt>
      <trkpt lat="49.80058" lon="4.77486">
        <ele>280</ele>
        <time>2021-05-15T08:01:01.000Z</time>
      </trkpt>
      <trkpt lat="49.80057" lon="4.77487">
        <ele>280</ele>
        <time>2021-05-15T08:01:02.000Z</time>
      </trkpt>
      <trkpt lat="49.80056" lon="4.77488">
        <ele>280</ele>
        <time>2021-05-15T08:01:03.000Z</time>
      </trkpt>
      <trkpt lat="49.80055" lon="4.77488">
        <ele>280</ele>
        <time>2021-05-15T08:01:04.000Z</time>
      </trkpt>
      <trkpt lat="49.80053" lon="4.77487">
        <ele>280</ele>
        <time>2021-05-15T08:01:05.000Z</time>
      </trkpt>
      <trkpt lat="49.80052" lon="4.77486">
        <ele>280</ele>
        <time>2021-05-15T08:01:06.000Z</time>
      </trkpt>
      <trkpt lat="49.8005" lon="4.77486">
        <ele>280</ele>
        <time>2021-05-15T08:01:07.000Z</time>
      </trkpt>
      <trkpt lat="49.80049" lon="4.77484">
        <ele>281</ele>
        <time>2021-05-15T08:01:08.000Z</time>
      </trkpt>
      <trkpt lat="49.80046" lon="4.77483">
        <ele>281</ele>
        <time>2021-05-15T08:01:09.000Z</time>
      </trkpt>
      <trkpt lat="49.80044" lon="4.77482">
        <ele>281</ele>
        <time>2021-05-15T08:01:10.000Z</time>
      </trkpt>
      <trkpt lat="49.80042" lon="4.7748">
        <ele>281</ele>
        <time>2021-05-15T08:01:11.000Z</time>
      </trkpt>
      <trkpt lat="49.8004" lon="4.77478">
        <ele>281</ele>
        <time>2021-05-15T08:01:12.000Z</time>
      </trkpt>
      <trkpt lat="49.80037" lon="4.77476">
        <ele>281</ele>
        <time>2021-05-15T08:01:13.000Z</time>
      </trkpt>
      <trkpt lat="49.80034" lon="4.77474">
        <ele>281</ele>
        <time>2021-05-15T08:01:14.000Z</time>
      </trkpt>
      <trkpt lat="49.80033" lon="4.77472">
        <ele>281</ele>
        <time>2021-05-15T08:01:15.000Z</time>
      </trkpt>
      <trkpt lat="49.80033" lon="4.77472">
        <ele>282</ele>
        <time>2021-05-15T08:01:16.000Z</time>
      </trkpt>
      <trkpt lat="49.80033" lon="4.77472">
        <ele>282</ele>
        <time>2021-05-15T08:01:17.000Z</time>
      </trkpt>
      <trkpt lat="49.80032" lon="4.77472">
        <ele>282</ele>
        <time>2021-05-15T08:01:18.000Z</time>
      </trkpt>
      <trkpt lat="49.80032" lon="4.77472">
        <ele>282</ele>
        <time>2021-05-15T08:01:19.000Z</time>
      </trkpt>
      <trkpt lat="49.80031" lon="4.77472">
        <ele>283</ele>
        <time>2021-05-15T08:01:20.000Z</time>
      </trkpt>
      <trkpt lat="49.80031" lon="4.77472">
        <ele>283</ele>
        <time>2021-05-15T08:01:21.000Z</time>
      </trkpt>
      <trkpt lat="49.80031" lon="4.77472">
        <ele>283</ele>
        <time>2021-05-15T08:01:22.000Z</time>
      </trkpt>
      <trkpt lat="49.8003" lon="4.77472">
        <ele>283</ele>
        <time>2021-05-15T08:01:23.000Z</time>
      </trkpt>
      <trkpt lat="49.8003" lon="4.77472">
        <ele>283</ele>
        <time>2021-05-15T08:01:24.000Z</time>
      </trkpt>
      <trkpt lat="49.8003" lon="4.77472">
        <ele>283</ele>
        <time>2021-05-15T08:01:25.000Z</time>
      </trkpt>
      <trkpt lat="49.80029" lon="4.77472">
        <ele>284</ele>
        <time>2021-05-15T08:01:26.000Z</time>
      </trkpt>
      <trkpt lat="49.80029" lon="4.77472">
        <ele>284</ele>
        <time>2021-05-15T08:01:27.000Z</time>
      </trkpt>
      <trkpt lat="49.80029" lon="4.77472">
        <ele>284</ele>
        <time>2021-05-15T08:01:28.000Z</time>
      </trkpt>
      <trkpt lat="49.80029" lon="4.77472">
        <ele>284</ele>
        <time>2021-05-15T08:01:29.000Z</time>
      </trkpt>
      <trkpt lat="49.80028" lon="4.77472">
        <ele>284</ele>
        <time>2021-05-15T08:01:30.000Z</time>
      </trkpt>
      <trkpt lat="49.80028" lon="4.77472">
        <ele>284</ele>
        <time>2021-05-15T08:01:31.000Z</time>
      </trkpt>
      <trkpt lat="49.80028" lon="4.77472">
        <ele>284</ele>
        <time>2021-05-15T08:01:32.000Z</time>
      </trkpt>
      <trkpt lat="49.80028" lon="4.77472">
        <ele>284</ele>
        <time>2021-05-15T08:01:33.000Z</time>
      </trkpt>
      <trkpt lat="49.80028" lon="4.77472">
        <ele>284</ele>
        <time>2021-05-15T08:01:34.000Z</time>
      </trkpt>
      <trkpt lat="49.80028" lon="4.77472">
        <ele>284</ele>
        <time>2021-05-15T08:01:35.000Z</time>
      </trkpt>
      <trkpt lat="49.80027" lon="4.77472">
        <ele>284</ele>
        <time>2021-05-15T08:01:36.000Z</time>
      </trkpt>
      <trkpt lat="49.80027" lon="4.77472">
        <ele>284</ele>
        <time>2021-05-15T08:01:37.000Z</time>
      </trkpt>
      <trkpt lat="49.80027" lon="4.77472">
        <ele>284</ele>
        <time>2021-05-15T08:01:38.000Z</time>
      </trkpt>
      <trkpt lat="49.80027" lon="4.77472">
        <ele>285</ele>
        <time>2021-05-15T08:01:39.000Z</time>
      </trkpt>
      <trkpt lat="49.80027" lon="4.77472">
        <ele>285</ele>
        <time>2021-05-15T08:01:40.000Z</time>
      </trkpt>
      <trkpt lat="49.80027" lon="4.77472">
        <ele>285</ele>
        <time>2021-05-15T08:01:41.000Z</time>
      </trkpt>
      <trkpt lat="49.80027" lon="4.77472">
        <ele>285</ele>
        <time>2021-05-15T08:01:42.000Z</time>
      </trkpt>
      <trkpt lat="49.80027" lon="4.77472">
        <ele>285</ele>
        <time>2021-05-15T08:01:43.000Z</time>
      </trkpt>
      <trkpt lat="49.80027" lon="4.77472">
        <ele>285</ele>
        <time>2021-05-15T08:01:44.000Z</time>
      </trkpt>
      <trkpt lat="49.80027" lon="4.77472">
        <ele>285</ele>
        <time>2021-05-15T08:01:45.000Z</time>
      </trkpt>
      <trkpt lat="49.80027" lon="4.77472">
        <ele>285</ele>
        <time>2021-05-15T08:01:46.000Z</time>
      </trkpt>
      <trkpt lat="49.80027" lon="4.77472">
        <ele>285</ele>
        <time>2021-05-15T08:01:47.000Z</time>
      </trkpt>
      <trkpt lat="49.80027" lon="4.77472">
        <ele>285</ele>
        <time>2021-05-15T08:01:48.000Z</time>
      </trkpt>
      <trkpt lat="49.80026" lon="4.77471">
        <ele>285</ele>
        <time>2021-05-15T08:01:49.000Z</time>
      </trkpt>
      <trkpt lat="49.80025" lon="4.7747">
        <ele>285</ele>
        <time>2021-05-15T08:01:50.000Z</time>
      </trkpt>
      <trkpt lat="49.80024" lon="4.77468">
        <ele>285</ele>
        <time>2021-05-15T08:01:51.000Z</time>
      </trkpt>
      <trkpt lat="49.80022" lon="4.77466">
        <ele>285</ele>
        <time>2021-05-15T08:01:52.000Z</time>
      </trkpt>
      <trkpt lat="49.8002" lon="4.77463">
        <ele>285</ele>
        <time>2021-05-15T08:01:53.000Z</time>
      </trkpt>
      <trkpt lat="49.80018" lon="4.77461">
        <ele>285</ele>
        <time>2021-05-15T08:01:54.000Z</time>
      </trkpt>
      <trkpt lat="49.80016" lon="4.77458">
        <ele>285</ele>
        <time>2021-05-15T08:01:55.000Z</time>
      </trkpt>
      <trkpt lat="49.80014" lon="4.77456">
        <ele>286</ele>
        <time>2021-05-15T08:01:56.000Z</time>
      </trkpt>
      <trkpt lat="49.80012" lon="4.77454">
        <ele>286</ele>
        <time>2021-05-15T08:01:57.000Z</time>
      </trkpt>
      <trkpt lat="49.8001" lon="4.77451">
        <ele>286</ele>
        <time>2021-05-15T08:01:58.000Z</time>
      </trkpt>
      <trkpt lat="49.80007" lon="4.77449">
        <ele>286</ele>
        <time>2021-05-15T08:01:59.000Z</time>
      </trkpt>
      <trkpt lat="49.80005" lon="4.77446">
        <ele>286</ele>
        <time>2021-05-15T08:02:00.000Z</time>
      </trkpt>
      <trkpt lat="49.80003" lon="4.77443">
        <ele>286</ele>
        <time>2021-05-15T08:02:01.000Z</time>
      </trkpt>
      <trkpt lat="49.80002" lon="4.7744">
        <ele>286</ele>
        <time>2021-05-15T08:02:02.000Z</time>
      </trkpt>
      <trkpt lat="49.8" lon="4.77437">
        <ele>286</ele>
        <time>2021-05-15T08:02:03.000Z</time>
      </trkpt>
      <trkpt lat="49.79998" lon="4.77435">
        <ele>286</ele>
        <time>2021-05-15T08:02:04.000Z</time>
      </trkpt>
      <trkpt lat="49.79995" lon="4.77431">
        <ele>287</ele>
        <time>2021-05-15T08:02:05.000Z</time>
      </trkpt>
      <trkpt lat="49.79993" lon="4.77428">
        <ele>287</ele>
        <time>2021-05-15T08:02:06.000Z</time>
      </trkpt>
      <trkpt lat="49.79991" lon="4.77425">
        <ele>287</ele>
        <time>2021-05-15T08:02:07.000Z</time>
      </trkpt>
      <trkpt lat="49.7999" lon="4.7742">
        <ele>287</ele>
        <time>2021-05-15T08:02:08.000Z</time>
      </trkpt>
      <trkpt lat="49.79988" lon="4.77415">
        <ele>287</ele>
        <time>2021-05-15T08:02:09.000Z</time>
      </trkpt>
      <trkpt lat="49.79986" lon="4.7741">
        <ele>287</ele>
        <time>2021-05-15T08:02:10.000Z</time>
      </trkpt>
      <trkpt lat="49.79984" lon="4.77405">
        <ele>287</ele>
        <time>2021-05-15T08:02:11.000Z</time>
      </trkpt>
      <trkpt lat="49.79981" lon="4.77401">
        <ele>287</ele>
        <time>2021-05-15T08:02:12.000Z</time>
      </trkpt>
      <trkpt lat="49.79978" lon="4.77397">
        <ele>288</ele>
        <time>2021-05-15T08:02:13.000Z</time>
      </trkpt>
      <trkpt lat="49.79975" lon="4.77392">
        <ele>288</ele>
        <time>2021-05-15T08:02:14.000Z</time>
      </trkpt>
      <trkpt lat="49.79973" lon="4.77387">
        <ele>288</ele>
        <time>2021-05-15T08:02:15.000Z</time>
      </trkpt>
      <trkpt lat="49.7997" lon="4.77383">
        <ele>288</ele>
        <time>2021-05-15T08:02:16.000Z</time>
      </trkpt>
      <trkpt lat="49.79967" lon="4.77378">
        <ele>289</ele>
        <time>2021-05-15T08:02:17.000Z</time>
      </trkpt>
      <trkpt lat="49.79964" lon="4.77374">
        <ele>289</ele>
        <time>2021-05-15T08:02:18.000Z</time>
      </trkpt>
      <trkpt lat="49.79962" lon="4.77371">
        <ele>289</ele>
        <time>2021-05-15T08:02:19.000Z</time>
      </trkpt>
      <trkpt lat="49.79959" lon="4.77367">
        <ele>289</ele>
        <time>2021-05-15T08:02:20.000Z</time>
      </trkpt>
      <trkpt lat="49.79956" lon="4.77363">
        <ele>289</ele>
        <time>2021-05-15T08:02:21.000Z</time>
      </trkpt>
      <trkpt lat="49.79953" lon="4.7736">
        <ele>290</ele>
        <time>2021-05-15T08:02:22.000Z</time>
      </trkpt>
      <trkpt lat="49.7995" lon="4.77357">
        <ele>290</ele>
        <time>2021-05-15T08:02:23.000Z</time>
      </trkpt>
      <trkpt lat="49.79949" lon="4.77354">
        <ele>290</ele>
        <time>2021-05-15T08:02:24.000Z</time>
      </trkpt>
      <trkpt lat="49.79947" lon="4.77351">
        <ele>290</ele>
        <time>2021-05-15T08:02:25.000Z</time>
      </trkpt>
      <trkpt lat="49.79945" lon="4.77348">
        <ele>290</ele>
        <time>2021-05-15T08:02:26.000Z</time>
      </trkpt>
      <trkpt lat="49.79943" lon="4.77344">
        <ele>291</ele>
        <time>2021-05-15T08:02:27.000Z</time>
      </trkpt>
      <trkpt lat="49.79941" lon="4.7734">
        <ele>291</ele>
        <time>2021-05-15T08:02:28.000Z</time>
      </trkpt>
      <trkpt lat="49.79939" lon="4.77336">
        <ele>291</ele>
        <time>2021-05-15T08:02:29.000Z</time>
      </trkpt>
      <trkpt lat="49.79936" lon="4.77332">
        <ele>291</ele>
        <time>2021-05-15T08:02:30.000Z</time>
      </trkpt>
      <trkpt lat="49.79933" lon="4.77328">
        <ele>291</ele>
        <time>2021-05-15T08:02:31.000Z</time>
      </trkpt>
      <trkpt lat="49.79929" lon="4.77324">
        <ele>291</ele>
        <time>2021-05-15T08:02:32.000Z</time>
      </trkpt>
      <trkpt lat="49.79926" lon="4.77321">
        <ele>291</ele>
        <time>2021-05-15T08:02:33.000Z</time>
      </trkpt>
      <trkpt lat="49.79924" lon="4.77318">
        <ele>291</ele>
        <time>2021-05-15T08:02:34.000Z</time>
      </trkpt>
      <trkpt lat="49.79921" lon="4.77314">
        <ele>291</ele>
        <time>2021-05-15T08:02:35.000Z</time>
      </trkpt>
      <trkpt lat="49.79918" lon="4.7731">
        <ele>291</ele>
        <time>2021-05-15T08:02:36.000Z</time>
      </trkpt>
      <trkpt lat="49.79914" lon="4.77307">
        <ele>292</ele>
        <time>2021-05-15T08:02:37.000Z</time>
      </trkpt>
      <trkpt lat="49.79911" lon="4.77304">
        <ele>292</ele>
        <time>2021-05-15T08:02:38.000Z</time>
      </trkpt>
      <trkpt lat="49.79907" lon="4.773">
        <ele>292</ele>
        <time>2021-05-15T08:02:39.000Z</time>
      </trkpt>
      <trkpt lat="49.79904" lon="4.77297">
        <ele>292</ele>
        <time>2021-05-15T08:02:40.000Z</time>
      </trkpt>
      <trkpt lat="49.799" lon="4.77293">
        <ele>292</ele>
        <time>2021-05-15T08:02:41.000Z</time>
      </trkpt>
      <trkpt lat="49.79897" lon="4.77289">
        <ele>292</ele>
        <time>2021-05-15T08:02:42.000Z</time>
      </trkpt>
      <trkpt lat="49.79894" lon="4.77284">
        <ele>292</ele>
        <time>2021-05-15T08:02:43.000Z</time>
      </trkpt>
      <trkpt lat="49.79891" lon="4.7728">
        <ele>293</ele>
        <time>2021-05-15T08:02:44.000Z</time>
      </trkpt>
      <trkpt lat="49.79888" lon="4.77274">
        <ele>293</ele>
        <time>2021-05-15T08:02:45.000Z</time>
      </trkpt>
      <trkpt lat="49.79884" lon="4.7727">
        <ele>293</ele>
        <time>2021-05-15T08:02:46.000Z</time>
      </trkpt>
      <trkpt lat="49.79881" lon="4.77265">
        <ele>293</ele>
        <time>2021-05-15T08:02:47.000Z</time>
      </trkpt>
      <trkpt lat="49.79878" lon="4.77261">
        <ele>293</ele>
        <time>2021-05-15T08:02:48.000Z</time>
      </trkpt>
      <trkpt lat="49.79875" lon="4.77256">
        <ele>293</ele>
        <time>2021-05-15T08:02:49.000Z</time>
      </trkpt>
      <trkpt lat="49.79873" lon="4.7725">
        <ele>293</ele>
        <time>2021-05-15T08:02:50.000Z</time>
      </trkpt>
      <trkpt lat="49.79873" lon="4.77245">
        <ele>293</ele>
        <time>2021-05-15T08:02:51.000Z</time>
      </trkpt>
      <trkpt lat="49.79873" lon="4.77242">
        <ele>293</ele>
        <time>2021-05-15T08:02:52.000Z</time>
      </trkpt>
      <trkpt lat="49.79875" lon="4.77241">
        <ele>293</ele>
        <time>2021-05-15T08:02:53.000Z</time>
      </trkpt>
      <trkpt lat="49.79878" lon="4.7724">
        <ele>293</ele>
        <time>2021-05-15T08:02:54.000Z</time>
      </trkpt>
      <trkpt lat="49.79882" lon="4.77239">
        <ele>293</ele>
        <time>2021-05-15T08:02:55.000Z</time>
      </trkpt>
      <trkpt lat="49.79886" lon="4.77238">
        <ele>293</ele>
        <time>2021-05-15T08:02:56.000Z</time>
      </trkpt>
      <trkpt lat="49.7989" lon="4.77237">
        <ele>293</ele>
        <time>2021-05-15T08:02:57.000Z</time>
      </trkpt>
      <trkpt lat="49.79895" lon="4.77236">
        <ele>293</ele>
        <time>2021-05-15T08:02:58.000Z</time>
      </trkpt>
      <trkpt lat="49.79899" lon="4.77235">
        <ele>293</ele>
        <time>2021-05-15T08:02:59.000Z</time>
      </trkpt>
      <trkpt lat="49.79904" lon="4.77234">
        <ele>293</ele>
        <time>2021-05-15T08:03:00.000Z</time>
      </trkpt>
      <trkpt lat="49.7991" lon="4.77233">
        <ele>293</ele>
        <time>2021-05-15T08:03:01.000Z</time>
      </trkpt>
      <trkpt lat="49.79915" lon="4.77232">
        <ele>293</ele>
        <time>2021-05-15T08:03:02.000Z</time>
      </trkpt>
      <trkpt lat="49.7992" lon="4.77231">
        <ele>293</ele>
        <time>2021-05-15T08:03:03.000Z</time>
      </trkpt>
      <trkpt lat="49.79925" lon="4.77229">
        <ele>293</ele>
        <time>2021-05-15T08:03:04.000Z</time>
      </trkpt>
      <trkpt lat="49.7993" lon="4.77228">
        <ele>293</ele>
        <time>2021-05-15T08:03:05.000Z</time>
      </trkpt>
      <trkpt lat="49.79935" lon="4.77228">
        <ele>293</ele>
        <time>2021-05-15T08:03:06.000Z</time>
      </trkpt>
      <trkpt lat="49.79939" lon="4.77227">
        <ele>293</ele>
        <time>2021-05-15T08:03:07.000Z</time>
      </trkpt>
      <trkpt lat="49.79944" lon="4.77227">
        <ele>293</ele>
        <time>2021-05-15T08:03:08.000Z</time>
      </trkpt>
      <trkpt lat="49.79948" lon="4.77226">
        <ele>293</ele>
        <time>2021-05-15T08:03:09.000Z</time>
      </trkpt>
      <trkpt lat="49.79953" lon="4.77225">
        <ele>293</ele>
        <time>2021-05-15T08:03:10.000Z</time>
      </trkpt>
      <trkpt lat="49.79958" lon="4.77223">
        <ele>292</ele>
        <time>2021-05-15T08:03:11.000Z</time>
      </trkpt>
      <trkpt lat="49.79963" lon="4.77221">
        <ele>292</ele>
        <time>2021-05-15T08:03:12.000Z</time>
      </trkpt>
      <trkpt lat="49.79968" lon="4.77218">
        <ele>292</ele>
        <time>2021-05-15T08:03:13.000Z</time>
      </trkpt>
      <trkpt lat="49.79973" lon="4.77215">
        <ele>292</ele>
        <time>2021-05-15T08:03:14.000Z</time>
      </trkpt>
      <trkpt lat="49.79979" lon="4.77211">
        <ele>292</ele>
        <time>2021-05-15T08:03:15.000Z</time>
      </trkpt>
      <trkpt lat="49.79984" lon="4.77206">
        <ele>292</ele>
        <time>2021-05-15T08:03:16.000Z</time>
      </trkpt>
      <trkpt lat="49.79989" lon="4.77201">
        <ele>292</ele>
        <time>2021-05-15T08:03:17.000Z</time>
      </trkpt>
      <trkpt lat="49.79994" lon="4.77195">
        <ele>292</ele>
        <time>2021-05-15T08:03:18.000Z</time>
      </trkpt>
      <trkpt lat="49.79998" lon="4.7719">
        <ele>292</ele>
        <time>2021-05-15T08:03:19.000Z</time>
      </trkpt>
      <trkpt lat="49.80003" lon="4.77186">
        <ele>292</ele>
        <time>2021-05-15T08:03:20.000Z</time>
      </trkpt>
      <trkpt lat="49.80008" lon="4.77181">
        <ele>291</ele>
        <time>2021-05-15T08:03:21.000Z</time>
      </trkpt>
      <trkpt lat="49.80013" lon="4.77176">
        <ele>291</ele>
        <time>2021-05-15T08:03:22.000Z</time>
      </trkpt>
      <trkpt lat="49.80018" lon="4.77171">
        <ele>291</ele>
        <time>2021-05-15T08:03:23.000Z</time>
      </trkpt>
      <trkpt lat="49.80022" lon="4.77166">
        <ele>291</ele>
        <time>2021-05-15T08:03:24.000Z</time>
      </trkpt>
      <trkpt lat="49.80027" lon="4.77161">
        <ele>291</ele>
        <time>2021-05-15T08:03:25.000Z</time>
      </trkpt>
      <trkpt lat="49.80031" lon="4.77156">
        <ele>291</ele>
        <time>2021-05-15T08:03:26.000Z</time>
      </trkpt>
      <trkpt lat="49.80036" lon="4.77151">
        <ele>291</ele>
        <time>2021-05-15T08:03:27.000Z</time>
      </trkpt>
      <trkpt lat="49.8004" lon="4.77146">
        <ele>291</ele>
        <time>2021-05-15T08:03:28.000Z</time>
      </trkpt>
      <trkpt lat="49.80045" lon="4.77141">
        <ele>291</ele>
        <time>2021-05-15T08:03:29.000Z</time>
      </trkpt>
      <trkpt lat="49.80049" lon="4.77136">
        <ele>291</ele>
        <time>2021-05-15T08:03:30.000Z</time>
      </trkpt>
      <trkpt lat="49.80054" lon="4.77131">
        <ele>291</ele>
        <time>2021-05-15T08:03:31.000Z</time>
      </trkpt>
      <trkpt lat="49.80058" lon="4.77126">
        <ele>290</ele>
        <time>2021-05-15T08:03:32.000Z</time>
      </trkpt>
      <trkpt lat="49.80063" lon="4.77121">
        <ele>290</ele>
        <time>2021-05-15T08:03:33.000Z</time>
      </trkpt>
      <trkpt lat="49.80068" lon="4.77117">
        <ele>290</ele>
        <time>2021-05-15T08:03:34.000Z</time>
      </trkpt>
      <trkpt lat="49.80072" lon="4.77113">
        <ele>290</ele>
        <time>2021-05-15T08:03:35.000Z</time>
      </trkpt>
      <trkpt lat="49.80076" lon="4.7711">
        <ele>291</ele>
        <time>2021-05-15T08:03:36.000Z</time>
      </trkpt>
      <trkpt lat="49.80081" lon="4.77105">
        <ele>291</ele>
        <time>2021-05-15T08:03:37.000Z</time>
      </trkpt>
      <trkpt lat="49.80085" lon="4.77101">
        <ele>291</ele>
        <time>2021-05-15T08:03:38.000Z</time>
      </trkpt>
      <trkpt lat="49.8009" lon="4.77097">
        <ele>291</ele>
        <time>2021-05-15T08:03:39.000Z</time>
      </trkpt>
      <trkpt lat="49.80095" lon="4.77093">
        <ele>291</ele>
        <time>2021-05-15T08:03:40.000Z</time>
      </trkpt>
      <trkpt lat="49.80099" lon="4.77089">
        <ele>291</ele>
        <time>2021-05-15T08:03:41.000Z</time>
      </trkpt>
      <trkpt lat="49.80103" lon="4.77085">
        <ele>291</ele>
        <time>2021-05-15T08:03:42.000Z</time>
      </trkpt>
      <trkpt lat="49.80107" lon="4.7708">
        <ele>291</ele>
        <time>2021-05-15T08:03:43.000Z</time>
      </trkpt>
      <trkpt lat="49.80111" lon="4.77075">
        <ele>291</ele>
        <time>2021-05-15T08:03:44.000Z</time>
      </trkpt>
      <trkpt lat="49.80116" lon="4.7707">
        <ele>291</ele>
        <time>2021-05-15T08:03:45.000Z</time>
      </trkpt>
      <trkpt lat="49.80121" lon="4.77066">
        <ele>291</ele>
        <time>2021-05-15T08:03:46.000Z</time>
      </trkpt>
      <trkpt lat="49.80125" lon="4.77062">
        <ele>291</ele>
        <time>2021-05-15T08:03:47.000Z</time>
      </trkpt>
      <trkpt lat="49.8013" lon="4.77058">
        <ele>291</ele>
        <time>2021-05-15T08:03:48.000Z</time>
      </trkpt>
      <trkpt lat="49.80134" lon="4.77054">
        <ele>291</ele>
        <time>2021-05-15T08:03:49.000Z</time>
      </trkpt>
      <trkpt lat="49.80138" lon="4.7705">
        <ele>292</ele>
        <time>2021-05-15T08:03:50.000Z</time>
      </trkpt>
      <trkpt lat="49.80142" lon="4.77045">
        <ele>292</ele>
        <time>2021-05-15T08:03:51.000Z</time>
      </trkpt>
      <trkpt lat="49.80146" lon="4.77041">
        <ele>292</ele>
        <time>2021-05-15T08:03:52.000Z</time>
      </trkpt>
      <trkpt lat="49.80151" lon="4.77036">
        <ele>292</ele>
        <time>2021-05-15T08:03:53.000Z</time>
      </trkpt>
      <trkpt lat="49.80155" lon="4.77032">
        <ele>292</ele>
        <time>2021-05-15T08:03:54.000Z</time>
      </trkpt>
      <trkpt lat="49.8016" lon="4.77028">
        <ele>292</ele>
        <time>2021-05-15T08:03:55.000Z</time>
      </trkpt>
      <trkpt lat="49.80165" lon="4.77024">
        <ele>292</ele>
        <time>2021-05-15T08:03:56.000Z</time>
      </trkpt>
      <trkpt lat="49.80169" lon="4.77019">
        <ele>292</ele>
        <time>2021-05-15T08:03:57.000Z</time>
      </trkpt>
      <trkpt lat="49.80173" lon="4.77015">
        <ele>292</ele>
        <time>2021-05-15T08:03:58.000Z</time>
      </trkpt>
      <trkpt lat="49.80178" lon="4.7701">
        <ele>292</ele>
        <time>2021-05-15T08:03:59.000Z</time>
      </trkpt>
      <trkpt lat="49.80183" lon="4.77007">
        <ele>292</ele>
        <time>2021-05-15T08:04:00.000Z</time>
      </trkpt>
      <trkpt lat="49.80187" lon="4.77004">
        <ele>292</ele>
        <time>2021-05-15T08:04:01.000Z</time>
      </trkpt>
      <trkpt lat="49.80192" lon="4.77">
        <ele>292</ele>
        <time>2021-05-15T08:04:02.000Z</time>
      </trkpt>
      <trkpt lat="49.80196" lon="4.76997">
        <ele>292</ele>
        <time>2021-05-15T08:04:03.000Z</time>
      </trkpt>
      <trkpt lat="49.80201" lon="4.76994">
        <ele>292</ele>
        <time>2021-05-15T08:04:04.000Z</time>
      </trkpt>
      <trkpt lat="49.80206" lon="4.7699">
        <ele>292</ele>
        <time>2021-05-15T08:04:05.000Z</time>
      </trkpt>
      <trkpt lat="49.80211" lon="4.76986">
        <ele>293</ele>
        <time>2021-05-15T08:04:06.000Z</time>
      </trkpt>
      <trkpt lat="49.80216" lon="4.76982">
        <ele>293</ele>
        <time>2021-05-15T08:04:07.000Z</time>
      </trkpt>
      <trkpt lat="49.8022" lon="4.76978">
        <ele>293</ele>
        <time>2021-05-15T08:04:08.000Z</time>
      </trkpt>
      <trkpt lat="49.80225" lon="4.76973">
        <ele>293</ele>
        <time>2021-05-15T08:04:09.000Z</time>
      </trkpt>
      <trkpt lat="49.80229" lon="4.76969">
        <ele>293</ele>
        <time>2021-05-15T08:04:10.000Z</time>
      </trkpt>
      <trkpt lat="49.80234" lon="4.76965">
        <ele>293</ele>
        <time>2021-05-15T08:04:11.000Z</time>
      </trkpt>
      <trkpt lat="49.80238" lon="4.76961">
        <ele>293</ele>
        <time>2021-05-15T08:04:12.000Z</time>
      </trkpt>
      <trkpt lat="49.80242" lon="4.76959">
        <ele>293</ele>
        <time>2021-05-15T08:04:13.000Z</time>
      </trkpt>
      <trkpt lat="49.80246" lon="4.76956">
        <ele>293</ele>
        <time>2021-05-15T08:04:14.000Z</time>
      </trkpt>
      <trkpt lat="49.8025" lon="4.76953">
        <ele>293</ele>
        <time>2021-05-15T08:04:15.000Z</time>
      </trkpt>
      <trkpt lat="49.80255" lon="4.7695">
        <ele>293</ele>
        <time>2021-05-15T08:04:16.000Z</time>
      </trkpt>
      <trkpt lat="49.80258" lon="4.76947">
        <ele>293</ele>
        <time>2021-05-15T08:04:17.000Z</time>
      </trkpt>
      <trkpt lat="49.80261" lon="4.76944">
        <ele>293</ele>
        <time>2021-05-15T08:04:18.000Z</time>
      </trkpt>
      <trkpt lat="49.80265" lon="4.76941">
        <ele>293</ele>
        <time>2021-05-15T08:04:19.000Z</time>
      </trkpt>
      <trkpt lat="49.80269" lon="4.76938">
        <ele>294</ele>
        <time>2021-05-15T08:04:20.000Z</time>
      </trkpt>
      <trkpt lat="49.80274" lon="4.76934">
        <ele>294</ele>
        <time>2021-05-15T08:04:21.000Z</time>
      </trkpt>
      <trkpt lat="49.80278" lon="4.7693">
        <ele>294</ele>
        <time>2021-05-15T08:04:22.000Z</time>
      </trkpt>
      <trkpt lat="49.80284" lon="4.76927">
        <ele>295</ele>
        <time>2021-05-15T08:04:23.000Z</time>
      </trkpt>
      <trkpt lat="49.80288" lon="4.76924">
        <ele>295</ele>
        <time>2021-05-15T08:04:24.000Z</time>
      </trkpt>
      <trkpt lat="49.80292" lon="4.76921">
        <ele>295</ele>
        <time>2021-05-15T08:04:25.000Z</time>
      </trkpt>
      <trkpt lat="49.80297" lon="4.76917">
        <ele>296</ele>
        <time>2021-05-15T08:04:26.000Z</time>
      </trkpt>
      <trkpt lat="49.80302" lon="4.76913">
        <ele>296</ele>
        <time>2021-05-15T08:04:27.000Z</time>
      </trkpt>
      <trkpt lat="49.80307" lon="4.76909">
        <ele>296</ele>
        <time>2021-05-15T08:04:28.000Z</time>
      </trkpt>
      <trkpt lat="49.80312" lon="4.76906">
        <ele>296</ele>
        <time>2021-05-15T08:04:29.000Z</time>
      </trkpt>
      <trkpt lat="49.80317" lon="4.76903">
        <ele>297</ele>
        <time>2021-05-15T08:04:30.000Z</time>
      </trkpt>
      <trkpt lat="49.80322" lon="4.769">
        <ele>297</ele>
        <time>2021-05-15T08:04:31.000Z</time>
      </trkpt>
      <trkpt lat="49.80326" lon="4.76898">
        <ele>297</ele>
        <time>2021-05-15T08:04:32.000Z</time>
      </trkpt>
      <trkpt lat="49.8033" lon="4.76895">
        <ele>297</ele>
        <time>2021-05-15T08:04:33.000Z</time>
      </trkpt>
      <trkpt lat="49.80334" lon="4.76892">
        <ele>297</ele>
        <time>2021-05-15T08:04:34.000Z</time>
      </trkpt>
      <trkpt lat="49.80338" lon="4.7689">
        <ele>297</ele>
        <time>2021-05-15T08:04:35.000Z</time>
      </trkpt>
      <trkpt lat="49.80342" lon="4.76887">
        <ele>298</ele>
        <time>2021-05-15T08:04:36.000Z</time>
      </trkpt>
      <trkpt lat="49.80346" lon="4.76885">
        <ele>298</ele>
        <time>2021-05-15T08:04:37.000Z</time>
      </trkpt>
      <trkpt lat="49.8035" lon="4.76882">
        <ele>298</ele>
        <time>2021-05-15T08:04:38.000Z</time>
      </trkpt>
      <trkpt lat="49.80353" lon="4.76879">
        <ele>298</ele>
        <time>2021-05-15T08:04:39.000Z</time>
      </trkpt>
      <trkpt lat="49.80358" lon="4.76875">
        <ele>298</ele>
        <time>2021-05-15T08:04:40.000Z</time>
      </trkpt>
      <trkpt lat="49.80362" lon="4.76872">
        <ele>298</ele>
        <time>2021-05-15T08:04:41.000Z</time>
      </trkpt>
      <trkpt lat="49.80366" lon="4.7687">
        <ele>298</ele>
        <time>2021-05-15T08:04:42.000Z</time>
      </trkpt>
      <trkpt lat="49.80371" lon="4.76867">
        <ele>298</ele>
        <time>2021-05-15T08:04:43.000Z</time>
      </trkpt>
      <trkpt lat="49.80374" lon="4.76864">
        <ele>298</ele>
        <time>2021-05-15T08:04:44.000Z</time>
      </trkpt>
      <trkpt lat="49.80379" lon="4.76861">
        <ele>298</ele>
        <time>2021-05-15T08:04:45.000Z</time>
      </trkpt>
      <trkpt lat="49.80383" lon="4.76858">
        <ele>298</ele>
        <time>2021-05-15T08:04:46.000Z</time>
      </trkpt>
      <trkpt lat="49.80388" lon="4.76856">
        <ele>298</ele>
        <time>2021-05-15T08:04:47.000Z</time>
      </trkpt>
      <trkpt lat="49.80392" lon="4.76852">
        <ele>298</ele>
        <time>2021-05-15T08:04:48.000Z</time>
      </trkpt>
      <trkpt lat="49.80397" lon="4.76848">
        <ele>298</ele>
        <time>2021-05-15T08:04:49.000Z</time>
      </trkpt>
      <trkpt lat="49.80402" lon="4.76845">
        <ele>299</ele>
        <time>2021-05-15T08:04:50.000Z</time>
      </trkpt>
      <trkpt lat="49.80407" lon="4.76841">
        <ele>299</ele>
        <time>2021-05-15T08:04:51.000Z</time>
      </trkpt>
      <trkpt lat="49.80412" lon="4.76838">
        <ele>299</ele>
        <time>2021-05-15T08:04:52.000Z</time>
      </trkpt>
      <trkpt lat="49.80416" lon="4.76835">
        <ele>299</ele>
        <time>2021-05-15T08:04:53.000Z</time>
      </trkpt>
      <trkpt lat="49.8042" lon="4.76832">
        <ele>299</ele>
        <time>2021-05-15T08:04:54.000Z</time>
      </trkpt>
      <trkpt lat="49.80424" lon="4.76829">
        <ele>299</ele>
        <time>2021-05-15T08:04:55.000Z</time>
      </trkpt>
      <trkpt lat="49.80428" lon="4.76825">
        <ele>299</ele>
        <time>2021-05-15T08:04:56.000Z</time>
      </trkpt>
      <trkpt lat="49.80432" lon="4.76821">
        <ele>299</ele>
        <time>2021-05-15T08:04:57.000Z</time>
      </trkpt>
      <trkpt lat="49.80436" lon="4.76817">
        <ele>299</ele>
        <time>2021-05-15T08:04:58.000Z</time>
      </trkpt>
      <trkpt lat="49.80441" lon="4.76814">
        <ele>300</ele>
        <time>2021-05-15T08:04:59.000Z</time>
      </trkpt>
      <trkpt lat="49.80445" lon="4.76811">
        <ele>300</ele>
        <time>2021-05-15T08:05:00.000Z</time>
      </trkpt>
      <trkpt lat="49.80449" lon="4.76808">
        <ele>300</ele>
        <time>2021-05-15T08:05:01.000Z</time>
      </trkpt>
      <trkpt lat="49.80454" lon="4.76804">
        <ele>300</ele>
        <time>2021-05-15T08:05:02.000Z</time>
      </trkpt>
      <trkpt lat="49.80458" lon="4.76801">
        <ele>300</ele>
        <time>2021-05-15T08:05:03.000Z</time>
      </trkpt>
      <trkpt lat="49.80462" lon="4.76798">
        <ele>301</ele>
        <time>2021-05-15T08:05:04.000Z</time>
      </trkpt>
      <trkpt lat="49.80466" lon="4.76795">
        <ele>301</ele>
        <time>2021-05-15T08:05:05.000Z</time>
      </trkpt>
      <trkpt lat="49.8047" lon="4.76792">
        <ele>301</ele>
        <time>2021-05-15T08:05:06.000Z</time>
      </trkpt>
      <trkpt lat="49.80474" lon="4.7679">
        <ele>301</ele>
        <time>2021-05-15T08:05:07.000Z</time>
      </trkpt>
      <trkpt lat="49.80477" lon="4.76788">
        <ele>301</ele>
        <time>2021-05-15T08:05:08.000Z</time>
      </trkpt>
      <trkpt lat="49.80481" lon="4.76787">
        <ele>302</ele>
        <time>2021-05-15T08:05:09.000Z</time>
      </trkpt>
      <trkpt lat="49.80484" lon="4.76785">
        <ele>302</ele>
        <time>2021-05-15T08:05:10.000Z</time>
      </trkpt>
      <trkpt lat="49.80487" lon="4.76784">
        <ele>302</ele>
        <time>2021-05-15T08:05:11.000Z</time>
      </trkpt>
      <trkpt lat="49.80489" lon="4.76783">
        <ele>302</ele>
        <time>2021-05-15T08:05:12.000Z</time>
      </trkpt>
      <trkpt lat="49.80492" lon="4.76782">
        <ele>302</ele>
        <time>2021-05-15T08:05:13.000Z</time>
      </trkpt>
      <trkpt lat="49.80495" lon="4.7678">
        <ele>302</ele>
        <time>2021-05-15T08:05:14.000Z</time>
      </trkpt>
      <trkpt lat="49.80498" lon="4.76778">
        <ele>302</ele>
        <time>2021-05-15T08:05:15.000Z</time>
      </trkpt>
      <trkpt lat="49.80502" lon="4.76776">
        <ele>302</ele>
        <time>2021-05-15T08:05:16.000Z</time>
      </trkpt>
      <trkpt lat="49.80504" lon="4.76775">
        <ele>303</ele>
        <time>2021-05-15T08:05:17.000Z</time>
      </trkpt>
      <trkpt lat="49.80507" lon="4.76773">
        <ele>303</ele>
        <time>2021-05-15T08:05:18.000Z</time>
      </trkpt>
      <trkpt lat="49.8051" lon="4.76771">
        <ele>303</ele>
        <time>2021-05-15T08:05:19.000Z</time>
      </trkpt>
      <trkpt lat="49.80513" lon="4.76769">
        <ele>303</ele>
        <time>2021-05-15T08:05:20.000Z</time>
      </trkpt>
      <trkpt lat="49.80516" lon="4.76768">
        <ele>303</ele>
        <time>2021-05-15T08:05:21.000Z</time>
      </trkpt>
      <trkpt lat="49.8052" lon="4.76767">
        <ele>303</ele>
        <time>2021-05-15T08:05:22.000Z</time>
      </trkpt>
      <trkpt lat="49.80523" lon="4.76766">
        <ele>303</ele>
        <time>2021-05-15T08:05:23.000Z</time>
      </trkpt>
      <trkpt lat="49.80525" lon="4.76764">
        <ele>303</ele>
        <time>2021-05-15T08:05:24.000Z</time>
      </trkpt>
      <trkpt lat="49.80527" lon="4.76762">
        <ele>303</ele>
        <time>2021-05-15T08:05:25.000Z</time>
      </trkpt>
      <trkpt lat="49.80529" lon="4.76761">
        <ele>303</ele>
        <time>2021-05-15T08:05:26.000Z</time>
      </trkpt>
      <trkpt lat="49.80532" lon="4.76759">
        <ele>303</ele>
        <time>2021-05-15T08:05:27.000Z</time>
      </trkpt>
      <trkpt lat="49.80535" lon="4.76757">
        <ele>304</ele>
        <time>2021-05-15T08:05:28.000Z</time>
      </trkpt>
      <trkpt lat="49.80539" lon="4.76754">
        <ele>304</ele>
        <time>2021-05-15T08:05:29.000Z</time>
      </trkpt>
      <trkpt lat="49.80542" lon="4.76751">
        <ele>304</ele>
        <time>2021-05-15T08:05:30.000Z</time>
      </trkpt>
      <trkpt lat="49.80545" lon="4.76748">
        <ele>304</ele>
        <time>2021-05-15T08:05:31.000Z</time>
      </trkpt>
      <trkpt lat="49.80548" lon="4.76746">
        <ele>305</ele>
        <time>2021-05-15T08:05:32.000Z</time>
      </trkpt>
      <trkpt lat="49.80551" lon="4.76744">
        <ele>305</ele>
        <time>2021-05-15T08:05:33.000Z</time>
      </trkpt>
      <trkpt lat="49.80553" lon="4.76742">
        <ele>305</ele>
        <time>2021-05-15T08:05:34.000Z</time>
      </trkpt>
      <trkpt lat="49.80556" lon="4.76739">
        <ele>306</ele>
        <time>2021-05-15T08:05:35.000Z</time>
      </trkpt>
      <trkpt lat="49.80558" lon="4.76737">
        <ele>306</ele>
        <time>2021-05-15T08:05:36.000Z</time>
      </trkpt>
      <trkpt lat="49.8056" lon="4.76735">
        <ele>306</ele>
        <time>2021-05-15T08:05:37.000Z</time>
      </trkpt>
      <trkpt lat="49.80563" lon="4.76734">
        <ele>307</ele>
        <time>2021-05-15T08:05:38.000Z</time>
      </trkpt>
      <trkpt lat="49.80566" lon="4.76732">
        <ele>307</ele>
        <time>2021-05-15T08:05:39.000Z</time>
      </trkpt>
      <trkpt lat="49.80569" lon="4.76729">
        <ele>308</ele>
        <time>2021-05-15T08:05:40.000Z</time>
      </trkpt>
      <trkpt lat="49.80572" lon="4.76726">
        <ele>308</ele>
        <time>2021-05-15T08:05:41.000Z</time>
      </trkpt>
      <trkpt lat="49.80575" lon="4.76724">
        <ele>308</ele>
        <time>2021-05-15T08:05:42.000Z</time>
      </trkpt>
      <trkpt lat="49.80579" lon="4.76722">
        <ele>308</ele>
        <time>2021-05-15T08:05:43.000Z</time>
      </trkpt>
      <trkpt lat="49.80581" lon="4.7672">
        <ele>309</ele>
        <time>2021-05-15T08:05:44.000Z</time>
      </trkpt>
      <trkpt lat="49.80585" lon="4.76717">
        <ele>309</ele>
        <time>2021-05-15T08:05:45.000Z</time>
      </trkpt>
      <trkpt lat="49.80588" lon="4.76715">
        <ele>309</ele>
        <time>2021-05-15T08:05:46.000Z</time>
      </trkpt>
      <trkpt lat="49.80591" lon="4.76713">
        <ele>309</ele>
        <time>2021-05-15T08:05:47.000Z</time>
      </trkpt>
      <trkpt lat="49.80594" lon="4.76711">
        <ele>310</ele>
        <time>2021-05-15T08:05:48.000Z</time>
      </trkpt>
      <trkpt lat="49.80596" lon="4.76709">
        <ele>310</ele>
        <time>2021-05-15T08:05:49.000Z</time>
      </trkpt>
      <trkpt lat="49.80598" lon="4.76706">
        <ele>311</ele>
        <time>2021-05-15T08:05:50.000Z</time>
      </trkpt>
      <trkpt lat="49.806" lon="4.76704">
        <ele>311</ele>
        <time>2021-05-15T08:05:51.000Z</time>
      </trkpt>
      <trkpt lat="49.80601" lon="4.76702">
        <ele>311</ele>
        <time>2021-05-15T08:05:52.000Z</time>
      </trkpt>
      <trkpt lat="49.80604" lon="4.76699">
        <ele>312</ele>
        <time>2021-05-15T08:05:53.000Z</time>
      </trkpt>
      <trkpt lat="49.80606" lon="4.76697">
        <ele>312</ele>
        <time>2021-05-15T08:05:54.000Z</time>
      </trkpt>
      <trkpt lat="49.80609" lon="4.76694">
        <ele>312</ele>
        <time>2021-05-15T08:05:55.000Z</time>
      </trkpt>
      <trkpt lat="49.80612" lon="4.76692">
        <ele>313</ele>
        <time>2021-05-15T08:05:56.000Z</time>
      </trkpt>
      <trkpt lat="49.80615" lon="4.76689">
        <ele>313</ele>
        <time>2021-05-15T08:05:57.000Z</time>
      </trkpt>
      <trkpt lat="49.80618" lon="4.76687">
        <ele>313</ele>
        <time>2021-05-15T08:05:58.000Z</time>
      </trkpt>
      <trkpt lat="49.8062" lon="4.76685">
        <ele>314</ele>
        <time>2021-05-15T08:05:59.000Z</time>
      </trkpt>
      <trkpt lat="49.80623" lon="4.76683">
        <ele>314</ele>
        <time>2021-05-15T08:06:00.000Z</time>
      </trkpt>
      <trkpt lat="49.80625" lon="4.76682">
        <ele>314</ele>
        <time>2021-05-15T08:06:01.000Z</time>
      </trkpt>
      <trkpt lat="49.80627" lon="4.76681">
        <ele>314</ele>
        <time>2021-05-15T08:06:02.000Z</time>
      </trkpt>
      <trkpt lat="49.8063" lon="4.7668">
        <ele>315</ele>
        <time>2021-05-15T08:06:03.000Z</time>
      </trkpt>
      <trkpt lat="49.80632" lon="4.7668">
        <ele>315</ele>
        <time>2021-05-15T08:06:04.000Z</time>
      </trkpt>
      <trkpt lat="49.80635" lon="4.76679">
        <ele>315</ele>
        <time>2021-05-15T08:06:05.000Z</time>
      </trkpt>
      <trkpt lat="49.80638" lon="4.76678">
        <ele>316</ele>
        <time>2021-05-15T08:06:06.000Z</time>
      </trkpt>
      <trkpt lat="49.80641" lon="4.76677">
        <ele>316</ele>
        <time>2021-05-15T08:06:07.000Z</time>
      </trkpt>
      <trkpt lat="49.80644" lon="4.76676">
        <ele>316</ele>
        <time>2021-05-15T08:06:08.000Z</time>
      </trkpt>
      <trkpt lat="49.80648" lon="4.76675">
        <ele>316</ele>
        <time>2021-05-15T08:06:09.000Z</time>
      </trkpt>
      <trkpt lat="49.80652" lon="4.76673">
        <ele>317</ele>
        <time>2021-05-15T08:06:10.000Z</time>
      </trkpt>
      <trkpt lat="49.80655" lon="4.76672">
        <ele>317</ele>
        <time>2021-05-15T08:06:11.000Z</time>
      </trkpt>
      <trkpt lat="49.80658" lon="4.7667">
        <ele>317</ele>
        <time>2021-05-15T08:06:12.000Z</time>
      </trkpt>
      <trkpt lat="49.80661" lon="4.76668">
        <ele>317</ele>
        <time>2021-05-15T08:06:13.000Z</time>
      </trkpt>
      <trkpt lat="49.80663" lon="4.76667">
        <ele>318</ele>
        <time>2021-05-15T08:06:14.000Z</time>
      </trkpt>
      <trkpt lat="49.80666" lon="4.76665">
        <ele>318</ele>
        <time>2021-05-15T08:06:15.000Z</time>
      </trkpt>
      <trkpt lat="49.80668" lon="4.76664">
        <ele>318</ele>
        <time>2021-05-15T08:06:16.000Z</time>
      </trkpt>
      <trkpt lat="49.8067" lon="4.76663">
        <ele>318</ele>
        <time>2021-05-15T08:06:17.000Z</time>
      </trkpt>
      <trkpt lat="49.80673" lon="4.76661">
        <ele>318</ele>
        <time>2021-05-15T08:06:18.000Z</time>
      </trkpt>
      <trkpt lat="49.80676" lon="4.7666">
        <ele>318</ele>
        <time>2021-05-15T08:06:19.000Z</time>
      </trkpt>
      <trkpt lat="49.8068" lon="4.76658">
        <ele>319</ele>
        <time>2021-05-15T08:06:20.000Z</time>
      </trkpt>
      <trkpt lat="49.80683" lon="4.76657">
        <ele>319</ele>
        <time>2021-05-15T08:06:21.000Z</time>
      </trkpt>
      <trkpt lat="49.80686" lon="4.76656">
        <ele>319</ele>
        <time>2021-05-15T08:06:22.000Z</time>
      </trkpt>
      <trkpt lat="49.80688" lon="4.76655">
        <ele>319</ele>
        <time>2021-05-15T08:06:23.000Z</time>
      </trkpt>
      <trkpt lat="49.80691" lon="4.76654">
        <ele>319</ele>
        <time>2021-05-15T08:06:24.000Z</time>
      </trkpt>
      <trkpt lat="49.80694" lon="4.76653">
        <ele>320</ele>
        <time>2021-05-15T08:06:25.000Z</time>
      </trkpt>
      <trkpt lat="49.80698" lon="4.76653">
        <ele>320</ele>
        <time>2021-05-15T08:06:26.000Z</time>
      </trkpt>
      <trkpt lat="49.80701" lon="4.76653">
        <ele>321</ele>
        <time>2021-05-15T08:06:27.000Z</time>
      </trkpt>
      <trkpt lat="49.80705" lon="4.76653">
        <ele>321</ele>
        <time>2021-05-15T08:06:28.000Z</time>
      </trkpt>
      <trkpt lat="49.80708" lon="4.76653">
        <ele>321</ele>
        <time>2021-05-15T08:06:29.000Z</time>
      </trkpt>
      <trkpt lat="49.80711" lon="4.76653">
        <ele>321</ele>
        <time>2021-05-15T08:06:30.000Z</time>
      </trkpt>
      <trkpt lat="49.80714" lon="4.76653">
        <ele>321</ele>
        <time>2021-05-15T08:06:31.000Z</time>
      </trkpt>
      <trkpt lat="49.80717" lon="4.76653">
        <ele>322</ele>
        <time>2021-05-15T08:06:32.000Z</time>
      </trkpt>
      <trkpt lat="49.8072" lon="4.76653">
        <ele>322</ele>
        <time>2021-05-15T08:06:33.000Z</time>
      </trkpt>
      <trkpt lat="49.80723" lon="4.76653">
        <ele>322</ele>
        <time>2021-05-15T08:06:34.000Z</time>
      </trkpt>
      <trkpt lat="49.80726" lon="4.76652">
        <ele>322</ele>
        <time>2021-05-15T08:06:35.000Z</time>
      </trkpt>
      <trkpt lat="49.80729" lon="4.76652">
        <ele>322</ele>
        <time>2021-05-15T08:06:36.000Z</time>
      </trkpt>
      <trkpt lat="49.80733" lon="4.76651">
        <ele>323</ele>
        <time>2021-05-15T08:06:37.000Z</time>
      </trkpt>
      <trkpt lat="49.80737" lon="4.7665">
        <ele>323</ele>
        <time>2021-05-15T08:06:38.000Z</time>
      </trkpt>
      <trkpt lat="49.80741" lon="4.76649">
        <ele>323</ele>
        <time>2021-05-15T08:06:39.000Z</time>
      </trkpt>
      <trkpt lat="49.80743" lon="4.76648">
        <ele>323</ele>
        <time>2021-05-15T08:06:40.000Z</time>
      </trkpt>
      <trkpt lat="49.80746" lon="4.76647">
        <ele>323</ele>
        <time>2021-05-15T08:06:41.000Z</time>
      </trkpt>
      <trkpt lat="49.80749" lon="4.76646">
        <ele>324</ele>
        <time>2021-05-15T08:06:42.000Z</time>
      </trkpt>
      <trkpt lat="49.80753" lon="4.76645">
        <ele>324</ele>
        <time>2021-05-15T08:06:43.000Z</time>
      </trkpt>
      <trkpt lat="49.80757" lon="4.76645">
        <ele>324</ele>
        <time>2021-05-15T08:06:44.000Z</time>
      </trkpt>
      <trkpt lat="49.8076" lon="4.76644">
        <ele>324</ele>
        <time>2021-05-15T08:06:45.000Z</time>
      </trkpt>
      <trkpt lat="49.80764" lon="4.76642">
        <ele>324</ele>
        <time>2021-05-15T08:06:46.000Z</time>
      </trkpt>
      <trkpt lat="49.80767" lon="4.76641">
        <ele>324</ele>
        <time>2021-05-15T08:06:47.000Z</time>
      </trkpt>
      <trkpt lat="49.8077" lon="4.7664">
        <ele>325</ele>
        <time>2021-05-15T08:06:48.000Z</time>
      </trkpt>
      <trkpt lat="49.80773" lon="4.76638">
        <ele>325</ele>
        <time>2021-05-15T08:06:49.000Z</time>
      </trkpt>
      <trkpt lat="49.80776" lon="4.76637">
        <ele>325</ele>
        <time>2021-05-15T08:06:50.000Z</time>
      </trkpt>
      <trkpt lat="49.80779" lon="4.76637">
        <ele>325</ele>
        <time>2021-05-15T08:06:51.000Z</time>
      </trkpt>
      <trkpt lat="49.80783" lon="4.76635">
        <ele>325</ele>
        <time>2021-05-15T08:06:52.000Z</time>
      </trkpt>
      <trkpt lat="49.80787" lon="4.76635">
        <ele>325</ele>
        <time>2021-05-15T08:06:53.000Z</time>
      </trkpt>
      <trkpt lat="49.8079" lon="4.76633">
        <ele>326</ele>
        <time>2021-05-15T08:06:54.000Z</time>
      </trkpt>
      <trkpt lat="49.80792" lon="4.76632">
        <ele>326</ele>
        <time>2021-05-15T08:06:55.000Z</time>
      </trkpt>
      <trkpt lat="49.80794" lon="4.76631">
        <ele>326</ele>
        <time>2021-05-15T08:06:56.000Z</time>
      </trkpt>
      <trkpt lat="49.80796" lon="4.7663">
        <ele>326</ele>
        <time>2021-05-15T08:06:57.000Z</time>
      </trkpt>
      <trkpt lat="49.80798" lon="4.76629">
        <ele>326</ele>
        <time>2021-05-15T08:06:58.000Z</time>
      </trkpt>
      <trkpt lat="49.80801" lon="4.76628">
        <ele>326</ele>
        <time>2021-05-15T08:06:59.000Z</time>
      </trkpt>
      <trkpt lat="49.80803" lon="4.76628">
        <ele>326</ele>
        <time>2021-05-15T08:07:00.000Z</time>
      </trkpt>
      <trkpt lat="49.80806" lon="4.76628">
        <ele>327</ele>
        <time>2021-05-15T08:07:01.000Z</time>
      </trkpt>
      <trkpt lat="49.80809" lon="4.76627">
        <ele>327</ele>
        <time>2021-05-15T08:07:02.000Z</time>
      </trkpt>
      <trkpt lat="49.80812" lon="4.76627">
        <ele>327</ele>
        <time>2021-05-15T08:07:03.000Z</time>
      </trkpt>
      <trkpt lat="49.80815" lon="4.76626">
        <ele>327</ele>
        <time>2021-05-15T08:07:04.000Z</time>
      </trkpt>
      <trkpt lat="49.80818" lon="4.76625">
        <ele>328</ele>
        <time>2021-05-15T08:07:05.000Z</time>
      </trkpt>
      <trkpt lat="49.80821" lon="4.76625">
        <ele>328</ele>
        <time>2021-05-15T08:07:06.000Z</time>
      </trkpt>
      <trkpt lat="49.80824" lon="4.76624">
        <ele>328</ele>
        <time>2021-05-15T08:07:07.000Z</time>
      </trkpt>
      <trkpt lat="49.80827" lon="4.76624">
        <ele>328</ele>
        <time>2021-05-15T08:07:08.000Z</time>
      </trkpt>
      <trkpt lat="49.8083" lon="4.76623">
        <ele>329</ele>
        <time>2021-05-15T08:07:09.000Z</time>
      </trkpt>
      <trkpt lat="49.80833" lon="4.76622">
        <ele>329</ele>
        <time>2021-05-15T08:07:10.000Z</time>
      </trkpt>
      <trkpt lat="49.80836" lon="4.76621">
        <ele>329</ele>
        <time>2021-05-15T08:07:11.000Z</time>
      </trkpt>
      <trkpt lat="49.80839" lon="4.7662">
        <ele>329</ele>
        <time>2021-05-15T08:07:12.000Z</time>
      </trkpt>
      <trkpt lat="49.80843" lon="4.76619">
        <ele>330</ele>
        <time>2021-05-15T08:07:13.000Z</time>
      </trkpt>
      <trkpt lat="49.80846" lon="4.76617">
        <ele>330</ele>
        <time>2021-05-15T08:07:14.000Z</time>
      </trkpt>
      <trkpt lat="49.80849" lon="4.76617">
        <ele>330</ele>
        <time>2021-05-15T08:07:15.000Z</time>
      </trkpt>
      <trkpt lat="49.80853" lon="4.76616">
        <ele>330</ele>
        <time>2021-05-15T08:07:16.000Z</time>
      </trkpt>
      <trkpt lat="49.80856" lon="4.76616">
        <ele>331</ele>
        <time>2021-05-15T08:07:17.000Z</time>
      </trkpt>
      <trkpt lat="49.8086" lon="4.76616">
        <ele>331</ele>
        <time>2021-05-15T08:07:18.000Z</time>
      </trkpt>
      <trkpt lat="49.80864" lon="4.76615">
        <ele>331</ele>
        <time>2021-05-15T08:07:19.000Z</time>
      </trkpt>
      <trkpt lat="49.80867" lon="4.76615">
        <ele>331</ele>
        <time>2021-05-15T08:07:20.000Z</time>
      </trkpt>
      <trkpt lat="49.80871" lon="4.76615">
        <ele>331</ele>
        <time>2021-05-15T08:07:21.000Z</time>
      </trkpt>
      <trkpt lat="49.80875" lon="4.76616">
        <ele>332</ele>
        <time>2021-05-15T08:07:22.000Z</time>
      </trkpt>
      <trkpt lat="49.80879" lon="4.76616">
        <ele>332</ele>
        <time>2021-05-15T08:07:23.000Z</time>
      </trkpt>
      <trkpt lat="49.80883" lon="4.76617">
        <ele>332</ele>
        <time>2021-05-15T08:07:24.000Z</time>
      </trkpt>
      <trkpt lat="49.80886" lon="4.76617">
        <ele>332</ele>
        <time>2021-05-15T08:07:25.000Z</time>
      </trkpt>
      <trkpt lat="49.80889" lon="4.76617">
        <ele>332</ele>
        <time>2021-05-15T08:07:26.000Z</time>
      </trkpt>
      <trkpt lat="49.80892" lon="4.76617">
        <ele>333</ele>
        <time>2021-05-15T08:07:27.000Z</time>
      </trkpt>
      <trkpt lat="49.80895" lon="4.76617">
        <ele>333</ele>
        <time>2021-05-15T08:07:28.000Z</time>
      </trkpt>
      <trkpt lat="49.80898" lon="4.76616">
        <ele>333</ele>
        <time>2021-05-15T08:07:29.000Z</time>
      </trkpt>
      <trkpt lat="49.80902" lon="4.76616">
        <ele>333</ele>
        <time>2021-05-15T08:07:30.000Z</time>
      </trkpt>
      <trkpt lat="49.80905" lon="4.76616">
        <ele>333</ele>
        <time>2021-05-15T08:07:31.000Z</time>
      </trkpt>
      <trkpt lat="49.80908" lon="4.76617">
        <ele>333</ele>
        <time>2021-05-15T08:07:32.000Z</time>
      </trkpt>
      <trkpt lat="49.80912" lon="4.76617">
        <ele>333</ele>
        <time>2021-05-15T08:07:33.000Z</time>
      </trkpt>
      <trkpt lat="49.80916" lon="4.76616">
        <ele>333</ele>
        <time>2021-05-15T08:07:34.000Z</time>
      </trkpt>
      <trkpt lat="49.80919" lon="4.76615">
        <ele>333</ele>
        <time>2021-05-15T08:07:35.000Z</time>
      </trkpt>
      <trkpt lat="49.80922" lon="4.76615">
        <ele>333</ele>
        <time>2021-05-15T08:07:36.000Z</time>
      </trkpt>
      <trkpt lat="49.80926" lon="4.76614">
        <ele>333</ele>
        <time>2021-05-15T08:07:37.000Z</time>
      </trkpt>
      <trkpt lat="49.80929" lon="4.76613">
        <ele>333</ele>
        <time>2021-05-15T08:07:38.000Z</time>
      </trkpt>
      <trkpt lat="49.80932" lon="4.76611">
        <ele>333</ele>
        <time>2021-05-15T08:07:39.000Z</time>
      </trkpt>
      <trkpt lat="49.80936" lon="4.76608">
        <ele>333</ele>
        <time>2021-05-15T08:07:40.000Z</time>
      </trkpt>
      <trkpt lat="49.80939" lon="4.76607">
        <ele>334</ele>
        <time>2021-05-15T08:07:41.000Z</time>
      </trkpt>
      <trkpt lat="49.80941" lon="4.76605">
        <ele>334</ele>
        <time>2021-05-15T08:07:42.000Z</time>
      </trkpt>
      <trkpt lat="49.80944" lon="4.76604">
        <ele>334</ele>
        <time>2021-05-15T08:07:43.000Z</time>
      </trkpt>
      <trkpt lat="49.80947" lon="4.76603">
        <ele>334</ele>
        <time>2021-05-15T08:07:44.000Z</time>
      </trkpt>
      <trkpt lat="49.8095" lon="4.76603">
        <ele>334</ele>
        <time>2021-05-15T08:07:45.000Z</time>
      </trkpt>
      <trkpt lat="49.80952" lon="4.76602">
        <ele>334</ele>
        <time>2021-05-15T08:07:46.000Z</time>
      </trkpt>
      <trkpt lat="49.80954" lon="4.76601">
        <ele>335</ele>
        <time>2021-05-15T08:07:47.000Z</time>
      </trkpt>
      <trkpt lat="49.80957" lon="4.76599">
        <ele>335</ele>
        <time>2021-05-15T08:07:48.000Z</time>
      </trkpt>
      <trkpt lat="49.8096" lon="4.76598">
        <ele>335</ele>
        <time>2021-05-15T08:07:49.000Z</time>
      </trkpt>
      <trkpt lat="49.80963" lon="4.76596">
        <ele>335</ele>
        <time>2021-05-15T08:07:50.000Z</time>
      </trkpt>
      <trkpt lat="49.80966" lon="4.76593">
        <ele>335</ele>
        <time>2021-05-15T08:07:51.000Z</time>
      </trkpt>
      <trkpt lat="49.80969" lon="4.76592">
        <ele>335</ele>
        <time>2021-05-15T08:07:52.000Z</time>
      </trkpt>
      <trkpt lat="49.80972" lon="4.7659">
        <ele>335</ele>
        <time>2021-05-15T08:07:53.000Z</time>
      </trkpt>
      <trkpt lat="49.80975" lon="4.76589">
        <ele>335</ele>
        <time>2021-05-15T08:07:54.000Z</time>
      </trkpt>
      <trkpt lat="49.80978" lon="4.76588">
        <ele>335</ele>
        <time>2021-05-15T08:07:55.000Z</time>
      </trkpt>
      <trkpt lat="49.80982" lon="4.76586">
        <ele>335</ele>
        <time>2021-05-15T08:07:56.000Z</time>
      </trkpt>
      <trkpt lat="49.80985" lon="4.76583">
        <ele>335</ele>
        <time>2021-05-15T08:07:57.000Z</time>
      </trkpt>
      <trkpt lat="49.80988" lon="4.7658">
        <ele>335</ele>
        <time>2021-05-15T08:07:58.000Z</time>
      </trkpt>
      <trkpt lat="49.80991" lon="4.76577">
        <ele>335</ele>
        <time>2021-05-15T08:07:59.000Z</time>
      </trkpt>
      <trkpt lat="49.80993" lon="4.76574">
        <ele>335</ele>
        <time>2021-05-15T08:08:00.000Z</time>
      </trkpt>
      <trkpt lat="49.80996" lon="4.76571">
        <ele>336</ele>
        <time>2021-05-15T08:08:01.000Z</time>
      </trkpt>
      <trkpt lat="49.80999" lon="4.76569">
        <ele>336</ele>
        <time>2021-05-15T08:08:02.000Z</time>
      </trkpt>
      <trkpt lat="49.81002" lon="4.76566">
        <ele>336</ele>
        <time>2021-05-15T08:08:03.000Z</time>
      </trkpt>
      <trkpt lat="49.81006" lon="4.76563">
        <ele>336</ele>
        <time>2021-05-15T08:08:04.000Z</time>
      </trkpt>
      <trkpt lat="49.81009" lon="4.7656">
        <ele>336</ele>
        <time>2021-05-15T08:08:05.000Z</time>
      </trkpt>
      <trkpt lat="49.81013" lon="4.76556">
        <ele>335</ele>
        <time>2021-05-15T08:08:06.000Z</time>
      </trkpt>
      <trkpt lat="49.81017" lon="4.76553">
        <ele>335</ele>
        <time>2021-05-15T08:08:07.000Z</time>
      </trkpt>
      <trkpt lat="49.81021" lon="4.76549">
        <ele>335</ele>
        <time>2021-05-15T08:08:08.000Z</time>
      </trkpt>
      <trkpt lat="49.81025" lon="4.76546">
        <ele>335</ele>
        <time>2021-05-15T08:08:09.000Z</time>
      </trkpt>
      <trkpt lat="49.81029" lon="4.76543">
        <ele>334</ele>
        <time>2021-05-15T08:08:10.000Z</time>
      </trkpt>
      <trkpt lat="49.81034" lon="4.76541">
        <ele>334</ele>
        <time>2021-05-15T08:08:11.000Z</time>
      </trkpt>
      <trkpt lat="49.81038" lon="4.76538">
        <ele>334</ele>
        <time>2021-05-15T08:08:12.000Z</time>
      </trkpt>
      <trkpt lat="49.81041" lon="4.76536">
        <ele>333</ele>
        <time>2021-05-15T08:08:13.000Z</time>
      </trkpt>
      <trkpt lat="49.81045" lon="4.76533">
        <ele>333</ele>
        <time>2021-05-15T08:08:14.000Z</time>
      </trkpt>
      <trkpt lat="49.81048" lon="4.7653">
        <ele>332</ele>
        <time>2021-05-15T08:08:15.000Z</time>
      </trkpt>
      <trkpt lat="49.81052" lon="4.76527">
        <ele>332</ele>
        <time>2021-05-15T08:08:16.000Z</time>
      </trkpt>
      <trkpt lat="49.81056" lon="4.76523">
        <ele>331</ele>
        <time>2021-05-15T08:08:17.000Z</time>
      </trkpt>
      <trkpt lat="49.8106" lon="4.76519">
        <ele>331</ele>
        <time>2021-05-15T08:08:18.000Z</time>
      </trkpt>
      <trkpt lat="49.81063" lon="4.76514">
        <ele>331</ele>
        <time>2021-05-15T08:08:19.000Z</time>
      </trkpt>
      <trkpt lat="49.81066" lon="4.76509">
        <ele>330</ele>
        <time>2021-05-15T08:08:20.000Z</time>
      </trkpt>
      <trkpt lat="49.81069" lon="4.76504">
        <ele>330</ele>
        <time>2021-05-15T08:08:21.000Z</time>
      </trkpt>
      <trkpt lat="49.81071" lon="4.76499">
        <ele>329</ele>
        <time>2021-05-15T08:08:22.000Z</time>
      </trkpt>
      <trkpt lat="49.81073" lon="4.76494">
        <ele>329</ele>
        <time>2021-05-15T08:08:23.000Z</time>
      </trkpt>
      <trkpt lat="49.81075" lon="4.76489">
        <ele>328</ele>
        <time>2021-05-15T08:08:24.000Z</time>
      </trkpt>
      <trkpt lat="49.81078" lon="4.76484">
        <ele>328</ele>
        <time>2021-05-15T08:08:25.000Z</time>
      </trkpt>
      <trkpt lat="49.8108" lon="4.76479">
        <ele>328</ele>
        <time>2021-05-15T08:08:26.000Z</time>
      </trkpt>
      <trkpt lat="49.81082" lon="4.76474">
        <ele>327</ele>
        <time>2021-05-15T08:08:27.000Z</time>
      </trkpt>
      <trkpt lat="49.81084" lon="4.76469">
        <ele>327</ele>
        <time>2021-05-15T08:08:28.000Z</time>
      </trkpt>
      <trkpt lat="49.81087" lon="4.76464">
        <ele>326</ele>
        <time>2021-05-15T08:08:29.000Z</time>
      </trkpt>
      <trkpt lat="49.81089" lon="4.7646">
        <ele>326</ele>
        <time>2021-05-15T08:08:30.000Z</time>
      </trkpt>
      <trkpt lat="49.8109" lon="4.76455">
        <ele>326</ele>
        <time>2021-05-15T08:08:31.000Z</time>
      </trkpt>
      <trkpt lat="49.81092" lon="4.76451">
        <ele>325</ele>
        <time>2021-05-15T08:08:32.000Z</time>
      </trkpt>
      <trkpt lat="49.81093" lon="4.76447">
        <ele>325</ele>
        <time>2021-05-15T08:08:33.000Z</time>
      </trkpt>
      <trkpt lat="49.81095" lon="4.76442">
        <ele>325</ele>
        <time>2021-05-15T08:08:34.000Z</time>
      </trkpt>
      <trkpt lat="49.81097" lon="4.76437">
        <ele>324</ele>
        <time>2021-05-15T08:08:35.000Z</time>
      </trkpt>
      <trkpt lat="49.81099" lon="4.76433">
        <ele>324</ele>
        <time>2021-05-15T08:08:36.000Z</time>
      </trkpt>
      <trkpt lat="49.811" lon="4.76428">
        <ele>324</ele>
        <time>2021-05-15T08:08:37.000Z</time>
      </trkpt>
      <trkpt lat="49.81102" lon="4.76425">
        <ele>323</ele>
        <time>2021-05-15T08:08:38.000Z</time>
      </trkpt>
      <trkpt lat="49.81104" lon="4.76422">
        <ele>323</ele>
        <time>2021-05-15T08:08:39.000Z</time>
      </trkpt>
      <trkpt lat="49.81107" lon="4.76419">
        <ele>323</ele>
        <time>2021-05-15T08:08:40.000Z</time>
      </trkpt>
      <trkpt lat="49.81109" lon="4.76416">
        <ele>323</ele>
        <time>2021-05-15T08:08:41.000Z</time>
      </trkpt>
      <trkpt lat="49.81112" lon="4.76413">
        <ele>322</ele>
        <time>2021-05-15T08:08:42.000Z</time>
      </trkpt>
      <trkpt lat="49.81114" lon="4.76409">
        <ele>322</ele>
        <time>2021-05-15T08:08:43.000Z</time>
      </trkpt>
      <trkpt lat="49.81116" lon="4.76404">
        <ele>322</ele>
        <time>2021-05-15T08:08:44.000Z</time>
      </trkpt>
      <trkpt lat="49.81118" lon="4.764">
        <ele>322</ele>
        <time>2021-05-15T08:08:45.000Z</time>
      </trkpt>
      <trkpt lat="49.8112" lon="4.76395">
        <ele>321</ele>
        <time>2021-05-15T08:08:46.000Z</time>
      </trkpt>
      <trkpt lat="49.81122" lon="4.7639">
        <ele>321</ele>
        <time>2021-05-15T08:08:47.000Z</time>
      </trkpt>
      <trkpt lat="49.81125" lon="4.76386">
        <ele>321</ele>
        <time>2021-05-15T08:08:48.000Z</time>
      </trkpt>
      <trkpt lat="49.81127" lon="4.76381">
        <ele>320</ele>
        <time>2021-05-15T08:08:49.000Z</time>
      </trkpt>
      <trkpt lat="49.8113" lon="4.76377">
        <ele>320</ele>
        <time>2021-05-15T08:08:50.000Z</time>
      </trkpt>
      <trkpt lat="49.81132" lon="4.76373">
        <ele>320</ele>
        <time>2021-05-15T08:08:51.000Z</time>
      </trkpt>
      <trkpt lat="49.81135" lon="4.76369">
        <ele>320</ele>
        <time>2021-05-15T08:08:52.000Z</time>
      </trkpt>
      <trkpt lat="49.81137" lon="4.76366">
        <ele>319</ele>
        <time>2021-05-15T08:08:53.000Z</time>
      </trkpt>
      <trkpt lat="49.8114" lon="4.76363">
        <ele>319</ele>
        <time>2021-05-15T08:08:54.000Z</time>
      </trkpt>
      <trkpt lat="49.81142" lon="4.76361">
        <ele>319</ele>
        <time>2021-05-15T08:08:55.000Z</time>
      </trkpt>
      <trkpt lat="49.81143" lon="4.76358">
        <ele>319</ele>
        <time>2021-05-15T08:08:56.000Z</time>
      </trkpt>
      <trkpt lat="49.81145" lon="4.76355">
        <ele>318</ele>
        <time>2021-05-15T08:08:57.000Z</time>
      </trkpt>
      <trkpt lat="49.81146" lon="4.76352">
        <ele>318</ele>
        <time>2021-05-15T08:08:58.000Z</time>
      </trkpt>
      <trkpt lat="49.81148" lon="4.76349">
        <ele>318</ele>
        <time>2021-05-15T08:08:59.000Z</time>
      </trkpt>
      <trkpt lat="49.8115" lon="4.76345">
        <ele>318</ele>
        <time>2021-05-15T08:09:00.000Z</time>
      </trkpt>
      <trkpt lat="49.81154" lon="4.76341">
        <ele>318</ele>
        <time>2021-05-15T08:09:01.000Z</time>
      </trkpt>
      <trkpt lat="49.81158" lon="4.76337">
        <ele>318</ele>
        <time>2021-05-15T08:09:02.000Z</time>
      </trkpt>
      <trkpt lat="49.81163" lon="4.76334">
        <ele>318</ele>
        <time>2021-05-15T08:09:03.000Z</time>
      </trkpt>
      <trkpt lat="49.81168" lon="4.76331">
        <ele>318</ele>
        <time>2021-05-15T08:09:04.000Z</time>
      </trkpt>
      <trkpt lat="49.81173" lon="4.76326">
        <ele>318</ele>
        <time>2021-05-15T08:09:05.000Z</time>
      </trkpt>
      <trkpt lat="49.81179" lon="4.76322">
        <ele>318</ele>
        <time>2021-05-15T08:09:06.000Z</time>
      </trkpt>
      <trkpt lat="49.81186" lon="4.76318">
        <ele>318</ele>
        <time>2021-05-15T08:09:07.000Z</time>
      </trkpt>
      <trkpt lat="49.81192" lon="4.76313">
        <ele>317</ele>
        <time>2021-05-15T08:09:08.000Z</time>
      </trkpt>
      <trkpt lat="49.81198" lon="4.76308">
        <ele>317</ele>
        <time>2021-05-15T08:09:09.000Z</time>
      </trkpt>
      <trkpt lat="49.81204" lon="4.76305">
        <ele>317</ele>
        <time>2021-05-15T08:09:10.000Z</time>
      </trkpt>
      <trkpt lat="49.81211" lon="4.76301">
        <ele>317</ele>
        <time>2021-05-15T08:09:11.000Z</time>
      </trkpt>
      <trkpt lat="49.81219" lon="4.763">
        <ele>317</ele>
        <time>2021-05-15T08:09:12.000Z</time>
      </trkpt>
      <trkpt lat="49.81227" lon="4.76301">
        <ele>317</ele>
        <time>2021-05-15T08:09:13.000Z</time>
      </trkpt>
      <trkpt lat="49.81234" lon="4.76302">
        <ele>317</ele>
        <time>2021-05-15T08:09:14.000Z</time>
      </trkpt>
      <trkpt lat="49.81242" lon="4.76303">
        <ele>317</ele>
        <time>2021-05-15T08:09:15.000Z</time>
      </trkpt>
      <trkpt lat="49.8125" lon="4.76304">
        <ele>317</ele>
        <time>2021-05-15T08:09:16.000Z</time>
      </trkpt>
      <trkpt lat="49.81258" lon="4.76305">
        <ele>316</ele>
        <time>2021-05-15T08:09:17.000Z</time>
      </trkpt>
      <trkpt lat="49.81265" lon="4.76307">
        <ele>316</ele>
        <time>2021-05-15T08:09:18.000Z</time>
      </trkpt>
      <trkpt lat="49.81272" lon="4.76309">
        <ele>315</ele>
        <time>2021-05-15T08:09:19.000Z</time>
      </trkpt>
      <trkpt lat="49.8128" lon="4.76312">
        <ele>315</ele>
        <time>2021-05-15T08:09:20.000Z</time>
      </trkpt>
      <trkpt lat="49.81288" lon="4.76315">
        <ele>315</ele>
        <time>2021-05-15T08:09:21.000Z</time>
      </trkpt>
      <trkpt lat="49.81295" lon="4.76318">
        <ele>314</ele>
        <time>2021-05-15T08:09:22.000Z</time>
      </trkpt>
      <trkpt lat="49.81303" lon="4.76321">
        <ele>314</ele>
        <time>2021-05-15T08:09:23.000Z</time>
      </trkpt>
      <trkpt lat="49.8131" lon="4.76324">
        <ele>313</ele>
        <time>2021-05-15T08:09:24.000Z</time>
      </trkpt>
      <trkpt lat="49.81317" lon="4.76327">
        <ele>313</ele>
        <time>2021-05-15T08:09:25.000Z</time>
      </trkpt>
      <trkpt lat="49.81325" lon="4.76331">
        <ele>312</ele>
        <time>2021-05-15T08:09:26.000Z</time>
      </trkpt>
      <trkpt lat="49.81332" lon="4.76335">
        <ele>312</ele>
        <time>2021-05-15T08:09:27.000Z</time>
      </trkpt>
      <trkpt lat="49.81339" lon="4.76338">
        <ele>311</ele>
        <time>2021-05-15T08:09:28.000Z</time>
      </trkpt>
      <trkpt lat="49.81346" lon="4.76341">
        <ele>310</ele>
        <time>2021-05-15T08:09:29.000Z</time>
      </trkpt>
      <trkpt lat="49.81352" lon="4.76344">
        <ele>310</ele>
        <time>2021-05-15T08:09:30.000Z</time>
      </trkpt>
      <trkpt lat="49.81358" lon="4.76347">
        <ele>309</ele>
        <time>2021-05-15T08:09:31.000Z</time>
      </trkpt>
      <trkpt lat="49.81364" lon="4.76351">
        <ele>308</ele>
        <time>2021-05-15T08:09:32.000Z</time>
      </trkpt>
      <trkpt lat="49.81371" lon="4.76356">
        <ele>307</ele>
        <time>2021-05-15T08:09:33.000Z</time>
      </trkpt>
      <trkpt lat="49.81377" lon="4.76361">
        <ele>306</ele>
        <time>2021-05-15T08:09:34.000Z</time>
      </trkpt>
      <trkpt lat="49.81383" lon="4.76365">
        <ele>306</ele>
        <time>2021-05-15T08:09:35.000Z</time>
      </trkpt>
      <trkpt lat="49.81388" lon="4.76369">
        <ele>305</ele>
        <time>2021-05-15T08:09:36.000Z</time>
      </trkpt>
      <trkpt lat="49.81393" lon="4.76372">
        <ele>304</ele>
        <time>2021-05-15T08:09:37.000Z</time>
      </trkpt>
      <trkpt lat="49.81395" lon="4.76375">
        <ele>303</ele>
        <time>2021-05-15T08:09:38.000Z</time>
      </trkpt>
      <trkpt lat="49.81396" lon="4.76377">
        <ele>302</ele>
        <time>2021-05-15T08:09:39.000Z</time>
      </trkpt>
      <trkpt lat="49.81397" lon="4.76381">
        <ele>302</ele>
        <time>2021-05-15T08:09:40.000Z</time>
      </trkpt>
      <trkpt lat="49.81398" lon="4.76385">
        <ele>301</ele>
        <time>2021-05-15T08:09:41.000Z</time>
      </trkpt>
      <trkpt lat="49.814" lon="4.76389">
        <ele>300</ele>
        <time>2021-05-15T08:09:42.000Z</time>
      </trkpt>
      <trkpt lat="49.81402" lon="4.76393">
        <ele>300</ele>
        <time>2021-05-15T08:09:43.000Z</time>
      </trkpt>
      <trkpt lat="49.81404" lon="4.76398">
        <ele>299</ele>
        <time>2021-05-15T08:09:44.000Z</time>
      </trkpt>
      <trkpt lat="49.81408" lon="4.76405">
        <ele>298</ele>
        <time>2021-05-15T08:09:45.000Z</time>
      </trkpt>
      <trkpt lat="49.81411" lon="4.76412">
        <ele>298</ele>
        <time>2021-05-15T08:09:46.000Z</time>
      </trkpt>
      <trkpt lat="49.81414" lon="4.76419">
        <ele>297</ele>
        <time>2021-05-15T08:09:47.000Z</time>
      </trkpt>
      <trkpt lat="49.81417" lon="4.76426">
        <ele>296</ele>
        <time>2021-05-15T08:09:48.000Z</time>
      </trkpt>
      <trkpt lat="49.81421" lon="4.76432">
        <ele>296</ele>
        <time>2021-05-15T08:09:49.000Z</time>
      </trkpt>
      <trkpt lat="49.81425" lon="4.76439">
        <ele>295</ele>
        <time>2021-05-15T08:09:50.000Z</time>
      </trkpt>
      <trkpt lat="49.8143" lon="4.76447">
        <ele>294</ele>
        <time>2021-05-15T08:09:51.000Z</time>
      </trkpt>
      <trkpt lat="49.81434" lon="4.76456">
        <ele>293</ele>
        <time>2021-05-15T08:09:52.000Z</time>
      </trkpt>
      <trkpt lat="49.81438" lon="4.76466">
        <ele>292</ele>
        <time>2021-05-15T08:09:53.000Z</time>
      </trkpt>
      <trkpt lat="49.81443" lon="4.76476">
        <ele>292</ele>
        <time>2021-05-15T08:09:54.000Z</time>
      </trkpt>
      <trkpt lat="49.81448" lon="4.76486">
        <ele>291</ele>
        <time>2021-05-15T08:09:55.000Z</time>
      </trkpt>
      <trkpt lat="49.81452" lon="4.76497">
        <ele>290</ele>
        <time>2021-05-15T08:09:56.000Z</time>
      </trkpt>
      <trkpt lat="49.81455" lon="4.76507">
        <ele>290</ele>
        <time>2021-05-15T08:09:57.000Z</time>
      </trkpt>
      <trkpt lat="49.81457" lon="4.76517">
        <ele>289</ele>
        <time>2021-05-15T08:09:58.000Z</time>
      </trkpt>
      <trkpt lat="49.81458" lon="4.76528">
        <ele>288</ele>
        <time>2021-05-15T08:09:59.000Z</time>
      </trkpt>
      <trkpt lat="49.8146" lon="4.76538">
        <ele>288</ele>
        <time>2021-05-15T08:10:00.000Z</time>
      </trkpt>
      <trkpt lat="49.81461" lon="4.76547">
        <ele>287</ele>
        <time>2021-05-15T08:10:01.000Z</time>
      </trkpt>
      <trkpt lat="49.81464" lon="4.76557">
        <ele>286</ele>
        <time>2021-05-15T08:10:02.000Z</time>
      </trkpt>
      <trkpt lat="49.81467" lon="4.76564">
        <ele>286</ele>
        <time>2021-05-15T08:10:03.000Z</time>
      </trkpt>
      <trkpt lat="49.81469" lon="4.7657">
        <ele>285</ele>
        <time>2021-05-15T08:10:04.000Z</time>
      </trkpt>
      <trkpt lat="49.81471" lon="4.76572">
        <ele>285</ele>
        <time>2021-05-15T08:10:05.000Z</time>
      </trkpt>
      <trkpt lat="49.81472" lon="4.76574">
        <ele>284</ele>
        <time>2021-05-15T08:10:06.000Z</time>
      </trkpt>
      <trkpt lat="49.81474" lon="4.76574">
        <ele>284</ele>
        <time>2021-05-15T08:10:07.000Z</time>
      </trkpt>
      <trkpt lat="49.81476" lon="4.76573">
        <ele>283</ele>
        <time>2021-05-15T08:10:08.000Z</time>
      </trkpt>
      <trkpt lat="49.81476" lon="4.7657">
        <ele>283</ele>
        <time>2021-05-15T08:10:09.000Z</time>
      </trkpt>
      <trkpt lat="49.81477" lon="4.76565">
        <ele>282</ele>
        <time>2021-05-15T08:10:10.000Z</time>
      </trkpt>
      <trkpt lat="49.81477" lon="4.7656">
        <ele>282</ele>
        <time>2021-05-15T08:10:11.000Z</time>
      </trkpt>
      <trkpt lat="49.81479" lon="4.76553">
        <ele>281</ele>
        <time>2021-05-15T08:10:12.000Z</time>
      </trkpt>
      <trkpt lat="49.8148" lon="4.76546">
        <ele>281</ele>
        <time>2021-05-15T08:10:13.000Z</time>
      </trkpt>
      <trkpt lat="49.81482" lon="4.76537">
        <ele>281</ele>
        <time>2021-05-15T08:10:14.000Z</time>
      </trkpt>
      <trkpt lat="49.81484" lon="4.76529">
        <ele>280</ele>
        <time>2021-05-15T08:10:15.000Z</time>
      </trkpt>
      <trkpt lat="49.81486" lon="4.7652">
        <ele>280</ele>
        <time>2021-05-15T08:10:16.000Z</time>
      </trkpt>
      <trkpt lat="49.81488" lon="4.76513">
        <ele>280</ele>
        <time>2021-05-15T08:10:17.000Z</time>
      </trkpt>
      <trkpt lat="49.8149" lon="4.76506">
        <ele>279</ele>
        <time>2021-05-15T08:10:18.000Z</time>
      </trkpt>
      <trkpt lat="49.81491" lon="4.76498">
        <ele>279</ele>
        <time>2021-05-15T08:10:19.000Z</time>
      </trkpt>
      <trkpt lat="49.81492" lon="4.76491">
        <ele>278</ele>
        <time>2021-05-15T08:10:20.000Z</time>
      </trkpt>
      <trkpt lat="49.81494" lon="4.76483">
        <ele>278</ele>
        <time>2021-05-15T08:10:21.000Z</time>
      </trkpt>
      <trkpt lat="49.81496" lon="4.76476">
        <ele>278</ele>
        <time>2021-05-15T08:10:22.000Z</time>
      </trkpt>
      <trkpt lat="49.81498" lon="4.76468">
        <ele>277</ele>
        <time>2021-05-15T08:10:23.000Z</time>
      </trkpt>
      <trkpt lat="49.815" lon="4.7646">
        <ele>277</ele>
        <time>2021-05-15T08:10:24.000Z</time>
      </trkpt>
      <trkpt lat="49.81501" lon="4.76451">
        <ele>277</ele>
        <time>2021-05-15T08:10:25.000Z</time>
      </trkpt>
      <trkpt lat="49.81503" lon="4.76442">
        <ele>276</ele>
        <time>2021-05-15T08:10:26.000Z</time>
      </trkpt>
      <trkpt lat="49.81505" lon="4.76431">
        <ele>276</ele>
        <time>2021-05-15T08:10:27.000Z</time>
      </trkpt>
      <trkpt lat="49.81508" lon="4.7642">
        <ele>276</ele>
        <time>2021-05-15T08:10:28.000Z</time>
      </trkpt>
      <trkpt lat="49.81511" lon="4.7641">
        <ele>275</ele>
        <time>2021-05-15T08:10:29.000Z</time>
      </trkpt>
      <trkpt lat="49.81513" lon="4.76402">
        <ele>275</ele>
        <time>2021-05-15T08:10:30.000Z</time>
      </trkpt>
      <trkpt lat="49.81514" lon="4.76394">
        <ele>274</ele>
        <time>2021-05-15T08:10:31.000Z</time>
      </trkpt>
      <trkpt lat="49.81515" lon="4.76386">
        <ele>274</ele>
        <time>2021-05-15T08:10:32.000Z</time>
      </trkpt>
      <trkpt lat="49.81514" lon="4.76377">
        <ele>273</ele>
        <time>2021-05-15T08:10:33.000Z</time>
      </trkpt>
      <trkpt lat="49.81513" lon="4.76368">
        <ele>273</ele>
        <time>2021-05-15T08:10:34.000Z</time>
      </trkpt>
      <trkpt lat="49.81511" lon="4.76359">
        <ele>272</ele>
        <time>2021-05-15T08:10:35.000Z</time>
      </trkpt>
      <trkpt lat="49.81508" lon="4.7635">
        <ele>271</ele>
        <time>2021-05-15T08:10:36.000Z</time>
      </trkpt>
      <trkpt lat="49.81506" lon="4.7634">
        <ele>271</ele>
        <time>2021-05-15T08:10:37.000Z</time>
      </trkpt>
      <trkpt lat="49.81503" lon="4.76332">
        <ele>270</ele>
        <time>2021-05-15T08:10:38.000Z</time>
      </trkpt>
      <trkpt lat="49.81501" lon="4.76324">
        <ele>269</ele>
        <time>2021-05-15T08:10:39.000Z</time>
      </trkpt>
      <trkpt lat="49.81499" lon="4.76318">
        <ele>269</ele>
        <time>2021-05-15T08:10:40.000Z</time>
      </trkpt>
      <trkpt lat="49.81499" lon="4.76314">
        <ele>268</ele>
        <time>2021-05-15T08:10:41.000Z</time>
      </trkpt>
      <trkpt lat="49.81499" lon="4.76311">
        <ele>268</ele>
        <time>2021-05-15T08:10:42.000Z</time>
      </trkpt>
      <trkpt lat="49.81498" lon="4.76308">
        <ele>268</ele>
        <time>2021-05-15T08:10:43.000Z</time>
      </trkpt>
      <trkpt lat="49.81497" lon="4.76306">
        <ele>267</ele>
        <time>2021-05-15T08:10:44.000Z</time>
      </trkpt>
      <trkpt lat="49.81496" lon="4.76304">
        <ele>267</ele>
        <time>2021-05-15T08:10:45.000Z</time>
      </trkpt>
      <trkpt lat="49.81495" lon="4.76302">
        <ele>266</ele>
        <time>2021-05-15T08:10:46.000Z</time>
      </trkpt>
      <trkpt lat="49.81492" lon="4.76301">
        <ele>266</ele>
        <time>2021-05-15T08:10:47.000Z</time>
      </trkpt>
      <trkpt lat="49.81491" lon="4.76299">
        <ele>265</ele>
        <time>2021-05-15T08:10:48.000Z</time>
      </trkpt>
      <trkpt lat="49.8149" lon="4.76296">
        <ele>265</ele>
        <time>2021-05-15T08:10:49.000Z</time>
      </trkpt>
      <trkpt lat="49.81489" lon="4.76294">
        <ele>264</ele>
        <time>2021-05-15T08:10:50.000Z</time>
      </trkpt>
      <trkpt lat="49.81488" lon="4.76292">
        <ele>264</ele>
        <time>2021-05-15T08:10:51.000Z</time>
      </trkpt>
      <trkpt lat="49.81486" lon="4.7629">
        <ele>263</ele>
        <time>2021-05-15T08:10:52.000Z</time>
      </trkpt>
      <trkpt lat="49.81485" lon="4.76287">
        <ele>263</ele>
        <time>2021-05-15T08:10:53.000Z</time>
      </trkpt>
      <trkpt lat="49.81484" lon="4.76284">
        <ele>263</ele>
        <time>2021-05-15T08:10:54.000Z</time>
      </trkpt>
      <trkpt lat="49.81483" lon="4.76282">
        <ele>262</ele>
        <time>2021-05-15T08:10:55.000Z</time>
      </trkpt>
      <trkpt lat="49.81481" lon="4.76281">
        <ele>262</ele>
        <time>2021-05-15T08:10:56.000Z</time>
      </trkpt>
      <trkpt lat="49.8148" lon="4.76279">
        <ele>262</ele>
        <time>2021-05-15T08:10:57.000Z</time>
      </trkpt>
      <trkpt lat="49.81478" lon="4.76277">
        <ele>261</ele>
        <time>2021-05-15T08:10:58.000Z</time>
      </trkpt>
      <trkpt lat="49.81476" lon="4.76276">
        <ele>261</ele>
        <time>2021-05-15T08:10:59.000Z</time>
      </trkpt>
      <trkpt lat="49.81474" lon="4.76273">
        <ele>261</ele>
        <time>2021-05-15T08:11:00.000Z</time>
      </trkpt>
      <trkpt lat="49.81471" lon="4.76271">
        <ele>260</ele>
        <time>2021-05-15T08:11:01.000Z</time>
      </trkpt>
      <trkpt lat="49.81469" lon="4.76268">
        <ele>260</ele>
        <time>2021-05-15T08:11:02.000Z</time>
      </trkpt>
      <trkpt lat="49.81467" lon="4.76266">
        <ele>260</ele>
        <time>2021-05-15T08:11:03.000Z</time>
      </trkpt>
      <trkpt lat="49.81465" lon="4.76265">
        <ele>260</ele>
        <time>2021-05-15T08:11:04.000Z</time>
      </trkpt>
      <trkpt lat="49.81463" lon="4.76263">
        <ele>259</ele>
        <time>2021-05-15T08:11:05.000Z</time>
      </trkpt>
      <trkpt lat="49.81461" lon="4.76261">
        <ele>259</ele>
        <time>2021-05-15T08:11:06.000Z</time>
      </trkpt>
      <trkpt lat="49.81459" lon="4.76259">
        <ele>259</ele>
        <time>2021-05-15T08:11:07.000Z</time>
      </trkpt>
      <trkpt lat="49.81457" lon="4.76257">
        <ele>259</ele>
        <time>2021-05-15T08:11:08.000Z</time>
      </trkpt>
      <trkpt lat="49.81455" lon="4.76256">
        <ele>258</ele>
        <time>2021-05-15T08:11:09.000Z</time>
      </trkpt>
      <trkpt lat="49.81454" lon="4.76254">
        <ele>258</ele>
        <time>2021-05-15T08:11:10.000Z</time>
      </trkpt>
      <trkpt lat="49.81452" lon="4.76252">
        <ele>258</ele>
        <time>2021-05-15T08:11:11.000Z</time>
      </trkpt>
      <trkpt lat="49.81451" lon="4.76251">
        <ele>258</ele>
        <time>2021-05-15T08:11:12.000Z</time>
      </trkpt>
      <trkpt lat="49.81449" lon="4.76249">
        <ele>258</ele>
        <time>2021-05-15T08:11:13.000Z</time>
      </trkpt>
      <trkpt lat="49.81447" lon="4.76248">
        <ele>258</ele>
        <time>2021-05-15T08:11:14.000Z</time>
      </trkpt>
      <trkpt lat="49.81445" lon="4.76247">
        <ele>258</ele>
        <time>2021-05-15T08:11:15.000Z</time>
      </trkpt>
      <trkpt lat="49.81444" lon="4.76246">
        <ele>258</ele>
        <time>2021-05-15T08:11:16.000Z</time>
      </trkpt>
      <trkpt lat="49.81443" lon="4.76244">
        <ele>258</ele>
        <time>2021-05-15T08:11:17.000Z</time>
      </trkpt>
      <trkpt lat="49.81441" lon="4.76242">
        <ele>258</ele>
        <time>2021-05-15T08:11:18.000Z</time>
      </trkpt>
      <trkpt lat="49.81439" lon="4.7624">
        <ele>258</ele>
        <time>2021-05-15T08:11:19.000Z</time>
      </trkpt>
      <trkpt lat="49.81437" lon="4.76238">
        <ele>258</ele>
        <time>2021-05-15T08:11:20.000Z</time>
      </trkpt>
      <trkpt lat="49.81435" lon="4.76236">
        <ele>258</ele>
        <time>2021-05-15T08:11:21.000Z</time>
      </trkpt>
      <trkpt lat="49.81433" lon="4.76234">
        <ele>258</ele>
        <time>2021-05-15T08:11:22.000Z</time>
      </trkpt>
      <trkpt lat="49.81431" lon="4.76232">
        <ele>257</ele>
        <time>2021-05-15T08:11:23.000Z</time>
      </trkpt>
      <trkpt lat="49.81428" lon="4.7623">
        <ele>257</ele>
        <time>2021-05-15T08:11:24.000Z</time>
      </trkpt>
      <trkpt lat="49.81426" lon="4.76228">
        <ele>257</ele>
        <time>2021-05-15T08:11:25.000Z</time>
      </trkpt>
      <trkpt lat="49.81423" lon="4.76227">
        <ele>257</ele>
        <time>2021-05-15T08:11:26.000Z</time>
      </trkpt>
      <trkpt lat="49.81421" lon="4.76225">
        <ele>257</ele>
        <time>2021-05-15T08:11:27.000Z</time>
      </trkpt>
      <trkpt lat="49.81418" lon="4.76223">
        <ele>257</ele>
        <time>2021-05-15T08:11:28.000Z</time>
      </trkpt>
      <trkpt lat="49.81416" lon="4.76221">
        <ele>257</ele>
        <time>2021-05-15T08:11:29.000Z</time>
      </trkpt>
      <trkpt lat="49.81414" lon="4.7622">
        <ele>257</ele>
        <time>2021-05-15T08:11:30.000Z</time>
      </trkpt>
      <trkpt lat="49.81411" lon="4.76218">
        <ele>257</ele>
        <time>2021-05-15T08:11:31.000Z</time>
      </trkpt>
      <trkpt lat="49.8141" lon="4.76216">
        <ele>257</ele>
        <time>2021-05-15T08:11:32.000Z</time>
      </trkpt>
      <trkpt lat="49.81407" lon="4.76214">
        <ele>257</ele>
        <time>2021-05-15T08:11:33.000Z</time>
      </trkpt>
      <trkpt lat="49.81404" lon="4.76211">
        <ele>257</ele>
        <time>2021-05-15T08:11:34.000Z</time>
      </trkpt>
      <trkpt lat="49.81401" lon="4.76209">
        <ele>257</ele>
        <time>2021-05-15T08:11:35.000Z</time>
      </trkpt>
      <trkpt lat="49.81398" lon="4.76208">
        <ele>257</ele>
        <time>2021-05-15T08:11:36.000Z</time>
      </trkpt>
      <trkpt lat="49.81396" lon="4.76205">
        <ele>257</ele>
        <time>2021-05-15T08:11:37.000Z</time>
      </trkpt>
      <trkpt lat="49.81393" lon="4.76204">
        <ele>257</ele>
        <time>2021-05-15T08:11:38.000Z</time>
      </trkpt>
      <trkpt lat="49.81391" lon="4.76202">
        <ele>257</ele>
        <time>2021-05-15T08:11:39.000Z</time>
      </trkpt>
      <trkpt lat="49.81389" lon="4.76199">
        <ele>257</ele>
        <time>2021-05-15T08:11:40.000Z</time>
      </trkpt>
      <trkpt lat="49.81387" lon="4.76197">
        <ele>257</ele>
        <time>2021-05-15T08:11:41.000Z</time>
      </trkpt>
      <trkpt lat="49.81385" lon="4.76194">
        <ele>257</ele>
        <time>2021-05-15T08:11:42.000Z</time>
      </trkpt>
      <trkpt lat="49.81383" lon="4.7619">
        <ele>258</ele>
        <time>2021-05-15T08:11:43.000Z</time>
      </trkpt>
      <trkpt lat="49.81381" lon="4.76188">
        <ele>258</ele>
        <time>2021-05-15T08:11:44.000Z</time>
      </trkpt>
      <trkpt lat="49.81379" lon="4.76186">
        <ele>258</ele>
        <time>2021-05-15T08:11:45.000Z</time>
      </trkpt>
      <trkpt lat="49.81377" lon="4.76183">
        <ele>258</ele>
        <time>2021-05-15T08:11:46.000Z</time>
      </trkpt>
      <trkpt lat="49.81375" lon="4.76181">
        <ele>258</ele>
        <time>2021-05-15T08:11:47.000Z</time>
      </trkpt>
      <trkpt lat="49.81372" lon="4.76179">
        <ele>258</ele>
        <time>2021-05-15T08:11:48.000Z</time>
      </trkpt>
      <trkpt lat="49.81369" lon="4.76177">
        <ele>259</ele>
        <time>2021-05-15T08:11:49.000Z</time>
      </trkpt>
      <trkpt lat="49.81366" lon="4.76175">
        <ele>259</ele>
        <time>2021-05-15T08:11:50.000Z</time>
      </trkpt>
      <trkpt lat="49.81364" lon="4.76173">
        <ele>259</ele>
        <time>2021-05-15T08:11:51.000Z</time>
      </trkpt>
      <trkpt lat="49.81361" lon="4.76172">
        <ele>259</ele>
        <time>2021-05-15T08:11:52.000Z</time>
      </trkpt>
      <trkpt lat="49.81358" lon="4.7617">
        <ele>259</ele>
        <time>2021-05-15T08:11:53.000Z</time>
      </trkpt>
      <trkpt lat="49.81355" lon="4.76168">
        <ele>260</ele>
        <time>2021-05-15T08:11:54.000Z</time>
      </trkpt>
      <trkpt lat="49.81351" lon="4.76165">
        <ele>260</ele>
        <time>2021-05-15T08:11:55.000Z</time>
      </trkpt>
      <trkpt lat="49.81348" lon="4.76163">
        <ele>260</ele>
        <time>2021-05-15T08:11:56.000Z</time>
      </trkpt>
      <trkpt lat="49.81345" lon="4.76161">
        <ele>260</ele>
        <time>2021-05-15T08:11:57.000Z</time>
      </trkpt>
      <trkpt lat="49.81342" lon="4.76159">
        <ele>261</ele>
        <time>2021-05-15T08:11:58.000Z</time>
      </trkpt>
      <trkpt lat="49.81338" lon="4.76157">
        <ele>261</ele>
        <time>2021-05-15T08:11:59.000Z</time>
      </trkpt>
      <trkpt lat="49.81335" lon="4.76154">
        <ele>261</ele>
        <time>2021-05-15T08:12:00.000Z</time>
      </trkpt>
      <trkpt lat="49.81332" lon="4.76152">
        <ele>261</ele>
        <time>2021-05-15T08:12:01.000Z</time>
      </trkpt>
      <trkpt lat="49.81329" lon="4.7615">
        <ele>262</ele>
        <time>2021-05-15T08:12:02.000Z</time>
      </trkpt>
      <trkpt lat="49.81326" lon="4.76148">
        <ele>262</ele>
        <time>2021-05-15T08:12:03.000Z</time>
      </trkpt>
      <trkpt lat="49.81323" lon="4.76146">
        <ele>262</ele>
        <time>2021-05-15T08:12:04.000Z</time>
      </trkpt>
      <trkpt lat="49.81319" lon="4.76144">
        <ele>263</ele>
        <time>2021-05-15T08:12:05.000Z</time>
      </trkpt>
      <trkpt lat="49.81316" lon="4.76142">
        <ele>263</ele>
        <time>2021-05-15T08:12:06.000Z</time>
      </trkpt>
      <trkpt lat="49.81313" lon="4.76139">
        <ele>263</ele>
        <time>2021-05-15T08:12:07.000Z</time>
      </trkpt>
      <trkpt lat="49.8131" lon="4.76137">
        <ele>264</ele>
        <time>2021-05-15T08:12:08.000Z</time>
      </trkpt>
      <trkpt lat="49.81306" lon="4.76136">
        <ele>264</ele>
        <time>2021-05-15T08:12:09.000Z</time>
      </trkpt>
      <trkpt lat="49.81303" lon="4.76134">
        <ele>264</ele>
        <time>2021-05-15T08:12:10.000Z</time>
      </trkpt>
      <trkpt lat="49.81301" lon="4.76132">
        <ele>265</ele>
        <time>2021-05-15T08:12:11.000Z</time>
      </trkpt>
      <trkpt lat="49.81298" lon="4.7613">
        <ele>265</ele>
        <time>2021-05-15T08:12:12.000Z</time>
      </trkpt>
      <trkpt lat="49.81296" lon="4.76129">
        <ele>265</ele>
        <time>2021-05-15T08:12:13.000Z</time>
      </trkpt>
      <trkpt lat="49.81293" lon="4.76127">
        <ele>266</ele>
        <time>2021-05-15T08:12:14.000Z</time>
      </trkpt>
      <trkpt lat="49.81291" lon="4.76126">
        <ele>266</ele>
        <time>2021-05-15T08:12:15.000Z</time>
      </trkpt>
      <trkpt lat="49.81288" lon="4.76124">
        <ele>266</ele>
        <time>2021-05-15T08:12:16.000Z</time>
      </trkpt>
      <trkpt lat="49.81286" lon="4.76123">
        <ele>267</ele>
        <time>2021-05-15T08:12:17.000Z</time>
      </trkpt>
      <trkpt lat="49.81283" lon="4.76121">
        <ele>267</ele>
        <time>2021-05-15T08:12:18.000Z</time>
      </trkpt>
      <trkpt lat="49.8128" lon="4.7612">
        <ele>267</ele>
        <time>2021-05-15T08:12:19.000Z</time>
      </trkpt>
      <trkpt lat="49.81277" lon="4.76119">
        <ele>268</ele>
        <time>2021-05-15T08:12:20.000Z</time>
      </trkpt>
      <trkpt lat="49.81273" lon="4.76117">
        <ele>268</ele>
        <time>2021-05-15T08:12:21.000Z</time>
      </trkpt>
      <trkpt lat="49.8127" lon="4.76116">
        <ele>268</ele>
        <time>2021-05-15T08:12:22.000Z</time>
      </trkpt>
      <trkpt lat="49.81268" lon="4.76114">
        <ele>269</ele>
        <time>2021-05-15T08:12:23.000Z</time>
      </trkpt>
      <trkpt lat="49.81266" lon="4.76113">
        <ele>269</ele>
        <time>2021-05-15T08:12:24.000Z</time>
      </trkpt>
      <trkpt lat="49.81263" lon="4.76111">
        <ele>270</ele>
        <time>2021-05-15T08:12:25.000Z</time>
      </trkpt>
      <trkpt lat="49.8126" lon="4.76109">
        <ele>270</ele>
        <time>2021-05-15T08:12:26.000Z</time>
      </trkpt>
      <trkpt lat="49.81257" lon="4.76106">
        <ele>271</ele>
        <time>2021-05-15T08:12:27.000Z</time>
      </trkpt>
      <trkpt lat="49.81255" lon="4.76104">
        <ele>271</ele>
        <time>2021-05-15T08:12:28.000Z</time>
      </trkpt>
      <trkpt lat="49.81252" lon="4.761">
        <ele>272</ele>
        <time>2021-05-15T08:12:29.000Z</time>
      </trkpt>
      <trkpt lat="49.8125" lon="4.76096">
        <ele>272</ele>
        <time>2021-05-15T08:12:30.000Z</time>
      </trkpt>
      <trkpt lat="49.81248" lon="4.76092">
        <ele>273</ele>
        <time>2021-05-15T08:12:31.000Z</time>
      </trkpt>
      <trkpt lat="49.81246" lon="4.76087">
        <ele>273</ele>
        <time>2021-05-15T08:12:32.000Z</time>
      </trkpt>
      <trkpt lat="49.81243" lon="4.76082">
        <ele>273</ele>
        <time>2021-05-15T08:12:33.000Z</time>
      </trkpt>
      <trkpt lat="49.8124" lon="4.76078">
        <ele>274</ele>
        <time>2021-05-15T08:12:34.000Z</time>
      </trkpt>
      <trkpt lat="49.81238" lon="4.76073">
        <ele>274</ele>
        <time>2021-05-15T08:12:35.000Z</time>
      </trkpt>
      <trkpt lat="49.81236" lon="4.76068">
        <ele>275</ele>
        <time>2021-05-15T08:12:36.000Z</time>
      </trkpt>
      <trkpt lat="49.81235" lon="4.76064">
        <ele>275</ele>
        <time>2021-05-15T08:12:37.000Z</time>
      </trkpt>
      <trkpt lat="49.81234" lon="4.7606">
        <ele>275</ele>
        <time>2021-05-15T08:12:38.000Z</time>
      </trkpt>
      <trkpt lat="49.81234" lon="4.76055">
        <ele>276</ele>
        <time>2021-05-15T08:12:39.000Z</time>
      </trkpt>
      <trkpt lat="49.81234" lon="4.7605">
        <ele>276</ele>
        <time>2021-05-15T08:12:40.000Z</time>
      </trkpt>
      <trkpt lat="49.81235" lon="4.76045">
        <ele>276</ele>
        <time>2021-05-15T08:12:41.000Z</time>
      </trkpt>
      <trkpt lat="49.81236" lon="4.7604">
        <ele>276</ele>
        <time>2021-05-15T08:12:42.000Z</time>
      </trkpt>
      <trkpt lat="49.81238" lon="4.76035">
        <ele>276</ele>
        <time>2021-05-15T08:12:43.000Z</time>
      </trkpt>
      <trkpt lat="49.81239" lon="4.7603">
        <ele>277</ele>
        <time>2021-05-15T08:12:44.000Z</time>
      </trkpt>
      <trkpt lat="49.81242" lon="4.76026">
        <ele>277</ele>
        <time>2021-05-15T08:12:45.000Z</time>
      </trkpt>
      <trkpt lat="49.81244" lon="4.76022">
        <ele>277</ele>
        <time>2021-05-15T08:12:46.000Z</time>
      </trkpt>
      <trkpt lat="49.81245" lon="4.76018">
        <ele>277</ele>
        <time>2021-05-15T08:12:47.000Z</time>
      </trkpt>
      <trkpt lat="49.81246" lon="4.76014">
        <ele>277</ele>
        <time>2021-05-15T08:12:48.000Z</time>
      </trkpt>
      <trkpt lat="49.81248" lon="4.76011">
        <ele>278</ele>
        <time>2021-05-15T08:12:49.000Z</time>
      </trkpt>
      <trkpt lat="49.81249" lon="4.76008">
        <ele>278</ele>
        <time>2021-05-15T08:12:50.000Z</time>
      </trkpt>
      <trkpt lat="49.81252" lon="4.76005">
        <ele>278</ele>
        <time>2021-05-15T08:12:51.000Z</time>
      </trkpt>
      <trkpt lat="49.81255" lon="4.76002">
        <ele>278</ele>
        <time>2021-05-15T08:12:52.000Z</time>
      </trkpt>
      <trkpt lat="49.81258" lon="4.75999">
        <ele>278</ele>
        <time>2021-05-15T08:12:53.000Z</time>
      </trkpt>
      <trkpt lat="49.81261" lon="4.75997">
        <ele>278</ele>
        <time>2021-05-15T08:12:54.000Z</time>
      </trkpt>
      <trkpt lat="49.81264" lon="4.75994">
        <ele>278</ele>
        <time>2021-05-15T08:12:55.000Z</time>
      </trkpt>
      <trkpt lat="49.81267" lon="4.75991">
        <ele>278</ele>
        <time>2021-05-15T08:12:56.000Z</time>
      </trkpt>
      <trkpt lat="49.81269" lon="4.75988">
        <ele>278</ele>
        <time>2021-05-15T08:12:57.000Z</time>
      </trkpt>
      <trkpt lat="49.81273" lon="4.75985">
        <ele>277</ele>
        <time>2021-05-15T08:12:58.000Z</time>
      </trkpt>
      <trkpt lat="49.81276" lon="4.75981">
        <ele>277</ele>
        <time>2021-05-15T08:12:59.000Z</time>
      </trkpt>
      <trkpt lat="49.81279" lon="4.75978">
        <ele>277</ele>
        <time>2021-05-15T08:13:00.000Z</time>
      </trkpt>
      <trkpt lat="49.81282" lon="4.75973">
        <ele>277</ele>
        <time>2021-05-15T08:13:01.000Z</time>
      </trkpt>
      <trkpt lat="49.81285" lon="4.75968">
        <ele>277</ele>
        <time>2021-05-15T08:13:02.000Z</time>
      </trkpt>
      <trkpt lat="49.81288" lon="4.75962">
        <ele>276</ele>
        <time>2021-05-15T08:13:03.000Z</time>
      </trkpt>
      <trkpt lat="49.8129" lon="4.75956">
        <ele>276</ele>
        <time>2021-05-15T08:13:04.000Z</time>
      </trkpt>
      <trkpt lat="49.81291" lon="4.75949">
        <ele>276</ele>
        <time>2021-05-15T08:13:05.000Z</time>
      </trkpt>
      <trkpt lat="49.81291" lon="4.75941">
        <ele>276</ele>
        <time>2021-05-15T08:13:06.000Z</time>
      </trkpt>
      <trkpt lat="49.81292" lon="4.75933">
        <ele>275</ele>
        <time>2021-05-15T08:13:07.000Z</time>
      </trkpt>
      <trkpt lat="49.81291" lon="4.75925">
        <ele>275</ele>
        <time>2021-05-15T08:13:08.000Z</time>
      </trkpt>
      <trkpt lat="49.81291" lon="4.75917">
        <ele>275</ele>
        <time>2021-05-15T08:13:09.000Z</time>
      </trkpt>
      <trkpt lat="49.81291" lon="4.75908">
        <ele>274</ele>
        <time>2021-05-15T08:13:10.000Z</time>
      </trkpt>
      <trkpt lat="49.8129" lon="4.759">
        <ele>274</ele>
        <time>2021-05-15T08:13:11.000Z</time>
      </trkpt>
      <trkpt lat="49.81289" lon="4.75892">
        <ele>274</ele>
        <time>2021-05-15T08:13:12.000Z</time>
      </trkpt>
      <trkpt lat="49.81288" lon="4.75883">
        <ele>273</ele>
        <time>2021-05-15T08:13:13.000Z</time>
      </trkpt>
      <trkpt lat="49.81287" lon="4.75875">
        <ele>273</ele>
        <time>2021-05-15T08:13:14.000Z</time>
      </trkpt>
      <trkpt lat="49.81286" lon="4.75866">
        <ele>273</ele>
        <time>2021-05-15T08:13:15.000Z</time>
      </trkpt>
      <trkpt lat="49.81285" lon="4.75858">
        <ele>272</ele>
        <time>2021-05-15T08:13:16.000Z</time>
      </trkpt>
      <trkpt lat="49.81283" lon="4.75849">
        <ele>272</ele>
        <time>2021-05-15T08:13:17.000Z</time>
      </trkpt>
      <trkpt lat="49.81282" lon="4.75841">
        <ele>271</ele>
        <time>2021-05-15T08:13:18.000Z</time>
      </trkpt>
      <trkpt lat="49.8128" lon="4.75832">
        <ele>271</ele>
        <time>2021-05-15T08:13:19.000Z</time>
      </trkpt>
      <trkpt lat="49.81277" lon="4.75823">
        <ele>271</ele>
        <time>2021-05-15T08:13:20.000Z</time>
      </trkpt>
      <trkpt lat="49.81274" lon="4.75814">
        <ele>270</ele>
        <time>2021-05-15T08:13:21.000Z</time>
      </trkpt>
      <trkpt lat="49.81272" lon="4.75806">
        <ele>270</ele>
        <time>2021-05-15T08:13:22.000Z</time>
      </trkpt>
      <trkpt lat="49.8127" lon="4.75797">
        <ele>270</ele>
        <time>2021-05-15T08:13:23.000Z</time>
      </trkpt>
      <trkpt lat="49.81268" lon="4.75788">
        <ele>269</ele>
        <time>2021-05-15T08:13:24.000Z</time>
      </trkpt>
      <trkpt lat="49.81267" lon="4.75779">
        <ele>269</ele>
        <time>2021-05-15T08:13:25.000Z</time>
      </trkpt>
      <trkpt lat="49.81265" lon="4.75771">
        <ele>269</ele>
        <time>2021-05-15T08:13:26.000Z</time>
      </trkpt>
      <trkpt lat="49.81264" lon="4.75763">
        <ele>268</ele>
        <time>2021-05-15T08:13:27.000Z</time>
      </trkpt>
      <trkpt lat="49.81263" lon="4.75755">
        <ele>268</ele>
        <time>2021-05-15T08:13:28.000Z</time>
      </trkpt>
      <trkpt lat="49.81261" lon="4.75747">
        <ele>268</ele>
        <time>2021-05-15T08:13:29.000Z</time>
      </trkpt>
      <trkpt lat="49.81259" lon="4.7574">
        <ele>268</ele>
        <time>2021-05-15T08:13:30.000Z</time>
      </trkpt>
      <trkpt lat="49.81258" lon="4.75733">
        <ele>268</ele>
        <time>2021-05-15T08:13:31.000Z</time>
      </trkpt>
      <trkpt lat="49.81257" lon="4.75726">
        <ele>267</ele>
        <time>2021-05-15T08:13:32.000Z</time>
      </trkpt>
      <trkpt lat="49.81257" lon="4.75718">
        <ele>267</ele>
        <time>2021-05-15T08:13:33.000Z</time>
      </trkpt>
      <trkpt lat="49.81256" lon="4.75711">
        <ele>267</ele>
        <time>2021-05-15T08:13:34.000Z</time>
      </trkpt>
      <trkpt lat="49.81255" lon="4.75703">
        <ele>267</ele>
        <time>2021-05-15T08:13:35.000Z</time>
      </trkpt>
      <trkpt lat="49.81254" lon="4.75694">
        <ele>266</ele>
        <time>2021-05-15T08:13:36.000Z</time>
      </trkpt>
      <trkpt lat="49.81253" lon="4.75686">
        <ele>266</ele>
        <time>2021-05-15T08:13:37.000Z</time>
      </trkpt>
      <trkpt lat="49.81252" lon="4.75677">
        <ele>266</ele>
        <time>2021-05-15T08:13:38.000Z</time>
      </trkpt>
      <trkpt lat="49.8125" lon="4.75667">
        <ele>265</ele>
        <time>2021-05-15T08:13:39.000Z</time>
      </trkpt>
      <trkpt lat="49.81249" lon="4.75657">
        <ele>265</ele>
        <time>2021-05-15T08:13:40.000Z</time>
      </trkpt>
      <trkpt lat="49.81247" lon="4.75647">
        <ele>264</ele>
        <time>2021-05-15T08:13:41.000Z</time>
      </trkpt>
      <trkpt lat="49.81244" lon="4.75637">
        <ele>264</ele>
        <time>2021-05-15T08:13:42.000Z</time>
      </trkpt>
      <trkpt lat="49.81241" lon="4.75627">
        <ele>264</ele>
        <time>2021-05-15T08:13:43.000Z</time>
      </trkpt>
      <trkpt lat="49.81239" lon="4.75617">
        <ele>263</ele>
        <time>2021-05-15T08:13:44.000Z</time>
      </trkpt>
      <trkpt lat="49.81236" lon="4.75608">
        <ele>263</ele>
        <time>2021-05-15T08:13:45.000Z</time>
      </trkpt>
      <trkpt lat="49.81233" lon="4.75601">
        <ele>262</ele>
        <time>2021-05-15T08:13:46.000Z</time>
      </trkpt>
      <trkpt lat="49.81231" lon="4.75595">
        <ele>262</ele>
        <time>2021-05-15T08:13:47.000Z</time>
      </trkpt>
      <trkpt lat="49.81228" lon="4.7559">
        <ele>261</ele>
        <time>2021-05-15T08:13:48.000Z</time>
      </trkpt>
      <trkpt lat="49.81225" lon="4.75585">
        <ele>261</ele>
        <time>2021-05-15T08:13:49.000Z</time>
      </trkpt>
      <trkpt lat="49.81224" lon="4.75581">
        <ele>260</ele>
        <time>2021-05-15T08:13:50.000Z</time>
      </trkpt>
      <trkpt lat="49.81225" lon="4.75579">
        <ele>260</ele>
        <time>2021-05-15T08:13:51.000Z</time>
      </trkpt>
      <trkpt lat="49.81226" lon="4.75578">
        <ele>260</ele>
        <time>2021-05-15T08:13:52.000Z</time>
      </trkpt>
      <trkpt lat="49.81228" lon="4.75578">
        <ele>260</ele>
        <time>2021-05-15T08:13:53.000Z</time>
      </trkpt>
      <trkpt lat="49.81229" lon="4.75577">
        <ele>259</ele>
        <time>2021-05-15T08:13:54.000Z</time>
      </trkpt>
      <trkpt lat="49.8123" lon="4.75577">
        <ele>259</ele>
        <time>2021-05-15T08:13:55.000Z</time>
      </trkpt>
      <trkpt lat="49.81231" lon="4.75576">
        <ele>259</ele>
        <time>2021-05-15T08:13:56.000Z</time>
      </trkpt>
      <trkpt lat="49.81231" lon="4.75576">
        <ele>259</ele>
        <time>2021-05-15T08:13:57.000Z</time>
      </trkpt>
      <trkpt lat="49.81232" lon="4.75576">
        <ele>259</ele>
        <time>2021-05-15T08:13:58.000Z</time>
      </trkpt>
      <trkpt lat="49.81233" lon="4.75576">
        <ele>259</ele>
        <time>2021-05-15T08:13:59.000Z</time>
      </trkpt>
      <trkpt lat="49.81234" lon="4.75575">
        <ele>259</ele>
        <time>2021-05-15T08:14:00.000Z</time>
      </trkpt>
      <trkpt lat="49.81235" lon="4.75575">
        <ele>259</ele>
        <time>2021-05-15T08:14:01.000Z</time>
      </trkpt>
      <trkpt lat="49.81235" lon="4.75575">
        <ele>259</ele>
        <time>2021-05-15T08:14:02.000Z</time>
      </trkpt>
      <trkpt lat="49.81236" lon="4.75575">
        <ele>259</ele>
        <time>2021-05-15T08:14:03.000Z</time>
      </trkpt>
      <trkpt lat="49.81236" lon="4.75574">
        <ele>259</ele>
        <time>2021-05-15T08:14:04.000Z</time>
      </trkpt>
      <trkpt lat="49.81237" lon="4.75574">
        <ele>259</ele>
        <time>2021-05-15T08:14:05.000Z</time>
      </trkpt>
      <trkpt lat="49.81238" lon="4.75574">
        <ele>259</ele>
        <time>2021-05-15T08:14:06.000Z</time>
      </trkpt>
      <trkpt lat="49.81238" lon="4.75574">
        <ele>259</ele>
        <time>2021-05-15T08:14:07.000Z</time>
      </trkpt>
      <trkpt lat="49.81239" lon="4.75573">
        <ele>259</ele>
        <time>2021-05-15T08:14:08.000Z</time>
      </trkpt>
      <trkpt lat="49.81239" lon="4.75573">
        <ele>259</ele>
        <time>2021-05-15T08:14:09.000Z</time>
      </trkpt>
      <trkpt lat="49.81239" lon="4.75573">
        <ele>259</ele>
        <time>2021-05-15T08:14:10.000Z</time>
      </trkpt>
      <trkpt lat="49.8124" lon="4.75573">
        <ele>259</ele>
        <time>2021-05-15T08:14:11.000Z</time>
      </trkpt>
      <trkpt lat="49.8124" lon="4.75573">
        <ele>259</ele>
        <time>2021-05-15T08:14:12.000Z</time>
      </trkpt>
      <trkpt lat="49.81241" lon="4.75573">
        <ele>259</ele>
        <time>2021-05-15T08:14:13.000Z</time>
      </trkpt>
      <trkpt lat="49.81241" lon="4.75573">
        <ele>259</ele>
        <time>2021-05-15T08:14:14.000Z</time>
      </trkpt>
      <trkpt lat="49.81241" lon="4.75573">
        <ele>259</ele>
        <time>2021-05-15T08:14:15.000Z</time>
      </trkpt>
      <trkpt lat="49.81242" lon="4.75573">
        <ele>259</ele>
        <time>2021-05-15T08:14:16.000Z</time>
      </trkpt>
      <trkpt lat="49.81243" lon="4.75574">
        <ele>259</ele>
        <time>2021-05-15T08:14:17.000Z</time>
      </trkpt>
      <trkpt lat="49.81244" lon="4.75576">
        <ele>258</ele>
        <time>2021-05-15T08:14:18.000Z</time>
      </trkpt>
      <trkpt lat="49.81246" lon="4.75578">
        <ele>258</ele>
        <time>2021-05-15T08:14:19.000Z</time>
      </trkpt>
      <trkpt lat="49.81248" lon="4.75581">
        <ele>258</ele>
        <time>2021-05-15T08:14:20.000Z</time>
      </trkpt>
      <trkpt lat="49.81251" lon="4.75586">
        <ele>258</ele>
        <time>2021-05-15T08:14:21.000Z</time>
      </trkpt>
      <trkpt lat="49.81254" lon="4.75591">
        <ele>258</ele>
        <time>2021-05-15T08:14:22.000Z</time>
      </trkpt>
      <trkpt lat="49.81258" lon="4.75598">
        <ele>258</ele>
        <time>2021-05-15T08:14:23.000Z</time>
      </trkpt>
      <trkpt lat="49.81262" lon="4.75606">
        <ele>258</ele>
        <time>2021-05-15T08:14:24.000Z</time>
      </trkpt>
      <trkpt lat="49.81265" lon="4.75613">
        <ele>257</ele>
        <time>2021-05-15T08:14:25.000Z</time>
      </trkpt>
      <trkpt lat="49.81269" lon="4.75619">
        <ele>257</ele>
        <time>2021-05-15T08:14:26.000Z</time>
      </trkpt>
      <trkpt lat="49.81271" lon="4.75624">
        <ele>257</ele>
        <time>2021-05-15T08:14:27.000Z</time>
      </trkpt>
      <trkpt lat="49.81274" lon="4.75627">
        <ele>257</ele>
        <time>2021-05-15T08:14:28.000Z</time>
      </trkpt>
      <trkpt lat="49.81277" lon="4.75632">
        <ele>257</ele>
        <time>2021-05-15T08:14:29.000Z</time>
      </trkpt>
      <trkpt lat="49.8128" lon="4.75637">
        <ele>257</ele>
        <time>2021-05-15T08:14:30.000Z</time>
      </trkpt>
      <trkpt lat="49.81284" lon="4.75643">
        <ele>256</ele>
        <time>2021-05-15T08:14:31.000Z</time>
      </trkpt>
      <trkpt lat="49.81288" lon="4.7565">
        <ele>256</ele>
        <time>2021-05-15T08:14:32.000Z</time>
      </trkpt>
      <trkpt lat="49.81292" lon="4.75657">
        <ele>256</ele>
        <time>2021-05-15T08:14:33.000Z</time>
      </trkpt>
      <trkpt lat="49.81297" lon="4.75665">
        <ele>256</ele>
        <time>2021-05-15T08:14:34.000Z</time>
      </trkpt>
      <trkpt lat="49.81301" lon="4.75674">
        <ele>255</ele>
        <time>2021-05-15T08:14:35.000Z</time>
      </trkpt>
      <trkpt lat="49.81307" lon="4.75681">
        <ele>255</ele>
        <time>2021-05-15T08:14:36.000Z</time>
      </trkpt>
      <trkpt lat="49.81312" lon="4.7569">
        <ele>254</ele>
        <time>2021-05-15T08:14:37.000Z</time>
      </trkpt>
      <trkpt lat="49.81317" lon="4.75698">
        <ele>254</ele>
        <time>2021-05-15T08:14:38.000Z</time>
      </trkpt>
      <trkpt lat="49.81322" lon="4.75707">
        <ele>253</ele>
        <time>2021-05-15T08:14:39.000Z</time>
      </trkpt>
      <trkpt lat="49.81328" lon="4.75716">
        <ele>253</ele>
        <time>2021-05-15T08:14:40.000Z</time>
      </trkpt>
      <trkpt lat="49.81333" lon="4.75725">
        <ele>252</ele>
        <time>2021-05-15T08:14:41.000Z</time>
      </trkpt>
      <trkpt lat="49.81339" lon="4.75734">
        <ele>251</ele>
        <time>2021-05-15T08:14:42.000Z</time>
      </trkpt>
      <trkpt lat="49.81345" lon="4.75744">
        <ele>251</ele>
        <time>2021-05-15T08:14:43.000Z</time>
      </trkpt>
      <trkpt lat="49.8135" lon="4.75754">
        <ele>250</ele>
        <time>2021-05-15T08:14:44.000Z</time>
      </trkpt>
      <trkpt lat="49.81355" lon="4.75764">
        <ele>250</ele>
        <time>2021-05-15T08:14:45.000Z</time>
      </trkpt>
      <trkpt lat="49.8136" lon="4.75775">
        <ele>249</ele>
        <time>2021-05-15T08:14:46.000Z</time>
      </trkpt>
      <trkpt lat="49.81365" lon="4.75786">
        <ele>248</ele>
        <time>2021-05-15T08:14:47.000Z</time>
      </trkpt>
      <trkpt lat="49.8137" lon="4.75796">
        <ele>248</ele>
        <time>2021-05-15T08:14:48.000Z</time>
      </trkpt>
      <trkpt lat="49.81375" lon="4.75807">
        <ele>247</ele>
        <time>2021-05-15T08:14:49.000Z</time>
      </trkpt>
      <trkpt lat="49.8138" lon="4.75818">
        <ele>247</ele>
        <time>2021-05-15T08:14:50.000Z</time>
      </trkpt>
      <trkpt lat="49.81385" lon="4.7583">
        <ele>246</ele>
        <time>2021-05-15T08:14:51.000Z</time>
      </trkpt>
      <trkpt lat="49.8139" lon="4.75842">
        <ele>245</ele>
        <time>2021-05-15T08:14:52.000Z</time>
      </trkpt>
      <trkpt lat="49.81396" lon="4.75854">
        <ele>244</ele>
        <time>2021-05-15T08:14:53.000Z</time>
      </trkpt>
      <trkpt lat="49.81401" lon="4.75864">
        <ele>243</ele>
        <time>2021-05-15T08:14:54.000Z</time>
      </trkpt>
      <trkpt lat="49.81406" lon="4.75875">
        <ele>242</ele>
        <time>2021-05-15T08:14:55.000Z</time>
      </trkpt>
      <trkpt lat="49.81411" lon="4.75885">
        <ele>242</ele>
        <time>2021-05-15T08:14:56.000Z</time>
      </trkpt>
      <trkpt lat="49.81416" lon="4.75896">
        <ele>241</ele>
        <time>2021-05-15T08:14:57.000Z</time>
      </trkpt>
      <trkpt lat="49.81422" lon="4.75906">
        <ele>240</ele>
        <time>2021-05-15T08:14:58.000Z</time>
      </trkpt>
      <trkpt lat="49.81427" lon="4.75915">
        <ele>239</ele>
        <time>2021-05-15T08:14:59.000Z</time>
      </trkpt>
      <trkpt lat="49.81434" lon="4.75924">
        <ele>238</ele>
        <time>2021-05-15T08:15:00.000Z</time>
      </trkpt>
      <trkpt lat="49.81439" lon="4.75934">
        <ele>237</ele>
        <time>2021-05-15T08:15:01.000Z</time>
      </trkpt>
      <trkpt lat="49.81445" lon="4.75943">
        <ele>237</ele>
        <time>2021-05-15T08:15:02.000Z</time>
      </trkpt>
      <trkpt lat="49.8145" lon="4.75952">
        <ele>236</ele>
        <time>2021-05-15T08:15:03.000Z</time>
      </trkpt>
      <trkpt lat="49.81457" lon="4.7596">
        <ele>236</ele>
        <time>2021-05-15T08:15:04.000Z</time>
      </trkpt>
      <trkpt lat="49.81464" lon="4.75968">
        <ele>235</ele>
        <time>2021-05-15T08:15:05.000Z</time>
      </trkpt>
      <trkpt lat="49.8147" lon="4.75974">
        <ele>235</ele>
        <time>2021-05-15T08:15:06.000Z</time>
      </trkpt>
      <trkpt lat="49.81476" lon="4.75979">
        <ele>234</ele>
        <time>2021-05-15T08:15:07.000Z</time>
      </trkpt>
      <trkpt lat="49.81481" lon="4.75982">
        <ele>234</ele>
        <time>2021-05-15T08:15:08.000Z</time>
      </trkpt>
      <trkpt lat="49.81485" lon="4.75985">
        <ele>234</ele>
        <time>2021-05-15T08:15:09.000Z</time>
      </trkpt>
      <trkpt lat="49.81488" lon="4.75987">
        <ele>233</ele>
        <time>2021-05-15T08:15:10.000Z</time>
      </trkpt>
      <trkpt lat="49.81489" lon="4.7599">
        <ele>233</ele>
        <time>2021-05-15T08:15:11.000Z</time>
      </trkpt>
      <trkpt lat="49.8149" lon="4.75991">
        <ele>233</ele>
        <time>2021-05-15T08:15:12.000Z</time>
      </trkpt>
      <trkpt lat="49.81491" lon="4.75992">
        <ele>232</ele>
        <time>2021-05-15T08:15:13.000Z</time>
      </trkpt>
      <trkpt lat="49.81492" lon="4.75992">
        <ele>232</ele>
        <time>2021-05-15T08:15:14.000Z</time>
      </trkpt>
      <trkpt lat="49.81493" lon="4.75992">
        <ele>232</ele>
        <time>2021-05-15T08:15:15.000Z</time>
      </trkpt>
      <trkpt lat="49.81495" lon="4.75991">
        <ele>231</ele>
        <time>2021-05-15T08:15:16.000Z</time>
      </trkpt>
      <trkpt lat="49.81496" lon="4.75991">
        <ele>231</ele>
        <time>2021-05-15T08:15:17.000Z</time>
      </trkpt>
      <trkpt lat="49.81497" lon="4.75989">
        <ele>231</ele>
        <time>2021-05-15T08:15:18.000Z</time>
      </trkpt>
      <trkpt lat="49.81498" lon="4.75987">
        <ele>231</ele>
        <time>2021-05-15T08:15:19.000Z</time>
      </trkpt>
      <trkpt lat="49.815" lon="4.75986">
        <ele>230</ele>
        <time>2021-05-15T08:15:20.000Z</time>
      </trkpt>
      <trkpt lat="49.81502" lon="4.75984">
        <ele>230</ele>
        <time>2021-05-15T08:15:21.000Z</time>
      </trkpt>
      <trkpt lat="49.81503" lon="4.75982">
        <ele>230</ele>
        <time>2021-05-15T08:15:22.000Z</time>
      </trkpt>
      <trkpt lat="49.81505" lon="4.7598">
        <ele>230</ele>
        <time>2021-05-15T08:15:23.000Z</time>
      </trkpt>
      <trkpt lat="49.81508" lon="4.75978">
        <ele>229</ele>
        <time>2021-05-15T08:15:24.000Z</time>
      </trkpt>
      <trkpt lat="49.8151" lon="4.75975">
        <ele>229</ele>
        <time>2021-05-15T08:15:25.000Z</time>
      </trkpt>
      <trkpt lat="49.81512" lon="4.75974">
        <ele>229</ele>
        <time>2021-05-15T08:15:26.000Z</time>
      </trkpt>
      <trkpt lat="49.81514" lon="4.75973">
        <ele>228</ele>
        <time>2021-05-15T08:15:27.000Z</time>
      </trkpt>
      <trkpt lat="49.81516" lon="4.75971">
        <ele>228</ele>
        <time>2021-05-15T08:15:28.000Z</time>
      </trkpt>
      <trkpt lat="49.81518" lon="4.75968">
        <ele>228</ele>
        <time>2021-05-15T08:15:29.000Z</time>
      </trkpt>
      <trkpt lat="49.8152" lon="4.75965">
        <ele>228</ele>
        <time>2021-05-15T08:15:30.000Z</time>
      </trkpt>
      <trkpt lat="49.81522" lon="4.75961">
        <ele>227</ele>
        <time>2021-05-15T08:15:31.000Z</time>
      </trkpt>
      <trkpt lat="49.81524" lon="4.75957">
        <ele>227</ele>
        <time>2021-05-15T08:15:32.000Z</time>
      </trkpt>
      <trkpt lat="49.81528" lon="4.75953">
        <ele>226</ele>
        <time>2021-05-15T08:15:33.000Z</time>
      </trkpt>
      <trkpt lat="49.81531" lon="4.75948">
        <ele>226</ele>
        <time>2021-05-15T08:15:34.000Z</time>
      </trkpt>
      <trkpt lat="49.81534" lon="4.75944">
        <ele>226</ele>
        <time>2021-05-15T08:15:35.000Z</time>
      </trkpt>
      <trkpt lat="49.81536" lon="4.75939">
        <ele>225</ele>
        <time>2021-05-15T08:15:36.000Z</time>
      </trkpt>
      <trkpt lat="49.81539" lon="4.75935">
        <ele>225</ele>
        <time>2021-05-15T08:15:37.000Z</time>
      </trkpt>
      <trkpt lat="49.81541" lon="4.75931">
        <ele>224</ele>
        <time>2021-05-15T08:15:38.000Z</time>
      </trkpt>
      <trkpt lat="49.81544" lon="4.75927">
        <ele>223</ele>
        <time>2021-05-15T08:15:39.000Z</time>
      </trkpt>
      <trkpt lat="49.81547" lon="4.75924">
        <ele>223</ele>
        <time>2021-05-15T08:15:40.000Z</time>
      </trkpt>
      <trkpt lat="49.8155" lon="4.75923">
        <ele>222</ele>
        <time>2021-05-15T08:15:41.000Z</time>
      </trkpt>
      <trkpt lat="49.81552" lon="4.75924">
        <ele>221</ele>
        <time>2021-05-15T08:15:42.000Z</time>
      </trkpt>
      <trkpt lat="49.81555" lon="4.75926">
        <ele>221</ele>
        <time>2021-05-15T08:15:43.000Z</time>
      </trkpt>
      <trkpt lat="49.81557" lon="4.7593">
        <ele>220</ele>
        <time>2021-05-15T08:15:44.000Z</time>
      </trkpt>
      <trkpt lat="49.81559" lon="4.75935">
        <ele>219</ele>
        <time>2021-05-15T08:15:45.000Z</time>
      </trkpt>
      <trkpt lat="49.8156" lon="4.75941">
        <ele>219</ele>
        <time>2021-05-15T08:15:46.000Z</time>
      </trkpt>
      <trkpt lat="49.81562" lon="4.75947">
        <ele>218</ele>
        <time>2021-05-15T08:15:47.000Z</time>
      </trkpt>
      <trkpt lat="49.81564" lon="4.75953">
        <ele>218</ele>
        <time>2021-05-15T08:15:48.000Z</time>
      </trkpt>
      <trkpt lat="49.81566" lon="4.75959">
        <ele>217</ele>
        <time>2021-05-15T08:15:49.000Z</time>
      </trkpt>
      <trkpt lat="49.81568" lon="4.75964">
        <ele>217</ele>
        <time>2021-05-15T08:15:50.000Z</time>
      </trkpt>
      <trkpt lat="49.8157" lon="4.7597">
        <ele>216</ele>
        <time>2021-05-15T08:15:51.000Z</time>
      </trkpt>
      <trkpt lat="49.81571" lon="4.75975">
        <ele>216</ele>
        <time>2021-05-15T08:15:52.000Z</time>
      </trkpt>
      <trkpt lat="49.81572" lon="4.75981">
        <ele>215</ele>
        <time>2021-05-15T08:15:53.000Z</time>
      </trkpt>
      <trkpt lat="49.81574" lon="4.75985">
        <ele>215</ele>
        <time>2021-05-15T08:15:54.000Z</time>
      </trkpt>
      <trkpt lat="49.81575" lon="4.7599">
        <ele>214</ele>
        <time>2021-05-15T08:15:55.000Z</time>
      </trkpt>
      <trkpt lat="49.81577" lon="4.75995">
        <ele>214</ele>
        <time>2021-05-15T08:15:56.000Z</time>
      </trkpt>
      <trkpt lat="49.81578" lon="4.76">
        <ele>214</ele>
        <time>2021-05-15T08:15:57.000Z</time>
      </trkpt>
      <trkpt lat="49.8158" lon="4.76005">
        <ele>213</ele>
        <time>2021-05-15T08:15:58.000Z</time>
      </trkpt>
      <trkpt lat="49.81581" lon="4.7601">
        <ele>213</ele>
        <time>2021-05-15T08:15:59.000Z</time>
      </trkpt>
      <trkpt lat="49.81583" lon="4.76015">
        <ele>213</ele>
        <time>2021-05-15T08:16:00.000Z</time>
      </trkpt>
      <trkpt lat="49.81585" lon="4.7602">
        <ele>212</ele>
        <time>2021-05-15T08:16:01.000Z</time>
      </trkpt>
      <trkpt lat="49.81587" lon="4.76025">
        <ele>212</ele>
        <time>2021-05-15T08:16:02.000Z</time>
      </trkpt>
      <trkpt lat="49.81589" lon="4.7603">
        <ele>212</ele>
        <time>2021-05-15T08:16:03.000Z</time>
      </trkpt>
      <trkpt lat="49.81591" lon="4.76035">
        <ele>212</ele>
        <time>2021-05-15T08:16:04.000Z</time>
      </trkpt>
      <trkpt lat="49.81592" lon="4.76041">
        <ele>212</ele>
        <time>2021-05-15T08:16:05.000Z</time>
      </trkpt>
      <trkpt lat="49.81594" lon="4.76046">
        <ele>211</ele>
        <time>2021-05-15T08:16:06.000Z</time>
      </trkpt>
      <trkpt lat="49.81595" lon="4.76051">
        <ele>211</ele>
        <time>2021-05-15T08:16:07.000Z</time>
      </trkpt>
      <trkpt lat="49.81597" lon="4.76057">
        <ele>212</ele>
        <time>2021-05-15T08:16:08.000Z</time>
      </trkpt>
      <trkpt lat="49.81599" lon="4.76062">
        <ele>212</ele>
        <time>2021-05-15T08:16:09.000Z</time>
      </trkpt>
      <trkpt lat="49.816" lon="4.76068">
        <ele>212</ele>
        <time>2021-05-15T08:16:10.000Z</time>
      </trkpt>
      <trkpt lat="49.81602" lon="4.76074">
        <ele>212</ele>
        <time>2021-05-15T08:16:11.000Z</time>
      </trkpt>
      <trkpt lat="49.81603" lon="4.76079">
        <ele>212</ele>
        <time>2021-05-15T08:16:12.000Z</time>
      </trkpt>
      <trkpt lat="49.81605" lon="4.76085">
        <ele>212</ele>
        <time>2021-05-15T08:16:13.000Z</time>
      </trkpt>
      <trkpt lat="49.81607" lon="4.76091">
        <ele>212</ele>
        <time>2021-05-15T08:16:14.000Z</time>
      </trkpt>
      <trkpt lat="49.81609" lon="4.76098">
        <ele>212</ele>
        <time>2021-05-15T08:16:15.000Z</time>
      </trkpt>
      <trkpt lat="49.81612" lon="4.76104">
        <ele>212</ele>
        <time>2021-05-15T08:16:16.000Z</time>
      </trkpt>
      <trkpt lat="49.81614" lon="4.76111">
        <ele>212</ele>
        <time>2021-05-15T08:16:17.000Z</time>
      </trkpt>
      <trkpt lat="49.81616" lon="4.76118">
        <ele>212</ele>
        <time>2021-05-15T08:16:18.000Z</time>
      </trkpt>
      <trkpt lat="49.81618" lon="4.76124">
        <ele>212</ele>
        <time>2021-05-15T08:16:19.000Z</time>
      </trkpt>
      <trkpt lat="49.81621" lon="4.76131">
        <ele>212</ele>
        <time>2021-05-15T08:16:20.000Z</time>
      </trkpt>
      <trkpt lat="49.81623" lon="4.76137">
        <ele>212</ele>
        <time>2021-05-15T08:16:21.000Z</time>
      </trkpt>
      <trkpt lat="49.81625" lon="4.76143">
        <ele>212</ele>
        <time>2021-05-15T08:16:22.000Z</time>
      </trkpt>
      <trkpt lat="49.81627" lon="4.7615">
        <ele>212</ele>
        <time>2021-05-15T08:16:23.000Z</time>
      </trkpt>
      <trkpt lat="49.81629" lon="4.76156">
        <ele>212</ele>
        <time>2021-05-15T08:16:24.000Z</time>
      </trkpt>
      <trkpt lat="49.81631" lon="4.76162">
        <ele>212</ele>
        <time>2021-05-15T08:16:25.000Z</time>
      </trkpt>
      <trkpt lat="49.81633" lon="4.76168">
        <ele>212</ele>
        <time>2021-05-15T08:16:26.000Z</time>
      </trkpt>
      <trkpt lat="49.81635" lon="4.76175">
        <ele>212</ele>
        <time>2021-05-15T08:16:27.000Z</time>
      </trkpt>
      <trkpt lat="49.81637" lon="4.76182">
        <ele>212</ele>
        <time>2021-05-15T08:16:28.000Z</time>
      </trkpt>
      <trkpt lat="49.81639" lon="4.76188">
        <ele>212</ele>
        <time>2021-05-15T08:16:29.000Z</time>
      </trkpt>
      <trkpt lat="49.81641" lon="4.76195">
        <ele>213</ele>
        <time>2021-05-15T08:16:30.000Z</time>
      </trkpt>
      <trkpt lat="49.81642" lon="4.76201">
        <ele>213</ele>
        <time>2021-05-15T08:16:31.000Z</time>
      </trkpt>
      <trkpt lat="49.81644" lon="4.76207">
        <ele>213</ele>
        <time>2021-05-15T08:16:32.000Z</time>
      </trkpt>
      <trkpt lat="49.81646" lon="4.76213">
        <ele>213</ele>
        <time>2021-05-15T08:16:33.000Z</time>
      </trkpt>
      <trkpt lat="49.81647" lon="4.76219">
        <ele>212</ele>
        <time>2021-05-15T08:16:34.000Z</time>
      </trkpt>
      <trkpt lat="49.81649" lon="4.76225">
        <ele>212</ele>
        <time>2021-05-15T08:16:35.000Z</time>
      </trkpt>
      <trkpt lat="49.81651" lon="4.76232">
        <ele>212</ele>
        <time>2021-05-15T08:16:36.000Z</time>
      </trkpt>
      <trkpt lat="49.81652" lon="4.76238">
        <ele>212</ele>
        <time>2021-05-15T08:16:37.000Z</time>
      </trkpt>
      <trkpt lat="49.81654" lon="4.76245">
        <ele>212</ele>
        <time>2021-05-15T08:16:38.000Z</time>
      </trkpt>
      <trkpt lat="49.81655" lon="4.76252">
        <ele>212</ele>
        <time>2021-05-15T08:16:39.000Z</time>
      </trkpt>
      <trkpt lat="49.81657" lon="4.76259">
        <ele>212</ele>
        <time>2021-05-15T08:16:40.000Z</time>
      </trkpt>
      <trkpt lat="49.81659" lon="4.76267">
        <ele>212</ele>
        <time>2021-05-15T08:16:41.000Z</time>
      </trkpt>
      <trkpt lat="49.81662" lon="4.76275">
        <ele>211</ele>
        <time>2021-05-15T08:16:42.000Z</time>
      </trkpt>
      <trkpt lat="49.81665" lon="4.76284">
        <ele>211</ele>
        <time>2021-05-15T08:16:43.000Z</time>
      </trkpt>
      <trkpt lat="49.81668" lon="4.76292">
        <ele>211</ele>
        <time>2021-05-15T08:16:44.000Z</time>
      </trkpt>
      <trkpt lat="49.81671" lon="4.76301">
        <ele>210</ele>
        <time>2021-05-15T08:16:45.000Z</time>
      </trkpt>
      <trkpt lat="49.81674" lon="4.7631">
        <ele>210</ele>
        <time>2021-05-15T08:16:46.000Z</time>
      </trkpt>
      <trkpt lat="49.81677" lon="4.7632">
        <ele>210</ele>
        <time>2021-05-15T08:16:47.000Z</time>
      </trkpt>
      <trkpt lat="49.81679" lon="4.76329">
        <ele>210</ele>
        <time>2021-05-15T08:16:48.000Z</time>
      </trkpt>
      <trkpt lat="49.81682" lon="4.76338">
        <ele>209</ele>
        <time>2021-05-15T08:16:49.000Z</time>
      </trkpt>
      <trkpt lat="49.81685" lon="4.76348">
        <ele>209</ele>
        <time>2021-05-15T08:16:50.000Z</time>
      </trkpt>
      <trkpt lat="49.81687" lon="4.76358">
        <ele>209</ele>
        <time>2021-05-15T08:16:51.000Z</time>
      </trkpt>
      <trkpt lat="49.81689" lon="4.76369">
        <ele>208</ele>
        <time>2021-05-15T08:16:52.000Z</time>
      </trkpt>
      <trkpt lat="49.81691" lon="4.76379">
        <ele>208</ele>
        <time>2021-05-15T08:16:53.000Z</time>
      </trkpt>
      <trkpt lat="49.81694" lon="4.7639">
        <ele>207</ele>
        <time>2021-05-15T08:16:54.000Z</time>
      </trkpt>
      <trkpt lat="49.81696" lon="4.764">
        <ele>207</ele>
        <time>2021-05-15T08:16:55.000Z</time>
      </trkpt>
      <trkpt lat="49.81698" lon="4.76411">
        <ele>206</ele>
        <time>2021-05-15T08:16:56.000Z</time>
      </trkpt>
      <trkpt lat="49.81701" lon="4.76422">
        <ele>206</ele>
        <time>2021-05-15T08:16:57.000Z</time>
      </trkpt>
      <trkpt lat="49.81704" lon="4.76432">
        <ele>205</ele>
        <time>2021-05-15T08:16:58.000Z</time>
      </trkpt>
      <trkpt lat="49.81707" lon="4.76443">
        <ele>205</ele>
        <time>2021-05-15T08:16:59.000Z</time>
      </trkpt>
      <trkpt lat="49.81711" lon="4.76454">
        <ele>204</ele>
        <time>2021-05-15T08:17:00.000Z</time>
      </trkpt>
      <trkpt lat="49.81713" lon="4.76464">
        <ele>204</ele>
        <time>2021-05-15T08:17:01.000Z</time>
      </trkpt>
      <trkpt lat="49.81716" lon="4.76474">
        <ele>203</ele>
        <time>2021-05-15T08:17:02.000Z</time>
      </trkpt>
      <trkpt lat="49.81719" lon="4.76483">
        <ele>202</ele>
        <time>2021-05-15T08:17:03.000Z</time>
      </trkpt>
      <trkpt lat="49.81721" lon="4.76494">
        <ele>202</ele>
        <time>2021-05-15T08:17:04.000Z</time>
      </trkpt>
      <trkpt lat="49.81723" lon="4.76504">
        <ele>201</ele>
        <time>2021-05-15T08:17:05.000Z</time>
      </trkpt>
      <trkpt lat="49.81725" lon="4.76514">
        <ele>201</ele>
        <time>2021-05-15T08:17:06.000Z</time>
      </trkpt>
      <trkpt lat="49.81728" lon="4.76525">
        <ele>200</ele>
        <time>2021-05-15T08:17:07.000Z</time>
      </trkpt>
      <trkpt lat="49.8173" lon="4.76535">
        <ele>199</ele>
        <time>2021-05-15T08:17:08.000Z</time>
      </trkpt>
      <trkpt lat="49.81732" lon="4.76544">
        <ele>199</ele>
        <time>2021-05-15T08:17:09.000Z</time>
      </trkpt>
      <trkpt lat="49.81733" lon="4.76552">
        <ele>198</ele>
        <time>2021-05-15T08:17:10.000Z</time>
      </trkpt>
      <trkpt lat="49.81734" lon="4.7656">
        <ele>197</ele>
        <time>2021-05-15T08:17:11.000Z</time>
      </trkpt>
      <trkpt lat="49.81735" lon="4.76569">
        <ele>197</ele>
        <time>2021-05-15T08:17:12.000Z</time>
      </trkpt>
      <trkpt lat="49.81736" lon="4.76578">
        <ele>196</ele>
        <time>2021-05-15T08:17:13.000Z</time>
      </trkpt>
      <trkpt lat="49.81736" lon="4.76587">
        <ele>195</ele>
        <time>2021-05-15T08:17:14.000Z</time>
      </trkpt>
      <trkpt lat="49.81736" lon="4.76597">
        <ele>195</ele>
        <time>2021-05-15T08:17:15.000Z</time>
      </trkpt>
      <trkpt lat="49.81736" lon="4.76606">
        <ele>194</ele>
        <time>2021-05-15T08:17:16.000Z</time>
      </trkpt>
      <trkpt lat="49.81735" lon="4.76615">
        <ele>194</ele>
        <time>2021-05-15T08:17:17.000Z</time>
      </trkpt>
      <trkpt lat="49.81734" lon="4.76624">
        <ele>194</ele>
        <time>2021-05-15T08:17:18.000Z</time>
      </trkpt>
      <trkpt lat="49.81732" lon="4.76633">
        <ele>193</ele>
        <time>2021-05-15T08:17:19.000Z</time>
      </trkpt>
      <trkpt lat="49.8173" lon="4.7664">
        <ele>193</ele>
        <time>2021-05-15T08:17:20.000Z</time>
      </trkpt>
      <trkpt lat="49.81729" lon="4.76648">
        <ele>192</ele>
        <time>2021-05-15T08:17:21.000Z</time>
      </trkpt>
      <trkpt lat="49.81726" lon="4.76655">
        <ele>192</ele>
        <time>2021-05-15T08:17:22.000Z</time>
      </trkpt>
      <trkpt lat="49.81724" lon="4.76662">
        <ele>192</ele>
        <time>2021-05-15T08:17:23.000Z</time>
      </trkpt>
      <trkpt lat="49.81721" lon="4.76669">
        <ele>192</ele>
        <time>2021-05-15T08:17:24.000Z</time>
      </trkpt>
      <trkpt lat="49.81719" lon="4.76676">
        <ele>192</ele>
        <time>2021-05-15T08:17:25.000Z</time>
      </trkpt>
      <trkpt lat="49.81716" lon="4.76682">
        <ele>192</ele>
        <time>2021-05-15T08:17:26.000Z</time>
      </trkpt>
      <trkpt lat="49.81714" lon="4.76689">
        <ele>191</ele>
        <time>2021-05-15T08:17:27.000Z</time>
      </trkpt>
      <trkpt lat="49.81712" lon="4.76696">
        <ele>192</ele>
        <time>2021-05-15T08:17:28.000Z</time>
      </trkpt>
      <trkpt lat="49.81709" lon="4.76703">
        <ele>192</ele>
        <time>2021-05-15T08:17:29.000Z</time>
      </trkpt>
      <trkpt lat="49.81707" lon="4.7671">
        <ele>192</ele>
        <time>2021-05-15T08:17:30.000Z</time>
      </trkpt>
      <trkpt lat="49.81705" lon="4.76717">
        <ele>192</ele>
        <time>2021-05-15T08:17:31.000Z</time>
      </trkpt>
      <trkpt lat="49.81703" lon="4.76723">
        <ele>192</ele>
        <time>2021-05-15T08:17:32.000Z</time>
      </trkpt>
      <trkpt lat="49.81701" lon="4.76728">
        <ele>192</ele>
        <time>2021-05-15T08:17:33.000Z</time>
      </trkpt>
      <trkpt lat="49.81699" lon="4.76734">
        <ele>192</ele>
        <time>2021-05-15T08:17:34.000Z</time>
      </trkpt>
      <trkpt lat="49.81697" lon="4.7674">
        <ele>192</ele>
        <time>2021-05-15T08:17:35.000Z</time>
      </trkpt>
      <trkpt lat="49.81694" lon="4.76747">
        <ele>192</ele>
        <time>2021-05-15T08:17:36.000Z</time>
      </trkpt>
      <trkpt lat="49.81693" lon="4.76754">
        <ele>192</ele>
        <time>2021-05-15T08:17:37.000Z</time>
      </trkpt>
      <trkpt lat="49.81691" lon="4.76761">
        <ele>192</ele>
        <time>2021-05-15T08:17:38.000Z</time>
      </trkpt>
      <trkpt lat="49.81688" lon="4.76767">
        <ele>192</ele>
        <time>2021-05-15T08:17:39.000Z</time>
      </trkpt>
      <trkpt lat="49.81685" lon="4.76774">
        <ele>192</ele>
        <time>2021-05-15T08:17:40.000Z</time>
      </trkpt>
      <trkpt lat="49.81683" lon="4.76781">
        <ele>192</ele>
        <time>2021-05-15T08:17:41.000Z</time>
      </trkpt>
      <trkpt lat="49.8168" lon="4.76789">
        <ele>192</ele>
        <time>2021-05-15T08:17:42.000Z</time>
      </trkpt>
      <trkpt lat="49.81678" lon="4.76797">
        <ele>192</ele>
        <time>2021-05-15T08:17:43.000Z</time>
      </trkpt>
      <trkpt lat="49.81677" lon="4.76804">
        <ele>192</ele>
        <time>2021-05-15T08:17:44.000Z</time>
      </trkpt>
      <trkpt lat="49.81675" lon="4.76811">
        <ele>192</ele>
        <time>2021-05-15T08:17:45.000Z</time>
      </trkpt>
      <trkpt lat="49.81673" lon="4.76817">
        <ele>192</ele>
        <time>2021-05-15T08:17:46.000Z</time>
      </trkpt>
      <trkpt lat="49.81671" lon="4.76824">
        <ele>192</ele>
        <time>2021-05-15T08:17:47.000Z</time>
      </trkpt>
      <trkpt lat="49.81668" lon="4.76831">
        <ele>192</ele>
        <time>2021-05-15T08:17:48.000Z</time>
      </trkpt>
      <trkpt lat="49.81667" lon="4.76838">
        <ele>192</ele>
        <time>2021-05-15T08:17:49.000Z</time>
      </trkpt>
      <trkpt lat="49.81664" lon="4.76845">
        <ele>192</ele>
        <time>2021-05-15T08:17:50.000Z</time>
      </trkpt>
      <trkpt lat="49.81663" lon="4.76851">
        <ele>192</ele>
        <time>2021-05-15T08:17:51.000Z</time>
      </trkpt>
      <trkpt lat="49.81661" lon="4.76856">
        <ele>192</ele>
        <time>2021-05-15T08:17:52.000Z</time>
      </trkpt>
      <trkpt lat="49.81659" lon="4.76862">
        <ele>192</ele>
        <time>2021-05-15T08:17:53.000Z</time>
      </trkpt>
      <trkpt lat="49.81658" lon="4.76869">
        <ele>192</ele>
        <time>2021-05-15T08:17:54.000Z</time>
      </trkpt>
      <trkpt lat="49.81656" lon="4.76876">
        <ele>192</ele>
        <time>2021-05-15T08:17:55.000Z</time>
      </trkpt>
      <trkpt lat="49.81655" lon="4.76884">
        <ele>192</ele>
        <time>2021-05-15T08:17:56.000Z</time>
      </trkpt>
      <trkpt lat="49.81654" lon="4.76892">
        <ele>192</ele>
        <time>2021-05-15T08:17:57.000Z</time>
      </trkpt>
      <trkpt lat="49.81652" lon="4.769">
        <ele>192</ele>
        <time>2021-05-15T08:17:58.000Z</time>
      </trkpt>
      <trkpt lat="49.81651" lon="4.76908">
        <ele>192</ele>
        <time>2021-05-15T08:17:59.000Z</time>
      </trkpt>
      <trkpt lat="49.8165" lon="4.76917">
        <ele>192</ele>
        <time>2021-05-15T08:18:00.000Z</time>
      </trkpt>
      <trkpt lat="49.81649" lon="4.76926">
        <ele>192</ele>
        <time>2021-05-15T08:18:01.000Z</time>
      </trkpt>
      <trkpt lat="49.81648" lon="4.76933">
        <ele>192</ele>
        <time>2021-05-15T08:18:02.000Z</time>
      </trkpt>
      <trkpt lat="49.81648" lon="4.7694">
        <ele>193</ele>
        <time>2021-05-15T08:18:03.000Z</time>
      </trkpt>
      <trkpt lat="49.81648" lon="4.76945">
        <ele>193</ele>
        <time>2021-05-15T08:18:04.000Z</time>
      </trkpt>
      <trkpt lat="49.81648" lon="4.76952">
        <ele>193</ele>
        <time>2021-05-15T08:18:05.000Z</time>
      </trkpt>
      <trkpt lat="49.81648" lon="4.76958">
        <ele>193</ele>
        <time>2021-05-15T08:18:06.000Z</time>
      </trkpt>
      <trkpt lat="49.81647" lon="4.76965">
        <ele>192</ele>
        <time>2021-05-15T08:18:07.000Z</time>
      </trkpt>
      <trkpt lat="49.81646" lon="4.76972">
        <ele>192</ele>
        <time>2021-05-15T08:18:08.000Z</time>
      </trkpt>
      <trkpt lat="49.81645" lon="4.7698">
        <ele>192</ele>
        <time>2021-05-15T08:18:09.000Z</time>
      </trkpt>
      <trkpt lat="49.81644" lon="4.76987">
        <ele>192</ele>
        <time>2021-05-15T08:18:10.000Z</time>
      </trkpt>
      <trkpt lat="49.81643" lon="4.76993">
        <ele>192</ele>
        <time>2021-05-15T08:18:11.000Z</time>
      </trkpt>
      <trkpt lat="49.81643" lon="4.77">
        <ele>193</ele>
        <time>2021-05-15T08:18:12.000Z</time>
      </trkpt>
      <trkpt lat="49.81642" lon="4.77007">
        <ele>193</ele>
        <time>2021-05-15T08:18:13.000Z</time>
      </trkpt>
      <trkpt lat="49.81641" lon="4.77014">
        <ele>193</ele>
        <time>2021-05-15T08:18:14.000Z</time>
      </trkpt>
      <trkpt lat="49.8164" lon="4.7702">
        <ele>193</ele>
        <time>2021-05-15T08:18:15.000Z</time>
      </trkpt>
      <trkpt lat="49.81639" lon="4.77026">
        <ele>193</ele>
        <time>2021-05-15T08:18:16.000Z</time>
      </trkpt>
      <trkpt lat="49.81639" lon="4.77033">
        <ele>193</ele>
        <time>2021-05-15T08:18:17.000Z</time>
      </trkpt>
      <trkpt lat="49.81638" lon="4.7704">
        <ele>193</ele>
        <time>2021-05-15T08:18:18.000Z</time>
      </trkpt>
      <trkpt lat="49.81637" lon="4.77048">
        <ele>193</ele>
        <time>2021-05-15T08:18:19.000Z</time>
      </trkpt>
      <trkpt lat="49.81636" lon="4.77057">
        <ele>192</ele>
        <time>2021-05-15T08:18:20.000Z</time>
      </trkpt>
      <trkpt lat="49.81634" lon="4.77068">
        <ele>192</ele>
        <time>2021-05-15T08:18:21.000Z</time>
      </trkpt>
      <trkpt lat="49.81633" lon="4.77079">
        <ele>192</ele>
        <time>2021-05-15T08:18:22.000Z</time>
      </trkpt>
      <trkpt lat="49.81631" lon="4.7709">
        <ele>192</ele>
        <time>2021-05-15T08:18:23.000Z</time>
      </trkpt>
      <trkpt lat="49.81629" lon="4.77101">
        <ele>192</ele>
        <time>2021-05-15T08:18:24.000Z</time>
      </trkpt>
      <trkpt lat="49.81628" lon="4.77112">
        <ele>192</ele>
        <time>2021-05-15T08:18:25.000Z</time>
      </trkpt>
      <trkpt lat="49.81626" lon="4.77122">
        <ele>192</ele>
        <time>2021-05-15T08:18:26.000Z</time>
      </trkpt>
      <trkpt lat="49.81625" lon="4.77132">
        <ele>191</ele>
        <time>2021-05-15T08:18:27.000Z</time>
      </trkpt>
      <trkpt lat="49.81624" lon="4.77142">
        <ele>191</ele>
        <time>2021-05-15T08:18:28.000Z</time>
      </trkpt>
      <trkpt lat="49.81622" lon="4.77152">
        <ele>191</ele>
        <time>2021-05-15T08:18:29.000Z</time>
      </trkpt>
      <trkpt lat="49.81621" lon="4.77161">
        <ele>191</ele>
        <time>2021-05-15T08:18:30.000Z</time>
      </trkpt>
      <trkpt lat="49.81619" lon="4.77171">
        <ele>191</ele>
        <time>2021-05-15T08:18:31.000Z</time>
      </trkpt>
      <trkpt lat="49.81617" lon="4.7718">
        <ele>190</ele>
        <time>2021-05-15T08:18:32.000Z</time>
      </trkpt>
      <trkpt lat="49.81615" lon="4.77189">
        <ele>190</ele>
        <time>2021-05-15T08:18:33.000Z</time>
      </trkpt>
      <trkpt lat="49.81613" lon="4.77198">
        <ele>190</ele>
        <time>2021-05-15T08:18:34.000Z</time>
      </trkpt>
      <trkpt lat="49.81612" lon="4.77206">
        <ele>190</ele>
        <time>2021-05-15T08:18:35.000Z</time>
      </trkpt>
      <trkpt lat="49.8161" lon="4.77213">
        <ele>190</ele>
        <time>2021-05-15T08:18:36.000Z</time>
      </trkpt>
      <trkpt lat="49.81608" lon="4.77219">
        <ele>190</ele>
        <time>2021-05-15T08:18:37.000Z</time>
      </trkpt>
      <trkpt lat="49.81606" lon="4.77224">
        <ele>190</ele>
        <time>2021-05-15T08:18:38.000Z</time>
      </trkpt>
      <trkpt lat="49.81605" lon="4.7723">
        <ele>190</ele>
        <time>2021-05-15T08:18:39.000Z</time>
      </trkpt>
      <trkpt lat="49.81603" lon="4.77236">
        <ele>190</ele>
        <time>2021-05-15T08:18:40.000Z</time>
      </trkpt>
      <trkpt lat="49.81602" lon="4.77241">
        <ele>190</ele>
        <time>2021-05-15T08:18:41.000Z</time>
      </trkpt>
      <trkpt lat="49.81602" lon="4.77246">
        <ele>190</ele>
        <time>2021-05-15T08:18:42.000Z</time>
      </trkpt>
      <trkpt lat="49.81601" lon="4.77251">
        <ele>190</ele>
        <time>2021-05-15T08:18:43.000Z</time>
      </trkpt>
      <trkpt lat="49.816" lon="4.77256">
        <ele>190</ele>
        <time>2021-05-15T08:18:44.000Z</time>
      </trkpt>
      <trkpt lat="49.81599" lon="4.77262">
        <ele>190</ele>
        <time>2021-05-15T08:18:45.000Z</time>
      </trkpt>
      <trkpt lat="49.81598" lon="4.77269">
        <ele>190</ele>
        <time>2021-05-15T08:18:46.000Z</time>
      </trkpt>
      <trkpt lat="49.81597" lon="4.77275">
        <ele>189</ele>
        <time>2021-05-15T08:18:47.000Z</time>
      </trkpt>
      <trkpt lat="49.81595" lon="4.77282">
        <ele>189</ele>
        <time>2021-05-15T08:18:48.000Z</time>
      </trkpt>
      <trkpt lat="49.81594" lon="4.77288">
        <ele>189</ele>
        <time>2021-05-15T08:18:49.000Z</time>
      </trkpt>
      <trkpt lat="49.81592" lon="4.77294">
        <ele>189</ele>
        <time>2021-05-15T08:18:50.000Z</time>
      </trkpt>
      <trkpt lat="49.81591" lon="4.77299">
        <ele>189</ele>
        <time>2021-05-15T08:18:51.000Z</time>
      </trkpt>
      <trkpt lat="49.81589" lon="4.77303">
        <ele>189</ele>
        <time>2021-05-15T08:18:52.000Z</time>
      </trkpt>
      <trkpt lat="49.81588" lon="4.77306">
        <ele>189</ele>
        <time>2021-05-15T08:18:53.000Z</time>
      </trkpt>
      <trkpt lat="49.81586" lon="4.7731">
        <ele>189</ele>
        <time>2021-05-15T08:18:54.000Z</time>
      </trkpt>
      <trkpt lat="49.81584" lon="4.77313">
        <ele>190</ele>
        <time>2021-05-15T08:18:55.000Z</time>
      </trkpt>
      <trkpt lat="49.81582" lon="4.77316">
        <ele>190</ele>
        <time>2021-05-15T08:18:56.000Z</time>
      </trkpt>
      <trkpt lat="49.8158" lon="4.7732">
        <ele>190</ele>
        <time>2021-05-15T08:18:57.000Z</time>
      </trkpt>
      <trkpt lat="49.81578" lon="4.77323">
        <ele>190</ele>
        <time>2021-05-15T08:18:58.000Z</time>
      </trkpt>
      <trkpt lat="49.81575" lon="4.77326">
        <ele>190</ele>
        <time>2021-05-15T08:18:59.000Z</time>
      </trkpt>
      <trkpt lat="49.81573" lon="4.77329">
        <ele>190</ele>
        <time>2021-05-15T08:19:00.000Z</time>
      </trkpt>
      <trkpt lat="49.81571" lon="4.77332">
        <ele>190</ele>
        <time>2021-05-15T08:19:01.000Z</time>
      </trkpt>
      <trkpt lat="49.81569" lon="4.77335">
        <ele>190</ele>
        <time>2021-05-15T08:19:02.000Z</time>
      </trkpt>
      <trkpt lat="49.81568" lon="4.77339">
        <ele>190</ele>
        <time>2021-05-15T08:19:03.000Z</time>
      </trkpt>
      <trkpt lat="49.81567" lon="4.77342">
        <ele>190</ele>
        <time>2021-05-15T08:19:04.000Z</time>
      </trkpt>
      <trkpt lat="49.81565" lon="4.77345">
        <ele>190</ele>
        <time>2021-05-15T08:19:05.000Z</time>
      </trkpt>
      <trkpt lat="49.81564" lon="4.77348">
        <ele>190</ele>
        <time>2021-05-15T08:19:06.000Z</time>
      </trkpt>
      <trkpt lat="49.81562" lon="4.77352">
        <ele>190</ele>
        <time>2021-05-15T08:19:07.000Z</time>
      </trkpt>
      <trkpt lat="49.8156" lon="4.77355">
        <ele>190</ele>
        <time>2021-05-15T08:19:08.000Z</time>
      </trkpt>
      <trkpt lat="49.81559" lon="4.77357">
        <ele>190</ele>
        <time>2021-05-15T08:19:09.000Z</time>
      </trkpt>
      <trkpt lat="49.81558" lon="4.7736">
        <ele>190</ele>
        <time>2021-05-15T08:19:10.000Z</time>
      </trkpt>
      <trkpt lat="49.81557" lon="4.77363">
        <ele>191</ele>
        <time>2021-05-15T08:19:11.000Z</time>
      </trkpt>
      <trkpt lat="49.81556" lon="4.77365">
        <ele>191</ele>
        <time>2021-05-15T08:19:12.000Z</time>
      </trkpt>
      <trkpt lat="49.81554" lon="4.77368">
        <ele>191</ele>
        <time>2021-05-15T08:19:13.000Z</time>
      </trkpt>
      <trkpt lat="49.81553" lon="4.7737">
        <ele>191</ele>
        <time>2021-05-15T08:19:14.000Z</time>
      </trkpt>
      <trkpt lat="49.81551" lon="4.77371">
        <ele>192</ele>
        <time>2021-05-15T08:19:15.000Z</time>
      </trkpt>
      <trkpt lat="49.8155" lon="4.77374">
        <ele>192</ele>
        <time>2021-05-15T08:19:16.000Z</time>
      </trkpt>
      <trkpt lat="49.81549" lon="4.77376">
        <ele>192</ele>
        <time>2021-05-15T08:19:17.000Z</time>
      </trkpt>
      <trkpt lat="49.81548" lon="4.77378">
        <ele>193</ele>
        <time>2021-05-15T08:19:18.000Z</time>
      </trkpt>
      <trkpt lat="49.81546" lon="4.7738">
        <ele>193</ele>
        <time>2021-05-15T08:19:19.000Z</time>
      </trkpt>
      <trkpt lat="49.81544" lon="4.77382">
        <ele>194</ele>
        <time>2021-05-15T08:19:20.000Z</time>
      </trkpt>
      <trkpt lat="49.81542" lon="4.77384">
        <ele>194</ele>
        <time>2021-05-15T08:19:21.000Z</time>
      </trkpt>
      <trkpt lat="49.8154" lon="4.77386">
        <ele>194</ele>
        <time>2021-05-15T08:19:22.000Z</time>
      </trkpt>
      <trkpt lat="49.81538" lon="4.77388">
        <ele>195</ele>
        <time>2021-05-15T08:19:23.000Z</time>
      </trkpt>
      <trkpt lat="49.81536" lon="4.77391">
        <ele>195</ele>
        <time>2021-05-15T08:19:24.000Z</time>
      </trkpt>
      <trkpt lat="49.81534" lon="4.77393">
        <ele>195</ele>
        <time>2021-05-15T08:19:25.000Z</time>
      </trkpt>
      <trkpt lat="49.81531" lon="4.77396">
        <ele>196</ele>
        <time>2021-05-15T08:19:26.000Z</time>
      </trkpt>
      <trkpt lat="49.81529" lon="4.77399">
        <ele>196</ele>
        <time>2021-05-15T08:19:27.000Z</time>
      </trkpt>
      <trkpt lat="49.81527" lon="4.77401">
        <ele>196</ele>
        <time>2021-05-15T08:19:28.000Z</time>
      </trkpt>
      <trkpt lat="49.81525" lon="4.77404">
        <ele>197</ele>
        <time>2021-05-15T08:19:29.000Z</time>
      </trkpt>
      <trkpt lat="49.81524" lon="4.77407">
        <ele>197</ele>
        <time>2021-05-15T08:19:30.000Z</time>
      </trkpt>
      <trkpt lat="49.81522" lon="4.77409">
        <ele>198</ele>
        <time>2021-05-15T08:19:31.000Z</time>
      </trkpt>
      <trkpt lat="49.81521" lon="4.77412">
        <ele>198</ele>
        <time>2021-05-15T08:19:32.000Z</time>
      </trkpt>
      <trkpt lat="49.81519" lon="4.77415">
        <ele>199</ele>
        <time>2021-05-15T08:19:33.000Z</time>
      </trkpt>
      <trkpt lat="49.81518" lon="4.77418">
        <ele>199</ele>
        <time>2021-05-15T08:19:34.000Z</time>
      </trkpt>
      <trkpt lat="49.81517" lon="4.77421">
        <ele>199</ele>
        <time>2021-05-15T08:19:35.000Z</time>
      </trkpt>
      <trkpt lat="49.81516" lon="4.77424">
        <ele>200</ele>
        <time>2021-05-15T08:19:36.000Z</time>
      </trkpt>
      <trkpt lat="49.81514" lon="4.77427">
        <ele>200</ele>
        <time>2021-05-15T08:19:37.000Z</time>
      </trkpt>
      <trkpt lat="49.81513" lon="4.7743">
        <ele>200</ele>
        <time>2021-05-15T08:19:38.000Z</time>
      </trkpt>
      <trkpt lat="49.81511" lon="4.77433">
        <ele>200</ele>
        <time>2021-05-15T08:19:39.000Z</time>
      </trkpt>
      <trkpt lat="49.8151" lon="4.77437">
        <ele>200</ele>
        <time>2021-05-15T08:19:40.000Z</time>
      </trkpt>
      <trkpt lat="49.81509" lon="4.77441">
        <ele>201</ele>
        <time>2021-05-15T08:19:41.000Z</time>
      </trkpt>
      <trkpt lat="49.81508" lon="4.77444">
        <ele>201</ele>
        <time>2021-05-15T08:19:42.000Z</time>
      </trkpt>
      <trkpt lat="49.81507" lon="4.77449">
        <ele>201</ele>
        <time>2021-05-15T08:19:43.000Z</time>
      </trkpt>
      <trkpt lat="49.81505" lon="4.77453">
        <ele>201</ele>
        <time>2021-05-15T08:19:44.000Z</time>
      </trkpt>
      <trkpt lat="49.81503" lon="4.77458">
        <ele>201</ele>
        <time>2021-05-15T08:19:45.000Z</time>
      </trkpt>
      <trkpt lat="49.81501" lon="4.77462">
        <ele>201</ele>
        <time>2021-05-15T08:19:46.000Z</time>
      </trkpt>
      <trkpt lat="49.815" lon="4.77466">
        <ele>201</ele>
        <time>2021-05-15T08:19:47.000Z</time>
      </trkpt>
      <trkpt lat="49.81498" lon="4.77471">
        <ele>201</ele>
        <time>2021-05-15T08:19:48.000Z</time>
      </trkpt>
      <trkpt lat="49.81497" lon="4.77474">
        <ele>202</ele>
        <time>2021-05-15T08:19:49.000Z</time>
      </trkpt>
      <trkpt lat="49.81496" lon="4.77478">
        <ele>202</ele>
        <time>2021-05-15T08:19:50.000Z</time>
      </trkpt>
      <trkpt lat="49.81494" lon="4.77482">
        <ele>202</ele>
        <time>2021-05-15T08:19:51.000Z</time>
      </trkpt>
      <trkpt lat="49.81492" lon="4.77486">
        <ele>202</ele>
        <time>2021-05-15T08:19:52.000Z</time>
      </trkpt>
      <trkpt lat="49.8149" lon="4.77491">
        <ele>202</ele>
        <time>2021-05-15T08:19:53.000Z</time>
      </trkpt>
      <trkpt lat="49.81488" lon="4.77496">
        <ele>203</ele>
        <time>2021-05-15T08:19:54.000Z</time>
      </trkpt>
      <trkpt lat="49.81486" lon="4.77501">
        <ele>203</ele>
        <time>2021-05-15T08:19:55.000Z</time>
      </trkpt>
      <trkpt lat="49.81484" lon="4.77506">
        <ele>203</ele>
        <time>2021-05-15T08:19:56.000Z</time>
      </trkpt>
      <trkpt lat="49.81481" lon="4.77512">
        <ele>203</ele>
        <time>2021-05-15T08:19:57.000Z</time>
      </trkpt>
      <trkpt lat="49.81479" lon="4.77517">
        <ele>204</ele>
        <time>2021-05-15T08:19:58.000Z</time>
      </trkpt>
      <trkpt lat="49.81477" lon="4.77522">
        <ele>204</ele>
        <time>2021-05-15T08:19:59.000Z</time>
      </trkpt>
      <trkpt lat="49.81475" lon="4.77527">
        <ele>204</ele>
        <time>2021-05-15T08:20:00.000Z</time>
      </trkpt>
      <trkpt lat="49.81473" lon="4.77532">
        <ele>205</ele>
        <time>2021-05-15T08:20:01.000Z</time>
      </trkpt>
      <trkpt lat="49.8147" lon="4.77537">
        <ele>205</ele>
        <time>2021-05-15T08:20:02.000Z</time>
      </trkpt>
      <trkpt lat="49.81468" lon="4.77543">
        <ele>205</ele>
        <time>2021-05-15T08:20:03.000Z</time>
      </trkpt>
      <trkpt lat="49.81466" lon="4.77549">
        <ele>205</ele>
        <time>2021-05-15T08:20:04.000Z</time>
      </trkpt>
      <trkpt lat="49.81463" lon="4.77555">
        <ele>206</ele>
        <time>2021-05-15T08:20:05.000Z</time>
      </trkpt>
      <trkpt lat="49.81461" lon="4.7756">
        <ele>206</ele>
        <time>2021-05-15T08:20:06.000Z</time>
      </trkpt>
      <trkpt lat="49.81458" lon="4.77567">
        <ele>206</ele>
        <time>2021-05-15T08:20:07.000Z</time>
      </trkpt>
      <trkpt lat="49.81455" lon="4.77572">
        <ele>206</ele>
        <time>2021-05-15T08:20:08.000Z</time>
      </trkpt>
      <trkpt lat="49.81453" lon="4.77579">
        <ele>207</ele>
        <time>2021-05-15T08:20:09.000Z</time>
      </trkpt>
      <trkpt lat="49.8145" lon="4.77584">
        <ele>207</ele>
        <time>2021-05-15T08:20:10.000Z</time>
      </trkpt>
      <trkpt lat="49.81448" lon="4.7759">
        <ele>207</ele>
        <time>2021-05-15T08:20:11.000Z</time>
      </trkpt>
      <trkpt lat="49.81445" lon="4.77596">
        <ele>207</ele>
        <time>2021-05-15T08:20:12.000Z</time>
      </trkpt>
      <trkpt lat="49.81442" lon="4.77602">
        <ele>207</ele>
        <time>2021-05-15T08:20:13.000Z</time>
      </trkpt>
      <trkpt lat="49.8144" lon="4.77608">
        <ele>208</ele>
        <time>2021-05-15T08:20:14.000Z</time>
      </trkpt>
      <trkpt lat="49.81437" lon="4.77614">
        <ele>208</ele>
        <time>2021-05-15T08:20:15.000Z</time>
      </trkpt>
      <trkpt lat="49.81434" lon="4.7762">
        <ele>208</ele>
        <time>2021-05-15T08:20:16.000Z</time>
      </trkpt>
      <trkpt lat="49.81432" lon="4.77625">
        <ele>208</ele>
        <time>2021-05-15T08:20:17.000Z</time>
      </trkpt>
      <trkpt lat="49.81429" lon="4.77631">
        <ele>208</ele>
        <time>2021-05-15T08:20:18.000Z</time>
      </trkpt>
      <trkpt lat="49.81426" lon="4.77637">
        <ele>208</ele>
        <time>2021-05-15T08:20:19.000Z</time>
      </trkpt>
      <trkpt lat="49.81424" lon="4.77642">
        <ele>208</ele>
        <time>2021-05-15T08:20:20.000Z</time>
      </trkpt>
      <trkpt lat="49.81423" lon="4.77647">
        <ele>208</ele>
        <time>2021-05-15T08:20:21.000Z</time>
      </trkpt>
      <trkpt lat="49.81421" lon="4.77652">
        <ele>208</ele>
        <time>2021-05-15T08:20:22.000Z</time>
      </trkpt>
      <trkpt lat="49.81419" lon="4.77657">
        <ele>208</ele>
        <time>2021-05-15T08:20:23.000Z</time>
      </trkpt>
      <trkpt lat="49.81417" lon="4.77662">
        <ele>208</ele>
        <time>2021-05-15T08:20:24.000Z</time>
      </trkpt>
      <trkpt lat="49.81415" lon="4.77667">
        <ele>209</ele>
        <time>2021-05-15T08:20:25.000Z</time>
      </trkpt>
      <trkpt lat="49.81412" lon="4.77673">
        <ele>209</ele>
        <time>2021-05-15T08:20:26.000Z</time>
      </trkpt>
      <trkpt lat="49.8141" lon="4.77679">
        <ele>209</ele>
        <time>2021-05-15T08:20:27.000Z</time>
      </trkpt>
      <trkpt lat="49.81407" lon="4.77685">
        <ele>209</ele>
        <time>2021-05-15T08:20:28.000Z</time>
      </trkpt>
      <trkpt lat="49.81405" lon="4.7769">
        <ele>209</ele>
        <time>2021-05-15T08:20:29.000Z</time>
      </trkpt>
      <trkpt lat="49.81402" lon="4.77696">
        <ele>209</ele>
        <time>2021-05-15T08:20:30.000Z</time>
      </trkpt>
      <trkpt lat="49.814" lon="4.77701">
        <ele>209</ele>
        <time>2021-05-15T08:20:31.000Z</time>
      </trkpt>
      <trkpt lat="49.81398" lon="4.77707">
        <ele>209</ele>
        <time>2021-05-15T08:20:32.000Z</time>
      </trkpt>
      <trkpt lat="49.81395" lon="4.77712">
        <ele>209</ele>
        <time>2021-05-15T08:20:33.000Z</time>
      </trkpt>
      <trkpt lat="49.81393" lon="4.77717">
        <ele>209</ele>
        <time>2021-05-15T08:20:34.000Z</time>
      </trkpt>
      <trkpt lat="49.81391" lon="4.77722">
        <ele>209</ele>
        <time>2021-05-15T08:20:35.000Z</time>
      </trkpt>
      <trkpt lat="49.8139" lon="4.77728">
        <ele>209</ele>
        <time>2021-05-15T08:20:36.000Z</time>
      </trkpt>
      <trkpt lat="49.81388" lon="4.77733">
        <ele>209</ele>
        <time>2021-05-15T08:20:37.000Z</time>
      </trkpt>
      <trkpt lat="49.81385" lon="4.77739">
        <ele>209</ele>
        <time>2021-05-15T08:20:38.000Z</time>
      </trkpt>
      <trkpt lat="49.81383" lon="4.77744">
        <ele>209</ele>
        <time>2021-05-15T08:20:39.000Z</time>
      </trkpt>
      <trkpt lat="49.81381" lon="4.7775">
        <ele>209</ele>
        <time>2021-05-15T08:20:40.000Z</time>
      </trkpt>
      <trkpt lat="49.81379" lon="4.77755">
        <ele>209</ele>
        <time>2021-05-15T08:20:41.000Z</time>
      </trkpt>
      <trkpt lat="49.81377" lon="4.7776">
        <ele>209</ele>
        <time>2021-05-15T08:20:42.000Z</time>
      </trkpt>
      <trkpt lat="49.81375" lon="4.77765">
        <ele>209</ele>
        <time>2021-05-15T08:20:43.000Z</time>
      </trkpt>
      <trkpt lat="49.81372" lon="4.77771">
        <ele>209</ele>
        <time>2021-05-15T08:20:44.000Z</time>
      </trkpt>
      <trkpt lat="49.81369" lon="4.77775">
        <ele>209</ele>
        <time>2021-05-15T08:20:45.000Z</time>
      </trkpt>
      <trkpt lat="49.81367" lon="4.7778">
        <ele>209</ele>
        <time>2021-05-15T08:20:46.000Z</time>
      </trkpt>
      <trkpt lat="49.81364" lon="4.77785">
        <ele>209</ele>
        <time>2021-05-15T08:20:47.000Z</time>
      </trkpt>
      <trkpt lat="49.81361" lon="4.77789">
        <ele>209</ele>
        <time>2021-05-15T08:20:48.000Z</time>
      </trkpt>
      <trkpt lat="49.8136" lon="4.77792">
        <ele>209</ele>
        <time>2021-05-15T08:20:49.000Z</time>
      </trkpt>
      <trkpt lat="49.81358" lon="4.77797">
        <ele>210</ele>
        <time>2021-05-15T08:20:50.000Z</time>
      </trkpt>
      <trkpt lat="49.81357" lon="4.77802">
        <ele>210</ele>
        <time>2021-05-15T08:20:51.000Z</time>
      </trkpt>
      <trkpt lat="49.81356" lon="4.77808">
        <ele>210</ele>
        <time>2021-05-15T08:20:52.000Z</time>
      </trkpt>
      <trkpt lat="49.81354" lon="4.77815">
        <ele>210</ele>
        <time>2021-05-15T08:20:53.000Z</time>
      </trkpt>
      <trkpt lat="49.81352" lon="4.77821">
        <ele>210</ele>
        <time>2021-05-15T08:20:54.000Z</time>
      </trkpt>
      <trkpt lat="49.8135" lon="4.77827">
        <ele>210</ele>
        <time>2021-05-15T08:20:55.000Z</time>
      </trkpt>
      <trkpt lat="49.81347" lon="4.77834">
        <ele>210</ele>
        <time>2021-05-15T08:20:56.000Z</time>
      </trkpt>
      <trkpt lat="49.81345" lon="4.7784">
        <ele>210</ele>
        <time>2021-05-15T08:20:57.000Z</time>
      </trkpt>
      <trkpt lat="49.81344" lon="4.77845">
        <ele>211</ele>
        <time>2021-05-15T08:20:58.000Z</time>
      </trkpt>
      <trkpt lat="49.81342" lon="4.7785">
        <ele>211</ele>
        <time>2021-05-15T08:20:59.000Z</time>
      </trkpt>
      <trkpt lat="49.8134" lon="4.77856">
        <ele>211</ele>
        <time>2021-05-15T08:21:00.000Z</time>
      </trkpt>
      <trkpt lat="49.81339" lon="4.77862">
        <ele>211</ele>
        <time>2021-05-15T08:21:01.000Z</time>
      </trkpt>
      <trkpt lat="49.81337" lon="4.77868">
        <ele>211</ele>
        <time>2021-05-15T08:21:02.000Z</time>
      </trkpt>
      <trkpt lat="49.81335" lon="4.77875">
        <ele>211</ele>
        <time>2021-05-15T08:21:03.000Z</time>
      </trkpt>
      <trkpt lat="49.81333" lon="4.77881">
        <ele>211</ele>
        <time>2021-05-15T08:21:04.000Z</time>
      </trkpt>
      <trkpt lat="49.8133" lon="4.77887">
        <ele>211</ele>
        <time>2021-05-15T08:21:05.000Z</time>
      </trkpt>
      <trkpt lat="49.81328" lon="4.77893">
        <ele>211</ele>
        <time>2021-05-15T08:21:06.000Z</time>
      </trkpt>
      <trkpt lat="49.81326" lon="4.77898">
        <ele>211</ele>
        <time>2021-05-15T08:21:07.000Z</time>
      </trkpt>
      <trkpt lat="49.81324" lon="4.77904">
        <ele>211</ele>
        <time>2021-05-15T08:21:08.000Z</time>
      </trkpt>
      <trkpt lat="49.81322" lon="4.7791">
        <ele>211</ele>
        <time>2021-05-15T08:21:09.000Z</time>
      </trkpt>
      <trkpt lat="49.8132" lon="4.77916">
        <ele>211</ele>
        <time>2021-05-15T08:21:10.000Z</time>
      </trkpt>
      <trkpt lat="49.81319" lon="4.77922">
        <ele>211</ele>
        <time>2021-05-15T08:21:11.000Z</time>
      </trkpt>
      <trkpt lat="49.81317" lon="4.77928">
        <ele>211</ele>
        <time>2021-05-15T08:21:12.000Z</time>
      </trkpt>
      <trkpt lat="49.81315" lon="4.77935">
        <ele>211</ele>
        <time>2021-05-15T08:21:13.000Z</time>
      </trkpt>
      <trkpt lat="49.81314" lon="4.77941">
        <ele>211</ele>
        <time>2021-05-15T08:21:14.000Z</time>
      </trkpt>
      <trkpt lat="49.81313" lon="4.77948">
        <ele>211</ele>
        <time>2021-05-15T08:21:15.000Z</time>
      </trkpt>
      <trkpt lat="49.81312" lon="4.77955">
        <ele>211</ele>
        <time>2021-05-15T08:21:16.000Z</time>
      </trkpt>
      <trkpt lat="49.8131" lon="4.77962">
        <ele>211</ele>
        <time>2021-05-15T08:21:17.000Z</time>
      </trkpt>
      <trkpt lat="49.81309" lon="4.7797">
        <ele>211</ele>
        <time>2021-05-15T08:21:18.000Z</time>
      </trkpt>
      <trkpt lat="49.81308" lon="4.77979">
        <ele>211</ele>
        <time>2021-05-15T08:21:19.000Z</time>
      </trkpt>
      <trkpt lat="49.81306" lon="4.77989">
        <ele>210</ele>
        <time>2021-05-15T08:21:20.000Z</time>
      </trkpt>
      <trkpt lat="49.81304" lon="4.77998">
        <ele>210</ele>
        <time>2021-05-15T08:21:21.000Z</time>
      </trkpt>
      <trkpt lat="49.81301" lon="4.78008">
        <ele>210</ele>
        <time>2021-05-15T08:21:22.000Z</time>
      </trkpt>
      <trkpt lat="49.81298" lon="4.78016">
        <ele>210</ele>
        <time>2021-05-15T08:21:23.000Z</time>
      </trkpt>
      <trkpt lat="49.81296" lon="4.78025">
        <ele>210</ele>
        <time>2021-05-15T08:21:24.000Z</time>
      </trkpt>
      <trkpt lat="49.81294" lon="4.78033">
        <ele>210</ele>
        <time>2021-05-15T08:21:25.000Z</time>
      </trkpt>
      <trkpt lat="49.81292" lon="4.78041">
        <ele>210</ele>
        <time>2021-05-15T08:21:26.000Z</time>
      </trkpt>
      <trkpt lat="49.8129" lon="4.78049">
        <ele>209</ele>
        <time>2021-05-15T08:21:27.000Z</time>
      </trkpt>
      <trkpt lat="49.81288" lon="4.78058">
        <ele>209</ele>
        <time>2021-05-15T08:21:28.000Z</time>
      </trkpt>
      <trkpt lat="49.81286" lon="4.78066">
        <ele>209</ele>
        <time>2021-05-15T08:21:29.000Z</time>
      </trkpt>
      <trkpt lat="49.81284" lon="4.78074">
        <ele>209</ele>
        <time>2021-05-15T08:21:30.000Z</time>
      </trkpt>
      <trkpt lat="49.81283" lon="4.78082">
        <ele>209</ele>
        <time>2021-05-15T08:21:31.000Z</time>
      </trkpt>
      <trkpt lat="49.81282" lon="4.7809">
        <ele>208</ele>
        <time>2021-05-15T08:21:32.000Z</time>
      </trkpt>
      <trkpt lat="49.81282" lon="4.78099">
        <ele>208</ele>
        <time>2021-05-15T08:21:33.000Z</time>
      </trkpt>
      <trkpt lat="49.81281" lon="4.78107">
        <ele>208</ele>
        <time>2021-05-15T08:21:34.000Z</time>
      </trkpt>
      <trkpt lat="49.8128" lon="4.78115">
        <ele>207</ele>
        <time>2021-05-15T08:21:35.000Z</time>
      </trkpt>
      <trkpt lat="49.81279" lon="4.78121">
        <ele>207</ele>
        <time>2021-05-15T08:21:36.000Z</time>
      </trkpt>
      <trkpt lat="49.81277" lon="4.78126">
        <ele>207</ele>
        <time>2021-05-15T08:21:37.000Z</time>
      </trkpt>
      <trkpt lat="49.81275" lon="4.7813">
        <ele>207</ele>
        <time>2021-05-15T08:21:38.000Z</time>
      </trkpt>
      <trkpt lat="49.81273" lon="4.78133">
        <ele>207</ele>
        <time>2021-05-15T08:21:39.000Z</time>
      </trkpt>
      <trkpt lat="49.81271" lon="4.78136">
        <ele>207</ele>
        <time>2021-05-15T08:21:40.000Z</time>
      </trkpt>
      <trkpt lat="49.81269" lon="4.78137">
        <ele>206</ele>
        <time>2021-05-15T08:21:41.000Z</time>
      </trkpt>
      <trkpt lat="49.81268" lon="4.78138">
        <ele>206</ele>
        <time>2021-05-15T08:21:42.000Z</time>
      </trkpt>
      <trkpt lat="49.81267" lon="4.78139">
        <ele>206</ele>
        <time>2021-05-15T08:21:43.000Z</time>
      </trkpt>
      <trkpt lat="49.81265" lon="4.78141">
        <ele>207</ele>
        <time>2021-05-15T08:21:44.000Z</time>
      </trkpt>
      <trkpt lat="49.81264" lon="4.78142">
        <ele>207</ele>
        <time>2021-05-15T08:21:45.000Z</time>
      </trkpt>
      <trkpt lat="49.81263" lon="4.78144">
        <ele>207</ele>
        <time>2021-05-15T08:21:46.000Z</time>
      </trkpt>
      <trkpt lat="49.81261" lon="4.78146">
        <ele>207</ele>
        <time>2021-05-15T08:21:47.000Z</time>
      </trkpt>
      <trkpt lat="49.8126" lon="4.78148">
        <ele>207</ele>
        <time>2021-05-15T08:21:48.000Z</time>
      </trkpt>
      <trkpt lat="49.81258" lon="4.78149">
        <ele>207</ele>
        <time>2021-05-15T08:21:49.000Z</time>
      </trkpt>
      <trkpt lat="49.81256" lon="4.78152">
        <ele>207</ele>
        <time>2021-05-15T08:21:50.000Z</time>
      </trkpt>
      <trkpt lat="49.81255" lon="4.78154">
        <ele>208</ele>
        <time>2021-05-15T08:21:51.000Z</time>
      </trkpt>
      <trkpt lat="49.81253" lon="4.78155">
        <ele>208</ele>
        <time>2021-05-15T08:21:52.000Z</time>
      </trkpt>
      <trkpt lat="49.81251" lon="4.78157">
        <ele>208</ele>
        <time>2021-05-15T08:21:53.000Z</time>
      </trkpt>
      <trkpt lat="49.81249" lon="4.78159">
        <ele>208</ele>
        <time>2021-05-15T08:21:54.000Z</time>
      </trkpt>
      <trkpt lat="49.81248" lon="4.78161">
        <ele>209</ele>
        <time>2021-05-15T08:21:55.000Z</time>
      </trkpt>
      <trkpt lat="49.81247" lon="4.78163">
        <ele>209</ele>
        <time>2021-05-15T08:21:56.000Z</time>
      </trkpt>
      <trkpt lat="49.81245" lon="4.78165">
        <ele>209</ele>
        <time>2021-05-15T08:21:57.000Z</time>
      </trkpt>
      <trkpt lat="49.81243" lon="4.78168">
        <ele>209</ele>
        <time>2021-05-15T08:21:58.000Z</time>
      </trkpt>
      <trkpt lat="49.81242" lon="4.7817">
        <ele>209</ele>
        <time>2021-05-15T08:21:59.000Z</time>
      </trkpt>
      <trkpt lat="49.8124" lon="4.78173">
        <ele>209</ele>
        <time>2021-05-15T08:22:00.000Z</time>
      </trkpt>
      <trkpt lat="49.81238" lon="4.78176">
        <ele>210</ele>
        <time>2021-05-15T08:22:01.000Z</time>
      </trkpt>
      <trkpt lat="49.81236" lon="4.78179">
        <ele>210</ele>
        <time>2021-05-15T08:22:02.000Z</time>
      </trkpt>
      <trkpt lat="49.81235" lon="4.78182">
        <ele>210</ele>
        <time>2021-05-15T08:22:03.000Z</time>
      </trkpt>
      <trkpt lat="49.81234" lon="4.78184">
        <ele>210</ele>
        <time>2021-05-15T08:22:04.000Z</time>
      </trkpt>
      <trkpt lat="49.81233" lon="4.78186">
        <ele>210</ele>
        <time>2021-05-15T08:22:05.000Z</time>
      </trkpt>
      <trkpt lat="49.81232" lon="4.78189">
        <ele>211</ele>
        <time>2021-05-15T08:22:06.000Z</time>
      </trkpt>
      <trkpt lat="49.8123" lon="4.78193">
        <ele>211</ele>
        <time>2021-05-15T08:22:07.000Z</time>
      </trkpt>
      <trkpt lat="49.81228" lon="4.78196">
        <ele>211</ele>
        <time>2021-05-15T08:22:08.000Z</time>
      </trkpt>
      <trkpt lat="49.81226" lon="4.78199">
        <ele>211</ele>
        <time>2021-05-15T08:22:09.000Z</time>
      </trkpt>
      <trkpt lat="49.81224" lon="4.78202">
        <ele>211</ele>
        <time>2021-05-15T08:22:10.000Z</time>
      </trkpt>
      <trkpt lat="49.81222" lon="4.78205">
        <ele>212</ele>
        <time>2021-05-15T08:22:11.000Z</time>
      </trkpt>
      <trkpt lat="49.8122" lon="4.78209">
        <ele>212</ele>
        <time>2021-05-15T08:22:12.000Z</time>
      </trkpt>
      <trkpt lat="49.81218" lon="4.78212">
        <ele>212</ele>
        <time>2021-05-15T08:22:13.000Z</time>
      </trkpt>
      <trkpt lat="49.81216" lon="4.78216">
        <ele>212</ele>
        <time>2021-05-15T08:22:14.000Z</time>
      </trkpt>
      <trkpt lat="49.81214" lon="4.78218">
        <ele>212</ele>
        <time>2021-05-15T08:22:15.000Z</time>
      </trkpt>
      <trkpt lat="49.81214" lon="4.78221">
        <ele>212</ele>
        <time>2021-05-15T08:22:16.000Z</time>
      </trkpt>
      <trkpt lat="49.81213" lon="4.78224">
        <ele>213</ele>
        <time>2021-05-15T08:22:17.000Z</time>
      </trkpt>
      <trkpt lat="49.81213" lon="4.78228">
        <ele>213</ele>
        <time>2021-05-15T08:22:18.000Z</time>
      </trkpt>
      <trkpt lat="49.81212" lon="4.78232">
        <ele>213</ele>
        <time>2021-05-15T08:22:19.000Z</time>
      </trkpt>
      <trkpt lat="49.81212" lon="4.78236">
        <ele>213</ele>
        <time>2021-05-15T08:22:20.000Z</time>
      </trkpt>
      <trkpt lat="49.81212" lon="4.7824">
        <ele>213</ele>
        <time>2021-05-15T08:22:21.000Z</time>
      </trkpt>
      <trkpt lat="49.81213" lon="4.78244">
        <ele>213</ele>
        <time>2021-05-15T08:22:22.000Z</time>
      </trkpt>
      <trkpt lat="49.81213" lon="4.78248">
        <ele>213</ele>
        <time>2021-05-15T08:22:23.000Z</time>
      </trkpt>
      <trkpt lat="49.81213" lon="4.78252">
        <ele>213</ele>
        <time>2021-05-15T08:22:24.000Z</time>
      </trkpt>
      <trkpt lat="49.81213" lon="4.78255">
        <ele>213</ele>
        <time>2021-05-15T08:22:25.000Z</time>
      </trkpt>
      <trkpt lat="49.81213" lon="4.78259">
        <ele>213</ele>
        <time>2021-05-15T08:22:26.000Z</time>
      </trkpt>
      <trkpt lat="49.81214" lon="4.78261">
        <ele>213</ele>
        <time>2021-05-15T08:22:27.000Z</time>
      </trkpt>
      <trkpt lat="49.81215" lon="4.78264">
        <ele>214</ele>
        <time>2021-05-15T08:22:28.000Z</time>
      </trkpt>
      <trkpt lat="49.81216" lon="4.78267">
        <ele>213</ele>
        <time>2021-05-15T08:22:29.000Z</time>
      </trkpt>
      <trkpt lat="49.81218" lon="4.78272">
        <ele>213</ele>
        <time>2021-05-15T08:22:30.000Z</time>
      </trkpt>
      <trkpt lat="49.81221" lon="4.78276">
        <ele>213</ele>
        <time>2021-05-15T08:22:31.000Z</time>
      </trkpt>
      <trkpt lat="49.81223" lon="4.7828">
        <ele>213</ele>
        <time>2021-05-15T08:22:32.000Z</time>
      </trkpt>
      <trkpt lat="49.81225" lon="4.78285">
        <ele>213</ele>
        <time>2021-05-15T08:22:33.000Z</time>
      </trkpt>
      <trkpt lat="49.81227" lon="4.78291">
        <ele>213</ele>
        <time>2021-05-15T08:22:34.000Z</time>
      </trkpt>
      <trkpt lat="49.81228" lon="4.78296">
        <ele>213</ele>
        <time>2021-05-15T08:22:35.000Z</time>
      </trkpt>
      <trkpt lat="49.8123" lon="4.78303">
        <ele>213</ele>
        <time>2021-05-15T08:22:36.000Z</time>
      </trkpt>
      <trkpt lat="49.81231" lon="4.78311">
        <ele>213</ele>
        <time>2021-05-15T08:22:37.000Z</time>
      </trkpt>
      <trkpt lat="49.81231" lon="4.78318">
        <ele>213</ele>
        <time>2021-05-15T08:22:38.000Z</time>
      </trkpt>
      <trkpt lat="49.8123" lon="4.78324">
        <ele>212</ele>
        <time>2021-05-15T08:22:39.000Z</time>
      </trkpt>
      <trkpt lat="49.81228" lon="4.78331">
        <ele>212</ele>
        <time>2021-05-15T08:22:40.000Z</time>
      </trkpt>
      <trkpt lat="49.81227" lon="4.78338">
        <ele>212</ele>
        <time>2021-05-15T08:22:41.000Z</time>
      </trkpt>
      <trkpt lat="49.81225" lon="4.78344">
        <ele>212</ele>
        <time>2021-05-15T08:22:42.000Z</time>
      </trkpt>
      <trkpt lat="49.81225" lon="4.7835">
        <ele>211</ele>
        <time>2021-05-15T08:22:43.000Z</time>
      </trkpt>
      <trkpt lat="49.81223" lon="4.78356">
        <ele>211</ele>
        <time>2021-05-15T08:22:44.000Z</time>
      </trkpt>
      <trkpt lat="49.81222" lon="4.78362">
        <ele>211</ele>
        <time>2021-05-15T08:22:45.000Z</time>
      </trkpt>
      <trkpt lat="49.8122" lon="4.78369">
        <ele>211</ele>
        <time>2021-05-15T08:22:46.000Z</time>
      </trkpt>
      <trkpt lat="49.81219" lon="4.78375">
        <ele>211</ele>
        <time>2021-05-15T08:22:47.000Z</time>
      </trkpt>
      <trkpt lat="49.81218" lon="4.78382">
        <ele>211</ele>
        <time>2021-05-15T08:22:48.000Z</time>
      </trkpt>
      <trkpt lat="49.81216" lon="4.78389">
        <ele>210</ele>
        <time>2021-05-15T08:22:49.000Z</time>
      </trkpt>
      <trkpt lat="49.81214" lon="4.78397">
        <ele>210</ele>
        <time>2021-05-15T08:22:50.000Z</time>
      </trkpt>
      <trkpt lat="49.81212" lon="4.78404">
        <ele>210</ele>
        <time>2021-05-15T08:22:51.000Z</time>
      </trkpt>
      <trkpt lat="49.8121" lon="4.7841">
        <ele>210</ele>
        <time>2021-05-15T08:22:52.000Z</time>
      </trkpt>
      <trkpt lat="49.81209" lon="4.78416">
        <ele>210</ele>
        <time>2021-05-15T08:22:53.000Z</time>
      </trkpt>
      <trkpt lat="49.81208" lon="4.78422">
        <ele>210</ele>
        <time>2021-05-15T08:22:54.000Z</time>
      </trkpt>
      <trkpt lat="49.81209" lon="4.78428">
        <ele>210</ele>
        <time>2021-05-15T08:22:55.000Z</time>
      </trkpt>
      <trkpt lat="49.8121" lon="4.78436">
        <ele>209</ele>
        <time>2021-05-15T08:22:56.000Z</time>
      </trkpt>
      <trkpt lat="49.8121" lon="4.78442">
        <ele>209</ele>
        <time>2021-05-15T08:22:57.000Z</time>
      </trkpt>
      <trkpt lat="49.81209" lon="4.78448">
        <ele>209</ele>
        <time>2021-05-15T08:22:58.000Z</time>
      </trkpt>
      <trkpt lat="49.81208" lon="4.78454">
        <ele>209</ele>
        <time>2021-05-15T08:22:59.000Z</time>
      </trkpt>
      <trkpt lat="49.81206" lon="4.7846">
        <ele>209</ele>
        <time>2021-05-15T08:23:00.000Z</time>
      </trkpt>
      <trkpt lat="49.81204" lon="4.78466">
        <ele>209</ele>
        <time>2021-05-15T08:23:01.000Z</time>
      </trkpt>
      <trkpt lat="49.81203" lon="4.78471">
        <ele>208</ele>
        <time>2021-05-15T08:23:02.000Z</time>
      </trkpt>
      <trkpt lat="49.81202" lon="4.78477">
        <ele>208</ele>
        <time>2021-05-15T08:23:03.000Z</time>
      </trkpt>
      <trkpt lat="49.81201" lon="4.78483">
        <ele>208</ele>
        <time>2021-05-15T08:23:04.000Z</time>
      </trkpt>
      <trkpt lat="49.812" lon="4.78489">
        <ele>208</ele>
        <time>2021-05-15T08:23:05.000Z</time>
      </trkpt>
      <trkpt lat="49.812" lon="4.78496">
        <ele>208</ele>
        <time>2021-05-15T08:23:06.000Z</time>
      </trkpt>
      <trkpt lat="49.81201" lon="4.78502">
        <ele>207</ele>
        <time>2021-05-15T08:23:07.000Z</time>
      </trkpt>
      <trkpt lat="49.81201" lon="4.78509">
        <ele>207</ele>
        <time>2021-05-15T08:23:08.000Z</time>
      </trkpt>
      <trkpt lat="49.81201" lon="4.78517">
        <ele>207</ele>
        <time>2021-05-15T08:23:09.000Z</time>
      </trkpt>
      <trkpt lat="49.812" lon="4.78524">
        <ele>207</ele>
        <time>2021-05-15T08:23:10.000Z</time>
      </trkpt>
      <trkpt lat="49.812" lon="4.78531">
        <ele>207</ele>
        <time>2021-05-15T08:23:11.000Z</time>
      </trkpt>
      <trkpt lat="49.812" lon="4.78537">
        <ele>206</ele>
        <time>2021-05-15T08:23:12.000Z</time>
      </trkpt>
      <trkpt lat="49.812" lon="4.78542">
        <ele>206</ele>
        <time>2021-05-15T08:23:13.000Z</time>
      </trkpt>
      <trkpt lat="49.81199" lon="4.78546">
        <ele>206</ele>
        <time>2021-05-15T08:23:14.000Z</time>
      </trkpt>
      <trkpt lat="49.81199" lon="4.78551">
        <ele>206</ele>
        <time>2021-05-15T08:23:15.000Z</time>
      </trkpt>
      <trkpt lat="49.81199" lon="4.78557">
        <ele>206</ele>
        <time>2021-05-15T08:23:16.000Z</time>
      </trkpt>
      <trkpt lat="49.81199" lon="4.78562">
        <ele>206</ele>
        <time>2021-05-15T08:23:17.000Z</time>
      </trkpt>
      <trkpt lat="49.81198" lon="4.78568">
        <ele>205</ele>
        <time>2021-05-15T08:23:18.000Z</time>
      </trkpt>
      <trkpt lat="49.81196" lon="4.78574">
        <ele>205</ele>
        <time>2021-05-15T08:23:19.000Z</time>
      </trkpt>
      <trkpt lat="49.81195" lon="4.7858">
        <ele>205</ele>
        <time>2021-05-15T08:23:20.000Z</time>
      </trkpt>
      <trkpt lat="49.81193" lon="4.78587">
        <ele>205</ele>
        <time>2021-05-15T08:23:21.000Z</time>
      </trkpt>
      <trkpt lat="49.81192" lon="4.78594">
        <ele>204</ele>
        <time>2021-05-15T08:23:22.000Z</time>
      </trkpt>
      <trkpt lat="49.81191" lon="4.78602">
        <ele>204</ele>
        <time>2021-05-15T08:23:23.000Z</time>
      </trkpt>
      <trkpt lat="49.81191" lon="4.7861">
        <ele>204</ele>
        <time>2021-05-15T08:23:24.000Z</time>
      </trkpt>
      <trkpt lat="49.81192" lon="4.78618">
        <ele>204</ele>
        <time>2021-05-15T08:23:25.000Z</time>
      </trkpt>
      <trkpt lat="49.81194" lon="4.78626">
        <ele>203</ele>
        <time>2021-05-15T08:23:26.000Z</time>
      </trkpt>
      <trkpt lat="49.81195" lon="4.78633">
        <ele>203</ele>
        <time>2021-05-15T08:23:27.000Z</time>
      </trkpt>
      <trkpt lat="49.81195" lon="4.78642">
        <ele>203</ele>
        <time>2021-05-15T08:23:28.000Z</time>
      </trkpt>
      <trkpt lat="49.81194" lon="4.7865">
        <ele>202</ele>
        <time>2021-05-15T08:23:29.000Z</time>
      </trkpt>
      <trkpt lat="49.81193" lon="4.78657">
        <ele>202</ele>
        <time>2021-05-15T08:23:30.000Z</time>
      </trkpt>
      <trkpt lat="49.81191" lon="4.78663">
        <ele>202</ele>
        <time>2021-05-15T08:23:31.000Z</time>
      </trkpt>
      <trkpt lat="49.81189" lon="4.7867">
        <ele>201</ele>
        <time>2021-05-15T08:23:32.000Z</time>
      </trkpt>
      <trkpt lat="49.81187" lon="4.78676">
        <ele>201</ele>
        <time>2021-05-15T08:23:33.000Z</time>
      </trkpt>
      <trkpt lat="49.81185" lon="4.78683">
        <ele>201</ele>
        <time>2021-05-15T08:23:34.000Z</time>
      </trkpt>
      <trkpt lat="49.81183" lon="4.7869">
        <ele>201</ele>
        <time>2021-05-15T08:23:35.000Z</time>
      </trkpt>
      <trkpt lat="49.81181" lon="4.78697">
        <ele>201</ele>
        <time>2021-05-15T08:23:36.000Z</time>
      </trkpt>
      <trkpt lat="49.81179" lon="4.78703">
        <ele>201</ele>
        <time>2021-05-15T08:23:37.000Z</time>
      </trkpt>
      <trkpt lat="49.81177" lon="4.78709">
        <ele>201</ele>
        <time>2021-05-15T08:23:38.000Z</time>
      </trkpt>
      <trkpt lat="49.81175" lon="4.78716">
        <ele>201</ele>
        <time>2021-05-15T08:23:39.000Z</time>
      </trkpt>
      <trkpt lat="49.81173" lon="4.78722">
        <ele>200</ele>
        <time>2021-05-15T08:23:40.000Z</time>
      </trkpt>
      <trkpt lat="49.81171" lon="4.78729">
        <ele>200</ele>
        <time>2021-05-15T08:23:41.000Z</time>
      </trkpt>
      <trkpt lat="49.81169" lon="4.78735">
        <ele>200</ele>
        <time>2021-05-15T08:23:42.000Z</time>
      </trkpt>
      <trkpt lat="49.81168" lon="4.78741">
        <ele>200</ele>
        <time>2021-05-15T08:23:43.000Z</time>
      </trkpt>
      <trkpt lat="49.81166" lon="4.78747">
        <ele>200</ele>
        <time>2021-05-15T08:23:44.000Z</time>
      </trkpt>
      <trkpt lat="49.81164" lon="4.78752">
        <ele>200</ele>
        <time>2021-05-15T08:23:45.000Z</time>
      </trkpt>
      <trkpt lat="49.81162" lon="4.78756">
        <ele>200</ele>
        <time>2021-05-15T08:23:46.000Z</time>
      </trkpt>
      <trkpt lat="49.8116" lon="4.78761">
        <ele>200</ele>
        <time>2021-05-15T08:23:47.000Z</time>
      </trkpt>
      <trkpt lat="49.81159" lon="4.78767">
        <ele>200</ele>
        <time>2021-05-15T08:23:48.000Z</time>
      </trkpt>
      <trkpt lat="49.81157" lon="4.78773">
        <ele>200</ele>
        <time>2021-05-15T08:23:49.000Z</time>
      </trkpt>
      <trkpt lat="49.81155" lon="4.78779">
        <ele>200</ele>
        <time>2021-05-15T08:23:50.000Z</time>
      </trkpt>
      <trkpt lat="49.81154" lon="4.78785">
        <ele>200</ele>
        <time>2021-05-15T08:23:51.000Z</time>
      </trkpt>
      <trkpt lat="49.81154" lon="4.78791">
        <ele>200</ele>
        <time>2021-05-15T08:23:52.000Z</time>
      </trkpt>
      <trkpt lat="49.81153" lon="4.78797">
        <ele>200</ele>
        <time>2021-05-15T08:23:53.000Z</time>
      </trkpt>
      <trkpt lat="49.81152" lon="4.78803">
        <ele>200</ele>
        <time>2021-05-15T08:23:54.000Z</time>
      </trkpt>
      <trkpt lat="49.81152" lon="4.7881">
        <ele>199</ele>
        <time>2021-05-15T08:23:55.000Z</time>
      </trkpt>
      <trkpt lat="49.81151" lon="4.78816">
        <ele>199</ele>
        <time>2021-05-15T08:23:56.000Z</time>
      </trkpt>
      <trkpt lat="49.8115" lon="4.78822">
        <ele>199</ele>
        <time>2021-05-15T08:23:57.000Z</time>
      </trkpt>
      <trkpt lat="49.81149" lon="4.78828">
        <ele>199</ele>
        <time>2021-05-15T08:23:58.000Z</time>
      </trkpt>
      <trkpt lat="49.81148" lon="4.78834">
        <ele>199</ele>
        <time>2021-05-15T08:23:59.000Z</time>
      </trkpt>
      <trkpt lat="49.81147" lon="4.7884">
        <ele>199</ele>
        <time>2021-05-15T08:24:00.000Z</time>
      </trkpt>
      <trkpt lat="49.81145" lon="4.78846">
        <ele>199</ele>
        <time>2021-05-15T08:24:01.000Z</time>
      </trkpt>
      <trkpt lat="49.81144" lon="4.78852">
        <ele>199</ele>
        <time>2021-05-15T08:24:02.000Z</time>
      </trkpt>
      <trkpt lat="49.81142" lon="4.78857">
        <ele>199</ele>
        <time>2021-05-15T08:24:03.000Z</time>
      </trkpt>
      <trkpt lat="49.81141" lon="4.78862">
        <ele>199</ele>
        <time>2021-05-15T08:24:04.000Z</time>
      </trkpt>
      <trkpt lat="49.81139" lon="4.78866">
        <ele>199</ele>
        <time>2021-05-15T08:24:05.000Z</time>
      </trkpt>
      <trkpt lat="49.81138" lon="4.7887">
        <ele>199</ele>
        <time>2021-05-15T08:24:06.000Z</time>
      </trkpt>
      <trkpt lat="49.81137" lon="4.78874">
        <ele>199</ele>
        <time>2021-05-15T08:24:07.000Z</time>
      </trkpt>
      <trkpt lat="49.81135" lon="4.78878">
        <ele>199</ele>
        <time>2021-05-15T08:24:08.000Z</time>
      </trkpt>
      <trkpt lat="49.81134" lon="4.78882">
        <ele>199</ele>
        <time>2021-05-15T08:24:09.000Z</time>
      </trkpt>
      <trkpt lat="49.81132" lon="4.78887">
        <ele>199</ele>
        <time>2021-05-15T08:24:10.000Z</time>
      </trkpt>
      <trkpt lat="49.8113" lon="4.78891">
        <ele>199</ele>
        <time>2021-05-15T08:24:11.000Z</time>
      </trkpt>
      <trkpt lat="49.81129" lon="4.78897">
        <ele>199</ele>
        <time>2021-05-15T08:24:12.000Z</time>
      </trkpt>
      <trkpt lat="49.81127" lon="4.78901">
        <ele>199</ele>
        <time>2021-05-15T08:24:13.000Z</time>
      </trkpt>
      <trkpt lat="49.81126" lon="4.78907">
        <ele>199</ele>
        <time>2021-05-15T08:24:14.000Z</time>
      </trkpt>
      <trkpt lat="49.81125" lon="4.78912">
        <ele>199</ele>
        <time>2021-05-15T08:24:15.000Z</time>
      </trkpt>
      <trkpt lat="49.81123" lon="4.78918">
        <ele>199</ele>
        <time>2021-05-15T08:24:16.000Z</time>
      </trkpt>
      <trkpt lat="49.81123" lon="4.78923">
        <ele>199</ele>
        <time>2021-05-15T08:24:17.000Z</time>
      </trkpt>
      <trkpt lat="49.81122" lon="4.78928">
        <ele>199</ele>
        <time>2021-05-15T08:24:18.000Z</time>
      </trkpt>
      <trkpt lat="49.81122" lon="4.78934">
        <ele>199</ele>
        <time>2021-05-15T08:24:19.000Z</time>
      </trkpt>
      <trkpt lat="49.8112" lon="4.78939">
        <ele>199</ele>
        <time>2021-05-15T08:24:20.000Z</time>
      </trkpt>
      <trkpt lat="49.81119" lon="4.78945">
        <ele>199</ele>
        <time>2021-05-15T08:24:21.000Z</time>
      </trkpt>
      <trkpt lat="49.81118" lon="4.7895">
        <ele>199</ele>
        <time>2021-05-15T08:24:22.000Z</time>
      </trkpt>
      <trkpt lat="49.81117" lon="4.78955">
        <ele>199</ele>
        <time>2021-05-15T08:24:23.000Z</time>
      </trkpt>
      <trkpt lat="49.81116" lon="4.78961">
        <ele>200</ele>
        <time>2021-05-15T08:24:24.000Z</time>
      </trkpt>
      <trkpt lat="49.81114" lon="4.78967">
        <ele>200</ele>
        <time>2021-05-15T08:24:25.000Z</time>
      </trkpt>
      <trkpt lat="49.81113" lon="4.78974">
        <ele>200</ele>
        <time>2021-05-15T08:24:26.000Z</time>
      </trkpt>
      <trkpt lat="49.81111" lon="4.7898">
        <ele>200</ele>
        <time>2021-05-15T08:24:27.000Z</time>
      </trkpt>
      <trkpt lat="49.8111" lon="4.78986">
        <ele>200</ele>
        <time>2021-05-15T08:24:28.000Z</time>
      </trkpt>
      <trkpt lat="49.81108" lon="4.78993">
        <ele>200</ele>
        <time>2021-05-15T08:24:29.000Z</time>
      </trkpt>
      <trkpt lat="49.81106" lon="4.78999">
        <ele>200</ele>
        <time>2021-05-15T08:24:30.000Z</time>
      </trkpt>
      <trkpt lat="49.81104" lon="4.79005">
        <ele>200</ele>
        <time>2021-05-15T08:24:31.000Z</time>
      </trkpt>
      <trkpt lat="49.81103" lon="4.79011">
        <ele>200</ele>
        <time>2021-05-15T08:24:32.000Z</time>
      </trkpt>
      <trkpt lat="49.81101" lon="4.79017">
        <ele>201</ele>
        <time>2021-05-15T08:24:33.000Z</time>
      </trkpt>
      <trkpt lat="49.811" lon="4.79023">
        <ele>201</ele>
        <time>2021-05-15T08:24:34.000Z</time>
      </trkpt>
      <trkpt lat="49.81099" lon="4.7903">
        <ele>201</ele>
        <time>2021-05-15T08:24:35.000Z</time>
      </trkpt>
      <trkpt lat="49.81098" lon="4.79036">
        <ele>201</ele>
        <time>2021-05-15T08:24:36.000Z</time>
      </trkpt>
      <trkpt lat="49.81097" lon="4.79042">
        <ele>201</ele>
        <time>2021-05-15T08:24:37.000Z</time>
      </trkpt>
      <trkpt lat="49.81096" lon="4.79049">
        <ele>201</ele>
        <time>2021-05-15T08:24:38.000Z</time>
      </trkpt>
      <trkpt lat="49.81094" lon="4.79055">
        <ele>201</ele>
        <time>2021-05-15T08:24:39.000Z</time>
      </trkpt>
      <trkpt lat="49.81093" lon="4.79062">
        <ele>201</ele>
        <time>2021-05-15T08:24:40.000Z</time>
      </trkpt>
      <trkpt lat="49.81092" lon="4.7907">
        <ele>201</ele>
        <time>2021-05-15T08:24:41.000Z</time>
      </trkpt>
      <trkpt lat="49.81091" lon="4.79077">
        <ele>201</ele>
        <time>2021-05-15T08:24:42.000Z</time>
      </trkpt>
      <trkpt lat="49.8109" lon="4.79083">
        <ele>201</ele>
        <time>2021-05-15T08:24:43.000Z</time>
      </trkpt>
      <trkpt lat="49.81089" lon="4.7909">
        <ele>201</ele>
        <time>2021-05-15T08:24:44.000Z</time>
      </trkpt>
      <trkpt lat="49.81088" lon="4.79097">
        <ele>201</ele>
        <time>2021-05-15T08:24:45.000Z</time>
      </trkpt>
      <trkpt lat="49.81086" lon="4.79103">
        <ele>201</ele>
        <time>2021-05-15T08:24:46.000Z</time>
      </trkpt>
      <trkpt lat="49.81084" lon="4.7911">
        <ele>201</ele>
        <time>2021-05-15T08:24:47.000Z</time>
      </trkpt>
      <trkpt lat="49.81082" lon="4.79116">
        <ele>201</ele>
        <time>2021-05-15T08:24:48.000Z</time>
      </trkpt>
      <trkpt lat="49.81079" lon="4.79122">
        <ele>201</ele>
        <time>2021-05-15T08:24:49.000Z</time>
      </trkpt>
      <trkpt lat="49.81077" lon="4.79128">
        <ele>201</ele>
        <time>2021-05-15T08:24:50.000Z</time>
      </trkpt>
      <trkpt lat="49.81074" lon="4.79134">
        <ele>201</ele>
        <time>2021-05-15T08:24:51.000Z</time>
      </trkpt>
      <trkpt lat="49.81072" lon="4.7914">
        <ele>201</ele>
        <time>2021-05-15T08:24:52.000Z</time>
      </trkpt>
      <trkpt lat="49.81069" lon="4.79146">
        <ele>201</ele>
        <time>2021-05-15T08:24:53.000Z</time>
      </trkpt>
      <trkpt lat="49.81067" lon="4.79151">
        <ele>201</ele>
        <time>2021-05-15T08:24:54.000Z</time>
      </trkpt>
      <trkpt lat="49.81065" lon="4.79156">
        <ele>201</ele>
        <time>2021-05-15T08:24:55.000Z</time>
      </trkpt>
      <trkpt lat="49.81062" lon="4.79162">
        <ele>201</ele>
        <time>2021-05-15T08:24:56.000Z</time>
      </trkpt>
      <trkpt lat="49.81059" lon="4.79168">
        <ele>201</ele>
        <time>2021-05-15T08:24:57.000Z</time>
      </trkpt>
      <trkpt lat="49.81056" lon="4.79173">
        <ele>201</ele>
        <time>2021-05-15T08:24:58.000Z</time>
      </trkpt>
      <trkpt lat="49.81053" lon="4.79178">
        <ele>201</ele>
        <time>2021-05-15T08:24:59.000Z</time>
      </trkpt>
      <trkpt lat="49.81049" lon="4.79183">
        <ele>200</ele>
        <time>2021-05-15T08:25:00.000Z</time>
      </trkpt>
      <trkpt lat="49.81046" lon="4.79187">
        <ele>200</ele>
        <time>2021-05-15T08:25:01.000Z</time>
      </trkpt>
      <trkpt lat="49.81042" lon="4.79192">
        <ele>200</ele>
        <time>2021-05-15T08:25:02.000Z</time>
      </trkpt>
      <trkpt lat="49.81039" lon="4.79196">
        <ele>200</ele>
        <time>2021-05-15T08:25:03.000Z</time>
      </trkpt>
      <trkpt lat="49.81036" lon="4.79199">
        <ele>200</ele>
        <time>2021-05-15T08:25:04.000Z</time>
      </trkpt>
      <trkpt lat="49.81033" lon="4.79201">
        <ele>200</ele>
        <time>2021-05-15T08:25:05.000Z</time>
      </trkpt>
      <trkpt lat="49.81031" lon="4.79202">
        <ele>200</ele>
        <time>2021-05-15T08:25:06.000Z</time>
      </trkpt>
      <trkpt lat="49.81029" lon="4.79203">
        <ele>200</ele>
        <time>2021-05-15T08:25:07.000Z</time>
      </trkpt>
      <trkpt lat="49.81027" lon="4.79205">
        <ele>200</ele>
        <time>2021-05-15T08:25:08.000Z</time>
      </trkpt>
      <trkpt lat="49.81025" lon="4.79208">
        <ele>200</ele>
        <time>2021-05-15T08:25:09.000Z</time>
      </trkpt>
      <trkpt lat="49.81023" lon="4.79213">
        <ele>200</ele>
        <time>2021-05-15T08:25:10.000Z</time>
      </trkpt>
      <trkpt lat="49.81021" lon="4.79219">
        <ele>200</ele>
        <time>2021-05-15T08:25:11.000Z</time>
      </trkpt>
      <trkpt lat="49.81019" lon="4.79227">
        <ele>199</ele>
        <time>2021-05-15T08:25:12.000Z</time>
      </trkpt>
      <trkpt lat="49.81017" lon="4.79236">
        <ele>199</ele>
        <time>2021-05-15T08:25:13.000Z</time>
      </trkpt>
      <trkpt lat="49.81015" lon="4.79244">
        <ele>199</ele>
        <time>2021-05-15T08:25:14.000Z</time>
      </trkpt>
      <trkpt lat="49.81013" lon="4.79252">
        <ele>199</ele>
        <time>2021-05-15T08:25:15.000Z</time>
      </trkpt>
      <trkpt lat="49.81011" lon="4.79259">
        <ele>198</ele>
        <time>2021-05-15T08:25:16.000Z</time>
      </trkpt>
      <trkpt lat="49.8101" lon="4.79266">
        <ele>198</ele>
        <time>2021-05-15T08:25:17.000Z</time>
      </trkpt>
      <trkpt lat="49.81008" lon="4.79273">
        <ele>198</ele>
        <time>2021-05-15T08:25:18.000Z</time>
      </trkpt>
      <trkpt lat="49.81007" lon="4.7928">
        <ele>198</ele>
        <time>2021-05-15T08:25:19.000Z</time>
      </trkpt>
      <trkpt lat="49.81007" lon="4.79288">
        <ele>197</ele>
        <time>2021-05-15T08:25:20.000Z</time>
      </trkpt>
      <trkpt lat="49.81007" lon="4.79294">
        <ele>197</ele>
        <time>2021-05-15T08:25:21.000Z</time>
      </trkpt>
      <trkpt lat="49.81009" lon="4.793">
        <ele>197</ele>
        <time>2021-05-15T08:25:22.000Z</time>
      </trkpt>
      <trkpt lat="49.81009" lon="4.79306">
        <ele>196</ele>
        <time>2021-05-15T08:25:23.000Z</time>
      </trkpt>
      <trkpt lat="49.81009" lon="4.79311">
        <ele>196</ele>
        <time>2021-05-15T08:25:24.000Z</time>
      </trkpt>
      <trkpt lat="49.81008" lon="4.79317">
        <ele>195</ele>
        <time>2021-05-15T08:25:25.000Z</time>
      </trkpt>
      <trkpt lat="49.81006" lon="4.79322">
        <ele>194</ele>
        <time>2021-05-15T08:25:26.000Z</time>
      </trkpt>
      <trkpt lat="49.81006" lon="4.79328">
        <ele>194</ele>
        <time>2021-05-15T08:25:27.000Z</time>
      </trkpt>
      <trkpt lat="49.81005" lon="4.79335">
        <ele>193</ele>
        <time>2021-05-15T08:25:28.000Z</time>
      </trkpt>
      <trkpt lat="49.81004" lon="4.79343">
        <ele>192</ele>
        <time>2021-05-15T08:25:29.000Z</time>
      </trkpt>
      <trkpt lat="49.81001" lon="4.79351">
        <ele>192</ele>
        <time>2021-05-15T08:25:30.000Z</time>
      </trkpt>
      <trkpt lat="49.81" lon="4.7936">
        <ele>191</ele>
        <time>2021-05-15T08:25:31.000Z</time>
      </trkpt>
      <trkpt lat="49.80999" lon="4.79369">
        <ele>190</ele>
        <time>2021-05-15T08:25:32.000Z</time>
      </trkpt>
      <trkpt lat="49.80999" lon="4.79379">
        <ele>189</ele>
        <time>2021-05-15T08:25:33.000Z</time>
      </trkpt>
      <trkpt lat="49.81001" lon="4.79389">
        <ele>189</ele>
        <time>2021-05-15T08:25:34.000Z</time>
      </trkpt>
      <trkpt lat="49.81003" lon="4.79399">
        <ele>188</ele>
        <time>2021-05-15T08:25:35.000Z</time>
      </trkpt>
      <trkpt lat="49.81007" lon="4.79408">
        <ele>188</ele>
        <time>2021-05-15T08:25:36.000Z</time>
      </trkpt>
      <trkpt lat="49.81011" lon="4.79417">
        <ele>187</ele>
        <time>2021-05-15T08:25:37.000Z</time>
      </trkpt>
      <trkpt lat="49.81015" lon="4.79426">
        <ele>187</ele>
        <time>2021-05-15T08:25:38.000Z</time>
      </trkpt>
      <trkpt lat="49.81019" lon="4.79434">
        <ele>186</ele>
        <time>2021-05-15T08:25:39.000Z</time>
      </trkpt>
      <trkpt lat="49.81022" lon="4.79439">
        <ele>186</ele>
        <time>2021-05-15T08:25:40.000Z</time>
      </trkpt>
      <trkpt lat="49.81025" lon="4.79442">
        <ele>185</ele>
        <time>2021-05-15T08:25:41.000Z</time>
      </trkpt>
      <trkpt lat="49.81029" lon="4.79444">
        <ele>185</ele>
        <time>2021-05-15T08:25:42.000Z</time>
      </trkpt>
      <trkpt lat="49.81032" lon="4.79443">
        <ele>184</ele>
        <time>2021-05-15T08:25:43.000Z</time>
      </trkpt>
      <trkpt lat="49.81035" lon="4.79441">
        <ele>184</ele>
        <time>2021-05-15T08:25:44.000Z</time>
      </trkpt>
      <trkpt lat="49.81038" lon="4.79437">
        <ele>184</ele>
        <time>2021-05-15T08:25:45.000Z</time>
      </trkpt>
      <trkpt lat="49.81041" lon="4.79434">
        <ele>184</ele>
        <time>2021-05-15T08:25:46.000Z</time>
      </trkpt>
      <trkpt lat="49.81044" lon="4.7943">
        <ele>184</ele>
        <time>2021-05-15T08:25:47.000Z</time>
      </trkpt>
      <trkpt lat="49.81047" lon="4.79425">
        <ele>183</ele>
        <time>2021-05-15T08:25:48.000Z</time>
      </trkpt>
      <trkpt lat="49.81049" lon="4.79421">
        <ele>183</ele>
        <time>2021-05-15T08:25:49.000Z</time>
      </trkpt>
      <trkpt lat="49.81051" lon="4.79416">
        <ele>183</ele>
        <time>2021-05-15T08:25:50.000Z</time>
      </trkpt>
      <trkpt lat="49.81053" lon="4.79413">
        <ele>183</ele>
        <time>2021-05-15T08:25:51.000Z</time>
      </trkpt>
      <trkpt lat="49.81055" lon="4.79409">
        <ele>183</ele>
        <time>2021-05-15T08:25:52.000Z</time>
      </trkpt>
      <trkpt lat="49.81058" lon="4.79405">
        <ele>183</ele>
        <time>2021-05-15T08:25:53.000Z</time>
      </trkpt>
      <trkpt lat="49.81059" lon="4.79402">
        <ele>183</ele>
        <time>2021-05-15T08:25:54.000Z</time>
      </trkpt>
      <trkpt lat="49.81061" lon="4.79397">
        <ele>183</ele>
        <time>2021-05-15T08:25:55.000Z</time>
      </trkpt>
      <trkpt lat="49.81063" lon="4.79392">
        <ele>183</ele>
        <time>2021-05-15T08:25:56.000Z</time>
      </trkpt>
      <trkpt lat="49.81066" lon="4.79389">
        <ele>183</ele>
        <time>2021-05-15T08:25:57.000Z</time>
      </trkpt>
      <trkpt lat="49.81068" lon="4.79385">
        <ele>183</ele>
        <time>2021-05-15T08:25:58.000Z</time>
      </trkpt>
      <trkpt lat="49.81071" lon="4.79381">
        <ele>183</ele>
        <time>2021-05-15T08:25:59.000Z</time>
      </trkpt>
      <trkpt lat="49.81073" lon="4.79376">
        <ele>183</ele>
        <time>2021-05-15T08:26:00.000Z</time>
      </trkpt>
      <trkpt lat="49.81075" lon="4.79372">
        <ele>183</ele>
        <time>2021-05-15T08:26:01.000Z</time>
      </trkpt>
      <trkpt lat="49.81078" lon="4.79368">
        <ele>183</ele>
        <time>2021-05-15T08:26:02.000Z</time>
      </trkpt>
      <trkpt lat="49.81081" lon="4.79366">
        <ele>183</ele>
        <time>2021-05-15T08:26:03.000Z</time>
      </trkpt>
      <trkpt lat="49.81084" lon="4.79366">
        <ele>183</ele>
        <time>2021-05-15T08:26:04.000Z</time>
      </trkpt>
      <trkpt lat="49.81087" lon="4.79368">
        <ele>182</ele>
        <time>2021-05-15T08:26:05.000Z</time>
      </trkpt>
      <trkpt lat="49.8109" lon="4.79372">
        <ele>182</ele>
        <time>2021-05-15T08:26:06.000Z</time>
      </trkpt>
      <trkpt lat="49.81093" lon="4.79376">
        <ele>182</ele>
        <time>2021-05-15T08:26:07.000Z</time>
      </trkpt>
      <trkpt lat="49.81097" lon="4.7938">
        <ele>182</ele>
        <time>2021-05-15T08:26:08.000Z</time>
      </trkpt>
      <trkpt lat="49.81102" lon="4.79384">
        <ele>182</ele>
        <time>2021-05-15T08:26:09.000Z</time>
      </trkpt>
      <trkpt lat="49.81106" lon="4.79389">
        <ele>182</ele>
        <time>2021-05-15T08:26:10.000Z</time>
      </trkpt>
      <trkpt lat="49.81111" lon="4.79393">
        <ele>181</ele>
        <time>2021-05-15T08:26:11.000Z</time>
      </trkpt>
      <trkpt lat="49.81117" lon="4.79397">
        <ele>181</ele>
        <time>2021-05-15T08:26:12.000Z</time>
      </trkpt>
      <trkpt lat="49.81123" lon="4.794">
        <ele>181</ele>
        <time>2021-05-15T08:26:13.000Z</time>
      </trkpt>
      <trkpt lat="49.81129" lon="4.79403">
        <ele>180</ele>
        <time>2021-05-15T08:26:14.000Z</time>
      </trkpt>
      <trkpt lat="49.81135" lon="4.79407">
        <ele>180</ele>
        <time>2021-05-15T08:26:15.000Z</time>
      </trkpt>
      <trkpt lat="49.81142" lon="4.79411">
        <ele>180</ele>
        <time>2021-05-15T08:26:16.000Z</time>
      </trkpt>
      <trkpt lat="49.81149" lon="4.79414">
        <ele>180</ele>
        <time>2021-05-15T08:26:17.000Z</time>
      </trkpt>
      <trkpt lat="49.81156" lon="4.79418">
        <ele>179</ele>
        <time>2021-05-15T08:26:18.000Z</time>
      </trkpt>
      <trkpt lat="49.81163" lon="4.79422">
        <ele>179</ele>
        <time>2021-05-15T08:26:19.000Z</time>
      </trkpt>
      <trkpt lat="49.81171" lon="4.79425">
        <ele>179</ele>
        <time>2021-05-15T08:26:20.000Z</time>
      </trkpt>
      <trkpt lat="49.81179" lon="4.79428">
        <ele>178</ele>
        <time>2021-05-15T08:26:21.000Z</time>
      </trkpt>
      <trkpt lat="49.81187" lon="4.79431">
        <ele>178</ele>
        <time>2021-05-15T08:26:22.000Z</time>
      </trkpt>
      <trkpt lat="49.81196" lon="4.79434">
        <ele>177</ele>
        <time>2021-05-15T08:26:23.000Z</time>
      </trkpt>
      <trkpt lat="49.81204" lon="4.79439">
        <ele>177</ele>
        <time>2021-05-15T08:26:24.000Z</time>
      </trkpt>
      <trkpt lat="49.81211" lon="4.79444">
        <ele>177</ele>
        <time>2021-05-15T08:26:25.000Z</time>
      </trkpt>
      <trkpt lat="49.81217" lon="4.79451">
        <ele>176</ele>
        <time>2021-05-15T08:26:26.000Z</time>
      </trkpt>
      <trkpt lat="49.8122" lon="4.79458">
        <ele>176</ele>
        <time>2021-05-15T08:26:27.000Z</time>
      </trkpt>
      <trkpt lat="49.81222" lon="4.79464">
        <ele>176</ele>
        <time>2021-05-15T08:26:28.000Z</time>
      </trkpt>
      <trkpt lat="49.81224" lon="4.79468">
        <ele>175</ele>
        <time>2021-05-15T08:26:29.000Z</time>
      </trkpt>
      <trkpt lat="49.81226" lon="4.7947">
        <ele>175</ele>
        <time>2021-05-15T08:26:30.000Z</time>
      </trkpt>
      <trkpt lat="49.81228" lon="4.7947">
        <ele>175</ele>
        <time>2021-05-15T08:26:31.000Z</time>
      </trkpt>
      <trkpt lat="49.8123" lon="4.79472">
        <ele>175</ele>
        <time>2021-05-15T08:26:32.000Z</time>
      </trkpt>
      <trkpt lat="49.81231" lon="4.79475">
        <ele>175</ele>
        <time>2021-05-15T08:26:33.000Z</time>
      </trkpt>
      <trkpt lat="49.81231" lon="4.79479">
        <ele>175</ele>
        <time>2021-05-15T08:26:34.000Z</time>
      </trkpt>
      <trkpt lat="49.81232" lon="4.79484">
        <ele>175</ele>
        <time>2021-05-15T08:26:35.000Z</time>
      </trkpt>
      <trkpt lat="49.81231" lon="4.7949">
        <ele>175</ele>
        <time>2021-05-15T08:26:36.000Z</time>
      </trkpt>
      <trkpt lat="49.81232" lon="4.79496">
        <ele>175</ele>
        <time>2021-05-15T08:26:37.000Z</time>
      </trkpt>
      <trkpt lat="49.81232" lon="4.79503">
        <ele>175</ele>
        <time>2021-05-15T08:26:38.000Z</time>
      </trkpt>
      <trkpt lat="49.81232" lon="4.7951">
        <ele>174</ele>
        <time>2021-05-15T08:26:39.000Z</time>
      </trkpt>
      <trkpt lat="49.81231" lon="4.79516">
        <ele>174</ele>
        <time>2021-05-15T08:26:40.000Z</time>
      </trkpt>
      <trkpt lat="49.81231" lon="4.79523">
        <ele>174</ele>
        <time>2021-05-15T08:26:41.000Z</time>
      </trkpt>
      <trkpt lat="49.8123" lon="4.79529">
        <ele>174</ele>
        <time>2021-05-15T08:26:42.000Z</time>
      </trkpt>
      <trkpt lat="49.8123" lon="4.79533">
        <ele>174</ele>
        <time>2021-05-15T08:26:43.000Z</time>
      </trkpt>
      <trkpt lat="49.81232" lon="4.79536">
        <ele>174</ele>
        <time>2021-05-15T08:26:44.000Z</time>
      </trkpt>
      <trkpt lat="49.81235" lon="4.79536">
        <ele>174</ele>
        <time>2021-05-15T08:26:45.000Z</time>
      </trkpt>
      <trkpt lat="49.81238" lon="4.79536">
        <ele>174</ele>
        <time>2021-05-15T08:26:46.000Z</time>
      </trkpt>
      <trkpt lat="49.81242" lon="4.79535">
        <ele>174</ele>
        <time>2021-05-15T08:26:47.000Z</time>
      </trkpt>
      <trkpt lat="49.81247" lon="4.79532">
        <ele>174</ele>
        <time>2021-05-15T08:26:48.000Z</time>
      </trkpt>
      <trkpt lat="49.81252" lon="4.79528">
        <ele>174</ele>
        <time>2021-05-15T08:26:49.000Z</time>
      </trkpt>
      <trkpt lat="49.81256" lon="4.79524">
        <ele>174</ele>
        <time>2021-05-15T08:26:50.000Z</time>
      </trkpt>
      <trkpt lat="49.81261" lon="4.79519">
        <ele>174</ele>
        <time>2021-05-15T08:26:51.000Z</time>
      </trkpt>
      <trkpt lat="49.81265" lon="4.79513">
        <ele>174</ele>
        <time>2021-05-15T08:26:52.000Z</time>
      </trkpt>
      <trkpt lat="49.81269" lon="4.79507">
        <ele>173</ele>
        <time>2021-05-15T08:26:53.000Z</time>
      </trkpt>
      <trkpt lat="49.81273" lon="4.795">
        <ele>173</ele>
        <time>2021-05-15T08:26:54.000Z</time>
      </trkpt>
      <trkpt lat="49.81276" lon="4.79493">
        <ele>173</ele>
        <time>2021-05-15T08:26:55.000Z</time>
      </trkpt>
      <trkpt lat="49.81279" lon="4.79486">
        <ele>173</ele>
        <time>2021-05-15T08:26:56.000Z</time>
      </trkpt>
      <trkpt lat="49.81283" lon="4.79479">
        <ele>173</ele>
        <time>2021-05-15T08:26:57.000Z</time>
      </trkpt>
      <trkpt lat="49.81286" lon="4.79472">
        <ele>173</ele>
        <time>2021-05-15T08:26:58.000Z</time>
      </trkpt>
      <trkpt lat="49.81288" lon="4.79464">
        <ele>173</ele>
        <time>2021-05-15T08:26:59.000Z</time>
      </trkpt>
      <trkpt lat="49.81291" lon="4.79456">
        <ele>173</ele>
        <time>2021-05-15T08:27:00.000Z</time>
      </trkpt>
      <trkpt lat="49.81294" lon="4.79449">
        <ele>173</ele>
        <time>2021-05-15T08:27:01.000Z</time>
      </trkpt>
      <trkpt lat="49.81297" lon="4.79442">
        <ele>172</ele>
        <time>2021-05-15T08:27:02.000Z</time>
      </trkpt>
      <trkpt lat="49.813" lon="4.79434">
        <ele>172</ele>
        <time>2021-05-15T08:27:03.000Z</time>
      </trkpt>
      <trkpt lat="49.81303" lon="4.79427">
        <ele>172</ele>
        <time>2021-05-15T08:27:04.000Z</time>
      </trkpt>
      <trkpt lat="49.81306" lon="4.7942">
        <ele>172</ele>
        <time>2021-05-15T08:27:05.000Z</time>
      </trkpt>
      <trkpt lat="49.81309" lon="4.79413">
        <ele>172</ele>
        <time>2021-05-15T08:27:06.000Z</time>
      </trkpt>
      <trkpt lat="49.81312" lon="4.79406">
        <ele>172</ele>
        <time>2021-05-15T08:27:07.000Z</time>
      </trkpt>
      <trkpt lat="49.81314" lon="4.794">
        <ele>173</ele>
        <time>2021-05-15T08:27:08.000Z</time>
      </trkpt>
      <trkpt lat="49.81317" lon="4.79394">
        <ele>173</ele>
        <time>2021-05-15T08:27:09.000Z</time>
      </trkpt>
      <trkpt lat="49.81319" lon="4.79387">
        <ele>173</ele>
        <time>2021-05-15T08:27:10.000Z</time>
      </trkpt>
      <trkpt lat="49.81321" lon="4.7938">
        <ele>173</ele>
        <time>2021-05-15T08:27:11.000Z</time>
      </trkpt>
      <trkpt lat="49.81322" lon="4.79372">
        <ele>173</ele>
        <time>2021-05-15T08:27:12.000Z</time>
      </trkpt>
      <trkpt lat="49.81324" lon="4.79365">
        <ele>173</ele>
        <time>2021-05-15T08:27:13.000Z</time>
      </trkpt>
      <trkpt lat="49.81325" lon="4.79357">
        <ele>173</ele>
        <time>2021-05-15T08:27:14.000Z</time>
      </trkpt>
      <trkpt lat="49.81325" lon="4.79348">
        <ele>173</ele>
        <time>2021-05-15T08:27:15.000Z</time>
      </trkpt>
      <trkpt lat="49.81326" lon="4.7934">
        <ele>173</ele>
        <time>2021-05-15T08:27:16.000Z</time>
      </trkpt>
      <trkpt lat="49.81327" lon="4.79332">
        <ele>173</ele>
        <time>2021-05-15T08:27:17.000Z</time>
      </trkpt>
      <trkpt lat="49.81327" lon="4.79323">
        <ele>173</ele>
        <time>2021-05-15T08:27:18.000Z</time>
      </trkpt>
      <trkpt lat="49.81328" lon="4.79315">
        <ele>173</ele>
        <time>2021-05-15T08:27:19.000Z</time>
      </trkpt>
      <trkpt lat="49.81328" lon="4.79307">
        <ele>173</ele>
        <time>2021-05-15T08:27:20.000Z</time>
      </trkpt>
      <trkpt lat="49.81328" lon="4.79298">
        <ele>173</ele>
        <time>2021-05-15T08:27:21.000Z</time>
      </trkpt>
      <trkpt lat="49.81328" lon="4.7929">
        <ele>173</ele>
        <time>2021-05-15T08:27:22.000Z</time>
      </trkpt>
      <trkpt lat="49.81328" lon="4.79282">
        <ele>173</ele>
        <time>2021-05-15T08:27:23.000Z</time>
      </trkpt>
      <trkpt lat="49.81328" lon="4.79274">
        <ele>173</ele>
        <time>2021-05-15T08:27:24.000Z</time>
      </trkpt>
      <trkpt lat="49.81328" lon="4.79266">
        <ele>174</ele>
        <time>2021-05-15T08:27:25.000Z</time>
      </trkpt>
      <trkpt lat="49.81329" lon="4.79257">
        <ele>174</ele>
        <time>2021-05-15T08:27:26.000Z</time>
      </trkpt>
      <trkpt lat="49.81329" lon="4.79249">
        <ele>174</ele>
        <time>2021-05-15T08:27:27.000Z</time>
      </trkpt>
      <trkpt lat="49.8133" lon="4.79241">
        <ele>174</ele>
        <time>2021-05-15T08:27:28.000Z</time>
      </trkpt>
      <trkpt lat="49.81331" lon="4.79232">
        <ele>174</ele>
        <time>2021-05-15T08:27:29.000Z</time>
      </trkpt>
      <trkpt lat="49.81332" lon="4.79224">
        <ele>174</ele>
        <time>2021-05-15T08:27:30.000Z</time>
      </trkpt>
      <trkpt lat="49.81333" lon="4.79215">
        <ele>174</ele>
        <time>2021-05-15T08:27:31.000Z</time>
      </trkpt>
      <trkpt lat="49.81334" lon="4.79207">
        <ele>174</ele>
        <time>2021-05-15T08:27:32.000Z</time>
      </trkpt>
      <trkpt lat="49.81335" lon="4.79198">
        <ele>174</ele>
        <time>2021-05-15T08:27:33.000Z</time>
      </trkpt>
      <trkpt lat="49.81336" lon="4.79189">
        <ele>174</ele>
        <time>2021-05-15T08:27:34.000Z</time>
      </trkpt>
      <trkpt lat="49.81338" lon="4.7918">
        <ele>174</ele>
        <time>2021-05-15T08:27:35.000Z</time>
      </trkpt>
      <trkpt lat="49.81339" lon="4.79172">
        <ele>174</ele>
        <time>2021-05-15T08:27:36.000Z</time>
      </trkpt>
      <trkpt lat="49.81341" lon="4.79163">
        <ele>174</ele>
        <time>2021-05-15T08:27:37.000Z</time>
      </trkpt>
      <trkpt lat="49.81343" lon="4.79155">
        <ele>175</ele>
        <time>2021-05-15T08:27:38.000Z</time>
      </trkpt>
      <trkpt lat="49.81345" lon="4.79147">
        <ele>175</ele>
        <time>2021-05-15T08:27:39.000Z</time>
      </trkpt>
      <trkpt lat="49.81347" lon="4.79138">
        <ele>175</ele>
        <time>2021-05-15T08:27:40.000Z</time>
      </trkpt>
      <trkpt lat="49.8135" lon="4.79131">
        <ele>175</ele>
        <time>2021-05-15T08:27:41.000Z</time>
      </trkpt>
      <trkpt lat="49.81352" lon="4.79123">
        <ele>175</ele>
        <time>2021-05-15T08:27:42.000Z</time>
      </trkpt>
      <trkpt lat="49.81354" lon="4.79115">
        <ele>175</ele>
        <time>2021-05-15T08:27:43.000Z</time>
      </trkpt>
      <trkpt lat="49.81356" lon="4.79107">
        <ele>175</ele>
        <time>2021-05-15T08:27:44.000Z</time>
      </trkpt>
      <trkpt lat="49.81358" lon="4.79098">
        <ele>175</ele>
        <time>2021-05-15T08:27:45.000Z</time>
      </trkpt>
      <trkpt lat="49.81361" lon="4.7909">
        <ele>175</ele>
        <time>2021-05-15T08:27:46.000Z</time>
      </trkpt>
      <trkpt lat="49.81364" lon="4.79082">
        <ele>175</ele>
        <time>2021-05-15T08:27:47.000Z</time>
      </trkpt>
      <trkpt lat="49.81366" lon="4.79074">
        <ele>175</ele>
        <time>2021-05-15T08:27:48.000Z</time>
      </trkpt>
      <trkpt lat="49.81369" lon="4.79066">
        <ele>175</ele>
        <time>2021-05-15T08:27:49.000Z</time>
      </trkpt>
      <trkpt lat="49.81373" lon="4.79059">
        <ele>175</ele>
        <time>2021-05-15T08:27:50.000Z</time>
      </trkpt>
      <trkpt lat="49.81376" lon="4.79051">
        <ele>175</ele>
        <time>2021-05-15T08:27:51.000Z</time>
      </trkpt>
      <trkpt lat="49.81379" lon="4.79043">
        <ele>175</ele>
        <time>2021-05-15T08:27:52.000Z</time>
      </trkpt>
      <trkpt lat="49.81382" lon="4.79035">
        <ele>175</ele>
        <time>2021-05-15T08:27:53.000Z</time>
      </trkpt>
      <trkpt lat="49.81385" lon="4.79027">
        <ele>175</ele>
        <time>2021-05-15T08:27:54.000Z</time>
      </trkpt>
      <trkpt lat="49.81388" lon="4.79019">
        <ele>175</ele>
        <time>2021-05-15T08:27:55.000Z</time>
      </trkpt>
      <trkpt lat="49.8139" lon="4.79011">
        <ele>175</ele>
        <time>2021-05-15T08:27:56.000Z</time>
      </trkpt>
      <trkpt lat="49.81393" lon="4.79004">
        <ele>175</ele>
        <time>2021-05-15T08:27:57.000Z</time>
      </trkpt>
      <trkpt lat="49.81396" lon="4.78996">
        <ele>175</ele>
        <time>2021-05-15T08:27:58.000Z</time>
      </trkpt>
      <trkpt lat="49.81399" lon="4.78988">
        <ele>175</ele>
        <time>2021-05-15T08:27:59.000Z</time>
      </trkpt>
      <trkpt lat="49.81402" lon="4.7898">
        <ele>175</ele>
        <time>2021-05-15T08:28:00.000Z</time>
      </trkpt>
      <trkpt lat="49.81405" lon="4.78972">
        <ele>175</ele>
        <time>2021-05-15T08:28:01.000Z</time>
      </trkpt>
      <trkpt lat="49.81408" lon="4.78964">
        <ele>175</ele>
        <time>2021-05-15T08:28:02.000Z</time>
      </trkpt>
      <trkpt lat="49.8141" lon="4.78956">
        <ele>175</ele>
        <time>2021-05-15T08:28:03.000Z</time>
      </trkpt>
      <trkpt lat="49.81413" lon="4.78948">
        <ele>175</ele>
        <time>2021-05-15T08:28:04.000Z</time>
      </trkpt>
      <trkpt lat="49.81415" lon="4.7894">
        <ele>175</ele>
        <time>2021-05-15T08:28:05.000Z</time>
      </trkpt>
      <trkpt lat="49.81417" lon="4.78932">
        <ele>175</ele>
        <time>2021-05-15T08:28:06.000Z</time>
      </trkpt>
      <trkpt lat="49.81419" lon="4.78923">
        <ele>175</ele>
        <time>2021-05-15T08:28:07.000Z</time>
      </trkpt>
      <trkpt lat="49.81421" lon="4.78915">
        <ele>175</ele>
        <time>2021-05-15T08:28:08.000Z</time>
      </trkpt>
      <trkpt lat="49.81423" lon="4.78907">
        <ele>175</ele>
        <time>2021-05-15T08:28:09.000Z</time>
      </trkpt>
      <trkpt lat="49.81425" lon="4.78898">
        <ele>175</ele>
        <time>2021-05-15T08:28:10.000Z</time>
      </trkpt>
      <trkpt lat="49.81426" lon="4.7889">
        <ele>175</ele>
        <time>2021-05-15T08:28:11.000Z</time>
      </trkpt>
      <trkpt lat="49.81428" lon="4.78881">
        <ele>175</ele>
        <time>2021-05-15T08:28:12.000Z</time>
      </trkpt>
      <trkpt lat="49.81429" lon="4.78873">
        <ele>175</ele>
        <time>2021-05-15T08:28:13.000Z</time>
      </trkpt>
      <trkpt lat="49.81431" lon="4.78864">
        <ele>175</ele>
        <time>2021-05-15T08:28:14.000Z</time>
      </trkpt>
      <trkpt lat="49.81433" lon="4.78856">
        <ele>175</ele>
        <time>2021-05-15T08:28:15.000Z</time>
      </trkpt>
      <trkpt lat="49.81434" lon="4.78847">
        <ele>175</ele>
        <time>2021-05-15T08:28:16.000Z</time>
      </trkpt>
      <trkpt lat="49.81437" lon="4.78838">
        <ele>175</ele>
        <time>2021-05-15T08:28:17.000Z</time>
      </trkpt>
      <trkpt lat="49.81439" lon="4.78829">
        <ele>175</ele>
        <time>2021-05-15T08:28:18.000Z</time>
      </trkpt>
      <trkpt lat="49.81441" lon="4.78821">
        <ele>175</ele>
        <time>2021-05-15T08:28:19.000Z</time>
      </trkpt>
      <trkpt lat="49.81444" lon="4.78812">
        <ele>175</ele>
        <time>2021-05-15T08:28:20.000Z</time>
      </trkpt>
      <trkpt lat="49.81447" lon="4.78804">
        <ele>175</ele>
        <time>2021-05-15T08:28:21.000Z</time>
      </trkpt>
      <trkpt lat="49.81449" lon="4.78795">
        <ele>175</ele>
        <time>2021-05-15T08:28:22.000Z</time>
      </trkpt>
      <trkpt lat="49.81452" lon="4.78786">
        <ele>175</ele>
        <time>2021-05-15T08:28:23.000Z</time>
      </trkpt>
      <trkpt lat="49.81455" lon="4.78777">
        <ele>175</ele>
        <time>2021-05-15T08:28:24.000Z</time>
      </trkpt>
      <trkpt lat="49.81458" lon="4.78768">
        <ele>175</ele>
        <time>2021-05-15T08:28:25.000Z</time>
      </trkpt>
      <trkpt lat="49.81461" lon="4.7876">
        <ele>175</ele>
        <time>2021-05-15T08:28:26.000Z</time>
      </trkpt>
      <trkpt lat="49.81464" lon="4.78752">
        <ele>175</ele>
        <time>2021-05-15T08:28:27.000Z</time>
      </trkpt>
      <trkpt lat="49.81467" lon="4.78745">
        <ele>175</ele>
        <time>2021-05-15T08:28:28.000Z</time>
      </trkpt>
      <trkpt lat="49.8147" lon="4.78738">
        <ele>175</ele>
        <time>2021-05-15T08:28:29.000Z</time>
      </trkpt>
      <trkpt lat="49.81473" lon="4.78731">
        <ele>175</ele>
        <time>2021-05-15T08:28:30.000Z</time>
      </trkpt>
      <trkpt lat="49.81477" lon="4.78724">
        <ele>175</ele>
        <time>2021-05-15T08:28:31.000Z</time>
      </trkpt>
      <trkpt lat="49.8148" lon="4.78718">
        <ele>175</ele>
        <time>2021-05-15T08:28:32.000Z</time>
      </trkpt>
      <trkpt lat="49.81482" lon="4.78711">
        <ele>175</ele>
        <time>2021-05-15T08:28:33.000Z</time>
      </trkpt>
      <trkpt lat="49.81483" lon="4.78703">
        <ele>174</ele>
        <time>2021-05-15T08:28:34.000Z</time>
      </trkpt>
      <trkpt lat="49.81482" lon="4.78695">
        <ele>174</ele>
        <time>2021-05-15T08:28:35.000Z</time>
      </trkpt>
      <trkpt lat="49.81481" lon="4.78685">
        <ele>174</ele>
        <time>2021-05-15T08:28:36.000Z</time>
      </trkpt>
      <trkpt lat="49.81479" lon="4.78675">
        <ele>174</ele>
        <time>2021-05-15T08:28:37.000Z</time>
      </trkpt>
      <trkpt lat="49.81477" lon="4.78663">
        <ele>174</ele>
        <time>2021-05-15T08:28:38.000Z</time>
      </trkpt>
      <trkpt lat="49.81476" lon="4.78652">
        <ele>174</ele>
        <time>2021-05-15T08:28:39.000Z</time>
      </trkpt>
      <trkpt lat="49.81475" lon="4.7864">
        <ele>173</ele>
        <time>2021-05-15T08:28:40.000Z</time>
      </trkpt>
      <trkpt lat="49.81475" lon="4.78628">
        <ele>173</ele>
        <time>2021-05-15T08:28:41.000Z</time>
      </trkpt>
      <trkpt lat="49.81477" lon="4.78616">
        <ele>173</ele>
        <time>2021-05-15T08:28:42.000Z</time>
      </trkpt>
      <trkpt lat="49.81479" lon="4.78604">
        <ele>173</ele>
        <time>2021-05-15T08:28:43.000Z</time>
      </trkpt>
      <trkpt lat="49.81482" lon="4.78592">
        <ele>173</ele>
        <time>2021-05-15T08:28:44.000Z</time>
      </trkpt>
      <trkpt lat="49.81485" lon="4.78581">
        <ele>173</ele>
        <time>2021-05-15T08:28:45.000Z</time>
      </trkpt>
      <trkpt lat="49.81489" lon="4.78571">
        <ele>172</ele>
        <time>2021-05-15T08:28:46.000Z</time>
      </trkpt>
      <trkpt lat="49.81494" lon="4.78561">
        <ele>172</ele>
        <time>2021-05-15T08:28:47.000Z</time>
      </trkpt>
      <trkpt lat="49.81498" lon="4.78552">
        <ele>172</ele>
        <time>2021-05-15T08:28:48.000Z</time>
      </trkpt>
      <trkpt lat="49.81503" lon="4.78543">
        <ele>171</ele>
        <time>2021-05-15T08:28:49.000Z</time>
      </trkpt>
      <trkpt lat="49.81508" lon="4.78534">
        <ele>171</ele>
        <time>2021-05-15T08:28:50.000Z</time>
      </trkpt>
      <trkpt lat="49.81514" lon="4.78525">
        <ele>170</ele>
        <time>2021-05-15T08:28:51.000Z</time>
      </trkpt>
      <trkpt lat="49.81519" lon="4.78517">
        <ele>170</ele>
        <time>2021-05-15T08:28:52.000Z</time>
      </trkpt>
      <trkpt lat="49.81525" lon="4.78509">
        <ele>170</ele>
        <time>2021-05-15T08:28:53.000Z</time>
      </trkpt>
      <trkpt lat="49.81529" lon="4.785">
        <ele>169</ele>
        <time>2021-05-15T08:28:54.000Z</time>
      </trkpt>
      <trkpt lat="49.81534" lon="4.78492">
        <ele>169</ele>
        <time>2021-05-15T08:28:55.000Z</time>
      </trkpt>
      <trkpt lat="49.81537" lon="4.78483">
        <ele>169</ele>
        <time>2021-05-15T08:28:56.000Z</time>
      </trkpt>
      <trkpt lat="49.8154" lon="4.78474">
        <ele>168</ele>
        <time>2021-05-15T08:28:57.000Z</time>
      </trkpt>
      <trkpt lat="49.81541" lon="4.78464">
        <ele>168</ele>
        <time>2021-05-15T08:28:58.000Z</time>
      </trkpt>
      <trkpt lat="49.81542" lon="4.78454">
        <ele>168</ele>
        <time>2021-05-15T08:28:59.000Z</time>
      </trkpt>
      <trkpt lat="49.81542" lon="4.78443">
        <ele>167</ele>
        <time>2021-05-15T08:29:00.000Z</time>
      </trkpt>
      <trkpt lat="49.81542" lon="4.78433">
        <ele>167</ele>
        <time>2021-05-15T08:29:01.000Z</time>
      </trkpt>
      <trkpt lat="49.81543" lon="4.78423">
        <ele>167</ele>
        <time>2021-05-15T08:29:02.000Z</time>
      </trkpt>
      <trkpt lat="49.81543" lon="4.78412">
        <ele>166</ele>
        <time>2021-05-15T08:29:03.000Z</time>
      </trkpt>
      <trkpt lat="49.81543" lon="4.78402">
        <ele>166</ele>
        <time>2021-05-15T08:29:04.000Z</time>
      </trkpt>
      <trkpt lat="49.81544" lon="4.78392">
        <ele>166</ele>
        <time>2021-05-15T08:29:05.000Z</time>
      </trkpt>
      <trkpt lat="49.81545" lon="4.78383">
        <ele>166</ele>
        <time>2021-05-15T08:29:06.000Z</time>
      </trkpt>
      <trkpt lat="49.81547" lon="4.78374">
        <ele>165</ele>
        <time>2021-05-15T08:29:07.000Z</time>
      </trkpt>
      <trkpt lat="49.81549" lon="4.78366">
        <ele>165</ele>
        <time>2021-05-15T08:29:08.000Z</time>
      </trkpt>
      <trkpt lat="49.81551" lon="4.78358">
        <ele>165</ele>
        <time>2021-05-15T08:29:09.000Z</time>
      </trkpt>
      <trkpt lat="49.81551" lon="4.7835">
        <ele>165</ele>
        <time>2021-05-15T08:29:10.000Z</time>
      </trkpt>
      <trkpt lat="49.81552" lon="4.78343">
        <ele>165</ele>
        <time>2021-05-15T08:29:11.000Z</time>
      </trkpt>
      <trkpt lat="49.81554" lon="4.78337">
        <ele>165</ele>
        <time>2021-05-15T08:29:12.000Z</time>
      </trkpt>
      <trkpt lat="49.81556" lon="4.78332">
        <ele>165</ele>
        <time>2021-05-15T08:29:13.000Z</time>
      </trkpt>
      <trkpt lat="49.81559" lon="4.78328">
        <ele>165</ele>
        <time>2021-05-15T08:29:14.000Z</time>
      </trkpt>
      <trkpt lat="49.81562" lon="4.78324">
        <ele>165</ele>
        <time>2021-05-15T08:29:15.000Z</time>
      </trkpt>
      <trkpt lat="49.81565" lon="4.78319">
        <ele>165</ele>
        <time>2021-05-15T08:29:16.000Z</time>
      </trkpt>
      <trkpt lat="49.81568" lon="4.78314">
        <ele>165</ele>
        <time>2021-05-15T08:29:17.000Z</time>
      </trkpt>
      <trkpt lat="49.8157" lon="4.78309">
        <ele>165</ele>
        <time>2021-05-15T08:29:18.000Z</time>
      </trkpt>
      <trkpt lat="49.81572" lon="4.78304">
        <ele>164</ele>
        <time>2021-05-15T08:29:19.000Z</time>
      </trkpt>
      <trkpt lat="49.81573" lon="4.783">
        <ele>164</ele>
        <time>2021-05-15T08:29:20.000Z</time>
      </trkpt>
      <trkpt lat="49.81575" lon="4.78295">
        <ele>165</ele>
        <time>2021-05-15T08:29:21.000Z</time>
      </trkpt>
      <trkpt lat="49.81576" lon="4.78291">
        <ele>165</ele>
        <time>2021-05-15T08:29:22.000Z</time>
      </trkpt>
      <trkpt lat="49.81577" lon="4.78287">
        <ele>165</ele>
        <time>2021-05-15T08:29:23.000Z</time>
      </trkpt>
      <trkpt lat="49.81579" lon="4.78284">
        <ele>165</ele>
        <time>2021-05-15T08:29:24.000Z</time>
      </trkpt>
      <trkpt lat="49.81582" lon="4.78283">
        <ele>165</ele>
        <time>2021-05-15T08:29:25.000Z</time>
      </trkpt>
      <trkpt lat="49.81584" lon="4.78284">
        <ele>165</ele>
        <time>2021-05-15T08:29:26.000Z</time>
      </trkpt>
      <trkpt lat="49.81586" lon="4.78287">
        <ele>165</ele>
        <time>2021-05-15T08:29:27.000Z</time>
      </trkpt>
      <trkpt lat="49.81587" lon="4.78291">
        <ele>166</ele>
        <time>2021-05-15T08:29:28.000Z</time>
      </trkpt>
      <trkpt lat="49.81587" lon="4.78294">
        <ele>166</ele>
        <time>2021-05-15T08:29:29.000Z</time>
      </trkpt>
      <trkpt lat="49.81587" lon="4.78297">
        <ele>166</ele>
        <time>2021-05-15T08:29:30.000Z</time>
      </trkpt>
      <trkpt lat="49.81588" lon="4.78301">
        <ele>166</ele>
        <time>2021-05-15T08:29:31.000Z</time>
      </trkpt>
      <trkpt lat="49.81588" lon="4.78305">
        <ele>166</ele>
        <time>2021-05-15T08:29:32.000Z</time>
      </trkpt>
      <trkpt lat="49.81588" lon="4.78309">
        <ele>167</ele>
        <time>2021-05-15T08:29:33.000Z</time>
      </trkpt>
      <trkpt lat="49.81586" lon="4.78311">
        <ele>167</ele>
        <time>2021-05-15T08:29:34.000Z</time>
      </trkpt>
      <trkpt lat="49.81584" lon="4.78312">
        <ele>167</ele>
        <time>2021-05-15T08:29:35.000Z</time>
      </trkpt>
      <trkpt lat="49.81582" lon="4.78313">
        <ele>167</ele>
        <time>2021-05-15T08:29:36.000Z</time>
      </trkpt>
      <trkpt lat="49.8158" lon="4.78313">
        <ele>167</ele>
        <time>2021-05-15T08:29:37.000Z</time>
      </trkpt>
      <trkpt lat="49.81577" lon="4.78314">
        <ele>167</ele>
        <time>2021-05-15T08:29:38.000Z</time>
      </trkpt>
      <trkpt lat="49.81573" lon="4.78316">
        <ele>167</ele>
        <time>2021-05-15T08:29:39.000Z</time>
      </trkpt>
      <trkpt lat="49.81569" lon="4.78318">
        <ele>168</ele>
        <time>2021-05-15T08:29:40.000Z</time>
      </trkpt>
      <trkpt lat="49.81567" lon="4.78321">
        <ele>168</ele>
        <time>2021-05-15T08:29:41.000Z</time>
      </trkpt>
      <trkpt lat="49.81566" lon="4.78323">
        <ele>168</ele>
        <time>2021-05-15T08:29:42.000Z</time>
      </trkpt>
      <trkpt lat="49.81567" lon="4.78323">
        <ele>168</ele>
        <time>2021-05-15T08:29:43.000Z</time>
      </trkpt>
      <trkpt lat="49.81568" lon="4.78321">
        <ele>168</ele>
        <time>2021-05-15T08:29:44.000Z</time>
      </trkpt>
      <trkpt lat="49.81569" lon="4.78319">
        <ele>168</ele>
        <time>2021-05-15T08:29:45.000Z</time>
      </trkpt>
      <trkpt lat="49.81569" lon="4.78315">
        <ele>168</ele>
        <time>2021-05-15T08:29:46.000Z</time>
      </trkpt>
      <trkpt lat="49.81569" lon="4.7831">
        <ele>168</ele>
        <time>2021-05-15T08:29:47.000Z</time>
      </trkpt>
      <trkpt lat="49.81569" lon="4.78306">
        <ele>168</ele>
        <time>2021-05-15T08:29:48.000Z</time>
      </trkpt>
      <trkpt lat="49.8157" lon="4.78303">
        <ele>169</ele>
        <time>2021-05-15T08:29:49.000Z</time>
      </trkpt>
      <trkpt lat="49.81571" lon="4.78299">
        <ele>169</ele>
        <time>2021-05-15T08:29:50.000Z</time>
      </trkpt>
      <trkpt lat="49.81573" lon="4.78294">
        <ele>169</ele>
        <time>2021-05-15T08:29:51.000Z</time>
      </trkpt>
      <trkpt lat="49.81575" lon="4.78291">
        <ele>169</ele>
        <time>2021-05-15T08:29:52.000Z</time>
      </trkpt>
      <trkpt lat="49.81577" lon="4.78288">
        <ele>169</ele>
        <time>2021-05-15T08:29:53.000Z</time>
      </trkpt>
      <trkpt lat="49.8158" lon="4.78288">
        <ele>169</ele>
        <time>2021-05-15T08:29:54.000Z</time>
      </trkpt>
      <trkpt lat="49.81583" lon="4.78289">
        <ele>169</ele>
        <time>2021-05-15T08:29:55.000Z</time>
      </trkpt>
      <trkpt lat="49.81586" lon="4.78292">
        <ele>169</ele>
        <time>2021-05-15T08:29:56.000Z</time>
      </trkpt>
      <trkpt lat="49.81588" lon="4.78295">
        <ele>169</ele>
        <time>2021-05-15T08:29:57.000Z</time>
      </trkpt>
      <trkpt lat="49.81589" lon="4.78297">
        <ele>169</ele>
        <time>2021-05-15T08:29:58.000Z</time>
      </trkpt>
      <trkpt lat="49.81589" lon="4.783">
        <ele>169</ele>
        <time>2021-05-15T08:29:59.000Z</time>
      </trkpt>
      <trkpt lat="49.8159" lon="4.78304">
        <ele>169</ele>
        <time>2021-05-15T08:30:00.000Z</time>
      </trkpt>
      <trkpt lat="49.81589" lon="4.78308">
        <ele>170</ele>
        <time>2021-05-15T08:30:01.000Z</time>
      </trkpt>
      <trkpt lat="49.81588" lon="4.78311">
        <ele>170</ele>
        <time>2021-05-15T08:30:02.000Z</time>
      </trkpt>
      <trkpt lat="49.81586" lon="4.78313">
        <ele>170</ele>
        <time>2021-05-15T08:30:03.000Z</time>
      </trkpt>
      <trkpt lat="49.81584" lon="4.78314">
        <ele>170</ele>
        <time>2021-05-15T08:30:04.000Z</time>
      </trkpt>
      <trkpt lat="49.81581" lon="4.78315">
        <ele>170</ele>
        <time>2021-05-15T08:30:05.000Z</time>
      </trkpt>
      <trkpt lat="49.81579" lon="4.78316">
        <ele>170</ele>
        <time>2021-05-15T08:30:06.000Z</time>
      </trkpt>
      <trkpt lat="49.81577" lon="4.78317">
        <ele>170</ele>
        <time>2021-05-15T08:30:07.000Z</time>
      </trkpt>
      <trkpt lat="49.81573" lon="4.78318">
        <ele>170</ele>
        <time>2021-05-15T08:30:08.000Z</time>
      </trkpt>
      <trkpt lat="49.81569" lon="4.78321">
        <ele>170</ele>
        <time>2021-05-15T08:30:09.000Z</time>
      </trkpt>
      <trkpt lat="49.81567" lon="4.78324">
        <ele>171</ele>
        <time>2021-05-15T08:30:10.000Z</time>
      </trkpt>
      <trkpt lat="49.81567" lon="4.78327">
        <ele>171</ele>
        <time>2021-05-15T08:30:11.000Z</time>
      </trkpt>
      <trkpt lat="49.81567" lon="4.78327">
        <ele>171</ele>
        <time>2021-05-15T08:30:12.000Z</time>
      </trkpt>
      <trkpt lat="49.81568" lon="4.78325">
        <ele>171</ele>
        <time>2021-05-15T08:30:13.000Z</time>
      </trkpt>
      <trkpt lat="49.81569" lon="4.78321">
        <ele>171</ele>
        <time>2021-05-15T08:30:14.000Z</time>
      </trkpt>
      <trkpt lat="49.8157" lon="4.78318">
        <ele>171</ele>
        <time>2021-05-15T08:30:15.000Z</time>
      </trkpt>
      <trkpt lat="49.8157" lon="4.78314">
        <ele>171</ele>
        <time>2021-05-15T08:30:16.000Z</time>
      </trkpt>
      <trkpt lat="49.8157" lon="4.7831">
        <ele>171</ele>
        <time>2021-05-15T08:30:17.000Z</time>
      </trkpt>
      <trkpt lat="49.81571" lon="4.78306">
        <ele>171</ele>
        <time>2021-05-15T08:30:18.000Z</time>
      </trkpt>
      <trkpt lat="49.81572" lon="4.78302">
        <ele>171</ele>
        <time>2021-05-15T08:30:19.000Z</time>
      </trkpt>
      <trkpt lat="49.81574" lon="4.78298">
        <ele>172</ele>
        <time>2021-05-15T08:30:20.000Z</time>
      </trkpt>
      <trkpt lat="49.81575" lon="4.78294">
        <ele>172</ele>
        <time>2021-05-15T08:30:21.000Z</time>
      </trkpt>
      <trkpt lat="49.81576" lon="4.78291">
        <ele>172</ele>
        <time>2021-05-15T08:30:22.000Z</time>
      </trkpt>
      <trkpt lat="49.81578" lon="4.78289">
        <ele>172</ele>
        <time>2021-05-15T08:30:23.000Z</time>
      </trkpt>
      <trkpt lat="49.81581" lon="4.78289">
        <ele>172</ele>
        <time>2021-05-15T08:30:24.000Z</time>
      </trkpt>
      <trkpt lat="49.81583" lon="4.78291">
        <ele>172</ele>
        <time>2021-05-15T08:30:25.000Z</time>
      </trkpt>
      <trkpt lat="49.81586" lon="4.78293">
        <ele>172</ele>
        <time>2021-05-15T08:30:26.000Z</time>
      </trkpt>
      <trkpt lat="49.81587" lon="4.78296">
        <ele>172</ele>
        <time>2021-05-15T08:30:27.000Z</time>
      </trkpt>
      <trkpt lat="49.81588" lon="4.78299">
        <ele>172</ele>
        <time>2021-05-15T08:30:28.000Z</time>
      </trkpt>
      <trkpt lat="49.8159" lon="4.78303">
        <ele>172</ele>
        <time>2021-05-15T08:30:29.000Z</time>
      </trkpt>
      <trkpt lat="49.8159" lon="4.78307">
        <ele>173</ele>
        <time>2021-05-15T08:30:30.000Z</time>
      </trkpt>
      <trkpt lat="49.81589" lon="4.78311">
        <ele>173</ele>
        <time>2021-05-15T08:30:31.000Z</time>
      </trkpt>
      <trkpt lat="49.81588" lon="4.78314">
        <ele>173</ele>
        <time>2021-05-15T08:30:32.000Z</time>
      </trkpt>
      <trkpt lat="49.81585" lon="4.78315">
        <ele>173</ele>
        <time>2021-05-15T08:30:33.000Z</time>
      </trkpt>
      <trkpt lat="49.81583" lon="4.78316">
        <ele>173</ele>
        <time>2021-05-15T08:30:34.000Z</time>
      </trkpt>
      <trkpt lat="49.8158" lon="4.78316">
        <ele>173</ele>
        <time>2021-05-15T08:30:35.000Z</time>
      </trkpt>
      <trkpt lat="49.81577" lon="4.78317">
        <ele>173</ele>
        <time>2021-05-15T08:30:36.000Z</time>
      </trkpt>
      <trkpt lat="49.81574" lon="4.78319">
        <ele>173</ele>
        <time>2021-05-15T08:30:37.000Z</time>
      </trkpt>
      <trkpt lat="49.8157" lon="4.78321">
        <ele>172</ele>
        <time>2021-05-15T08:30:38.000Z</time>
      </trkpt>
      <trkpt lat="49.81567" lon="4.78323">
        <ele>172</ele>
        <time>2021-05-15T08:30:39.000Z</time>
      </trkpt>
      <trkpt lat="49.81565" lon="4.78326">
        <ele>172</ele>
        <time>2021-05-15T08:30:40.000Z</time>
      </trkpt>
      <trkpt lat="49.81564" lon="4.78327">
        <ele>172</ele>
        <time>2021-05-15T08:30:41.000Z</time>
      </trkpt>
      <trkpt lat="49.81565" lon="4.78325">
        <ele>172</ele>
        <time>2021-05-15T08:30:42.000Z</time>
      </trkpt>
      <trkpt lat="49.81565" lon="4.78323">
        <ele>172</ele>
        <time>2021-05-15T08:30:43.000Z</time>
      </trkpt>
      <trkpt lat="49.81566" lon="4.7832">
        <ele>172</ele>
        <time>2021-05-15T08:30:44.000Z</time>
      </trkpt>
      <trkpt lat="49.81567" lon="4.78316">
        <ele>172</ele>
        <time>2021-05-15T08:30:45.000Z</time>
      </trkpt>
      <trkpt lat="49.81568" lon="4.78313">
        <ele>172</ele>
        <time>2021-05-15T08:30:46.000Z</time>
      </trkpt>
      <trkpt lat="49.81568" lon="4.7831">
        <ele>172</ele>
        <time>2021-05-15T08:30:47.000Z</time>
      </trkpt>
      <trkpt lat="49.81569" lon="4.78306">
        <ele>172</ele>
        <time>2021-05-15T08:30:48.000Z</time>
      </trkpt>
      <trkpt lat="49.81571" lon="4.78302">
        <ele>172</ele>
        <time>2021-05-15T08:30:49.000Z</time>
      </trkpt>
      <trkpt lat="49.81572" lon="4.78297">
        <ele>172</ele>
        <time>2021-05-15T08:30:50.000Z</time>
      </trkpt>
      <trkpt lat="49.81574" lon="4.78293">
        <ele>172</ele>
        <time>2021-05-15T08:30:51.000Z</time>
      </trkpt>
      <trkpt lat="49.81575" lon="4.78289">
        <ele>172</ele>
        <time>2021-05-15T08:30:52.000Z</time>
      </trkpt>
      <trkpt lat="49.81576" lon="4.78285">
        <ele>172</ele>
        <time>2021-05-15T08:30:53.000Z</time>
      </trkpt>
      <trkpt lat="49.81577" lon="4.78281">
        <ele>172</ele>
        <time>2021-05-15T08:30:54.000Z</time>
      </trkpt>
      <trkpt lat="49.81579" lon="4.78277">
        <ele>172</ele>
        <time>2021-05-15T08:30:55.000Z</time>
      </trkpt>
      <trkpt lat="49.8158" lon="4.78271">
        <ele>172</ele>
        <time>2021-05-15T08:30:56.000Z</time>
      </trkpt>
      <trkpt lat="49.81581" lon="4.78264">
        <ele>172</ele>
        <time>2021-05-15T08:30:57.000Z</time>
      </trkpt>
      <trkpt lat="49.81582" lon="4.78257">
        <ele>172</ele>
        <time>2021-05-15T08:30:58.000Z</time>
      </trkpt>
      <trkpt lat="49.81584" lon="4.78249">
        <ele>172</ele>
        <time>2021-05-15T08:30:59.000Z</time>
      </trkpt>
      <trkpt lat="49.81586" lon="4.7824">
        <ele>172</ele>
        <time>2021-05-15T08:31:00.000Z</time>
      </trkpt>
      <trkpt lat="49.81587" lon="4.78231">
        <ele>172</ele>
        <time>2021-05-15T08:31:01.000Z</time>
      </trkpt>
      <trkpt lat="49.81587" lon="4.78222">
        <ele>172</ele>
        <time>2021-05-15T08:31:02.000Z</time>
      </trkpt>
      <trkpt lat="49.81588" lon="4.78213">
        <ele>172</ele>
        <time>2021-05-15T08:31:03.000Z</time>
      </trkpt>
      <trkpt lat="49.81589" lon="4.78204">
        <ele>172</ele>
        <time>2021-05-15T08:31:04.000Z</time>
      </trkpt>
      <trkpt lat="49.81591" lon="4.78195">
        <ele>172</ele>
        <time>2021-05-15T08:31:05.000Z</time>
      </trkpt>
      <trkpt lat="49.81593" lon="4.78188">
        <ele>172</ele>
        <time>2021-05-15T08:31:06.000Z</time>
      </trkpt>
      <trkpt lat="49.81595" lon="4.78182">
        <ele>172</ele>
        <time>2021-05-15T08:31:07.000Z</time>
      </trkpt>
      <trkpt lat="49.81596" lon="4.78175">
        <ele>172</ele>
        <time>2021-05-15T08:31:08.000Z</time>
      </trkpt>
      <trkpt lat="49.81597" lon="4.78168">
        <ele>172</ele>
        <time>2021-05-15T08:31:09.000Z</time>
      </trkpt>
      <trkpt lat="49.81598" lon="4.78162">
        <ele>172</ele>
        <time>2021-05-15T08:31:10.000Z</time>
      </trkpt>
      <trkpt lat="49.816" lon="4.78155">
        <ele>172</ele>
        <time>2021-05-15T08:31:11.000Z</time>
      </trkpt>
      <trkpt lat="49.81601" lon="4.78149">
        <ele>172</ele>
        <time>2021-05-15T08:31:12.000Z</time>
      </trkpt>
      <trkpt lat="49.81602" lon="4.78143">
        <ele>172</ele>
        <time>2021-05-15T08:31:13.000Z</time>
      </trkpt>
      <trkpt lat="49.81603" lon="4.78136">
        <ele>172</ele>
        <time>2021-05-15T08:31:14.000Z</time>
      </trkpt>
      <trkpt lat="49.81605" lon="4.78128">
        <ele>172</ele>
        <time>2021-05-15T08:31:15.000Z</time>
      </trkpt>
      <trkpt lat="49.81607" lon="4.78121">
        <ele>172</ele>
        <time>2021-05-15T08:31:16.000Z</time>
      </trkpt>
      <trkpt lat="49.81609" lon="4.78115">
        <ele>172</ele>
        <time>2021-05-15T08:31:17.000Z</time>
      </trkpt>
      <trkpt lat="49.81611" lon="4.78109">
        <ele>172</ele>
        <time>2021-05-15T08:31:18.000Z</time>
      </trkpt>
      <trkpt lat="49.81613" lon="4.78102">
        <ele>173</ele>
        <time>2021-05-15T08:31:19.000Z</time>
      </trkpt>
      <trkpt lat="49.81616" lon="4.78095">
        <ele>173</ele>
        <time>2021-05-15T08:31:20.000Z</time>
      </trkpt>
      <trkpt lat="49.81619" lon="4.78088">
        <ele>173</ele>
        <time>2021-05-15T08:31:21.000Z</time>
      </trkpt>
      <trkpt lat="49.81621" lon="4.7808">
        <ele>173</ele>
        <time>2021-05-15T08:31:22.000Z</time>
      </trkpt>
      <trkpt lat="49.81623" lon="4.78073">
        <ele>173</ele>
        <time>2021-05-15T08:31:23.000Z</time>
      </trkpt>
      <trkpt lat="49.81625" lon="4.78065">
        <ele>173</ele>
        <time>2021-05-15T08:31:24.000Z</time>
      </trkpt>
      <trkpt lat="49.81626" lon="4.78058">
        <ele>174</ele>
        <time>2021-05-15T08:31:25.000Z</time>
      </trkpt>
      <trkpt lat="49.81627" lon="4.78051">
        <ele>174</ele>
        <time>2021-05-15T08:31:26.000Z</time>
      </trkpt>
      <trkpt lat="49.81628" lon="4.78045">
        <ele>174</ele>
        <time>2021-05-15T08:31:27.000Z</time>
      </trkpt>
      <trkpt lat="49.81629" lon="4.78037">
        <ele>174</ele>
        <time>2021-05-15T08:31:28.000Z</time>
      </trkpt>
      <trkpt lat="49.8163" lon="4.7803">
        <ele>175</ele>
        <time>2021-05-15T08:31:29.000Z</time>
      </trkpt>
      <trkpt lat="49.81631" lon="4.78023">
        <ele>175</ele>
        <time>2021-05-15T08:31:30.000Z</time>
      </trkpt>
      <trkpt lat="49.81633" lon="4.78016">
        <ele>175</ele>
        <time>2021-05-15T08:31:31.000Z</time>
      </trkpt>
      <trkpt lat="49.81635" lon="4.78009">
        <ele>175</ele>
        <time>2021-05-15T08:31:32.000Z</time>
      </trkpt>
      <trkpt lat="49.81637" lon="4.78003">
        <ele>175</ele>
        <time>2021-05-15T08:31:33.000Z</time>
      </trkpt>
      <trkpt lat="49.81639" lon="4.77997">
        <ele>175</ele>
        <time>2021-05-15T08:31:34.000Z</time>
      </trkpt>
      <trkpt lat="49.81641" lon="4.77991">
        <ele>175</ele>
        <time>2021-05-15T08:31:35.000Z</time>
      </trkpt>
      <trkpt lat="49.81643" lon="4.77984">
        <ele>175</ele>
        <time>2021-05-15T08:31:36.000Z</time>
      </trkpt>
      <trkpt lat="49.81645" lon="4.77976">
        <ele>175</ele>
        <time>2021-05-15T08:31:37.000Z</time>
      </trkpt>
      <trkpt lat="49.81646" lon="4.77968">
        <ele>176</ele>
        <time>2021-05-15T08:31:38.000Z</time>
      </trkpt>
      <trkpt lat="49.81648" lon="4.77961">
        <ele>176</ele>
        <time>2021-05-15T08:31:39.000Z</time>
      </trkpt>
      <trkpt lat="49.81649" lon="4.77953">
        <ele>176</ele>
        <time>2021-05-15T08:31:40.000Z</time>
      </trkpt>
      <trkpt lat="49.8165" lon="4.77947">
        <ele>176</ele>
        <time>2021-05-15T08:31:41.000Z</time>
      </trkpt>
      <trkpt lat="49.81652" lon="4.77939">
        <ele>176</ele>
        <time>2021-05-15T08:31:42.000Z</time>
      </trkpt>
      <trkpt lat="49.81653" lon="4.77933">
        <ele>176</ele>
        <time>2021-05-15T08:31:43.000Z</time>
      </trkpt>
      <trkpt lat="49.81655" lon="4.77927">
        <ele>176</ele>
        <time>2021-05-15T08:31:44.000Z</time>
      </trkpt>
      <trkpt lat="49.81656" lon="4.77921">
        <ele>176</ele>
        <time>2021-05-15T08:31:45.000Z</time>
      </trkpt>
      <trkpt lat="49.81658" lon="4.77914">
        <ele>177</ele>
        <time>2021-05-15T08:31:46.000Z</time>
      </trkpt>
      <trkpt lat="49.8166" lon="4.77908">
        <ele>177</ele>
        <time>2021-05-15T08:31:47.000Z</time>
      </trkpt>
      <trkpt lat="49.81662" lon="4.77902">
        <ele>177</ele>
        <time>2021-05-15T08:31:48.000Z</time>
      </trkpt>
      <trkpt lat="49.81665" lon="4.77896">
        <ele>177</ele>
        <time>2021-05-15T08:31:49.000Z</time>
      </trkpt>
      <trkpt lat="49.81667" lon="4.7789">
        <ele>177</ele>
        <time>2021-05-15T08:31:50.000Z</time>
      </trkpt>
      <trkpt lat="49.81669" lon="4.77882">
        <ele>177</ele>
        <time>2021-05-15T08:31:51.000Z</time>
      </trkpt>
      <trkpt lat="49.8167" lon="4.77874">
        <ele>177</ele>
        <time>2021-05-15T08:31:52.000Z</time>
      </trkpt>
      <trkpt lat="49.81671" lon="4.77866">
        <ele>178</ele>
        <time>2021-05-15T08:31:53.000Z</time>
      </trkpt>
      <trkpt lat="49.81671" lon="4.77858">
        <ele>178</ele>
        <time>2021-05-15T08:31:54.000Z</time>
      </trkpt>
      <trkpt lat="49.81673" lon="4.77851">
        <ele>178</ele>
        <time>2021-05-15T08:31:55.000Z</time>
      </trkpt>
      <trkpt lat="49.81674" lon="4.77844">
        <ele>178</ele>
        <time>2021-05-15T08:31:56.000Z</time>
      </trkpt>
      <trkpt lat="49.81676" lon="4.77838">
        <ele>178</ele>
        <time>2021-05-15T08:31:57.000Z</time>
      </trkpt>
      <trkpt lat="49.81678" lon="4.77831">
        <ele>179</ele>
        <time>2021-05-15T08:31:58.000Z</time>
      </trkpt>
      <trkpt lat="49.81679" lon="4.77824">
        <ele>179</ele>
        <time>2021-05-15T08:31:59.000Z</time>
      </trkpt>
      <trkpt lat="49.8168" lon="4.77817">
        <ele>179</ele>
        <time>2021-05-15T08:32:00.000Z</time>
      </trkpt>
      <trkpt lat="49.81682" lon="4.7781">
        <ele>179</ele>
        <time>2021-05-15T08:32:01.000Z</time>
      </trkpt>
      <trkpt lat="49.81684" lon="4.77803">
        <ele>179</ele>
        <time>2021-05-15T08:32:02.000Z</time>
      </trkpt>
      <trkpt lat="49.81685" lon="4.77796">
        <ele>179</ele>
        <time>2021-05-15T08:32:03.000Z</time>
      </trkpt>
      <trkpt lat="49.81687" lon="4.7779">
        <ele>179</ele>
        <time>2021-05-15T08:32:04.000Z</time>
      </trkpt>
      <trkpt lat="49.81689" lon="4.77783">
        <ele>179</ele>
        <time>2021-05-15T08:32:05.000Z</time>
      </trkpt>
      <trkpt lat="49.81691" lon="4.77777">
        <ele>179</ele>
        <time>2021-05-15T08:32:06.000Z</time>
      </trkpt>
      <trkpt lat="49.81693" lon="4.7777">
        <ele>179</ele>
        <time>2021-05-15T08:32:07.000Z</time>
      </trkpt>
      <trkpt lat="49.81696" lon="4.77762">
        <ele>179</ele>
        <time>2021-05-15T08:32:08.000Z</time>
      </trkpt>
      <trkpt lat="49.81698" lon="4.77755">
        <ele>179</ele>
        <time>2021-05-15T08:32:09.000Z</time>
      </trkpt>
      <trkpt lat="49.81701" lon="4.77749">
        <ele>179</ele>
        <time>2021-05-15T08:32:10.000Z</time>
      </trkpt>
      <trkpt lat="49.81704" lon="4.77742">
        <ele>179</ele>
        <time>2021-05-15T08:32:11.000Z</time>
      </trkpt>
      <trkpt lat="49.81707" lon="4.77735">
        <ele>179</ele>
        <time>2021-05-15T08:32:12.000Z</time>
      </trkpt>
      <trkpt lat="49.8171" lon="4.77727">
        <ele>178</ele>
        <time>2021-05-15T08:32:13.000Z</time>
      </trkpt>
      <trkpt lat="49.81714" lon="4.7772">
        <ele>178</ele>
        <time>2021-05-15T08:32:14.000Z</time>
      </trkpt>
      <trkpt lat="49.81717" lon="4.77713">
        <ele>177</ele>
        <time>2021-05-15T08:32:15.000Z</time>
      </trkpt>
      <trkpt lat="49.81719" lon="4.77705">
        <ele>177</ele>
        <time>2021-05-15T08:32:16.000Z</time>
      </trkpt>
      <trkpt lat="49.81722" lon="4.77698">
        <ele>176</ele>
        <time>2021-05-15T08:32:17.000Z</time>
      </trkpt>
      <trkpt lat="49.81725" lon="4.77691">
        <ele>176</ele>
        <time>2021-05-15T08:32:18.000Z</time>
      </trkpt>
      <trkpt lat="49.81728" lon="4.77684">
        <ele>176</ele>
        <time>2021-05-15T08:32:19.000Z</time>
      </trkpt>
      <trkpt lat="49.81731" lon="4.77677">
        <ele>176</ele>
        <time>2021-05-15T08:32:20.000Z</time>
      </trkpt>
      <trkpt lat="49.81734" lon="4.77669">
        <ele>175</ele>
        <time>2021-05-15T08:32:21.000Z</time>
      </trkpt>
      <trkpt lat="49.81737" lon="4.77662">
        <ele>175</ele>
        <time>2021-05-15T08:32:22.000Z</time>
      </trkpt>
      <trkpt lat="49.81739" lon="4.77656">
        <ele>175</ele>
        <time>2021-05-15T08:32:23.000Z</time>
      </trkpt>
      <trkpt lat="49.81742" lon="4.77649">
        <ele>175</ele>
        <time>2021-05-15T08:32:24.000Z</time>
      </trkpt>
      <trkpt lat="49.81745" lon="4.77642">
        <ele>174</ele>
        <time>2021-05-15T08:32:25.000Z</time>
      </trkpt>
      <trkpt lat="49.81748" lon="4.77637">
        <ele>174</ele>
        <time>2021-05-15T08:32:26.000Z</time>
      </trkpt>
      <trkpt lat="49.8175" lon="4.77631">
        <ele>174</ele>
        <time>2021-05-15T08:32:27.000Z</time>
      </trkpt>
      <trkpt lat="49.81753" lon="4.77625">
        <ele>173</ele>
        <time>2021-05-15T08:32:28.000Z</time>
      </trkpt>
      <trkpt lat="49.81756" lon="4.77618">
        <ele>173</ele>
        <time>2021-05-15T08:32:29.000Z</time>
      </trkpt>
      <trkpt lat="49.81759" lon="4.77611">
        <ele>173</ele>
        <time>2021-05-15T08:32:30.000Z</time>
      </trkpt>
      <trkpt lat="49.81762" lon="4.77606">
        <ele>172</ele>
        <time>2021-05-15T08:32:31.000Z</time>
      </trkpt>
      <trkpt lat="49.81765" lon="4.77602">
        <ele>172</ele>
        <time>2021-05-15T08:32:32.000Z</time>
      </trkpt>
      <trkpt lat="49.81768" lon="4.77598">
        <ele>172</ele>
        <time>2021-05-15T08:32:33.000Z</time>
      </trkpt>
      <trkpt lat="49.81771" lon="4.77593">
        <ele>172</ele>
        <time>2021-05-15T08:32:34.000Z</time>
      </trkpt>
      <trkpt lat="49.81773" lon="4.77587">
        <ele>172</ele>
        <time>2021-05-15T08:32:35.000Z</time>
      </trkpt>
      <trkpt lat="49.81776" lon="4.77583">
        <ele>172</ele>
        <time>2021-05-15T08:32:36.000Z</time>
      </trkpt>
      <trkpt lat="49.81779" lon="4.77579">
        <ele>172</ele>
        <time>2021-05-15T08:32:37.000Z</time>
      </trkpt>
      <trkpt lat="49.81782" lon="4.77574">
        <ele>172</ele>
        <time>2021-05-15T08:32:38.000Z</time>
      </trkpt>
      <trkpt lat="49.81785" lon="4.77569">
        <ele>171</ele>
        <time>2021-05-15T08:32:39.000Z</time>
      </trkpt>
      <trkpt lat="49.81787" lon="4.77563">
        <ele>171</ele>
        <time>2021-05-15T08:32:40.000Z</time>
      </trkpt>
      <trkpt lat="49.81789" lon="4.77556">
        <ele>171</ele>
        <time>2021-05-15T08:32:41.000Z</time>
      </trkpt>
      <trkpt lat="49.81791" lon="4.77548">
        <ele>171</ele>
        <time>2021-05-15T08:32:42.000Z</time>
      </trkpt>
      <trkpt lat="49.81793" lon="4.77542">
        <ele>171</ele>
        <time>2021-05-15T08:32:43.000Z</time>
      </trkpt>
      <trkpt lat="49.81795" lon="4.77536">
        <ele>171</ele>
        <time>2021-05-15T08:32:44.000Z</time>
      </trkpt>
      <trkpt lat="49.81796" lon="4.7753">
        <ele>171</ele>
        <time>2021-05-15T08:32:45.000Z</time>
      </trkpt>
      <trkpt lat="49.81798" lon="4.77524">
        <ele>172</ele>
        <time>2021-05-15T08:32:46.000Z</time>
      </trkpt>
      <trkpt lat="49.818" lon="4.77518">
        <ele>172</ele>
        <time>2021-05-15T08:32:47.000Z</time>
      </trkpt>
      <trkpt lat="49.81802" lon="4.77511">
        <ele>172</ele>
        <time>2021-05-15T08:32:48.000Z</time>
      </trkpt>
      <trkpt lat="49.81804" lon="4.77505">
        <ele>172</ele>
        <time>2021-05-15T08:32:49.000Z</time>
      </trkpt>
      <trkpt lat="49.81806" lon="4.775">
        <ele>172</ele>
        <time>2021-05-15T08:32:50.000Z</time>
      </trkpt>
      <trkpt lat="49.81808" lon="4.77494">
        <ele>173</ele>
        <time>2021-05-15T08:32:51.000Z</time>
      </trkpt>
      <trkpt lat="49.8181" lon="4.77487">
        <ele>173</ele>
        <time>2021-05-15T08:32:52.000Z</time>
      </trkpt>
      <trkpt lat="49.81812" lon="4.77481">
        <ele>174</ele>
        <time>2021-05-15T08:32:53.000Z</time>
      </trkpt>
      <trkpt lat="49.81812" lon="4.77475">
        <ele>174</ele>
        <time>2021-05-15T08:32:54.000Z</time>
      </trkpt>
      <trkpt lat="49.81813" lon="4.77468">
        <ele>174</ele>
        <time>2021-05-15T08:32:55.000Z</time>
      </trkpt>
      <trkpt lat="49.81815" lon="4.77461">
        <ele>175</ele>
        <time>2021-05-15T08:32:56.000Z</time>
      </trkpt>
      <trkpt lat="49.81816" lon="4.77454">
        <ele>175</ele>
        <time>2021-05-15T08:32:57.000Z</time>
      </trkpt>
      <trkpt lat="49.81816" lon="4.77445">
        <ele>175</ele>
        <time>2021-05-15T08:32:58.000Z</time>
      </trkpt>
      <trkpt lat="49.81817" lon="4.77436">
        <ele>175</ele>
        <time>2021-05-15T08:32:59.000Z</time>
      </trkpt>
      <trkpt lat="49.81818" lon="4.77427">
        <ele>175</ele>
        <time>2021-05-15T08:33:00.000Z</time>
      </trkpt>
      <trkpt lat="49.81819" lon="4.77417">
        <ele>175</ele>
        <time>2021-05-15T08:33:01.000Z</time>
      </trkpt>
      <trkpt lat="49.8182" lon="4.77408">
        <ele>175</ele>
        <time>2021-05-15T08:33:02.000Z</time>
      </trkpt>
      <trkpt lat="49.81822" lon="4.77399">
        <ele>175</ele>
        <time>2021-05-15T08:33:03.000Z</time>
      </trkpt>
      <trkpt lat="49.81822" lon="4.7739">
        <ele>175</ele>
        <time>2021-05-15T08:33:04.000Z</time>
      </trkpt>
      <trkpt lat="49.81823" lon="4.77381">
        <ele>175</ele>
        <time>2021-05-15T08:33:05.000Z</time>
      </trkpt>
      <trkpt lat="49.81824" lon="4.77373">
        <ele>175</ele>
        <time>2021-05-15T08:33:06.000Z</time>
      </trkpt>
      <trkpt lat="49.81825" lon="4.77365">
        <ele>175</ele>
        <time>2021-05-15T08:33:07.000Z</time>
      </trkpt>
      <trkpt lat="49.81825" lon="4.77357">
        <ele>175</ele>
        <time>2021-05-15T08:33:08.000Z</time>
      </trkpt>
      <trkpt lat="49.81826" lon="4.77349">
        <ele>175</ele>
        <time>2021-05-15T08:33:09.000Z</time>
      </trkpt>
      <trkpt lat="49.81826" lon="4.77341">
        <ele>175</ele>
        <time>2021-05-15T08:33:10.000Z</time>
      </trkpt>
      <trkpt lat="49.81826" lon="4.77332">
        <ele>175</ele>
        <time>2021-05-15T08:33:11.000Z</time>
      </trkpt>
      <trkpt lat="49.81826" lon="4.77324">
        <ele>175</ele>
        <time>2021-05-15T08:33:12.000Z</time>
      </trkpt>
      <trkpt lat="49.81826" lon="4.77318">
        <ele>175</ele>
        <time>2021-05-15T08:33:13.000Z</time>
      </trkpt>
      <trkpt lat="49.81827" lon="4.77312">
        <ele>175</ele>
        <time>2021-05-15T08:33:14.000Z</time>
      </trkpt>
      <trkpt lat="49.81827" lon="4.77307">
        <ele>175</ele>
        <time>2021-05-15T08:33:15.000Z</time>
      </trkpt>
      <trkpt lat="49.81828" lon="4.77303">
        <ele>174</ele>
        <time>2021-05-15T08:33:16.000Z</time>
      </trkpt>
      <trkpt lat="49.81829" lon="4.773">
        <ele>174</ele>
        <time>2021-05-15T08:33:17.000Z</time>
      </trkpt>
      <trkpt lat="49.8183" lon="4.773">
        <ele>174</ele>
        <time>2021-05-15T08:33:18.000Z</time>
      </trkpt>
      <trkpt lat="49.81832" lon="4.77301">
        <ele>174</ele>
        <time>2021-05-15T08:33:19.000Z</time>
      </trkpt>
      <trkpt lat="49.81832" lon="4.77303">
        <ele>174</ele>
        <time>2021-05-15T08:33:20.000Z</time>
      </trkpt>
      <trkpt lat="49.81833" lon="4.77305">
        <ele>174</ele>
        <time>2021-05-15T08:33:21.000Z</time>
      </trkpt>
      <trkpt lat="49.81833" lon="4.77307">
        <ele>174</ele>
        <time>2021-05-15T08:33:22.000Z</time>
      </trkpt>
      <trkpt lat="49.81833" lon="4.77309">
        <ele>173</ele>
        <time>2021-05-15T08:33:23.000Z</time>
      </trkpt>
      <trkpt lat="49.81834" lon="4.77311">
        <ele>173</ele>
        <time>2021-05-15T08:33:24.000Z</time>
      </trkpt>
      <trkpt lat="49.81834" lon="4.77313">
        <ele>173</ele>
        <time>2021-05-15T08:33:25.000Z</time>
      </trkpt>
      <trkpt lat="49.81834" lon="4.77315">
        <ele>173</ele>
        <time>2021-05-15T08:33:26.000Z</time>
      </trkpt>
      <trkpt lat="49.81834" lon="4.77318">
        <ele>173</ele>
        <time>2021-05-15T08:33:27.000Z</time>
      </trkpt>
      <trkpt lat="49.81834" lon="4.77321">
        <ele>173</ele>
        <time>2021-05-15T08:33:28.000Z</time>
      </trkpt>
      <trkpt lat="49.81834" lon="4.77324">
        <ele>173</ele>
        <time>2021-05-15T08:33:29.000Z</time>
      </trkpt>
      <trkpt lat="49.81834" lon="4.77327">
        <ele>173</ele>
        <time>2021-05-15T08:33:30.000Z</time>
      </trkpt>
      <trkpt lat="49.81835" lon="4.77329">
        <ele>173</ele>
        <time>2021-05-15T08:33:31.000Z</time>
      </trkpt>
      <trkpt lat="49.81836" lon="4.77332">
        <ele>173</ele>
        <time>2021-05-15T08:33:32.000Z</time>
      </trkpt>
      <trkpt lat="49.81837" lon="4.77333">
        <ele>173</ele>
        <time>2021-05-15T08:33:33.000Z</time>
      </trkpt>
      <trkpt lat="49.81838" lon="4.77333">
        <ele>173</ele>
        <time>2021-05-15T08:33:34.000Z</time>
      </trkpt>
      <trkpt lat="49.8184" lon="4.77333">
        <ele>173</ele>
        <time>2021-05-15T08:33:35.000Z</time>
      </trkpt>
      <trkpt lat="49.81841" lon="4.77331">
        <ele>173</ele>
        <time>2021-05-15T08:33:36.000Z</time>
      </trkpt>
      <trkpt lat="49.81842" lon="4.77329">
        <ele>173</ele>
        <time>2021-05-15T08:33:37.000Z</time>
      </trkpt>
      <trkpt lat="49.81843" lon="4.77325">
        <ele>173</ele>
        <time>2021-05-15T08:33:38.000Z</time>
      </trkpt>
      <trkpt lat="49.81843" lon="4.77322">
        <ele>173</ele>
        <time>2021-05-15T08:33:39.000Z</time>
      </trkpt>
      <trkpt lat="49.81842" lon="4.77317">
        <ele>173</ele>
        <time>2021-05-15T08:33:40.000Z</time>
      </trkpt>
      <trkpt lat="49.81843" lon="4.77312">
        <ele>173</ele>
        <time>2021-05-15T08:33:41.000Z</time>
      </trkpt>
      <trkpt lat="49.81844" lon="4.77307">
        <ele>173</ele>
        <time>2021-05-15T08:33:42.000Z</time>
      </trkpt>
      <trkpt lat="49.81845" lon="4.77304">
        <ele>173</ele>
        <time>2021-05-15T08:33:43.000Z</time>
      </trkpt>
      <trkpt lat="49.81846" lon="4.773">
        <ele>173</ele>
        <time>2021-05-15T08:33:44.000Z</time>
      </trkpt>
      <trkpt lat="49.81848" lon="4.77297">
        <ele>173</ele>
        <time>2021-05-15T08:33:45.000Z</time>
      </trkpt>
      <trkpt lat="49.8185" lon="4.77295">
        <ele>173</ele>
        <time>2021-05-15T08:33:46.000Z</time>
      </trkpt>
      <trkpt lat="49.81852" lon="4.77292">
        <ele>173</ele>
        <time>2021-05-15T08:33:47.000Z</time>
      </trkpt>
      <trkpt lat="49.81854" lon="4.7729">
        <ele>173</ele>
        <time>2021-05-15T08:33:48.000Z</time>
      </trkpt>
      <trkpt lat="49.81855" lon="4.77288">
        <ele>173</ele>
        <time>2021-05-15T08:33:49.000Z</time>
      </trkpt>
      <trkpt lat="49.81857" lon="4.77286">
        <ele>173</ele>
        <time>2021-05-15T08:33:50.000Z</time>
      </trkpt>
      <trkpt lat="49.81858" lon="4.77285">
        <ele>173</ele>
        <time>2021-05-15T08:33:51.000Z</time>
      </trkpt>
      <trkpt lat="49.8186" lon="4.77284">
        <ele>173</ele>
        <time>2021-05-15T08:33:52.000Z</time>
      </trkpt>
      <trkpt lat="49.81862" lon="4.77283">
        <ele>173</ele>
        <time>2021-05-15T08:33:53.000Z</time>
      </trkpt>
      <trkpt lat="49.81864" lon="4.77281">
        <ele>174</ele>
        <time>2021-05-15T08:33:54.000Z</time>
      </trkpt>
      <trkpt lat="49.81867" lon="4.77279">
        <ele>174</ele>
        <time>2021-05-15T08:33:55.000Z</time>
      </trkpt>
      <trkpt lat="49.8187" lon="4.77277">
        <ele>174</ele>
        <time>2021-05-15T08:33:56.000Z</time>
      </trkpt>
      <trkpt lat="49.81873" lon="4.77275">
        <ele>174</ele>
        <time>2021-05-15T08:33:57.000Z</time>
      </trkpt>
      <trkpt lat="49.81875" lon="4.77274">
        <ele>175</ele>
        <time>2021-05-15T08:33:58.000Z</time>
      </trkpt>
      <trkpt lat="49.81877" lon="4.77272">
        <ele>175</ele>
        <time>2021-05-15T08:33:59.000Z</time>
      </trkpt>
      <trkpt lat="49.81879" lon="4.7727">
        <ele>175</ele>
        <time>2021-05-15T08:34:00.000Z</time>
      </trkpt>
      <trkpt lat="49.81881" lon="4.77268">
        <ele>175</ele>
        <time>2021-05-15T08:34:01.000Z</time>
      </trkpt>
      <trkpt lat="49.81883" lon="4.77266">
        <ele>176</ele>
        <time>2021-05-15T08:34:02.000Z</time>
      </trkpt>
      <trkpt lat="49.81885" lon="4.77264">
        <ele>176</ele>
        <time>2021-05-15T08:34:03.000Z</time>
      </trkpt>
      <trkpt lat="49.81887" lon="4.77262">
        <ele>176</ele>
        <time>2021-05-15T08:34:04.000Z</time>
      </trkpt>
      <trkpt lat="49.81889" lon="4.7726">
        <ele>176</ele>
        <time>2021-05-15T08:34:05.000Z</time>
      </trkpt>
      <trkpt lat="49.81891" lon="4.77258">
        <ele>176</ele>
        <time>2021-05-15T08:34:06.000Z</time>
      </trkpt>
      <trkpt lat="49.81893" lon="4.77256">
        <ele>176</ele>
        <time>2021-05-15T08:34:07.000Z</time>
      </trkpt>
      <trkpt lat="49.81895" lon="4.77254">
        <ele>176</ele>
        <time>2021-05-15T08:34:08.000Z</time>
      </trkpt>
      <trkpt lat="49.81896" lon="4.77252">
        <ele>176</ele>
        <time>2021-05-15T08:34:09.000Z</time>
      </trkpt>
      <trkpt lat="49.81898" lon="4.77249">
        <ele>176</ele>
        <time>2021-05-15T08:34:10.000Z</time>
      </trkpt>
      <trkpt lat="49.819" lon="4.77247">
        <ele>176</ele>
        <time>2021-05-15T08:34:11.000Z</time>
      </trkpt>
      <trkpt lat="49.81902" lon="4.77244">
        <ele>176</ele>
        <time>2021-05-15T08:34:12.000Z</time>
      </trkpt>
      <trkpt lat="49.81903" lon="4.77242">
        <ele>175</ele>
        <time>2021-05-15T08:34:13.000Z</time>
      </trkpt>
      <trkpt lat="49.81906" lon="4.77239">
        <ele>175</ele>
        <time>2021-05-15T08:34:14.000Z</time>
      </trkpt>
      <trkpt lat="49.81908" lon="4.77236">
        <ele>175</ele>
        <time>2021-05-15T08:34:15.000Z</time>
      </trkpt>
      <trkpt lat="49.8191" lon="4.77233">
        <ele>175</ele>
        <time>2021-05-15T08:34:16.000Z</time>
      </trkpt>
      <trkpt lat="49.81913" lon="4.7723">
        <ele>175</ele>
        <time>2021-05-15T08:34:17.000Z</time>
      </trkpt>
      <trkpt lat="49.81915" lon="4.77226">
        <ele>175</ele>
        <time>2021-05-15T08:34:18.000Z</time>
      </trkpt>
      <trkpt lat="49.81917" lon="4.77222">
        <ele>175</ele>
        <time>2021-05-15T08:34:19.000Z</time>
      </trkpt>
      <trkpt lat="49.81919" lon="4.77217">
        <ele>175</ele>
        <time>2021-05-15T08:34:20.000Z</time>
      </trkpt>
      <trkpt lat="49.81922" lon="4.77213">
        <ele>175</ele>
        <time>2021-05-15T08:34:21.000Z</time>
      </trkpt>
      <trkpt lat="49.81924" lon="4.77209">
        <ele>175</ele>
        <time>2021-05-15T08:34:22.000Z</time>
      </trkpt>
      <trkpt lat="49.81926" lon="4.77204">
        <ele>175</ele>
        <time>2021-05-15T08:34:23.000Z</time>
      </trkpt>
      <trkpt lat="49.81928" lon="4.77199">
        <ele>175</ele>
        <time>2021-05-15T08:34:24.000Z</time>
      </trkpt>
      <trkpt lat="49.81931" lon="4.77194">
        <ele>175</ele>
        <time>2021-05-15T08:34:25.000Z</time>
      </trkpt>
      <trkpt lat="49.81934" lon="4.7719">
        <ele>175</ele>
        <time>2021-05-15T08:34:26.000Z</time>
      </trkpt>
      <trkpt lat="49.81937" lon="4.77186">
        <ele>175</ele>
        <time>2021-05-15T08:34:27.000Z</time>
      </trkpt>
      <trkpt lat="49.8194" lon="4.77182">
        <ele>175</ele>
        <time>2021-05-15T08:34:28.000Z</time>
      </trkpt>
      <trkpt lat="49.81943" lon="4.77178">
        <ele>176</ele>
        <time>2021-05-15T08:34:29.000Z</time>
      </trkpt>
      <trkpt lat="49.81945" lon="4.77175">
        <ele>176</ele>
        <time>2021-05-15T08:34:30.000Z</time>
      </trkpt>
      <trkpt lat="49.81947" lon="4.77172">
        <ele>176</ele>
        <time>2021-05-15T08:34:31.000Z</time>
      </trkpt>
      <trkpt lat="49.81949" lon="4.7717">
        <ele>176</ele>
        <time>2021-05-15T08:34:32.000Z</time>
      </trkpt>
      <trkpt lat="49.81951" lon="4.77168">
        <ele>176</ele>
        <time>2021-05-15T08:34:33.000Z</time>
      </trkpt>
      <trkpt lat="49.81953" lon="4.77166">
        <ele>176</ele>
        <time>2021-05-15T08:34:34.000Z</time>
      </trkpt>
      <trkpt lat="49.81954" lon="4.77164">
        <ele>177</ele>
        <time>2021-05-15T08:34:35.000Z</time>
      </trkpt>
      <trkpt lat="49.81956" lon="4.77162">
        <ele>177</ele>
        <time>2021-05-15T08:34:36.000Z</time>
      </trkpt>
      <trkpt lat="49.81958" lon="4.77158">
        <ele>177</ele>
        <time>2021-05-15T08:34:37.000Z</time>
      </trkpt>
      <trkpt lat="49.8196" lon="4.77155">
        <ele>177</ele>
        <time>2021-05-15T08:34:38.000Z</time>
      </trkpt>
      <trkpt lat="49.81962" lon="4.77152">
        <ele>177</ele>
        <time>2021-05-15T08:34:39.000Z</time>
      </trkpt>
      <trkpt lat="49.81964" lon="4.77149">
        <ele>177</ele>
        <time>2021-05-15T08:34:40.000Z</time>
      </trkpt>
      <trkpt lat="49.81965" lon="4.77147">
        <ele>178</ele>
        <time>2021-05-15T08:34:41.000Z</time>
      </trkpt>
      <trkpt lat="49.81967" lon="4.77144">
        <ele>178</ele>
        <time>2021-05-15T08:34:42.000Z</time>
      </trkpt>
      <trkpt lat="49.81969" lon="4.77141">
        <ele>178</ele>
        <time>2021-05-15T08:34:43.000Z</time>
      </trkpt>
      <trkpt lat="49.81971" lon="4.77139">
        <ele>178</ele>
        <time>2021-05-15T08:34:44.000Z</time>
      </trkpt>
      <trkpt lat="49.81973" lon="4.77137">
        <ele>178</ele>
        <time>2021-05-15T08:34:45.000Z</time>
      </trkpt>
      <trkpt lat="49.81975" lon="4.77135">
        <ele>179</ele>
        <time>2021-05-15T08:34:46.000Z</time>
      </trkpt>
      <trkpt lat="49.81976" lon="4.77133">
        <ele>179</ele>
        <time>2021-05-15T08:34:47.000Z</time>
      </trkpt>
      <trkpt lat="49.81978" lon="4.77131">
        <ele>179</ele>
        <time>2021-05-15T08:34:48.000Z</time>
      </trkpt>
      <trkpt lat="49.81979" lon="4.77129">
        <ele>179</ele>
        <time>2021-05-15T08:34:49.000Z</time>
      </trkpt>
      <trkpt lat="49.8198" lon="4.77126">
        <ele>180</ele>
        <time>2021-05-15T08:34:50.000Z</time>
      </trkpt>
      <trkpt lat="49.81981" lon="4.77124">
        <ele>180</ele>
        <time>2021-05-15T08:34:51.000Z</time>
      </trkpt>
      <trkpt lat="49.81983" lon="4.77122">
        <ele>180</ele>
        <time>2021-05-15T08:34:52.000Z</time>
      </trkpt>
      <trkpt lat="49.81984" lon="4.77119">
        <ele>180</ele>
        <time>2021-05-15T08:34:53.000Z</time>
      </trkpt>
      <trkpt lat="49.81985" lon="4.77117">
        <ele>180</ele>
        <time>2021-05-15T08:34:54.000Z</time>
      </trkpt>
      <trkpt lat="49.81986" lon="4.77115">
        <ele>181</ele>
        <time>2021-05-15T08:34:55.000Z</time>
      </trkpt>
      <trkpt lat="49.81987" lon="4.77112">
        <ele>181</ele>
        <time>2021-05-15T08:34:56.000Z</time>
      </trkpt>
      <trkpt lat="49.81987" lon="4.77109">
        <ele>181</ele>
        <time>2021-05-15T08:34:57.000Z</time>
      </trkpt>
      <trkpt lat="49.81988" lon="4.77106">
        <ele>181</ele>
        <time>2021-05-15T08:34:58.000Z</time>
      </trkpt>
      <trkpt lat="49.81989" lon="4.77103">
        <ele>182</ele>
        <time>2021-05-15T08:34:59.000Z</time>
      </trkpt>
      <trkpt lat="49.81991" lon="4.77099">
        <ele>182</ele>
        <time>2021-05-15T08:35:00.000Z</time>
      </trkpt>
      <trkpt lat="49.81992" lon="4.77094">
        <ele>182</ele>
        <time>2021-05-15T08:35:01.000Z</time>
      </trkpt>
      <trkpt lat="49.81994" lon="4.77089">
        <ele>182</ele>
        <time>2021-05-15T08:35:02.000Z</time>
      </trkpt>
      <trkpt lat="49.81996" lon="4.77085">
        <ele>183</ele>
        <time>2021-05-15T08:35:03.000Z</time>
      </trkpt>
      <trkpt lat="49.81998" lon="4.77082">
        <ele>183</ele>
        <time>2021-05-15T08:35:04.000Z</time>
      </trkpt>
      <trkpt lat="49.82" lon="4.77078">
        <ele>183</ele>
        <time>2021-05-15T08:35:05.000Z</time>
      </trkpt>
      <trkpt lat="49.82001" lon="4.77074">
        <ele>183</ele>
        <time>2021-05-15T08:35:06.000Z</time>
      </trkpt>
      <trkpt lat="49.82003" lon="4.7707">
        <ele>184</ele>
        <time>2021-05-15T08:35:07.000Z</time>
      </trkpt>
      <trkpt lat="49.82005" lon="4.77067">
        <ele>184</ele>
        <time>2021-05-15T08:35:08.000Z</time>
      </trkpt>
      <trkpt lat="49.82007" lon="4.77063">
        <ele>184</ele>
        <time>2021-05-15T08:35:09.000Z</time>
      </trkpt>
      <trkpt lat="49.82009" lon="4.77059">
        <ele>185</ele>
        <time>2021-05-15T08:35:10.000Z</time>
      </trkpt>
      <trkpt lat="49.8201" lon="4.77056">
        <ele>185</ele>
        <time>2021-05-15T08:35:11.000Z</time>
      </trkpt>
      <trkpt lat="49.82012" lon="4.77052">
        <ele>185</ele>
        <time>2021-05-15T08:35:12.000Z</time>
      </trkpt>
      <trkpt lat="49.82013" lon="4.77048">
        <ele>185</ele>
        <time>2021-05-15T08:35:13.000Z</time>
      </trkpt>
      <trkpt lat="49.82015" lon="4.77044">
        <ele>186</ele>
        <time>2021-05-15T08:35:14.000Z</time>
      </trkpt>
      <trkpt lat="49.82016" lon="4.77041">
        <ele>186</ele>
        <time>2021-05-15T08:35:15.000Z</time>
      </trkpt>
      <trkpt lat="49.82018" lon="4.77038">
        <ele>186</ele>
        <time>2021-05-15T08:35:16.000Z</time>
      </trkpt>
      <trkpt lat="49.82019" lon="4.77036">
        <ele>187</ele>
        <time>2021-05-15T08:35:17.000Z</time>
      </trkpt>
      <trkpt lat="49.8202" lon="4.77034">
        <ele>187</ele>
        <time>2021-05-15T08:35:18.000Z</time>
      </trkpt>
      <trkpt lat="49.82022" lon="4.77031">
        <ele>187</ele>
        <time>2021-05-15T08:35:19.000Z</time>
      </trkpt>
      <trkpt lat="49.82023" lon="4.77028">
        <ele>187</ele>
        <time>2021-05-15T08:35:20.000Z</time>
      </trkpt>
      <trkpt lat="49.82025" lon="4.77025">
        <ele>187</ele>
        <time>2021-05-15T08:35:21.000Z</time>
      </trkpt>
      <trkpt lat="49.82026" lon="4.77022">
        <ele>188</ele>
        <time>2021-05-15T08:35:22.000Z</time>
      </trkpt>
      <trkpt lat="49.82027" lon="4.7702">
        <ele>188</ele>
        <time>2021-05-15T08:35:23.000Z</time>
      </trkpt>
      <trkpt lat="49.82029" lon="4.77017">
        <ele>188</ele>
        <time>2021-05-15T08:35:24.000Z</time>
      </trkpt>
      <trkpt lat="49.8203" lon="4.77014">
        <ele>188</ele>
        <time>2021-05-15T08:35:25.000Z</time>
      </trkpt>
      <trkpt lat="49.82031" lon="4.77011">
        <ele>188</ele>
        <time>2021-05-15T08:35:26.000Z</time>
      </trkpt>
      <trkpt lat="49.82032" lon="4.77008">
        <ele>188</ele>
        <time>2021-05-15T08:35:27.000Z</time>
      </trkpt>
      <trkpt lat="49.82033" lon="4.77005">
        <ele>188</ele>
        <time>2021-05-15T08:35:28.000Z</time>
      </trkpt>
      <trkpt lat="49.82035" lon="4.77003">
        <ele>188</ele>
        <time>2021-05-15T08:35:29.000Z</time>
      </trkpt>
      <trkpt lat="49.82037" lon="4.77001">
        <ele>188</ele>
        <time>2021-05-15T08:35:30.000Z</time>
      </trkpt>
      <trkpt lat="49.82038" lon="4.76998">
        <ele>188</ele>
        <time>2021-05-15T08:35:31.000Z</time>
      </trkpt>
      <trkpt lat="49.8204" lon="4.76995">
        <ele>189</ele>
        <time>2021-05-15T08:35:32.000Z</time>
      </trkpt>
      <trkpt lat="49.82041" lon="4.76992">
        <ele>189</ele>
        <time>2021-05-15T08:35:33.000Z</time>
      </trkpt>
      <trkpt lat="49.82042" lon="4.76989">
        <ele>189</ele>
        <time>2021-05-15T08:35:34.000Z</time>
      </trkpt>
      <trkpt lat="49.82043" lon="4.76986">
        <ele>189</ele>
        <time>2021-05-15T08:35:35.000Z</time>
      </trkpt>
      <trkpt lat="49.82045" lon="4.76983">
        <ele>190</ele>
        <time>2021-05-15T08:35:36.000Z</time>
      </trkpt>
      <trkpt lat="49.82046" lon="4.76981">
        <ele>190</ele>
        <time>2021-05-15T08:35:37.000Z</time>
      </trkpt>
      <trkpt lat="49.82047" lon="4.76978">
        <ele>190</ele>
        <time>2021-05-15T08:35:38.000Z</time>
      </trkpt>
      <trkpt lat="49.82049" lon="4.76974">
        <ele>191</ele>
        <time>2021-05-15T08:35:39.000Z</time>
      </trkpt>
      <trkpt lat="49.8205" lon="4.76972">
        <ele>191</ele>
        <time>2021-05-15T08:35:40.000Z</time>
      </trkpt>
      <trkpt lat="49.82051" lon="4.76969">
        <ele>191</ele>
        <time>2021-05-15T08:35:41.000Z</time>
      </trkpt>
      <trkpt lat="49.82052" lon="4.76965">
        <ele>192</ele>
        <time>2021-05-15T08:35:42.000Z</time>
      </trkpt>
      <trkpt lat="49.82053" lon="4.76962">
        <ele>192</ele>
        <time>2021-05-15T08:35:43.000Z</time>
      </trkpt>
      <trkpt lat="49.82054" lon="4.76959">
        <ele>192</ele>
        <time>2021-05-15T08:35:44.000Z</time>
      </trkpt>
      <trkpt lat="49.82055" lon="4.76957">
        <ele>193</ele>
        <time>2021-05-15T08:35:45.000Z</time>
      </trkpt>
      <trkpt lat="49.82056" lon="4.76954">
        <ele>193</ele>
        <time>2021-05-15T08:35:46.000Z</time>
      </trkpt>
      <trkpt lat="49.82057" lon="4.76952">
        <ele>194</ele>
        <time>2021-05-15T08:35:47.000Z</time>
      </trkpt>
      <trkpt lat="49.82058" lon="4.76949">
        <ele>194</ele>
        <time>2021-05-15T08:35:48.000Z</time>
      </trkpt>
      <trkpt lat="49.82059" lon="4.76946">
        <ele>194</ele>
        <time>2021-05-15T08:35:49.000Z</time>
      </trkpt>
      <trkpt lat="49.8206" lon="4.76944">
        <ele>194</ele>
        <time>2021-05-15T08:35:50.000Z</time>
      </trkpt>
      <trkpt lat="49.82061" lon="4.76942">
        <ele>195</ele>
        <time>2021-05-15T08:35:51.000Z</time>
      </trkpt>
      <trkpt lat="49.82062" lon="4.7694">
        <ele>195</ele>
        <time>2021-05-15T08:35:52.000Z</time>
      </trkpt>
      <trkpt lat="49.82063" lon="4.76937">
        <ele>195</ele>
        <time>2021-05-15T08:35:53.000Z</time>
      </trkpt>
      <trkpt lat="49.82064" lon="4.76933">
        <ele>196</ele>
        <time>2021-05-15T08:35:54.000Z</time>
      </trkpt>
      <trkpt lat="49.82065" lon="4.7693">
        <ele>196</ele>
        <time>2021-05-15T08:35:55.000Z</time>
      </trkpt>
      <trkpt lat="49.82065" lon="4.7693">
        <ele>197</ele>
        <time>2021-05-15T08:35:56.000Z</time>
      </trkpt>
      <trkpt lat="49.82065" lon="4.76929">
        <ele>197</ele>
        <time>2021-05-15T08:35:57.000Z</time>
      </trkpt>
      <trkpt lat="49.82066" lon="4.76928">
        <ele>197</ele>
        <time>2021-05-15T08:35:58.000Z</time>
      </trkpt>
      <trkpt lat="49.82066" lon="4.76928">
        <ele>197</ele>
        <time>2021-05-15T08:35:59.000Z</time>
      </trkpt>
      <trkpt lat="49.82066" lon="4.76927">
        <ele>198</ele>
        <time>2021-05-15T08:36:00.000Z</time>
      </trkpt>
      <trkpt lat="49.82066" lon="4.76926">
        <ele>198</ele>
        <time>2021-05-15T08:36:01.000Z</time>
      </trkpt>
      <trkpt lat="49.82067" lon="4.76925">
        <ele>198</ele>
        <time>2021-05-15T08:36:02.000Z</time>
      </trkpt>
      <trkpt lat="49.82068" lon="4.76924">
        <ele>198</ele>
        <time>2021-05-15T08:36:03.000Z</time>
      </trkpt>
      <trkpt lat="49.82069" lon="4.76921">
        <ele>198</ele>
        <time>2021-05-15T08:36:04.000Z</time>
      </trkpt>
      <trkpt lat="49.8207" lon="4.76918">
        <ele>199</ele>
        <time>2021-05-15T08:36:05.000Z</time>
      </trkpt>
      <trkpt lat="49.82072" lon="4.76915">
        <ele>199</ele>
        <time>2021-05-15T08:36:06.000Z</time>
      </trkpt>
      <trkpt lat="49.82073" lon="4.76912">
        <ele>199</ele>
        <time>2021-05-15T08:36:07.000Z</time>
      </trkpt>
      <trkpt lat="49.82075" lon="4.76908">
        <ele>199</ele>
        <time>2021-05-15T08:36:08.000Z</time>
      </trkpt>
      <trkpt lat="49.82076" lon="4.76905">
        <ele>199</ele>
        <time>2021-05-15T08:36:09.000Z</time>
      </trkpt>
      <trkpt lat="49.82078" lon="4.76903">
        <ele>199</ele>
        <time>2021-05-15T08:36:10.000Z</time>
      </trkpt>
      <trkpt lat="49.82079" lon="4.76901">
        <ele>199</ele>
        <time>2021-05-15T08:36:11.000Z</time>
      </trkpt>
      <trkpt lat="49.82081" lon="4.76898">
        <ele>200</ele>
        <time>2021-05-15T08:36:12.000Z</time>
      </trkpt>
      <trkpt lat="49.82082" lon="4.76895">
        <ele>200</ele>
        <time>2021-05-15T08:36:13.000Z</time>
      </trkpt>
      <trkpt lat="49.82084" lon="4.76892">
        <ele>200</ele>
        <time>2021-05-15T08:36:14.000Z</time>
      </trkpt>
      <trkpt lat="49.82085" lon="4.7689">
        <ele>200</ele>
        <time>2021-05-15T08:36:15.000Z</time>
      </trkpt>
      <trkpt lat="49.82086" lon="4.76888">
        <ele>200</ele>
        <time>2021-05-15T08:36:16.000Z</time>
      </trkpt>
      <trkpt lat="49.82088" lon="4.76884">
        <ele>200</ele>
        <time>2021-05-15T08:36:17.000Z</time>
      </trkpt>
      <trkpt lat="49.82089" lon="4.76881">
        <ele>200</ele>
        <time>2021-05-15T08:36:18.000Z</time>
      </trkpt>
      <trkpt lat="49.82091" lon="4.76877">
        <ele>200</ele>
        <time>2021-05-15T08:36:19.000Z</time>
      </trkpt>
      <trkpt lat="49.82092" lon="4.76872">
        <ele>200</ele>
        <time>2021-05-15T08:36:20.000Z</time>
      </trkpt>
      <trkpt lat="49.82093" lon="4.76868">
        <ele>201</ele>
        <time>2021-05-15T08:36:21.000Z</time>
      </trkpt>
      <trkpt lat="49.82094" lon="4.76864">
        <ele>201</ele>
        <time>2021-05-15T08:36:22.000Z</time>
      </trkpt>
      <trkpt lat="49.82095" lon="4.76859">
        <ele>201</ele>
        <time>2021-05-15T08:36:23.000Z</time>
      </trkpt>
      <trkpt lat="49.82096" lon="4.76854">
        <ele>201</ele>
        <time>2021-05-15T08:36:24.000Z</time>
      </trkpt>
      <trkpt lat="49.82098" lon="4.76848">
        <ele>202</ele>
        <time>2021-05-15T08:36:25.000Z</time>
      </trkpt>
      <trkpt lat="49.82099" lon="4.76841">
        <ele>202</ele>
        <time>2021-05-15T08:36:26.000Z</time>
      </trkpt>
      <trkpt lat="49.82101" lon="4.76834">
        <ele>202</ele>
        <time>2021-05-15T08:36:27.000Z</time>
      </trkpt>
      <trkpt lat="49.82103" lon="4.76826">
        <ele>202</ele>
        <time>2021-05-15T08:36:28.000Z</time>
      </trkpt>
      <trkpt lat="49.82104" lon="4.76819">
        <ele>202</ele>
        <time>2021-05-15T08:36:29.000Z</time>
      </trkpt>
      <trkpt lat="49.82106" lon="4.76811">
        <ele>202</ele>
        <time>2021-05-15T08:36:30.000Z</time>
      </trkpt>
      <trkpt lat="49.82108" lon="4.76804">
        <ele>203</ele>
        <time>2021-05-15T08:36:31.000Z</time>
      </trkpt>
      <trkpt lat="49.8211" lon="4.76796">
        <ele>203</ele>
        <time>2021-05-15T08:36:32.000Z</time>
      </trkpt>
      <trkpt lat="49.82112" lon="4.76788">
        <ele>203</ele>
        <time>2021-05-15T08:36:33.000Z</time>
      </trkpt>
      <trkpt lat="49.82114" lon="4.7678">
        <ele>203</ele>
        <time>2021-05-15T08:36:34.000Z</time>
      </trkpt>
      <trkpt lat="49.82117" lon="4.76772">
        <ele>203</ele>
        <time>2021-05-15T08:36:35.000Z</time>
      </trkpt>
      <trkpt lat="49.8212" lon="4.76764">
        <ele>203</ele>
        <time>2021-05-15T08:36:36.000Z</time>
      </trkpt>
      <trkpt lat="49.82123" lon="4.76756">
        <ele>203</ele>
        <time>2021-05-15T08:36:37.000Z</time>
      </trkpt>
      <trkpt lat="49.82126" lon="4.76749">
        <ele>203</ele>
        <time>2021-05-15T08:36:38.000Z</time>
      </trkpt>
      <trkpt lat="49.82128" lon="4.76742">
        <ele>203</ele>
        <time>2021-05-15T08:36:39.000Z</time>
      </trkpt>
      <trkpt lat="49.82131" lon="4.76736">
        <ele>203</ele>
        <time>2021-05-15T08:36:40.000Z</time>
      </trkpt>
      <trkpt lat="49.82134" lon="4.76731">
        <ele>203</ele>
        <time>2021-05-15T08:36:41.000Z</time>
      </trkpt>
      <trkpt lat="49.82136" lon="4.76726">
        <ele>203</ele>
        <time>2021-05-15T08:36:42.000Z</time>
      </trkpt>
      <trkpt lat="49.82138" lon="4.76722">
        <ele>204</ele>
        <time>2021-05-15T08:36:43.000Z</time>
      </trkpt>
      <trkpt lat="49.82139" lon="4.76719">
        <ele>204</ele>
        <time>2021-05-15T08:36:44.000Z</time>
      </trkpt>
      <trkpt lat="49.8214" lon="4.76716">
        <ele>204</ele>
        <time>2021-05-15T08:36:45.000Z</time>
      </trkpt>
      <trkpt lat="49.82141" lon="4.76711">
        <ele>204</ele>
        <time>2021-05-15T08:36:46.000Z</time>
      </trkpt>
      <trkpt lat="49.82142" lon="4.76705">
        <ele>204</ele>
        <time>2021-05-15T08:36:47.000Z</time>
      </trkpt>
      <trkpt lat="49.82142" lon="4.76699">
        <ele>204</ele>
        <time>2021-05-15T08:36:48.000Z</time>
      </trkpt>
      <trkpt lat="49.82144" lon="4.76692">
        <ele>204</ele>
        <time>2021-05-15T08:36:49.000Z</time>
      </trkpt>
      <trkpt lat="49.82146" lon="4.76686">
        <ele>205</ele>
        <time>2021-05-15T08:36:50.000Z</time>
      </trkpt>
      <trkpt lat="49.82148" lon="4.76679">
        <ele>205</ele>
        <time>2021-05-15T08:36:51.000Z</time>
      </trkpt>
      <trkpt lat="49.8215" lon="4.76672">
        <ele>205</ele>
        <time>2021-05-15T08:36:52.000Z</time>
      </trkpt>
      <trkpt lat="49.82152" lon="4.76666">
        <ele>205</ele>
        <time>2021-05-15T08:36:53.000Z</time>
      </trkpt>
      <trkpt lat="49.82155" lon="4.76659">
        <ele>205</ele>
        <time>2021-05-15T08:36:54.000Z</time>
      </trkpt>
      <trkpt lat="49.82158" lon="4.76652">
        <ele>205</ele>
        <time>2021-05-15T08:36:55.000Z</time>
      </trkpt>
      <trkpt lat="49.82161" lon="4.76645">
        <ele>205</ele>
        <time>2021-05-15T08:36:56.000Z</time>
      </trkpt>
      <trkpt lat="49.82163" lon="4.76639">
        <ele>205</ele>
        <time>2021-05-15T08:36:57.000Z</time>
      </trkpt>
      <trkpt lat="49.82165" lon="4.76633">
        <ele>205</ele>
        <time>2021-05-15T08:36:58.000Z</time>
      </trkpt>
      <trkpt lat="49.82168" lon="4.76627">
        <ele>205</ele>
        <time>2021-05-15T08:36:59.000Z</time>
      </trkpt>
      <trkpt lat="49.8217" lon="4.76622">
        <ele>205</ele>
        <time>2021-05-15T08:37:00.000Z</time>
      </trkpt>
      <trkpt lat="49.82172" lon="4.76616">
        <ele>205</ele>
        <time>2021-05-15T08:37:01.000Z</time>
      </trkpt>
      <trkpt lat="49.82174" lon="4.76609">
        <ele>205</ele>
        <time>2021-05-15T08:37:02.000Z</time>
      </trkpt>
      <trkpt lat="49.82175" lon="4.76602">
        <ele>206</ele>
        <time>2021-05-15T08:37:03.000Z</time>
      </trkpt>
      <trkpt lat="49.82177" lon="4.76595">
        <ele>206</ele>
        <time>2021-05-15T08:37:04.000Z</time>
      </trkpt>
      <trkpt lat="49.82178" lon="4.76588">
        <ele>206</ele>
        <time>2021-05-15T08:37:05.000Z</time>
      </trkpt>
      <trkpt lat="49.8218" lon="4.76581">
        <ele>206</ele>
        <time>2021-05-15T08:37:06.000Z</time>
      </trkpt>
      <trkpt lat="49.82182" lon="4.76575">
        <ele>206</ele>
        <time>2021-05-15T08:37:07.000Z</time>
      </trkpt>
      <trkpt lat="49.82183" lon="4.76568">
        <ele>206</ele>
        <time>2021-05-15T08:37:08.000Z</time>
      </trkpt>
      <trkpt lat="49.82185" lon="4.76561">
        <ele>206</ele>
        <time>2021-05-15T08:37:09.000Z</time>
      </trkpt>
      <trkpt lat="49.82187" lon="4.76554">
        <ele>206</ele>
        <time>2021-05-15T08:37:10.000Z</time>
      </trkpt>
      <trkpt lat="49.82189" lon="4.76548">
        <ele>206</ele>
        <time>2021-05-15T08:37:11.000Z</time>
      </trkpt>
      <trkpt lat="49.8219" lon="4.76542">
        <ele>206</ele>
        <time>2021-05-15T08:37:12.000Z</time>
      </trkpt>
      <trkpt lat="49.82192" lon="4.76536">
        <ele>206</ele>
        <time>2021-05-15T08:37:13.000Z</time>
      </trkpt>
      <trkpt lat="49.82194" lon="4.7653">
        <ele>206</ele>
        <time>2021-05-15T08:37:14.000Z</time>
      </trkpt>
      <trkpt lat="49.82196" lon="4.76524">
        <ele>206</ele>
        <time>2021-05-15T08:37:15.000Z</time>
      </trkpt>
      <trkpt lat="49.82199" lon="4.76518">
        <ele>206</ele>
        <time>2021-05-15T08:37:16.000Z</time>
      </trkpt>
      <trkpt lat="49.82201" lon="4.76513">
        <ele>205</ele>
        <time>2021-05-15T08:37:17.000Z</time>
      </trkpt>
      <trkpt lat="49.82203" lon="4.76508">
        <ele>205</ele>
        <time>2021-05-15T08:37:18.000Z</time>
      </trkpt>
      <trkpt lat="49.82205" lon="4.76502">
        <ele>205</ele>
        <time>2021-05-15T08:37:19.000Z</time>
      </trkpt>
      <trkpt lat="49.82208" lon="4.76496">
        <ele>205</ele>
        <time>2021-05-15T08:37:20.000Z</time>
      </trkpt>
      <trkpt lat="49.82209" lon="4.76491">
        <ele>205</ele>
        <time>2021-05-15T08:37:21.000Z</time>
      </trkpt>
      <trkpt lat="49.82211" lon="4.76486">
        <ele>205</ele>
        <time>2021-05-15T08:37:22.000Z</time>
      </trkpt>
      <trkpt lat="49.82213" lon="4.76481">
        <ele>205</ele>
        <time>2021-05-15T08:37:23.000Z</time>
      </trkpt>
      <trkpt lat="49.82215" lon="4.76477">
        <ele>205</ele>
        <time>2021-05-15T08:37:24.000Z</time>
      </trkpt>
      <trkpt lat="49.82217" lon="4.76473">
        <ele>204</ele>
        <time>2021-05-15T08:37:25.000Z</time>
      </trkpt>
      <trkpt lat="49.82219" lon="4.76469">
        <ele>204</ele>
        <time>2021-05-15T08:37:26.000Z</time>
      </trkpt>
      <trkpt lat="49.82221" lon="4.76466">
        <ele>205</ele>
        <time>2021-05-15T08:37:27.000Z</time>
      </trkpt>
      <trkpt lat="49.82223" lon="4.76462">
        <ele>205</ele>
        <time>2021-05-15T08:37:28.000Z</time>
      </trkpt>
      <trkpt lat="49.82225" lon="4.7646">
        <ele>205</ele>
        <time>2021-05-15T08:37:29.000Z</time>
      </trkpt>
      <trkpt lat="49.82226" lon="4.76457">
        <ele>205</ele>
        <time>2021-05-15T08:37:30.000Z</time>
      </trkpt>
      <trkpt lat="49.82228" lon="4.76454">
        <ele>205</ele>
        <time>2021-05-15T08:37:31.000Z</time>
      </trkpt>
      <trkpt lat="49.82229" lon="4.76451">
        <ele>205</ele>
        <time>2021-05-15T08:37:32.000Z</time>
      </trkpt>
      <trkpt lat="49.82231" lon="4.76449">
        <ele>206</ele>
        <time>2021-05-15T08:37:33.000Z</time>
      </trkpt>
      <trkpt lat="49.82233" lon="4.76446">
        <ele>206</ele>
        <time>2021-05-15T08:37:34.000Z</time>
      </trkpt>
      <trkpt lat="49.82234" lon="4.76444">
        <ele>206</ele>
        <time>2021-05-15T08:37:35.000Z</time>
      </trkpt>
      <trkpt lat="49.82236" lon="4.76442">
        <ele>205</ele>
        <time>2021-05-15T08:37:36.000Z</time>
      </trkpt>
      <trkpt lat="49.82238" lon="4.76439">
        <ele>205</ele>
        <time>2021-05-15T08:37:37.000Z</time>
      </trkpt>
      <trkpt lat="49.82239" lon="4.76437">
        <ele>205</ele>
        <time>2021-05-15T08:37:38.000Z</time>
      </trkpt>
      <trkpt lat="49.82241" lon="4.76434">
        <ele>205</ele>
        <time>2021-05-15T08:37:39.000Z</time>
      </trkpt>
      <trkpt lat="49.82243" lon="4.76432">
        <ele>205</ele>
        <time>2021-05-15T08:37:40.000Z</time>
      </trkpt>
      <trkpt lat="49.82244" lon="4.76429">
        <ele>205</ele>
        <time>2021-05-15T08:37:41.000Z</time>
      </trkpt>
      <trkpt lat="49.82246" lon="4.76427">
        <ele>205</ele>
        <time>2021-05-15T08:37:42.000Z</time>
      </trkpt>
      <trkpt lat="49.82247" lon="4.76425">
        <ele>205</ele>
        <time>2021-05-15T08:37:43.000Z</time>
      </trkpt>
      <trkpt lat="49.82249" lon="4.76422">
        <ele>205</ele>
        <time>2021-05-15T08:37:44.000Z</time>
      </trkpt>
      <trkpt lat="49.8225" lon="4.7642">
        <ele>206</ele>
        <time>2021-05-15T08:37:45.000Z</time>
      </trkpt>
      <trkpt lat="49.82252" lon="4.76418">
        <ele>206</ele>
        <time>2021-05-15T08:37:46.000Z</time>
      </trkpt>
      <trkpt lat="49.82253" lon="4.76415">
        <ele>206</ele>
        <time>2021-05-15T08:37:47.000Z</time>
      </trkpt>
      <trkpt lat="49.82254" lon="4.76412">
        <ele>206</ele>
        <time>2021-05-15T08:37:48.000Z</time>
      </trkpt>
      <trkpt lat="49.82255" lon="4.76409">
        <ele>206</ele>
        <time>2021-05-15T08:37:49.000Z</time>
      </trkpt>
      <trkpt lat="49.82256" lon="4.76406">
        <ele>207</ele>
        <time>2021-05-15T08:37:50.000Z</time>
      </trkpt>
      <trkpt lat="49.82257" lon="4.76404">
        <ele>207</ele>
        <time>2021-05-15T08:37:51.000Z</time>
      </trkpt>
      <trkpt lat="49.82259" lon="4.76401">
        <ele>207</ele>
        <time>2021-05-15T08:37:52.000Z</time>
      </trkpt>
      <trkpt lat="49.8226" lon="4.76398">
        <ele>207</ele>
        <time>2021-05-15T08:37:53.000Z</time>
      </trkpt>
      <trkpt lat="49.82262" lon="4.76395">
        <ele>207</ele>
        <time>2021-05-15T08:37:54.000Z</time>
      </trkpt>
      <trkpt lat="49.82263" lon="4.76393">
        <ele>207</ele>
        <time>2021-05-15T08:37:55.000Z</time>
      </trkpt>
      <trkpt lat="49.82265" lon="4.7639">
        <ele>208</ele>
        <time>2021-05-15T08:37:56.000Z</time>
      </trkpt>
      <trkpt lat="49.82266" lon="4.76387">
        <ele>208</ele>
        <time>2021-05-15T08:37:57.000Z</time>
      </trkpt>
      <trkpt lat="49.82268" lon="4.76385">
        <ele>208</ele>
        <time>2021-05-15T08:37:58.000Z</time>
      </trkpt>
      <trkpt lat="49.82269" lon="4.76382">
        <ele>208</ele>
        <time>2021-05-15T08:37:59.000Z</time>
      </trkpt>
      <trkpt lat="49.8227" lon="4.7638">
        <ele>209</ele>
        <time>2021-05-15T08:38:00.000Z</time>
      </trkpt>
      <trkpt lat="49.82272" lon="4.76376">
        <ele>209</ele>
        <time>2021-05-15T08:38:01.000Z</time>
      </trkpt>
      <trkpt lat="49.82273" lon="4.76373">
        <ele>209</ele>
        <time>2021-05-15T08:38:02.000Z</time>
      </trkpt>
      <trkpt lat="49.82274" lon="4.76369">
        <ele>209</ele>
        <time>2021-05-15T08:38:03.000Z</time>
      </trkpt>
      <trkpt lat="49.82275" lon="4.76366">
        <ele>209</ele>
        <time>2021-05-15T08:38:04.000Z</time>
      </trkpt>
      <trkpt lat="49.82275" lon="4.76362">
        <ele>209</ele>
        <time>2021-05-15T08:38:05.000Z</time>
      </trkpt>
      <trkpt lat="49.82276" lon="4.76358">
        <ele>210</ele>
        <time>2021-05-15T08:38:06.000Z</time>
      </trkpt>
      <trkpt lat="49.82277" lon="4.76353">
        <ele>210</ele>
        <time>2021-05-15T08:38:07.000Z</time>
      </trkpt>
      <trkpt lat="49.82279" lon="4.76349">
        <ele>210</ele>
        <time>2021-05-15T08:38:08.000Z</time>
      </trkpt>
      <trkpt lat="49.8228" lon="4.76344">
        <ele>210</ele>
        <time>2021-05-15T08:38:09.000Z</time>
      </trkpt>
      <trkpt lat="49.82282" lon="4.7634">
        <ele>210</ele>
        <time>2021-05-15T08:38:10.000Z</time>
      </trkpt>
      <trkpt lat="49.82283" lon="4.76336">
        <ele>210</ele>
        <time>2021-05-15T08:38:11.000Z</time>
      </trkpt>
      <trkpt lat="49.82284" lon="4.76333">
        <ele>210</ele>
        <time>2021-05-15T08:38:12.000Z</time>
      </trkpt>
      <trkpt lat="49.82285" lon="4.76329">
        <ele>211</ele>
        <time>2021-05-15T08:38:13.000Z</time>
      </trkpt>
      <trkpt lat="49.82286" lon="4.76325">
        <ele>211</ele>
        <time>2021-05-15T08:38:14.000Z</time>
      </trkpt>
      <trkpt lat="49.82287" lon="4.76321">
        <ele>211</ele>
        <time>2021-05-15T08:38:15.000Z</time>
      </trkpt>
      <trkpt lat="49.82288" lon="4.76316">
        <ele>211</ele>
        <time>2021-05-15T08:38:16.000Z</time>
      </trkpt>
      <trkpt lat="49.82289" lon="4.76311">
        <ele>211</ele>
        <time>2021-05-15T08:38:17.000Z</time>
      </trkpt>
      <trkpt lat="49.82289" lon="4.76306">
        <ele>212</ele>
        <time>2021-05-15T08:38:18.000Z</time>
      </trkpt>
      <trkpt lat="49.8229" lon="4.763">
        <ele>212</ele>
        <time>2021-05-15T08:38:19.000Z</time>
      </trkpt>
      <trkpt lat="49.8229" lon="4.76294">
        <ele>212</ele>
        <time>2021-05-15T08:38:20.000Z</time>
      </trkpt>
      <trkpt lat="49.8229" lon="4.76287">
        <ele>212</ele>
        <time>2021-05-15T08:38:21.000Z</time>
      </trkpt>
      <trkpt lat="49.8229" lon="4.7628">
        <ele>212</ele>
        <time>2021-05-15T08:38:22.000Z</time>
      </trkpt>
      <trkpt lat="49.82289" lon="4.76272">
        <ele>212</ele>
        <time>2021-05-15T08:38:23.000Z</time>
      </trkpt>
      <trkpt lat="49.82289" lon="4.76265">
        <ele>213</ele>
        <time>2021-05-15T08:38:24.000Z</time>
      </trkpt>
      <trkpt lat="49.82289" lon="4.76259">
        <ele>213</ele>
        <time>2021-05-15T08:38:25.000Z</time>
      </trkpt>
      <trkpt lat="49.82289" lon="4.76253">
        <ele>213</ele>
        <time>2021-05-15T08:38:26.000Z</time>
      </trkpt>
      <trkpt lat="49.82289" lon="4.76247">
        <ele>213</ele>
        <time>2021-05-15T08:38:27.000Z</time>
      </trkpt>
      <trkpt lat="49.82289" lon="4.76241">
        <ele>213</ele>
        <time>2021-05-15T08:38:28.000Z</time>
      </trkpt>
      <trkpt lat="49.82289" lon="4.76234">
        <ele>213</ele>
        <time>2021-05-15T08:38:29.000Z</time>
      </trkpt>
      <trkpt lat="49.82289" lon="4.76228">
        <ele>213</ele>
        <time>2021-05-15T08:38:30.000Z</time>
      </trkpt>
      <trkpt lat="49.82288" lon="4.76221">
        <ele>213</ele>
        <time>2021-05-15T08:38:31.000Z</time>
      </trkpt>
      <trkpt lat="49.82288" lon="4.76213">
        <ele>213</ele>
        <time>2021-05-15T08:38:32.000Z</time>
      </trkpt>
      <trkpt lat="49.82287" lon="4.76205">
        <ele>213</ele>
        <time>2021-05-15T08:38:33.000Z</time>
      </trkpt>
      <trkpt lat="49.82286" lon="4.76197">
        <ele>213</ele>
        <time>2021-05-15T08:38:34.000Z</time>
      </trkpt>
      <trkpt lat="49.82285" lon="4.76188">
        <ele>213</ele>
        <time>2021-05-15T08:38:35.000Z</time>
      </trkpt>
      <trkpt lat="49.82284" lon="4.76179">
        <ele>213</ele>
        <time>2021-05-15T08:38:36.000Z</time>
      </trkpt>
      <trkpt lat="49.82283" lon="4.76169">
        <ele>213</ele>
        <time>2021-05-15T08:38:37.000Z</time>
      </trkpt>
      <trkpt lat="49.82282" lon="4.7616">
        <ele>214</ele>
        <time>2021-05-15T08:38:38.000Z</time>
      </trkpt>
      <trkpt lat="49.82281" lon="4.76151">
        <ele>214</ele>
        <time>2021-05-15T08:38:39.000Z</time>
      </trkpt>
      <trkpt lat="49.8228" lon="4.76142">
        <ele>214</ele>
        <time>2021-05-15T08:38:40.000Z</time>
      </trkpt>
      <trkpt lat="49.82279" lon="4.76133">
        <ele>214</ele>
        <time>2021-05-15T08:38:41.000Z</time>
      </trkpt>
      <trkpt lat="49.82278" lon="4.76124">
        <ele>214</ele>
        <time>2021-05-15T08:38:42.000Z</time>
      </trkpt>
      <trkpt lat="49.82276" lon="4.76115">
        <ele>214</ele>
        <time>2021-05-15T08:38:43.000Z</time>
      </trkpt>
      <trkpt lat="49.82274" lon="4.76105">
        <ele>214</ele>
        <time>2021-05-15T08:38:44.000Z</time>
      </trkpt>
      <trkpt lat="49.82272" lon="4.76095">
        <ele>214</ele>
        <time>2021-05-15T08:38:45.000Z</time>
      </trkpt>
      <trkpt lat="49.8227" lon="4.76086">
        <ele>214</ele>
        <time>2021-05-15T08:38:46.000Z</time>
      </trkpt>
      <trkpt lat="49.82268" lon="4.76076">
        <ele>214</ele>
        <time>2021-05-15T08:38:47.000Z</time>
      </trkpt>
      <trkpt lat="49.82267" lon="4.76065">
        <ele>214</ele>
        <time>2021-05-15T08:38:48.000Z</time>
      </trkpt>
      <trkpt lat="49.82267" lon="4.76054">
        <ele>214</ele>
        <time>2021-05-15T08:38:49.000Z</time>
      </trkpt>
      <trkpt lat="49.82267" lon="4.76045">
        <ele>214</ele>
        <time>2021-05-15T08:38:50.000Z</time>
      </trkpt>
      <trkpt lat="49.82267" lon="4.76036">
        <ele>214</ele>
        <time>2021-05-15T08:38:51.000Z</time>
      </trkpt>
      <trkpt lat="49.82267" lon="4.76029">
        <ele>214</ele>
        <time>2021-05-15T08:38:52.000Z</time>
      </trkpt>
      <trkpt lat="49.82268" lon="4.76021">
        <ele>214</ele>
        <time>2021-05-15T08:38:53.000Z</time>
      </trkpt>
      <trkpt lat="49.82268" lon="4.76014">
        <ele>214</ele>
        <time>2021-05-15T08:38:54.000Z</time>
      </trkpt>
      <trkpt lat="49.82267" lon="4.76006">
        <ele>213</ele>
        <time>2021-05-15T08:38:55.000Z</time>
      </trkpt>
      <trkpt lat="49.82267" lon="4.76">
        <ele>213</ele>
        <time>2021-05-15T08:38:56.000Z</time>
      </trkpt>
      <trkpt lat="49.82266" lon="4.75993">
        <ele>213</ele>
        <time>2021-05-15T08:38:57.000Z</time>
      </trkpt>
      <trkpt lat="49.82266" lon="4.75987">
        <ele>213</ele>
        <time>2021-05-15T08:38:58.000Z</time>
      </trkpt>
      <trkpt lat="49.82265" lon="4.75981">
        <ele>213</ele>
        <time>2021-05-15T08:38:59.000Z</time>
      </trkpt>
      <trkpt lat="49.82265" lon="4.75975">
        <ele>213</ele>
        <time>2021-05-15T08:39:00.000Z</time>
      </trkpt>
      <trkpt lat="49.82264" lon="4.75969">
        <ele>213</ele>
        <time>2021-05-15T08:39:01.000Z</time>
      </trkpt>
      <trkpt lat="49.82264" lon="4.75963">
        <ele>213</ele>
        <time>2021-05-15T08:39:02.000Z</time>
      </trkpt>
      <trkpt lat="49.82263" lon="4.75957">
        <ele>213</ele>
        <time>2021-05-15T08:39:03.000Z</time>
      </trkpt>
      <trkpt lat="49.82263" lon="4.75951">
        <ele>213</ele>
        <time>2021-05-15T08:39:04.000Z</time>
      </trkpt>
      <trkpt lat="49.82262" lon="4.75946">
        <ele>212</ele>
        <time>2021-05-15T08:39:05.000Z</time>
      </trkpt>
      <trkpt lat="49.82262" lon="4.7594">
        <ele>212</ele>
        <time>2021-05-15T08:39:06.000Z</time>
      </trkpt>
      <trkpt lat="49.82262" lon="4.75934">
        <ele>212</ele>
        <time>2021-05-15T08:39:07.000Z</time>
      </trkpt>
      <trkpt lat="49.82262" lon="4.75929">
        <ele>212</ele>
        <time>2021-05-15T08:39:08.000Z</time>
      </trkpt>
      <trkpt lat="49.82261" lon="4.75923">
        <ele>212</ele>
        <time>2021-05-15T08:39:09.000Z</time>
      </trkpt>
      <trkpt lat="49.82261" lon="4.75917">
        <ele>212</ele>
        <time>2021-05-15T08:39:10.000Z</time>
      </trkpt>
      <trkpt lat="49.8226" lon="4.75911">
        <ele>212</ele>
        <time>2021-05-15T08:39:11.000Z</time>
      </trkpt>
      <trkpt lat="49.82259" lon="4.75905">
        <ele>212</ele>
        <time>2021-05-15T08:39:12.000Z</time>
      </trkpt>
      <trkpt lat="49.82258" lon="4.75898">
        <ele>212</ele>
        <time>2021-05-15T08:39:13.000Z</time>
      </trkpt>
      <trkpt lat="49.82256" lon="4.75891">
        <ele>212</ele>
        <time>2021-05-15T08:39:14.000Z</time>
      </trkpt>
      <trkpt lat="49.82255" lon="4.75884">
        <ele>212</ele>
        <time>2021-05-15T08:39:15.000Z</time>
      </trkpt>
      <trkpt lat="49.82253" lon="4.75877">
        <ele>212</ele>
        <time>2021-05-15T08:39:16.000Z</time>
      </trkpt>
      <trkpt lat="49.82252" lon="4.7587">
        <ele>212</ele>
        <time>2021-05-15T08:39:17.000Z</time>
      </trkpt>
      <trkpt lat="49.8225" lon="4.75863">
        <ele>212</ele>
        <time>2021-05-15T08:39:18.000Z</time>
      </trkpt>
      <trkpt lat="49.82249" lon="4.75856">
        <ele>212</ele>
        <time>2021-05-15T08:39:19.000Z</time>
      </trkpt>
      <trkpt lat="49.82248" lon="4.7585">
        <ele>212</ele>
        <time>2021-05-15T08:39:20.000Z</time>
      </trkpt>
      <trkpt lat="49.82246" lon="4.75844">
        <ele>212</ele>
        <time>2021-05-15T08:39:21.000Z</time>
      </trkpt>
      <trkpt lat="49.82245" lon="4.75838">
        <ele>211</ele>
        <time>2021-05-15T08:39:22.000Z</time>
      </trkpt>
      <trkpt lat="49.82244" lon="4.75832">
        <ele>211</ele>
        <time>2021-05-15T08:39:23.000Z</time>
      </trkpt>
      <trkpt lat="49.82242" lon="4.75827">
        <ele>211</ele>
        <time>2021-05-15T08:39:24.000Z</time>
      </trkpt>
      <trkpt lat="49.8224" lon="4.75822">
        <ele>211</ele>
        <time>2021-05-15T08:39:25.000Z</time>
      </trkpt>
      <trkpt lat="49.82239" lon="4.75816">
        <ele>211</ele>
        <time>2021-05-15T08:39:26.000Z</time>
      </trkpt>
      <trkpt lat="49.82237" lon="4.75811">
        <ele>211</ele>
        <time>2021-05-15T08:39:27.000Z</time>
      </trkpt>
      <trkpt lat="49.82235" lon="4.75806">
        <ele>210</ele>
        <time>2021-05-15T08:39:28.000Z</time>
      </trkpt>
      <trkpt lat="49.82233" lon="4.758">
        <ele>210</ele>
        <time>2021-05-15T08:39:29.000Z</time>
      </trkpt>
      <trkpt lat="49.8223" lon="4.75793">
        <ele>210</ele>
        <time>2021-05-15T08:39:30.000Z</time>
      </trkpt>
      <trkpt lat="49.82227" lon="4.75785">
        <ele>210</ele>
        <time>2021-05-15T08:39:31.000Z</time>
      </trkpt>
      <trkpt lat="49.82224" lon="4.75778">
        <ele>209</ele>
        <time>2021-05-15T08:39:32.000Z</time>
      </trkpt>
      <trkpt lat="49.82221" lon="4.7577">
        <ele>209</ele>
        <time>2021-05-15T08:39:33.000Z</time>
      </trkpt>
      <trkpt lat="49.82218" lon="4.75763">
        <ele>209</ele>
        <time>2021-05-15T08:39:34.000Z</time>
      </trkpt>
      <trkpt lat="49.82215" lon="4.75755">
        <ele>209</ele>
        <time>2021-05-15T08:39:35.000Z</time>
      </trkpt>
      <trkpt lat="49.82212" lon="4.75748">
        <ele>209</ele>
        <time>2021-05-15T08:39:36.000Z</time>
      </trkpt>
      <trkpt lat="49.82209" lon="4.7574">
        <ele>209</ele>
        <time>2021-05-15T08:39:37.000Z</time>
      </trkpt>
      <trkpt lat="49.82205" lon="4.75733">
        <ele>208</ele>
        <time>2021-05-15T08:39:38.000Z</time>
      </trkpt>
      <trkpt lat="49.82201" lon="4.75724">
        <ele>208</ele>
        <time>2021-05-15T08:39:39.000Z</time>
      </trkpt>
      <trkpt lat="49.82197" lon="4.75715">
        <ele>208</ele>
        <time>2021-05-15T08:39:40.000Z</time>
      </trkpt>
      <trkpt lat="49.82193" lon="4.75706">
        <ele>208</ele>
        <time>2021-05-15T08:39:41.000Z</time>
      </trkpt>
      <trkpt lat="49.82188" lon="4.75697">
        <ele>208</ele>
        <time>2021-05-15T08:39:42.000Z</time>
      </trkpt>
      <trkpt lat="49.82182" lon="4.75688">
        <ele>208</ele>
        <time>2021-05-15T08:39:43.000Z</time>
      </trkpt>
      <trkpt lat="49.82178" lon="4.75678">
        <ele>208</ele>
        <time>2021-05-15T08:39:44.000Z</time>
      </trkpt>
      <trkpt lat="49.82174" lon="4.75668">
        <ele>207</ele>
        <time>2021-05-15T08:39:45.000Z</time>
      </trkpt>
      <trkpt lat="49.82169" lon="4.75658">
        <ele>207</ele>
        <time>2021-05-15T08:39:46.000Z</time>
      </trkpt>
      <trkpt lat="49.82165" lon="4.75649">
        <ele>207</ele>
        <time>2021-05-15T08:39:47.000Z</time>
      </trkpt>
      <trkpt lat="49.82161" lon="4.75641">
        <ele>207</ele>
        <time>2021-05-15T08:39:48.000Z</time>
      </trkpt>
      <trkpt lat="49.82157" lon="4.75633">
        <ele>207</ele>
        <time>2021-05-15T08:39:49.000Z</time>
      </trkpt>
      <trkpt lat="49.82152" lon="4.75625">
        <ele>206</ele>
        <time>2021-05-15T08:39:50.000Z</time>
      </trkpt>
      <trkpt lat="49.82148" lon="4.75617">
        <ele>206</ele>
        <time>2021-05-15T08:39:51.000Z</time>
      </trkpt>
      <trkpt lat="49.82143" lon="4.75608">
        <ele>206</ele>
        <time>2021-05-15T08:39:52.000Z</time>
      </trkpt>
      <trkpt lat="49.82138" lon="4.756">
        <ele>205</ele>
        <time>2021-05-15T08:39:53.000Z</time>
      </trkpt>
      <trkpt lat="49.82133" lon="4.75592">
        <ele>204</ele>
        <time>2021-05-15T08:39:54.000Z</time>
      </trkpt>
      <trkpt lat="49.82128" lon="4.75584">
        <ele>203</ele>
        <time>2021-05-15T08:39:55.000Z</time>
      </trkpt>
      <trkpt lat="49.82123" lon="4.75576">
        <ele>203</ele>
        <time>2021-05-15T08:39:56.000Z</time>
      </trkpt>
      <trkpt lat="49.82118" lon="4.75569">
        <ele>202</ele>
        <time>2021-05-15T08:39:57.000Z</time>
      </trkpt>
      <trkpt lat="49.82113" lon="4.75562">
        <ele>201</ele>
        <time>2021-05-15T08:39:58.000Z</time>
      </trkpt>
      <trkpt lat="49.82108" lon="4.75556">
        <ele>200</ele>
        <time>2021-05-15T08:39:59.000Z</time>
      </trkpt>
      <trkpt lat="49.82105" lon="4.7555">
        <ele>199</ele>
        <time>2021-05-15T08:40:00.000Z</time>
      </trkpt>
      <trkpt lat="49.821" lon="4.75545">
        <ele>198</ele>
        <time>2021-05-15T08:40:01.000Z</time>
      </trkpt>
      <trkpt lat="49.82096" lon="4.7554">
        <ele>197</ele>
        <time>2021-05-15T08:40:02.000Z</time>
      </trkpt>
      <trkpt lat="49.82091" lon="4.75533">
        <ele>196</ele>
        <time>2021-05-15T08:40:03.000Z</time>
      </trkpt>
      <trkpt lat="49.82088" lon="4.75526">
        <ele>195</ele>
        <time>2021-05-15T08:40:04.000Z</time>
      </trkpt>
      <trkpt lat="49.82084" lon="4.75518">
        <ele>195</ele>
        <time>2021-05-15T08:40:05.000Z</time>
      </trkpt>
      <trkpt lat="49.82081" lon="4.7551">
        <ele>194</ele>
        <time>2021-05-15T08:40:06.000Z</time>
      </trkpt>
      <trkpt lat="49.82077" lon="4.75502">
        <ele>193</ele>
        <time>2021-05-15T08:40:07.000Z</time>
      </trkpt>
      <trkpt lat="49.82074" lon="4.75494">
        <ele>193</ele>
        <time>2021-05-15T08:40:08.000Z</time>
      </trkpt>
      <trkpt lat="49.82071" lon="4.75487">
        <ele>192</ele>
        <time>2021-05-15T08:40:09.000Z</time>
      </trkpt>
      <trkpt lat="49.82067" lon="4.7548">
        <ele>191</ele>
        <time>2021-05-15T08:40:10.000Z</time>
      </trkpt>
      <trkpt lat="49.82062" lon="4.75473">
        <ele>191</ele>
        <time>2021-05-15T08:40:11.000Z</time>
      </trkpt>
      <trkpt lat="49.82058" lon="4.75467">
        <ele>190</ele>
        <time>2021-05-15T08:40:12.000Z</time>
      </trkpt>
      <trkpt lat="49.82052" lon="4.75461">
        <ele>189</ele>
        <time>2021-05-15T08:40:13.000Z</time>
      </trkpt>
      <trkpt lat="49.82046" lon="4.75455">
        <ele>189</ele>
        <time>2021-05-15T08:40:14.000Z</time>
      </trkpt>
      <trkpt lat="49.8204" lon="4.7545">
        <ele>188</ele>
        <time>2021-05-15T08:40:15.000Z</time>
      </trkpt>
      <trkpt lat="49.82034" lon="4.75444">
        <ele>187</ele>
        <time>2021-05-15T08:40:16.000Z</time>
      </trkpt>
      <trkpt lat="49.82027" lon="4.75438">
        <ele>186</ele>
        <time>2021-05-15T08:40:17.000Z</time>
      </trkpt>
      <trkpt lat="49.8202" lon="4.75433">
        <ele>186</ele>
        <time>2021-05-15T08:40:18.000Z</time>
      </trkpt>
      <trkpt lat="49.82013" lon="4.75428">
        <ele>185</ele>
        <time>2021-05-15T08:40:19.000Z</time>
      </trkpt>
      <trkpt lat="49.82005" lon="4.75423">
        <ele>184</ele>
        <time>2021-05-15T08:40:20.000Z</time>
      </trkpt>
      <trkpt lat="49.81998" lon="4.75418">
        <ele>183</ele>
        <time>2021-05-15T08:40:21.000Z</time>
      </trkpt>
      <trkpt lat="49.81989" lon="4.75412">
        <ele>182</ele>
        <time>2021-05-15T08:40:22.000Z</time>
      </trkpt>
      <trkpt lat="49.81981" lon="4.75407">
        <ele>181</ele>
        <time>2021-05-15T08:40:23.000Z</time>
      </trkpt>
      <trkpt lat="49.81972" lon="4.75401">
        <ele>180</ele>
        <time>2021-05-15T08:40:24.000Z</time>
      </trkpt>
      <trkpt lat="49.81963" lon="4.75395">
        <ele>179</ele>
        <time>2021-05-15T08:40:25.000Z</time>
      </trkpt>
      <trkpt lat="49.81954" lon="4.75389">
        <ele>178</ele>
        <time>2021-05-15T08:40:26.000Z</time>
      </trkpt>
      <trkpt lat="49.81944" lon="4.75384">
        <ele>177</ele>
        <time>2021-05-15T08:40:27.000Z</time>
      </trkpt>
      <trkpt lat="49.81934" lon="4.75379">
        <ele>176</ele>
        <time>2021-05-15T08:40:28.000Z</time>
      </trkpt>
      <trkpt lat="49.81925" lon="4.75374">
        <ele>175</ele>
        <time>2021-05-15T08:40:29.000Z</time>
      </trkpt>
      <trkpt lat="49.81915" lon="4.7537">
        <ele>174</ele>
        <time>2021-05-15T08:40:30.000Z</time>
      </trkpt>
      <trkpt lat="49.81906" lon="4.75366">
        <ele>174</ele>
        <time>2021-05-15T08:40:31.000Z</time>
      </trkpt>
      <trkpt lat="49.81897" lon="4.75362">
        <ele>173</ele>
        <time>2021-05-15T08:40:32.000Z</time>
      </trkpt>
      <trkpt lat="49.81887" lon="4.75358">
        <ele>172</ele>
        <time>2021-05-15T08:40:33.000Z</time>
      </trkpt>
      <trkpt lat="49.81878" lon="4.75353">
        <ele>171</ele>
        <time>2021-05-15T08:40:34.000Z</time>
      </trkpt>
      <trkpt lat="49.81868" lon="4.75349">
        <ele>170</ele>
        <time>2021-05-15T08:40:35.000Z</time>
      </trkpt>
      <trkpt lat="49.81858" lon="4.75345">
        <ele>169</ele>
        <time>2021-05-15T08:40:36.000Z</time>
      </trkpt>
      <trkpt lat="49.81849" lon="4.75341">
        <ele>168</ele>
        <time>2021-05-15T08:40:37.000Z</time>
      </trkpt>
      <trkpt lat="49.8184" lon="4.75337">
        <ele>168</ele>
        <time>2021-05-15T08:40:38.000Z</time>
      </trkpt>
      <trkpt lat="49.81831" lon="4.75333">
        <ele>167</ele>
        <time>2021-05-15T08:40:39.000Z</time>
      </trkpt>
      <trkpt lat="49.81823" lon="4.75329">
        <ele>166</ele>
        <time>2021-05-15T08:40:40.000Z</time>
      </trkpt>
      <trkpt lat="49.81815" lon="4.75325">
        <ele>166</ele>
        <time>2021-05-15T08:40:41.000Z</time>
      </trkpt>
      <trkpt lat="49.81806" lon="4.75322">
        <ele>165</ele>
        <time>2021-05-15T08:40:42.000Z</time>
      </trkpt>
      <trkpt lat="49.81799" lon="4.75319">
        <ele>165</ele>
        <time>2021-05-15T08:40:43.000Z</time>
      </trkpt>
      <trkpt lat="49.81792" lon="4.75317">
        <ele>164</ele>
        <time>2021-05-15T08:40:44.000Z</time>
      </trkpt>
      <trkpt lat="49.81785" lon="4.75315">
        <ele>164</ele>
        <time>2021-05-15T08:40:45.000Z</time>
      </trkpt>
      <trkpt lat="49.8178" lon="4.75314">
        <ele>164</ele>
        <time>2021-05-15T08:40:46.000Z</time>
      </trkpt>
      <trkpt lat="49.81775" lon="4.75311">
        <ele>163</ele>
        <time>2021-05-15T08:40:47.000Z</time>
      </trkpt>
      <trkpt lat="49.8177" lon="4.75308">
        <ele>163</ele>
        <time>2021-05-15T08:40:48.000Z</time>
      </trkpt>
      <trkpt lat="49.81766" lon="4.75303">
        <ele>163</ele>
        <time>2021-05-15T08:40:49.000Z</time>
      </trkpt>
      <trkpt lat="49.81762" lon="4.75298">
        <ele>163</ele>
        <time>2021-05-15T08:40:50.000Z</time>
      </trkpt>
      <trkpt lat="49.81758" lon="4.75293">
        <ele>163</ele>
        <time>2021-05-15T08:40:51.000Z</time>
      </trkpt>
      <trkpt lat="49.81754" lon="4.75287">
        <ele>163</ele>
        <time>2021-05-15T08:40:52.000Z</time>
      </trkpt>
      <trkpt lat="49.8175" lon="4.75281">
        <ele>163</ele>
        <time>2021-05-15T08:40:53.000Z</time>
      </trkpt>
      <trkpt lat="49.81746" lon="4.75275">
        <ele>163</ele>
        <time>2021-05-15T08:40:54.000Z</time>
      </trkpt>
      <trkpt lat="49.81742" lon="4.75269">
        <ele>162</ele>
        <time>2021-05-15T08:40:55.000Z</time>
      </trkpt>
      <trkpt lat="49.81738" lon="4.75263">
        <ele>162</ele>
        <time>2021-05-15T08:40:56.000Z</time>
      </trkpt>
      <trkpt lat="49.81734" lon="4.75257">
        <ele>162</ele>
        <time>2021-05-15T08:40:57.000Z</time>
      </trkpt>
      <trkpt lat="49.8173" lon="4.75252">
        <ele>162</ele>
        <time>2021-05-15T08:40:58.000Z</time>
      </trkpt>
      <trkpt lat="49.81725" lon="4.75246">
        <ele>161</ele>
        <time>2021-05-15T08:40:59.000Z</time>
      </trkpt>
      <trkpt lat="49.81721" lon="4.7524">
        <ele>161</ele>
        <time>2021-05-15T08:41:00.000Z</time>
      </trkpt>
      <trkpt lat="49.81716" lon="4.75235">
        <ele>160</ele>
        <time>2021-05-15T08:41:01.000Z</time>
      </trkpt>
      <trkpt lat="49.8171" lon="4.7523">
        <ele>160</ele>
        <time>2021-05-15T08:41:02.000Z</time>
      </trkpt>
      <trkpt lat="49.81705" lon="4.75225">
        <ele>160</ele>
        <time>2021-05-15T08:41:03.000Z</time>
      </trkpt>
      <trkpt lat="49.81699" lon="4.75219">
        <ele>159</ele>
        <time>2021-05-15T08:41:04.000Z</time>
      </trkpt>
      <trkpt lat="49.81693" lon="4.75214">
        <ele>159</ele>
        <time>2021-05-15T08:41:05.000Z</time>
      </trkpt>
      <trkpt lat="49.81687" lon="4.75208">
        <ele>158</ele>
        <time>2021-05-15T08:41:06.000Z</time>
      </trkpt>
      <trkpt lat="49.81681" lon="4.75202">
        <ele>158</ele>
        <time>2021-05-15T08:41:07.000Z</time>
      </trkpt>
      <trkpt lat="49.81675" lon="4.75196">
        <ele>158</ele>
        <time>2021-05-15T08:41:08.000Z</time>
      </trkpt>
      <trkpt lat="49.8167" lon="4.75189">
        <ele>157</ele>
        <time>2021-05-15T08:41:09.000Z</time>
      </trkpt>
      <trkpt lat="49.81665" lon="4.75181">
        <ele>157</ele>
        <time>2021-05-15T08:41:10.000Z</time>
      </trkpt>
      <trkpt lat="49.81661" lon="4.75172">
        <ele>157</ele>
        <time>2021-05-15T08:41:11.000Z</time>
      </trkpt>
      <trkpt lat="49.81657" lon="4.75164">
        <ele>156</ele>
        <time>2021-05-15T08:41:12.000Z</time>
      </trkpt>
      <trkpt lat="49.81653" lon="4.75156">
        <ele>156</ele>
        <time>2021-05-15T08:41:13.000Z</time>
      </trkpt>
      <trkpt lat="49.81649" lon="4.75147">
        <ele>156</ele>
        <time>2021-05-15T08:41:14.000Z</time>
      </trkpt>
      <trkpt lat="49.81645" lon="4.75139">
        <ele>156</ele>
        <time>2021-05-15T08:41:15.000Z</time>
      </trkpt>
      <trkpt lat="49.81641" lon="4.75131">
        <ele>155</ele>
        <time>2021-05-15T08:41:16.000Z</time>
      </trkpt>
      <trkpt lat="49.81637" lon="4.75122">
        <ele>155</ele>
        <time>2021-05-15T08:41:17.000Z</time>
      </trkpt>
      <trkpt lat="49.81634" lon="4.75114">
        <ele>155</ele>
        <time>2021-05-15T08:41:18.000Z</time>
      </trkpt>
      <trkpt lat="49.8163" lon="4.75106">
        <ele>155</ele>
        <time>2021-05-15T08:41:19.000Z</time>
      </trkpt>
      <trkpt lat="49.81627" lon="4.75099">
        <ele>155</ele>
        <time>2021-05-15T08:41:20.000Z</time>
      </trkpt>
      <trkpt lat="49.81624" lon="4.75092">
        <ele>154</ele>
        <time>2021-05-15T08:41:21.000Z</time>
      </trkpt>
      <trkpt lat="49.8162" lon="4.75085">
        <ele>154</ele>
        <time>2021-05-15T08:41:22.000Z</time>
      </trkpt>
      <trkpt lat="49.81618" lon="4.75078">
        <ele>154</ele>
        <time>2021-05-15T08:41:23.000Z</time>
      </trkpt>
      <trkpt lat="49.81615" lon="4.75072">
        <ele>154</ele>
        <time>2021-05-15T08:41:24.000Z</time>
      </trkpt>
      <trkpt lat="49.81612" lon="4.75066">
        <ele>154</ele>
        <time>2021-05-15T08:41:25.000Z</time>
      </trkpt>
      <trkpt lat="49.81609" lon="4.7506">
        <ele>154</ele>
        <time>2021-05-15T08:41:26.000Z</time>
      </trkpt>
      <trkpt lat="49.81605" lon="4.75053">
        <ele>154</ele>
        <time>2021-05-15T08:41:27.000Z</time>
      </trkpt>
      <trkpt lat="49.81602" lon="4.75047">
        <ele>154</ele>
        <time>2021-05-15T08:41:28.000Z</time>
      </trkpt>
      <trkpt lat="49.81598" lon="4.75041">
        <ele>153</ele>
        <time>2021-05-15T08:41:29.000Z</time>
      </trkpt>
      <trkpt lat="49.81594" lon="4.75035">
        <ele>153</ele>
        <time>2021-05-15T08:41:30.000Z</time>
      </trkpt>
      <trkpt lat="49.81591" lon="4.75028">
        <ele>153</ele>
        <time>2021-05-15T08:41:31.000Z</time>
      </trkpt>
      <trkpt lat="49.81587" lon="4.75022">
        <ele>153</ele>
        <time>2021-05-15T08:41:32.000Z</time>
      </trkpt>
      <trkpt lat="49.81583" lon="4.75015">
        <ele>153</ele>
        <time>2021-05-15T08:41:33.000Z</time>
      </trkpt>
      <trkpt lat="49.8158" lon="4.75008">
        <ele>153</ele>
        <time>2021-05-15T08:41:34.000Z</time>
      </trkpt>
      <trkpt lat="49.81576" lon="4.75002">
        <ele>152</ele>
        <time>2021-05-15T08:41:35.000Z</time>
      </trkpt>
      <trkpt lat="49.81573" lon="4.74995">
        <ele>152</ele>
        <time>2021-05-15T08:41:36.000Z</time>
      </trkpt>
      <trkpt lat="49.8157" lon="4.74988">
        <ele>152</ele>
        <time>2021-05-15T08:41:37.000Z</time>
      </trkpt>
      <trkpt lat="49.81567" lon="4.74981">
        <ele>152</ele>
        <time>2021-05-15T08:41:38.000Z</time>
      </trkpt>
      <trkpt lat="49.81564" lon="4.74974">
        <ele>152</ele>
        <time>2021-05-15T08:41:39.000Z</time>
      </trkpt>
      <trkpt lat="49.8156" lon="4.74967">
        <ele>152</ele>
        <time>2021-05-15T08:41:40.000Z</time>
      </trkpt>
      <trkpt lat="49.81557" lon="4.7496">
        <ele>152</ele>
        <time>2021-05-15T08:41:41.000Z</time>
      </trkpt>
      <trkpt lat="49.81554" lon="4.74953">
        <ele>151</ele>
        <time>2021-05-15T08:41:42.000Z</time>
      </trkpt>
      <trkpt lat="49.81551" lon="4.74946">
        <ele>151</ele>
        <time>2021-05-15T08:41:43.000Z</time>
      </trkpt>
      <trkpt lat="49.81548" lon="4.74939">
        <ele>151</ele>
        <time>2021-05-15T08:41:44.000Z</time>
      </trkpt>
      <trkpt lat="49.81546" lon="4.74931">
        <ele>151</ele>
        <time>2021-05-15T08:41:45.000Z</time>
      </trkpt>
      <trkpt lat="49.81543" lon="4.74924">
        <ele>151</ele>
        <time>2021-05-15T08:41:46.000Z</time>
      </trkpt>
      <trkpt lat="49.8154" lon="4.74917">
        <ele>151</ele>
        <time>2021-05-15T08:41:47.000Z</time>
      </trkpt>
      <trkpt lat="49.81537" lon="4.7491">
        <ele>151</ele>
        <time>2021-05-15T08:41:48.000Z</time>
      </trkpt>
      <trkpt lat="49.81535" lon="4.74903">
        <ele>151</ele>
        <time>2021-05-15T08:41:49.000Z</time>
      </trkpt>
      <trkpt lat="49.81532" lon="4.74895">
        <ele>151</ele>
        <time>2021-05-15T08:41:50.000Z</time>
      </trkpt>
      <trkpt lat="49.8153" lon="4.74888">
        <ele>151</ele>
        <time>2021-05-15T08:41:51.000Z</time>
      </trkpt>
      <trkpt lat="49.81527" lon="4.7488">
        <ele>151</ele>
        <time>2021-05-15T08:41:52.000Z</time>
      </trkpt>
      <trkpt lat="49.81525" lon="4.74873">
        <ele>151</ele>
        <time>2021-05-15T08:41:53.000Z</time>
      </trkpt>
      <trkpt lat="49.81523" lon="4.74865">
        <ele>150</ele>
        <time>2021-05-15T08:41:54.000Z</time>
      </trkpt>
      <trkpt lat="49.81521" lon="4.74858">
        <ele>150</ele>
        <time>2021-05-15T08:41:55.000Z</time>
      </trkpt>
      <trkpt lat="49.81519" lon="4.7485">
        <ele>150</ele>
        <time>2021-05-15T08:41:56.000Z</time>
      </trkpt>
      <trkpt lat="49.81517" lon="4.74842">
        <ele>150</ele>
        <time>2021-05-15T08:41:57.000Z</time>
      </trkpt>
      <trkpt lat="49.81515" lon="4.74834">
        <ele>150</ele>
        <time>2021-05-15T08:41:58.000Z</time>
      </trkpt>
      <trkpt lat="49.81513" lon="4.74826">
        <ele>150</ele>
        <time>2021-05-15T08:41:59.000Z</time>
      </trkpt>
      <trkpt lat="49.81511" lon="4.74818">
        <ele>150</ele>
        <time>2021-05-15T08:42:00.000Z</time>
      </trkpt>
      <trkpt lat="49.81509" lon="4.7481">
        <ele>150</ele>
        <time>2021-05-15T08:42:01.000Z</time>
      </trkpt>
      <trkpt lat="49.81506" lon="4.74802">
        <ele>150</ele>
        <time>2021-05-15T08:42:02.000Z</time>
      </trkpt>
      <trkpt lat="49.81504" lon="4.74794">
        <ele>150</ele>
        <time>2021-05-15T08:42:03.000Z</time>
      </trkpt>
      <trkpt lat="49.81502" lon="4.74786">
        <ele>150</ele>
        <time>2021-05-15T08:42:04.000Z</time>
      </trkpt>
      <trkpt lat="49.81501" lon="4.74778">
        <ele>150</ele>
        <time>2021-05-15T08:42:05.000Z</time>
      </trkpt>
      <trkpt lat="49.81499" lon="4.7477">
        <ele>150</ele>
        <time>2021-05-15T08:42:06.000Z</time>
      </trkpt>
      <trkpt lat="49.81497" lon="4.74762">
        <ele>150</ele>
        <time>2021-05-15T08:42:07.000Z</time>
      </trkpt>
      <trkpt lat="49.81496" lon="4.74754">
        <ele>151</ele>
        <time>2021-05-15T08:42:08.000Z</time>
      </trkpt>
      <trkpt lat="49.81495" lon="4.74746">
        <ele>151</ele>
        <time>2021-05-15T08:42:09.000Z</time>
      </trkpt>
      <trkpt lat="49.81494" lon="4.74738">
        <ele>151</ele>
        <time>2021-05-15T08:42:10.000Z</time>
      </trkpt>
      <trkpt lat="49.81494" lon="4.74731">
        <ele>151</ele>
        <time>2021-05-15T08:42:11.000Z</time>
      </trkpt>
      <trkpt lat="49.81493" lon="4.74723">
        <ele>151</ele>
        <time>2021-05-15T08:42:12.000Z</time>
      </trkpt>
      <trkpt lat="49.81493" lon="4.74716">
        <ele>151</ele>
        <time>2021-05-15T08:42:13.000Z</time>
      </trkpt>
      <trkpt lat="49.81493" lon="4.74709">
        <ele>151</ele>
        <time>2021-05-15T08:42:14.000Z</time>
      </trkpt>
      <trkpt lat="49.81493" lon="4.74702">
        <ele>151</ele>
        <time>2021-05-15T08:42:15.000Z</time>
      </trkpt>
      <trkpt lat="49.81494" lon="4.74695">
        <ele>151</ele>
        <time>2021-05-15T08:42:16.000Z</time>
      </trkpt>
      <trkpt lat="49.81495" lon="4.74688">
        <ele>152</ele>
        <time>2021-05-15T08:42:17.000Z</time>
      </trkpt>
      <trkpt lat="49.81496" lon="4.74681">
        <ele>152</ele>
        <time>2021-05-15T08:42:18.000Z</time>
      </trkpt>
      <trkpt lat="49.81497" lon="4.74674">
        <ele>152</ele>
        <time>2021-05-15T08:42:19.000Z</time>
      </trkpt>
      <trkpt lat="49.81498" lon="4.74667">
        <ele>152</ele>
        <time>2021-05-15T08:42:20.000Z</time>
      </trkpt>
      <trkpt lat="49.81499" lon="4.74659">
        <ele>152</ele>
        <time>2021-05-15T08:42:21.000Z</time>
      </trkpt>
      <trkpt lat="49.815" lon="4.74652">
        <ele>152</ele>
        <time>2021-05-15T08:42:22.000Z</time>
      </trkpt>
      <trkpt lat="49.81501" lon="4.74644">
        <ele>152</ele>
        <time>2021-05-15T08:42:23.000Z</time>
      </trkpt>
      <trkpt lat="49.81502" lon="4.74637">
        <ele>153</ele>
        <time>2021-05-15T08:42:24.000Z</time>
      </trkpt>
      <trkpt lat="49.81503" lon="4.74629">
        <ele>153</ele>
        <time>2021-05-15T08:42:25.000Z</time>
      </trkpt>
      <trkpt lat="49.81504" lon="4.74621">
        <ele>153</ele>
        <time>2021-05-15T08:42:26.000Z</time>
      </trkpt>
      <trkpt lat="49.81506" lon="4.74613">
        <ele>153</ele>
        <time>2021-05-15T08:42:27.000Z</time>
      </trkpt>
      <trkpt lat="49.81508" lon="4.74605">
        <ele>153</ele>
        <time>2021-05-15T08:42:28.000Z</time>
      </trkpt>
      <trkpt lat="49.8151" lon="4.74598">
        <ele>153</ele>
        <time>2021-05-15T08:42:29.000Z</time>
      </trkpt>
      <trkpt lat="49.81513" lon="4.74591">
        <ele>153</ele>
        <time>2021-05-15T08:42:30.000Z</time>
      </trkpt>
      <trkpt lat="49.81514" lon="4.74584">
        <ele>153</ele>
        <time>2021-05-15T08:42:31.000Z</time>
      </trkpt>
      <trkpt lat="49.81515" lon="4.74576">
        <ele>153</ele>
        <time>2021-05-15T08:42:32.000Z</time>
      </trkpt>
      <trkpt lat="49.81515" lon="4.74569">
        <ele>154</ele>
        <time>2021-05-15T08:42:33.000Z</time>
      </trkpt>
      <trkpt lat="49.81518" lon="4.74563">
        <ele>154</ele>
        <time>2021-05-15T08:42:34.000Z</time>
      </trkpt>
      <trkpt lat="49.81521" lon="4.7456">
        <ele>154</ele>
        <time>2021-05-15T08:42:35.000Z</time>
      </trkpt>
      <trkpt lat="49.81525" lon="4.74558">
        <ele>154</ele>
        <time>2021-05-15T08:42:36.000Z</time>
      </trkpt>
      <trkpt lat="49.81528" lon="4.74557">
        <ele>154</ele>
        <time>2021-05-15T08:42:37.000Z</time>
      </trkpt>
      <trkpt lat="49.81532" lon="4.74557">
        <ele>154</ele>
        <time>2021-05-15T08:42:38.000Z</time>
      </trkpt>
      <trkpt lat="49.81535" lon="4.74557">
        <ele>154</ele>
        <time>2021-05-15T08:42:39.000Z</time>
      </trkpt>
      <trkpt lat="49.81539" lon="4.74557">
        <ele>154</ele>
        <time>2021-05-15T08:42:40.000Z</time>
      </trkpt>
      <trkpt lat="49.81542" lon="4.74558">
        <ele>154</ele>
        <time>2021-05-15T08:42:41.000Z</time>
      </trkpt>
      <trkpt lat="49.81546" lon="4.74559">
        <ele>154</ele>
        <time>2021-05-15T08:42:42.000Z</time>
      </trkpt>
      <trkpt lat="49.81549" lon="4.7456">
        <ele>155</ele>
        <time>2021-05-15T08:42:43.000Z</time>
      </trkpt>
      <trkpt lat="49.81552" lon="4.74561">
        <ele>155</ele>
        <time>2021-05-15T08:42:44.000Z</time>
      </trkpt>
      <trkpt lat="49.81555" lon="4.74563">
        <ele>155</ele>
        <time>2021-05-15T08:42:45.000Z</time>
      </trkpt>
      <trkpt lat="49.81558" lon="4.74564">
        <ele>156</ele>
        <time>2021-05-15T08:42:46.000Z</time>
      </trkpt>
      <trkpt lat="49.81561" lon="4.74565">
        <ele>156</ele>
        <time>2021-05-15T08:42:47.000Z</time>
      </trkpt>
      <trkpt lat="49.81564" lon="4.74566">
        <ele>156</ele>
        <time>2021-05-15T08:42:48.000Z</time>
      </trkpt>
      <trkpt lat="49.81566" lon="4.74568">
        <ele>156</ele>
        <time>2021-05-15T08:42:49.000Z</time>
      </trkpt>
      <trkpt lat="49.81569" lon="4.74568">
        <ele>157</ele>
        <time>2021-05-15T08:42:50.000Z</time>
      </trkpt>
      <trkpt lat="49.81571" lon="4.74569">
        <ele>157</ele>
        <time>2021-05-15T08:42:51.000Z</time>
      </trkpt>
      <trkpt lat="49.81574" lon="4.74571">
        <ele>157</ele>
        <time>2021-05-15T08:42:52.000Z</time>
      </trkpt>
      <trkpt lat="49.81577" lon="4.74572">
        <ele>158</ele>
        <time>2021-05-15T08:42:53.000Z</time>
      </trkpt>
      <trkpt lat="49.8158" lon="4.74572">
        <ele>158</ele>
        <time>2021-05-15T08:42:54.000Z</time>
      </trkpt>
      <trkpt lat="49.81583" lon="4.74574">
        <ele>158</ele>
        <time>2021-05-15T08:42:55.000Z</time>
      </trkpt>
      <trkpt lat="49.81587" lon="4.74575">
        <ele>158</ele>
        <time>2021-05-15T08:42:56.000Z</time>
      </trkpt>
      <trkpt lat="49.8159" lon="4.74576">
        <ele>159</ele>
        <time>2021-05-15T08:42:57.000Z</time>
      </trkpt>
      <trkpt lat="49.81594" lon="4.74578">
        <ele>159</ele>
        <time>2021-05-15T08:42:58.000Z</time>
      </trkpt>
      <trkpt lat="49.81597" lon="4.74582">
        <ele>159</ele>
        <time>2021-05-15T08:42:59.000Z</time>
      </trkpt>
      <trkpt lat="49.81598" lon="4.74588">
        <ele>159</ele>
        <time>2021-05-15T08:43:00.000Z</time>
      </trkpt>
      <trkpt lat="49.81598" lon="4.74593">
        <ele>159</ele>
        <time>2021-05-15T08:43:01.000Z</time>
      </trkpt>
      <trkpt lat="49.81599" lon="4.74599">
        <ele>160</ele>
        <time>2021-05-15T08:43:02.000Z</time>
      </trkpt>
      <trkpt lat="49.81599" lon="4.74604">
        <ele>160</ele>
        <time>2021-05-15T08:43:03.000Z</time>
      </trkpt>
      <trkpt lat="49.81598" lon="4.74609">
        <ele>160</ele>
        <time>2021-05-15T08:43:04.000Z</time>
      </trkpt>
      <trkpt lat="49.81598" lon="4.74615">
        <ele>161</ele>
        <time>2021-05-15T08:43:05.000Z</time>
      </trkpt>
      <trkpt lat="49.81598" lon="4.7462">
        <ele>161</ele>
        <time>2021-05-15T08:43:06.000Z</time>
      </trkpt>
      <trkpt lat="49.81598" lon="4.74626">
        <ele>161</ele>
        <time>2021-05-15T08:43:07.000Z</time>
      </trkpt>
      <trkpt lat="49.81597" lon="4.74631">
        <ele>162</ele>
        <time>2021-05-15T08:43:08.000Z</time>
      </trkpt>
      <trkpt lat="49.81597" lon="4.74637">
        <ele>162</ele>
        <time>2021-05-15T08:43:09.000Z</time>
      </trkpt>
      <trkpt lat="49.81596" lon="4.74642">
        <ele>162</ele>
        <time>2021-05-15T08:43:10.000Z</time>
      </trkpt>
      <trkpt lat="49.81595" lon="4.74648">
        <ele>163</ele>
        <time>2021-05-15T08:43:11.000Z</time>
      </trkpt>
      <trkpt lat="49.81595" lon="4.74653">
        <ele>163</ele>
        <time>2021-05-15T08:43:12.000Z</time>
      </trkpt>
      <trkpt lat="49.81595" lon="4.74659">
        <ele>163</ele>
        <time>2021-05-15T08:43:13.000Z</time>
      </trkpt>
      <trkpt lat="49.81594" lon="4.74665">
        <ele>163</ele>
        <time>2021-05-15T08:43:14.000Z</time>
      </trkpt>
      <trkpt lat="49.81594" lon="4.7467">
        <ele>164</ele>
        <time>2021-05-15T08:43:15.000Z</time>
      </trkpt>
      <trkpt lat="49.81594" lon="4.74676">
        <ele>164</ele>
        <time>2021-05-15T08:43:16.000Z</time>
      </trkpt>
      <trkpt lat="49.81594" lon="4.74681">
        <ele>164</ele>
        <time>2021-05-15T08:43:17.000Z</time>
      </trkpt>
      <trkpt lat="49.81594" lon="4.74687">
        <ele>165</ele>
        <time>2021-05-15T08:43:18.000Z</time>
      </trkpt>
      <trkpt lat="49.81593" lon="4.74693">
        <ele>165</ele>
        <time>2021-05-15T08:43:19.000Z</time>
      </trkpt>
      <trkpt lat="49.81593" lon="4.74699">
        <ele>165</ele>
        <time>2021-05-15T08:43:20.000Z</time>
      </trkpt>
      <trkpt lat="49.81592" lon="4.74705">
        <ele>165</ele>
        <time>2021-05-15T08:43:21.000Z</time>
      </trkpt>
      <trkpt lat="49.81592" lon="4.7471">
        <ele>166</ele>
        <time>2021-05-15T08:43:22.000Z</time>
      </trkpt>
      <trkpt lat="49.81592" lon="4.74716">
        <ele>166</ele>
        <time>2021-05-15T08:43:23.000Z</time>
      </trkpt>
      <trkpt lat="49.81592" lon="4.74722">
        <ele>166</ele>
        <time>2021-05-15T08:43:24.000Z</time>
      </trkpt>
      <trkpt lat="49.81591" lon="4.74728">
        <ele>166</ele>
        <time>2021-05-15T08:43:25.000Z</time>
      </trkpt>
      <trkpt lat="49.81591" lon="4.74734">
        <ele>167</ele>
        <time>2021-05-15T08:43:26.000Z</time>
      </trkpt>
      <trkpt lat="49.8159" lon="4.7474">
        <ele>167</ele>
        <time>2021-05-15T08:43:27.000Z</time>
      </trkpt>
      <trkpt lat="49.8159" lon="4.74746">
        <ele>167</ele>
        <time>2021-05-15T08:43:28.000Z</time>
      </trkpt>
      <trkpt lat="49.81589" lon="4.74752">
        <ele>167</ele>
        <time>2021-05-15T08:43:29.000Z</time>
      </trkpt>
      <trkpt lat="49.81589" lon="4.74758">
        <ele>168</ele>
        <time>2021-05-15T08:43:30.000Z</time>
      </trkpt>
      <trkpt lat="49.81589" lon="4.74764">
        <ele>168</ele>
        <time>2021-05-15T08:43:31.000Z</time>
      </trkpt>
      <trkpt lat="49.81588" lon="4.7477">
        <ele>168</ele>
        <time>2021-05-15T08:43:32.000Z</time>
      </trkpt>
      <trkpt lat="49.81587" lon="4.74775">
        <ele>168</ele>
        <time>2021-05-15T08:43:33.000Z</time>
      </trkpt>
      <trkpt lat="49.81587" lon="4.74778">
        <ele>168</ele>
        <time>2021-05-15T08:43:34.000Z</time>
      </trkpt>
      <trkpt lat="49.81586" lon="4.74778">
        <ele>169</ele>
        <time>2021-05-15T08:43:35.000Z</time>
      </trkpt>
      <trkpt lat="49.81586" lon="4.74778">
        <ele>169</ele>
        <time>2021-05-15T08:43:36.000Z</time>
      </trkpt>
      <trkpt lat="49.81586" lon="4.74778">
        <ele>169</ele>
        <time>2021-05-15T08:43:37.000Z</time>
      </trkpt>
      <trkpt lat="49.81586" lon="4.74779">
        <ele>169</ele>
        <time>2021-05-15T08:43:38.000Z</time>
      </trkpt>
      <trkpt lat="49.81587" lon="4.74779">
        <ele>169</ele>
        <time>2021-05-15T08:43:39.000Z</time>
      </trkpt>
      <trkpt lat="49.81587" lon="4.74779">
        <ele>169</ele>
        <time>2021-05-15T08:43:40.000Z</time>
      </trkpt>
      <trkpt lat="49.81587" lon="4.74779">
        <ele>169</ele>
        <time>2021-05-15T08:43:41.000Z</time>
      </trkpt>
      <trkpt lat="49.81587" lon="4.74778">
        <ele>169</ele>
        <time>2021-05-15T08:43:42.000Z</time>
      </trkpt>
      <trkpt lat="49.81587" lon="4.74778">
        <ele>169</ele>
        <time>2021-05-15T08:43:43.000Z</time>
      </trkpt>
      <trkpt lat="49.81586" lon="4.74779">
        <ele>169</ele>
        <time>2021-05-15T08:43:44.000Z</time>
      </trkpt>
      <trkpt lat="49.81587" lon="4.74779">
        <ele>169</ele>
        <time>2021-05-15T08:43:45.000Z</time>
      </trkpt>
      <trkpt lat="49.81586" lon="4.74779">
        <ele>169</ele>
        <time>2021-05-15T08:43:46.000Z</time>
      </trkpt>
      <trkpt lat="49.81587" lon="4.74779">
        <ele>169</ele>
        <time>2021-05-15T08:43:47.000Z</time>
      </trkpt>
      <trkpt lat="49.81587" lon="4.7478">
        <ele>169</ele>
        <time>2021-05-15T08:43:48.000Z</time>
      </trkpt>
      <trkpt lat="49.81587" lon="4.74779">
        <ele>170</ele>
        <time>2021-05-15T08:43:49.000Z</time>
      </trkpt>
      <trkpt lat="49.81587" lon="4.74779">
        <ele>170</ele>
        <time>2021-05-15T08:43:50.000Z</time>
      </trkpt>
      <trkpt lat="49.81587" lon="4.7478">
        <ele>170</ele>
        <time>2021-05-15T08:43:51.000Z</time>
      </trkpt>
      <trkpt lat="49.81587" lon="4.7478">
        <ele>170</ele>
        <time>2021-05-15T08:43:52.000Z</time>
      </trkpt>
      <trkpt lat="49.81587" lon="4.7478">
        <ele>170</ele>
        <time>2021-05-15T08:43:53.000Z</time>
      </trkpt>
      <trkpt lat="49.81587" lon="4.7478">
        <ele>170</ele>
        <time>2021-05-15T08:43:54.000Z</time>
      </trkpt>
      <trkpt lat="49.81587" lon="4.7478">
        <ele>170</ele>
        <time>2021-05-15T08:43:55.000Z</time>
      </trkpt>
      <trkpt lat="49.81587" lon="4.7478">
        <ele>170</ele>
        <time>2021-05-15T08:43:56.000Z</time>
      </trkpt>
      <trkpt lat="49.81587" lon="4.7478">
        <ele>171</ele>
        <time>2021-05-15T08:43:57.000Z</time>
      </trkpt>
      <trkpt lat="49.81587" lon="4.74781">
        <ele>171</ele>
        <time>2021-05-15T08:43:58.000Z</time>
      </trkpt>
      <trkpt lat="49.81588" lon="4.74783">
        <ele>171</ele>
        <time>2021-05-15T08:43:59.000Z</time>
      </trkpt>
      <trkpt lat="49.81588" lon="4.74786">
        <ele>171</ele>
        <time>2021-05-15T08:44:00.000Z</time>
      </trkpt>
      <trkpt lat="49.81587" lon="4.7479">
        <ele>171</ele>
        <time>2021-05-15T08:44:01.000Z</time>
      </trkpt>
      <trkpt lat="49.81587" lon="4.74795">
        <ele>171</ele>
        <time>2021-05-15T08:44:02.000Z</time>
      </trkpt>
      <trkpt lat="49.81587" lon="4.748">
        <ele>171</ele>
        <time>2021-05-15T08:44:03.000Z</time>
      </trkpt>
      <trkpt lat="49.81588" lon="4.74804">
        <ele>171</ele>
        <time>2021-05-15T08:44:04.000Z</time>
      </trkpt>
      <trkpt lat="49.8159" lon="4.74807">
        <ele>172</ele>
        <time>2021-05-15T08:44:05.000Z</time>
      </trkpt>
      <trkpt lat="49.81591" lon="4.74809">
        <ele>172</ele>
        <time>2021-05-15T08:44:06.000Z</time>
      </trkpt>
      <trkpt lat="49.81592" lon="4.74811">
        <ele>172</ele>
        <time>2021-05-15T08:44:07.000Z</time>
      </trkpt>
      <trkpt lat="49.81595" lon="4.74812">
        <ele>172</ele>
        <time>2021-05-15T08:44:08.000Z</time>
      </trkpt>
      <trkpt lat="49.81597" lon="4.74815">
        <ele>172</ele>
        <time>2021-05-15T08:44:09.000Z</time>
      </trkpt>
      <trkpt lat="49.81599" lon="4.74816">
        <ele>172</ele>
        <time>2021-05-15T08:44:10.000Z</time>
      </trkpt>
      <trkpt lat="49.81601" lon="4.74817">
        <ele>172</ele>
        <time>2021-05-15T08:44:11.000Z</time>
      </trkpt>
      <trkpt lat="49.81603" lon="4.74819">
        <ele>172</ele>
        <time>2021-05-15T08:44:12.000Z</time>
      </trkpt>
      <trkpt lat="49.81606" lon="4.7482">
        <ele>173</ele>
        <time>2021-05-15T08:44:13.000Z</time>
      </trkpt>
      <trkpt lat="49.81608" lon="4.74822">
        <ele>173</ele>
        <time>2021-05-15T08:44:14.000Z</time>
      </trkpt>
      <trkpt lat="49.81611" lon="4.74824">
        <ele>173</ele>
        <time>2021-05-15T08:44:15.000Z</time>
      </trkpt>
      <trkpt lat="49.81614" lon="4.74826">
        <ele>173</ele>
        <time>2021-05-15T08:44:16.000Z</time>
      </trkpt>
      <trkpt lat="49.81616" lon="4.74827">
        <ele>173</ele>
        <time>2021-05-15T08:44:17.000Z</time>
      </trkpt>
      <trkpt lat="49.81618" lon="4.74829">
        <ele>174</ele>
        <time>2021-05-15T08:44:18.000Z</time>
      </trkpt>
      <trkpt lat="49.81621" lon="4.74831">
        <ele>174</ele>
        <time>2021-05-15T08:44:19.000Z</time>
      </trkpt>
      <trkpt lat="49.81623" lon="4.74833">
        <ele>174</ele>
        <time>2021-05-15T08:44:20.000Z</time>
      </trkpt>
      <trkpt lat="49.81625" lon="4.74835">
        <ele>174</ele>
        <time>2021-05-15T08:44:21.000Z</time>
      </trkpt>
      <trkpt lat="49.81628" lon="4.74837">
        <ele>174</ele>
        <time>2021-05-15T08:44:22.000Z</time>
      </trkpt>
      <trkpt lat="49.8163" lon="4.74839">
        <ele>174</ele>
        <time>2021-05-15T08:44:23.000Z</time>
      </trkpt>
      <trkpt lat="49.81633" lon="4.74841">
        <ele>175</ele>
        <time>2021-05-15T08:44:24.000Z</time>
      </trkpt>
      <trkpt lat="49.81635" lon="4.74842">
        <ele>175</ele>
        <time>2021-05-15T08:44:25.000Z</time>
      </trkpt>
      <trkpt lat="49.81638" lon="4.74844">
        <ele>175</ele>
        <time>2021-05-15T08:44:26.000Z</time>
      </trkpt>
      <trkpt lat="49.8164" lon="4.74845">
        <ele>175</ele>
        <time>2021-05-15T08:44:27.000Z</time>
      </trkpt>
      <trkpt lat="49.81643" lon="4.74846">
        <ele>176</ele>
        <time>2021-05-15T08:44:28.000Z</time>
      </trkpt>
      <trkpt lat="49.81645" lon="4.74847">
        <ele>176</ele>
        <time>2021-05-15T08:44:29.000Z</time>
      </trkpt>
      <trkpt lat="49.81648" lon="4.74847">
        <ele>176</ele>
        <time>2021-05-15T08:44:30.000Z</time>
      </trkpt>
      <trkpt lat="49.81651" lon="4.74848">
        <ele>176</ele>
        <time>2021-05-15T08:44:31.000Z</time>
      </trkpt>
      <trkpt lat="49.81654" lon="4.74849">
        <ele>176</ele>
        <time>2021-05-15T08:44:32.000Z</time>
      </trkpt>
      <trkpt lat="49.81656" lon="4.74852">
        <ele>176</ele>
        <time>2021-05-15T08:44:33.000Z</time>
      </trkpt>
      <trkpt lat="49.81658" lon="4.74856">
        <ele>177</ele>
        <time>2021-05-15T08:44:34.000Z</time>
      </trkpt>
      <trkpt lat="49.81658" lon="4.7486">
        <ele>177</ele>
        <time>2021-05-15T08:44:35.000Z</time>
      </trkpt>
      <trkpt lat="49.81658" lon="4.74865">
        <ele>177</ele>
        <time>2021-05-15T08:44:36.000Z</time>
      </trkpt>
      <trkpt lat="49.81657" lon="4.7487">
        <ele>177</ele>
        <time>2021-05-15T08:44:37.000Z</time>
      </trkpt>
      <trkpt lat="49.81656" lon="4.74875">
        <ele>178</ele>
        <time>2021-05-15T08:44:38.000Z</time>
      </trkpt>
      <trkpt lat="49.81655" lon="4.7488">
        <ele>178</ele>
        <time>2021-05-15T08:44:39.000Z</time>
      </trkpt>
      <trkpt lat="49.81654" lon="4.74885">
        <ele>178</ele>
        <time>2021-05-15T08:44:40.000Z</time>
      </trkpt>
      <trkpt lat="49.81653" lon="4.7489">
        <ele>179</ele>
        <time>2021-05-15T08:44:41.000Z</time>
      </trkpt>
      <trkpt lat="49.81652" lon="4.74896">
        <ele>179</ele>
        <time>2021-05-15T08:44:42.000Z</time>
      </trkpt>
      <trkpt lat="49.81651" lon="4.74901">
        <ele>179</ele>
        <time>2021-05-15T08:44:43.000Z</time>
      </trkpt>
      <trkpt lat="49.8165" lon="4.74906">
        <ele>180</ele>
        <time>2021-05-15T08:44:44.000Z</time>
      </trkpt>
      <trkpt lat="49.81649" lon="4.74911">
        <ele>180</ele>
        <time>2021-05-15T08:44:45.000Z</time>
      </trkpt>
      <trkpt lat="49.81648" lon="4.74916">
        <ele>180</ele>
        <time>2021-05-15T08:44:46.000Z</time>
      </trkpt>
      <trkpt lat="49.81648" lon="4.7492">
        <ele>181</ele>
        <time>2021-05-15T08:44:47.000Z</time>
      </trkpt>
      <trkpt lat="49.81647" lon="4.74925">
        <ele>181</ele>
        <time>2021-05-15T08:44:48.000Z</time>
      </trkpt>
      <trkpt lat="49.81646" lon="4.7493">
        <ele>181</ele>
        <time>2021-05-15T08:44:49.000Z</time>
      </trkpt>
      <trkpt lat="49.81645" lon="4.74935">
        <ele>181</ele>
        <time>2021-05-15T08:44:50.000Z</time>
      </trkpt>
      <trkpt lat="49.81644" lon="4.74939">
        <ele>182</ele>
        <time>2021-05-15T08:44:51.000Z</time>
      </trkpt>
      <trkpt lat="49.81643" lon="4.74944">
        <ele>182</ele>
        <time>2021-05-15T08:44:52.000Z</time>
      </trkpt>
      <trkpt lat="49.81642" lon="4.74949">
        <ele>182</ele>
        <time>2021-05-15T08:44:53.000Z</time>
      </trkpt>
      <trkpt lat="49.81642" lon="4.74953">
        <ele>182</ele>
        <time>2021-05-15T08:44:54.000Z</time>
      </trkpt>
      <trkpt lat="49.81641" lon="4.74958">
        <ele>183</ele>
        <time>2021-05-15T08:44:55.000Z</time>
      </trkpt>
      <trkpt lat="49.81641" lon="4.74963">
        <ele>183</ele>
        <time>2021-05-15T08:44:56.000Z</time>
      </trkpt>
      <trkpt lat="49.8164" lon="4.74968">
        <ele>183</ele>
        <time>2021-05-15T08:44:57.000Z</time>
      </trkpt>
      <trkpt lat="49.8164" lon="4.74972">
        <ele>183</ele>
        <time>2021-05-15T08:44:58.000Z</time>
      </trkpt>
      <trkpt lat="49.81639" lon="4.74976">
        <ele>183</ele>
        <time>2021-05-15T08:44:59.000Z</time>
      </trkpt>
      <trkpt lat="49.81639" lon="4.7498">
        <ele>183</ele>
        <time>2021-05-15T08:45:00.000Z</time>
      </trkpt>
      <trkpt lat="49.81639" lon="4.74984">
        <ele>184</ele>
        <time>2021-05-15T08:45:01.000Z</time>
      </trkpt>
      <trkpt lat="49.81639" lon="4.74988">
        <ele>184</ele>
        <time>2021-05-15T08:45:02.000Z</time>
      </trkpt>
      <trkpt lat="49.81639" lon="4.74992">
        <ele>184</ele>
        <time>2021-05-15T08:45:03.000Z</time>
      </trkpt>
      <trkpt lat="49.81639" lon="4.74996">
        <ele>184</ele>
        <time>2021-05-15T08:45:04.000Z</time>
      </trkpt>
      <trkpt lat="49.81639" lon="4.75">
        <ele>184</ele>
        <time>2021-05-15T08:45:05.000Z</time>
      </trkpt>
      <trkpt lat="49.81639" lon="4.75004">
        <ele>184</ele>
        <time>2021-05-15T08:45:06.000Z</time>
      </trkpt>
      <trkpt lat="49.8164" lon="4.75008">
        <ele>185</ele>
        <time>2021-05-15T08:45:07.000Z</time>
      </trkpt>
      <trkpt lat="49.81641" lon="4.75012">
        <ele>185</ele>
        <time>2021-05-15T08:45:08.000Z</time>
      </trkpt>
      <trkpt lat="49.81642" lon="4.75016">
        <ele>185</ele>
        <time>2021-05-15T08:45:09.000Z</time>
      </trkpt>
      <trkpt lat="49.81644" lon="4.75019">
        <ele>185</ele>
        <time>2021-05-15T08:45:10.000Z</time>
      </trkpt>
      <trkpt lat="49.81645" lon="4.75023">
        <ele>185</ele>
        <time>2021-05-15T08:45:11.000Z</time>
      </trkpt>
      <trkpt lat="49.81647" lon="4.75027">
        <ele>185</ele>
        <time>2021-05-15T08:45:12.000Z</time>
      </trkpt>
      <trkpt lat="49.81649" lon="4.75031">
        <ele>186</ele>
        <time>2021-05-15T08:45:13.000Z</time>
      </trkpt>
      <trkpt lat="49.81651" lon="4.75034">
        <ele>186</ele>
        <time>2021-05-15T08:45:14.000Z</time>
      </trkpt>
      <trkpt lat="49.81654" lon="4.75037">
        <ele>186</ele>
        <time>2021-05-15T08:45:15.000Z</time>
      </trkpt>
      <trkpt lat="49.81656" lon="4.7504">
        <ele>186</ele>
        <time>2021-05-15T08:45:16.000Z</time>
      </trkpt>
      <trkpt lat="49.81657" lon="4.75043">
        <ele>186</ele>
        <time>2021-05-15T08:45:17.000Z</time>
      </trkpt>
      <trkpt lat="49.81659" lon="4.75046">
        <ele>186</ele>
        <time>2021-05-15T08:45:18.000Z</time>
      </trkpt>
      <trkpt lat="49.81661" lon="4.75049">
        <ele>186</ele>
        <time>2021-05-15T08:45:19.000Z</time>
      </trkpt>
      <trkpt lat="49.81663" lon="4.75051">
        <ele>187</ele>
        <time>2021-05-15T08:45:20.000Z</time>
      </trkpt>
      <trkpt lat="49.81665" lon="4.75053">
        <ele>187</ele>
        <time>2021-05-15T08:45:21.000Z</time>
      </trkpt>
      <trkpt lat="49.81668" lon="4.75055">
        <ele>187</ele>
        <time>2021-05-15T08:45:22.000Z</time>
      </trkpt>
      <trkpt lat="49.81671" lon="4.75057">
        <ele>187</ele>
        <time>2021-05-15T08:45:23.000Z</time>
      </trkpt>
      <trkpt lat="49.81673" lon="4.75059">
        <ele>187</ele>
        <time>2021-05-15T08:45:24.000Z</time>
      </trkpt>
      <trkpt lat="49.81675" lon="4.75061">
        <ele>187</ele>
        <time>2021-05-15T08:45:25.000Z</time>
      </trkpt>
      <trkpt lat="49.81678" lon="4.75064">
        <ele>187</ele>
        <time>2021-05-15T08:45:26.000Z</time>
      </trkpt>
      <trkpt lat="49.8168" lon="4.75067">
        <ele>188</ele>
        <time>2021-05-15T08:45:27.000Z</time>
      </trkpt>
      <trkpt lat="49.81683" lon="4.7507">
        <ele>188</ele>
        <time>2021-05-15T08:45:28.000Z</time>
      </trkpt>
      <trkpt lat="49.81685" lon="4.75073">
        <ele>188</ele>
        <time>2021-05-15T08:45:29.000Z</time>
      </trkpt>
      <trkpt lat="49.81688" lon="4.75077">
        <ele>188</ele>
        <time>2021-05-15T08:45:30.000Z</time>
      </trkpt>
      <trkpt lat="49.8169" lon="4.7508">
        <ele>188</ele>
        <time>2021-05-15T08:45:31.000Z</time>
      </trkpt>
      <trkpt lat="49.81692" lon="4.75084">
        <ele>188</ele>
        <time>2021-05-15T08:45:32.000Z</time>
      </trkpt>
      <trkpt lat="49.81695" lon="4.75087">
        <ele>189</ele>
        <time>2021-05-15T08:45:33.000Z</time>
      </trkpt>
      <trkpt lat="49.81696" lon="4.7509">
        <ele>189</ele>
        <time>2021-05-15T08:45:34.000Z</time>
      </trkpt>
      <trkpt lat="49.81698" lon="4.75093">
        <ele>189</ele>
        <time>2021-05-15T08:45:35.000Z</time>
      </trkpt>
      <trkpt lat="49.817" lon="4.75095">
        <ele>190</ele>
        <time>2021-05-15T08:45:36.000Z</time>
      </trkpt>
      <trkpt lat="49.81702" lon="4.75097">
        <ele>190</ele>
        <time>2021-05-15T08:45:37.000Z</time>
      </trkpt>
      <trkpt lat="49.81703" lon="4.751">
        <ele>190</ele>
        <time>2021-05-15T08:45:38.000Z</time>
      </trkpt>
      <trkpt lat="49.81705" lon="4.75102">
        <ele>191</ele>
        <time>2021-05-15T08:45:39.000Z</time>
      </trkpt>
      <trkpt lat="49.81707" lon="4.75104">
        <ele>191</ele>
        <time>2021-05-15T08:45:40.000Z</time>
      </trkpt>
      <trkpt lat="49.81709" lon="4.75107">
        <ele>191</ele>
        <time>2021-05-15T08:45:41.000Z</time>
      </trkpt>
      <trkpt lat="49.81711" lon="4.75109">
        <ele>191</ele>
        <time>2021-05-15T08:45:42.000Z</time>
      </trkpt>
      <trkpt lat="49.81713" lon="4.75111">
        <ele>192</ele>
        <time>2021-05-15T08:45:43.000Z</time>
      </trkpt>
      <trkpt lat="49.81715" lon="4.75113">
        <ele>192</ele>
        <time>2021-05-15T08:45:44.000Z</time>
      </trkpt>
      <trkpt lat="49.81717" lon="4.75116">
        <ele>192</ele>
        <time>2021-05-15T08:45:45.000Z</time>
      </trkpt>
      <trkpt lat="49.81719" lon="4.75118">
        <ele>193</ele>
        <time>2021-05-15T08:45:46.000Z</time>
      </trkpt>
      <trkpt lat="49.81722" lon="4.7512">
        <ele>193</ele>
        <time>2021-05-15T08:45:47.000Z</time>
      </trkpt>
      <trkpt lat="49.81725" lon="4.75122">
        <ele>193</ele>
        <time>2021-05-15T08:45:48.000Z</time>
      </trkpt>
      <trkpt lat="49.81727" lon="4.75123">
        <ele>193</ele>
        <time>2021-05-15T08:45:49.000Z</time>
      </trkpt>
      <trkpt lat="49.8173" lon="4.75125">
        <ele>193</ele>
        <time>2021-05-15T08:45:50.000Z</time>
      </trkpt>
      <trkpt lat="49.81732" lon="4.75127">
        <ele>193</ele>
        <time>2021-05-15T08:45:51.000Z</time>
      </trkpt>
      <trkpt lat="49.81734" lon="4.75128">
        <ele>193</ele>
        <time>2021-05-15T08:45:52.000Z</time>
      </trkpt>
      <trkpt lat="49.81736" lon="4.75129">
        <ele>194</ele>
        <time>2021-05-15T08:45:53.000Z</time>
      </trkpt>
      <trkpt lat="49.81738" lon="4.7513">
        <ele>194</ele>
        <time>2021-05-15T08:45:54.000Z</time>
      </trkpt>
      <trkpt lat="49.8174" lon="4.7513">
        <ele>194</ele>
        <time>2021-05-15T08:45:55.000Z</time>
      </trkpt>
      <trkpt lat="49.81742" lon="4.75131">
        <ele>194</ele>
        <time>2021-05-15T08:45:56.000Z</time>
      </trkpt>
      <trkpt lat="49.81744" lon="4.75132">
        <ele>194</ele>
        <time>2021-05-15T08:45:57.000Z</time>
      </trkpt>
      <trkpt lat="49.81746" lon="4.75134">
        <ele>194</ele>
        <time>2021-05-15T08:45:58.000Z</time>
      </trkpt>
      <trkpt lat="49.81748" lon="4.75135">
        <ele>194</ele>
        <time>2021-05-15T08:45:59.000Z</time>
      </trkpt>
      <trkpt lat="49.81751" lon="4.75136">
        <ele>194</ele>
        <time>2021-05-15T08:46:00.000Z</time>
      </trkpt>
      <trkpt lat="49.81754" lon="4.75137">
        <ele>194</ele>
        <time>2021-05-15T08:46:01.000Z</time>
      </trkpt>
      <trkpt lat="49.81756" lon="4.75139">
        <ele>194</ele>
        <time>2021-05-15T08:46:02.000Z</time>
      </trkpt>
      <trkpt lat="49.8176" lon="4.7514">
        <ele>195</ele>
        <time>2021-05-15T08:46:03.000Z</time>
      </trkpt>
      <trkpt lat="49.81763" lon="4.75142">
        <ele>195</ele>
        <time>2021-05-15T08:46:04.000Z</time>
      </trkpt>
      <trkpt lat="49.81767" lon="4.75143">
        <ele>195</ele>
        <time>2021-05-15T08:46:05.000Z</time>
      </trkpt>
      <trkpt lat="49.8177" lon="4.75144">
        <ele>195</ele>
        <time>2021-05-15T08:46:06.000Z</time>
      </trkpt>
      <trkpt lat="49.81774" lon="4.75146">
        <ele>195</ele>
        <time>2021-05-15T08:46:07.000Z</time>
      </trkpt>
      <trkpt lat="49.81777" lon="4.75147">
        <ele>195</ele>
        <time>2021-05-15T08:46:08.000Z</time>
      </trkpt>
      <trkpt lat="49.8178" lon="4.75148">
        <ele>195</ele>
        <time>2021-05-15T08:46:09.000Z</time>
      </trkpt>
      <trkpt lat="49.81783" lon="4.7515">
        <ele>195</ele>
        <time>2021-05-15T08:46:10.000Z</time>
      </trkpt>
      <trkpt lat="49.81786" lon="4.75152">
        <ele>196</ele>
        <time>2021-05-15T08:46:11.000Z</time>
      </trkpt>
      <trkpt lat="49.81787" lon="4.75154">
        <ele>196</ele>
        <time>2021-05-15T08:46:12.000Z</time>
      </trkpt>
      <trkpt lat="49.81789" lon="4.75155">
        <ele>196</ele>
        <time>2021-05-15T08:46:13.000Z</time>
      </trkpt>
      <trkpt lat="49.81792" lon="4.75157">
        <ele>196</ele>
        <time>2021-05-15T08:46:14.000Z</time>
      </trkpt>
      <trkpt lat="49.81794" lon="4.75159">
        <ele>196</ele>
        <time>2021-05-15T08:46:15.000Z</time>
      </trkpt>
      <trkpt lat="49.81796" lon="4.75161">
        <ele>197</ele>
        <time>2021-05-15T08:46:16.000Z</time>
      </trkpt>
      <trkpt lat="49.81798" lon="4.75162">
        <ele>197</ele>
        <time>2021-05-15T08:46:17.000Z</time>
      </trkpt>
      <trkpt lat="49.81799" lon="4.75163">
        <ele>197</ele>
        <time>2021-05-15T08:46:18.000Z</time>
      </trkpt>
      <trkpt lat="49.81801" lon="4.75164">
        <ele>197</ele>
        <time>2021-05-15T08:46:19.000Z</time>
      </trkpt>
      <trkpt lat="49.81803" lon="4.75166">
        <ele>197</ele>
        <time>2021-05-15T08:46:20.000Z</time>
      </trkpt>
      <trkpt lat="49.81805" lon="4.75167">
        <ele>198</ele>
        <time>2021-05-15T08:46:21.000Z</time>
      </trkpt>
      <trkpt lat="49.81807" lon="4.75168">
        <ele>198</ele>
        <time>2021-05-15T08:46:22.000Z</time>
      </trkpt>
      <trkpt lat="49.81809" lon="4.75169">
        <ele>198</ele>
        <time>2021-05-15T08:46:23.000Z</time>
      </trkpt>
      <trkpt lat="49.81812" lon="4.7517">
        <ele>199</ele>
        <time>2021-05-15T08:46:24.000Z</time>
      </trkpt>
      <trkpt lat="49.81814" lon="4.75171">
        <ele>199</ele>
        <time>2021-05-15T08:46:25.000Z</time>
      </trkpt>
      <trkpt lat="49.81817" lon="4.75173">
        <ele>199</ele>
        <time>2021-05-15T08:46:26.000Z</time>
      </trkpt>
      <trkpt lat="49.81819" lon="4.75174">
        <ele>200</ele>
        <time>2021-05-15T08:46:27.000Z</time>
      </trkpt>
      <trkpt lat="49.81822" lon="4.75176">
        <ele>200</ele>
        <time>2021-05-15T08:46:28.000Z</time>
      </trkpt>
      <trkpt lat="49.81825" lon="4.75178">
        <ele>200</ele>
        <time>2021-05-15T08:46:29.000Z</time>
      </trkpt>
      <trkpt lat="49.81827" lon="4.7518">
        <ele>200</ele>
        <time>2021-05-15T08:46:30.000Z</time>
      </trkpt>
      <trkpt lat="49.8183" lon="4.75182">
        <ele>201</ele>
        <time>2021-05-15T08:46:31.000Z</time>
      </trkpt>
      <trkpt lat="49.81833" lon="4.75183">
        <ele>201</ele>
        <time>2021-05-15T08:46:32.000Z</time>
      </trkpt>
      <trkpt lat="49.81835" lon="4.75185">
        <ele>201</ele>
        <time>2021-05-15T08:46:33.000Z</time>
      </trkpt>
      <trkpt lat="49.81837" lon="4.75187">
        <ele>201</ele>
        <time>2021-05-15T08:46:34.000Z</time>
      </trkpt>
      <trkpt lat="49.8184" lon="4.75188">
        <ele>202</ele>
        <time>2021-05-15T08:46:35.000Z</time>
      </trkpt>
      <trkpt lat="49.81842" lon="4.7519">
        <ele>202</ele>
        <time>2021-05-15T08:46:36.000Z</time>
      </trkpt>
      <trkpt lat="49.81844" lon="4.75192">
        <ele>202</ele>
        <time>2021-05-15T08:46:37.000Z</time>
      </trkpt>
      <trkpt lat="49.81846" lon="4.75193">
        <ele>203</ele>
        <time>2021-05-15T08:46:38.000Z</time>
      </trkpt>
      <trkpt lat="49.81848" lon="4.75195">
        <ele>203</ele>
        <time>2021-05-15T08:46:39.000Z</time>
      </trkpt>
      <trkpt lat="49.81851" lon="4.75196">
        <ele>203</ele>
        <time>2021-05-15T08:46:40.000Z</time>
      </trkpt>
      <trkpt lat="49.81854" lon="4.75197">
        <ele>203</ele>
        <time>2021-05-15T08:46:41.000Z</time>
      </trkpt>
      <trkpt lat="49.81856" lon="4.75198">
        <ele>204</ele>
        <time>2021-05-15T08:46:42.000Z</time>
      </trkpt>
      <trkpt lat="49.81859" lon="4.75199">
        <ele>204</ele>
        <time>2021-05-15T08:46:43.000Z</time>
      </trkpt>
      <trkpt lat="49.81862" lon="4.752">
        <ele>204</ele>
        <time>2021-05-15T08:46:44.000Z</time>
      </trkpt>
      <trkpt lat="49.81865" lon="4.75201">
        <ele>204</ele>
        <time>2021-05-15T08:46:45.000Z</time>
      </trkpt>
      <trkpt lat="49.81868" lon="4.75202">
        <ele>205</ele>
        <time>2021-05-15T08:46:46.000Z</time>
      </trkpt>
      <trkpt lat="49.81871" lon="4.75204">
        <ele>205</ele>
        <time>2021-05-15T08:46:47.000Z</time>
      </trkpt>
      <trkpt lat="49.81874" lon="4.75206">
        <ele>205</ele>
        <time>2021-05-15T08:46:48.000Z</time>
      </trkpt>
      <trkpt lat="49.81876" lon="4.75207">
        <ele>205</ele>
        <time>2021-05-15T08:46:49.000Z</time>
      </trkpt>
      <trkpt lat="49.81879" lon="4.75208">
        <ele>205</ele>
        <time>2021-05-15T08:46:50.000Z</time>
      </trkpt>
      <trkpt lat="49.81882" lon="4.75209">
        <ele>206</ele>
        <time>2021-05-15T08:46:51.000Z</time>
      </trkpt>
      <trkpt lat="49.81885" lon="4.7521">
        <ele>206</ele>
        <time>2021-05-15T08:46:52.000Z</time>
      </trkpt>
      <trkpt lat="49.81888" lon="4.75211">
        <ele>206</ele>
        <time>2021-05-15T08:46:53.000Z</time>
      </trkpt>
      <trkpt lat="49.8189" lon="4.75212">
        <ele>206</ele>
        <time>2021-05-15T08:46:54.000Z</time>
      </trkpt>
      <trkpt lat="49.81893" lon="4.75213">
        <ele>206</ele>
        <time>2021-05-15T08:46:55.000Z</time>
      </trkpt>
      <trkpt lat="49.81895" lon="4.75215">
        <ele>206</ele>
        <time>2021-05-15T08:46:56.000Z</time>
      </trkpt>
      <trkpt lat="49.81897" lon="4.75217">
        <ele>207</ele>
        <time>2021-05-15T08:46:57.000Z</time>
      </trkpt>
      <trkpt lat="49.81899" lon="4.75218">
        <ele>207</ele>
        <time>2021-05-15T08:46:58.000Z</time>
      </trkpt>
      <trkpt lat="49.81901" lon="4.75219">
        <ele>207</ele>
        <time>2021-05-15T08:46:59.000Z</time>
      </trkpt>
      <trkpt lat="49.81904" lon="4.75219">
        <ele>207</ele>
        <time>2021-05-15T08:47:00.000Z</time>
      </trkpt>
      <trkpt lat="49.81907" lon="4.7522">
        <ele>207</ele>
        <time>2021-05-15T08:47:01.000Z</time>
      </trkpt>
      <trkpt lat="49.81909" lon="4.75221">
        <ele>207</ele>
        <time>2021-05-15T08:47:02.000Z</time>
      </trkpt>
      <trkpt lat="49.81911" lon="4.75222">
        <ele>208</ele>
        <time>2021-05-15T08:47:03.000Z</time>
      </trkpt>
      <trkpt lat="49.81912" lon="4.75223">
        <ele>208</ele>
        <time>2021-05-15T08:47:04.000Z</time>
      </trkpt>
      <trkpt lat="49.81914" lon="4.75223">
        <ele>208</ele>
        <time>2021-05-15T08:47:05.000Z</time>
      </trkpt>
      <trkpt lat="49.81916" lon="4.75224">
        <ele>208</ele>
        <time>2021-05-15T08:47:06.000Z</time>
      </trkpt>
      <trkpt lat="49.81918" lon="4.75225">
        <ele>208</ele>
        <time>2021-05-15T08:47:07.000Z</time>
      </trkpt>
      <trkpt lat="49.8192" lon="4.75225">
        <ele>208</ele>
        <time>2021-05-15T08:47:08.000Z</time>
      </trkpt>
      <trkpt lat="49.81923" lon="4.75225">
        <ele>209</ele>
        <time>2021-05-15T08:47:09.000Z</time>
      </trkpt>
      <trkpt lat="49.81926" lon="4.75226">
        <ele>209</ele>
        <time>2021-05-15T08:47:10.000Z</time>
      </trkpt>
      <trkpt lat="49.81929" lon="4.75226">
        <ele>209</ele>
        <time>2021-05-15T08:47:11.000Z</time>
      </trkpt>
      <trkpt lat="49.81932" lon="4.75227">
        <ele>209</ele>
        <time>2021-05-15T08:47:12.000Z</time>
      </trkpt>
      <trkpt lat="49.81935" lon="4.75227">
        <ele>209</ele>
        <time>2021-05-15T08:47:13.000Z</time>
      </trkpt>
      <trkpt lat="49.81938" lon="4.75227">
        <ele>209</ele>
        <time>2021-05-15T08:47:14.000Z</time>
      </trkpt>
      <trkpt lat="49.81942" lon="4.75227">
        <ele>210</ele>
        <time>2021-05-15T08:47:15.000Z</time>
      </trkpt>
      <trkpt lat="49.81944" lon="4.75228">
        <ele>210</ele>
        <time>2021-05-15T08:47:16.000Z</time>
      </trkpt>
      <trkpt lat="49.81947" lon="4.75228">
        <ele>210</ele>
        <time>2021-05-15T08:47:17.000Z</time>
      </trkpt>
      <trkpt lat="49.81949" lon="4.75229">
        <ele>210</ele>
        <time>2021-05-15T08:47:18.000Z</time>
      </trkpt>
      <trkpt lat="49.81951" lon="4.75231">
        <ele>211</ele>
        <time>2021-05-15T08:47:19.000Z</time>
      </trkpt>
      <trkpt lat="49.81953" lon="4.75232">
        <ele>211</ele>
        <time>2021-05-15T08:47:20.000Z</time>
      </trkpt>
      <trkpt lat="49.81956" lon="4.75234">
        <ele>211</ele>
        <time>2021-05-15T08:47:21.000Z</time>
      </trkpt>
      <trkpt lat="49.81959" lon="4.75236">
        <ele>212</ele>
        <time>2021-05-15T08:47:22.000Z</time>
      </trkpt>
      <trkpt lat="49.81961" lon="4.75238">
        <ele>212</ele>
        <time>2021-05-15T08:47:23.000Z</time>
      </trkpt>
      <trkpt lat="49.81964" lon="4.75239">
        <ele>212</ele>
        <time>2021-05-15T08:47:24.000Z</time>
      </trkpt>
      <trkpt lat="49.81966" lon="4.75241">
        <ele>212</ele>
        <time>2021-05-15T08:47:25.000Z</time>
      </trkpt>
      <trkpt lat="49.81969" lon="4.75242">
        <ele>212</ele>
        <time>2021-05-15T08:47:26.000Z</time>
      </trkpt>
      <trkpt lat="49.81972" lon="4.75243">
        <ele>212</ele>
        <time>2021-05-15T08:47:27.000Z</time>
      </trkpt>
      <trkpt lat="49.81975" lon="4.75244">
        <ele>213</ele>
        <time>2021-05-15T08:47:28.000Z</time>
      </trkpt>
      <trkpt lat="49.81979" lon="4.75245">
        <ele>213</ele>
        <time>2021-05-15T08:47:29.000Z</time>
      </trkpt>
      <trkpt lat="49.81982" lon="4.75246">
        <ele>213</ele>
        <time>2021-05-15T08:47:30.000Z</time>
      </trkpt>
      <trkpt lat="49.81986" lon="4.75247">
        <ele>213</ele>
        <time>2021-05-15T08:47:31.000Z</time>
      </trkpt>
      <trkpt lat="49.81989" lon="4.75249">
        <ele>213</ele>
        <time>2021-05-15T08:47:32.000Z</time>
      </trkpt>
      <trkpt lat="49.81992" lon="4.7525">
        <ele>214</ele>
        <time>2021-05-15T08:47:33.000Z</time>
      </trkpt>
      <trkpt lat="49.81995" lon="4.75252">
        <ele>214</ele>
        <time>2021-05-15T08:47:34.000Z</time>
      </trkpt>
      <trkpt lat="49.81998" lon="4.75253">
        <ele>214</ele>
        <time>2021-05-15T08:47:35.000Z</time>
      </trkpt>
      <trkpt lat="49.82001" lon="4.75256">
        <ele>214</ele>
        <time>2021-05-15T08:47:36.000Z</time>
      </trkpt>
      <trkpt lat="49.82004" lon="4.75258">
        <ele>214</ele>
        <time>2021-05-15T08:47:37.000Z</time>
      </trkpt>
      <trkpt lat="49.82007" lon="4.75261">
        <ele>214</ele>
        <time>2021-05-15T08:47:38.000Z</time>
      </trkpt>
      <trkpt lat="49.82009" lon="4.75263">
        <ele>215</ele>
        <time>2021-05-15T08:47:39.000Z</time>
      </trkpt>
      <trkpt lat="49.82012" lon="4.75265">
        <ele>215</ele>
        <time>2021-05-15T08:47:40.000Z</time>
      </trkpt>
      <trkpt lat="49.82015" lon="4.75267">
        <ele>215</ele>
        <time>2021-05-15T08:47:41.000Z</time>
      </trkpt>
      <trkpt lat="49.82017" lon="4.75269">
        <ele>215</ele>
        <time>2021-05-15T08:47:42.000Z</time>
      </trkpt>
      <trkpt lat="49.8202" lon="4.75271">
        <ele>216</ele>
        <time>2021-05-15T08:47:43.000Z</time>
      </trkpt>
      <trkpt lat="49.82022" lon="4.75273">
        <ele>216</ele>
        <time>2021-05-15T08:47:44.000Z</time>
      </trkpt>
      <trkpt lat="49.82024" lon="4.75276">
        <ele>216</ele>
        <time>2021-05-15T08:47:45.000Z</time>
      </trkpt>
      <trkpt lat="49.82027" lon="4.75279">
        <ele>216</ele>
        <time>2021-05-15T08:47:46.000Z</time>
      </trkpt>
      <trkpt lat="49.82029" lon="4.75282">
        <ele>217</ele>
        <time>2021-05-15T08:47:47.000Z</time>
      </trkpt>
      <trkpt lat="49.82031" lon="4.75284">
        <ele>217</ele>
        <time>2021-05-15T08:47:48.000Z</time>
      </trkpt>
      <trkpt lat="49.82034" lon="4.75287">
        <ele>217</ele>
        <time>2021-05-15T08:47:49.000Z</time>
      </trkpt>
      <trkpt lat="49.82036" lon="4.75289">
        <ele>217</ele>
        <time>2021-05-15T08:47:50.000Z</time>
      </trkpt>
      <trkpt lat="49.82039" lon="4.75291">
        <ele>218</ele>
        <time>2021-05-15T08:47:51.000Z</time>
      </trkpt>
      <trkpt lat="49.82041" lon="4.75292">
        <ele>218</ele>
        <time>2021-05-15T08:47:52.000Z</time>
      </trkpt>
      <trkpt lat="49.82044" lon="4.75294">
        <ele>218</ele>
        <time>2021-05-15T08:47:53.000Z</time>
      </trkpt>
      <trkpt lat="49.82046" lon="4.75296">
        <ele>218</ele>
        <time>2021-05-15T08:47:54.000Z</time>
      </trkpt>
      <trkpt lat="49.82049" lon="4.75298">
        <ele>218</ele>
        <time>2021-05-15T08:47:55.000Z</time>
      </trkpt>
      <trkpt lat="49.82052" lon="4.753">
        <ele>219</ele>
        <time>2021-05-15T08:47:56.000Z</time>
      </trkpt>
      <trkpt lat="49.82054" lon="4.75302">
        <ele>219</ele>
        <time>2021-05-15T08:47:57.000Z</time>
      </trkpt>
      <trkpt lat="49.82057" lon="4.75304">
        <ele>219</ele>
        <time>2021-05-15T08:47:58.000Z</time>
      </trkpt>
      <trkpt lat="49.8206" lon="4.75307">
        <ele>219</ele>
        <time>2021-05-15T08:47:59.000Z</time>
      </trkpt>
      <trkpt lat="49.82062" lon="4.75309">
        <ele>220</ele>
        <time>2021-05-15T08:48:00.000Z</time>
      </trkpt>
      <trkpt lat="49.82065" lon="4.75312">
        <ele>220</ele>
        <time>2021-05-15T08:48:01.000Z</time>
      </trkpt>
      <trkpt lat="49.82068" lon="4.75315">
        <ele>220</ele>
        <time>2021-05-15T08:48:02.000Z</time>
      </trkpt>
      <trkpt lat="49.8207" lon="4.75317">
        <ele>220</ele>
        <time>2021-05-15T08:48:03.000Z</time>
      </trkpt>
      <trkpt lat="49.82072" lon="4.7532">
        <ele>221</ele>
        <time>2021-05-15T08:48:04.000Z</time>
      </trkpt>
      <trkpt lat="49.82074" lon="4.75322">
        <ele>221</ele>
        <time>2021-05-15T08:48:05.000Z</time>
      </trkpt>
      <trkpt lat="49.82077" lon="4.75325">
        <ele>221</ele>
        <time>2021-05-15T08:48:06.000Z</time>
      </trkpt>
      <trkpt lat="49.82079" lon="4.75327">
        <ele>221</ele>
        <time>2021-05-15T08:48:07.000Z</time>
      </trkpt>
      <trkpt lat="49.82081" lon="4.7533">
        <ele>222</ele>
        <time>2021-05-15T08:48:08.000Z</time>
      </trkpt>
      <trkpt lat="49.82083" lon="4.75332">
        <ele>222</ele>
        <time>2021-05-15T08:48:09.000Z</time>
      </trkpt>
      <trkpt lat="49.82086" lon="4.75335">
        <ele>222</ele>
        <time>2021-05-15T08:48:10.000Z</time>
      </trkpt>
      <trkpt lat="49.82088" lon="4.75337">
        <ele>223</ele>
        <time>2021-05-15T08:48:11.000Z</time>
      </trkpt>
      <trkpt lat="49.82091" lon="4.75339">
        <ele>223</ele>
        <time>2021-05-15T08:48:12.000Z</time>
      </trkpt>
      <trkpt lat="49.82093" lon="4.7534">
        <ele>223</ele>
        <time>2021-05-15T08:48:13.000Z</time>
      </trkpt>
      <trkpt lat="49.82096" lon="4.75342">
        <ele>223</ele>
        <time>2021-05-15T08:48:14.000Z</time>
      </trkpt>
      <trkpt lat="49.82099" lon="4.75344">
        <ele>224</ele>
        <time>2021-05-15T08:48:15.000Z</time>
      </trkpt>
      <trkpt lat="49.82102" lon="4.75345">
        <ele>224</ele>
        <time>2021-05-15T08:48:16.000Z</time>
      </trkpt>
      <trkpt lat="49.82105" lon="4.75348">
        <ele>224</ele>
        <time>2021-05-15T08:48:17.000Z</time>
      </trkpt>
      <trkpt lat="49.82108" lon="4.7535">
        <ele>224</ele>
        <time>2021-05-15T08:48:18.000Z</time>
      </trkpt>
      <trkpt lat="49.82111" lon="4.75352">
        <ele>225</ele>
        <time>2021-05-15T08:48:19.000Z</time>
      </trkpt>
      <trkpt lat="49.82113" lon="4.75355">
        <ele>225</ele>
        <time>2021-05-15T08:48:20.000Z</time>
      </trkpt>
      <trkpt lat="49.82116" lon="4.75357">
        <ele>225</ele>
        <time>2021-05-15T08:48:21.000Z</time>
      </trkpt>
      <trkpt lat="49.82119" lon="4.75359">
        <ele>225</ele>
        <time>2021-05-15T08:48:22.000Z</time>
      </trkpt>
      <trkpt lat="49.82121" lon="4.75362">
        <ele>225</ele>
        <time>2021-05-15T08:48:23.000Z</time>
      </trkpt>
      <trkpt lat="49.82124" lon="4.75365">
        <ele>226</ele>
        <time>2021-05-15T08:48:24.000Z</time>
      </trkpt>
      <trkpt lat="49.82126" lon="4.75368">
        <ele>226</ele>
        <time>2021-05-15T08:48:25.000Z</time>
      </trkpt>
      <trkpt lat="49.82128" lon="4.75371">
        <ele>226</ele>
        <time>2021-05-15T08:48:26.000Z</time>
      </trkpt>
      <trkpt lat="49.82131" lon="4.75373">
        <ele>226</ele>
        <time>2021-05-15T08:48:27.000Z</time>
      </trkpt>
      <trkpt lat="49.82133" lon="4.75376">
        <ele>226</ele>
        <time>2021-05-15T08:48:28.000Z</time>
      </trkpt>
      <trkpt lat="49.82136" lon="4.75379">
        <ele>226</ele>
        <time>2021-05-15T08:48:29.000Z</time>
      </trkpt>
      <trkpt lat="49.82138" lon="4.75382">
        <ele>226</ele>
        <time>2021-05-15T08:48:30.000Z</time>
      </trkpt>
      <trkpt lat="49.82141" lon="4.75384">
        <ele>227</ele>
        <time>2021-05-15T08:48:31.000Z</time>
      </trkpt>
      <trkpt lat="49.82143" lon="4.75387">
        <ele>227</ele>
        <time>2021-05-15T08:48:32.000Z</time>
      </trkpt>
      <trkpt lat="49.82146" lon="4.75391">
        <ele>227</ele>
        <time>2021-05-15T08:48:33.000Z</time>
      </trkpt>
      <trkpt lat="49.82148" lon="4.75394">
        <ele>227</ele>
        <time>2021-05-15T08:48:34.000Z</time>
      </trkpt>
      <trkpt lat="49.8215" lon="4.75397">
        <ele>228</ele>
        <time>2021-05-15T08:48:35.000Z</time>
      </trkpt>
      <trkpt lat="49.82152" lon="4.75401">
        <ele>228</ele>
        <time>2021-05-15T08:48:36.000Z</time>
      </trkpt>
      <trkpt lat="49.82154" lon="4.75404">
        <ele>228</ele>
        <time>2021-05-15T08:48:37.000Z</time>
      </trkpt>
      <trkpt lat="49.82155" lon="4.75408">
        <ele>228</ele>
        <time>2021-05-15T08:48:38.000Z</time>
      </trkpt>
      <trkpt lat="49.82157" lon="4.75411">
        <ele>229</ele>
        <time>2021-05-15T08:48:39.000Z</time>
      </trkpt>
      <trkpt lat="49.82159" lon="4.75414">
        <ele>229</ele>
        <time>2021-05-15T08:48:40.000Z</time>
      </trkpt>
      <trkpt lat="49.8216" lon="4.75418">
        <ele>229</ele>
        <time>2021-05-15T08:48:41.000Z</time>
      </trkpt>
      <trkpt lat="49.82161" lon="4.75422">
        <ele>229</ele>
        <time>2021-05-15T08:48:42.000Z</time>
      </trkpt>
      <trkpt lat="49.82163" lon="4.75425">
        <ele>230</ele>
        <time>2021-05-15T08:48:43.000Z</time>
      </trkpt>
      <trkpt lat="49.82164" lon="4.75428">
        <ele>230</ele>
        <time>2021-05-15T08:48:44.000Z</time>
      </trkpt>
      <trkpt lat="49.82166" lon="4.75432">
        <ele>230</ele>
        <time>2021-05-15T08:48:45.000Z</time>
      </trkpt>
      <trkpt lat="49.82168" lon="4.75435">
        <ele>230</ele>
        <time>2021-05-15T08:48:46.000Z</time>
      </trkpt>
      <trkpt lat="49.82169" lon="4.75439">
        <ele>231</ele>
        <time>2021-05-15T08:48:47.000Z</time>
      </trkpt>
      <trkpt lat="49.8217" lon="4.75443">
        <ele>231</ele>
        <time>2021-05-15T08:48:48.000Z</time>
      </trkpt>
      <trkpt lat="49.82171" lon="4.75446">
        <ele>231</ele>
        <time>2021-05-15T08:48:49.000Z</time>
      </trkpt>
      <trkpt lat="49.82173" lon="4.7545">
        <ele>231</ele>
        <time>2021-05-15T08:48:50.000Z</time>
      </trkpt>
      <trkpt lat="49.82174" lon="4.75454">
        <ele>232</ele>
        <time>2021-05-15T08:48:51.000Z</time>
      </trkpt>
      <trkpt lat="49.82176" lon="4.75458">
        <ele>232</ele>
        <time>2021-05-15T08:48:52.000Z</time>
      </trkpt>
      <trkpt lat="49.82177" lon="4.75462">
        <ele>232</ele>
        <time>2021-05-15T08:48:53.000Z</time>
      </trkpt>
      <trkpt lat="49.82178" lon="4.75466">
        <ele>232</ele>
        <time>2021-05-15T08:48:54.000Z</time>
      </trkpt>
      <trkpt lat="49.82179" lon="4.75469">
        <ele>233</ele>
        <time>2021-05-15T08:48:55.000Z</time>
      </trkpt>
      <trkpt lat="49.82181" lon="4.75472">
        <ele>233</ele>
        <time>2021-05-15T08:48:56.000Z</time>
      </trkpt>
      <trkpt lat="49.82183" lon="4.75475">
        <ele>233</ele>
        <time>2021-05-15T08:48:57.000Z</time>
      </trkpt>
      <trkpt lat="49.82185" lon="4.75479">
        <ele>234</ele>
        <time>2021-05-15T08:48:58.000Z</time>
      </trkpt>
      <trkpt lat="49.82188" lon="4.75482">
        <ele>234</ele>
        <time>2021-05-15T08:48:59.000Z</time>
      </trkpt>
      <trkpt lat="49.8219" lon="4.75485">
        <ele>234</ele>
        <time>2021-05-15T08:49:00.000Z</time>
      </trkpt>
      <trkpt lat="49.82192" lon="4.75489">
        <ele>234</ele>
        <time>2021-05-15T08:49:01.000Z</time>
      </trkpt>
      <trkpt lat="49.82194" lon="4.75493">
        <ele>235</ele>
        <time>2021-05-15T08:49:02.000Z</time>
      </trkpt>
      <trkpt lat="49.82196" lon="4.75497">
        <ele>235</ele>
        <time>2021-05-15T08:49:03.000Z</time>
      </trkpt>
      <trkpt lat="49.82198" lon="4.755">
        <ele>235</ele>
        <time>2021-05-15T08:49:04.000Z</time>
      </trkpt>
      <trkpt lat="49.822" lon="4.75504">
        <ele>235</ele>
        <time>2021-05-15T08:49:05.000Z</time>
      </trkpt>
      <trkpt lat="49.82202" lon="4.75508">
        <ele>235</ele>
        <time>2021-05-15T08:49:06.000Z</time>
      </trkpt>
      <trkpt lat="49.82203" lon="4.75512">
        <ele>236</ele>
        <time>2021-05-15T08:49:07.000Z</time>
      </trkpt>
      <trkpt lat="49.82204" lon="4.75515">
        <ele>236</ele>
        <time>2021-05-15T08:49:08.000Z</time>
      </trkpt>
      <trkpt lat="49.82206" lon="4.75518">
        <ele>236</ele>
        <time>2021-05-15T08:49:09.000Z</time>
      </trkpt>
      <trkpt lat="49.82207" lon="4.75522">
        <ele>236</ele>
        <time>2021-05-15T08:49:10.000Z</time>
      </trkpt>
      <trkpt lat="49.82209" lon="4.75526">
        <ele>237</ele>
        <time>2021-05-15T08:49:11.000Z</time>
      </trkpt>
      <trkpt lat="49.8221" lon="4.7553">
        <ele>237</ele>
        <time>2021-05-15T08:49:12.000Z</time>
      </trkpt>
      <trkpt lat="49.82212" lon="4.75533">
        <ele>237</ele>
        <time>2021-05-15T08:49:13.000Z</time>
      </trkpt>
      <trkpt lat="49.82214" lon="4.75537">
        <ele>237</ele>
        <time>2021-05-15T08:49:14.000Z</time>
      </trkpt>
      <trkpt lat="49.82215" lon="4.75541">
        <ele>237</ele>
        <time>2021-05-15T08:49:15.000Z</time>
      </trkpt>
      <trkpt lat="49.82217" lon="4.75544">
        <ele>238</ele>
        <time>2021-05-15T08:49:16.000Z</time>
      </trkpt>
      <trkpt lat="49.82219" lon="4.75548">
        <ele>238</ele>
        <time>2021-05-15T08:49:17.000Z</time>
      </trkpt>
      <trkpt lat="49.8222" lon="4.75552">
        <ele>238</ele>
        <time>2021-05-15T08:49:18.000Z</time>
      </trkpt>
      <trkpt lat="49.82222" lon="4.75555">
        <ele>238</ele>
        <time>2021-05-15T08:49:19.000Z</time>
      </trkpt>
      <trkpt lat="49.82222" lon="4.75559">
        <ele>238</ele>
        <time>2021-05-15T08:49:20.000Z</time>
      </trkpt>
      <trkpt lat="49.82224" lon="4.75562">
        <ele>238</ele>
        <time>2021-05-15T08:49:21.000Z</time>
      </trkpt>
      <trkpt lat="49.82225" lon="4.75565">
        <ele>238</ele>
        <time>2021-05-15T08:49:22.000Z</time>
      </trkpt>
      <trkpt lat="49.82226" lon="4.75567">
        <ele>238</ele>
        <time>2021-05-15T08:49:23.000Z</time>
      </trkpt>
      <trkpt lat="49.82228" lon="4.75571">
        <ele>239</ele>
        <time>2021-05-15T08:49:24.000Z</time>
      </trkpt>
      <trkpt lat="49.82229" lon="4.75574">
        <ele>239</ele>
        <time>2021-05-15T08:49:25.000Z</time>
      </trkpt>
      <trkpt lat="49.8223" lon="4.75579">
        <ele>239</ele>
        <time>2021-05-15T08:49:26.000Z</time>
      </trkpt>
      <trkpt lat="49.82232" lon="4.75583">
        <ele>239</ele>
        <time>2021-05-15T08:49:27.000Z</time>
      </trkpt>
      <trkpt lat="49.82233" lon="4.75586">
        <ele>239</ele>
        <time>2021-05-15T08:49:28.000Z</time>
      </trkpt>
      <trkpt lat="49.82234" lon="4.7559">
        <ele>239</ele>
        <time>2021-05-15T08:49:29.000Z</time>
      </trkpt>
      <trkpt lat="49.82235" lon="4.75594">
        <ele>239</ele>
        <time>2021-05-15T08:49:30.000Z</time>
      </trkpt>
      <trkpt lat="49.82236" lon="4.75598">
        <ele>239</ele>
        <time>2021-05-15T08:49:31.000Z</time>
      </trkpt>
      <trkpt lat="49.82237" lon="4.75602">
        <ele>239</ele>
        <time>2021-05-15T08:49:32.000Z</time>
      </trkpt>
      <trkpt lat="49.82238" lon="4.75606">
        <ele>240</ele>
        <time>2021-05-15T08:49:33.000Z</time>
      </trkpt>
      <trkpt lat="49.82239" lon="4.75609">
        <ele>240</ele>
        <time>2021-05-15T08:49:34.000Z</time>
      </trkpt>
      <trkpt lat="49.82239" lon="4.75613">
        <ele>240</ele>
        <time>2021-05-15T08:49:35.000Z</time>
      </trkpt>
      <trkpt lat="49.8224" lon="4.75616">
        <ele>240</ele>
        <time>2021-05-15T08:49:36.000Z</time>
      </trkpt>
      <trkpt lat="49.82242" lon="4.7562">
        <ele>240</ele>
        <time>2021-05-15T08:49:37.000Z</time>
      </trkpt>
      <trkpt lat="49.82243" lon="4.75624">
        <ele>240</ele>
        <time>2021-05-15T08:49:38.000Z</time>
      </trkpt>
      <trkpt lat="49.82245" lon="4.75628">
        <ele>240</ele>
        <time>2021-05-15T08:49:39.000Z</time>
      </trkpt>
      <trkpt lat="49.82247" lon="4.75633">
        <ele>240</ele>
        <time>2021-05-15T08:49:40.000Z</time>
      </trkpt>
      <trkpt lat="49.82249" lon="4.75637">
        <ele>241</ele>
        <time>2021-05-15T08:49:41.000Z</time>
      </trkpt>
      <trkpt lat="49.8225" lon="4.75642">
        <ele>241</ele>
        <time>2021-05-15T08:49:42.000Z</time>
      </trkpt>
      <trkpt lat="49.82252" lon="4.75646">
        <ele>241</ele>
        <time>2021-05-15T08:49:43.000Z</time>
      </trkpt>
      <trkpt lat="49.82253" lon="4.7565">
        <ele>241</ele>
        <time>2021-05-15T08:49:44.000Z</time>
      </trkpt>
      <trkpt lat="49.82255" lon="4.75655">
        <ele>241</ele>
        <time>2021-05-15T08:49:45.000Z</time>
      </trkpt>
      <trkpt lat="49.82257" lon="4.75659">
        <ele>241</ele>
        <time>2021-05-15T08:49:46.000Z</time>
      </trkpt>
      <trkpt lat="49.82258" lon="4.75662">
        <ele>242</ele>
        <time>2021-05-15T08:49:47.000Z</time>
      </trkpt>
      <trkpt lat="49.8226" lon="4.75666">
        <ele>242</ele>
        <time>2021-05-15T08:49:48.000Z</time>
      </trkpt>
      <trkpt lat="49.82261" lon="4.7567">
        <ele>242</ele>
        <time>2021-05-15T08:49:49.000Z</time>
      </trkpt>
      <trkpt lat="49.82262" lon="4.75674">
        <ele>242</ele>
        <time>2021-05-15T08:49:50.000Z</time>
      </trkpt>
      <trkpt lat="49.82264" lon="4.75678">
        <ele>242</ele>
        <time>2021-05-15T08:49:51.000Z</time>
      </trkpt>
      <trkpt lat="49.82266" lon="4.75683">
        <ele>242</ele>
        <time>2021-05-15T08:49:52.000Z</time>
      </trkpt>
      <trkpt lat="49.82267" lon="4.75687">
        <ele>242</ele>
        <time>2021-05-15T08:49:53.000Z</time>
      </trkpt>
      <trkpt lat="49.82269" lon="4.75691">
        <ele>242</ele>
        <time>2021-05-15T08:49:54.000Z</time>
      </trkpt>
      <trkpt lat="49.82271" lon="4.75694">
        <ele>242</ele>
        <time>2021-05-15T08:49:55.000Z</time>
      </trkpt>
      <trkpt lat="49.82273" lon="4.75698">
        <ele>243</ele>
        <time>2021-05-15T08:49:56.000Z</time>
      </trkpt>
      <trkpt lat="49.82276" lon="4.75701">
        <ele>243</ele>
        <time>2021-05-15T08:49:57.000Z</time>
      </trkpt>
      <trkpt lat="49.82277" lon="4.75705">
        <ele>243</ele>
        <time>2021-05-15T08:49:58.000Z</time>
      </trkpt>
      <trkpt lat="49.82278" lon="4.75709">
        <ele>243</ele>
        <time>2021-05-15T08:49:59.000Z</time>
      </trkpt>
      <trkpt lat="49.8228" lon="4.75713">
        <ele>243</ele>
        <time>2021-05-15T08:50:00.000Z</time>
      </trkpt>
      <trkpt lat="49.82282" lon="4.75717">
        <ele>243</ele>
        <time>2021-05-15T08:50:01.000Z</time>
      </trkpt>
      <trkpt lat="49.82283" lon="4.75721">
        <ele>243</ele>
        <time>2021-05-15T08:50:02.000Z</time>
      </trkpt>
      <trkpt lat="49.82285" lon="4.75725">
        <ele>243</ele>
        <time>2021-05-15T08:50:03.000Z</time>
      </trkpt>
      <trkpt lat="49.82287" lon="4.75729">
        <ele>243</ele>
        <time>2021-05-15T08:50:04.000Z</time>
      </trkpt>
      <trkpt lat="49.82289" lon="4.75733">
        <ele>243</ele>
        <time>2021-05-15T08:50:05.000Z</time>
      </trkpt>
      <trkpt lat="49.8229" lon="4.75737">
        <ele>244</ele>
        <time>2021-05-15T08:50:06.000Z</time>
      </trkpt>
      <trkpt lat="49.82292" lon="4.75741">
        <ele>244</ele>
        <time>2021-05-15T08:50:07.000Z</time>
      </trkpt>
      <trkpt lat="49.82293" lon="4.75745">
        <ele>244</ele>
        <time>2021-05-15T08:50:08.000Z</time>
      </trkpt>
      <trkpt lat="49.82295" lon="4.75749">
        <ele>244</ele>
        <time>2021-05-15T08:50:09.000Z</time>
      </trkpt>
      <trkpt lat="49.82297" lon="4.75753">
        <ele>244</ele>
        <time>2021-05-15T08:50:10.000Z</time>
      </trkpt>
      <trkpt lat="49.82299" lon="4.75757">
        <ele>245</ele>
        <time>2021-05-15T08:50:11.000Z</time>
      </trkpt>
      <trkpt lat="49.823" lon="4.75761">
        <ele>245</ele>
        <time>2021-05-15T08:50:12.000Z</time>
      </trkpt>
      <trkpt lat="49.82302" lon="4.75765">
        <ele>245</ele>
        <time>2021-05-15T08:50:13.000Z</time>
      </trkpt>
      <trkpt lat="49.82304" lon="4.75769">
        <ele>245</ele>
        <time>2021-05-15T08:50:14.000Z</time>
      </trkpt>
      <trkpt lat="49.82305" lon="4.75773">
        <ele>245</ele>
        <time>2021-05-15T08:50:15.000Z</time>
      </trkpt>
      <trkpt lat="49.82307" lon="4.75777">
        <ele>245</ele>
        <time>2021-05-15T08:50:16.000Z</time>
      </trkpt>
      <trkpt lat="49.82308" lon="4.75781">
        <ele>245</ele>
        <time>2021-05-15T08:50:17.000Z</time>
      </trkpt>
      <trkpt lat="49.8231" lon="4.75784">
        <ele>246</ele>
        <time>2021-05-15T08:50:18.000Z</time>
      </trkpt>
      <trkpt lat="49.82311" lon="4.75788">
        <ele>246</ele>
        <time>2021-05-15T08:50:19.000Z</time>
      </trkpt>
      <trkpt lat="49.82313" lon="4.75792">
        <ele>246</ele>
        <time>2021-05-15T08:50:20.000Z</time>
      </trkpt>
      <trkpt lat="49.82314" lon="4.75796">
        <ele>246</ele>
        <time>2021-05-15T08:50:21.000Z</time>
      </trkpt>
      <trkpt lat="49.82315" lon="4.758">
        <ele>246</ele>
        <time>2021-05-15T08:50:22.000Z</time>
      </trkpt>
      <trkpt lat="49.82317" lon="4.75804">
        <ele>246</ele>
        <time>2021-05-15T08:50:23.000Z</time>
      </trkpt>
      <trkpt lat="49.82318" lon="4.75808">
        <ele>246</ele>
        <time>2021-05-15T08:50:24.000Z</time>
      </trkpt>
      <trkpt lat="49.82319" lon="4.75812">
        <ele>247</ele>
        <time>2021-05-15T08:50:25.000Z</time>
      </trkpt>
      <trkpt lat="49.8232" lon="4.75816">
        <ele>247</ele>
        <time>2021-05-15T08:50:26.000Z</time>
      </trkpt>
      <trkpt lat="49.82322" lon="4.7582">
        <ele>247</ele>
        <time>2021-05-15T08:50:27.000Z</time>
      </trkpt>
      <trkpt lat="49.82323" lon="4.75824">
        <ele>247</ele>
        <time>2021-05-15T08:50:28.000Z</time>
      </trkpt>
      <trkpt lat="49.82324" lon="4.75827">
        <ele>247</ele>
        <time>2021-05-15T08:50:29.000Z</time>
      </trkpt>
      <trkpt lat="49.82325" lon="4.75831">
        <ele>248</ele>
        <time>2021-05-15T08:50:30.000Z</time>
      </trkpt>
      <trkpt lat="49.82326" lon="4.75834">
        <ele>248</ele>
        <time>2021-05-15T08:50:31.000Z</time>
      </trkpt>
      <trkpt lat="49.82327" lon="4.75837">
        <ele>248</ele>
        <time>2021-05-15T08:50:32.000Z</time>
      </trkpt>
      <trkpt lat="49.82328" lon="4.7584">
        <ele>248</ele>
        <time>2021-05-15T08:50:33.000Z</time>
      </trkpt>
      <trkpt lat="49.8233" lon="4.75843">
        <ele>248</ele>
        <time>2021-05-15T08:50:34.000Z</time>
      </trkpt>
      <trkpt lat="49.82331" lon="4.75846">
        <ele>248</ele>
        <time>2021-05-15T08:50:35.000Z</time>
      </trkpt>
      <trkpt lat="49.82333" lon="4.75849">
        <ele>248</ele>
        <time>2021-05-15T08:50:36.000Z</time>
      </trkpt>
      <trkpt lat="49.82334" lon="4.75851">
        <ele>249</ele>
        <time>2021-05-15T08:50:37.000Z</time>
      </trkpt>
      <trkpt lat="49.82335" lon="4.75854">
        <ele>249</ele>
        <time>2021-05-15T08:50:38.000Z</time>
      </trkpt>
      <trkpt lat="49.82336" lon="4.75858">
        <ele>249</ele>
        <time>2021-05-15T08:50:39.000Z</time>
      </trkpt>
      <trkpt lat="49.82337" lon="4.75861">
        <ele>249</ele>
        <time>2021-05-15T08:50:40.000Z</time>
      </trkpt>
      <trkpt lat="49.82339" lon="4.75865">
        <ele>249</ele>
        <time>2021-05-15T08:50:41.000Z</time>
      </trkpt>
      <trkpt lat="49.8234" lon="4.75869">
        <ele>249</ele>
        <time>2021-05-15T08:50:42.000Z</time>
      </trkpt>
      <trkpt lat="49.82341" lon="4.75872">
        <ele>249</ele>
        <time>2021-05-15T08:50:43.000Z</time>
      </trkpt>
      <trkpt lat="49.82342" lon="4.75877">
        <ele>250</ele>
        <time>2021-05-15T08:50:44.000Z</time>
      </trkpt>
      <trkpt lat="49.82342" lon="4.75881">
        <ele>250</ele>
        <time>2021-05-15T08:50:45.000Z</time>
      </trkpt>
      <trkpt lat="49.82343" lon="4.75886">
        <ele>250</ele>
        <time>2021-05-15T08:50:46.000Z</time>
      </trkpt>
      <trkpt lat="49.82344" lon="4.7589">
        <ele>250</ele>
        <time>2021-05-15T08:50:47.000Z</time>
      </trkpt>
      <trkpt lat="49.82346" lon="4.75894">
        <ele>250</ele>
        <time>2021-05-15T08:50:48.000Z</time>
      </trkpt>
      <trkpt lat="49.82348" lon="4.75898">
        <ele>250</ele>
        <time>2021-05-15T08:50:49.000Z</time>
      </trkpt>
      <trkpt lat="49.82349" lon="4.75903">
        <ele>250</ele>
        <time>2021-05-15T08:50:50.000Z</time>
      </trkpt>
      <trkpt lat="49.82351" lon="4.75907">
        <ele>250</ele>
        <time>2021-05-15T08:50:51.000Z</time>
      </trkpt>
      <trkpt lat="49.82353" lon="4.75911">
        <ele>250</ele>
        <time>2021-05-15T08:50:52.000Z</time>
      </trkpt>
      <trkpt lat="49.82355" lon="4.75915">
        <ele>250</ele>
        <time>2021-05-15T08:50:53.000Z</time>
      </trkpt>
      <trkpt lat="49.82356" lon="4.75919">
        <ele>250</ele>
        <time>2021-05-15T08:50:54.000Z</time>
      </trkpt>
      <trkpt lat="49.82358" lon="4.75923">
        <ele>251</ele>
        <time>2021-05-15T08:50:55.000Z</time>
      </trkpt>
      <trkpt lat="49.82359" lon="4.75926">
        <ele>251</ele>
        <time>2021-05-15T08:50:56.000Z</time>
      </trkpt>
      <trkpt lat="49.8236" lon="4.7593">
        <ele>251</ele>
        <time>2021-05-15T08:50:57.000Z</time>
      </trkpt>
      <trkpt lat="49.82361" lon="4.75935">
        <ele>251</ele>
        <time>2021-05-15T08:50:58.000Z</time>
      </trkpt>
      <trkpt lat="49.82362" lon="4.75939">
        <ele>251</ele>
        <time>2021-05-15T08:50:59.000Z</time>
      </trkpt>
      <trkpt lat="49.82364" lon="4.75943">
        <ele>252</ele>
        <time>2021-05-15T08:51:00.000Z</time>
      </trkpt>
      <trkpt lat="49.82365" lon="4.75947">
        <ele>252</ele>
        <time>2021-05-15T08:51:01.000Z</time>
      </trkpt>
      <trkpt lat="49.82366" lon="4.75951">
        <ele>252</ele>
        <time>2021-05-15T08:51:02.000Z</time>
      </trkpt>
      <trkpt lat="49.82367" lon="4.75956">
        <ele>252</ele>
        <time>2021-05-15T08:51:03.000Z</time>
      </trkpt>
      <trkpt lat="49.82368" lon="4.7596">
        <ele>252</ele>
        <time>2021-05-15T08:51:04.000Z</time>
      </trkpt>
      <trkpt lat="49.82369" lon="4.75964">
        <ele>253</ele>
        <time>2021-05-15T08:51:05.000Z</time>
      </trkpt>
      <trkpt lat="49.8237" lon="4.75969">
        <ele>253</ele>
        <time>2021-05-15T08:51:06.000Z</time>
      </trkpt>
      <trkpt lat="49.8237" lon="4.75974">
        <ele>253</ele>
        <time>2021-05-15T08:51:07.000Z</time>
      </trkpt>
      <trkpt lat="49.82371" lon="4.75978">
        <ele>253</ele>
        <time>2021-05-15T08:51:08.000Z</time>
      </trkpt>
      <trkpt lat="49.82372" lon="4.75982">
        <ele>253</ele>
        <time>2021-05-15T08:51:09.000Z</time>
      </trkpt>
      <trkpt lat="49.82374" lon="4.75987">
        <ele>253</ele>
        <time>2021-05-15T08:51:10.000Z</time>
      </trkpt>
      <trkpt lat="49.82375" lon="4.75991">
        <ele>253</ele>
        <time>2021-05-15T08:51:11.000Z</time>
      </trkpt>
      <trkpt lat="49.82376" lon="4.75996">
        <ele>254</ele>
        <time>2021-05-15T08:51:12.000Z</time>
      </trkpt>
      <trkpt lat="49.82377" lon="4.76">
        <ele>254</ele>
        <time>2021-05-15T08:51:13.000Z</time>
      </trkpt>
      <trkpt lat="49.82377" lon="4.76005">
        <ele>254</ele>
        <time>2021-05-15T08:51:14.000Z</time>
      </trkpt>
      <trkpt lat="49.82378" lon="4.76009">
        <ele>254</ele>
        <time>2021-05-15T08:51:15.000Z</time>
      </trkpt>
      <trkpt lat="49.82378" lon="4.76013">
        <ele>255</ele>
        <time>2021-05-15T08:51:16.000Z</time>
      </trkpt>
      <trkpt lat="49.82379" lon="4.76017">
        <ele>255</ele>
        <time>2021-05-15T08:51:17.000Z</time>
      </trkpt>
      <trkpt lat="49.8238" lon="4.76021">
        <ele>255</ele>
        <time>2021-05-15T08:51:18.000Z</time>
      </trkpt>
      <trkpt lat="49.82381" lon="4.76024">
        <ele>255</ele>
        <time>2021-05-15T08:51:19.000Z</time>
      </trkpt>
      <trkpt lat="49.82382" lon="4.76027">
        <ele>256</ele>
        <time>2021-05-15T08:51:20.000Z</time>
      </trkpt>
      <trkpt lat="49.82382" lon="4.7603">
        <ele>256</ele>
        <time>2021-05-15T08:51:21.000Z</time>
      </trkpt>
      <trkpt lat="49.82383" lon="4.76034">
        <ele>256</ele>
        <time>2021-05-15T08:51:22.000Z</time>
      </trkpt>
      <trkpt lat="49.82383" lon="4.76037">
        <ele>256</ele>
        <time>2021-05-15T08:51:23.000Z</time>
      </trkpt>
      <trkpt lat="49.82383" lon="4.76041">
        <ele>256</ele>
        <time>2021-05-15T08:51:24.000Z</time>
      </trkpt>
      <trkpt lat="49.82383" lon="4.76044">
        <ele>257</ele>
        <time>2021-05-15T08:51:25.000Z</time>
      </trkpt>
      <trkpt lat="49.82383" lon="4.76048">
        <ele>257</ele>
        <time>2021-05-15T08:51:26.000Z</time>
      </trkpt>
      <trkpt lat="49.82383" lon="4.76052">
        <ele>257</ele>
        <time>2021-05-15T08:51:27.000Z</time>
      </trkpt>
      <trkpt lat="49.82383" lon="4.76055">
        <ele>258</ele>
        <time>2021-05-15T08:51:28.000Z</time>
      </trkpt>
      <trkpt lat="49.82384" lon="4.76058">
        <ele>258</ele>
        <time>2021-05-15T08:51:29.000Z</time>
      </trkpt>
      <trkpt lat="49.82384" lon="4.76062">
        <ele>258</ele>
        <time>2021-05-15T08:51:30.000Z</time>
      </trkpt>
      <trkpt lat="49.82384" lon="4.76065">
        <ele>258</ele>
        <time>2021-05-15T08:51:31.000Z</time>
      </trkpt>
      <trkpt lat="49.82385" lon="4.76069">
        <ele>258</ele>
        <time>2021-05-15T08:51:32.000Z</time>
      </trkpt>
      <trkpt lat="49.82386" lon="4.76072">
        <ele>259</ele>
        <time>2021-05-15T08:51:33.000Z</time>
      </trkpt>
      <trkpt lat="49.82387" lon="4.76076">
        <ele>259</ele>
        <time>2021-05-15T08:51:34.000Z</time>
      </trkpt>
      <trkpt lat="49.82387" lon="4.76079">
        <ele>259</ele>
        <time>2021-05-15T08:51:35.000Z</time>
      </trkpt>
      <trkpt lat="49.82388" lon="4.76082">
        <ele>259</ele>
        <time>2021-05-15T08:51:36.000Z</time>
      </trkpt>
      <trkpt lat="49.82389" lon="4.76086">
        <ele>259</ele>
        <time>2021-05-15T08:51:37.000Z</time>
      </trkpt>
      <trkpt lat="49.82391" lon="4.76089">
        <ele>260</ele>
        <time>2021-05-15T08:51:38.000Z</time>
      </trkpt>
      <trkpt lat="49.82391" lon="4.76092">
        <ele>260</ele>
        <time>2021-05-15T08:51:39.000Z</time>
      </trkpt>
      <trkpt lat="49.82393" lon="4.76096">
        <ele>260</ele>
        <time>2021-05-15T08:51:40.000Z</time>
      </trkpt>
      <trkpt lat="49.82394" lon="4.76099">
        <ele>260</ele>
        <time>2021-05-15T08:51:41.000Z</time>
      </trkpt>
      <trkpt lat="49.82395" lon="4.76103">
        <ele>260</ele>
        <time>2021-05-15T08:51:42.000Z</time>
      </trkpt>
      <trkpt lat="49.82396" lon="4.76107">
        <ele>260</ele>
        <time>2021-05-15T08:51:43.000Z</time>
      </trkpt>
      <trkpt lat="49.82398" lon="4.76111">
        <ele>260</ele>
        <time>2021-05-15T08:51:44.000Z</time>
      </trkpt>
      <trkpt lat="49.82399" lon="4.76115">
        <ele>261</ele>
        <time>2021-05-15T08:51:45.000Z</time>
      </trkpt>
      <trkpt lat="49.824" lon="4.76119">
        <ele>261</ele>
        <time>2021-05-15T08:51:46.000Z</time>
      </trkpt>
      <trkpt lat="49.82401" lon="4.76123">
        <ele>261</ele>
        <time>2021-05-15T08:51:47.000Z</time>
      </trkpt>
      <trkpt lat="49.82402" lon="4.76127">
        <ele>262</ele>
        <time>2021-05-15T08:51:48.000Z</time>
      </trkpt>
      <trkpt lat="49.82404" lon="4.7613">
        <ele>262</ele>
        <time>2021-05-15T08:51:49.000Z</time>
      </trkpt>
      <trkpt lat="49.82405" lon="4.76134">
        <ele>262</ele>
        <time>2021-05-15T08:51:50.000Z</time>
      </trkpt>
      <trkpt lat="49.82407" lon="4.76138">
        <ele>263</ele>
        <time>2021-05-15T08:51:51.000Z</time>
      </trkpt>
      <trkpt lat="49.82409" lon="4.76142">
        <ele>263</ele>
        <time>2021-05-15T08:51:52.000Z</time>
      </trkpt>
      <trkpt lat="49.8241" lon="4.76145">
        <ele>263</ele>
        <time>2021-05-15T08:51:53.000Z</time>
      </trkpt>
      <trkpt lat="49.82412" lon="4.76149">
        <ele>263</ele>
        <time>2021-05-15T08:51:54.000Z</time>
      </trkpt>
      <trkpt lat="49.82413" lon="4.76152">
        <ele>264</ele>
        <time>2021-05-15T08:51:55.000Z</time>
      </trkpt>
      <trkpt lat="49.82415" lon="4.76156">
        <ele>264</ele>
        <time>2021-05-15T08:51:56.000Z</time>
      </trkpt>
      <trkpt lat="49.82416" lon="4.7616">
        <ele>264</ele>
        <time>2021-05-15T08:51:57.000Z</time>
      </trkpt>
      <trkpt lat="49.82417" lon="4.76161">
        <ele>264</ele>
        <time>2021-05-15T08:51:58.000Z</time>
      </trkpt>
      <trkpt lat="49.82417" lon="4.76162">
        <ele>265</ele>
        <time>2021-05-15T08:51:59.000Z</time>
      </trkpt>
      <trkpt lat="49.82417" lon="4.76162">
        <ele>265</ele>
        <time>2021-05-15T08:52:00.000Z</time>
      </trkpt>
      <trkpt lat="49.82418" lon="4.76163">
        <ele>265</ele>
        <time>2021-05-15T08:52:01.000Z</time>
      </trkpt>
      <trkpt lat="49.82418" lon="4.76163">
        <ele>265</ele>
        <time>2021-05-15T08:52:02.000Z</time>
      </trkpt>
      <trkpt lat="49.82418" lon="4.76163">
        <ele>265</ele>
        <time>2021-05-15T08:52:03.000Z</time>
      </trkpt>
      <trkpt lat="49.82419" lon="4.76163">
        <ele>265</ele>
        <time>2021-05-15T08:52:04.000Z</time>
      </trkpt>
      <trkpt lat="49.82419" lon="4.76163">
        <ele>265</ele>
        <time>2021-05-15T08:52:05.000Z</time>
      </trkpt>
      <trkpt lat="49.82419" lon="4.76164">
        <ele>266</ele>
        <time>2021-05-15T08:52:06.000Z</time>
      </trkpt>
      <trkpt lat="49.8242" lon="4.76164">
        <ele>266</ele>
        <time>2021-05-15T08:52:07.000Z</time>
      </trkpt>
      <trkpt lat="49.8242" lon="4.76164">
        <ele>266</ele>
        <time>2021-05-15T08:52:08.000Z</time>
      </trkpt>
      <trkpt lat="49.8242" lon="4.76165">
        <ele>266</ele>
        <time>2021-05-15T08:52:09.000Z</time>
      </trkpt>
      <trkpt lat="49.82421" lon="4.76165">
        <ele>266</ele>
        <time>2021-05-15T08:52:10.000Z</time>
      </trkpt>
      <trkpt lat="49.82421" lon="4.76165">
        <ele>266</ele>
        <time>2021-05-15T08:52:11.000Z</time>
      </trkpt>
      <trkpt lat="49.82421" lon="4.76165">
        <ele>266</ele>
        <time>2021-05-15T08:52:12.000Z</time>
      </trkpt>
      <trkpt lat="49.82422" lon="4.76165">
        <ele>266</ele>
        <time>2021-05-15T08:52:13.000Z</time>
      </trkpt>
      <trkpt lat="49.82422" lon="4.76165">
        <ele>266</ele>
        <time>2021-05-15T08:52:14.000Z</time>
      </trkpt>
      <trkpt lat="49.82422" lon="4.76165">
        <ele>266</ele>
        <time>2021-05-15T08:52:15.000Z</time>
      </trkpt>
      <trkpt lat="49.82423" lon="4.76165">
        <ele>266</ele>
        <time>2021-05-15T08:52:16.000Z</time>
      </trkpt>
      <trkpt lat="49.82423" lon="4.76165">
        <ele>267</ele>
        <time>2021-05-15T08:52:17.000Z</time>
      </trkpt>
      <trkpt lat="49.82423" lon="4.76165">
        <ele>267</ele>
        <time>2021-05-15T08:52:18.000Z</time>
      </trkpt>
      <trkpt lat="49.82423" lon="4.76164">
        <ele>267</ele>
        <time>2021-05-15T08:52:19.000Z</time>
      </trkpt>
      <trkpt lat="49.82423" lon="4.76164">
        <ele>267</ele>
        <time>2021-05-15T08:52:20.000Z</time>
      </trkpt>
      <trkpt lat="49.82424" lon="4.76164">
        <ele>267</ele>
        <time>2021-05-15T08:52:21.000Z</time>
      </trkpt>
      <trkpt lat="49.82424" lon="4.76164">
        <ele>267</ele>
        <time>2021-05-15T08:52:22.000Z</time>
      </trkpt>
      <trkpt lat="49.82424" lon="4.76164">
        <ele>267</ele>
        <time>2021-05-15T08:52:23.000Z</time>
      </trkpt>
      <trkpt lat="49.82424" lon="4.76164">
        <ele>267</ele>
        <time>2021-05-15T08:52:24.000Z</time>
      </trkpt>
      <trkpt lat="49.82424" lon="4.76164">
        <ele>267</ele>
        <time>2021-05-15T08:52:25.000Z</time>
      </trkpt>
      <trkpt lat="49.82424" lon="4.76163">
        <ele>267</ele>
        <time>2021-05-15T08:52:26.000Z</time>
      </trkpt>
      <trkpt lat="49.82424" lon="4.76163">
        <ele>267</ele>
        <time>2021-05-15T08:52:27.000Z</time>
      </trkpt>
      <trkpt lat="49.82424" lon="4.76163">
        <ele>267</ele>
        <time>2021-05-15T08:52:28.000Z</time>
      </trkpt>
      <trkpt lat="49.82424" lon="4.76165">
        <ele>267</ele>
        <time>2021-05-15T08:52:29.000Z</time>
      </trkpt>
      <trkpt lat="49.82424" lon="4.76166">
        <ele>268</ele>
        <time>2021-05-15T08:52:30.000Z</time>
      </trkpt>
      <trkpt lat="49.82425" lon="4.76169">
        <ele>268</ele>
        <time>2021-05-15T08:52:31.000Z</time>
      </trkpt>
      <trkpt lat="49.82426" lon="4.76172">
        <ele>268</ele>
        <time>2021-05-15T08:52:32.000Z</time>
      </trkpt>
      <trkpt lat="49.82427" lon="4.76174">
        <ele>268</ele>
        <time>2021-05-15T08:52:33.000Z</time>
      </trkpt>
      <trkpt lat="49.82428" lon="4.76177">
        <ele>268</ele>
        <time>2021-05-15T08:52:34.000Z</time>
      </trkpt>
      <trkpt lat="49.82429" lon="4.7618">
        <ele>268</ele>
        <time>2021-05-15T08:52:35.000Z</time>
      </trkpt>
      <trkpt lat="49.82431" lon="4.76184">
        <ele>268</ele>
        <time>2021-05-15T08:52:36.000Z</time>
      </trkpt>
      <trkpt lat="49.82432" lon="4.76187">
        <ele>268</ele>
        <time>2021-05-15T08:52:37.000Z</time>
      </trkpt>
      <trkpt lat="49.82434" lon="4.76191">
        <ele>268</ele>
        <time>2021-05-15T08:52:38.000Z</time>
      </trkpt>
      <trkpt lat="49.82435" lon="4.76195">
        <ele>268</ele>
        <time>2021-05-15T08:52:39.000Z</time>
      </trkpt>
      <trkpt lat="49.82436" lon="4.76199">
        <ele>268</ele>
        <time>2021-05-15T08:52:40.000Z</time>
      </trkpt>
      <trkpt lat="49.82437" lon="4.76203">
        <ele>268</ele>
        <time>2021-05-15T08:52:41.000Z</time>
      </trkpt>
      <trkpt lat="49.82438" lon="4.76207">
        <ele>268</ele>
        <time>2021-05-15T08:52:42.000Z</time>
      </trkpt>
      <trkpt lat="49.82439" lon="4.76211">
        <ele>268</ele>
        <time>2021-05-15T08:52:43.000Z</time>
      </trkpt>
      <trkpt lat="49.8244" lon="4.76216">
        <ele>268</ele>
        <time>2021-05-15T08:52:44.000Z</time>
      </trkpt>
      <trkpt lat="49.82442" lon="4.76221">
        <ele>268</ele>
        <time>2021-05-15T08:52:45.000Z</time>
      </trkpt>
      <trkpt lat="49.82442" lon="4.76226">
        <ele>268</ele>
        <time>2021-05-15T08:52:46.000Z</time>
      </trkpt>
      <trkpt lat="49.82442" lon="4.7623">
        <ele>268</ele>
        <time>2021-05-15T08:52:47.000Z</time>
      </trkpt>
      <trkpt lat="49.82442" lon="4.76234">
        <ele>268</ele>
        <time>2021-05-15T08:52:48.000Z</time>
      </trkpt>
      <trkpt lat="49.82443" lon="4.76238">
        <ele>268</ele>
        <time>2021-05-15T08:52:49.000Z</time>
      </trkpt>
      <trkpt lat="49.82443" lon="4.76243">
        <ele>268</ele>
        <time>2021-05-15T08:52:50.000Z</time>
      </trkpt>
      <trkpt lat="49.82444" lon="4.76247">
        <ele>268</ele>
        <time>2021-05-15T08:52:51.000Z</time>
      </trkpt>
      <trkpt lat="49.82445" lon="4.76251">
        <ele>269</ele>
        <time>2021-05-15T08:52:52.000Z</time>
      </trkpt>
      <trkpt lat="49.82446" lon="4.76255">
        <ele>269</ele>
        <time>2021-05-15T08:52:53.000Z</time>
      </trkpt>
      <trkpt lat="49.82446" lon="4.7626">
        <ele>269</ele>
        <time>2021-05-15T08:52:54.000Z</time>
      </trkpt>
      <trkpt lat="49.82447" lon="4.76264">
        <ele>269</ele>
        <time>2021-05-15T08:52:55.000Z</time>
      </trkpt>
      <trkpt lat="49.82448" lon="4.76269">
        <ele>269</ele>
        <time>2021-05-15T08:52:56.000Z</time>
      </trkpt>
      <trkpt lat="49.82448" lon="4.76272">
        <ele>269</ele>
        <time>2021-05-15T08:52:57.000Z</time>
      </trkpt>
      <trkpt lat="49.82448" lon="4.76276">
        <ele>270</ele>
        <time>2021-05-15T08:52:58.000Z</time>
      </trkpt>
      <trkpt lat="49.82449" lon="4.7628">
        <ele>270</ele>
        <time>2021-05-15T08:52:59.000Z</time>
      </trkpt>
      <trkpt lat="49.82448" lon="4.76285">
        <ele>270</ele>
        <time>2021-05-15T08:53:00.000Z</time>
      </trkpt>
      <trkpt lat="49.82448" lon="4.76289">
        <ele>270</ele>
        <time>2021-05-15T08:53:01.000Z</time>
      </trkpt>
      <trkpt lat="49.82447" lon="4.76293">
        <ele>270</ele>
        <time>2021-05-15T08:53:02.000Z</time>
      </trkpt>
      <trkpt lat="49.82447" lon="4.76298">
        <ele>270</ele>
        <time>2021-05-15T08:53:03.000Z</time>
      </trkpt>
      <trkpt lat="49.82446" lon="4.76302">
        <ele>270</ele>
        <time>2021-05-15T08:53:04.000Z</time>
      </trkpt>
      <trkpt lat="49.82446" lon="4.76306">
        <ele>270</ele>
        <time>2021-05-15T08:53:05.000Z</time>
      </trkpt>
      <trkpt lat="49.82445" lon="4.7631">
        <ele>271</ele>
        <time>2021-05-15T08:53:06.000Z</time>
      </trkpt>
      <trkpt lat="49.82445" lon="4.76314">
        <ele>271</ele>
        <time>2021-05-15T08:53:07.000Z</time>
      </trkpt>
      <trkpt lat="49.82445" lon="4.76318">
        <ele>271</ele>
        <time>2021-05-15T08:53:08.000Z</time>
      </trkpt>
      <trkpt lat="49.82445" lon="4.76322">
        <ele>271</ele>
        <time>2021-05-15T08:53:09.000Z</time>
      </trkpt>
      <trkpt lat="49.82444" lon="4.76326">
        <ele>271</ele>
        <time>2021-05-15T08:53:10.000Z</time>
      </trkpt>
      <trkpt lat="49.82444" lon="4.7633">
        <ele>272</ele>
        <time>2021-05-15T08:53:11.000Z</time>
      </trkpt>
      <trkpt lat="49.82444" lon="4.76334">
        <ele>272</ele>
        <time>2021-05-15T08:53:12.000Z</time>
      </trkpt>
      <trkpt lat="49.82444" lon="4.76338">
        <ele>272</ele>
        <time>2021-05-15T08:53:13.000Z</time>
      </trkpt>
      <trkpt lat="49.82444" lon="4.76342">
        <ele>272</ele>
        <time>2021-05-15T08:53:14.000Z</time>
      </trkpt>
      <trkpt lat="49.82443" lon="4.76346">
        <ele>272</ele>
        <time>2021-05-15T08:53:15.000Z</time>
      </trkpt>
      <trkpt lat="49.82443" lon="4.7635">
        <ele>272</ele>
        <time>2021-05-15T08:53:16.000Z</time>
      </trkpt>
      <trkpt lat="49.82443" lon="4.76354">
        <ele>273</ele>
        <time>2021-05-15T08:53:17.000Z</time>
      </trkpt>
      <trkpt lat="49.82443" lon="4.76358">
        <ele>273</ele>
        <time>2021-05-15T08:53:18.000Z</time>
      </trkpt>
      <trkpt lat="49.82442" lon="4.76362">
        <ele>273</ele>
        <time>2021-05-15T08:53:19.000Z</time>
      </trkpt>
      <trkpt lat="49.82442" lon="4.76366">
        <ele>273</ele>
        <time>2021-05-15T08:53:20.000Z</time>
      </trkpt>
      <trkpt lat="49.82442" lon="4.76371">
        <ele>273</ele>
        <time>2021-05-15T08:53:21.000Z</time>
      </trkpt>
      <trkpt lat="49.82442" lon="4.76375">
        <ele>273</ele>
        <time>2021-05-15T08:53:22.000Z</time>
      </trkpt>
      <trkpt lat="49.82442" lon="4.76379">
        <ele>274</ele>
        <time>2021-05-15T08:53:23.000Z</time>
      </trkpt>
      <trkpt lat="49.82442" lon="4.76383">
        <ele>274</ele>
        <time>2021-05-15T08:53:24.000Z</time>
      </trkpt>
      <trkpt lat="49.82442" lon="4.76387">
        <ele>274</ele>
        <time>2021-05-15T08:53:25.000Z</time>
      </trkpt>
      <trkpt lat="49.82442" lon="4.76392">
        <ele>274</ele>
        <time>2021-05-15T08:53:26.000Z</time>
      </trkpt>
      <trkpt lat="49.82442" lon="4.76396">
        <ele>274</ele>
        <time>2021-05-15T08:53:27.000Z</time>
      </trkpt>
      <trkpt lat="49.82442" lon="4.76401">
        <ele>274</ele>
        <time>2021-05-15T08:53:28.000Z</time>
      </trkpt>
      <trkpt lat="49.82442" lon="4.76405">
        <ele>274</ele>
        <time>2021-05-15T08:53:29.000Z</time>
      </trkpt>
      <trkpt lat="49.82441" lon="4.76411">
        <ele>274</ele>
        <time>2021-05-15T08:53:30.000Z</time>
      </trkpt>
      <trkpt lat="49.8244" lon="4.76416">
        <ele>274</ele>
        <time>2021-05-15T08:53:31.000Z</time>
      </trkpt>
      <trkpt lat="49.8244" lon="4.76421">
        <ele>273</ele>
        <time>2021-05-15T08:53:32.000Z</time>
      </trkpt>
      <trkpt lat="49.8244" lon="4.76426">
        <ele>273</ele>
        <time>2021-05-15T08:53:33.000Z</time>
      </trkpt>
      <trkpt lat="49.8244" lon="4.76432">
        <ele>273</ele>
        <time>2021-05-15T08:53:34.000Z</time>
      </trkpt>
      <trkpt lat="49.8244" lon="4.76437">
        <ele>273</ele>
        <time>2021-05-15T08:53:35.000Z</time>
      </trkpt>
      <trkpt lat="49.82441" lon="4.76442">
        <ele>273</ele>
        <time>2021-05-15T08:53:36.000Z</time>
      </trkpt>
      <trkpt lat="49.82442" lon="4.76446">
        <ele>274</ele>
        <time>2021-05-15T08:53:37.000Z</time>
      </trkpt>
      <trkpt lat="49.82442" lon="4.7645">
        <ele>274</ele>
        <time>2021-05-15T08:53:38.000Z</time>
      </trkpt>
      <trkpt lat="49.82442" lon="4.76454">
        <ele>274</ele>
        <time>2021-05-15T08:53:39.000Z</time>
      </trkpt>
      <trkpt lat="49.82441" lon="4.76457">
        <ele>274</ele>
        <time>2021-05-15T08:53:40.000Z</time>
      </trkpt>
      <trkpt lat="49.8244" lon="4.76462">
        <ele>274</ele>
        <time>2021-05-15T08:53:41.000Z</time>
      </trkpt>
      <trkpt lat="49.8244" lon="4.76465">
        <ele>274</ele>
        <time>2021-05-15T08:53:42.000Z</time>
      </trkpt>
      <trkpt lat="49.82441" lon="4.76469">
        <ele>274</ele>
        <time>2021-05-15T08:53:43.000Z</time>
      </trkpt>
      <trkpt lat="49.82441" lon="4.76473">
        <ele>274</ele>
        <time>2021-05-15T08:53:44.000Z</time>
      </trkpt>
      <trkpt lat="49.82441" lon="4.76477">
        <ele>274</ele>
        <time>2021-05-15T08:53:45.000Z</time>
      </trkpt>
      <trkpt lat="49.82441" lon="4.7648">
        <ele>274</ele>
        <time>2021-05-15T08:53:46.000Z</time>
      </trkpt>
      <trkpt lat="49.82442" lon="4.76484">
        <ele>274</ele>
        <time>2021-05-15T08:53:47.000Z</time>
      </trkpt>
      <trkpt lat="49.82443" lon="4.76487">
        <ele>274</ele>
        <time>2021-05-15T08:53:48.000Z</time>
      </trkpt>
      <trkpt lat="49.82445" lon="4.7649">
        <ele>274</ele>
        <time>2021-05-15T08:53:49.000Z</time>
      </trkpt>
      <trkpt lat="49.82446" lon="4.76493">
        <ele>275</ele>
        <time>2021-05-15T08:53:50.000Z</time>
      </trkpt>
      <trkpt lat="49.82446" lon="4.76496">
        <ele>275</ele>
        <time>2021-05-15T08:53:51.000Z</time>
      </trkpt>
      <trkpt lat="49.82447" lon="4.765">
        <ele>275</ele>
        <time>2021-05-15T08:53:52.000Z</time>
      </trkpt>
      <trkpt lat="49.82446" lon="4.76504">
        <ele>275</ele>
        <time>2021-05-15T08:53:53.000Z</time>
      </trkpt>
      <trkpt lat="49.82445" lon="4.76507">
        <ele>275</ele>
        <time>2021-05-15T08:53:54.000Z</time>
      </trkpt>
      <trkpt lat="49.82445" lon="4.7651">
        <ele>276</ele>
        <time>2021-05-15T08:53:55.000Z</time>
      </trkpt>
      <trkpt lat="49.82444" lon="4.76514">
        <ele>276</ele>
        <time>2021-05-15T08:53:56.000Z</time>
      </trkpt>
      <trkpt lat="49.82443" lon="4.76518">
        <ele>276</ele>
        <time>2021-05-15T08:53:57.000Z</time>
      </trkpt>
      <trkpt lat="49.82443" lon="4.76522">
        <ele>276</ele>
        <time>2021-05-15T08:53:58.000Z</time>
      </trkpt>
      <trkpt lat="49.82442" lon="4.76525">
        <ele>276</ele>
        <time>2021-05-15T08:53:59.000Z</time>
      </trkpt>
      <trkpt lat="49.82441" lon="4.76529">
        <ele>277</ele>
        <time>2021-05-15T08:54:00.000Z</time>
      </trkpt>
      <trkpt lat="49.8244" lon="4.76532">
        <ele>277</ele>
        <time>2021-05-15T08:54:01.000Z</time>
      </trkpt>
      <trkpt lat="49.82438" lon="4.76535">
        <ele>277</ele>
        <time>2021-05-15T08:54:02.000Z</time>
      </trkpt>
      <trkpt lat="49.82436" lon="4.76536">
        <ele>277</ele>
        <time>2021-05-15T08:54:03.000Z</time>
      </trkpt>
      <trkpt lat="49.82435" lon="4.76538">
        <ele>277</ele>
        <time>2021-05-15T08:54:04.000Z</time>
      </trkpt>
      <trkpt lat="49.82433" lon="4.76541">
        <ele>277</ele>
        <time>2021-05-15T08:54:05.000Z</time>
      </trkpt>
      <trkpt lat="49.82432" lon="4.76544">
        <ele>278</ele>
        <time>2021-05-15T08:54:06.000Z</time>
      </trkpt>
      <trkpt lat="49.82431" lon="4.76548">
        <ele>278</ele>
        <time>2021-05-15T08:54:07.000Z</time>
      </trkpt>
      <trkpt lat="49.82429" lon="4.7655">
        <ele>278</ele>
        <time>2021-05-15T08:54:08.000Z</time>
      </trkpt>
      <trkpt lat="49.82428" lon="4.76553">
        <ele>278</ele>
        <time>2021-05-15T08:54:09.000Z</time>
      </trkpt>
      <trkpt lat="49.82427" lon="4.76556">
        <ele>278</ele>
        <time>2021-05-15T08:54:10.000Z</time>
      </trkpt>
      <trkpt lat="49.82425" lon="4.7656">
        <ele>279</ele>
        <time>2021-05-15T08:54:11.000Z</time>
      </trkpt>
      <trkpt lat="49.82423" lon="4.76563">
        <ele>279</ele>
        <time>2021-05-15T08:54:12.000Z</time>
      </trkpt>
      <trkpt lat="49.82422" lon="4.76567">
        <ele>279</ele>
        <time>2021-05-15T08:54:13.000Z</time>
      </trkpt>
      <trkpt lat="49.8242" lon="4.7657">
        <ele>279</ele>
        <time>2021-05-15T08:54:14.000Z</time>
      </trkpt>
      <trkpt lat="49.82419" lon="4.76573">
        <ele>280</ele>
        <time>2021-05-15T08:54:15.000Z</time>
      </trkpt>
      <trkpt lat="49.82418" lon="4.76577">
        <ele>280</ele>
        <time>2021-05-15T08:54:16.000Z</time>
      </trkpt>
      <trkpt lat="49.82416" lon="4.7658">
        <ele>280</ele>
        <time>2021-05-15T08:54:17.000Z</time>
      </trkpt>
      <trkpt lat="49.82415" lon="4.76584">
        <ele>280</ele>
        <time>2021-05-15T08:54:18.000Z</time>
      </trkpt>
      <trkpt lat="49.82414" lon="4.76586">
        <ele>281</ele>
        <time>2021-05-15T08:54:19.000Z</time>
      </trkpt>
      <trkpt lat="49.82413" lon="4.76589">
        <ele>281</ele>
        <time>2021-05-15T08:54:20.000Z</time>
      </trkpt>
      <trkpt lat="49.82412" lon="4.76592">
        <ele>281</ele>
        <time>2021-05-15T08:54:21.000Z</time>
      </trkpt>
      <trkpt lat="49.82411" lon="4.76595">
        <ele>281</ele>
        <time>2021-05-15T08:54:22.000Z</time>
      </trkpt>
      <trkpt lat="49.8241" lon="4.76597">
        <ele>282</ele>
        <time>2021-05-15T08:54:23.000Z</time>
      </trkpt>
      <trkpt lat="49.8241" lon="4.76599">
        <ele>282</ele>
        <time>2021-05-15T08:54:24.000Z</time>
      </trkpt>
      <trkpt lat="49.8241" lon="4.76602">
        <ele>282</ele>
        <time>2021-05-15T08:54:25.000Z</time>
      </trkpt>
      <trkpt lat="49.82409" lon="4.76605">
        <ele>282</ele>
        <time>2021-05-15T08:54:26.000Z</time>
      </trkpt>
      <trkpt lat="49.82409" lon="4.76608">
        <ele>283</ele>
        <time>2021-05-15T08:54:27.000Z</time>
      </trkpt>
      <trkpt lat="49.8241" lon="4.76612">
        <ele>283</ele>
        <time>2021-05-15T08:54:28.000Z</time>
      </trkpt>
      <trkpt lat="49.8241" lon="4.76615">
        <ele>283</ele>
        <time>2021-05-15T08:54:29.000Z</time>
      </trkpt>
      <trkpt lat="49.8241" lon="4.7662">
        <ele>283</ele>
        <time>2021-05-15T08:54:30.000Z</time>
      </trkpt>
      <trkpt lat="49.82411" lon="4.76624">
        <ele>283</ele>
        <time>2021-05-15T08:54:31.000Z</time>
      </trkpt>
      <trkpt lat="49.82412" lon="4.76628">
        <ele>283</ele>
        <time>2021-05-15T08:54:32.000Z</time>
      </trkpt>
      <trkpt lat="49.82413" lon="4.76633">
        <ele>283</ele>
        <time>2021-05-15T08:54:33.000Z</time>
      </trkpt>
      <trkpt lat="49.82413" lon="4.76637">
        <ele>283</ele>
        <time>2021-05-15T08:54:34.000Z</time>
      </trkpt>
      <trkpt lat="49.82414" lon="4.76641">
        <ele>284</ele>
        <time>2021-05-15T08:54:35.000Z</time>
      </trkpt>
      <trkpt lat="49.82415" lon="4.76645">
        <ele>284</ele>
        <time>2021-05-15T08:54:36.000Z</time>
      </trkpt>
      <trkpt lat="49.82415" lon="4.76649">
        <ele>284</ele>
        <time>2021-05-15T08:54:37.000Z</time>
      </trkpt>
      <trkpt lat="49.82416" lon="4.76654">
        <ele>284</ele>
        <time>2021-05-15T08:54:38.000Z</time>
      </trkpt>
      <trkpt lat="49.82418" lon="4.76657">
        <ele>284</ele>
        <time>2021-05-15T08:54:39.000Z</time>
      </trkpt>
      <trkpt lat="49.82419" lon="4.76662">
        <ele>284</ele>
        <time>2021-05-15T08:54:40.000Z</time>
      </trkpt>
      <trkpt lat="49.8242" lon="4.76667">
        <ele>284</ele>
        <time>2021-05-15T08:54:41.000Z</time>
      </trkpt>
      <trkpt lat="49.82421" lon="4.76671">
        <ele>284</ele>
        <time>2021-05-15T08:54:42.000Z</time>
      </trkpt>
      <trkpt lat="49.82421" lon="4.76676">
        <ele>284</ele>
        <time>2021-05-15T08:54:43.000Z</time>
      </trkpt>
      <trkpt lat="49.82422" lon="4.76681">
        <ele>284</ele>
        <time>2021-05-15T08:54:44.000Z</time>
      </trkpt>
      <trkpt lat="49.82423" lon="4.76685">
        <ele>285</ele>
        <time>2021-05-15T08:54:45.000Z</time>
      </trkpt>
      <trkpt lat="49.82423" lon="4.76689">
        <ele>285</ele>
        <time>2021-05-15T08:54:46.000Z</time>
      </trkpt>
      <trkpt lat="49.82423" lon="4.76693">
        <ele>285</ele>
        <time>2021-05-15T08:54:47.000Z</time>
      </trkpt>
      <trkpt lat="49.82423" lon="4.76695">
        <ele>285</ele>
        <time>2021-05-15T08:54:48.000Z</time>
      </trkpt>
      <trkpt lat="49.82423" lon="4.76698">
        <ele>286</ele>
        <time>2021-05-15T08:54:49.000Z</time>
      </trkpt>
      <trkpt lat="49.82424" lon="4.76701">
        <ele>286</ele>
        <time>2021-05-15T08:54:50.000Z</time>
      </trkpt>
      <trkpt lat="49.82424" lon="4.76703">
        <ele>286</ele>
        <time>2021-05-15T08:54:51.000Z</time>
      </trkpt>
      <trkpt lat="49.82425" lon="4.76705">
        <ele>286</ele>
        <time>2021-05-15T08:54:52.000Z</time>
      </trkpt>
      <trkpt lat="49.82424" lon="4.76708">
        <ele>287</ele>
        <time>2021-05-15T08:54:53.000Z</time>
      </trkpt>
      <trkpt lat="49.82425" lon="4.76711">
        <ele>287</ele>
        <time>2021-05-15T08:54:54.000Z</time>
      </trkpt>
      <trkpt lat="49.82425" lon="4.76714">
        <ele>287</ele>
        <time>2021-05-15T08:54:55.000Z</time>
      </trkpt>
      <trkpt lat="49.82426" lon="4.76717">
        <ele>287</ele>
        <time>2021-05-15T08:54:56.000Z</time>
      </trkpt>
      <trkpt lat="49.82426" lon="4.76719">
        <ele>287</ele>
        <time>2021-05-15T08:54:57.000Z</time>
      </trkpt>
      <trkpt lat="49.82427" lon="4.76722">
        <ele>288</ele>
        <time>2021-05-15T08:54:58.000Z</time>
      </trkpt>
      <trkpt lat="49.82428" lon="4.76724">
        <ele>288</ele>
        <time>2021-05-15T08:54:59.000Z</time>
      </trkpt>
      <trkpt lat="49.82428" lon="4.76726">
        <ele>288</ele>
        <time>2021-05-15T08:55:00.000Z</time>
      </trkpt>
      <trkpt lat="49.82429" lon="4.76728">
        <ele>288</ele>
        <time>2021-05-15T08:55:01.000Z</time>
      </trkpt>
      <trkpt lat="49.82429" lon="4.76731">
        <ele>289</ele>
        <time>2021-05-15T08:55:02.000Z</time>
      </trkpt>
      <trkpt lat="49.8243" lon="4.76733">
        <ele>289</ele>
        <time>2021-05-15T08:55:03.000Z</time>
      </trkpt>
      <trkpt lat="49.82431" lon="4.76736">
        <ele>289</ele>
        <time>2021-05-15T08:55:04.000Z</time>
      </trkpt>
      <trkpt lat="49.82432" lon="4.76739">
        <ele>289</ele>
        <time>2021-05-15T08:55:05.000Z</time>
      </trkpt>
      <trkpt lat="49.82432" lon="4.76741">
        <ele>290</ele>
        <time>2021-05-15T08:55:06.000Z</time>
      </trkpt>
      <trkpt lat="49.82433" lon="4.76744">
        <ele>290</ele>
        <time>2021-05-15T08:55:07.000Z</time>
      </trkpt>
      <trkpt lat="49.82433" lon="4.76746">
        <ele>290</ele>
        <time>2021-05-15T08:55:08.000Z</time>
      </trkpt>
      <trkpt lat="49.82434" lon="4.76749">
        <ele>291</ele>
        <time>2021-05-15T08:55:09.000Z</time>
      </trkpt>
      <trkpt lat="49.82435" lon="4.76751">
        <ele>291</ele>
        <time>2021-05-15T08:55:10.000Z</time>
      </trkpt>
      <trkpt lat="49.82435" lon="4.76754">
        <ele>291</ele>
        <time>2021-05-15T08:55:11.000Z</time>
      </trkpt>
      <trkpt lat="49.82436" lon="4.76756">
        <ele>291</ele>
        <time>2021-05-15T08:55:12.000Z</time>
      </trkpt>
      <trkpt lat="49.82437" lon="4.76758">
        <ele>292</ele>
        <time>2021-05-15T08:55:13.000Z</time>
      </trkpt>
      <trkpt lat="49.82438" lon="4.7676">
        <ele>292</ele>
        <time>2021-05-15T08:55:14.000Z</time>
      </trkpt>
      <trkpt lat="49.82439" lon="4.76763">
        <ele>292</ele>
        <time>2021-05-15T08:55:15.000Z</time>
      </trkpt>
      <trkpt lat="49.82439" lon="4.76765">
        <ele>293</ele>
        <time>2021-05-15T08:55:16.000Z</time>
      </trkpt>
      <trkpt lat="49.8244" lon="4.76768">
        <ele>293</ele>
        <time>2021-05-15T08:55:17.000Z</time>
      </trkpt>
      <trkpt lat="49.8244" lon="4.7677">
        <ele>293</ele>
        <time>2021-05-15T08:55:18.000Z</time>
      </trkpt>
      <trkpt lat="49.82441" lon="4.76773">
        <ele>294</ele>
        <time>2021-05-15T08:55:19.000Z</time>
      </trkpt>
      <trkpt lat="49.82441" lon="4.76775">
        <ele>294</ele>
        <time>2021-05-15T08:55:20.000Z</time>
      </trkpt>
      <trkpt lat="49.82441" lon="4.76777">
        <ele>294</ele>
        <time>2021-05-15T08:55:21.000Z</time>
      </trkpt>
      <trkpt lat="49.82442" lon="4.76779">
        <ele>295</ele>
        <time>2021-05-15T08:55:22.000Z</time>
      </trkpt>
      <trkpt lat="49.82442" lon="4.76782">
        <ele>295</ele>
        <time>2021-05-15T08:55:23.000Z</time>
      </trkpt>
      <trkpt lat="49.82443" lon="4.76785">
        <ele>295</ele>
        <time>2021-05-15T08:55:24.000Z</time>
      </trkpt>
      <trkpt lat="49.82444" lon="4.76787">
        <ele>295</ele>
        <time>2021-05-15T08:55:25.000Z</time>
      </trkpt>
      <trkpt lat="49.82444" lon="4.7679">
        <ele>296</ele>
        <time>2021-05-15T08:55:26.000Z</time>
      </trkpt>
      <trkpt lat="49.82445" lon="4.76792">
        <ele>296</ele>
        <time>2021-05-15T08:55:27.000Z</time>
      </trkpt>
      <trkpt lat="49.82445" lon="4.76795">
        <ele>296</ele>
        <time>2021-05-15T08:55:28.000Z</time>
      </trkpt>
      <trkpt lat="49.82446" lon="4.76798">
        <ele>296</ele>
        <time>2021-05-15T08:55:29.000Z</time>
      </trkpt>
      <trkpt lat="49.82447" lon="4.76801">
        <ele>297</ele>
        <time>2021-05-15T08:55:30.000Z</time>
      </trkpt>
      <trkpt lat="49.82448" lon="4.76804">
        <ele>297</ele>
        <time>2021-05-15T08:55:31.000Z</time>
      </trkpt>
      <trkpt lat="49.82448" lon="4.76806">
        <ele>297</ele>
        <time>2021-05-15T08:55:32.000Z</time>
      </trkpt>
      <trkpt lat="49.82449" lon="4.76809">
        <ele>297</ele>
        <time>2021-05-15T08:55:33.000Z</time>
      </trkpt>
      <trkpt lat="49.8245" lon="4.76812">
        <ele>298</ele>
        <time>2021-05-15T08:55:34.000Z</time>
      </trkpt>
      <trkpt lat="49.82451" lon="4.76814">
        <ele>298</ele>
        <time>2021-05-15T08:55:35.000Z</time>
      </trkpt>
      <trkpt lat="49.82451" lon="4.76817">
        <ele>298</ele>
        <time>2021-05-15T08:55:36.000Z</time>
      </trkpt>
      <trkpt lat="49.82452" lon="4.76819">
        <ele>298</ele>
        <time>2021-05-15T08:55:37.000Z</time>
      </trkpt>
      <trkpt lat="49.82453" lon="4.76822">
        <ele>299</ele>
        <time>2021-05-15T08:55:38.000Z</time>
      </trkpt>
      <trkpt lat="49.82453" lon="4.76824">
        <ele>299</ele>
        <time>2021-05-15T08:55:39.000Z</time>
      </trkpt>
      <trkpt lat="49.82454" lon="4.76827">
        <ele>299</ele>
        <time>2021-05-15T08:55:40.000Z</time>
      </trkpt>
      <trkpt lat="49.82454" lon="4.7683">
        <ele>299</ele>
        <time>2021-05-15T08:55:41.000Z</time>
      </trkpt>
      <trkpt lat="49.82454" lon="4.76832">
        <ele>299</ele>
        <time>2021-05-15T08:55:42.000Z</time>
      </trkpt>
      <trkpt lat="49.82455" lon="4.76835">
        <ele>300</ele>
        <time>2021-05-15T08:55:43.000Z</time>
      </trkpt>
      <trkpt lat="49.82455" lon="4.76837">
        <ele>300</ele>
        <time>2021-05-15T08:55:44.000Z</time>
      </trkpt>
      <trkpt lat="49.82455" lon="4.7684">
        <ele>300</ele>
        <time>2021-05-15T08:55:45.000Z</time>
      </trkpt>
      <trkpt lat="49.82455" lon="4.76842">
        <ele>300</ele>
        <time>2021-05-15T08:55:46.000Z</time>
      </trkpt>
      <trkpt lat="49.82455" lon="4.76843">
        <ele>300</ele>
        <time>2021-05-15T08:55:47.000Z</time>
      </trkpt>
      <trkpt lat="49.82454" lon="4.76845">
        <ele>300</ele>
        <time>2021-05-15T08:55:48.000Z</time>
      </trkpt>
      <trkpt lat="49.82454" lon="4.76847">
        <ele>300</ele>
        <time>2021-05-15T08:55:49.000Z</time>
      </trkpt>
      <trkpt lat="49.82454" lon="4.76849">
        <ele>301</ele>
        <time>2021-05-15T08:55:50.000Z</time>
      </trkpt>
      <trkpt lat="49.82453" lon="4.76851">
        <ele>301</ele>
        <time>2021-05-15T08:55:51.000Z</time>
      </trkpt>
      <trkpt lat="49.82454" lon="4.76853">
        <ele>301</ele>
        <time>2021-05-15T08:55:52.000Z</time>
      </trkpt>
      <trkpt lat="49.82454" lon="4.76855">
        <ele>301</ele>
        <time>2021-05-15T08:55:53.000Z</time>
      </trkpt>
      <trkpt lat="49.82455" lon="4.76858">
        <ele>302</ele>
        <time>2021-05-15T08:55:54.000Z</time>
      </trkpt>
      <trkpt lat="49.82455" lon="4.7686">
        <ele>302</ele>
        <time>2021-05-15T08:55:55.000Z</time>
      </trkpt>
      <trkpt lat="49.82455" lon="4.76863">
        <ele>302</ele>
        <time>2021-05-15T08:55:56.000Z</time>
      </trkpt>
      <trkpt lat="49.82455" lon="4.76865">
        <ele>302</ele>
        <time>2021-05-15T08:55:57.000Z</time>
      </trkpt>
      <trkpt lat="49.82455" lon="4.76868">
        <ele>303</ele>
        <time>2021-05-15T08:55:58.000Z</time>
      </trkpt>
      <trkpt lat="49.82456" lon="4.7687">
        <ele>303</ele>
        <time>2021-05-15T08:55:59.000Z</time>
      </trkpt>
      <trkpt lat="49.82457" lon="4.76873">
        <ele>303</ele>
        <time>2021-05-15T08:56:00.000Z</time>
      </trkpt>
      <trkpt lat="49.82458" lon="4.76876">
        <ele>303</ele>
        <time>2021-05-15T08:56:01.000Z</time>
      </trkpt>
      <trkpt lat="49.82458" lon="4.76879">
        <ele>303</ele>
        <time>2021-05-15T08:56:02.000Z</time>
      </trkpt>
      <trkpt lat="49.82458" lon="4.76882">
        <ele>304</ele>
        <time>2021-05-15T08:56:03.000Z</time>
      </trkpt>
      <trkpt lat="49.82459" lon="4.76885">
        <ele>304</ele>
        <time>2021-05-15T08:56:04.000Z</time>
      </trkpt>
      <trkpt lat="49.82459" lon="4.76888">
        <ele>304</ele>
        <time>2021-05-15T08:56:05.000Z</time>
      </trkpt>
      <trkpt lat="49.82459" lon="4.76891">
        <ele>304</ele>
        <time>2021-05-15T08:56:06.000Z</time>
      </trkpt>
      <trkpt lat="49.82459" lon="4.76894">
        <ele>305</ele>
        <time>2021-05-15T08:56:07.000Z</time>
      </trkpt>
      <trkpt lat="49.82459" lon="4.76897">
        <ele>305</ele>
        <time>2021-05-15T08:56:08.000Z</time>
      </trkpt>
      <trkpt lat="49.8246" lon="4.769">
        <ele>306</ele>
        <time>2021-05-15T08:56:09.000Z</time>
      </trkpt>
      <trkpt lat="49.8246" lon="4.76902">
        <ele>306</ele>
        <time>2021-05-15T08:56:10.000Z</time>
      </trkpt>
      <trkpt lat="49.8246" lon="4.76905">
        <ele>306</ele>
        <time>2021-05-15T08:56:11.000Z</time>
      </trkpt>
      <trkpt lat="49.82461" lon="4.76908">
        <ele>307</ele>
        <time>2021-05-15T08:56:12.000Z</time>
      </trkpt>
      <trkpt lat="49.82462" lon="4.7691">
        <ele>307</ele>
        <time>2021-05-15T08:56:13.000Z</time>
      </trkpt>
      <trkpt lat="49.82463" lon="4.76913">
        <ele>308</ele>
        <time>2021-05-15T08:56:14.000Z</time>
      </trkpt>
      <trkpt lat="49.82464" lon="4.76915">
        <ele>308</ele>
        <time>2021-05-15T08:56:15.000Z</time>
      </trkpt>
      <trkpt lat="49.82465" lon="4.76918">
        <ele>309</ele>
        <time>2021-05-15T08:56:16.000Z</time>
      </trkpt>
      <trkpt lat="49.82465" lon="4.76921">
        <ele>309</ele>
        <time>2021-05-15T08:56:17.000Z</time>
      </trkpt>
      <trkpt lat="49.82464" lon="4.76924">
        <ele>309</ele>
        <time>2021-05-15T08:56:18.000Z</time>
      </trkpt>
      <trkpt lat="49.82465" lon="4.76927">
        <ele>310</ele>
        <time>2021-05-15T08:56:19.000Z</time>
      </trkpt>
      <trkpt lat="49.82465" lon="4.7693">
        <ele>310</ele>
        <time>2021-05-15T08:56:20.000Z</time>
      </trkpt>
      <trkpt lat="49.82465" lon="4.76933">
        <ele>311</ele>
        <time>2021-05-15T08:56:21.000Z</time>
      </trkpt>
      <trkpt lat="49.82466" lon="4.76936">
        <ele>311</ele>
        <time>2021-05-15T08:56:22.000Z</time>
      </trkpt>
      <trkpt lat="49.82466" lon="4.7694">
        <ele>311</ele>
        <time>2021-05-15T08:56:23.000Z</time>
      </trkpt>
      <trkpt lat="49.82467" lon="4.76943">
        <ele>311</ele>
        <time>2021-05-15T08:56:24.000Z</time>
      </trkpt>
      <trkpt lat="49.82467" lon="4.76947">
        <ele>312</ele>
        <time>2021-05-15T08:56:25.000Z</time>
      </trkpt>
      <trkpt lat="49.82468" lon="4.76951">
        <ele>312</ele>
        <time>2021-05-15T08:56:26.000Z</time>
      </trkpt>
      <trkpt lat="49.82468" lon="4.76954">
        <ele>312</ele>
        <time>2021-05-15T08:56:27.000Z</time>
      </trkpt>
      <trkpt lat="49.82469" lon="4.76958">
        <ele>312</ele>
        <time>2021-05-15T08:56:28.000Z</time>
      </trkpt>
      <trkpt lat="49.82469" lon="4.76961">
        <ele>313</ele>
        <time>2021-05-15T08:56:29.000Z</time>
      </trkpt>
      <trkpt lat="49.8247" lon="4.76965">
        <ele>313</ele>
        <time>2021-05-15T08:56:30.000Z</time>
      </trkpt>
      <trkpt lat="49.8247" lon="4.76968">
        <ele>313</ele>
        <time>2021-05-15T08:56:31.000Z</time>
      </trkpt>
      <trkpt lat="49.82471" lon="4.76971">
        <ele>313</ele>
        <time>2021-05-15T08:56:32.000Z</time>
      </trkpt>
      <trkpt lat="49.82471" lon="4.76974">
        <ele>313</ele>
        <time>2021-05-15T08:56:33.000Z</time>
      </trkpt>
      <trkpt lat="49.82472" lon="4.76978">
        <ele>313</ele>
        <time>2021-05-15T08:56:34.000Z</time>
      </trkpt>
      <trkpt lat="49.82473" lon="4.76981">
        <ele>313</ele>
        <time>2021-05-15T08:56:35.000Z</time>
      </trkpt>
      <trkpt lat="49.82474" lon="4.76984">
        <ele>313</ele>
        <time>2021-05-15T08:56:36.000Z</time>
      </trkpt>
      <trkpt lat="49.82474" lon="4.76987">
        <ele>313</ele>
        <time>2021-05-15T08:56:37.000Z</time>
      </trkpt>
      <trkpt lat="49.82475" lon="4.76991">
        <ele>313</ele>
        <time>2021-05-15T08:56:38.000Z</time>
      </trkpt>
      <trkpt lat="49.82475" lon="4.76994">
        <ele>314</ele>
        <time>2021-05-15T08:56:39.000Z</time>
      </trkpt>
      <trkpt lat="49.82476" lon="4.76997">
        <ele>314</ele>
        <time>2021-05-15T08:56:40.000Z</time>
      </trkpt>
      <trkpt lat="49.82476" lon="4.76999">
        <ele>314</ele>
        <time>2021-05-15T08:56:41.000Z</time>
      </trkpt>
      <trkpt lat="49.82477" lon="4.77003">
        <ele>314</ele>
        <time>2021-05-15T08:56:42.000Z</time>
      </trkpt>
      <trkpt lat="49.82477" lon="4.77005">
        <ele>314</ele>
        <time>2021-05-15T08:56:43.000Z</time>
      </trkpt>
      <trkpt lat="49.82478" lon="4.77008">
        <ele>314</ele>
        <time>2021-05-15T08:56:44.000Z</time>
      </trkpt>
      <trkpt lat="49.82479" lon="4.77011">
        <ele>314</ele>
        <time>2021-05-15T08:56:45.000Z</time>
      </trkpt>
      <trkpt lat="49.82479" lon="4.77015">
        <ele>314</ele>
        <time>2021-05-15T08:56:46.000Z</time>
      </trkpt>
      <trkpt lat="49.8248" lon="4.77018">
        <ele>314</ele>
        <time>2021-05-15T08:56:47.000Z</time>
      </trkpt>
      <trkpt lat="49.82481" lon="4.77021">
        <ele>314</ele>
        <time>2021-05-15T08:56:48.000Z</time>
      </trkpt>
      <trkpt lat="49.82481" lon="4.77024">
        <ele>314</ele>
        <time>2021-05-15T08:56:49.000Z</time>
      </trkpt>
      <trkpt lat="49.82482" lon="4.77027">
        <ele>314</ele>
        <time>2021-05-15T08:56:50.000Z</time>
      </trkpt>
      <trkpt lat="49.82483" lon="4.77031">
        <ele>314</ele>
        <time>2021-05-15T08:56:51.000Z</time>
      </trkpt>
      <trkpt lat="49.82483" lon="4.77034">
        <ele>314</ele>
        <time>2021-05-15T08:56:52.000Z</time>
      </trkpt>
      <trkpt lat="49.82484" lon="4.77038">
        <ele>314</ele>
        <time>2021-05-15T08:56:53.000Z</time>
      </trkpt>
      <trkpt lat="49.82484" lon="4.77041">
        <ele>315</ele>
        <time>2021-05-15T08:56:54.000Z</time>
      </trkpt>
      <trkpt lat="49.82484" lon="4.77044">
        <ele>315</ele>
        <time>2021-05-15T08:56:55.000Z</time>
      </trkpt>
      <trkpt lat="49.82485" lon="4.77047">
        <ele>315</ele>
        <time>2021-05-15T08:56:56.000Z</time>
      </trkpt>
      <trkpt lat="49.82485" lon="4.7705">
        <ele>315</ele>
        <time>2021-05-15T08:56:57.000Z</time>
      </trkpt>
      <trkpt lat="49.82486" lon="4.77054">
        <ele>315</ele>
        <time>2021-05-15T08:56:58.000Z</time>
      </trkpt>
      <trkpt lat="49.82486" lon="4.77057">
        <ele>315</ele>
        <time>2021-05-15T08:56:59.000Z</time>
      </trkpt>
      <trkpt lat="49.82487" lon="4.77061">
        <ele>316</ele>
        <time>2021-05-15T08:57:00.000Z</time>
      </trkpt>
      <trkpt lat="49.82488" lon="4.77064">
        <ele>316</ele>
        <time>2021-05-15T08:57:01.000Z</time>
      </trkpt>
      <trkpt lat="49.82488" lon="4.77068">
        <ele>316</ele>
        <time>2021-05-15T08:57:02.000Z</time>
      </trkpt>
      <trkpt lat="49.82489" lon="4.77071">
        <ele>316</ele>
        <time>2021-05-15T08:57:03.000Z</time>
      </trkpt>
      <trkpt lat="49.8249" lon="4.77075">
        <ele>316</ele>
        <time>2021-05-15T08:57:04.000Z</time>
      </trkpt>
      <trkpt lat="49.82491" lon="4.77079">
        <ele>317</ele>
        <time>2021-05-15T08:57:05.000Z</time>
      </trkpt>
      <trkpt lat="49.82492" lon="4.77082">
        <ele>317</ele>
        <time>2021-05-15T08:57:06.000Z</time>
      </trkpt>
      <trkpt lat="49.82492" lon="4.77085">
        <ele>317</ele>
        <time>2021-05-15T08:57:07.000Z</time>
      </trkpt>
      <trkpt lat="49.82493" lon="4.77089">
        <ele>318</ele>
        <time>2021-05-15T08:57:08.000Z</time>
      </trkpt>
      <trkpt lat="49.82494" lon="4.77092">
        <ele>318</ele>
        <time>2021-05-15T08:57:09.000Z</time>
      </trkpt>
      <trkpt lat="49.82494" lon="4.77095">
        <ele>318</ele>
        <time>2021-05-15T08:57:10.000Z</time>
      </trkpt>
      <trkpt lat="49.82495" lon="4.77098">
        <ele>318</ele>
        <time>2021-05-15T08:57:11.000Z</time>
      </trkpt>
      <trkpt lat="49.82495" lon="4.77102">
        <ele>318</ele>
        <time>2021-05-15T08:57:12.000Z</time>
      </trkpt>
      <trkpt lat="49.82495" lon="4.77105">
        <ele>318</ele>
        <time>2021-05-15T08:57:13.000Z</time>
      </trkpt>
      <trkpt lat="49.82496" lon="4.77109">
        <ele>319</ele>
        <time>2021-05-15T08:57:14.000Z</time>
      </trkpt>
      <trkpt lat="49.82496" lon="4.77112">
        <ele>319</ele>
        <time>2021-05-15T08:57:15.000Z</time>
      </trkpt>
      <trkpt lat="49.82496" lon="4.77114">
        <ele>319</ele>
        <time>2021-05-15T08:57:16.000Z</time>
      </trkpt>
      <trkpt lat="49.82497" lon="4.77118">
        <ele>319</ele>
        <time>2021-05-15T08:57:17.000Z</time>
      </trkpt>
      <trkpt lat="49.82498" lon="4.77121">
        <ele>320</ele>
        <time>2021-05-15T08:57:18.000Z</time>
      </trkpt>
      <trkpt lat="49.82498" lon="4.77125">
        <ele>320</ele>
        <time>2021-05-15T08:57:19.000Z</time>
      </trkpt>
      <trkpt lat="49.82498" lon="4.77129">
        <ele>320</ele>
        <time>2021-05-15T08:57:20.000Z</time>
      </trkpt>
      <trkpt lat="49.82498" lon="4.77133">
        <ele>320</ele>
        <time>2021-05-15T08:57:21.000Z</time>
      </trkpt>
      <trkpt lat="49.82499" lon="4.77136">
        <ele>321</ele>
        <time>2021-05-15T08:57:22.000Z</time>
      </trkpt>
      <trkpt lat="49.825" lon="4.7714">
        <ele>321</ele>
        <time>2021-05-15T08:57:23.000Z</time>
      </trkpt>
      <trkpt lat="49.82501" lon="4.77143">
        <ele>321</ele>
        <time>2021-05-15T08:57:24.000Z</time>
      </trkpt>
      <trkpt lat="49.82501" lon="4.77147">
        <ele>321</ele>
        <time>2021-05-15T08:57:25.000Z</time>
      </trkpt>
      <trkpt lat="49.82501" lon="4.7715">
        <ele>321</ele>
        <time>2021-05-15T08:57:26.000Z</time>
      </trkpt>
      <trkpt lat="49.82502" lon="4.77154">
        <ele>321</ele>
        <time>2021-05-15T08:57:27.000Z</time>
      </trkpt>
      <trkpt lat="49.82503" lon="4.77157">
        <ele>322</ele>
        <time>2021-05-15T08:57:28.000Z</time>
      </trkpt>
      <trkpt lat="49.82504" lon="4.77161">
        <ele>322</ele>
        <time>2021-05-15T08:57:29.000Z</time>
      </trkpt>
      <trkpt lat="49.82505" lon="4.77164">
        <ele>322</ele>
        <time>2021-05-15T08:57:30.000Z</time>
      </trkpt>
      <trkpt lat="49.82506" lon="4.77168">
        <ele>322</ele>
        <time>2021-05-15T08:57:31.000Z</time>
      </trkpt>
      <trkpt lat="49.82507" lon="4.77172">
        <ele>322</ele>
        <time>2021-05-15T08:57:32.000Z</time>
      </trkpt>
      <trkpt lat="49.82508" lon="4.77175">
        <ele>322</ele>
        <time>2021-05-15T08:57:33.000Z</time>
      </trkpt>
      <trkpt lat="49.82508" lon="4.77179">
        <ele>322</ele>
        <time>2021-05-15T08:57:34.000Z</time>
      </trkpt>
      <trkpt lat="49.82509" lon="4.77182">
        <ele>323</ele>
        <time>2021-05-15T08:57:35.000Z</time>
      </trkpt>
      <trkpt lat="49.82509" lon="4.77186">
        <ele>323</ele>
        <time>2021-05-15T08:57:36.000Z</time>
      </trkpt>
      <trkpt lat="49.8251" lon="4.77189">
        <ele>323</ele>
        <time>2021-05-15T08:57:37.000Z</time>
      </trkpt>
      <trkpt lat="49.82511" lon="4.77193">
        <ele>323</ele>
        <time>2021-05-15T08:57:38.000Z</time>
      </trkpt>
      <trkpt lat="49.82512" lon="4.77196">
        <ele>323</ele>
        <time>2021-05-15T08:57:39.000Z</time>
      </trkpt>
      <trkpt lat="49.82512" lon="4.77199">
        <ele>323</ele>
        <time>2021-05-15T08:57:40.000Z</time>
      </trkpt>
      <trkpt lat="49.82513" lon="4.77202">
        <ele>323</ele>
        <time>2021-05-15T08:57:41.000Z</time>
      </trkpt>
      <trkpt lat="49.82513" lon="4.77206">
        <ele>323</ele>
        <time>2021-05-15T08:57:42.000Z</time>
      </trkpt>
      <trkpt lat="49.82514" lon="4.77209">
        <ele>324</ele>
        <time>2021-05-15T08:57:43.000Z</time>
      </trkpt>
      <trkpt lat="49.82515" lon="4.77213">
        <ele>324</ele>
        <time>2021-05-15T08:57:44.000Z</time>
      </trkpt>
      <trkpt lat="49.82516" lon="4.77217">
        <ele>324</ele>
        <time>2021-05-15T08:57:45.000Z</time>
      </trkpt>
      <trkpt lat="49.82516" lon="4.77221">
        <ele>324</ele>
        <time>2021-05-15T08:57:46.000Z</time>
      </trkpt>
      <trkpt lat="49.82517" lon="4.77225">
        <ele>324</ele>
        <time>2021-05-15T08:57:47.000Z</time>
      </trkpt>
      <trkpt lat="49.82518" lon="4.77229">
        <ele>324</ele>
        <time>2021-05-15T08:57:48.000Z</time>
      </trkpt>
      <trkpt lat="49.82519" lon="4.77233">
        <ele>324</ele>
        <time>2021-05-15T08:57:49.000Z</time>
      </trkpt>
      <trkpt lat="49.8252" lon="4.77237">
        <ele>325</ele>
        <time>2021-05-15T08:57:50.000Z</time>
      </trkpt>
      <trkpt lat="49.8252" lon="4.77242">
        <ele>325</ele>
        <time>2021-05-15T08:57:51.000Z</time>
      </trkpt>
      <trkpt lat="49.82521" lon="4.77246">
        <ele>325</ele>
        <time>2021-05-15T08:57:52.000Z</time>
      </trkpt>
      <trkpt lat="49.82522" lon="4.7725">
        <ele>325</ele>
        <time>2021-05-15T08:57:53.000Z</time>
      </trkpt>
      <trkpt lat="49.82522" lon="4.77254">
        <ele>325</ele>
        <time>2021-05-15T08:57:54.000Z</time>
      </trkpt>
      <trkpt lat="49.82523" lon="4.77258">
        <ele>326</ele>
        <time>2021-05-15T08:57:55.000Z</time>
      </trkpt>
      <trkpt lat="49.82523" lon="4.77262">
        <ele>326</ele>
        <time>2021-05-15T08:57:56.000Z</time>
      </trkpt>
      <trkpt lat="49.82523" lon="4.77267">
        <ele>326</ele>
        <time>2021-05-15T08:57:57.000Z</time>
      </trkpt>
      <trkpt lat="49.82524" lon="4.77271">
        <ele>326</ele>
        <time>2021-05-15T08:57:58.000Z</time>
      </trkpt>
      <trkpt lat="49.82524" lon="4.77276">
        <ele>326</ele>
        <time>2021-05-15T08:57:59.000Z</time>
      </trkpt>
      <trkpt lat="49.82524" lon="4.7728">
        <ele>326</ele>
        <time>2021-05-15T08:58:00.000Z</time>
      </trkpt>
      <trkpt lat="49.82524" lon="4.77284">
        <ele>327</ele>
        <time>2021-05-15T08:58:01.000Z</time>
      </trkpt>
      <trkpt lat="49.82523" lon="4.77288">
        <ele>327</ele>
        <time>2021-05-15T08:58:02.000Z</time>
      </trkpt>
      <trkpt lat="49.82523" lon="4.77292">
        <ele>327</ele>
        <time>2021-05-15T08:58:03.000Z</time>
      </trkpt>
      <trkpt lat="49.82523" lon="4.77296">
        <ele>327</ele>
        <time>2021-05-15T08:58:04.000Z</time>
      </trkpt>
      <trkpt lat="49.82523" lon="4.773">
        <ele>327</ele>
        <time>2021-05-15T08:58:05.000Z</time>
      </trkpt>
      <trkpt lat="49.82522" lon="4.77304">
        <ele>327</ele>
        <time>2021-05-15T08:58:06.000Z</time>
      </trkpt>
      <trkpt lat="49.82522" lon="4.77307">
        <ele>328</ele>
        <time>2021-05-15T08:58:07.000Z</time>
      </trkpt>
      <trkpt lat="49.82521" lon="4.77311">
        <ele>328</ele>
        <time>2021-05-15T08:58:08.000Z</time>
      </trkpt>
      <trkpt lat="49.82521" lon="4.77315">
        <ele>328</ele>
        <time>2021-05-15T08:58:09.000Z</time>
      </trkpt>
      <trkpt lat="49.82521" lon="4.77319">
        <ele>328</ele>
        <time>2021-05-15T08:58:10.000Z</time>
      </trkpt>
      <trkpt lat="49.82521" lon="4.77323">
        <ele>329</ele>
        <time>2021-05-15T08:58:11.000Z</time>
      </trkpt>
      <trkpt lat="49.82521" lon="4.77327">
        <ele>329</ele>
        <time>2021-05-15T08:58:12.000Z</time>
      </trkpt>
      <trkpt lat="49.82521" lon="4.7733">
        <ele>329</ele>
        <time>2021-05-15T08:58:13.000Z</time>
      </trkpt>
      <trkpt lat="49.8252" lon="4.77334">
        <ele>330</ele>
        <time>2021-05-15T08:58:14.000Z</time>
      </trkpt>
      <trkpt lat="49.8252" lon="4.77338">
        <ele>330</ele>
        <time>2021-05-15T08:58:15.000Z</time>
      </trkpt>
      <trkpt lat="49.82519" lon="4.77342">
        <ele>330</ele>
        <time>2021-05-15T08:58:16.000Z</time>
      </trkpt>
      <trkpt lat="49.82518" lon="4.77345">
        <ele>330</ele>
        <time>2021-05-15T08:58:17.000Z</time>
      </trkpt>
      <trkpt lat="49.82518" lon="4.77348">
        <ele>331</ele>
        <time>2021-05-15T08:58:18.000Z</time>
      </trkpt>
      <trkpt lat="49.82518" lon="4.77352">
        <ele>331</ele>
        <time>2021-05-15T08:58:19.000Z</time>
      </trkpt>
      <trkpt lat="49.82517" lon="4.77356">
        <ele>331</ele>
        <time>2021-05-15T08:58:20.000Z</time>
      </trkpt>
      <trkpt lat="49.82517" lon="4.7736">
        <ele>331</ele>
        <time>2021-05-15T08:58:21.000Z</time>
      </trkpt>
      <trkpt lat="49.82516" lon="4.77365">
        <ele>331</ele>
        <time>2021-05-15T08:58:22.000Z</time>
      </trkpt>
      <trkpt lat="49.82515" lon="4.7737">
        <ele>331</ele>
        <time>2021-05-15T08:58:23.000Z</time>
      </trkpt>
      <trkpt lat="49.82514" lon="4.77374">
        <ele>331</ele>
        <time>2021-05-15T08:58:24.000Z</time>
      </trkpt>
      <trkpt lat="49.82514" lon="4.77379">
        <ele>331</ele>
        <time>2021-05-15T08:58:25.000Z</time>
      </trkpt>
      <trkpt lat="49.82513" lon="4.77383">
        <ele>332</ele>
        <time>2021-05-15T08:58:26.000Z</time>
      </trkpt>
      <trkpt lat="49.82512" lon="4.77388">
        <ele>332</ele>
        <time>2021-05-15T08:58:27.000Z</time>
      </trkpt>
      <trkpt lat="49.82511" lon="4.77392">
        <ele>332</ele>
        <time>2021-05-15T08:58:28.000Z</time>
      </trkpt>
      <trkpt lat="49.8251" lon="4.77396">
        <ele>332</ele>
        <time>2021-05-15T08:58:29.000Z</time>
      </trkpt>
      <trkpt lat="49.82509" lon="4.774">
        <ele>332</ele>
        <time>2021-05-15T08:58:30.000Z</time>
      </trkpt>
      <trkpt lat="49.82508" lon="4.77403">
        <ele>333</ele>
        <time>2021-05-15T08:58:31.000Z</time>
      </trkpt>
      <trkpt lat="49.82508" lon="4.77407">
        <ele>333</ele>
        <time>2021-05-15T08:58:32.000Z</time>
      </trkpt>
      <trkpt lat="49.82507" lon="4.77412">
        <ele>333</ele>
        <time>2021-05-15T08:58:33.000Z</time>
      </trkpt>
      <trkpt lat="49.82506" lon="4.77417">
        <ele>333</ele>
        <time>2021-05-15T08:58:34.000Z</time>
      </trkpt>
      <trkpt lat="49.82504" lon="4.77423">
        <ele>332</ele>
        <time>2021-05-15T08:58:35.000Z</time>
      </trkpt>
      <trkpt lat="49.82503" lon="4.77428">
        <ele>332</ele>
        <time>2021-05-15T08:58:36.000Z</time>
      </trkpt>
      <trkpt lat="49.82501" lon="4.77433">
        <ele>332</ele>
        <time>2021-05-15T08:58:37.000Z</time>
      </trkpt>
      <trkpt lat="49.825" lon="4.77438">
        <ele>332</ele>
        <time>2021-05-15T08:58:38.000Z</time>
      </trkpt>
      <trkpt lat="49.82498" lon="4.77444">
        <ele>332</ele>
        <time>2021-05-15T08:58:39.000Z</time>
      </trkpt>
      <trkpt lat="49.82497" lon="4.77449">
        <ele>332</ele>
        <time>2021-05-15T08:58:40.000Z</time>
      </trkpt>
      <trkpt lat="49.82496" lon="4.77455">
        <ele>332</ele>
        <time>2021-05-15T08:58:41.000Z</time>
      </trkpt>
      <trkpt lat="49.82495" lon="4.77459">
        <ele>332</ele>
        <time>2021-05-15T08:58:42.000Z</time>
      </trkpt>
      <trkpt lat="49.82494" lon="4.77462">
        <ele>332</ele>
        <time>2021-05-15T08:58:43.000Z</time>
      </trkpt>
      <trkpt lat="49.82493" lon="4.77463">
        <ele>332</ele>
        <time>2021-05-15T08:58:44.000Z</time>
      </trkpt>
      <trkpt lat="49.82491" lon="4.77464">
        <ele>332</ele>
        <time>2021-05-15T08:58:45.000Z</time>
      </trkpt>
      <trkpt lat="49.82489" lon="4.77465">
        <ele>332</ele>
        <time>2021-05-15T08:58:46.000Z</time>
      </trkpt>
      <trkpt lat="49.82487" lon="4.77465">
        <ele>332</ele>
        <time>2021-05-15T08:58:47.000Z</time>
      </trkpt>
      <trkpt lat="49.82485" lon="4.77465">
        <ele>332</ele>
        <time>2021-05-15T08:58:48.000Z</time>
      </trkpt>
      <trkpt lat="49.82483" lon="4.77466">
        <ele>332</ele>
        <time>2021-05-15T08:58:49.000Z</time>
      </trkpt>
      <trkpt lat="49.8248" lon="4.77467">
        <ele>332</ele>
        <time>2021-05-15T08:58:50.000Z</time>
      </trkpt>
      <trkpt lat="49.82477" lon="4.77468">
        <ele>332</ele>
        <time>2021-05-15T08:58:51.000Z</time>
      </trkpt>
      <trkpt lat="49.82473" lon="4.77468">
        <ele>332</ele>
        <time>2021-05-15T08:58:52.000Z</time>
      </trkpt>
      <trkpt lat="49.82468" lon="4.77469">
        <ele>332</ele>
        <time>2021-05-15T08:58:53.000Z</time>
      </trkpt>
      <trkpt lat="49.82464" lon="4.7747">
        <ele>332</ele>
        <time>2021-05-15T08:58:54.000Z</time>
      </trkpt>
      <trkpt lat="49.82459" lon="4.77471">
        <ele>332</ele>
        <time>2021-05-15T08:58:55.000Z</time>
      </trkpt>
      <trkpt lat="49.82454" lon="4.77472">
        <ele>332</ele>
        <time>2021-05-15T08:58:56.000Z</time>
      </trkpt>
      <trkpt lat="49.82449" lon="4.77473">
        <ele>332</ele>
        <time>2021-05-15T08:58:57.000Z</time>
      </trkpt>
      <trkpt lat="49.82443" lon="4.77473">
        <ele>332</ele>
        <time>2021-05-15T08:58:58.000Z</time>
      </trkpt>
      <trkpt lat="49.82437" lon="4.77473">
        <ele>332</ele>
        <time>2021-05-15T08:58:59.000Z</time>
      </trkpt>
      <trkpt lat="49.82431" lon="4.77474">
        <ele>332</ele>
        <time>2021-05-15T08:59:00.000Z</time>
      </trkpt>
      <trkpt lat="49.82425" lon="4.77475">
        <ele>331</ele>
        <time>2021-05-15T08:59:01.000Z</time>
      </trkpt>
      <trkpt lat="49.82419" lon="4.77477">
        <ele>331</ele>
        <time>2021-05-15T08:59:02.000Z</time>
      </trkpt>
      <trkpt lat="49.82413" lon="4.77478">
        <ele>331</ele>
        <time>2021-05-15T08:59:03.000Z</time>
      </trkpt>
      <trkpt lat="49.82407" lon="4.77478">
        <ele>331</ele>
        <time>2021-05-15T08:59:04.000Z</time>
      </trkpt>
      <trkpt lat="49.82401" lon="4.77479">
        <ele>331</ele>
        <time>2021-05-15T08:59:05.000Z</time>
      </trkpt>
      <trkpt lat="49.82393" lon="4.7748">
        <ele>331</ele>
        <time>2021-05-15T08:59:06.000Z</time>
      </trkpt>
      <trkpt lat="49.82386" lon="4.77481">
        <ele>331</ele>
        <time>2021-05-15T08:59:07.000Z</time>
      </trkpt>
      <trkpt lat="49.82378" lon="4.77482">
        <ele>330</ele>
        <time>2021-05-15T08:59:08.000Z</time>
      </trkpt>
      <trkpt lat="49.82371" lon="4.77483">
        <ele>330</ele>
        <time>2021-05-15T08:59:09.000Z</time>
      </trkpt>
      <trkpt lat="49.82363" lon="4.77484">
        <ele>330</ele>
        <time>2021-05-15T08:59:10.000Z</time>
      </trkpt>
      <trkpt lat="49.82355" lon="4.77483">
        <ele>329</ele>
        <time>2021-05-15T08:59:11.000Z</time>
      </trkpt>
      <trkpt lat="49.82347" lon="4.77483">
        <ele>328</ele>
        <time>2021-05-15T08:59:12.000Z</time>
      </trkpt>
      <trkpt lat="49.82339" lon="4.77482">
        <ele>328</ele>
        <time>2021-05-15T08:59:13.000Z</time>
      </trkpt>
      <trkpt lat="49.8233" lon="4.77481">
        <ele>327</ele>
        <time>2021-05-15T08:59:14.000Z</time>
      </trkpt>
      <trkpt lat="49.82324" lon="4.7748">
        <ele>326</ele>
        <time>2021-05-15T08:59:15.000Z</time>
      </trkpt>
      <trkpt lat="49.82318" lon="4.77479">
        <ele>325</ele>
        <time>2021-05-15T08:59:16.000Z</time>
      </trkpt>
      <trkpt lat="49.82314" lon="4.77478">
        <ele>325</ele>
        <time>2021-05-15T08:59:17.000Z</time>
      </trkpt>
      <trkpt lat="49.82311" lon="4.77479">
        <ele>324</ele>
        <time>2021-05-15T08:59:18.000Z</time>
      </trkpt>
      <trkpt lat="49.82309" lon="4.7748">
        <ele>324</ele>
        <time>2021-05-15T08:59:19.000Z</time>
      </trkpt>
      <trkpt lat="49.82308" lon="4.77482">
        <ele>323</ele>
        <time>2021-05-15T08:59:20.000Z</time>
      </trkpt>
      <trkpt lat="49.82308" lon="4.77485">
        <ele>323</ele>
        <time>2021-05-15T08:59:21.000Z</time>
      </trkpt>
      <trkpt lat="49.82308" lon="4.7749">
        <ele>322</ele>
        <time>2021-05-15T08:59:22.000Z</time>
      </trkpt>
      <trkpt lat="49.82307" lon="4.77496">
        <ele>322</ele>
        <time>2021-05-15T08:59:23.000Z</time>
      </trkpt>
      <trkpt lat="49.82307" lon="4.77502">
        <ele>322</ele>
        <time>2021-05-15T08:59:24.000Z</time>
      </trkpt>
      <trkpt lat="49.82308" lon="4.77509">
        <ele>321</ele>
        <time>2021-05-15T08:59:25.000Z</time>
      </trkpt>
      <trkpt lat="49.82307" lon="4.77516">
        <ele>321</ele>
        <time>2021-05-15T08:59:26.000Z</time>
      </trkpt>
      <trkpt lat="49.82307" lon="4.77523">
        <ele>320</ele>
        <time>2021-05-15T08:59:27.000Z</time>
      </trkpt>
      <trkpt lat="49.82306" lon="4.7753">
        <ele>320</ele>
        <time>2021-05-15T08:59:28.000Z</time>
      </trkpt>
      <trkpt lat="49.82306" lon="4.77537">
        <ele>320</ele>
        <time>2021-05-15T08:59:29.000Z</time>
      </trkpt>
      <trkpt lat="49.82305" lon="4.77543">
        <ele>320</ele>
        <time>2021-05-15T08:59:30.000Z</time>
      </trkpt>
      <trkpt lat="49.82305" lon="4.7755">
        <ele>319</ele>
        <time>2021-05-15T08:59:31.000Z</time>
      </trkpt>
      <trkpt lat="49.82304" lon="4.77555">
        <ele>319</ele>
        <time>2021-05-15T08:59:32.000Z</time>
      </trkpt>
      <trkpt lat="49.82303" lon="4.77562">
        <ele>319</ele>
        <time>2021-05-15T08:59:33.000Z</time>
      </trkpt>
      <trkpt lat="49.82302" lon="4.77568">
        <ele>319</ele>
        <time>2021-05-15T08:59:34.000Z</time>
      </trkpt>
      <trkpt lat="49.82302" lon="4.77575">
        <ele>318</ele>
        <time>2021-05-15T08:59:35.000Z</time>
      </trkpt>
      <trkpt lat="49.82301" lon="4.77582">
        <ele>318</ele>
        <time>2021-05-15T08:59:36.000Z</time>
      </trkpt>
      <trkpt lat="49.823" lon="4.7759">
        <ele>318</ele>
        <time>2021-05-15T08:59:37.000Z</time>
      </trkpt>
      <trkpt lat="49.823" lon="4.77597">
        <ele>318</ele>
        <time>2021-05-15T08:59:38.000Z</time>
      </trkpt>
      <trkpt lat="49.823" lon="4.77605">
        <ele>318</ele>
        <time>2021-05-15T08:59:39.000Z</time>
      </trkpt>
      <trkpt lat="49.82299" lon="4.77613">
        <ele>317</ele>
        <time>2021-05-15T08:59:40.000Z</time>
      </trkpt>
      <trkpt lat="49.82299" lon="4.7762">
        <ele>317</ele>
        <time>2021-05-15T08:59:41.000Z</time>
      </trkpt>
      <trkpt lat="49.82299" lon="4.77628">
        <ele>317</ele>
        <time>2021-05-15T08:59:42.000Z</time>
      </trkpt>
      <trkpt lat="49.82299" lon="4.77636">
        <ele>317</ele>
        <time>2021-05-15T08:59:43.000Z</time>
      </trkpt>
      <trkpt lat="49.82299" lon="4.77644">
        <ele>317</ele>
        <time>2021-05-15T08:59:44.000Z</time>
      </trkpt>
      <trkpt lat="49.82298" lon="4.77652">
        <ele>316</ele>
        <time>2021-05-15T08:59:45.000Z</time>
      </trkpt>
      <trkpt lat="49.82297" lon="4.77659">
        <ele>316</ele>
        <time>2021-05-15T08:59:46.000Z</time>
      </trkpt>
      <trkpt lat="49.82296" lon="4.77667">
        <ele>316</ele>
        <time>2021-05-15T08:59:47.000Z</time>
      </trkpt>
      <trkpt lat="49.82295" lon="4.77674">
        <ele>316</ele>
        <time>2021-05-15T08:59:48.000Z</time>
      </trkpt>
      <trkpt lat="49.82293" lon="4.77682">
        <ele>315</ele>
        <time>2021-05-15T08:59:49.000Z</time>
      </trkpt>
      <trkpt lat="49.82292" lon="4.7769">
        <ele>315</ele>
        <time>2021-05-15T08:59:50.000Z</time>
      </trkpt>
      <trkpt lat="49.82291" lon="4.77697">
        <ele>315</ele>
        <time>2021-05-15T08:59:51.000Z</time>
      </trkpt>
      <trkpt lat="49.8229" lon="4.77704">
        <ele>315</ele>
        <time>2021-05-15T08:59:52.000Z</time>
      </trkpt>
      <trkpt lat="49.82289" lon="4.77711">
        <ele>315</ele>
        <time>2021-05-15T08:59:53.000Z</time>
      </trkpt>
      <trkpt lat="49.82287" lon="4.77719">
        <ele>314</ele>
        <time>2021-05-15T08:59:54.000Z</time>
      </trkpt>
      <trkpt lat="49.82286" lon="4.77726">
        <ele>314</ele>
        <time>2021-05-15T08:59:55.000Z</time>
      </trkpt>
      <trkpt lat="49.82285" lon="4.77734">
        <ele>314</ele>
        <time>2021-05-15T08:59:56.000Z</time>
      </trkpt>
      <trkpt lat="49.82283" lon="4.77741">
        <ele>314</ele>
        <time>2021-05-15T08:59:57.000Z</time>
      </trkpt>
      <trkpt lat="49.82282" lon="4.77748">
        <ele>314</ele>
        <time>2021-05-15T08:59:58.000Z</time>
      </trkpt>
      <trkpt lat="49.8228" lon="4.77755">
        <ele>314</ele>
        <time>2021-05-15T08:59:59.000Z</time>
      </trkpt>
      <trkpt lat="49.82279" lon="4.77761">
        <ele>313</ele>
        <time>2021-05-15T09:00:00.000Z</time>
      </trkpt>
      <trkpt lat="49.82277" lon="4.77768">
        <ele>313</ele>
        <time>2021-05-15T09:00:01.000Z</time>
      </trkpt>
      <trkpt lat="49.82276" lon="4.77774">
        <ele>313</ele>
        <time>2021-05-15T09:00:02.000Z</time>
      </trkpt>
      <trkpt lat="49.82275" lon="4.7778">
        <ele>313</ele>
        <time>2021-05-15T09:00:03.000Z</time>
      </trkpt>
      <trkpt lat="49.82273" lon="4.77785">
        <ele>313</ele>
        <time>2021-05-15T09:00:04.000Z</time>
      </trkpt>
      <trkpt lat="49.82273" lon="4.77791">
        <ele>313</ele>
        <time>2021-05-15T09:00:05.000Z</time>
      </trkpt>
      <trkpt lat="49.82272" lon="4.77796">
        <ele>313</ele>
        <time>2021-05-15T09:00:06.000Z</time>
      </trkpt>
      <trkpt lat="49.82272" lon="4.77801">
        <ele>313</ele>
        <time>2021-05-15T09:00:07.000Z</time>
      </trkpt>
      <trkpt lat="49.82271" lon="4.77806">
        <ele>313</ele>
        <time>2021-05-15T09:00:08.000Z</time>
      </trkpt>
      <trkpt lat="49.8227" lon="4.7781">
        <ele>313</ele>
        <time>2021-05-15T09:00:09.000Z</time>
      </trkpt>
      <trkpt lat="49.82269" lon="4.77816">
        <ele>313</ele>
        <time>2021-05-15T09:00:10.000Z</time>
      </trkpt>
      <trkpt lat="49.82269" lon="4.7782">
        <ele>313</ele>
        <time>2021-05-15T09:00:11.000Z</time>
      </trkpt>
      <trkpt lat="49.82269" lon="4.77824">
        <ele>313</ele>
        <time>2021-05-15T09:00:12.000Z</time>
      </trkpt>
      <trkpt lat="49.8227" lon="4.77827">
        <ele>313</ele>
        <time>2021-05-15T09:00:13.000Z</time>
      </trkpt>
      <trkpt lat="49.8227" lon="4.7783">
        <ele>313</ele>
        <time>2021-05-15T09:00:14.000Z</time>
      </trkpt>
      <trkpt lat="49.82271" lon="4.77833">
        <ele>313</ele>
        <time>2021-05-15T09:00:15.000Z</time>
      </trkpt>
      <trkpt lat="49.82271" lon="4.77836">
        <ele>313</ele>
        <time>2021-05-15T09:00:16.000Z</time>
      </trkpt>
      <trkpt lat="49.8227" lon="4.7784">
        <ele>313</ele>
        <time>2021-05-15T09:00:17.000Z</time>
      </trkpt>
      <trkpt lat="49.82271" lon="4.77843">
        <ele>313</ele>
        <time>2021-05-15T09:00:18.000Z</time>
      </trkpt>
      <trkpt lat="49.82271" lon="4.77846">
        <ele>313</ele>
        <time>2021-05-15T09:00:19.000Z</time>
      </trkpt>
      <trkpt lat="49.82272" lon="4.77848">
        <ele>313</ele>
        <time>2021-05-15T09:00:20.000Z</time>
      </trkpt>
      <trkpt lat="49.82272" lon="4.7785">
        <ele>313</ele>
        <time>2021-05-15T09:00:21.000Z</time>
      </trkpt>
      <trkpt lat="49.82273" lon="4.77853">
        <ele>313</ele>
        <time>2021-05-15T09:00:22.000Z</time>
      </trkpt>
      <trkpt lat="49.82273" lon="4.77855">
        <ele>313</ele>
        <time>2021-05-15T09:00:23.000Z</time>
      </trkpt>
      <trkpt lat="49.82274" lon="4.77857">
        <ele>313</ele>
        <time>2021-05-15T09:00:24.000Z</time>
      </trkpt>
      <trkpt lat="49.82275" lon="4.77859">
        <ele>313</ele>
        <time>2021-05-15T09:00:25.000Z</time>
      </trkpt>
      <trkpt lat="49.82275" lon="4.77861">
        <ele>313</ele>
        <time>2021-05-15T09:00:26.000Z</time>
      </trkpt>
      <trkpt lat="49.82276" lon="4.77864">
        <ele>313</ele>
        <time>2021-05-15T09:00:27.000Z</time>
      </trkpt>
      <trkpt lat="49.82277" lon="4.77867">
        <ele>313</ele>
        <time>2021-05-15T09:00:28.000Z</time>
      </trkpt>
      <trkpt lat="49.82277" lon="4.7787">
        <ele>313</ele>
        <time>2021-05-15T09:00:29.000Z</time>
      </trkpt>
      <trkpt lat="49.82278" lon="4.77872">
        <ele>313</ele>
        <time>2021-05-15T09:00:30.000Z</time>
      </trkpt>
      <trkpt lat="49.82279" lon="4.77875">
        <ele>313</ele>
        <time>2021-05-15T09:00:31.000Z</time>
      </trkpt>
      <trkpt lat="49.82279" lon="4.77877">
        <ele>313</ele>
        <time>2021-05-15T09:00:32.000Z</time>
      </trkpt>
      <trkpt lat="49.8228" lon="4.77879">
        <ele>313</ele>
        <time>2021-05-15T09:00:33.000Z</time>
      </trkpt>
      <trkpt lat="49.8228" lon="4.77882">
        <ele>313</ele>
        <time>2021-05-15T09:00:34.000Z</time>
      </trkpt>
      <trkpt lat="49.8228" lon="4.77885">
        <ele>313</ele>
        <time>2021-05-15T09:00:35.000Z</time>
      </trkpt>
      <trkpt lat="49.8228" lon="4.77888">
        <ele>313</ele>
        <time>2021-05-15T09:00:36.000Z</time>
      </trkpt>
      <trkpt lat="49.82279" lon="4.77891">
        <ele>313</ele>
        <time>2021-05-15T09:00:37.000Z</time>
      </trkpt>
      <trkpt lat="49.82279" lon="4.77894">
        <ele>313</ele>
        <time>2021-05-15T09:00:38.000Z</time>
      </trkpt>
      <trkpt lat="49.8228" lon="4.77896">
        <ele>313</ele>
        <time>2021-05-15T09:00:39.000Z</time>
      </trkpt>
      <trkpt lat="49.8228" lon="4.779">
        <ele>313</ele>
        <time>2021-05-15T09:00:40.000Z</time>
      </trkpt>
      <trkpt lat="49.8228" lon="4.77902">
        <ele>313</ele>
        <time>2021-05-15T09:00:41.000Z</time>
      </trkpt>
      <trkpt lat="49.82281" lon="4.77904">
        <ele>313</ele>
        <time>2021-05-15T09:00:42.000Z</time>
      </trkpt>
      <trkpt lat="49.82282" lon="4.77906">
        <ele>313</ele>
        <time>2021-05-15T09:00:43.000Z</time>
      </trkpt>
      <trkpt lat="49.82282" lon="4.77909">
        <ele>313</ele>
        <time>2021-05-15T09:00:44.000Z</time>
      </trkpt>
      <trkpt lat="49.82283" lon="4.77911">
        <ele>313</ele>
        <time>2021-05-15T09:00:45.000Z</time>
      </trkpt>
      <trkpt lat="49.82284" lon="4.77914">
        <ele>313</ele>
        <time>2021-05-15T09:00:46.000Z</time>
      </trkpt>
      <trkpt lat="49.82284" lon="4.77917">
        <ele>313</ele>
        <time>2021-05-15T09:00:47.000Z</time>
      </trkpt>
      <trkpt lat="49.82285" lon="4.7792">
        <ele>313</ele>
        <time>2021-05-15T09:00:48.000Z</time>
      </trkpt>
      <trkpt lat="49.82285" lon="4.77922">
        <ele>313</ele>
        <time>2021-05-15T09:00:49.000Z</time>
      </trkpt>
      <trkpt lat="49.82286" lon="4.77925">
        <ele>314</ele>
        <time>2021-05-15T09:00:50.000Z</time>
      </trkpt>
      <trkpt lat="49.82286" lon="4.77929">
        <ele>314</ele>
        <time>2021-05-15T09:00:51.000Z</time>
      </trkpt>
      <trkpt lat="49.82286" lon="4.77932">
        <ele>314</ele>
        <time>2021-05-15T09:00:52.000Z</time>
      </trkpt>
      <trkpt lat="49.82286" lon="4.77935">
        <ele>314</ele>
        <time>2021-05-15T09:00:53.000Z</time>
      </trkpt>
      <trkpt lat="49.82287" lon="4.77938">
        <ele>314</ele>
        <time>2021-05-15T09:00:54.000Z</time>
      </trkpt>
      <trkpt lat="49.82287" lon="4.77941">
        <ele>314</ele>
        <time>2021-05-15T09:00:55.000Z</time>
      </trkpt>
      <trkpt lat="49.82288" lon="4.77944">
        <ele>315</ele>
        <time>2021-05-15T09:00:56.000Z</time>
      </trkpt>
      <trkpt lat="49.82288" lon="4.77947">
        <ele>315</ele>
        <time>2021-05-15T09:00:57.000Z</time>
      </trkpt>
      <trkpt lat="49.82289" lon="4.7795">
        <ele>315</ele>
        <time>2021-05-15T09:00:58.000Z</time>
      </trkpt>
      <trkpt lat="49.82289" lon="4.77952">
        <ele>316</ele>
        <time>2021-05-15T09:00:59.000Z</time>
      </trkpt>
      <trkpt lat="49.8229" lon="4.77955">
        <ele>316</ele>
        <time>2021-05-15T09:01:00.000Z</time>
      </trkpt>
      <trkpt lat="49.82291" lon="4.77958">
        <ele>316</ele>
        <time>2021-05-15T09:01:01.000Z</time>
      </trkpt>
      <trkpt lat="49.82292" lon="4.77961">
        <ele>316</ele>
        <time>2021-05-15T09:01:02.000Z</time>
      </trkpt>
      <trkpt lat="49.82293" lon="4.77965">
        <ele>317</ele>
        <time>2021-05-15T09:01:03.000Z</time>
      </trkpt>
      <trkpt lat="49.82294" lon="4.77968">
        <ele>317</ele>
        <time>2021-05-15T09:01:04.000Z</time>
      </trkpt>
      <trkpt lat="49.82295" lon="4.77972">
        <ele>317</ele>
        <time>2021-05-15T09:01:05.000Z</time>
      </trkpt>
      <trkpt lat="49.82297" lon="4.77975">
        <ele>318</ele>
        <time>2021-05-15T09:01:06.000Z</time>
      </trkpt>
      <trkpt lat="49.82297" lon="4.77978">
        <ele>318</ele>
        <time>2021-05-15T09:01:07.000Z</time>
      </trkpt>
      <trkpt lat="49.82298" lon="4.77981">
        <ele>318</ele>
        <time>2021-05-15T09:01:08.000Z</time>
      </trkpt>
      <trkpt lat="49.82299" lon="4.77985">
        <ele>319</ele>
        <time>2021-05-15T09:01:09.000Z</time>
      </trkpt>
      <trkpt lat="49.823" lon="4.77988">
        <ele>319</ele>
        <time>2021-05-15T09:01:10.000Z</time>
      </trkpt>
      <trkpt lat="49.82301" lon="4.77992">
        <ele>319</ele>
        <time>2021-05-15T09:01:11.000Z</time>
      </trkpt>
      <trkpt lat="49.82302" lon="4.77996">
        <ele>319</ele>
        <time>2021-05-15T09:01:12.000Z</time>
      </trkpt>
      <trkpt lat="49.82302" lon="4.77999">
        <ele>319</ele>
        <time>2021-05-15T09:01:13.000Z</time>
      </trkpt>
      <trkpt lat="49.82302" lon="4.78002">
        <ele>320</ele>
        <time>2021-05-15T09:01:14.000Z</time>
      </trkpt>
      <trkpt lat="49.82302" lon="4.78007">
        <ele>320</ele>
        <time>2021-05-15T09:01:15.000Z</time>
      </trkpt>
      <trkpt lat="49.82302" lon="4.78011">
        <ele>320</ele>
        <time>2021-05-15T09:01:16.000Z</time>
      </trkpt>
      <trkpt lat="49.82303" lon="4.78016">
        <ele>320</ele>
        <time>2021-05-15T09:01:17.000Z</time>
      </trkpt>
      <trkpt lat="49.82304" lon="4.7802">
        <ele>321</ele>
        <time>2021-05-15T09:01:18.000Z</time>
      </trkpt>
      <trkpt lat="49.82305" lon="4.78024">
        <ele>321</ele>
        <time>2021-05-15T09:01:19.000Z</time>
      </trkpt>
      <trkpt lat="49.82306" lon="4.78027">
        <ele>321</ele>
        <time>2021-05-15T09:01:20.000Z</time>
      </trkpt>
      <trkpt lat="49.82307" lon="4.78031">
        <ele>321</ele>
        <time>2021-05-15T09:01:21.000Z</time>
      </trkpt>
      <trkpt lat="49.82308" lon="4.78035">
        <ele>321</ele>
        <time>2021-05-15T09:01:22.000Z</time>
      </trkpt>
      <trkpt lat="49.82308" lon="4.78038">
        <ele>321</ele>
        <time>2021-05-15T09:01:23.000Z</time>
      </trkpt>
      <trkpt lat="49.82309" lon="4.78041">
        <ele>321</ele>
        <time>2021-05-15T09:01:24.000Z</time>
      </trkpt>
      <trkpt lat="49.8231" lon="4.78044">
        <ele>321</ele>
        <time>2021-05-15T09:01:25.000Z</time>
      </trkpt>
      <trkpt lat="49.8231" lon="4.78047">
        <ele>321</ele>
        <time>2021-05-15T09:01:26.000Z</time>
      </trkpt>
      <trkpt lat="49.82311" lon="4.7805">
        <ele>321</ele>
        <time>2021-05-15T09:01:27.000Z</time>
      </trkpt>
      <trkpt lat="49.82312" lon="4.78053">
        <ele>321</ele>
        <time>2021-05-15T09:01:28.000Z</time>
      </trkpt>
      <trkpt lat="49.82313" lon="4.78057">
        <ele>321</ele>
        <time>2021-05-15T09:01:29.000Z</time>
      </trkpt>
      <trkpt lat="49.82315" lon="4.78061">
        <ele>321</ele>
        <time>2021-05-15T09:01:30.000Z</time>
      </trkpt>
      <trkpt lat="49.82316" lon="4.78065">
        <ele>321</ele>
        <time>2021-05-15T09:01:31.000Z</time>
      </trkpt>
      <trkpt lat="49.82318" lon="4.78069">
        <ele>321</ele>
        <time>2021-05-15T09:01:32.000Z</time>
      </trkpt>
      <trkpt lat="49.82319" lon="4.78073">
        <ele>321</ele>
        <time>2021-05-15T09:01:33.000Z</time>
      </trkpt>
      <trkpt lat="49.82321" lon="4.78077">
        <ele>322</ele>
        <time>2021-05-15T09:01:34.000Z</time>
      </trkpt>
      <trkpt lat="49.82322" lon="4.78081">
        <ele>322</ele>
        <time>2021-05-15T09:01:35.000Z</time>
      </trkpt>
      <trkpt lat="49.82323" lon="4.78086">
        <ele>322</ele>
        <time>2021-05-15T09:01:36.000Z</time>
      </trkpt>
      <trkpt lat="49.82324" lon="4.7809">
        <ele>322</ele>
        <time>2021-05-15T09:01:37.000Z</time>
      </trkpt>
      <trkpt lat="49.82326" lon="4.78096">
        <ele>322</ele>
        <time>2021-05-15T09:01:38.000Z</time>
      </trkpt>
      <trkpt lat="49.82326" lon="4.78102">
        <ele>322</ele>
        <time>2021-05-15T09:01:39.000Z</time>
      </trkpt>
      <trkpt lat="49.82327" lon="4.78108">
        <ele>322</ele>
        <time>2021-05-15T09:01:40.000Z</time>
      </trkpt>
      <trkpt lat="49.82329" lon="4.78112">
        <ele>322</ele>
        <time>2021-05-15T09:01:41.000Z</time>
      </trkpt>
      <trkpt lat="49.82331" lon="4.78116">
        <ele>322</ele>
        <time>2021-05-15T09:01:42.000Z</time>
      </trkpt>
      <trkpt lat="49.82333" lon="4.7812">
        <ele>322</ele>
        <time>2021-05-15T09:01:43.000Z</time>
      </trkpt>
      <trkpt lat="49.82334" lon="4.78124">
        <ele>321</ele>
        <time>2021-05-15T09:01:44.000Z</time>
      </trkpt>
      <trkpt lat="49.82335" lon="4.78129">
        <ele>321</ele>
        <time>2021-05-15T09:01:45.000Z</time>
      </trkpt>
      <trkpt lat="49.82337" lon="4.78134">
        <ele>321</ele>
        <time>2021-05-15T09:01:46.000Z</time>
      </trkpt>
      <trkpt lat="49.82339" lon="4.78139">
        <ele>321</ele>
        <time>2021-05-15T09:01:47.000Z</time>
      </trkpt>
      <trkpt lat="49.82341" lon="4.78145">
        <ele>321</ele>
        <time>2021-05-15T09:01:48.000Z</time>
      </trkpt>
      <trkpt lat="49.82342" lon="4.7815">
        <ele>321</ele>
        <time>2021-05-15T09:01:49.000Z</time>
      </trkpt>
      <trkpt lat="49.82343" lon="4.78156">
        <ele>321</ele>
        <time>2021-05-15T09:01:50.000Z</time>
      </trkpt>
      <trkpt lat="49.82344" lon="4.78163">
        <ele>321</ele>
        <time>2021-05-15T09:01:51.000Z</time>
      </trkpt>
      <trkpt lat="49.82346" lon="4.78169">
        <ele>321</ele>
        <time>2021-05-15T09:01:52.000Z</time>
      </trkpt>
      <trkpt lat="49.82347" lon="4.78176">
        <ele>321</ele>
        <time>2021-05-15T09:01:53.000Z</time>
      </trkpt>
      <trkpt lat="49.8235" lon="4.78183">
        <ele>321</ele>
        <time>2021-05-15T09:01:54.000Z</time>
      </trkpt>
      <trkpt lat="49.82353" lon="4.7819">
        <ele>321</ele>
        <time>2021-05-15T09:01:55.000Z</time>
      </trkpt>
      <trkpt lat="49.82357" lon="4.78198">
        <ele>321</ele>
        <time>2021-05-15T09:01:56.000Z</time>
      </trkpt>
      <trkpt lat="49.82361" lon="4.78205">
        <ele>321</ele>
        <time>2021-05-15T09:01:57.000Z</time>
      </trkpt>
      <trkpt lat="49.82364" lon="4.78211">
        <ele>321</ele>
        <time>2021-05-15T09:01:58.000Z</time>
      </trkpt>
      <trkpt lat="49.82367" lon="4.78218">
        <ele>320</ele>
        <time>2021-05-15T09:01:59.000Z</time>
      </trkpt>
      <trkpt lat="49.82371" lon="4.78225">
        <ele>320</ele>
        <time>2021-05-15T09:02:00.000Z</time>
      </trkpt>
      <trkpt lat="49.82374" lon="4.78231">
        <ele>320</ele>
        <time>2021-05-15T09:02:01.000Z</time>
      </trkpt>
      <trkpt lat="49.82379" lon="4.78237">
        <ele>320</ele>
        <time>2021-05-15T09:02:02.000Z</time>
      </trkpt>
      <trkpt lat="49.82383" lon="4.78242">
        <ele>320</ele>
        <time>2021-05-15T09:02:03.000Z</time>
      </trkpt>
      <trkpt lat="49.82386" lon="4.78248">
        <ele>320</ele>
        <time>2021-05-15T09:02:04.000Z</time>
      </trkpt>
      <trkpt lat="49.82391" lon="4.78252">
        <ele>319</ele>
        <time>2021-05-15T09:02:05.000Z</time>
      </trkpt>
      <trkpt lat="49.82394" lon="4.78256">
        <ele>319</ele>
        <time>2021-05-15T09:02:06.000Z</time>
      </trkpt>
      <trkpt lat="49.82397" lon="4.78259">
        <ele>319</ele>
        <time>2021-05-15T09:02:07.000Z</time>
      </trkpt>
      <trkpt lat="49.824" lon="4.78262">
        <ele>319</ele>
        <time>2021-05-15T09:02:08.000Z</time>
      </trkpt>
      <trkpt lat="49.82403" lon="4.78264">
        <ele>319</ele>
        <time>2021-05-15T09:02:09.000Z</time>
      </trkpt>
      <trkpt lat="49.82407" lon="4.78268">
        <ele>318</ele>
        <time>2021-05-15T09:02:10.000Z</time>
      </trkpt>
      <trkpt lat="49.8241" lon="4.78272">
        <ele>318</ele>
        <time>2021-05-15T09:02:11.000Z</time>
      </trkpt>
      <trkpt lat="49.82412" lon="4.78276">
        <ele>318</ele>
        <time>2021-05-15T09:02:12.000Z</time>
      </trkpt>
      <trkpt lat="49.82414" lon="4.78281">
        <ele>318</ele>
        <time>2021-05-15T09:02:13.000Z</time>
      </trkpt>
      <trkpt lat="49.82416" lon="4.78285">
        <ele>318</ele>
        <time>2021-05-15T09:02:14.000Z</time>
      </trkpt>
      <trkpt lat="49.82418" lon="4.78289">
        <ele>318</ele>
        <time>2021-05-15T09:02:15.000Z</time>
      </trkpt>
      <trkpt lat="49.82419" lon="4.78293">
        <ele>318</ele>
        <time>2021-05-15T09:02:16.000Z</time>
      </trkpt>
      <trkpt lat="49.82421" lon="4.78296">
        <ele>318</ele>
        <time>2021-05-15T09:02:17.000Z</time>
      </trkpt>
      <trkpt lat="49.82423" lon="4.78299">
        <ele>318</ele>
        <time>2021-05-15T09:02:18.000Z</time>
      </trkpt>
      <trkpt lat="49.82425" lon="4.78302">
        <ele>318</ele>
        <time>2021-05-15T09:02:19.000Z</time>
      </trkpt>
      <trkpt lat="49.82427" lon="4.78305">
        <ele>317</ele>
        <time>2021-05-15T09:02:20.000Z</time>
      </trkpt>
      <trkpt lat="49.82429" lon="4.78308">
        <ele>317</ele>
        <time>2021-05-15T09:02:21.000Z</time>
      </trkpt>
      <trkpt lat="49.82431" lon="4.78311">
        <ele>317</ele>
        <time>2021-05-15T09:02:22.000Z</time>
      </trkpt>
      <trkpt lat="49.82433" lon="4.78314">
        <ele>317</ele>
        <time>2021-05-15T09:02:23.000Z</time>
      </trkpt>
      <trkpt lat="49.82435" lon="4.78317">
        <ele>317</ele>
        <time>2021-05-15T09:02:24.000Z</time>
      </trkpt>
      <trkpt lat="49.82437" lon="4.7832">
        <ele>317</ele>
        <time>2021-05-15T09:02:25.000Z</time>
      </trkpt>
      <trkpt lat="49.82439" lon="4.78322">
        <ele>317</ele>
        <time>2021-05-15T09:02:26.000Z</time>
      </trkpt>
      <trkpt lat="49.8244" lon="4.78325">
        <ele>317</ele>
        <time>2021-05-15T09:02:27.000Z</time>
      </trkpt>
      <trkpt lat="49.82441" lon="4.78328">
        <ele>317</ele>
        <time>2021-05-15T09:02:28.000Z</time>
      </trkpt>
      <trkpt lat="49.82443" lon="4.7833">
        <ele>317</ele>
        <time>2021-05-15T09:02:29.000Z</time>
      </trkpt>
      <trkpt lat="49.82446" lon="4.78332">
        <ele>317</ele>
        <time>2021-05-15T09:02:30.000Z</time>
      </trkpt>
      <trkpt lat="49.82447" lon="4.78334">
        <ele>317</ele>
        <time>2021-05-15T09:02:31.000Z</time>
      </trkpt>
      <trkpt lat="49.82449" lon="4.78337">
        <ele>317</ele>
        <time>2021-05-15T09:02:32.000Z</time>
      </trkpt>
      <trkpt lat="49.8245" lon="4.7834">
        <ele>317</ele>
        <time>2021-05-15T09:02:33.000Z</time>
      </trkpt>
      <trkpt lat="49.82451" lon="4.78343">
        <ele>317</ele>
        <time>2021-05-15T09:02:34.000Z</time>
      </trkpt>
      <trkpt lat="49.82452" lon="4.78346">
        <ele>317</ele>
        <time>2021-05-15T09:02:35.000Z</time>
      </trkpt>
      <trkpt lat="49.82454" lon="4.78349">
        <ele>317</ele>
        <time>2021-05-15T09:02:36.000Z</time>
      </trkpt>
      <trkpt lat="49.82456" lon="4.78352">
        <ele>317</ele>
        <time>2021-05-15T09:02:37.000Z</time>
      </trkpt>
      <trkpt lat="49.82457" lon="4.78355">
        <ele>317</ele>
        <time>2021-05-15T09:02:38.000Z</time>
      </trkpt>
      <trkpt lat="49.82459" lon="4.78358">
        <ele>317</ele>
        <time>2021-05-15T09:02:39.000Z</time>
      </trkpt>
      <trkpt lat="49.82461" lon="4.78361">
        <ele>317</ele>
        <time>2021-05-15T09:02:40.000Z</time>
      </trkpt>
      <trkpt lat="49.82462" lon="4.78364">
        <ele>317</ele>
        <time>2021-05-15T09:02:41.000Z</time>
      </trkpt>
      <trkpt lat="49.82463" lon="4.78368">
        <ele>317</ele>
        <time>2021-05-15T09:02:42.000Z</time>
      </trkpt>
      <trkpt lat="49.82465" lon="4.78371">
        <ele>317</ele>
        <time>2021-05-15T09:02:43.000Z</time>
      </trkpt>
      <trkpt lat="49.82466" lon="4.78374">
        <ele>317</ele>
        <time>2021-05-15T09:02:44.000Z</time>
      </trkpt>
      <trkpt lat="49.82468" lon="4.78377">
        <ele>317</ele>
        <time>2021-05-15T09:02:45.000Z</time>
      </trkpt>
      <trkpt lat="49.82469" lon="4.7838">
        <ele>317</ele>
        <time>2021-05-15T09:02:46.000Z</time>
      </trkpt>
      <trkpt lat="49.82471" lon="4.78382">
        <ele>317</ele>
        <time>2021-05-15T09:02:47.000Z</time>
      </trkpt>
      <trkpt lat="49.82473" lon="4.78385">
        <ele>317</ele>
        <time>2021-05-15T09:02:48.000Z</time>
      </trkpt>
      <trkpt lat="49.82475" lon="4.78389">
        <ele>317</ele>
        <time>2021-05-15T09:02:49.000Z</time>
      </trkpt>
      <trkpt lat="49.82477" lon="4.78392">
        <ele>317</ele>
        <time>2021-05-15T09:02:50.000Z</time>
      </trkpt>
      <trkpt lat="49.82478" lon="4.78395">
        <ele>317</ele>
        <time>2021-05-15T09:02:51.000Z</time>
      </trkpt>
      <trkpt lat="49.82479" lon="4.78398">
        <ele>317</ele>
        <time>2021-05-15T09:02:52.000Z</time>
      </trkpt>
      <trkpt lat="49.82481" lon="4.78401">
        <ele>317</ele>
        <time>2021-05-15T09:02:53.000Z</time>
      </trkpt>
      <trkpt lat="49.82483" lon="4.78404">
        <ele>317</ele>
        <time>2021-05-15T09:02:54.000Z</time>
      </trkpt>
      <trkpt lat="49.82484" lon="4.78406">
        <ele>317</ele>
        <time>2021-05-15T09:02:55.000Z</time>
      </trkpt>
      <trkpt lat="49.82486" lon="4.78409">
        <ele>318</ele>
        <time>2021-05-15T09:02:56.000Z</time>
      </trkpt>
      <trkpt lat="49.82488" lon="4.78411">
        <ele>318</ele>
        <time>2021-05-15T09:02:57.000Z</time>
      </trkpt>
      <trkpt lat="49.82489" lon="4.78414">
        <ele>318</ele>
        <time>2021-05-15T09:02:58.000Z</time>
      </trkpt>
      <trkpt lat="49.82491" lon="4.78417">
        <ele>318</ele>
        <time>2021-05-15T09:02:59.000Z</time>
      </trkpt>
      <trkpt lat="49.82492" lon="4.7842">
        <ele>318</ele>
        <time>2021-05-15T09:03:00.000Z</time>
      </trkpt>
      <trkpt lat="49.82494" lon="4.78423">
        <ele>319</ele>
        <time>2021-05-15T09:03:01.000Z</time>
      </trkpt>
      <trkpt lat="49.82495" lon="4.78426">
        <ele>319</ele>
        <time>2021-05-15T09:03:02.000Z</time>
      </trkpt>
      <trkpt lat="49.82497" lon="4.78429">
        <ele>319</ele>
        <time>2021-05-15T09:03:03.000Z</time>
      </trkpt>
      <trkpt lat="49.82498" lon="4.78432">
        <ele>320</ele>
        <time>2021-05-15T09:03:04.000Z</time>
      </trkpt>
      <trkpt lat="49.82499" lon="4.78435">
        <ele>320</ele>
        <time>2021-05-15T09:03:05.000Z</time>
      </trkpt>
      <trkpt lat="49.82501" lon="4.78438">
        <ele>320</ele>
        <time>2021-05-15T09:03:06.000Z</time>
      </trkpt>
      <trkpt lat="49.82503" lon="4.78441">
        <ele>320</ele>
        <time>2021-05-15T09:03:07.000Z</time>
      </trkpt>
      <trkpt lat="49.82504" lon="4.78445">
        <ele>321</ele>
        <time>2021-05-15T09:03:08.000Z</time>
      </trkpt>
      <trkpt lat="49.82505" lon="4.78448">
        <ele>321</ele>
        <time>2021-05-15T09:03:09.000Z</time>
      </trkpt>
      <trkpt lat="49.82507" lon="4.78451">
        <ele>321</ele>
        <time>2021-05-15T09:03:10.000Z</time>
      </trkpt>
      <trkpt lat="49.82509" lon="4.78455">
        <ele>321</ele>
        <time>2021-05-15T09:03:11.000Z</time>
      </trkpt>
      <trkpt lat="49.82512" lon="4.78458">
        <ele>321</ele>
        <time>2021-05-15T09:03:12.000Z</time>
      </trkpt>
      <trkpt lat="49.82514" lon="4.78462">
        <ele>321</ele>
        <time>2021-05-15T09:03:13.000Z</time>
      </trkpt>
      <trkpt lat="49.82516" lon="4.78465">
        <ele>321</ele>
        <time>2021-05-15T09:03:14.000Z</time>
      </trkpt>
      <trkpt lat="49.82517" lon="4.78469">
        <ele>322</ele>
        <time>2021-05-15T09:03:15.000Z</time>
      </trkpt>
      <trkpt lat="49.82518" lon="4.78472">
        <ele>322</ele>
        <time>2021-05-15T09:03:16.000Z</time>
      </trkpt>
      <trkpt lat="49.8252" lon="4.78475">
        <ele>322</ele>
        <time>2021-05-15T09:03:17.000Z</time>
      </trkpt>
      <trkpt lat="49.82521" lon="4.78477">
        <ele>322</ele>
        <time>2021-05-15T09:03:18.000Z</time>
      </trkpt>
      <trkpt lat="49.82522" lon="4.7848">
        <ele>322</ele>
        <time>2021-05-15T09:03:19.000Z</time>
      </trkpt>
      <trkpt lat="49.82524" lon="4.78483">
        <ele>322</ele>
        <time>2021-05-15T09:03:20.000Z</time>
      </trkpt>
      <trkpt lat="49.82526" lon="4.78486">
        <ele>322</ele>
        <time>2021-05-15T09:03:21.000Z</time>
      </trkpt>
      <trkpt lat="49.82527" lon="4.78489">
        <ele>322</ele>
        <time>2021-05-15T09:03:22.000Z</time>
      </trkpt>
      <trkpt lat="49.82528" lon="4.78492">
        <ele>323</ele>
        <time>2021-05-15T09:03:23.000Z</time>
      </trkpt>
      <trkpt lat="49.82529" lon="4.78496">
        <ele>323</ele>
        <time>2021-05-15T09:03:24.000Z</time>
      </trkpt>
      <trkpt lat="49.8253" lon="4.78501">
        <ele>323</ele>
        <time>2021-05-15T09:03:25.000Z</time>
      </trkpt>
      <trkpt lat="49.82531" lon="4.78507">
        <ele>323</ele>
        <time>2021-05-15T09:03:26.000Z</time>
      </trkpt>
      <trkpt lat="49.82533" lon="4.78513">
        <ele>323</ele>
        <time>2021-05-15T09:03:27.000Z</time>
      </trkpt>
      <trkpt lat="49.82535" lon="4.7852">
        <ele>324</ele>
        <time>2021-05-15T09:03:28.000Z</time>
      </trkpt>
      <trkpt lat="49.82538" lon="4.78528">
        <ele>324</ele>
        <time>2021-05-15T09:03:29.000Z</time>
      </trkpt>
      <trkpt lat="49.82543" lon="4.78535">
        <ele>324</ele>
        <time>2021-05-15T09:03:30.000Z</time>
      </trkpt>
      <trkpt lat="49.82549" lon="4.78541">
        <ele>324</ele>
        <time>2021-05-15T09:03:31.000Z</time>
      </trkpt>
      <trkpt lat="49.82554" lon="4.78545">
        <ele>324</ele>
        <time>2021-05-15T09:03:32.000Z</time>
      </trkpt>
      <trkpt lat="49.82558" lon="4.78549">
        <ele>324</ele>
        <time>2021-05-15T09:03:33.000Z</time>
      </trkpt>
      <trkpt lat="49.82561" lon="4.78551">
        <ele>324</ele>
        <time>2021-05-15T09:03:34.000Z</time>
      </trkpt>
      <trkpt lat="49.82564" lon="4.78552">
        <ele>323</ele>
        <time>2021-05-15T09:03:35.000Z</time>
      </trkpt>
      <trkpt lat="49.82566" lon="4.78552">
        <ele>323</ele>
        <time>2021-05-15T09:03:36.000Z</time>
      </trkpt>
      <trkpt lat="49.82569" lon="4.78551">
        <ele>323</ele>
        <time>2021-05-15T09:03:37.000Z</time>
      </trkpt>
      <trkpt lat="49.82572" lon="4.78548">
        <ele>323</ele>
        <time>2021-05-15T09:03:38.000Z</time>
      </trkpt>
      <trkpt lat="49.82575" lon="4.78544">
        <ele>323</ele>
        <time>2021-05-15T09:03:39.000Z</time>
      </trkpt>
      <trkpt lat="49.8258" lon="4.7854">
        <ele>323</ele>
        <time>2021-05-15T09:03:40.000Z</time>
      </trkpt>
      <trkpt lat="49.82584" lon="4.78536">
        <ele>323</ele>
        <time>2021-05-15T09:03:41.000Z</time>
      </trkpt>
      <trkpt lat="49.82588" lon="4.7853">
        <ele>323</ele>
        <time>2021-05-15T09:03:42.000Z</time>
      </trkpt>
      <trkpt lat="49.82592" lon="4.78524">
        <ele>323</ele>
        <time>2021-05-15T09:03:43.000Z</time>
      </trkpt>
      <trkpt lat="49.82596" lon="4.78519">
        <ele>322</ele>
        <time>2021-05-15T09:03:44.000Z</time>
      </trkpt>
      <trkpt lat="49.826" lon="4.78513">
        <ele>322</ele>
        <time>2021-05-15T09:03:45.000Z</time>
      </trkpt>
      <trkpt lat="49.82603" lon="4.78507">
        <ele>322</ele>
        <time>2021-05-15T09:03:46.000Z</time>
      </trkpt>
      <trkpt lat="49.82608" lon="4.78505">
        <ele>322</ele>
        <time>2021-05-15T09:03:47.000Z</time>
      </trkpt>
      <trkpt lat="49.82612" lon="4.78505">
        <ele>322</ele>
        <time>2021-05-15T09:03:48.000Z</time>
      </trkpt>
      <trkpt lat="49.82615" lon="4.78508">
        <ele>322</ele>
        <time>2021-05-15T09:03:49.000Z</time>
      </trkpt>
      <trkpt lat="49.82618" lon="4.78514">
        <ele>322</ele>
        <time>2021-05-15T09:03:50.000Z</time>
      </trkpt>
      <trkpt lat="49.82619" lon="4.78523">
        <ele>322</ele>
        <time>2021-05-15T09:03:51.000Z</time>
      </trkpt>
      <trkpt lat="49.82621" lon="4.78533">
        <ele>322</ele>
        <time>2021-05-15T09:03:52.000Z</time>
      </trkpt>
      <trkpt lat="49.82622" lon="4.78543">
        <ele>322</ele>
        <time>2021-05-15T09:03:53.000Z</time>
      </trkpt>
      <trkpt lat="49.82623" lon="4.78554">
        <ele>321</ele>
        <time>2021-05-15T09:03:54.000Z</time>
      </trkpt>
      <trkpt lat="49.82623" lon="4.78565">
        <ele>321</ele>
        <time>2021-05-15T09:03:55.000Z</time>
      </trkpt>
      <trkpt lat="49.82622" lon="4.78576">
        <ele>321</ele>
        <time>2021-05-15T09:03:56.000Z</time>
      </trkpt>
      <trkpt lat="49.82622" lon="4.78589">
        <ele>321</ele>
        <time>2021-05-15T09:03:57.000Z</time>
      </trkpt>
      <trkpt lat="49.82621" lon="4.78601">
        <ele>321</ele>
        <time>2021-05-15T09:03:58.000Z</time>
      </trkpt>
      <trkpt lat="49.8262" lon="4.78612">
        <ele>321</ele>
        <time>2021-05-15T09:03:59.000Z</time>
      </trkpt>
      <trkpt lat="49.82619" lon="4.78622">
        <ele>321</ele>
        <time>2021-05-15T09:04:00.000Z</time>
      </trkpt>
      <trkpt lat="49.82617" lon="4.78629">
        <ele>320</ele>
        <time>2021-05-15T09:04:01.000Z</time>
      </trkpt>
      <trkpt lat="49.82616" lon="4.78635">
        <ele>320</ele>
        <time>2021-05-15T09:04:02.000Z</time>
      </trkpt>
      <trkpt lat="49.82617" lon="4.78639">
        <ele>320</ele>
        <time>2021-05-15T09:04:03.000Z</time>
      </trkpt>
      <trkpt lat="49.82619" lon="4.78641">
        <ele>319</ele>
        <time>2021-05-15T09:04:04.000Z</time>
      </trkpt>
      <trkpt lat="49.82623" lon="4.7864">
        <ele>319</ele>
        <time>2021-05-15T09:04:05.000Z</time>
      </trkpt>
      <trkpt lat="49.82629" lon="4.7864">
        <ele>318</ele>
        <time>2021-05-15T09:04:06.000Z</time>
      </trkpt>
      <trkpt lat="49.82637" lon="4.7864">
        <ele>318</ele>
        <time>2021-05-15T09:04:07.000Z</time>
      </trkpt>
      <trkpt lat="49.82645" lon="4.78641">
        <ele>317</ele>
        <time>2021-05-15T09:04:08.000Z</time>
      </trkpt>
      <trkpt lat="49.82654" lon="4.78642">
        <ele>316</ele>
        <time>2021-05-15T09:04:09.000Z</time>
      </trkpt>
      <trkpt lat="49.82663" lon="4.78644">
        <ele>316</ele>
        <time>2021-05-15T09:04:10.000Z</time>
      </trkpt>
      <trkpt lat="49.82671" lon="4.78647">
        <ele>315</ele>
        <time>2021-05-15T09:04:11.000Z</time>
      </trkpt>
      <trkpt lat="49.82679" lon="4.78649">
        <ele>314</ele>
        <time>2021-05-15T09:04:12.000Z</time>
      </trkpt>
      <trkpt lat="49.82687" lon="4.78652">
        <ele>313</ele>
        <time>2021-05-15T09:04:13.000Z</time>
      </trkpt>
      <trkpt lat="49.82695" lon="4.78654">
        <ele>312</ele>
        <time>2021-05-15T09:04:14.000Z</time>
      </trkpt>
      <trkpt lat="49.82702" lon="4.78656">
        <ele>311</ele>
        <time>2021-05-15T09:04:15.000Z</time>
      </trkpt>
      <trkpt lat="49.82708" lon="4.78657">
        <ele>310</ele>
        <time>2021-05-15T09:04:16.000Z</time>
      </trkpt>
      <trkpt lat="49.82713" lon="4.78656">
        <ele>309</ele>
        <time>2021-05-15T09:04:17.000Z</time>
      </trkpt>
      <trkpt lat="49.82719" lon="4.78655">
        <ele>309</ele>
        <time>2021-05-15T09:04:18.000Z</time>
      </trkpt>
      <trkpt lat="49.82724" lon="4.78653">
        <ele>308</ele>
        <time>2021-05-15T09:04:19.000Z</time>
      </trkpt>
      <trkpt lat="49.82729" lon="4.78651">
        <ele>307</ele>
        <time>2021-05-15T09:04:20.000Z</time>
      </trkpt>
      <trkpt lat="49.82734" lon="4.78649">
        <ele>307</ele>
        <time>2021-05-15T09:04:21.000Z</time>
      </trkpt>
      <trkpt lat="49.8274" lon="4.78648">
        <ele>306</ele>
        <time>2021-05-15T09:04:22.000Z</time>
      </trkpt>
      <trkpt lat="49.82745" lon="4.78647">
        <ele>306</ele>
        <time>2021-05-15T09:04:23.000Z</time>
      </trkpt>
      <trkpt lat="49.82751" lon="4.78646">
        <ele>305</ele>
        <time>2021-05-15T09:04:24.000Z</time>
      </trkpt>
      <trkpt lat="49.82756" lon="4.78646">
        <ele>305</ele>
        <time>2021-05-15T09:04:25.000Z</time>
      </trkpt>
      <trkpt lat="49.8276" lon="4.78647">
        <ele>304</ele>
        <time>2021-05-15T09:04:26.000Z</time>
      </trkpt>
      <trkpt lat="49.82764" lon="4.78648">
        <ele>304</ele>
        <time>2021-05-15T09:04:27.000Z</time>
      </trkpt>
      <trkpt lat="49.82766" lon="4.78649">
        <ele>303</ele>
        <time>2021-05-15T09:04:28.000Z</time>
      </trkpt>
      <trkpt lat="49.82768" lon="4.78651">
        <ele>303</ele>
        <time>2021-05-15T09:04:29.000Z</time>
      </trkpt>
      <trkpt lat="49.8277" lon="4.78652">
        <ele>303</ele>
        <time>2021-05-15T09:04:30.000Z</time>
      </trkpt>
      <trkpt lat="49.82772" lon="4.78653">
        <ele>302</ele>
        <time>2021-05-15T09:04:31.000Z</time>
      </trkpt>
      <trkpt lat="49.82774" lon="4.78654">
        <ele>302</ele>
        <time>2021-05-15T09:04:32.000Z</time>
      </trkpt>
      <trkpt lat="49.82777" lon="4.78655">
        <ele>302</ele>
        <time>2021-05-15T09:04:33.000Z</time>
      </trkpt>
      <trkpt lat="49.82779" lon="4.78657">
        <ele>301</ele>
        <time>2021-05-15T09:04:34.000Z</time>
      </trkpt>
      <trkpt lat="49.82782" lon="4.78659">
        <ele>301</ele>
        <time>2021-05-15T09:04:35.000Z</time>
      </trkpt>
      <trkpt lat="49.82785" lon="4.78662">
        <ele>301</ele>
        <time>2021-05-15T09:04:36.000Z</time>
      </trkpt>
      <trkpt lat="49.8279" lon="4.78664">
        <ele>301</ele>
        <time>2021-05-15T09:04:37.000Z</time>
      </trkpt>
      <trkpt lat="49.82795" lon="4.78668">
        <ele>301</ele>
        <time>2021-05-15T09:04:38.000Z</time>
      </trkpt>
      <trkpt lat="49.82799" lon="4.7867">
        <ele>300</ele>
        <time>2021-05-15T09:04:39.000Z</time>
      </trkpt>
      <trkpt lat="49.82803" lon="4.78671">
        <ele>300</ele>
        <time>2021-05-15T09:04:40.000Z</time>
      </trkpt>
      <trkpt lat="49.82807" lon="4.78671">
        <ele>300</ele>
        <time>2021-05-15T09:04:41.000Z</time>
      </trkpt>
      <trkpt lat="49.82811" lon="4.78672">
        <ele>300</ele>
        <time>2021-05-15T09:04:42.000Z</time>
      </trkpt>
      <trkpt lat="49.82814" lon="4.78673">
        <ele>300</ele>
        <time>2021-05-15T09:04:43.000Z</time>
      </trkpt>
      <trkpt lat="49.82816" lon="4.78673">
        <ele>300</ele>
        <time>2021-05-15T09:04:44.000Z</time>
      </trkpt>
      <trkpt lat="49.82819" lon="4.78674">
        <ele>300</ele>
        <time>2021-05-15T09:04:45.000Z</time>
      </trkpt>
      <trkpt lat="49.8282" lon="4.78674">
        <ele>300</ele>
        <time>2021-05-15T09:04:46.000Z</time>
      </trkpt>
      <trkpt lat="49.82821" lon="4.78673">
        <ele>300</ele>
        <time>2021-05-15T09:04:47.000Z</time>
      </trkpt>
      <trkpt lat="49.82822" lon="4.78672">
        <ele>300</ele>
        <time>2021-05-15T09:04:48.000Z</time>
      </trkpt>
      <trkpt lat="49.82822" lon="4.7867">
        <ele>299</ele>
        <time>2021-05-15T09:04:49.000Z</time>
      </trkpt>
      <trkpt lat="49.82821" lon="4.78667">
        <ele>299</ele>
        <time>2021-05-15T09:04:50.000Z</time>
      </trkpt>
      <trkpt lat="49.82821" lon="4.78665">
        <ele>299</ele>
        <time>2021-05-15T09:04:51.000Z</time>
      </trkpt>
      <trkpt lat="49.82821" lon="4.78663">
        <ele>299</ele>
        <time>2021-05-15T09:04:52.000Z</time>
      </trkpt>
      <trkpt lat="49.82821" lon="4.7866">
        <ele>299</ele>
        <time>2021-05-15T09:04:53.000Z</time>
      </trkpt>
      <trkpt lat="49.8282" lon="4.78658">
        <ele>298</ele>
        <time>2021-05-15T09:04:54.000Z</time>
      </trkpt>
      <trkpt lat="49.8282" lon="4.78655">
        <ele>299</ele>
        <time>2021-05-15T09:04:55.000Z</time>
      </trkpt>
      <trkpt lat="49.8282" lon="4.78653">
        <ele>299</ele>
        <time>2021-05-15T09:04:56.000Z</time>
      </trkpt>
      <trkpt lat="49.8282" lon="4.7865">
        <ele>299</ele>
        <time>2021-05-15T09:04:57.000Z</time>
      </trkpt>
      <trkpt lat="49.8282" lon="4.78647">
        <ele>299</ele>
        <time>2021-05-15T09:04:58.000Z</time>
      </trkpt>
      <trkpt lat="49.8282" lon="4.78644">
        <ele>299</ele>
        <time>2021-05-15T09:04:59.000Z</time>
      </trkpt>
      <trkpt lat="49.8282" lon="4.78641">
        <ele>299</ele>
        <time>2021-05-15T09:05:00.000Z</time>
      </trkpt>
      <trkpt lat="49.82819" lon="4.78639">
        <ele>299</ele>
        <time>2021-05-15T09:05:01.000Z</time>
      </trkpt>
      <trkpt lat="49.82819" lon="4.78636">
        <ele>299</ele>
        <time>2021-05-15T09:05:02.000Z</time>
      </trkpt>
      <trkpt lat="49.82819" lon="4.78633">
        <ele>299</ele>
        <time>2021-05-15T09:05:03.000Z</time>
      </trkpt>
      <trkpt lat="49.82819" lon="4.7863">
        <ele>299</ele>
        <time>2021-05-15T09:05:04.000Z</time>
      </trkpt>
      <trkpt lat="49.82819" lon="4.78627">
        <ele>299</ele>
        <time>2021-05-15T09:05:05.000Z</time>
      </trkpt>
      <trkpt lat="49.82818" lon="4.78624">
        <ele>299</ele>
        <time>2021-05-15T09:05:06.000Z</time>
      </trkpt>
      <trkpt lat="49.82818" lon="4.78621">
        <ele>299</ele>
        <time>2021-05-15T09:05:07.000Z</time>
      </trkpt>
      <trkpt lat="49.82817" lon="4.78618">
        <ele>300</ele>
        <time>2021-05-15T09:05:08.000Z</time>
      </trkpt>
      <trkpt lat="49.82817" lon="4.78615">
        <ele>300</ele>
        <time>2021-05-15T09:05:09.000Z</time>
      </trkpt>
      <trkpt lat="49.82817" lon="4.78612">
        <ele>300</ele>
        <time>2021-05-15T09:05:10.000Z</time>
      </trkpt>
      <trkpt lat="49.82817" lon="4.78609">
        <ele>300</ele>
        <time>2021-05-15T09:05:11.000Z</time>
      </trkpt>
      <trkpt lat="49.82817" lon="4.78606">
        <ele>300</ele>
        <time>2021-05-15T09:05:12.000Z</time>
      </trkpt>
      <trkpt lat="49.82817" lon="4.78603">
        <ele>300</ele>
        <time>2021-05-15T09:05:13.000Z</time>
      </trkpt>
      <trkpt lat="49.82817" lon="4.78601">
        <ele>300</ele>
        <time>2021-05-15T09:05:14.000Z</time>
      </trkpt>
      <trkpt lat="49.82817" lon="4.78598">
        <ele>300</ele>
        <time>2021-05-15T09:05:15.000Z</time>
      </trkpt>
      <trkpt lat="49.82817" lon="4.78596">
        <ele>300</ele>
        <time>2021-05-15T09:05:16.000Z</time>
      </trkpt>
      <trkpt lat="49.82817" lon="4.78593">
        <ele>300</ele>
        <time>2021-05-15T09:05:17.000Z</time>
      </trkpt>
      <trkpt lat="49.82817" lon="4.78589">
        <ele>301</ele>
        <time>2021-05-15T09:05:18.000Z</time>
      </trkpt>
      <trkpt lat="49.82817" lon="4.78586">
        <ele>301</ele>
        <time>2021-05-15T09:05:19.000Z</time>
      </trkpt>
      <trkpt lat="49.82817" lon="4.78584">
        <ele>301</ele>
        <time>2021-05-15T09:05:20.000Z</time>
      </trkpt>
      <trkpt lat="49.82816" lon="4.7858">
        <ele>301</ele>
        <time>2021-05-15T09:05:21.000Z</time>
      </trkpt>
      <trkpt lat="49.82816" lon="4.78577">
        <ele>301</ele>
        <time>2021-05-15T09:05:22.000Z</time>
      </trkpt>
      <trkpt lat="49.82816" lon="4.78575">
        <ele>302</ele>
        <time>2021-05-15T09:05:23.000Z</time>
      </trkpt>
      <trkpt lat="49.82816" lon="4.78573">
        <ele>302</ele>
        <time>2021-05-15T09:05:24.000Z</time>
      </trkpt>
      <trkpt lat="49.82816" lon="4.78569">
        <ele>302</ele>
        <time>2021-05-15T09:05:25.000Z</time>
      </trkpt>
      <trkpt lat="49.82815" lon="4.78566">
        <ele>302</ele>
        <time>2021-05-15T09:05:26.000Z</time>
      </trkpt>
      <trkpt lat="49.82815" lon="4.78564">
        <ele>302</ele>
        <time>2021-05-15T09:05:27.000Z</time>
      </trkpt>
      <trkpt lat="49.82814" lon="4.78561">
        <ele>302</ele>
        <time>2021-05-15T09:05:28.000Z</time>
      </trkpt>
      <trkpt lat="49.82814" lon="4.78557">
        <ele>302</ele>
        <time>2021-05-15T09:05:29.000Z</time>
      </trkpt>
      <trkpt lat="49.82814" lon="4.78554">
        <ele>303</ele>
        <time>2021-05-15T09:05:30.000Z</time>
      </trkpt>
      <trkpt lat="49.82813" lon="4.7855">
        <ele>303</ele>
        <time>2021-05-15T09:05:31.000Z</time>
      </trkpt>
      <trkpt lat="49.82813" lon="4.78547">
        <ele>303</ele>
        <time>2021-05-15T09:05:32.000Z</time>
      </trkpt>
      <trkpt lat="49.82812" lon="4.78544">
        <ele>304</ele>
        <time>2021-05-15T09:05:33.000Z</time>
      </trkpt>
      <trkpt lat="49.82811" lon="4.78541">
        <ele>304</ele>
        <time>2021-05-15T09:05:34.000Z</time>
      </trkpt>
      <trkpt lat="49.8281" lon="4.78538">
        <ele>305</ele>
        <time>2021-05-15T09:05:35.000Z</time>
      </trkpt>
      <trkpt lat="49.8281" lon="4.78534">
        <ele>305</ele>
        <time>2021-05-15T09:05:36.000Z</time>
      </trkpt>
      <trkpt lat="49.82809" lon="4.78531">
        <ele>305</ele>
        <time>2021-05-15T09:05:37.000Z</time>
      </trkpt>
      <trkpt lat="49.82809" lon="4.78528">
        <ele>306</ele>
        <time>2021-05-15T09:05:38.000Z</time>
      </trkpt>
      <trkpt lat="49.82808" lon="4.78525">
        <ele>306</ele>
        <time>2021-05-15T09:05:39.000Z</time>
      </trkpt>
      <trkpt lat="49.82807" lon="4.78522">
        <ele>306</ele>
        <time>2021-05-15T09:05:40.000Z</time>
      </trkpt>
      <trkpt lat="49.82806" lon="4.7852">
        <ele>306</ele>
        <time>2021-05-15T09:05:41.000Z</time>
      </trkpt>
      <trkpt lat="49.82806" lon="4.78517">
        <ele>307</ele>
        <time>2021-05-15T09:05:42.000Z</time>
      </trkpt>
      <trkpt lat="49.82806" lon="4.78514">
        <ele>307</ele>
        <time>2021-05-15T09:05:43.000Z</time>
      </trkpt>
      <trkpt lat="49.82805" lon="4.7851">
        <ele>307</ele>
        <time>2021-05-15T09:05:44.000Z</time>
      </trkpt>
      <trkpt lat="49.82805" lon="4.78507">
        <ele>307</ele>
        <time>2021-05-15T09:05:45.000Z</time>
      </trkpt>
      <trkpt lat="49.82804" lon="4.78504">
        <ele>307</ele>
        <time>2021-05-15T09:05:46.000Z</time>
      </trkpt>
      <trkpt lat="49.82804" lon="4.785">
        <ele>308</ele>
        <time>2021-05-15T09:05:47.000Z</time>
      </trkpt>
      <trkpt lat="49.82803" lon="4.78497">
        <ele>308</ele>
        <time>2021-05-15T09:05:48.000Z</time>
      </trkpt>
      <trkpt lat="49.82803" lon="4.78493">
        <ele>308</ele>
        <time>2021-05-15T09:05:49.000Z</time>
      </trkpt>
      <trkpt lat="49.82802" lon="4.78489">
        <ele>308</ele>
        <time>2021-05-15T09:05:50.000Z</time>
      </trkpt>
      <trkpt lat="49.82801" lon="4.78485">
        <ele>309</ele>
        <time>2021-05-15T09:05:51.000Z</time>
      </trkpt>
      <trkpt lat="49.82801" lon="4.78482">
        <ele>309</ele>
        <time>2021-05-15T09:05:52.000Z</time>
      </trkpt>
      <trkpt lat="49.828" lon="4.78478">
        <ele>309</ele>
        <time>2021-05-15T09:05:53.000Z</time>
      </trkpt>
      <trkpt lat="49.828" lon="4.78474">
        <ele>309</ele>
        <time>2021-05-15T09:05:54.000Z</time>
      </trkpt>
      <trkpt lat="49.82799" lon="4.7847">
        <ele>309</ele>
        <time>2021-05-15T09:05:55.000Z</time>
      </trkpt>
      <trkpt lat="49.82799" lon="4.78467">
        <ele>309</ele>
        <time>2021-05-15T09:05:56.000Z</time>
      </trkpt>
      <trkpt lat="49.82799" lon="4.78463">
        <ele>309</ele>
        <time>2021-05-15T09:05:57.000Z</time>
      </trkpt>
      <trkpt lat="49.82798" lon="4.7846">
        <ele>309</ele>
        <time>2021-05-15T09:05:58.000Z</time>
      </trkpt>
      <trkpt lat="49.82797" lon="4.78456">
        <ele>309</ele>
        <time>2021-05-15T09:05:59.000Z</time>
      </trkpt>
      <trkpt lat="49.82797" lon="4.78452">
        <ele>309</ele>
        <time>2021-05-15T09:06:00.000Z</time>
      </trkpt>
      <trkpt lat="49.82796" lon="4.78449">
        <ele>310</ele>
        <time>2021-05-15T09:06:01.000Z</time>
      </trkpt>
      <trkpt lat="49.82796" lon="4.78448">
        <ele>310</ele>
        <time>2021-05-15T09:06:02.000Z</time>
      </trkpt>
      <trkpt lat="49.82796" lon="4.78448">
        <ele>310</ele>
        <time>2021-05-15T09:06:03.000Z</time>
      </trkpt>
      <trkpt lat="49.82796" lon="4.78447">
        <ele>310</ele>
        <time>2021-05-15T09:06:04.000Z</time>
      </trkpt>
      <trkpt lat="49.82796" lon="4.78446">
        <ele>310</ele>
        <time>2021-05-15T09:06:05.000Z</time>
      </trkpt>
      <trkpt lat="49.82796" lon="4.78446">
        <ele>310</ele>
        <time>2021-05-15T09:06:06.000Z</time>
      </trkpt>
      <trkpt lat="49.82796" lon="4.78446">
        <ele>310</ele>
        <time>2021-05-15T09:06:07.000Z</time>
      </trkpt>
      <trkpt lat="49.82796" lon="4.78445">
        <ele>310</ele>
        <time>2021-05-15T09:06:08.000Z</time>
      </trkpt>
      <trkpt lat="49.82796" lon="4.78445">
        <ele>310</ele>
        <time>2021-05-15T09:06:09.000Z</time>
      </trkpt>
      <trkpt lat="49.82796" lon="4.78445">
        <ele>310</ele>
        <time>2021-05-15T09:06:10.000Z</time>
      </trkpt>
      <trkpt lat="49.82796" lon="4.78445">
        <ele>310</ele>
        <time>2021-05-15T09:06:11.000Z</time>
      </trkpt>
      <trkpt lat="49.82796" lon="4.78445">
        <ele>310</ele>
        <time>2021-05-15T09:06:12.000Z</time>
      </trkpt>
      <trkpt lat="49.82796" lon="4.78444">
        <ele>310</ele>
        <time>2021-05-15T09:06:13.000Z</time>
      </trkpt>
      <trkpt lat="49.82796" lon="4.78444">
        <ele>310</ele>
        <time>2021-05-15T09:06:14.000Z</time>
      </trkpt>
      <trkpt lat="49.82795" lon="4.78444">
        <ele>310</ele>
        <time>2021-05-15T09:06:15.000Z</time>
      </trkpt>
      <trkpt lat="49.82795" lon="4.78444">
        <ele>310</ele>
        <time>2021-05-15T09:06:16.000Z</time>
      </trkpt>
      <trkpt lat="49.82795" lon="4.78444">
        <ele>310</ele>
        <time>2021-05-15T09:06:17.000Z</time>
      </trkpt>
      <trkpt lat="49.82795" lon="4.78444">
        <ele>310</ele>
        <time>2021-05-15T09:06:18.000Z</time>
      </trkpt>
      <trkpt lat="49.82795" lon="4.78443">
        <ele>310</ele>
        <time>2021-05-15T09:06:19.000Z</time>
      </trkpt>
      <trkpt lat="49.82795" lon="4.78443">
        <ele>310</ele>
        <time>2021-05-15T09:06:20.000Z</time>
      </trkpt>
      <trkpt lat="49.82795" lon="4.78443">
        <ele>310</ele>
        <time>2021-05-15T09:06:21.000Z</time>
      </trkpt>
      <trkpt lat="49.82795" lon="4.78443">
        <ele>310</ele>
        <time>2021-05-15T09:06:22.000Z</time>
      </trkpt>
      <trkpt lat="49.82795" lon="4.78443">
        <ele>310</ele>
        <time>2021-05-15T09:06:23.000Z</time>
      </trkpt>
      <trkpt lat="49.82795" lon="4.78443">
        <ele>310</ele>
        <time>2021-05-15T09:06:24.000Z</time>
      </trkpt>
      <trkpt lat="49.82795" lon="4.78443">
        <ele>310</ele>
        <time>2021-05-15T09:06:25.000Z</time>
      </trkpt>
      <trkpt lat="49.82795" lon="4.78443">
        <ele>310</ele>
        <time>2021-05-15T09:06:26.000Z</time>
      </trkpt>
      <trkpt lat="49.82795" lon="4.78441">
        <ele>310</ele>
        <time>2021-05-15T09:06:27.000Z</time>
      </trkpt>
      <trkpt lat="49.82794" lon="4.78439">
        <ele>310</ele>
        <time>2021-05-15T09:06:28.000Z</time>
      </trkpt>
      <trkpt lat="49.82792" lon="4.78437">
        <ele>310</ele>
        <time>2021-05-15T09:06:29.000Z</time>
      </trkpt>
      <trkpt lat="49.82791" lon="4.78435">
        <ele>310</ele>
        <time>2021-05-15T09:06:30.000Z</time>
      </trkpt>
      <trkpt lat="49.82789" lon="4.78432">
        <ele>310</ele>
        <time>2021-05-15T09:06:31.000Z</time>
      </trkpt>
      <trkpt lat="49.82788" lon="4.78429">
        <ele>310</ele>
        <time>2021-05-15T09:06:32.000Z</time>
      </trkpt>
      <trkpt lat="49.82787" lon="4.78426">
        <ele>311</ele>
        <time>2021-05-15T09:06:33.000Z</time>
      </trkpt>
      <trkpt lat="49.82787" lon="4.78424">
        <ele>310</ele>
        <time>2021-05-15T09:06:34.000Z</time>
      </trkpt>
      <trkpt lat="49.82786" lon="4.78422">
        <ele>310</ele>
        <time>2021-05-15T09:06:35.000Z</time>
      </trkpt>
      <trkpt lat="49.82784" lon="4.7842">
        <ele>310</ele>
        <time>2021-05-15T09:06:36.000Z</time>
      </trkpt>
      <trkpt lat="49.82783" lon="4.78419">
        <ele>310</ele>
        <time>2021-05-15T09:06:37.000Z</time>
      </trkpt>
      <trkpt lat="49.82783" lon="4.78416">
        <ele>310</ele>
        <time>2021-05-15T09:06:38.000Z</time>
      </trkpt>
      <trkpt lat="49.82783" lon="4.78415">
        <ele>310</ele>
        <time>2021-05-15T09:06:39.000Z</time>
      </trkpt>
      <trkpt lat="49.82783" lon="4.78412">
        <ele>311</ele>
        <time>2021-05-15T09:06:40.000Z</time>
      </trkpt>
      <trkpt lat="49.82785" lon="4.78411">
        <ele>311</ele>
        <time>2021-05-15T09:06:41.000Z</time>
      </trkpt>
      <trkpt lat="49.82786" lon="4.78411">
        <ele>311</ele>
        <time>2021-05-15T09:06:42.000Z</time>
      </trkpt>
      <trkpt lat="49.82788" lon="4.78409">
        <ele>311</ele>
        <time>2021-05-15T09:06:43.000Z</time>
      </trkpt>
      <trkpt lat="49.82789" lon="4.78407">
        <ele>311</ele>
        <time>2021-05-15T09:06:44.000Z</time>
      </trkpt>
      <trkpt lat="49.82789" lon="4.78404">
        <ele>311</ele>
        <time>2021-05-15T09:06:45.000Z</time>
      </trkpt>
      <trkpt lat="49.82791" lon="4.78401">
        <ele>311</ele>
        <time>2021-05-15T09:06:46.000Z</time>
      </trkpt>
      <trkpt lat="49.82791" lon="4.78398">
        <ele>311</ele>
        <time>2021-05-15T09:06:47.000Z</time>
      </trkpt>
      <trkpt lat="49.82791" lon="4.78394">
        <ele>311</ele>
        <time>2021-05-15T09:06:48.000Z</time>
      </trkpt>
      <trkpt lat="49.82791" lon="4.7839">
        <ele>311</ele>
        <time>2021-05-15T09:06:49.000Z</time>
      </trkpt>
      <trkpt lat="49.82791" lon="4.78387">
        <ele>311</ele>
        <time>2021-05-15T09:06:50.000Z</time>
      </trkpt>
      <trkpt lat="49.82792" lon="4.78384">
        <ele>311</ele>
        <time>2021-05-15T09:06:51.000Z</time>
      </trkpt>
      <trkpt lat="49.82793" lon="4.78381">
        <ele>311</ele>
        <time>2021-05-15T09:06:52.000Z</time>
      </trkpt>
      <trkpt lat="49.82795" lon="4.78379">
        <ele>311</ele>
        <time>2021-05-15T09:06:53.000Z</time>
      </trkpt>
      <trkpt lat="49.82797" lon="4.78377">
        <ele>311</ele>
        <time>2021-05-15T09:06:54.000Z</time>
      </trkpt>
      <trkpt lat="49.828" lon="4.78375">
        <ele>311</ele>
        <time>2021-05-15T09:06:55.000Z</time>
      </trkpt>
      <trkpt lat="49.82803" lon="4.78375">
        <ele>311</ele>
        <time>2021-05-15T09:06:56.000Z</time>
      </trkpt>
      <trkpt lat="49.82805" lon="4.78374">
        <ele>311</ele>
        <time>2021-05-15T09:06:57.000Z</time>
      </trkpt>
      <trkpt lat="49.82809" lon="4.78374">
        <ele>311</ele>
        <time>2021-05-15T09:06:58.000Z</time>
      </trkpt>
      <trkpt lat="49.82812" lon="4.78375">
        <ele>311</ele>
        <time>2021-05-15T09:06:59.000Z</time>
      </trkpt>
      <trkpt lat="49.82816" lon="4.78373">
        <ele>311</ele>
        <time>2021-05-15T09:07:00.000Z</time>
      </trkpt>
      <trkpt lat="49.82819" lon="4.7837">
        <ele>311</ele>
        <time>2021-05-15T09:07:01.000Z</time>
      </trkpt>
      <trkpt lat="49.82823" lon="4.78365">
        <ele>311</ele>
        <time>2021-05-15T09:07:02.000Z</time>
      </trkpt>
      <trkpt lat="49.82826" lon="4.7836">
        <ele>310</ele>
        <time>2021-05-15T09:07:03.000Z</time>
      </trkpt>
      <trkpt lat="49.82828" lon="4.78353">
        <ele>310</ele>
        <time>2021-05-15T09:07:04.000Z</time>
      </trkpt>
      <trkpt lat="49.82831" lon="4.78346">
        <ele>310</ele>
        <time>2021-05-15T09:07:05.000Z</time>
      </trkpt>
      <trkpt lat="49.82834" lon="4.78339">
        <ele>309</ele>
        <time>2021-05-15T09:07:06.000Z</time>
      </trkpt>
      <trkpt lat="49.82837" lon="4.78331">
        <ele>309</ele>
        <time>2021-05-15T09:07:07.000Z</time>
      </trkpt>
      <trkpt lat="49.8284" lon="4.78323">
        <ele>309</ele>
        <time>2021-05-15T09:07:08.000Z</time>
      </trkpt>
      <trkpt lat="49.82842" lon="4.78316">
        <ele>308</ele>
        <time>2021-05-15T09:07:09.000Z</time>
      </trkpt>
      <trkpt lat="49.82844" lon="4.7831">
        <ele>308</ele>
        <time>2021-05-15T09:07:10.000Z</time>
      </trkpt>
      <trkpt lat="49.82846" lon="4.78307">
        <ele>308</ele>
        <time>2021-05-15T09:07:11.000Z</time>
      </trkpt>
      <trkpt lat="49.82846" lon="4.78305">
        <ele>308</ele>
        <time>2021-05-15T09:07:12.000Z</time>
      </trkpt>
      <trkpt lat="49.82848" lon="4.78305">
        <ele>308</ele>
        <time>2021-05-15T09:07:13.000Z</time>
      </trkpt>
      <trkpt lat="49.82848" lon="4.78305">
        <ele>308</ele>
        <time>2021-05-15T09:07:14.000Z</time>
      </trkpt>
      <trkpt lat="49.82849" lon="4.78304">
        <ele>308</ele>
        <time>2021-05-15T09:07:15.000Z</time>
      </trkpt>
      <trkpt lat="49.82849" lon="4.78302">
        <ele>307</ele>
        <time>2021-05-15T09:07:16.000Z</time>
      </trkpt>
      <trkpt lat="49.82851" lon="4.78298">
        <ele>307</ele>
        <time>2021-05-15T09:07:17.000Z</time>
      </trkpt>
      <trkpt lat="49.82854" lon="4.78294">
        <ele>307</ele>
        <time>2021-05-15T09:07:18.000Z</time>
      </trkpt>
      <trkpt lat="49.82857" lon="4.78289">
        <ele>307</ele>
        <time>2021-05-15T09:07:19.000Z</time>
      </trkpt>
      <trkpt lat="49.8286" lon="4.78282">
        <ele>307</ele>
        <time>2021-05-15T09:07:20.000Z</time>
      </trkpt>
      <trkpt lat="49.82864" lon="4.78273">
        <ele>307</ele>
        <time>2021-05-15T09:07:21.000Z</time>
      </trkpt>
      <trkpt lat="49.82868" lon="4.78263">
        <ele>306</ele>
        <time>2021-05-15T09:07:22.000Z</time>
      </trkpt>
      <trkpt lat="49.82872" lon="4.78252">
        <ele>306</ele>
        <time>2021-05-15T09:07:23.000Z</time>
      </trkpt>
      <trkpt lat="49.82877" lon="4.78241">
        <ele>306</ele>
        <time>2021-05-15T09:07:24.000Z</time>
      </trkpt>
      <trkpt lat="49.82882" lon="4.78229">
        <ele>306</ele>
        <time>2021-05-15T09:07:25.000Z</time>
      </trkpt>
      <trkpt lat="49.82886" lon="4.78217">
        <ele>306</ele>
        <time>2021-05-15T09:07:26.000Z</time>
      </trkpt>
      <trkpt lat="49.82891" lon="4.78205">
        <ele>306</ele>
        <time>2021-05-15T09:07:27.000Z</time>
      </trkpt>
      <trkpt lat="49.82896" lon="4.78194">
        <ele>306</ele>
        <time>2021-05-15T09:07:28.000Z</time>
      </trkpt>
      <trkpt lat="49.829" lon="4.78184">
        <ele>306</ele>
        <time>2021-05-15T09:07:29.000Z</time>
      </trkpt>
      <trkpt lat="49.82903" lon="4.78175">
        <ele>306</ele>
        <time>2021-05-15T09:07:30.000Z</time>
      </trkpt>
      <trkpt lat="49.82907" lon="4.78169">
        <ele>305</ele>
        <time>2021-05-15T09:07:31.000Z</time>
      </trkpt>
      <trkpt lat="49.82911" lon="4.78165">
        <ele>305</ele>
        <time>2021-05-15T09:07:32.000Z</time>
      </trkpt>
      <trkpt lat="49.82916" lon="4.78164">
        <ele>305</ele>
        <time>2021-05-15T09:07:33.000Z</time>
      </trkpt>
      <trkpt lat="49.82919" lon="4.78163">
        <ele>304</ele>
        <time>2021-05-15T09:07:34.000Z</time>
      </trkpt>
      <trkpt lat="49.82921" lon="4.78161">
        <ele>304</ele>
        <time>2021-05-15T09:07:35.000Z</time>
      </trkpt>
      <trkpt lat="49.82923" lon="4.78158">
        <ele>304</ele>
        <time>2021-05-15T09:07:36.000Z</time>
      </trkpt>
      <trkpt lat="49.82926" lon="4.78154">
        <ele>304</ele>
        <time>2021-05-15T09:07:37.000Z</time>
      </trkpt>
      <trkpt lat="49.82928" lon="4.7815">
        <ele>303</ele>
        <time>2021-05-15T09:07:38.000Z</time>
      </trkpt>
      <trkpt lat="49.82931" lon="4.78144">
        <ele>303</ele>
        <time>2021-05-15T09:07:39.000Z</time>
      </trkpt>
      <trkpt lat="49.82933" lon="4.78139">
        <ele>303</ele>
        <time>2021-05-15T09:07:40.000Z</time>
      </trkpt>
      <trkpt lat="49.82935" lon="4.78134">
        <ele>303</ele>
        <time>2021-05-15T09:07:41.000Z</time>
      </trkpt>
      <trkpt lat="49.82938" lon="4.78129">
        <ele>303</ele>
        <time>2021-05-15T09:07:42.000Z</time>
      </trkpt>
      <trkpt lat="49.8294" lon="4.78123">
        <ele>303</ele>
        <time>2021-05-15T09:07:43.000Z</time>
      </trkpt>
      <trkpt lat="49.82941" lon="4.78118">
        <ele>303</ele>
        <time>2021-05-15T09:07:44.000Z</time>
      </trkpt>
      <trkpt lat="49.82944" lon="4.78112">
        <ele>303</ele>
        <time>2021-05-15T09:07:45.000Z</time>
      </trkpt>
      <trkpt lat="49.82946" lon="4.78105">
        <ele>303</ele>
        <time>2021-05-15T09:07:46.000Z</time>
      </trkpt>
      <trkpt lat="49.82949" lon="4.78099">
        <ele>303</ele>
        <time>2021-05-15T09:07:47.000Z</time>
      </trkpt>
      <trkpt lat="49.82952" lon="4.78094">
        <ele>303</ele>
        <time>2021-05-15T09:07:48.000Z</time>
      </trkpt>
      <trkpt lat="49.82955" lon="4.78088">
        <ele>302</ele>
        <time>2021-05-15T09:07:49.000Z</time>
      </trkpt>
      <trkpt lat="49.82956" lon="4.78083">
        <ele>302</ele>
        <time>2021-05-15T09:07:50.000Z</time>
      </trkpt>
      <trkpt lat="49.82958" lon="4.78079">
        <ele>302</ele>
        <time>2021-05-15T09:07:51.000Z</time>
      </trkpt>
      <trkpt lat="49.8296" lon="4.78078">
        <ele>302</ele>
        <time>2021-05-15T09:07:52.000Z</time>
      </trkpt>
      <trkpt lat="49.82962" lon="4.7808">
        <ele>302</ele>
        <time>2021-05-15T09:07:53.000Z</time>
      </trkpt>
      <trkpt lat="49.82963" lon="4.78083">
        <ele>302</ele>
        <time>2021-05-15T09:07:54.000Z</time>
      </trkpt>
      <trkpt lat="49.82964" lon="4.78086">
        <ele>301</ele>
        <time>2021-05-15T09:07:55.000Z</time>
      </trkpt>
      <trkpt lat="49.82964" lon="4.7809">
        <ele>301</ele>
        <time>2021-05-15T09:07:56.000Z</time>
      </trkpt>
      <trkpt lat="49.82964" lon="4.78094">
        <ele>301</ele>
        <time>2021-05-15T09:07:57.000Z</time>
      </trkpt>
      <trkpt lat="49.82964" lon="4.78098">
        <ele>301</ele>
        <time>2021-05-15T09:07:58.000Z</time>
      </trkpt>
      <trkpt lat="49.82963" lon="4.78103">
        <ele>300</ele>
        <time>2021-05-15T09:07:59.000Z</time>
      </trkpt>
      <trkpt lat="49.82963" lon="4.78106">
        <ele>300</ele>
        <time>2021-05-15T09:08:00.000Z</time>
      </trkpt>
      <trkpt lat="49.82963" lon="4.78109">
        <ele>300</ele>
        <time>2021-05-15T09:08:01.000Z</time>
      </trkpt>
      <trkpt lat="49.82963" lon="4.78111">
        <ele>300</ele>
        <time>2021-05-15T09:08:02.000Z</time>
      </trkpt>
      <trkpt lat="49.82964" lon="4.78113">
        <ele>300</ele>
        <time>2021-05-15T09:08:03.000Z</time>
      </trkpt>
      <trkpt lat="49.82964" lon="4.78116">
        <ele>299</ele>
        <time>2021-05-15T09:08:04.000Z</time>
      </trkpt>
      <trkpt lat="49.82964" lon="4.7812">
        <ele>299</ele>
        <time>2021-05-15T09:08:05.000Z</time>
      </trkpt>
      <trkpt lat="49.82964" lon="4.78124">
        <ele>299</ele>
        <time>2021-05-15T09:08:06.000Z</time>
      </trkpt>
      <trkpt lat="49.82963" lon="4.78129">
        <ele>299</ele>
        <time>2021-05-15T09:08:07.000Z</time>
      </trkpt>
      <trkpt lat="49.82963" lon="4.78134">
        <ele>299</ele>
        <time>2021-05-15T09:08:08.000Z</time>
      </trkpt>
      <trkpt lat="49.82963" lon="4.78139">
        <ele>299</ele>
        <time>2021-05-15T09:08:09.000Z</time>
      </trkpt>
      <trkpt lat="49.82963" lon="4.78144">
        <ele>299</ele>
        <time>2021-05-15T09:08:10.000Z</time>
      </trkpt>
      <trkpt lat="49.82964" lon="4.78149">
        <ele>299</ele>
        <time>2021-05-15T09:08:11.000Z</time>
      </trkpt>
      <trkpt lat="49.82963" lon="4.78155">
        <ele>299</ele>
        <time>2021-05-15T09:08:12.000Z</time>
      </trkpt>
      <trkpt lat="49.82963" lon="4.78161">
        <ele>299</ele>
        <time>2021-05-15T09:08:13.000Z</time>
      </trkpt>
      <trkpt lat="49.82963" lon="4.78166">
        <ele>299</ele>
        <time>2021-05-15T09:08:14.000Z</time>
      </trkpt>
      <trkpt lat="49.82963" lon="4.78171">
        <ele>299</ele>
        <time>2021-05-15T09:08:15.000Z</time>
      </trkpt>
      <trkpt lat="49.82963" lon="4.78177">
        <ele>299</ele>
        <time>2021-05-15T09:08:16.000Z</time>
      </trkpt>
      <trkpt lat="49.82963" lon="4.78183">
        <ele>299</ele>
        <time>2021-05-15T09:08:17.000Z</time>
      </trkpt>
      <trkpt lat="49.82962" lon="4.78188">
        <ele>299</ele>
        <time>2021-05-15T09:08:18.000Z</time>
      </trkpt>
      <trkpt lat="49.82962" lon="4.78195">
        <ele>299</ele>
        <time>2021-05-15T09:08:19.000Z</time>
      </trkpt>
      <trkpt lat="49.82962" lon="4.782">
        <ele>299</ele>
        <time>2021-05-15T09:08:20.000Z</time>
      </trkpt>
      <trkpt lat="49.82962" lon="4.78206">
        <ele>299</ele>
        <time>2021-05-15T09:08:21.000Z</time>
      </trkpt>
      <trkpt lat="49.82962" lon="4.78212">
        <ele>299</ele>
        <time>2021-05-15T09:08:22.000Z</time>
      </trkpt>
      <trkpt lat="49.82963" lon="4.78218">
        <ele>300</ele>
        <time>2021-05-15T09:08:23.000Z</time>
      </trkpt>
      <trkpt lat="49.82964" lon="4.78225">
        <ele>300</ele>
        <time>2021-05-15T09:08:24.000Z</time>
      </trkpt>
      <trkpt lat="49.82964" lon="4.78231">
        <ele>300</ele>
        <time>2021-05-15T09:08:25.000Z</time>
      </trkpt>
      <trkpt lat="49.82965" lon="4.78238">
        <ele>300</ele>
        <time>2021-05-15T09:08:26.000Z</time>
      </trkpt>
      <trkpt lat="49.82965" lon="4.78244">
        <ele>300</ele>
        <time>2021-05-15T09:08:27.000Z</time>
      </trkpt>
      <trkpt lat="49.82966" lon="4.7825">
        <ele>300</ele>
        <time>2021-05-15T09:08:28.000Z</time>
      </trkpt>
      <trkpt lat="49.82967" lon="4.78256">
        <ele>300</ele>
        <time>2021-05-15T09:08:29.000Z</time>
      </trkpt>
      <trkpt lat="49.82967" lon="4.78263">
        <ele>300</ele>
        <time>2021-05-15T09:08:30.000Z</time>
      </trkpt>
      <trkpt lat="49.82967" lon="4.78269">
        <ele>300</ele>
        <time>2021-05-15T09:08:31.000Z</time>
      </trkpt>
      <trkpt lat="49.82967" lon="4.78276">
        <ele>300</ele>
        <time>2021-05-15T09:08:32.000Z</time>
      </trkpt>
      <trkpt lat="49.82968" lon="4.78284">
        <ele>300</ele>
        <time>2021-05-15T09:08:33.000Z</time>
      </trkpt>
      <trkpt lat="49.82968" lon="4.78291">
        <ele>300</ele>
        <time>2021-05-15T09:08:34.000Z</time>
      </trkpt>
      <trkpt lat="49.82969" lon="4.78299">
        <ele>300</ele>
        <time>2021-05-15T09:08:35.000Z</time>
      </trkpt>
      <trkpt lat="49.8297" lon="4.78306">
        <ele>300</ele>
        <time>2021-05-15T09:08:36.000Z</time>
      </trkpt>
      <trkpt lat="49.82971" lon="4.78312">
        <ele>300</ele>
        <time>2021-05-15T09:08:37.000Z</time>
      </trkpt>
      <trkpt lat="49.82972" lon="4.78319">
        <ele>300</ele>
        <time>2021-05-15T09:08:38.000Z</time>
      </trkpt>
      <trkpt lat="49.82973" lon="4.78326">
        <ele>301</ele>
        <time>2021-05-15T09:08:39.000Z</time>
      </trkpt>
      <trkpt lat="49.82973" lon="4.78333">
        <ele>301</ele>
        <time>2021-05-15T09:08:40.000Z</time>
      </trkpt>
      <trkpt lat="49.82973" lon="4.7834">
        <ele>301</ele>
        <time>2021-05-15T09:08:41.000Z</time>
      </trkpt>
      <trkpt lat="49.82974" lon="4.78347">
        <ele>301</ele>
        <time>2021-05-15T09:08:42.000Z</time>
      </trkpt>
      <trkpt lat="49.82974" lon="4.78354">
        <ele>301</ele>
        <time>2021-05-15T09:08:43.000Z</time>
      </trkpt>
      <trkpt lat="49.82974" lon="4.78361">
        <ele>301</ele>
        <time>2021-05-15T09:08:44.000Z</time>
      </trkpt>
      <trkpt lat="49.82975" lon="4.78369">
        <ele>301</ele>
        <time>2021-05-15T09:08:45.000Z</time>
      </trkpt>
      <trkpt lat="49.82976" lon="4.78377">
        <ele>301</ele>
        <time>2021-05-15T09:08:46.000Z</time>
      </trkpt>
      <trkpt lat="49.82977" lon="4.78385">
        <ele>301</ele>
        <time>2021-05-15T09:08:47.000Z</time>
      </trkpt>
      <trkpt lat="49.82979" lon="4.78393">
        <ele>301</ele>
        <time>2021-05-15T09:08:48.000Z</time>
      </trkpt>
      <trkpt lat="49.82979" lon="4.78402">
        <ele>301</ele>
        <time>2021-05-15T09:08:49.000Z</time>
      </trkpt>
      <trkpt lat="49.8298" lon="4.7841">
        <ele>301</ele>
        <time>2021-05-15T09:08:50.000Z</time>
      </trkpt>
      <trkpt lat="49.82981" lon="4.78418">
        <ele>301</ele>
        <time>2021-05-15T09:08:51.000Z</time>
      </trkpt>
      <trkpt lat="49.82982" lon="4.78425">
        <ele>301</ele>
        <time>2021-05-15T09:08:52.000Z</time>
      </trkpt>
      <trkpt lat="49.82983" lon="4.78432">
        <ele>301</ele>
        <time>2021-05-15T09:08:53.000Z</time>
      </trkpt>
      <trkpt lat="49.82985" lon="4.7844">
        <ele>302</ele>
        <time>2021-05-15T09:08:54.000Z</time>
      </trkpt>
      <trkpt lat="49.82987" lon="4.78448">
        <ele>302</ele>
        <time>2021-05-15T09:08:55.000Z</time>
      </trkpt>
      <trkpt lat="49.82989" lon="4.78456">
        <ele>302</ele>
        <time>2021-05-15T09:08:56.000Z</time>
      </trkpt>
      <trkpt lat="49.8299" lon="4.78463">
        <ele>301</ele>
        <time>2021-05-15T09:08:57.000Z</time>
      </trkpt>
      <trkpt lat="49.82993" lon="4.78471">
        <ele>301</ele>
        <time>2021-05-15T09:08:58.000Z</time>
      </trkpt>
      <trkpt lat="49.82995" lon="4.78477">
        <ele>301</ele>
        <time>2021-05-15T09:08:59.000Z</time>
      </trkpt>
      <trkpt lat="49.82998" lon="4.78484">
        <ele>301</ele>
        <time>2021-05-15T09:09:00.000Z</time>
      </trkpt>
      <trkpt lat="49.83002" lon="4.78491">
        <ele>301</ele>
        <time>2021-05-15T09:09:01.000Z</time>
      </trkpt>
      <trkpt lat="49.83006" lon="4.78498">
        <ele>301</ele>
        <time>2021-05-15T09:09:02.000Z</time>
      </trkpt>
      <trkpt lat="49.83009" lon="4.78506">
        <ele>301</ele>
        <time>2021-05-15T09:09:03.000Z</time>
      </trkpt>
      <trkpt lat="49.83012" lon="4.78513">
        <ele>301</ele>
        <time>2021-05-15T09:09:04.000Z</time>
      </trkpt>
      <trkpt lat="49.83016" lon="4.78519">
        <ele>301</ele>
        <time>2021-05-15T09:09:05.000Z</time>
      </trkpt>
      <trkpt lat="49.83019" lon="4.78524">
        <ele>301</ele>
        <time>2021-05-15T09:09:06.000Z</time>
      </trkpt>
      <trkpt lat="49.83022" lon="4.7853">
        <ele>300</ele>
        <time>2021-05-15T09:09:07.000Z</time>
      </trkpt>
      <trkpt lat="49.83026" lon="4.78536">
        <ele>300</ele>
        <time>2021-05-15T09:09:08.000Z</time>
      </trkpt>
      <trkpt lat="49.83029" lon="4.78541">
        <ele>300</ele>
        <time>2021-05-15T09:09:09.000Z</time>
      </trkpt>
      <trkpt lat="49.83033" lon="4.78548">
        <ele>300</ele>
        <time>2021-05-15T09:09:10.000Z</time>
      </trkpt>
      <trkpt lat="49.83037" lon="4.78554">
        <ele>300</ele>
        <time>2021-05-15T09:09:11.000Z</time>
      </trkpt>
      <trkpt lat="49.8304" lon="4.78561">
        <ele>300</ele>
        <time>2021-05-15T09:09:12.000Z</time>
      </trkpt>
      <trkpt lat="49.83044" lon="4.78567">
        <ele>300</ele>
        <time>2021-05-15T09:09:13.000Z</time>
      </trkpt>
      <trkpt lat="49.83047" lon="4.78573">
        <ele>299</ele>
        <time>2021-05-15T09:09:14.000Z</time>
      </trkpt>
      <trkpt lat="49.83051" lon="4.78578">
        <ele>299</ele>
        <time>2021-05-15T09:09:15.000Z</time>
      </trkpt>
      <trkpt lat="49.83055" lon="4.78583">
        <ele>299</ele>
        <time>2021-05-15T09:09:16.000Z</time>
      </trkpt>
      <trkpt lat="49.83059" lon="4.78588">
        <ele>299</ele>
        <time>2021-05-15T09:09:17.000Z</time>
      </trkpt>
      <trkpt lat="49.83063" lon="4.78592">
        <ele>299</ele>
        <time>2021-05-15T09:09:18.000Z</time>
      </trkpt>
      <trkpt lat="49.83068" lon="4.78596">
        <ele>299</ele>
        <time>2021-05-15T09:09:19.000Z</time>
      </trkpt>
      <trkpt lat="49.83072" lon="4.78601">
        <ele>299</ele>
        <time>2021-05-15T09:09:20.000Z</time>
      </trkpt>
      <trkpt lat="49.83077" lon="4.78605">
        <ele>298</ele>
        <time>2021-05-15T09:09:21.000Z</time>
      </trkpt>
      <trkpt lat="49.83083" lon="4.78608">
        <ele>298</ele>
        <time>2021-05-15T09:09:22.000Z</time>
      </trkpt>
      <trkpt lat="49.83088" lon="4.78612">
        <ele>298</ele>
        <time>2021-05-15T09:09:23.000Z</time>
      </trkpt>
      <trkpt lat="49.83093" lon="4.78616">
        <ele>298</ele>
        <time>2021-05-15T09:09:24.000Z</time>
      </trkpt>
      <trkpt lat="49.83099" lon="4.7862">
        <ele>298</ele>
        <time>2021-05-15T09:09:25.000Z</time>
      </trkpt>
      <trkpt lat="49.83104" lon="4.78623">
        <ele>298</ele>
        <time>2021-05-15T09:09:26.000Z</time>
      </trkpt>
      <trkpt lat="49.83109" lon="4.78627">
        <ele>298</ele>
        <time>2021-05-15T09:09:27.000Z</time>
      </trkpt>
      <trkpt lat="49.83113" lon="4.7863">
        <ele>298</ele>
        <time>2021-05-15T09:09:28.000Z</time>
      </trkpt>
      <trkpt lat="49.83117" lon="4.78632">
        <ele>298</ele>
        <time>2021-05-15T09:09:29.000Z</time>
      </trkpt>
      <trkpt lat="49.83122" lon="4.78634">
        <ele>298</ele>
        <time>2021-05-15T09:09:30.000Z</time>
      </trkpt>
      <trkpt lat="49.83127" lon="4.78636">
        <ele>298</ele>
        <time>2021-05-15T09:09:31.000Z</time>
      </trkpt>
      <trkpt lat="49.83132" lon="4.78638">
        <ele>298</ele>
        <time>2021-05-15T09:09:32.000Z</time>
      </trkpt>
      <trkpt lat="49.83137" lon="4.7864">
        <ele>298</ele>
        <time>2021-05-15T09:09:33.000Z</time>
      </trkpt>
      <trkpt lat="49.83142" lon="4.78643">
        <ele>297</ele>
        <time>2021-05-15T09:09:34.000Z</time>
      </trkpt>
      <trkpt lat="49.83148" lon="4.78644">
        <ele>297</ele>
        <time>2021-05-15T09:09:35.000Z</time>
      </trkpt>
      <trkpt lat="49.83154" lon="4.78647">
        <ele>297</ele>
        <time>2021-05-15T09:09:36.000Z</time>
      </trkpt>
      <trkpt lat="49.8316" lon="4.78649">
        <ele>297</ele>
        <time>2021-05-15T09:09:37.000Z</time>
      </trkpt>
      <trkpt lat="49.83165" lon="4.78651">
        <ele>297</ele>
        <time>2021-05-15T09:09:38.000Z</time>
      </trkpt>
      <trkpt lat="49.83171" lon="4.78655">
        <ele>297</ele>
        <time>2021-05-15T09:09:39.000Z</time>
      </trkpt>
      <trkpt lat="49.83178" lon="4.78658">
        <ele>297</ele>
        <time>2021-05-15T09:09:40.000Z</time>
      </trkpt>
      <trkpt lat="49.83185" lon="4.78661">
        <ele>297</ele>
        <time>2021-05-15T09:09:41.000Z</time>
      </trkpt>
      <trkpt lat="49.83192" lon="4.78665">
        <ele>297</ele>
        <time>2021-05-15T09:09:42.000Z</time>
      </trkpt>
      <trkpt lat="49.83198" lon="4.78668">
        <ele>297</ele>
        <time>2021-05-15T09:09:43.000Z</time>
      </trkpt>
      <trkpt lat="49.83205" lon="4.78671">
        <ele>296</ele>
        <time>2021-05-15T09:09:44.000Z</time>
      </trkpt>
      <trkpt lat="49.83212" lon="4.78673">
        <ele>296</ele>
        <time>2021-05-15T09:09:45.000Z</time>
      </trkpt>
      <trkpt lat="49.83219" lon="4.78675">
        <ele>296</ele>
        <time>2021-05-15T09:09:46.000Z</time>
      </trkpt>
      <trkpt lat="49.83226" lon="4.78677">
        <ele>296</ele>
        <time>2021-05-15T09:09:47.000Z</time>
      </trkpt>
      <trkpt lat="49.83234" lon="4.7868">
        <ele>296</ele>
        <time>2021-05-15T09:09:48.000Z</time>
      </trkpt>
      <trkpt lat="49.83241" lon="4.78683">
        <ele>295</ele>
        <time>2021-05-15T09:09:49.000Z</time>
      </trkpt>
      <trkpt lat="49.8325" lon="4.78687">
        <ele>295</ele>
        <time>2021-05-15T09:09:50.000Z</time>
      </trkpt>
      <trkpt lat="49.83258" lon="4.78693">
        <ele>295</ele>
        <time>2021-05-15T09:09:51.000Z</time>
      </trkpt>
      <trkpt lat="49.83266" lon="4.78697">
        <ele>295</ele>
        <time>2021-05-15T09:09:52.000Z</time>
      </trkpt>
      <trkpt lat="49.83274" lon="4.787">
        <ele>295</ele>
        <time>2021-05-15T09:09:53.000Z</time>
      </trkpt>
      <trkpt lat="49.83282" lon="4.78704">
        <ele>295</ele>
        <time>2021-05-15T09:09:54.000Z</time>
      </trkpt>
      <trkpt lat="49.83291" lon="4.78707">
        <ele>294</ele>
        <time>2021-05-15T09:09:55.000Z</time>
      </trkpt>
      <trkpt lat="49.83299" lon="4.78711">
        <ele>294</ele>
        <time>2021-05-15T09:09:56.000Z</time>
      </trkpt>
      <trkpt lat="49.83307" lon="4.78715">
        <ele>294</ele>
        <time>2021-05-15T09:09:57.000Z</time>
      </trkpt>
      <trkpt lat="49.83315" lon="4.78721">
        <ele>294</ele>
        <time>2021-05-15T09:09:58.000Z</time>
      </trkpt>
      <trkpt lat="49.83322" lon="4.78726">
        <ele>294</ele>
        <time>2021-05-15T09:09:59.000Z</time>
      </trkpt>
      <trkpt lat="49.83328" lon="4.78731">
        <ele>293</ele>
        <time>2021-05-15T09:10:00.000Z</time>
      </trkpt>
      <trkpt lat="49.83334" lon="4.78737">
        <ele>293</ele>
        <time>2021-05-15T09:10:01.000Z</time>
      </trkpt>
      <trkpt lat="49.8334" lon="4.78743">
        <ele>293</ele>
        <time>2021-05-15T09:10:02.000Z</time>
      </trkpt>
      <trkpt lat="49.83345" lon="4.78748">
        <ele>293</ele>
        <time>2021-05-15T09:10:03.000Z</time>
      </trkpt>
      <trkpt lat="49.83351" lon="4.78752">
        <ele>293</ele>
        <time>2021-05-15T09:10:04.000Z</time>
      </trkpt>
      <trkpt lat="49.83356" lon="4.78756">
        <ele>292</ele>
        <time>2021-05-15T09:10:05.000Z</time>
      </trkpt>
      <trkpt lat="49.83361" lon="4.78758">
        <ele>292</ele>
        <time>2021-05-15T09:10:06.000Z</time>
      </trkpt>
      <trkpt lat="49.83365" lon="4.7876">
        <ele>292</ele>
        <time>2021-05-15T09:10:07.000Z</time>
      </trkpt>
      <trkpt lat="49.8337" lon="4.78762">
        <ele>292</ele>
        <time>2021-05-15T09:10:08.000Z</time>
      </trkpt>
      <trkpt lat="49.83374" lon="4.78762">
        <ele>292</ele>
        <time>2021-05-15T09:10:09.000Z</time>
      </trkpt>
      <trkpt lat="49.83378" lon="4.78763">
        <ele>292</ele>
        <time>2021-05-15T09:10:10.000Z</time>
      </trkpt>
      <trkpt lat="49.83383" lon="4.78763">
        <ele>292</ele>
        <time>2021-05-15T09:10:11.000Z</time>
      </trkpt>
      <trkpt lat="49.83387" lon="4.78764">
        <ele>292</ele>
        <time>2021-05-15T09:10:12.000Z</time>
      </trkpt>
      <trkpt lat="49.8339" lon="4.78766">
        <ele>292</ele>
        <time>2021-05-15T09:10:13.000Z</time>
      </trkpt>
      <trkpt lat="49.83394" lon="4.78767">
        <ele>292</ele>
        <time>2021-05-15T09:10:14.000Z</time>
      </trkpt>
      <trkpt lat="49.83398" lon="4.78769">
        <ele>292</ele>
        <time>2021-05-15T09:10:15.000Z</time>
      </trkpt>
      <trkpt lat="49.83403" lon="4.78771">
        <ele>292</ele>
        <time>2021-05-15T09:10:16.000Z</time>
      </trkpt>
      <trkpt lat="49.83408" lon="4.78772">
        <ele>292</ele>
        <time>2021-05-15T09:10:17.000Z</time>
      </trkpt>
      <trkpt lat="49.83412" lon="4.78773">
        <ele>292</ele>
        <time>2021-05-15T09:10:18.000Z</time>
      </trkpt>
      <trkpt lat="49.83416" lon="4.78775">
        <ele>292</ele>
        <time>2021-05-15T09:10:19.000Z</time>
      </trkpt>
      <trkpt lat="49.83421" lon="4.78776">
        <ele>292</ele>
        <time>2021-05-15T09:10:20.000Z</time>
      </trkpt>
      <trkpt lat="49.83425" lon="4.78777">
        <ele>292</ele>
        <time>2021-05-15T09:10:21.000Z</time>
      </trkpt>
      <trkpt lat="49.83429" lon="4.78779">
        <ele>292</ele>
        <time>2021-05-15T09:10:22.000Z</time>
      </trkpt>
      <trkpt lat="49.83434" lon="4.7878">
        <ele>292</ele>
        <time>2021-05-15T09:10:23.000Z</time>
      </trkpt>
      <trkpt lat="49.83438" lon="4.78781">
        <ele>292</ele>
        <time>2021-05-15T09:10:24.000Z</time>
      </trkpt>
      <trkpt lat="49.83442" lon="4.78781">
        <ele>292</ele>
        <time>2021-05-15T09:10:25.000Z</time>
      </trkpt>
      <trkpt lat="49.83446" lon="4.78781">
        <ele>292</ele>
        <time>2021-05-15T09:10:26.000Z</time>
      </trkpt>
      <trkpt lat="49.8345" lon="4.78781">
        <ele>292</ele>
        <time>2021-05-15T09:10:27.000Z</time>
      </trkpt>
      <trkpt lat="49.83454" lon="4.78781">
        <ele>292</ele>
        <time>2021-05-15T09:10:28.000Z</time>
      </trkpt>
      <trkpt lat="49.83458" lon="4.78781">
        <ele>292</ele>
        <time>2021-05-15T09:10:29.000Z</time>
      </trkpt>
      <trkpt lat="49.83461" lon="4.78781">
        <ele>292</ele>
        <time>2021-05-15T09:10:30.000Z</time>
      </trkpt>
      <trkpt lat="49.83464" lon="4.78782">
        <ele>292</ele>
        <time>2021-05-15T09:10:31.000Z</time>
      </trkpt>
      <trkpt lat="49.83466" lon="4.78784">
        <ele>292</ele>
        <time>2021-05-15T09:10:32.000Z</time>
      </trkpt>
      <trkpt lat="49.83468" lon="4.78783">
        <ele>292</ele>
        <time>2021-05-15T09:10:33.000Z</time>
      </trkpt>
      <trkpt lat="49.8347" lon="4.78782">
        <ele>292</ele>
        <time>2021-05-15T09:10:34.000Z</time>
      </trkpt>
      <trkpt lat="49.83473" lon="4.7878">
        <ele>292</ele>
        <time>2021-05-15T09:10:35.000Z</time>
      </trkpt>
      <trkpt lat="49.83476" lon="4.78778">
        <ele>292</ele>
        <time>2021-05-15T09:10:36.000Z</time>
      </trkpt>
      <trkpt lat="49.83479" lon="4.78778">
        <ele>292</ele>
        <time>2021-05-15T09:10:37.000Z</time>
      </trkpt>
      <trkpt lat="49.83483" lon="4.78778">
        <ele>292</ele>
        <time>2021-05-15T09:10:38.000Z</time>
      </trkpt>
      <trkpt lat="49.83486" lon="4.7878">
        <ele>292</ele>
        <time>2021-05-15T09:10:39.000Z</time>
      </trkpt>
      <trkpt lat="49.83488" lon="4.78782">
        <ele>292</ele>
        <time>2021-05-15T09:10:40.000Z</time>
      </trkpt>
      <trkpt lat="49.83491" lon="4.78785">
        <ele>293</ele>
        <time>2021-05-15T09:10:41.000Z</time>
      </trkpt>
      <trkpt lat="49.83494" lon="4.78786">
        <ele>293</ele>
        <time>2021-05-15T09:10:42.000Z</time>
      </trkpt>
      <trkpt lat="49.83497" lon="4.78788">
        <ele>293</ele>
        <time>2021-05-15T09:10:43.000Z</time>
      </trkpt>
      <trkpt lat="49.835" lon="4.7879">
        <ele>293</ele>
        <time>2021-05-15T09:10:44.000Z</time>
      </trkpt>
      <trkpt lat="49.83501" lon="4.78793">
        <ele>293</ele>
        <time>2021-05-15T09:10:45.000Z</time>
      </trkpt>
      <trkpt lat="49.83501" lon="4.78796">
        <ele>293</ele>
        <time>2021-05-15T09:10:46.000Z</time>
      </trkpt>
      <trkpt lat="49.835" lon="4.78799">
        <ele>293</ele>
        <time>2021-05-15T09:10:47.000Z</time>
      </trkpt>
      <trkpt lat="49.83499" lon="4.78803">
        <ele>293</ele>
        <time>2021-05-15T09:10:48.000Z</time>
      </trkpt>
      <trkpt lat="49.83497" lon="4.78807">
        <ele>294</ele>
        <time>2021-05-15T09:10:49.000Z</time>
      </trkpt>
      <trkpt lat="49.83496" lon="4.7881">
        <ele>294</ele>
        <time>2021-05-15T09:10:50.000Z</time>
      </trkpt>
      <trkpt lat="49.83494" lon="4.78812">
        <ele>294</ele>
        <time>2021-05-15T09:10:51.000Z</time>
      </trkpt>
      <trkpt lat="49.83491" lon="4.78814">
        <ele>294</ele>
        <time>2021-05-15T09:10:52.000Z</time>
      </trkpt>
      <trkpt lat="49.83488" lon="4.78815">
        <ele>294</ele>
        <time>2021-05-15T09:10:53.000Z</time>
      </trkpt>
      <trkpt lat="49.83485" lon="4.78817">
        <ele>294</ele>
        <time>2021-05-15T09:10:54.000Z</time>
      </trkpt>
      <trkpt lat="49.83482" lon="4.78818">
        <ele>294</ele>
        <time>2021-05-15T09:10:55.000Z</time>
      </trkpt>
      <trkpt lat="49.83479" lon="4.78821">
        <ele>294</ele>
        <time>2021-05-15T09:10:56.000Z</time>
      </trkpt>
      <trkpt lat="49.83478" lon="4.78826">
        <ele>294</ele>
        <time>2021-05-15T09:10:57.000Z</time>
      </trkpt>
      <trkpt lat="49.83477" lon="4.78832">
        <ele>295</ele>
        <time>2021-05-15T09:10:58.000Z</time>
      </trkpt>
      <trkpt lat="49.83477" lon="4.78836">
        <ele>295</ele>
        <time>2021-05-15T09:10:59.000Z</time>
      </trkpt>
      <trkpt lat="49.83479" lon="4.78841">
        <ele>295</ele>
        <time>2021-05-15T09:11:00.000Z</time>
      </trkpt>
      <trkpt lat="49.83481" lon="4.78844">
        <ele>295</ele>
        <time>2021-05-15T09:11:01.000Z</time>
      </trkpt>
      <trkpt lat="49.83484" lon="4.78847">
        <ele>295</ele>
        <time>2021-05-15T09:11:02.000Z</time>
      </trkpt>
      <trkpt lat="49.83487" lon="4.7885">
        <ele>295</ele>
        <time>2021-05-15T09:11:03.000Z</time>
      </trkpt>
      <trkpt lat="49.83491" lon="4.78852">
        <ele>295</ele>
        <time>2021-05-15T09:11:04.000Z</time>
      </trkpt>
      <trkpt lat="49.83495" lon="4.78855">
        <ele>295</ele>
        <time>2021-05-15T09:11:05.000Z</time>
      </trkpt>
      <trkpt lat="49.83499" lon="4.78857">
        <ele>295</ele>
        <time>2021-05-15T09:11:06.000Z</time>
      </trkpt>
      <trkpt lat="49.83502" lon="4.7886">
        <ele>295</ele>
        <time>2021-05-15T09:11:07.000Z</time>
      </trkpt>
      <trkpt lat="49.83506" lon="4.78863">
        <ele>295</ele>
        <time>2021-05-15T09:11:08.000Z</time>
      </trkpt>
      <trkpt lat="49.83509" lon="4.78866">
        <ele>295</ele>
        <time>2021-05-15T09:11:09.000Z</time>
      </trkpt>
      <trkpt lat="49.83512" lon="4.78869">
        <ele>295</ele>
        <time>2021-05-15T09:11:10.000Z</time>
      </trkpt>
      <trkpt lat="49.83516" lon="4.78871">
        <ele>295</ele>
        <time>2021-05-15T09:11:11.000Z</time>
      </trkpt>
      <trkpt lat="49.83519" lon="4.78875">
        <ele>295</ele>
        <time>2021-05-15T09:11:12.000Z</time>
      </trkpt>
      <trkpt lat="49.83524" lon="4.78878">
        <ele>295</ele>
        <time>2021-05-15T09:11:13.000Z</time>
      </trkpt>
      <trkpt lat="49.83527" lon="4.78882">
        <ele>295</ele>
        <time>2021-05-15T09:11:14.000Z</time>
      </trkpt>
      <trkpt lat="49.83531" lon="4.78886">
        <ele>295</ele>
        <time>2021-05-15T09:11:15.000Z</time>
      </trkpt>
      <trkpt lat="49.83536" lon="4.7889">
        <ele>295</ele>
        <time>2021-05-15T09:11:16.000Z</time>
      </trkpt>
      <trkpt lat="49.83541" lon="4.78894">
        <ele>295</ele>
        <time>2021-05-15T09:11:17.000Z</time>
      </trkpt>
      <trkpt lat="49.83545" lon="4.78898">
        <ele>295</ele>
        <time>2021-05-15T09:11:18.000Z</time>
      </trkpt>
      <trkpt lat="49.8355" lon="4.78902">
        <ele>295</ele>
        <time>2021-05-15T09:11:19.000Z</time>
      </trkpt>
      <trkpt lat="49.83555" lon="4.78906">
        <ele>295</ele>
        <time>2021-05-15T09:11:20.000Z</time>
      </trkpt>
      <trkpt lat="49.83559" lon="4.78909">
        <ele>295</ele>
        <time>2021-05-15T09:11:21.000Z</time>
      </trkpt>
      <trkpt lat="49.83564" lon="4.78911">
        <ele>295</ele>
        <time>2021-05-15T09:11:22.000Z</time>
      </trkpt>
      <trkpt lat="49.83569" lon="4.78912">
        <ele>295</ele>
        <time>2021-05-15T09:11:23.000Z</time>
      </trkpt>
      <trkpt lat="49.83575" lon="4.78912">
        <ele>295</ele>
        <time>2021-05-15T09:11:24.000Z</time>
      </trkpt>
      <trkpt lat="49.8358" lon="4.78912">
        <ele>295</ele>
        <time>2021-05-15T09:11:25.000Z</time>
      </trkpt>
      <trkpt lat="49.83585" lon="4.78911">
        <ele>294</ele>
        <time>2021-05-15T09:11:26.000Z</time>
      </trkpt>
      <trkpt lat="49.83591" lon="4.78912">
        <ele>294</ele>
        <time>2021-05-15T09:11:27.000Z</time>
      </trkpt>
      <trkpt lat="49.83596" lon="4.78912">
        <ele>294</ele>
        <time>2021-05-15T09:11:28.000Z</time>
      </trkpt>
      <trkpt lat="49.83601" lon="4.78912">
        <ele>294</ele>
        <time>2021-05-15T09:11:29.000Z</time>
      </trkpt>
      <trkpt lat="49.83607" lon="4.78913">
        <ele>294</ele>
        <time>2021-05-15T09:11:30.000Z</time>
      </trkpt>
      <trkpt lat="49.83611" lon="4.78913">
        <ele>294</ele>
        <time>2021-05-15T09:11:31.000Z</time>
      </trkpt>
      <trkpt lat="49.83616" lon="4.78913">
        <ele>294</ele>
        <time>2021-05-15T09:11:32.000Z</time>
      </trkpt>
      <trkpt lat="49.8362" lon="4.78914">
        <ele>294</ele>
        <time>2021-05-15T09:11:33.000Z</time>
      </trkpt>
      <trkpt lat="49.83625" lon="4.78915">
        <ele>294</ele>
        <time>2021-05-15T09:11:34.000Z</time>
      </trkpt>
      <trkpt lat="49.8363" lon="4.78917">
        <ele>294</ele>
        <time>2021-05-15T09:11:35.000Z</time>
      </trkpt>
      <trkpt lat="49.83634" lon="4.78918">
        <ele>294</ele>
        <time>2021-05-15T09:11:36.000Z</time>
      </trkpt>
      <trkpt lat="49.83639" lon="4.78919">
        <ele>293</ele>
        <time>2021-05-15T09:11:37.000Z</time>
      </trkpt>
      <trkpt lat="49.83645" lon="4.7892">
        <ele>293</ele>
        <time>2021-05-15T09:11:38.000Z</time>
      </trkpt>
      <trkpt lat="49.8365" lon="4.78922">
        <ele>293</ele>
        <time>2021-05-15T09:11:39.000Z</time>
      </trkpt>
      <trkpt lat="49.83655" lon="4.78923">
        <ele>293</ele>
        <time>2021-05-15T09:11:40.000Z</time>
      </trkpt>
      <trkpt lat="49.8366" lon="4.78925">
        <ele>293</ele>
        <time>2021-05-15T09:11:41.000Z</time>
      </trkpt>
      <trkpt lat="49.83666" lon="4.78927">
        <ele>293</ele>
        <time>2021-05-15T09:11:42.000Z</time>
      </trkpt>
      <trkpt lat="49.83671" lon="4.78928">
        <ele>293</ele>
        <time>2021-05-15T09:11:43.000Z</time>
      </trkpt>
      <trkpt lat="49.83677" lon="4.7893">
        <ele>293</ele>
        <time>2021-05-15T09:11:44.000Z</time>
      </trkpt>
      <trkpt lat="49.83683" lon="4.78931">
        <ele>293</ele>
        <time>2021-05-15T09:11:45.000Z</time>
      </trkpt>
      <trkpt lat="49.83688" lon="4.78933">
        <ele>293</ele>
        <time>2021-05-15T09:11:46.000Z</time>
      </trkpt>
      <trkpt lat="49.83693" lon="4.78935">
        <ele>293</ele>
        <time>2021-05-15T09:11:47.000Z</time>
      </trkpt>
      <trkpt lat="49.83698" lon="4.78937">
        <ele>293</ele>
        <time>2021-05-15T09:11:48.000Z</time>
      </trkpt>
      <trkpt lat="49.83703" lon="4.78939">
        <ele>293</ele>
        <time>2021-05-15T09:11:49.000Z</time>
      </trkpt>
      <trkpt lat="49.83708" lon="4.78942">
        <ele>293</ele>
        <time>2021-05-15T09:11:50.000Z</time>
      </trkpt>
      <trkpt lat="49.83713" lon="4.78946">
        <ele>293</ele>
        <time>2021-05-15T09:11:51.000Z</time>
      </trkpt>
      <trkpt lat="49.83718" lon="4.7895">
        <ele>293</ele>
        <time>2021-05-15T09:11:52.000Z</time>
      </trkpt>
      <trkpt lat="49.83723" lon="4.78954">
        <ele>293</ele>
        <time>2021-05-15T09:11:53.000Z</time>
      </trkpt>
      <trkpt lat="49.83729" lon="4.78959">
        <ele>292</ele>
        <time>2021-05-15T09:11:54.000Z</time>
      </trkpt>
      <trkpt lat="49.83734" lon="4.78965">
        <ele>292</ele>
        <time>2021-05-15T09:11:55.000Z</time>
      </trkpt>
      <trkpt lat="49.83739" lon="4.78972">
        <ele>292</ele>
        <time>2021-05-15T09:11:56.000Z</time>
      </trkpt>
      <trkpt lat="49.83745" lon="4.78977">
        <ele>292</ele>
        <time>2021-05-15T09:11:57.000Z</time>
      </trkpt>
      <trkpt lat="49.8375" lon="4.78983">
        <ele>292</ele>
        <time>2021-05-15T09:11:58.000Z</time>
      </trkpt>
      <trkpt lat="49.83755" lon="4.78988">
        <ele>291</ele>
        <time>2021-05-15T09:11:59.000Z</time>
      </trkpt>
      <trkpt lat="49.8376" lon="4.78993">
        <ele>291</ele>
        <time>2021-05-15T09:12:00.000Z</time>
      </trkpt>
      <trkpt lat="49.83764" lon="4.78998">
        <ele>291</ele>
        <time>2021-05-15T09:12:01.000Z</time>
      </trkpt>
      <trkpt lat="49.83768" lon="4.79003">
        <ele>291</ele>
        <time>2021-05-15T09:12:02.000Z</time>
      </trkpt>
      <trkpt lat="49.83772" lon="4.79008">
        <ele>291</ele>
        <time>2021-05-15T09:12:03.000Z</time>
      </trkpt>
      <trkpt lat="49.83775" lon="4.79012">
        <ele>290</ele>
        <time>2021-05-15T09:12:04.000Z</time>
      </trkpt>
      <trkpt lat="49.83779" lon="4.79016">
        <ele>290</ele>
        <time>2021-05-15T09:12:05.000Z</time>
      </trkpt>
      <trkpt lat="49.83782" lon="4.79021">
        <ele>290</ele>
        <time>2021-05-15T09:12:06.000Z</time>
      </trkpt>
      <trkpt lat="49.83786" lon="4.79025">
        <ele>290</ele>
        <time>2021-05-15T09:12:07.000Z</time>
      </trkpt>
      <trkpt lat="49.8379" lon="4.7903">
        <ele>290</ele>
        <time>2021-05-15T09:12:08.000Z</time>
      </trkpt>
      <trkpt lat="49.83793" lon="4.79035">
        <ele>290</ele>
        <time>2021-05-15T09:12:09.000Z</time>
      </trkpt>
      <trkpt lat="49.83796" lon="4.7904">
        <ele>290</ele>
        <time>2021-05-15T09:12:10.000Z</time>
      </trkpt>
      <trkpt lat="49.838" lon="4.79044">
        <ele>289</ele>
        <time>2021-05-15T09:12:11.000Z</time>
      </trkpt>
      <trkpt lat="49.83803" lon="4.79049">
        <ele>289</ele>
        <time>2021-05-15T09:12:12.000Z</time>
      </trkpt>
      <trkpt lat="49.83806" lon="4.79053">
        <ele>289</ele>
        <time>2021-05-15T09:12:13.000Z</time>
      </trkpt>
      <trkpt lat="49.83809" lon="4.79057">
        <ele>289</ele>
        <time>2021-05-15T09:12:14.000Z</time>
      </trkpt>
      <trkpt lat="49.83811" lon="4.7906">
        <ele>289</ele>
        <time>2021-05-15T09:12:15.000Z</time>
      </trkpt>
      <trkpt lat="49.83814" lon="4.79064">
        <ele>289</ele>
        <time>2021-05-15T09:12:16.000Z</time>
      </trkpt>
      <trkpt lat="49.83816" lon="4.79068">
        <ele>289</ele>
        <time>2021-05-15T09:12:17.000Z</time>
      </trkpt>
      <trkpt lat="49.83818" lon="4.79072">
        <ele>289</ele>
        <time>2021-05-15T09:12:18.000Z</time>
      </trkpt>
      <trkpt lat="49.83821" lon="4.79077">
        <ele>289</ele>
        <time>2021-05-15T09:12:19.000Z</time>
      </trkpt>
      <trkpt lat="49.83823" lon="4.79081">
        <ele>288</ele>
        <time>2021-05-15T09:12:20.000Z</time>
      </trkpt>
      <trkpt lat="49.83826" lon="4.79085">
        <ele>288</ele>
        <time>2021-05-15T09:12:21.000Z</time>
      </trkpt>
      <trkpt lat="49.83829" lon="4.7909">
        <ele>288</ele>
        <time>2021-05-15T09:12:22.000Z</time>
      </trkpt>
      <trkpt lat="49.83832" lon="4.79095">
        <ele>288</ele>
        <time>2021-05-15T09:12:23.000Z</time>
      </trkpt>
      <trkpt lat="49.83834" lon="4.791">
        <ele>288</ele>
        <time>2021-05-15T09:12:24.000Z</time>
      </trkpt>
      <trkpt lat="49.83836" lon="4.79105">
        <ele>288</ele>
        <time>2021-05-15T09:12:25.000Z</time>
      </trkpt>
      <trkpt lat="49.83839" lon="4.7911">
        <ele>288</ele>
        <time>2021-05-15T09:12:26.000Z</time>
      </trkpt>
      <trkpt lat="49.83841" lon="4.79115">
        <ele>288</ele>
        <time>2021-05-15T09:12:27.000Z</time>
      </trkpt>
      <trkpt lat="49.83843" lon="4.7912">
        <ele>288</ele>
        <time>2021-05-15T09:12:28.000Z</time>
      </trkpt>
      <trkpt lat="49.83845" lon="4.79125">
        <ele>288</ele>
        <time>2021-05-15T09:12:29.000Z</time>
      </trkpt>
      <trkpt lat="49.83847" lon="4.7913">
        <ele>288</ele>
        <time>2021-05-15T09:12:30.000Z</time>
      </trkpt>
      <trkpt lat="49.83849" lon="4.79135">
        <ele>288</ele>
        <time>2021-05-15T09:12:31.000Z</time>
      </trkpt>
      <trkpt lat="49.83851" lon="4.79139">
        <ele>288</ele>
        <time>2021-05-15T09:12:32.000Z</time>
      </trkpt>
      <trkpt lat="49.83853" lon="4.79144">
        <ele>288</ele>
        <time>2021-05-15T09:12:33.000Z</time>
      </trkpt>
      <trkpt lat="49.83855" lon="4.79149">
        <ele>288</ele>
        <time>2021-05-15T09:12:34.000Z</time>
      </trkpt>
      <trkpt lat="49.83857" lon="4.79154">
        <ele>288</ele>
        <time>2021-05-15T09:12:35.000Z</time>
      </trkpt>
      <trkpt lat="49.83859" lon="4.79158">
        <ele>288</ele>
        <time>2021-05-15T09:12:36.000Z</time>
      </trkpt>
      <trkpt lat="49.8386" lon="4.79162">
        <ele>288</ele>
        <time>2021-05-15T09:12:37.000Z</time>
      </trkpt>
      <trkpt lat="49.83862" lon="4.79167">
        <ele>288</ele>
        <time>2021-05-15T09:12:38.000Z</time>
      </trkpt>
      <trkpt lat="49.83863" lon="4.79171">
        <ele>289</ele>
        <time>2021-05-15T09:12:39.000Z</time>
      </trkpt>
      <trkpt lat="49.83865" lon="4.79176">
        <ele>289</ele>
        <time>2021-05-15T09:12:40.000Z</time>
      </trkpt>
      <trkpt lat="49.83867" lon="4.79181">
        <ele>289</ele>
        <time>2021-05-15T09:12:41.000Z</time>
      </trkpt>
      <trkpt lat="49.83867" lon="4.79186">
        <ele>289</ele>
        <time>2021-05-15T09:12:42.000Z</time>
      </trkpt>
      <trkpt lat="49.83868" lon="4.79191">
        <ele>289</ele>
        <time>2021-05-15T09:12:43.000Z</time>
      </trkpt>
      <trkpt lat="49.83868" lon="4.79196">
        <ele>289</ele>
        <time>2021-05-15T09:12:44.000Z</time>
      </trkpt>
      <trkpt lat="49.83869" lon="4.79201">
        <ele>289</ele>
        <time>2021-05-15T09:12:45.000Z</time>
      </trkpt>
      <trkpt lat="49.8387" lon="4.79206">
        <ele>289</ele>
        <time>2021-05-15T09:12:46.000Z</time>
      </trkpt>
      <trkpt lat="49.83871" lon="4.79211">
        <ele>289</ele>
        <time>2021-05-15T09:12:47.000Z</time>
      </trkpt>
      <trkpt lat="49.83873" lon="4.79216">
        <ele>289</ele>
        <time>2021-05-15T09:12:48.000Z</time>
      </trkpt>
      <trkpt lat="49.83875" lon="4.7922">
        <ele>289</ele>
        <time>2021-05-15T09:12:49.000Z</time>
      </trkpt>
      <trkpt lat="49.83876" lon="4.79224">
        <ele>290</ele>
        <time>2021-05-15T09:12:50.000Z</time>
      </trkpt>
      <trkpt lat="49.83878" lon="4.79227">
        <ele>290</ele>
        <time>2021-05-15T09:12:51.000Z</time>
      </trkpt>
      <trkpt lat="49.8388" lon="4.7923">
        <ele>290</ele>
        <time>2021-05-15T09:12:52.000Z</time>
      </trkpt>
      <trkpt lat="49.83882" lon="4.79233">
        <ele>290</ele>
        <time>2021-05-15T09:12:53.000Z</time>
      </trkpt>
      <trkpt lat="49.83884" lon="4.79237">
        <ele>290</ele>
        <time>2021-05-15T09:12:54.000Z</time>
      </trkpt>
      <trkpt lat="49.83886" lon="4.79241">
        <ele>291</ele>
        <time>2021-05-15T09:12:55.000Z</time>
      </trkpt>
      <trkpt lat="49.83888" lon="4.79245">
        <ele>291</ele>
        <time>2021-05-15T09:12:56.000Z</time>
      </trkpt>
      <trkpt lat="49.8389" lon="4.79248">
        <ele>291</ele>
        <time>2021-05-15T09:12:57.000Z</time>
      </trkpt>
      <trkpt lat="49.83892" lon="4.79252">
        <ele>291</ele>
        <time>2021-05-15T09:12:58.000Z</time>
      </trkpt>
      <trkpt lat="49.83893" lon="4.79256">
        <ele>292</ele>
        <time>2021-05-15T09:12:59.000Z</time>
      </trkpt>
      <trkpt lat="49.83895" lon="4.7926">
        <ele>292</ele>
        <time>2021-05-15T09:13:00.000Z</time>
      </trkpt>
      <trkpt lat="49.83896" lon="4.79263">
        <ele>292</ele>
        <time>2021-05-15T09:13:01.000Z</time>
      </trkpt>
      <trkpt lat="49.83898" lon="4.79267">
        <ele>292</ele>
        <time>2021-05-15T09:13:02.000Z</time>
      </trkpt>
      <trkpt lat="49.839" lon="4.79271">
        <ele>293</ele>
        <time>2021-05-15T09:13:03.000Z</time>
      </trkpt>
      <trkpt lat="49.83901" lon="4.79274">
        <ele>293</ele>
        <time>2021-05-15T09:13:04.000Z</time>
      </trkpt>
      <trkpt lat="49.83903" lon="4.79277">
        <ele>293</ele>
        <time>2021-05-15T09:13:05.000Z</time>
      </trkpt>
      <trkpt lat="49.83905" lon="4.79281">
        <ele>293</ele>
        <time>2021-05-15T09:13:06.000Z</time>
      </trkpt>
      <trkpt lat="49.83907" lon="4.79284">
        <ele>293</ele>
        <time>2021-05-15T09:13:07.000Z</time>
      </trkpt>
      <trkpt lat="49.83908" lon="4.79287">
        <ele>294</ele>
        <time>2021-05-15T09:13:08.000Z</time>
      </trkpt>
      <trkpt lat="49.8391" lon="4.79291">
        <ele>294</ele>
        <time>2021-05-15T09:13:09.000Z</time>
      </trkpt>
      <trkpt lat="49.83912" lon="4.79293">
        <ele>294</ele>
        <time>2021-05-15T09:13:10.000Z</time>
      </trkpt>
      <trkpt lat="49.83914" lon="4.79296">
        <ele>294</ele>
        <time>2021-05-15T09:13:11.000Z</time>
      </trkpt>
      <trkpt lat="49.83916" lon="4.79299">
        <ele>294</ele>
        <time>2021-05-15T09:13:12.000Z</time>
      </trkpt>
      <trkpt lat="49.83918" lon="4.79302">
        <ele>295</ele>
        <time>2021-05-15T09:13:13.000Z</time>
      </trkpt>
      <trkpt lat="49.83919" lon="4.79305">
        <ele>295</ele>
        <time>2021-05-15T09:13:14.000Z</time>
      </trkpt>
      <trkpt lat="49.83921" lon="4.79307">
        <ele>295</ele>
        <time>2021-05-15T09:13:15.000Z</time>
      </trkpt>
      <trkpt lat="49.83923" lon="4.7931">
        <ele>295</ele>
        <time>2021-05-15T09:13:16.000Z</time>
      </trkpt>
      <trkpt lat="49.83925" lon="4.79313">
        <ele>295</ele>
        <time>2021-05-15T09:13:17.000Z</time>
      </trkpt>
      <trkpt lat="49.83927" lon="4.79316">
        <ele>296</ele>
        <time>2021-05-15T09:13:18.000Z</time>
      </trkpt>
      <trkpt lat="49.83928" lon="4.79319">
        <ele>296</ele>
        <time>2021-05-15T09:13:19.000Z</time>
      </trkpt>
      <trkpt lat="49.83929" lon="4.79323">
        <ele>296</ele>
        <time>2021-05-15T09:13:20.000Z</time>
      </trkpt>
      <trkpt lat="49.83931" lon="4.79326">
        <ele>296</ele>
        <time>2021-05-15T09:13:21.000Z</time>
      </trkpt>
      <trkpt lat="49.83932" lon="4.7933">
        <ele>296</ele>
        <time>2021-05-15T09:13:22.000Z</time>
      </trkpt>
      <trkpt lat="49.83933" lon="4.79334">
        <ele>297</ele>
        <time>2021-05-15T09:13:23.000Z</time>
      </trkpt>
      <trkpt lat="49.83934" lon="4.79337">
        <ele>297</ele>
        <time>2021-05-15T09:13:24.000Z</time>
      </trkpt>
      <trkpt lat="49.83936" lon="4.79341">
        <ele>297</ele>
        <time>2021-05-15T09:13:25.000Z</time>
      </trkpt>
      <trkpt lat="49.83937" lon="4.79344">
        <ele>297</ele>
        <time>2021-05-15T09:13:26.000Z</time>
      </trkpt>
      <trkpt lat="49.83938" lon="4.79348">
        <ele>298</ele>
        <time>2021-05-15T09:13:27.000Z</time>
      </trkpt>
      <trkpt lat="49.83939" lon="4.79352">
        <ele>298</ele>
        <time>2021-05-15T09:13:28.000Z</time>
      </trkpt>
      <trkpt lat="49.8394" lon="4.79355">
        <ele>298</ele>
        <time>2021-05-15T09:13:29.000Z</time>
      </trkpt>
      <trkpt lat="49.83941" lon="4.79359">
        <ele>299</ele>
        <time>2021-05-15T09:13:30.000Z</time>
      </trkpt>
      <trkpt lat="49.83942" lon="4.79363">
        <ele>299</ele>
        <time>2021-05-15T09:13:31.000Z</time>
      </trkpt>
      <trkpt lat="49.83943" lon="4.79366">
        <ele>299</ele>
        <time>2021-05-15T09:13:32.000Z</time>
      </trkpt>
      <trkpt lat="49.83944" lon="4.7937">
        <ele>299</ele>
        <time>2021-05-15T09:13:33.000Z</time>
      </trkpt>
      <trkpt lat="49.83945" lon="4.79374">
        <ele>299</ele>
        <time>2021-05-15T09:13:34.000Z</time>
      </trkpt>
      <trkpt lat="49.83946" lon="4.79378">
        <ele>300</ele>
        <time>2021-05-15T09:13:35.000Z</time>
      </trkpt>
      <trkpt lat="49.83947" lon="4.79382">
        <ele>300</ele>
        <time>2021-05-15T09:13:36.000Z</time>
      </trkpt>
      <trkpt lat="49.83948" lon="4.79386">
        <ele>300</ele>
        <time>2021-05-15T09:13:37.000Z</time>
      </trkpt>
      <trkpt lat="49.8395" lon="4.7939">
        <ele>300</ele>
        <time>2021-05-15T09:13:38.000Z</time>
      </trkpt>
      <trkpt lat="49.83951" lon="4.79395">
        <ele>301</ele>
        <time>2021-05-15T09:13:39.000Z</time>
      </trkpt>
      <trkpt lat="49.83952" lon="4.79399">
        <ele>301</ele>
        <time>2021-05-15T09:13:40.000Z</time>
      </trkpt>
      <trkpt lat="49.83953" lon="4.79403">
        <ele>301</ele>
        <time>2021-05-15T09:13:41.000Z</time>
      </trkpt>
      <trkpt lat="49.83954" lon="4.79407">
        <ele>301</ele>
        <time>2021-05-15T09:13:42.000Z</time>
      </trkpt>
      <trkpt lat="49.83955" lon="4.79411">
        <ele>301</ele>
        <time>2021-05-15T09:13:43.000Z</time>
      </trkpt>
      <trkpt lat="49.83957" lon="4.79414">
        <ele>302</ele>
        <time>2021-05-15T09:13:44.000Z</time>
      </trkpt>
      <trkpt lat="49.83958" lon="4.79418">
        <ele>302</ele>
        <time>2021-05-15T09:13:45.000Z</time>
      </trkpt>
      <trkpt lat="49.8396" lon="4.79422">
        <ele>302</ele>
        <time>2021-05-15T09:13:46.000Z</time>
      </trkpt>
      <trkpt lat="49.83961" lon="4.79426">
        <ele>303</ele>
        <time>2021-05-15T09:13:47.000Z</time>
      </trkpt>
      <trkpt lat="49.83962" lon="4.7943">
        <ele>303</ele>
        <time>2021-05-15T09:13:48.000Z</time>
      </trkpt>
      <trkpt lat="49.83963" lon="4.79434">
        <ele>303</ele>
        <time>2021-05-15T09:13:49.000Z</time>
      </trkpt>
      <trkpt lat="49.83965" lon="4.79437">
        <ele>303</ele>
        <time>2021-05-15T09:13:50.000Z</time>
      </trkpt>
      <trkpt lat="49.83966" lon="4.79441">
        <ele>303</ele>
        <time>2021-05-15T09:13:51.000Z</time>
      </trkpt>
      <trkpt lat="49.83967" lon="4.79445">
        <ele>304</ele>
        <time>2021-05-15T09:13:52.000Z</time>
      </trkpt>
      <trkpt lat="49.83969" lon="4.79449">
        <ele>304</ele>
        <time>2021-05-15T09:13:53.000Z</time>
      </trkpt>
      <trkpt lat="49.8397" lon="4.79453">
        <ele>304</ele>
        <time>2021-05-15T09:13:54.000Z</time>
      </trkpt>
      <trkpt lat="49.83972" lon="4.79457">
        <ele>304</ele>
        <time>2021-05-15T09:13:55.000Z</time>
      </trkpt>
      <trkpt lat="49.83973" lon="4.7946">
        <ele>305</ele>
        <time>2021-05-15T09:13:56.000Z</time>
      </trkpt>
      <trkpt lat="49.83974" lon="4.79464">
        <ele>305</ele>
        <time>2021-05-15T09:13:57.000Z</time>
      </trkpt>
      <trkpt lat="49.83976" lon="4.79467">
        <ele>305</ele>
        <time>2021-05-15T09:13:58.000Z</time>
      </trkpt>
      <trkpt lat="49.83977" lon="4.7947">
        <ele>305</ele>
        <time>2021-05-15T09:13:59.000Z</time>
      </trkpt>
      <trkpt lat="49.83979" lon="4.79473">
        <ele>305</ele>
        <time>2021-05-15T09:14:00.000Z</time>
      </trkpt>
      <trkpt lat="49.8398" lon="4.79476">
        <ele>306</ele>
        <time>2021-05-15T09:14:01.000Z</time>
      </trkpt>
      <trkpt lat="49.83982" lon="4.7948">
        <ele>306</ele>
        <time>2021-05-15T09:14:02.000Z</time>
      </trkpt>
      <trkpt lat="49.83984" lon="4.79483">
        <ele>306</ele>
        <time>2021-05-15T09:14:03.000Z</time>
      </trkpt>
      <trkpt lat="49.83986" lon="4.79486">
        <ele>306</ele>
        <time>2021-05-15T09:14:04.000Z</time>
      </trkpt>
      <trkpt lat="49.83988" lon="4.79489">
        <ele>307</ele>
        <time>2021-05-15T09:14:05.000Z</time>
      </trkpt>
      <trkpt lat="49.8399" lon="4.79492">
        <ele>307</ele>
        <time>2021-05-15T09:14:06.000Z</time>
      </trkpt>
      <trkpt lat="49.83991" lon="4.79495">
        <ele>307</ele>
        <time>2021-05-15T09:14:07.000Z</time>
      </trkpt>
      <trkpt lat="49.83993" lon="4.79498">
        <ele>307</ele>
        <time>2021-05-15T09:14:08.000Z</time>
      </trkpt>
      <trkpt lat="49.83994" lon="4.79501">
        <ele>308</ele>
        <time>2021-05-15T09:14:09.000Z</time>
      </trkpt>
      <trkpt lat="49.83995" lon="4.79504">
        <ele>308</ele>
        <time>2021-05-15T09:14:10.000Z</time>
      </trkpt>
      <trkpt lat="49.83997" lon="4.79508">
        <ele>308</ele>
        <time>2021-05-15T09:14:11.000Z</time>
      </trkpt>
      <trkpt lat="49.83999" lon="4.79511">
        <ele>308</ele>
        <time>2021-05-15T09:14:12.000Z</time>
      </trkpt>
      <trkpt lat="49.84" lon="4.79514">
        <ele>308</ele>
        <time>2021-05-15T09:14:13.000Z</time>
      </trkpt>
      <trkpt lat="49.84002" lon="4.79518">
        <ele>309</ele>
        <time>2021-05-15T09:14:14.000Z</time>
      </trkpt>
      <trkpt lat="49.84003" lon="4.79521">
        <ele>309</ele>
        <time>2021-05-15T09:14:15.000Z</time>
      </trkpt>
      <trkpt lat="49.84005" lon="4.79524">
        <ele>309</ele>
        <time>2021-05-15T09:14:16.000Z</time>
      </trkpt>
      <trkpt lat="49.84006" lon="4.79527">
        <ele>309</ele>
        <time>2021-05-15T09:14:17.000Z</time>
      </trkpt>
      <trkpt lat="49.84007" lon="4.7953">
        <ele>309</ele>
        <time>2021-05-15T09:14:18.000Z</time>
      </trkpt>
      <trkpt lat="49.84009" lon="4.79534">
        <ele>309</ele>
        <time>2021-05-15T09:14:19.000Z</time>
      </trkpt>
      <trkpt lat="49.84011" lon="4.79537">
        <ele>310</ele>
        <time>2021-05-15T09:14:20.000Z</time>
      </trkpt>
      <trkpt lat="49.84012" lon="4.79541">
        <ele>310</ele>
        <time>2021-05-15T09:14:21.000Z</time>
      </trkpt>
      <trkpt lat="49.84013" lon="4.79545">
        <ele>310</ele>
        <time>2021-05-15T09:14:22.000Z</time>
      </trkpt>
      <trkpt lat="49.84014" lon="4.79548">
        <ele>310</ele>
        <time>2021-05-15T09:14:23.000Z</time>
      </trkpt>
      <trkpt lat="49.84016" lon="4.79552">
        <ele>311</ele>
        <time>2021-05-15T09:14:24.000Z</time>
      </trkpt>
      <trkpt lat="49.84017" lon="4.79555">
        <ele>311</ele>
        <time>2021-05-15T09:14:25.000Z</time>
      </trkpt>
      <trkpt lat="49.84018" lon="4.79559">
        <ele>311</ele>
        <time>2021-05-15T09:14:26.000Z</time>
      </trkpt>
      <trkpt lat="49.84019" lon="4.79562">
        <ele>311</ele>
        <time>2021-05-15T09:14:27.000Z</time>
      </trkpt>
      <trkpt lat="49.84021" lon="4.79566">
        <ele>312</ele>
        <time>2021-05-15T09:14:28.000Z</time>
      </trkpt>
      <trkpt lat="49.84021" lon="4.79569">
        <ele>312</ele>
        <time>2021-05-15T09:14:29.000Z</time>
      </trkpt>
      <trkpt lat="49.84023" lon="4.79573">
        <ele>312</ele>
        <time>2021-05-15T09:14:30.000Z</time>
      </trkpt>
      <trkpt lat="49.84024" lon="4.79577">
        <ele>312</ele>
        <time>2021-05-15T09:14:31.000Z</time>
      </trkpt>
      <trkpt lat="49.84025" lon="4.79581">
        <ele>313</ele>
        <time>2021-05-15T09:14:32.000Z</time>
      </trkpt>
      <trkpt lat="49.84026" lon="4.79585">
        <ele>313</ele>
        <time>2021-05-15T09:14:33.000Z</time>
      </trkpt>
      <trkpt lat="49.84028" lon="4.79589">
        <ele>313</ele>
        <time>2021-05-15T09:14:34.000Z</time>
      </trkpt>
      <trkpt lat="49.84029" lon="4.79593">
        <ele>313</ele>
        <time>2021-05-15T09:14:35.000Z</time>
      </trkpt>
      <trkpt lat="49.84031" lon="4.79597">
        <ele>313</ele>
        <time>2021-05-15T09:14:36.000Z</time>
      </trkpt>
      <trkpt lat="49.84033" lon="4.79601">
        <ele>314</ele>
        <time>2021-05-15T09:14:37.000Z</time>
      </trkpt>
      <trkpt lat="49.84034" lon="4.79605">
        <ele>314</ele>
        <time>2021-05-15T09:14:38.000Z</time>
      </trkpt>
      <trkpt lat="49.84036" lon="4.79609">
        <ele>314</ele>
        <time>2021-05-15T09:14:39.000Z</time>
      </trkpt>
      <trkpt lat="49.84037" lon="4.79612">
        <ele>314</ele>
        <time>2021-05-15T09:14:40.000Z</time>
      </trkpt>
      <trkpt lat="49.84039" lon="4.79616">
        <ele>314</ele>
        <time>2021-05-15T09:14:41.000Z</time>
      </trkpt>
      <trkpt lat="49.84041" lon="4.79619">
        <ele>314</ele>
        <time>2021-05-15T09:14:42.000Z</time>
      </trkpt>
      <trkpt lat="49.84042" lon="4.79623">
        <ele>315</ele>
        <time>2021-05-15T09:14:43.000Z</time>
      </trkpt>
      <trkpt lat="49.84044" lon="4.79627">
        <ele>315</ele>
        <time>2021-05-15T09:14:44.000Z</time>
      </trkpt>
      <trkpt lat="49.84045" lon="4.79631">
        <ele>315</ele>
        <time>2021-05-15T09:14:45.000Z</time>
      </trkpt>
      <trkpt lat="49.84047" lon="4.79635">
        <ele>315</ele>
        <time>2021-05-15T09:14:46.000Z</time>
      </trkpt>
      <trkpt lat="49.84049" lon="4.79639">
        <ele>315</ele>
        <time>2021-05-15T09:14:47.000Z</time>
      </trkpt>
      <trkpt lat="49.8405" lon="4.79642">
        <ele>316</ele>
        <time>2021-05-15T09:14:48.000Z</time>
      </trkpt>
      <trkpt lat="49.84052" lon="4.79646">
        <ele>316</ele>
        <time>2021-05-15T09:14:49.000Z</time>
      </trkpt>
      <trkpt lat="49.84054" lon="4.7965">
        <ele>316</ele>
        <time>2021-05-15T09:14:50.000Z</time>
      </trkpt>
      <trkpt lat="49.84055" lon="4.79653">
        <ele>316</ele>
        <time>2021-05-15T09:14:51.000Z</time>
      </trkpt>
      <trkpt lat="49.84057" lon="4.79656">
        <ele>316</ele>
        <time>2021-05-15T09:14:52.000Z</time>
      </trkpt>
      <trkpt lat="49.84059" lon="4.7966">
        <ele>317</ele>
        <time>2021-05-15T09:14:53.000Z</time>
      </trkpt>
      <trkpt lat="49.8406" lon="4.79663">
        <ele>317</ele>
        <time>2021-05-15T09:14:54.000Z</time>
      </trkpt>
      <trkpt lat="49.84062" lon="4.79667">
        <ele>317</ele>
        <time>2021-05-15T09:14:55.000Z</time>
      </trkpt>
      <trkpt lat="49.84063" lon="4.79671">
        <ele>318</ele>
        <time>2021-05-15T09:14:56.000Z</time>
      </trkpt>
      <trkpt lat="49.84065" lon="4.79674">
        <ele>318</ele>
        <time>2021-05-15T09:14:57.000Z</time>
      </trkpt>
      <trkpt lat="49.84066" lon="4.79678">
        <ele>318</ele>
        <time>2021-05-15T09:14:58.000Z</time>
      </trkpt>
      <trkpt lat="49.84067" lon="4.79682">
        <ele>318</ele>
        <time>2021-05-15T09:14:59.000Z</time>
      </trkpt>
      <trkpt lat="49.84069" lon="4.79686">
        <ele>319</ele>
        <time>2021-05-15T09:15:00.000Z</time>
      </trkpt>
      <trkpt lat="49.8407" lon="4.7969">
        <ele>319</ele>
        <time>2021-05-15T09:15:01.000Z</time>
      </trkpt>
      <trkpt lat="49.84071" lon="4.79694">
        <ele>319</ele>
        <time>2021-05-15T09:15:02.000Z</time>
      </trkpt>
      <trkpt lat="49.84072" lon="4.79698">
        <ele>319</ele>
        <time>2021-05-15T09:15:03.000Z</time>
      </trkpt>
      <trkpt lat="49.84073" lon="4.79703">
        <ele>320</ele>
        <time>2021-05-15T09:15:04.000Z</time>
      </trkpt>
      <trkpt lat="49.84073" lon="4.79707">
        <ele>320</ele>
        <time>2021-05-15T09:15:05.000Z</time>
      </trkpt>
      <trkpt lat="49.84073" lon="4.79711">
        <ele>320</ele>
        <time>2021-05-15T09:15:06.000Z</time>
      </trkpt>
      <trkpt lat="49.84073" lon="4.79716">
        <ele>321</ele>
        <time>2021-05-15T09:15:07.000Z</time>
      </trkpt>
      <trkpt lat="49.84073" lon="4.7972">
        <ele>321</ele>
        <time>2021-05-15T09:15:08.000Z</time>
      </trkpt>
      <trkpt lat="49.84072" lon="4.79725">
        <ele>321</ele>
        <time>2021-05-15T09:15:09.000Z</time>
      </trkpt>
      <trkpt lat="49.84071" lon="4.79729">
        <ele>322</ele>
        <time>2021-05-15T09:15:10.000Z</time>
      </trkpt>
      <trkpt lat="49.84071" lon="4.79734">
        <ele>322</ele>
        <time>2021-05-15T09:15:11.000Z</time>
      </trkpt>
      <trkpt lat="49.84069" lon="4.79739">
        <ele>322</ele>
        <time>2021-05-15T09:15:12.000Z</time>
      </trkpt>
      <trkpt lat="49.84068" lon="4.79743">
        <ele>323</ele>
        <time>2021-05-15T09:15:13.000Z</time>
      </trkpt>
      <trkpt lat="49.84067" lon="4.79747">
        <ele>323</ele>
        <time>2021-05-15T09:15:14.000Z</time>
      </trkpt>
      <trkpt lat="49.84065" lon="4.7975">
        <ele>323</ele>
        <time>2021-05-15T09:15:15.000Z</time>
      </trkpt>
      <trkpt lat="49.84064" lon="4.79754">
        <ele>323</ele>
        <time>2021-05-15T09:15:16.000Z</time>
      </trkpt>
      <trkpt lat="49.84063" lon="4.79758">
        <ele>324</ele>
        <time>2021-05-15T09:15:17.000Z</time>
      </trkpt>
      <trkpt lat="49.84062" lon="4.79763">
        <ele>324</ele>
        <time>2021-05-15T09:15:18.000Z</time>
      </trkpt>
      <trkpt lat="49.84061" lon="4.79767">
        <ele>324</ele>
        <time>2021-05-15T09:15:19.000Z</time>
      </trkpt>
      <trkpt lat="49.8406" lon="4.79771">
        <ele>324</ele>
        <time>2021-05-15T09:15:20.000Z</time>
      </trkpt>
      <trkpt lat="49.84059" lon="4.79776">
        <ele>325</ele>
        <time>2021-05-15T09:15:21.000Z</time>
      </trkpt>
      <trkpt lat="49.84057" lon="4.79781">
        <ele>325</ele>
        <time>2021-05-15T09:15:22.000Z</time>
      </trkpt>
      <trkpt lat="49.84056" lon="4.79786">
        <ele>325</ele>
        <time>2021-05-15T09:15:23.000Z</time>
      </trkpt>
      <trkpt lat="49.84055" lon="4.7979">
        <ele>326</ele>
        <time>2021-05-15T09:15:24.000Z</time>
      </trkpt>
      <trkpt lat="49.84055" lon="4.79795">
        <ele>326</ele>
        <time>2021-05-15T09:15:25.000Z</time>
      </trkpt>
      <trkpt lat="49.84054" lon="4.79799">
        <ele>326</ele>
        <time>2021-05-15T09:15:26.000Z</time>
      </trkpt>
      <trkpt lat="49.84053" lon="4.79804">
        <ele>327</ele>
        <time>2021-05-15T09:15:27.000Z</time>
      </trkpt>
      <trkpt lat="49.84052" lon="4.79808">
        <ele>327</ele>
        <time>2021-05-15T09:15:28.000Z</time>
      </trkpt>
      <trkpt lat="49.84052" lon="4.79813">
        <ele>328</ele>
        <time>2021-05-15T09:15:29.000Z</time>
      </trkpt>
      <trkpt lat="49.84051" lon="4.79817">
        <ele>328</ele>
        <time>2021-05-15T09:15:30.000Z</time>
      </trkpt>
      <trkpt lat="49.84051" lon="4.79821">
        <ele>328</ele>
        <time>2021-05-15T09:15:31.000Z</time>
      </trkpt>
      <trkpt lat="49.8405" lon="4.79826">
        <ele>329</ele>
        <time>2021-05-15T09:15:32.000Z</time>
      </trkpt>
      <trkpt lat="49.84049" lon="4.7983">
        <ele>329</ele>
        <time>2021-05-15T09:15:33.000Z</time>
      </trkpt>
      <trkpt lat="49.84049" lon="4.79834">
        <ele>329</ele>
        <time>2021-05-15T09:15:34.000Z</time>
      </trkpt>
      <trkpt lat="49.84049" lon="4.79839">
        <ele>330</ele>
        <time>2021-05-15T09:15:35.000Z</time>
      </trkpt>
      <trkpt lat="49.84048" lon="4.79843">
        <ele>330</ele>
        <time>2021-05-15T09:15:36.000Z</time>
      </trkpt>
      <trkpt lat="49.84048" lon="4.79847">
        <ele>330</ele>
        <time>2021-05-15T09:15:37.000Z</time>
      </trkpt>
      <trkpt lat="49.84047" lon="4.79852">
        <ele>331</ele>
        <time>2021-05-15T09:15:38.000Z</time>
      </trkpt>
      <trkpt lat="49.84046" lon="4.79856">
        <ele>331</ele>
        <time>2021-05-15T09:15:39.000Z</time>
      </trkpt>
      <trkpt lat="49.84046" lon="4.79861">
        <ele>331</ele>
        <time>2021-05-15T09:15:40.000Z</time>
      </trkpt>
      <trkpt lat="49.84046" lon="4.79865">
        <ele>332</ele>
        <time>2021-05-15T09:15:41.000Z</time>
      </trkpt>
      <trkpt lat="49.84045" lon="4.79869">
        <ele>332</ele>
        <time>2021-05-15T09:15:42.000Z</time>
      </trkpt>
      <trkpt lat="49.84045" lon="4.79872">
        <ele>332</ele>
        <time>2021-05-15T09:15:43.000Z</time>
      </trkpt>
      <trkpt lat="49.84044" lon="4.79876">
        <ele>332</ele>
        <time>2021-05-15T09:15:44.000Z</time>
      </trkpt>
      <trkpt lat="49.84044" lon="4.7988">
        <ele>333</ele>
        <time>2021-05-15T09:15:45.000Z</time>
      </trkpt>
      <trkpt lat="49.84044" lon="4.79883">
        <ele>333</ele>
        <time>2021-05-15T09:15:46.000Z</time>
      </trkpt>
      <trkpt lat="49.84043" lon="4.79887">
        <ele>333</ele>
        <time>2021-05-15T09:15:47.000Z</time>
      </trkpt>
      <trkpt lat="49.84043" lon="4.79891">
        <ele>333</ele>
        <time>2021-05-15T09:15:48.000Z</time>
      </trkpt>
      <trkpt lat="49.84042" lon="4.79894">
        <ele>333</ele>
        <time>2021-05-15T09:15:49.000Z</time>
      </trkpt>
      <trkpt lat="49.8404" lon="4.79897">
        <ele>333</ele>
        <time>2021-05-15T09:15:50.000Z</time>
      </trkpt>
      <trkpt lat="49.84039" lon="4.799">
        <ele>333</ele>
        <time>2021-05-15T09:15:51.000Z</time>
      </trkpt>
      <trkpt lat="49.84037" lon="4.79904">
        <ele>333</ele>
        <time>2021-05-15T09:15:52.000Z</time>
      </trkpt>
      <trkpt lat="49.84036" lon="4.79908">
        <ele>333</ele>
        <time>2021-05-15T09:15:53.000Z</time>
      </trkpt>
      <trkpt lat="49.84034" lon="4.79913">
        <ele>333</ele>
        <time>2021-05-15T09:15:54.000Z</time>
      </trkpt>
      <trkpt lat="49.84033" lon="4.79918">
        <ele>333</ele>
        <time>2021-05-15T09:15:55.000Z</time>
      </trkpt>
      <trkpt lat="49.84032" lon="4.79922">
        <ele>333</ele>
        <time>2021-05-15T09:15:56.000Z</time>
      </trkpt>
      <trkpt lat="49.84032" lon="4.79928">
        <ele>333</ele>
        <time>2021-05-15T09:15:57.000Z</time>
      </trkpt>
      <trkpt lat="49.84031" lon="4.79933">
        <ele>333</ele>
        <time>2021-05-15T09:15:58.000Z</time>
      </trkpt>
      <trkpt lat="49.84031" lon="4.79938">
        <ele>333</ele>
        <time>2021-05-15T09:15:59.000Z</time>
      </trkpt>
      <trkpt lat="49.84033" lon="4.79942">
        <ele>333</ele>
        <time>2021-05-15T09:16:00.000Z</time>
      </trkpt>
      <trkpt lat="49.84034" lon="4.79946">
        <ele>333</ele>
        <time>2021-05-15T09:16:01.000Z</time>
      </trkpt>
      <trkpt lat="49.84036" lon="4.79951">
        <ele>333</ele>
        <time>2021-05-15T09:16:02.000Z</time>
      </trkpt>
      <trkpt lat="49.84037" lon="4.79956">
        <ele>333</ele>
        <time>2021-05-15T09:16:03.000Z</time>
      </trkpt>
      <trkpt lat="49.84039" lon="4.79962">
        <ele>333</ele>
        <time>2021-05-15T09:16:04.000Z</time>
      </trkpt>
      <trkpt lat="49.8404" lon="4.79967">
        <ele>333</ele>
        <time>2021-05-15T09:16:05.000Z</time>
      </trkpt>
      <trkpt lat="49.84043" lon="4.79973">
        <ele>333</ele>
        <time>2021-05-15T09:16:06.000Z</time>
      </trkpt>
      <trkpt lat="49.84045" lon="4.79977">
        <ele>333</ele>
        <time>2021-05-15T09:16:07.000Z</time>
      </trkpt>
      <trkpt lat="49.84047" lon="4.79983">
        <ele>333</ele>
        <time>2021-05-15T09:16:08.000Z</time>
      </trkpt>
      <trkpt lat="49.84049" lon="4.79989">
        <ele>333</ele>
        <time>2021-05-15T09:16:09.000Z</time>
      </trkpt>
      <trkpt lat="49.84051" lon="4.79995">
        <ele>333</ele>
        <time>2021-05-15T09:16:10.000Z</time>
      </trkpt>
      <trkpt lat="49.84052" lon="4.8">
        <ele>332</ele>
        <time>2021-05-15T09:16:11.000Z</time>
      </trkpt>
      <trkpt lat="49.84053" lon="4.80006">
        <ele>332</ele>
        <time>2021-05-15T09:16:12.000Z</time>
      </trkpt>
      <trkpt lat="49.84055" lon="4.8001">
        <ele>332</ele>
        <time>2021-05-15T09:16:13.000Z</time>
      </trkpt>
      <trkpt lat="49.84055" lon="4.80014">
        <ele>332</ele>
        <time>2021-05-15T09:16:14.000Z</time>
      </trkpt>
      <trkpt lat="49.84056" lon="4.8002">
        <ele>332</ele>
        <time>2021-05-15T09:16:15.000Z</time>
      </trkpt>
      <trkpt lat="49.84057" lon="4.80027">
        <ele>332</ele>
        <time>2021-05-15T09:16:16.000Z</time>
      </trkpt>
      <trkpt lat="49.84058" lon="4.80032">
        <ele>332</ele>
        <time>2021-05-15T09:16:17.000Z</time>
      </trkpt>
      <trkpt lat="49.84059" lon="4.80038">
        <ele>332</ele>
        <time>2021-05-15T09:16:18.000Z</time>
      </trkpt>
      <trkpt lat="49.84061" lon="4.80045">
        <ele>332</ele>
        <time>2021-05-15T09:16:19.000Z</time>
      </trkpt>
      <trkpt lat="49.84063" lon="4.80051">
        <ele>332</ele>
        <time>2021-05-15T09:16:20.000Z</time>
      </trkpt>
      <trkpt lat="49.84065" lon="4.80058">
        <ele>332</ele>
        <time>2021-05-15T09:16:21.000Z</time>
      </trkpt>
      <trkpt lat="49.84066" lon="4.80064">
        <ele>332</ele>
        <time>2021-05-15T09:16:22.000Z</time>
      </trkpt>
      <trkpt lat="49.84067" lon="4.80072">
        <ele>332</ele>
        <time>2021-05-15T09:16:23.000Z</time>
      </trkpt>
      <trkpt lat="49.84069" lon="4.80081">
        <ele>332</ele>
        <time>2021-05-15T09:16:24.000Z</time>
      </trkpt>
      <trkpt lat="49.84071" lon="4.80091">
        <ele>332</ele>
        <time>2021-05-15T09:16:25.000Z</time>
      </trkpt>
      <trkpt lat="49.84073" lon="4.80101">
        <ele>332</ele>
        <time>2021-05-15T09:16:26.000Z</time>
      </trkpt>
      <trkpt lat="49.84075" lon="4.80112">
        <ele>332</ele>
        <time>2021-05-15T09:16:27.000Z</time>
      </trkpt>
      <trkpt lat="49.84078" lon="4.80123">
        <ele>332</ele>
        <time>2021-05-15T09:16:28.000Z</time>
      </trkpt>
      <trkpt lat="49.84081" lon="4.80134">
        <ele>331</ele>
        <time>2021-05-15T09:16:29.000Z</time>
      </trkpt>
      <trkpt lat="49.84083" lon="4.80144">
        <ele>331</ele>
        <time>2021-05-15T09:16:30.000Z</time>
      </trkpt>
      <trkpt lat="49.84086" lon="4.80154">
        <ele>331</ele>
        <time>2021-05-15T09:16:31.000Z</time>
      </trkpt>
      <trkpt lat="49.84089" lon="4.80164">
        <ele>331</ele>
        <time>2021-05-15T09:16:32.000Z</time>
      </trkpt>
      <trkpt lat="49.84093" lon="4.80175">
        <ele>331</ele>
        <time>2021-05-15T09:16:33.000Z</time>
      </trkpt>
      <trkpt lat="49.84097" lon="4.80186">
        <ele>330</ele>
        <time>2021-05-15T09:16:34.000Z</time>
      </trkpt>
      <trkpt lat="49.84101" lon="4.80196">
        <ele>330</ele>
        <time>2021-05-15T09:16:35.000Z</time>
      </trkpt>
      <trkpt lat="49.84105" lon="4.80205">
        <ele>330</ele>
        <time>2021-05-15T09:16:36.000Z</time>
      </trkpt>
      <trkpt lat="49.84109" lon="4.80214">
        <ele>329</ele>
        <time>2021-05-15T09:16:37.000Z</time>
      </trkpt>
      <trkpt lat="49.84113" lon="4.80223">
        <ele>329</ele>
        <time>2021-05-15T09:16:38.000Z</time>
      </trkpt>
      <trkpt lat="49.84118" lon="4.80231">
        <ele>328</ele>
        <time>2021-05-15T09:16:39.000Z</time>
      </trkpt>
      <trkpt lat="49.84122" lon="4.8024">
        <ele>328</ele>
        <time>2021-05-15T09:16:40.000Z</time>
      </trkpt>
      <trkpt lat="49.84126" lon="4.80248">
        <ele>327</ele>
        <time>2021-05-15T09:16:41.000Z</time>
      </trkpt>
      <trkpt lat="49.8413" lon="4.80256">
        <ele>327</ele>
        <time>2021-05-15T09:16:42.000Z</time>
      </trkpt>
      <trkpt lat="49.84135" lon="4.80264">
        <ele>326</ele>
        <time>2021-05-15T09:16:43.000Z</time>
      </trkpt>
      <trkpt lat="49.84139" lon="4.80271">
        <ele>326</ele>
        <time>2021-05-15T09:16:44.000Z</time>
      </trkpt>
      <trkpt lat="49.84142" lon="4.80279">
        <ele>325</ele>
        <time>2021-05-15T09:16:45.000Z</time>
      </trkpt>
      <trkpt lat="49.84145" lon="4.80288">
        <ele>325</ele>
        <time>2021-05-15T09:16:46.000Z</time>
      </trkpt>
      <trkpt lat="49.84148" lon="4.80295">
        <ele>325</ele>
        <time>2021-05-15T09:16:47.000Z</time>
      </trkpt>
      <trkpt lat="49.84151" lon="4.80303">
        <ele>324</ele>
        <time>2021-05-15T09:16:48.000Z</time>
      </trkpt>
      <trkpt lat="49.84152" lon="4.8031">
        <ele>324</ele>
        <time>2021-05-15T09:16:49.000Z</time>
      </trkpt>
      <trkpt lat="49.84155" lon="4.80318">
        <ele>323</ele>
        <time>2021-05-15T09:16:50.000Z</time>
      </trkpt>
      <trkpt lat="49.84158" lon="4.80326">
        <ele>323</ele>
        <time>2021-05-15T09:16:51.000Z</time>
      </trkpt>
      <trkpt lat="49.8416" lon="4.80334">
        <ele>322</ele>
        <time>2021-05-15T09:16:52.000Z</time>
      </trkpt>
      <trkpt lat="49.84162" lon="4.80342">
        <ele>322</ele>
        <time>2021-05-15T09:16:53.000Z</time>
      </trkpt>
      <trkpt lat="49.84165" lon="4.8035">
        <ele>322</ele>
        <time>2021-05-15T09:16:54.000Z</time>
      </trkpt>
      <trkpt lat="49.84168" lon="4.80358">
        <ele>321</ele>
        <time>2021-05-15T09:16:55.000Z</time>
      </trkpt>
      <trkpt lat="49.84171" lon="4.80366">
        <ele>321</ele>
        <time>2021-05-15T09:16:56.000Z</time>
      </trkpt>
      <trkpt lat="49.84173" lon="4.80374">
        <ele>321</ele>
        <time>2021-05-15T09:16:57.000Z</time>
      </trkpt>
      <trkpt lat="49.84176" lon="4.80382">
        <ele>320</ele>
        <time>2021-05-15T09:16:58.000Z</time>
      </trkpt>
      <trkpt lat="49.84178" lon="4.8039">
        <ele>320</ele>
        <time>2021-05-15T09:16:59.000Z</time>
      </trkpt>
      <trkpt lat="49.84181" lon="4.80399">
        <ele>320</ele>
        <time>2021-05-15T09:17:00.000Z</time>
      </trkpt>
      <trkpt lat="49.84184" lon="4.80407">
        <ele>319</ele>
        <time>2021-05-15T09:17:01.000Z</time>
      </trkpt>
      <trkpt lat="49.84186" lon="4.80415">
        <ele>319</ele>
        <time>2021-05-15T09:17:02.000Z</time>
      </trkpt>
      <trkpt lat="49.84189" lon="4.80424">
        <ele>318</ele>
        <time>2021-05-15T09:17:03.000Z</time>
      </trkpt>
      <trkpt lat="49.84192" lon="4.80432">
        <ele>318</ele>
        <time>2021-05-15T09:17:04.000Z</time>
      </trkpt>
      <trkpt lat="49.84194" lon="4.80439">
        <ele>318</ele>
        <time>2021-05-15T09:17:05.000Z</time>
      </trkpt>
      <trkpt lat="49.84197" lon="4.80447">
        <ele>317</ele>
        <time>2021-05-15T09:17:06.000Z</time>
      </trkpt>
      <trkpt lat="49.84198" lon="4.80455">
        <ele>317</ele>
        <time>2021-05-15T09:17:07.000Z</time>
      </trkpt>
      <trkpt lat="49.842" lon="4.80462">
        <ele>317</ele>
        <time>2021-05-15T09:17:08.000Z</time>
      </trkpt>
      <trkpt lat="49.84203" lon="4.80469">
        <ele>317</ele>
        <time>2021-05-15T09:17:09.000Z</time>
      </trkpt>
      <trkpt lat="49.84205" lon="4.80477">
        <ele>317</ele>
        <time>2021-05-15T09:17:10.000Z</time>
      </trkpt>
      <trkpt lat="49.84208" lon="4.80486">
        <ele>316</ele>
        <time>2021-05-15T09:17:11.000Z</time>
      </trkpt>
      <trkpt lat="49.8421" lon="4.80494">
        <ele>316</ele>
        <time>2021-05-15T09:17:12.000Z</time>
      </trkpt>
      <trkpt lat="49.84212" lon="4.80502">
        <ele>316</ele>
        <time>2021-05-15T09:17:13.000Z</time>
      </trkpt>
      <trkpt lat="49.84214" lon="4.8051">
        <ele>316</ele>
        <time>2021-05-15T09:17:14.000Z</time>
      </trkpt>
      <trkpt lat="49.84216" lon="4.80517">
        <ele>315</ele>
        <time>2021-05-15T09:17:15.000Z</time>
      </trkpt>
      <trkpt lat="49.84218" lon="4.80525">
        <ele>315</ele>
        <time>2021-05-15T09:17:16.000Z</time>
      </trkpt>
      <trkpt lat="49.84221" lon="4.80531">
        <ele>315</ele>
        <time>2021-05-15T09:17:17.000Z</time>
      </trkpt>
      <trkpt lat="49.84224" lon="4.80538">
        <ele>314</ele>
        <time>2021-05-15T09:17:18.000Z</time>
      </trkpt>
      <trkpt lat="49.84227" lon="4.80545">
        <ele>314</ele>
        <time>2021-05-15T09:17:19.000Z</time>
      </trkpt>
      <trkpt lat="49.8423" lon="4.80551">
        <ele>314</ele>
        <time>2021-05-15T09:17:20.000Z</time>
      </trkpt>
      <trkpt lat="49.84233" lon="4.80557">
        <ele>314</ele>
        <time>2021-05-15T09:17:21.000Z</time>
      </trkpt>
      <trkpt lat="49.84236" lon="4.80564">
        <ele>313</ele>
        <time>2021-05-15T09:17:22.000Z</time>
      </trkpt>
      <trkpt lat="49.84238" lon="4.80571">
        <ele>313</ele>
        <time>2021-05-15T09:17:23.000Z</time>
      </trkpt>
      <trkpt lat="49.8424" lon="4.80577">
        <ele>313</ele>
        <time>2021-05-15T09:17:24.000Z</time>
      </trkpt>
      <trkpt lat="49.84241" lon="4.80584">
        <ele>313</ele>
        <time>2021-05-15T09:17:25.000Z</time>
      </trkpt>
      <trkpt lat="49.84243" lon="4.8059">
        <ele>313</ele>
        <time>2021-05-15T09:17:26.000Z</time>
      </trkpt>
      <trkpt lat="49.84246" lon="4.80597">
        <ele>313</ele>
        <time>2021-05-15T09:17:27.000Z</time>
      </trkpt>
      <trkpt lat="49.84248" lon="4.80603">
        <ele>312</ele>
        <time>2021-05-15T09:17:28.000Z</time>
      </trkpt>
      <trkpt lat="49.84249" lon="4.80609">
        <ele>312</ele>
        <time>2021-05-15T09:17:29.000Z</time>
      </trkpt>
      <trkpt lat="49.84251" lon="4.80615">
        <ele>312</ele>
        <time>2021-05-15T09:17:30.000Z</time>
      </trkpt>
      <trkpt lat="49.84254" lon="4.8062">
        <ele>312</ele>
        <time>2021-05-15T09:17:31.000Z</time>
      </trkpt>
      <trkpt lat="49.84256" lon="4.80626">
        <ele>312</ele>
        <time>2021-05-15T09:17:32.000Z</time>
      </trkpt>
      <trkpt lat="49.84258" lon="4.80631">
        <ele>312</ele>
        <time>2021-05-15T09:17:33.000Z</time>
      </trkpt>
      <trkpt lat="49.8426" lon="4.80635">
        <ele>312</ele>
        <time>2021-05-15T09:17:34.000Z</time>
      </trkpt>
      <trkpt lat="49.84261" lon="4.80639">
        <ele>312</ele>
        <time>2021-05-15T09:17:35.000Z</time>
      </trkpt>
      <trkpt lat="49.84262" lon="4.80643">
        <ele>312</ele>
        <time>2021-05-15T09:17:36.000Z</time>
      </trkpt>
      <trkpt lat="49.84264" lon="4.80647">
        <ele>312</ele>
        <time>2021-05-15T09:17:37.000Z</time>
      </trkpt>
      <trkpt lat="49.84265" lon="4.8065">
        <ele>312</ele>
        <time>2021-05-15T09:17:38.000Z</time>
      </trkpt>
      <trkpt lat="49.84267" lon="4.80654">
        <ele>312</ele>
        <time>2021-05-15T09:17:39.000Z</time>
      </trkpt>
      <trkpt lat="49.84269" lon="4.80658">
        <ele>312</ele>
        <time>2021-05-15T09:17:40.000Z</time>
      </trkpt>
      <trkpt lat="49.84271" lon="4.80662">
        <ele>312</ele>
        <time>2021-05-15T09:17:41.000Z</time>
      </trkpt>
      <trkpt lat="49.84273" lon="4.80665">
        <ele>313</ele>
        <time>2021-05-15T09:17:42.000Z</time>
      </trkpt>
      <trkpt lat="49.84275" lon="4.80668">
        <ele>313</ele>
        <time>2021-05-15T09:17:43.000Z</time>
      </trkpt>
      <trkpt lat="49.84278" lon="4.80671">
        <ele>313</ele>
        <time>2021-05-15T09:17:44.000Z</time>
      </trkpt>
      <trkpt lat="49.8428" lon="4.80673">
        <ele>313</ele>
        <time>2021-05-15T09:17:45.000Z</time>
      </trkpt>
      <trkpt lat="49.84282" lon="4.80675">
        <ele>313</ele>
        <time>2021-05-15T09:17:46.000Z</time>
      </trkpt>
      <trkpt lat="49.84284" lon="4.80677">
        <ele>313</ele>
        <time>2021-05-15T09:17:47.000Z</time>
      </trkpt>
      <trkpt lat="49.84286" lon="4.80679">
        <ele>313</ele>
        <time>2021-05-15T09:17:48.000Z</time>
      </trkpt>
      <trkpt lat="49.84288" lon="4.8068">
        <ele>313</ele>
        <time>2021-05-15T09:17:49.000Z</time>
      </trkpt>
      <trkpt lat="49.8429" lon="4.80681">
        <ele>314</ele>
        <time>2021-05-15T09:17:50.000Z</time>
      </trkpt>
      <trkpt lat="49.84292" lon="4.80682">
        <ele>314</ele>
        <time>2021-05-15T09:17:51.000Z</time>
      </trkpt>
      <trkpt lat="49.84294" lon="4.80684">
        <ele>314</ele>
        <time>2021-05-15T09:17:52.000Z</time>
      </trkpt>
      <trkpt lat="49.84296" lon="4.80685">
        <ele>314</ele>
        <time>2021-05-15T09:17:53.000Z</time>
      </trkpt>
      <trkpt lat="49.84299" lon="4.80686">
        <ele>314</ele>
        <time>2021-05-15T09:17:54.000Z</time>
      </trkpt>
      <trkpt lat="49.84301" lon="4.80687">
        <ele>314</ele>
        <time>2021-05-15T09:17:55.000Z</time>
      </trkpt>
      <trkpt lat="49.84303" lon="4.80688">
        <ele>315</ele>
        <time>2021-05-15T09:17:56.000Z</time>
      </trkpt>
      <trkpt lat="49.84305" lon="4.80689">
        <ele>315</ele>
        <time>2021-05-15T09:17:57.000Z</time>
      </trkpt>
      <trkpt lat="49.84307" lon="4.8069">
        <ele>315</ele>
        <time>2021-05-15T09:17:58.000Z</time>
      </trkpt>
      <trkpt lat="49.84309" lon="4.80691">
        <ele>315</ele>
        <time>2021-05-15T09:17:59.000Z</time>
      </trkpt>
      <trkpt lat="49.84311" lon="4.80692">
        <ele>315</ele>
        <time>2021-05-15T09:18:00.000Z</time>
      </trkpt>
      <trkpt lat="49.84312" lon="4.80693">
        <ele>315</ele>
        <time>2021-05-15T09:18:01.000Z</time>
      </trkpt>
      <trkpt lat="49.84314" lon="4.80694">
        <ele>316</ele>
        <time>2021-05-15T09:18:02.000Z</time>
      </trkpt>
      <trkpt lat="49.84316" lon="4.80694">
        <ele>316</ele>
        <time>2021-05-15T09:18:03.000Z</time>
      </trkpt>
      <trkpt lat="49.84318" lon="4.80696">
        <ele>316</ele>
        <time>2021-05-15T09:18:04.000Z</time>
      </trkpt>
      <trkpt lat="49.84319" lon="4.80697">
        <ele>316</ele>
        <time>2021-05-15T09:18:05.000Z</time>
      </trkpt>
      <trkpt lat="49.84321" lon="4.80698">
        <ele>316</ele>
        <time>2021-05-15T09:18:06.000Z</time>
      </trkpt>
      <trkpt lat="49.84323" lon="4.807">
        <ele>317</ele>
        <time>2021-05-15T09:18:07.000Z</time>
      </trkpt>
      <trkpt lat="49.84324" lon="4.80701">
        <ele>317</ele>
        <time>2021-05-15T09:18:08.000Z</time>
      </trkpt>
      <trkpt lat="49.84326" lon="4.80703">
        <ele>317</ele>
        <time>2021-05-15T09:18:09.000Z</time>
      </trkpt>
      <trkpt lat="49.84328" lon="4.80705">
        <ele>317</ele>
        <time>2021-05-15T09:18:10.000Z</time>
      </trkpt>
      <trkpt lat="49.84329" lon="4.80707">
        <ele>317</ele>
        <time>2021-05-15T09:18:11.000Z</time>
      </trkpt>
      <trkpt lat="49.84332" lon="4.8071">
        <ele>317</ele>
        <time>2021-05-15T09:18:12.000Z</time>
      </trkpt>
      <trkpt lat="49.84334" lon="4.80712">
        <ele>317</ele>
        <time>2021-05-15T09:18:13.000Z</time>
      </trkpt>
      <trkpt lat="49.84336" lon="4.80714">
        <ele>318</ele>
        <time>2021-05-15T09:18:14.000Z</time>
      </trkpt>
      <trkpt lat="49.84338" lon="4.80717">
        <ele>318</ele>
        <time>2021-05-15T09:18:15.000Z</time>
      </trkpt>
      <trkpt lat="49.84339" lon="4.80719">
        <ele>318</ele>
        <time>2021-05-15T09:18:16.000Z</time>
      </trkpt>
      <trkpt lat="49.84342" lon="4.8072">
        <ele>318</ele>
        <time>2021-05-15T09:18:17.000Z</time>
      </trkpt>
      <trkpt lat="49.84343" lon="4.80722">
        <ele>318</ele>
        <time>2021-05-15T09:18:18.000Z</time>
      </trkpt>
      <trkpt lat="49.84346" lon="4.80723">
        <ele>318</ele>
        <time>2021-05-15T09:18:19.000Z</time>
      </trkpt>
      <trkpt lat="49.84348" lon="4.80724">
        <ele>319</ele>
        <time>2021-05-15T09:18:20.000Z</time>
      </trkpt>
      <trkpt lat="49.8435" lon="4.80725">
        <ele>319</ele>
        <time>2021-05-15T09:18:21.000Z</time>
      </trkpt>
      <trkpt lat="49.84352" lon="4.80726">
        <ele>319</ele>
        <time>2021-05-15T09:18:22.000Z</time>
      </trkpt>
      <trkpt lat="49.84354" lon="4.80727">
        <ele>319</ele>
        <time>2021-05-15T09:18:23.000Z</time>
      </trkpt>
      <trkpt lat="49.84356" lon="4.80727">
        <ele>320</ele>
        <time>2021-05-15T09:18:24.000Z</time>
      </trkpt>
      <trkpt lat="49.84358" lon="4.80728">
        <ele>320</ele>
        <time>2021-05-15T09:18:25.000Z</time>
      </trkpt>
      <trkpt lat="49.8436" lon="4.80729">
        <ele>320</ele>
        <time>2021-05-15T09:18:26.000Z</time>
      </trkpt>
      <trkpt lat="49.84362" lon="4.80729">
        <ele>321</ele>
        <time>2021-05-15T09:18:27.000Z</time>
      </trkpt>
      <trkpt lat="49.84364" lon="4.8073">
        <ele>321</ele>
        <time>2021-05-15T09:18:28.000Z</time>
      </trkpt>
      <trkpt lat="49.84365" lon="4.8073">
        <ele>321</ele>
        <time>2021-05-15T09:18:29.000Z</time>
      </trkpt>
      <trkpt lat="49.84367" lon="4.80731">
        <ele>321</ele>
        <time>2021-05-15T09:18:30.000Z</time>
      </trkpt>
      <trkpt lat="49.84369" lon="4.80731">
        <ele>322</ele>
        <time>2021-05-15T09:18:31.000Z</time>
      </trkpt>
      <trkpt lat="49.84371" lon="4.80731">
        <ele>322</ele>
        <time>2021-05-15T09:18:32.000Z</time>
      </trkpt>
      <trkpt lat="49.84372" lon="4.80732">
        <ele>322</ele>
        <time>2021-05-15T09:18:33.000Z</time>
      </trkpt>
      <trkpt lat="49.84374" lon="4.80733">
        <ele>322</ele>
        <time>2021-05-15T09:18:34.000Z</time>
      </trkpt>
      <trkpt lat="49.84377" lon="4.80733">
        <ele>323</ele>
        <time>2021-05-15T09:18:35.000Z</time>
      </trkpt>
      <trkpt lat="49.84378" lon="4.80733">
        <ele>323</ele>
        <time>2021-05-15T09:18:36.000Z</time>
      </trkpt>
      <trkpt lat="49.84381" lon="4.80733">
        <ele>323</ele>
        <time>2021-05-15T09:18:37.000Z</time>
      </trkpt>
      <trkpt lat="49.84382" lon="4.80733">
        <ele>324</ele>
        <time>2021-05-15T09:18:38.000Z</time>
      </trkpt>
      <trkpt lat="49.84384" lon="4.80734">
        <ele>324</ele>
        <time>2021-05-15T09:18:39.000Z</time>
      </trkpt>
      <trkpt lat="49.84386" lon="4.80735">
        <ele>325</ele>
        <time>2021-05-15T09:18:40.000Z</time>
      </trkpt>
      <trkpt lat="49.84388" lon="4.80735">
        <ele>325</ele>
        <time>2021-05-15T09:18:41.000Z</time>
      </trkpt>
      <trkpt lat="49.84389" lon="4.80735">
        <ele>326</ele>
        <time>2021-05-15T09:18:42.000Z</time>
      </trkpt>
      <trkpt lat="49.84391" lon="4.80736">
        <ele>326</ele>
        <time>2021-05-15T09:18:43.000Z</time>
      </trkpt>
      <trkpt lat="49.84393" lon="4.80736">
        <ele>326</ele>
        <time>2021-05-15T09:18:44.000Z</time>
      </trkpt>
      <trkpt lat="49.84395" lon="4.80737">
        <ele>327</ele>
        <time>2021-05-15T09:18:45.000Z</time>
      </trkpt>
      <trkpt lat="49.84397" lon="4.80738">
        <ele>327</ele>
        <time>2021-05-15T09:18:46.000Z</time>
      </trkpt>
      <trkpt lat="49.84399" lon="4.80738">
        <ele>327</ele>
        <time>2021-05-15T09:18:47.000Z</time>
      </trkpt>
      <trkpt lat="49.844" lon="4.80738">
        <ele>328</ele>
        <time>2021-05-15T09:18:48.000Z</time>
      </trkpt>
      <trkpt lat="49.84402" lon="4.80738">
        <ele>328</ele>
        <time>2021-05-15T09:18:49.000Z</time>
      </trkpt>
      <trkpt lat="49.84404" lon="4.80739">
        <ele>328</ele>
        <time>2021-05-15T09:18:50.000Z</time>
      </trkpt>
      <trkpt lat="49.84405" lon="4.80739">
        <ele>328</ele>
        <time>2021-05-15T09:18:51.000Z</time>
      </trkpt>
      <trkpt lat="49.84407" lon="4.8074">
        <ele>329</ele>
        <time>2021-05-15T09:18:52.000Z</time>
      </trkpt>
      <trkpt lat="49.84408" lon="4.80741">
        <ele>329</ele>
        <time>2021-05-15T09:18:53.000Z</time>
      </trkpt>
      <trkpt lat="49.8441" lon="4.80743">
        <ele>329</ele>
        <time>2021-05-15T09:18:54.000Z</time>
      </trkpt>
      <trkpt lat="49.84411" lon="4.80744">
        <ele>330</ele>
        <time>2021-05-15T09:18:55.000Z</time>
      </trkpt>
      <trkpt lat="49.84413" lon="4.80745">
        <ele>330</ele>
        <time>2021-05-15T09:18:56.000Z</time>
      </trkpt>
      <trkpt lat="49.84415" lon="4.80746">
        <ele>330</ele>
        <time>2021-05-15T09:18:57.000Z</time>
      </trkpt>
      <trkpt lat="49.84416" lon="4.80747">
        <ele>331</ele>
        <time>2021-05-15T09:18:58.000Z</time>
      </trkpt>
      <trkpt lat="49.84418" lon="4.80749">
        <ele>331</ele>
        <time>2021-05-15T09:18:59.000Z</time>
      </trkpt>
      <trkpt lat="49.8442" lon="4.8075">
        <ele>332</ele>
        <time>2021-05-15T09:19:00.000Z</time>
      </trkpt>
      <trkpt lat="49.84422" lon="4.80751">
        <ele>332</ele>
        <time>2021-05-15T09:19:01.000Z</time>
      </trkpt>
      <trkpt lat="49.84423" lon="4.80751">
        <ele>332</ele>
        <time>2021-05-15T09:19:02.000Z</time>
      </trkpt>
      <trkpt lat="49.84425" lon="4.80752">
        <ele>333</ele>
        <time>2021-05-15T09:19:03.000Z</time>
      </trkpt>
      <trkpt lat="49.84427" lon="4.80754">
        <ele>333</ele>
        <time>2021-05-15T09:19:04.000Z</time>
      </trkpt>
      <trkpt lat="49.84428" lon="4.80755">
        <ele>334</ele>
        <time>2021-05-15T09:19:05.000Z</time>
      </trkpt>
      <trkpt lat="49.8443" lon="4.80755">
        <ele>334</ele>
        <time>2021-05-15T09:19:06.000Z</time>
      </trkpt>
      <trkpt lat="49.84432" lon="4.80756">
        <ele>334</ele>
        <time>2021-05-15T09:19:07.000Z</time>
      </trkpt>
      <trkpt lat="49.84434" lon="4.80757">
        <ele>335</ele>
        <time>2021-05-15T09:19:08.000Z</time>
      </trkpt>
      <trkpt lat="49.84435" lon="4.80758">
        <ele>335</ele>
        <time>2021-05-15T09:19:09.000Z</time>
      </trkpt>
      <trkpt lat="49.84437" lon="4.80759">
        <ele>336</ele>
        <time>2021-05-15T09:19:10.000Z</time>
      </trkpt>
      <trkpt lat="49.84438" lon="4.80759">
        <ele>336</ele>
        <time>2021-05-15T09:19:11.000Z</time>
      </trkpt>
      <trkpt lat="49.8444" lon="4.80759">
        <ele>337</ele>
        <time>2021-05-15T09:19:12.000Z</time>
      </trkpt>
      <trkpt lat="49.84441" lon="4.80759">
        <ele>337</ele>
        <time>2021-05-15T09:19:13.000Z</time>
      </trkpt>
      <trkpt lat="49.84442" lon="4.8076">
        <ele>338</ele>
        <time>2021-05-15T09:19:14.000Z</time>
      </trkpt>
      <trkpt lat="49.84444" lon="4.80761">
        <ele>338</ele>
        <time>2021-05-15T09:19:15.000Z</time>
      </trkpt>
      <trkpt lat="49.84446" lon="4.80761">
        <ele>338</ele>
        <time>2021-05-15T09:19:16.000Z</time>
      </trkpt>
      <trkpt lat="49.84447" lon="4.80761">
        <ele>339</ele>
        <time>2021-05-15T09:19:17.000Z</time>
      </trkpt>
      <trkpt lat="49.84449" lon="4.80761">
        <ele>339</ele>
        <time>2021-05-15T09:19:18.000Z</time>
      </trkpt>
      <trkpt lat="49.8445" lon="4.80762">
        <ele>340</ele>
        <time>2021-05-15T09:19:19.000Z</time>
      </trkpt>
      <trkpt lat="49.84452" lon="4.80762">
        <ele>340</ele>
        <time>2021-05-15T09:19:20.000Z</time>
      </trkpt>
      <trkpt lat="49.84454" lon="4.80763">
        <ele>341</ele>
        <time>2021-05-15T09:19:21.000Z</time>
      </trkpt>
      <trkpt lat="49.84456" lon="4.80764">
        <ele>341</ele>
        <time>2021-05-15T09:19:22.000Z</time>
      </trkpt>
      <trkpt lat="49.84458" lon="4.80764">
        <ele>341</ele>
        <time>2021-05-15T09:19:23.000Z</time>
      </trkpt>
      <trkpt lat="49.8446" lon="4.80765">
        <ele>342</ele>
        <time>2021-05-15T09:19:24.000Z</time>
      </trkpt>
      <trkpt lat="49.84461" lon="4.80765">
        <ele>342</ele>
        <time>2021-05-15T09:19:25.000Z</time>
      </trkpt>
      <trkpt lat="49.84463" lon="4.80766">
        <ele>342</ele>
        <time>2021-05-15T09:19:26.000Z</time>
      </trkpt>
      <trkpt lat="49.84465" lon="4.80767">
        <ele>343</ele>
        <time>2021-05-15T09:19:27.000Z</time>
      </trkpt>
      <trkpt lat="49.84467" lon="4.80768">
        <ele>343</ele>
        <time>2021-05-15T09:19:28.000Z</time>
      </trkpt>
      <trkpt lat="49.84469" lon="4.80769">
        <ele>343</ele>
        <time>2021-05-15T09:19:29.000Z</time>
      </trkpt>
      <trkpt lat="49.8447" lon="4.80769">
        <ele>343</ele>
        <time>2021-05-15T09:19:30.000Z</time>
      </trkpt>
      <trkpt lat="49.84472" lon="4.8077">
        <ele>344</ele>
        <time>2021-05-15T09:19:31.000Z</time>
      </trkpt>
      <trkpt lat="49.84472" lon="4.8077">
        <ele>344</ele>
        <time>2021-05-15T09:19:32.000Z</time>
      </trkpt>
      <trkpt lat="49.84473" lon="4.8077">
        <ele>344</ele>
        <time>2021-05-15T09:19:33.000Z</time>
      </trkpt>
      <trkpt lat="49.84475" lon="4.80771">
        <ele>344</ele>
        <time>2021-05-15T09:19:34.000Z</time>
      </trkpt>
      <trkpt lat="49.84477" lon="4.80772">
        <ele>344</ele>
        <time>2021-05-15T09:19:35.000Z</time>
      </trkpt>
      <trkpt lat="49.84479" lon="4.80773">
        <ele>344</ele>
        <time>2021-05-15T09:19:36.000Z</time>
      </trkpt>
      <trkpt lat="49.8448" lon="4.80774">
        <ele>344</ele>
        <time>2021-05-15T09:19:37.000Z</time>
      </trkpt>
      <trkpt lat="49.84482" lon="4.80774">
        <ele>345</ele>
        <time>2021-05-15T09:19:38.000Z</time>
      </trkpt>
      <trkpt lat="49.84484" lon="4.80775">
        <ele>345</ele>
        <time>2021-05-15T09:19:39.000Z</time>
      </trkpt>
      <trkpt lat="49.84486" lon="4.80776">
        <ele>345</ele>
        <time>2021-05-15T09:19:40.000Z</time>
      </trkpt>
      <trkpt lat="49.84488" lon="4.80776">
        <ele>345</ele>
        <time>2021-05-15T09:19:41.000Z</time>
      </trkpt>
      <trkpt lat="49.8449" lon="4.80777">
        <ele>345</ele>
        <time>2021-05-15T09:19:42.000Z</time>
      </trkpt>
      <trkpt lat="49.84492" lon="4.80778">
        <ele>345</ele>
        <time>2021-05-15T09:19:43.000Z</time>
      </trkpt>
      <trkpt lat="49.84494" lon="4.80778">
        <ele>346</ele>
        <time>2021-05-15T09:19:44.000Z</time>
      </trkpt>
      <trkpt lat="49.84496" lon="4.80779">
        <ele>346</ele>
        <time>2021-05-15T09:19:45.000Z</time>
      </trkpt>
      <trkpt lat="49.84498" lon="4.8078">
        <ele>346</ele>
        <time>2021-05-15T09:19:46.000Z</time>
      </trkpt>
      <trkpt lat="49.845" lon="4.8078">
        <ele>346</ele>
        <time>2021-05-15T09:19:47.000Z</time>
      </trkpt>
      <trkpt lat="49.84502" lon="4.8078">
        <ele>346</ele>
        <time>2021-05-15T09:19:48.000Z</time>
      </trkpt>
      <trkpt lat="49.84504" lon="4.80781">
        <ele>347</ele>
        <time>2021-05-15T09:19:49.000Z</time>
      </trkpt>
      <trkpt lat="49.84506" lon="4.80782">
        <ele>347</ele>
        <time>2021-05-15T09:19:50.000Z</time>
      </trkpt>
      <trkpt lat="49.84508" lon="4.80782">
        <ele>347</ele>
        <time>2021-05-15T09:19:51.000Z</time>
      </trkpt>
      <trkpt lat="49.8451" lon="4.80783">
        <ele>347</ele>
        <time>2021-05-15T09:19:52.000Z</time>
      </trkpt>
      <trkpt lat="49.84512" lon="4.80783">
        <ele>348</ele>
        <time>2021-05-15T09:19:53.000Z</time>
      </trkpt>
      <trkpt lat="49.84514" lon="4.80784">
        <ele>348</ele>
        <time>2021-05-15T09:19:54.000Z</time>
      </trkpt>
      <trkpt lat="49.84515" lon="4.80785">
        <ele>348</ele>
        <time>2021-05-15T09:19:55.000Z</time>
      </trkpt>
      <trkpt lat="49.84517" lon="4.80786">
        <ele>348</ele>
        <time>2021-05-15T09:19:56.000Z</time>
      </trkpt>
      <trkpt lat="49.84519" lon="4.80787">
        <ele>348</ele>
        <time>2021-05-15T09:19:57.000Z</time>
      </trkpt>
      <trkpt lat="49.84521" lon="4.80788">
        <ele>348</ele>
        <time>2021-05-15T09:19:58.000Z</time>
      </trkpt>
      <trkpt lat="49.84522" lon="4.80789">
        <ele>348</ele>
        <time>2021-05-15T09:19:59.000Z</time>
      </trkpt>
      <trkpt lat="49.84524" lon="4.80789">
        <ele>349</ele>
        <time>2021-05-15T09:20:00.000Z</time>
      </trkpt>
      <trkpt lat="49.84526" lon="4.8079">
        <ele>349</ele>
        <time>2021-05-15T09:20:01.000Z</time>
      </trkpt>
      <trkpt lat="49.84528" lon="4.80791">
        <ele>349</ele>
        <time>2021-05-15T09:20:02.000Z</time>
      </trkpt>
      <trkpt lat="49.8453" lon="4.80791">
        <ele>349</ele>
        <time>2021-05-15T09:20:03.000Z</time>
      </trkpt>
      <trkpt lat="49.84532" lon="4.80792">
        <ele>350</ele>
        <time>2021-05-15T09:20:04.000Z</time>
      </trkpt>
      <trkpt lat="49.84534" lon="4.80792">
        <ele>350</ele>
        <time>2021-05-15T09:20:05.000Z</time>
      </trkpt>
      <trkpt lat="49.84535" lon="4.80792">
        <ele>350</ele>
        <time>2021-05-15T09:20:06.000Z</time>
      </trkpt>
      <trkpt lat="49.84537" lon="4.80793">
        <ele>350</ele>
        <time>2021-05-15T09:20:07.000Z</time>
      </trkpt>
      <trkpt lat="49.84539" lon="4.80793">
        <ele>350</ele>
        <time>2021-05-15T09:20:08.000Z</time>
      </trkpt>
      <trkpt lat="49.84541" lon="4.80794">
        <ele>351</ele>
        <time>2021-05-15T09:20:09.000Z</time>
      </trkpt>
      <trkpt lat="49.84542" lon="4.80794">
        <ele>351</ele>
        <time>2021-05-15T09:20:10.000Z</time>
      </trkpt>
      <trkpt lat="49.84544" lon="4.80794">
        <ele>351</ele>
        <time>2021-05-15T09:20:11.000Z</time>
      </trkpt>
      <trkpt lat="49.84547" lon="4.80794">
        <ele>351</ele>
        <time>2021-05-15T09:20:12.000Z</time>
      </trkpt>
      <trkpt lat="49.84549" lon="4.80794">
        <ele>351</ele>
        <time>2021-05-15T09:20:13.000Z</time>
      </trkpt>
      <trkpt lat="49.84551" lon="4.80794">
        <ele>351</ele>
        <time>2021-05-15T09:20:14.000Z</time>
      </trkpt>
      <trkpt lat="49.84554" lon="4.80793">
        <ele>352</ele>
        <time>2021-05-15T09:20:15.000Z</time>
      </trkpt>
      <trkpt lat="49.84556" lon="4.80793">
        <ele>352</ele>
        <time>2021-05-15T09:20:16.000Z</time>
      </trkpt>
      <trkpt lat="49.84558" lon="4.80793">
        <ele>352</ele>
        <time>2021-05-15T09:20:17.000Z</time>
      </trkpt>
      <trkpt lat="49.8456" lon="4.80792">
        <ele>352</ele>
        <time>2021-05-15T09:20:18.000Z</time>
      </trkpt>
      <trkpt lat="49.84562" lon="4.8079">
        <ele>352</ele>
        <time>2021-05-15T09:20:19.000Z</time>
      </trkpt>
      <trkpt lat="49.84564" lon="4.80789">
        <ele>353</ele>
        <time>2021-05-15T09:20:20.000Z</time>
      </trkpt>
      <trkpt lat="49.84567" lon="4.80789">
        <ele>353</ele>
        <time>2021-05-15T09:20:21.000Z</time>
      </trkpt>
      <trkpt lat="49.84569" lon="4.80788">
        <ele>353</ele>
        <time>2021-05-15T09:20:22.000Z</time>
      </trkpt>
      <trkpt lat="49.84571" lon="4.80787">
        <ele>353</ele>
        <time>2021-05-15T09:20:23.000Z</time>
      </trkpt>
      <trkpt lat="49.84572" lon="4.80787">
        <ele>354</ele>
        <time>2021-05-15T09:20:24.000Z</time>
      </trkpt>
      <trkpt lat="49.84574" lon="4.80787">
        <ele>354</ele>
        <time>2021-05-15T09:20:25.000Z</time>
      </trkpt>
      <trkpt lat="49.84576" lon="4.80786">
        <ele>354</ele>
        <time>2021-05-15T09:20:26.000Z</time>
      </trkpt>
      <trkpt lat="49.84578" lon="4.80786">
        <ele>354</ele>
        <time>2021-05-15T09:20:27.000Z</time>
      </trkpt>
      <trkpt lat="49.8458" lon="4.80786">
        <ele>354</ele>
        <time>2021-05-15T09:20:28.000Z</time>
      </trkpt>
      <trkpt lat="49.84582" lon="4.80786">
        <ele>354</ele>
        <time>2021-05-15T09:20:29.000Z</time>
      </trkpt>
      <trkpt lat="49.84583" lon="4.80786">
        <ele>355</ele>
        <time>2021-05-15T09:20:30.000Z</time>
      </trkpt>
      <trkpt lat="49.84585" lon="4.80787">
        <ele>355</ele>
        <time>2021-05-15T09:20:31.000Z</time>
      </trkpt>
      <trkpt lat="49.84587" lon="4.80787">
        <ele>355</ele>
        <time>2021-05-15T09:20:32.000Z</time>
      </trkpt>
      <trkpt lat="49.84589" lon="4.80787">
        <ele>355</ele>
        <time>2021-05-15T09:20:33.000Z</time>
      </trkpt>
      <trkpt lat="49.84591" lon="4.80788">
        <ele>356</ele>
        <time>2021-05-15T09:20:34.000Z</time>
      </trkpt>
      <trkpt lat="49.84592" lon="4.80789">
        <ele>356</ele>
        <time>2021-05-15T09:20:35.000Z</time>
      </trkpt>
      <trkpt lat="49.84594" lon="4.80789">
        <ele>356</ele>
        <time>2021-05-15T09:20:36.000Z</time>
      </trkpt>
      <trkpt lat="49.84595" lon="4.80789">
        <ele>356</ele>
        <time>2021-05-15T09:20:37.000Z</time>
      </trkpt>
      <trkpt lat="49.84597" lon="4.80789">
        <ele>356</ele>
        <time>2021-05-15T09:20:38.000Z</time>
      </trkpt>
      <trkpt lat="49.84598" lon="4.80789">
        <ele>357</ele>
        <time>2021-05-15T09:20:39.000Z</time>
      </trkpt>
      <trkpt lat="49.846" lon="4.8079">
        <ele>357</ele>
        <time>2021-05-15T09:20:40.000Z</time>
      </trkpt>
      <trkpt lat="49.84602" lon="4.8079">
        <ele>357</ele>
        <time>2021-05-15T09:20:41.000Z</time>
      </trkpt>
      <trkpt lat="49.84604" lon="4.80789">
        <ele>357</ele>
        <time>2021-05-15T09:20:42.000Z</time>
      </trkpt>
      <trkpt lat="49.84605" lon="4.80789">
        <ele>358</ele>
        <time>2021-05-15T09:20:43.000Z</time>
      </trkpt>
      <trkpt lat="49.84607" lon="4.80788">
        <ele>358</ele>
        <time>2021-05-15T09:20:44.000Z</time>
      </trkpt>
      <trkpt lat="49.84609" lon="4.80788">
        <ele>358</ele>
        <time>2021-05-15T09:20:45.000Z</time>
      </trkpt>
      <trkpt lat="49.84611" lon="4.80787">
        <ele>358</ele>
        <time>2021-05-15T09:20:46.000Z</time>
      </trkpt>
      <trkpt lat="49.84612" lon="4.80787">
        <ele>358</ele>
        <time>2021-05-15T09:20:47.000Z</time>
      </trkpt>
      <trkpt lat="49.84613" lon="4.80786">
        <ele>359</ele>
        <time>2021-05-15T09:20:48.000Z</time>
      </trkpt>
      <trkpt lat="49.84615" lon="4.80785">
        <ele>359</ele>
        <time>2021-05-15T09:20:49.000Z</time>
      </trkpt>
      <trkpt lat="49.84616" lon="4.80784">
        <ele>359</ele>
        <time>2021-05-15T09:20:50.000Z</time>
      </trkpt>
      <trkpt lat="49.84617" lon="4.80783">
        <ele>359</ele>
        <time>2021-05-15T09:20:51.000Z</time>
      </trkpt>
      <trkpt lat="49.84619" lon="4.80781">
        <ele>360</ele>
        <time>2021-05-15T09:20:52.000Z</time>
      </trkpt>
      <trkpt lat="49.8462" lon="4.8078">
        <ele>360</ele>
        <time>2021-05-15T09:20:53.000Z</time>
      </trkpt>
      <trkpt lat="49.84622" lon="4.80779">
        <ele>360</ele>
        <time>2021-05-15T09:20:54.000Z</time>
      </trkpt>
      <trkpt lat="49.84623" lon="4.80777">
        <ele>360</ele>
        <time>2021-05-15T09:20:55.000Z</time>
      </trkpt>
      <trkpt lat="49.84625" lon="4.80776">
        <ele>360</ele>
        <time>2021-05-15T09:20:56.000Z</time>
      </trkpt>
      <trkpt lat="49.84626" lon="4.80774">
        <ele>361</ele>
        <time>2021-05-15T09:20:57.000Z</time>
      </trkpt>
      <trkpt lat="49.84627" lon="4.80772">
        <ele>361</ele>
        <time>2021-05-15T09:20:58.000Z</time>
      </trkpt>
      <trkpt lat="49.84629" lon="4.8077">
        <ele>361</ele>
        <time>2021-05-15T09:20:59.000Z</time>
      </trkpt>
      <trkpt lat="49.8463" lon="4.80768">
        <ele>361</ele>
        <time>2021-05-15T09:21:00.000Z</time>
      </trkpt>
      <trkpt lat="49.84632" lon="4.80765">
        <ele>362</ele>
        <time>2021-05-15T09:21:01.000Z</time>
      </trkpt>
      <trkpt lat="49.84633" lon="4.80762">
        <ele>362</ele>
        <time>2021-05-15T09:21:02.000Z</time>
      </trkpt>
      <trkpt lat="49.84635" lon="4.8076">
        <ele>362</ele>
        <time>2021-05-15T09:21:03.000Z</time>
      </trkpt>
      <trkpt lat="49.84637" lon="4.80757">
        <ele>362</ele>
        <time>2021-05-15T09:21:04.000Z</time>
      </trkpt>
      <trkpt lat="49.84639" lon="4.80755">
        <ele>362</ele>
        <time>2021-05-15T09:21:05.000Z</time>
      </trkpt>
      <trkpt lat="49.84641" lon="4.80753">
        <ele>362</ele>
        <time>2021-05-15T09:21:06.000Z</time>
      </trkpt>
      <trkpt lat="49.84643" lon="4.80751">
        <ele>362</ele>
        <time>2021-05-15T09:21:07.000Z</time>
      </trkpt>
      <trkpt lat="49.84644" lon="4.8075">
        <ele>363</ele>
        <time>2021-05-15T09:21:08.000Z</time>
      </trkpt>
      <trkpt lat="49.84646" lon="4.80749">
        <ele>363</ele>
        <time>2021-05-15T09:21:09.000Z</time>
      </trkpt>
      <trkpt lat="49.84648" lon="4.80747">
        <ele>363</ele>
        <time>2021-05-15T09:21:10.000Z</time>
      </trkpt>
      <trkpt lat="49.84649" lon="4.80746">
        <ele>363</ele>
        <time>2021-05-15T09:21:11.000Z</time>
      </trkpt>
      <trkpt lat="49.84651" lon="4.80745">
        <ele>363</ele>
        <time>2021-05-15T09:21:12.000Z</time>
      </trkpt>
      <trkpt lat="49.84652" lon="4.80743">
        <ele>363</ele>
        <time>2021-05-15T09:21:13.000Z</time>
      </trkpt>
      <trkpt lat="49.84654" lon="4.80742">
        <ele>363</ele>
        <time>2021-05-15T09:21:14.000Z</time>
      </trkpt>
      <trkpt lat="49.84656" lon="4.80741">
        <ele>364</ele>
        <time>2021-05-15T09:21:15.000Z</time>
      </trkpt>
      <trkpt lat="49.84658" lon="4.8074">
        <ele>364</ele>
        <time>2021-05-15T09:21:16.000Z</time>
      </trkpt>
      <trkpt lat="49.84659" lon="4.80739">
        <ele>364</ele>
        <time>2021-05-15T09:21:17.000Z</time>
      </trkpt>
      <trkpt lat="49.84661" lon="4.80738">
        <ele>364</ele>
        <time>2021-05-15T09:21:18.000Z</time>
      </trkpt>
      <trkpt lat="49.84663" lon="4.80736">
        <ele>365</ele>
        <time>2021-05-15T09:21:19.000Z</time>
      </trkpt>
      <trkpt lat="49.84665" lon="4.80735">
        <ele>365</ele>
        <time>2021-05-15T09:21:20.000Z</time>
      </trkpt>
      <trkpt lat="49.84666" lon="4.80735">
        <ele>365</ele>
        <time>2021-05-15T09:21:21.000Z</time>
      </trkpt>
      <trkpt lat="49.84668" lon="4.80734">
        <ele>366</ele>
        <time>2021-05-15T09:21:22.000Z</time>
      </trkpt>
      <trkpt lat="49.8467" lon="4.80734">
        <ele>366</ele>
        <time>2021-05-15T09:21:23.000Z</time>
      </trkpt>
      <trkpt lat="49.84671" lon="4.80733">
        <ele>366</ele>
        <time>2021-05-15T09:21:24.000Z</time>
      </trkpt>
      <trkpt lat="49.84673" lon="4.80732">
        <ele>367</ele>
        <time>2021-05-15T09:21:25.000Z</time>
      </trkpt>
      <trkpt lat="49.84675" lon="4.80731">
        <ele>367</ele>
        <time>2021-05-15T09:21:26.000Z</time>
      </trkpt>
      <trkpt lat="49.84677" lon="4.8073">
        <ele>368</ele>
        <time>2021-05-15T09:21:27.000Z</time>
      </trkpt>
      <trkpt lat="49.84679" lon="4.8073">
        <ele>368</ele>
        <time>2021-05-15T09:21:28.000Z</time>
      </trkpt>
      <trkpt lat="49.8468" lon="4.80729">
        <ele>368</ele>
        <time>2021-05-15T09:21:29.000Z</time>
      </trkpt>
      <trkpt lat="49.84682" lon="4.80728">
        <ele>369</ele>
        <time>2021-05-15T09:21:30.000Z</time>
      </trkpt>
      <trkpt lat="49.84684" lon="4.80727">
        <ele>369</ele>
        <time>2021-05-15T09:21:31.000Z</time>
      </trkpt>
      <trkpt lat="49.84685" lon="4.80725">
        <ele>369</ele>
        <time>2021-05-15T09:21:32.000Z</time>
      </trkpt>
      <trkpt lat="49.84687" lon="4.80723">
        <ele>370</ele>
        <time>2021-05-15T09:21:33.000Z</time>
      </trkpt>
      <trkpt lat="49.84689" lon="4.80721">
        <ele>370</ele>
        <time>2021-05-15T09:21:34.000Z</time>
      </trkpt>
      <trkpt lat="49.84691" lon="4.80719">
        <ele>371</ele>
        <time>2021-05-15T09:21:35.000Z</time>
      </trkpt>
      <trkpt lat="49.84693" lon="4.80718">
        <ele>371</ele>
        <time>2021-05-15T09:21:36.000Z</time>
      </trkpt>
      <trkpt lat="49.84694" lon="4.80716">
        <ele>371</ele>
        <time>2021-05-15T09:21:37.000Z</time>
      </trkpt>
      <trkpt lat="49.84696" lon="4.80714">
        <ele>371</ele>
        <time>2021-05-15T09:21:38.000Z</time>
      </trkpt>
      <trkpt lat="49.84697" lon="4.80713">
        <ele>372</ele>
        <time>2021-05-15T09:21:39.000Z</time>
      </trkpt>
      <trkpt lat="49.84699" lon="4.80711">
        <ele>372</ele>
        <time>2021-05-15T09:21:40.000Z</time>
      </trkpt>
      <trkpt lat="49.847" lon="4.8071">
        <ele>372</ele>
        <time>2021-05-15T09:21:41.000Z</time>
      </trkpt>
      <trkpt lat="49.84702" lon="4.80708">
        <ele>372</ele>
        <time>2021-05-15T09:21:42.000Z</time>
      </trkpt>
      <trkpt lat="49.84703" lon="4.80707">
        <ele>372</ele>
        <time>2021-05-15T09:21:43.000Z</time>
      </trkpt>
      <trkpt lat="49.84705" lon="4.80705">
        <ele>373</ele>
        <time>2021-05-15T09:21:44.000Z</time>
      </trkpt>
      <trkpt lat="49.84707" lon="4.80704">
        <ele>373</ele>
        <time>2021-05-15T09:21:45.000Z</time>
      </trkpt>
      <trkpt lat="49.84709" lon="4.80703">
        <ele>373</ele>
        <time>2021-05-15T09:21:46.000Z</time>
      </trkpt>
      <trkpt lat="49.84711" lon="4.80702">
        <ele>373</ele>
        <time>2021-05-15T09:21:47.000Z</time>
      </trkpt>
      <trkpt lat="49.84713" lon="4.80701">
        <ele>374</ele>
        <time>2021-05-15T09:21:48.000Z</time>
      </trkpt>
      <trkpt lat="49.84715" lon="4.807">
        <ele>374</ele>
        <time>2021-05-15T09:21:49.000Z</time>
      </trkpt>
      <trkpt lat="49.84717" lon="4.80699">
        <ele>374</ele>
        <time>2021-05-15T09:21:50.000Z</time>
      </trkpt>
      <trkpt lat="49.84719" lon="4.80698">
        <ele>374</ele>
        <time>2021-05-15T09:21:51.000Z</time>
      </trkpt>
      <trkpt lat="49.8472" lon="4.80697">
        <ele>375</ele>
        <time>2021-05-15T09:21:52.000Z</time>
      </trkpt>
      <trkpt lat="49.84722" lon="4.80695">
        <ele>375</ele>
        <time>2021-05-15T09:21:53.000Z</time>
      </trkpt>
      <trkpt lat="49.84724" lon="4.80694">
        <ele>375</ele>
        <time>2021-05-15T09:21:54.000Z</time>
      </trkpt>
      <trkpt lat="49.84726" lon="4.80692">
        <ele>375</ele>
        <time>2021-05-15T09:21:55.000Z</time>
      </trkpt>
      <trkpt lat="49.84728" lon="4.8069">
        <ele>375</ele>
        <time>2021-05-15T09:21:56.000Z</time>
      </trkpt>
      <trkpt lat="49.8473" lon="4.80688">
        <ele>375</ele>
        <time>2021-05-15T09:21:57.000Z</time>
      </trkpt>
      <trkpt lat="49.84732" lon="4.80686">
        <ele>376</ele>
        <time>2021-05-15T09:21:58.000Z</time>
      </trkpt>
      <trkpt lat="49.84734" lon="4.80685">
        <ele>376</ele>
        <time>2021-05-15T09:21:59.000Z</time>
      </trkpt>
      <trkpt lat="49.84736" lon="4.80683">
        <ele>376</ele>
        <time>2021-05-15T09:22:00.000Z</time>
      </trkpt>
      <trkpt lat="49.84738" lon="4.8068">
        <ele>376</ele>
        <time>2021-05-15T09:22:01.000Z</time>
      </trkpt>
      <trkpt lat="49.8474" lon="4.80678">
        <ele>376</ele>
        <time>2021-05-15T09:22:02.000Z</time>
      </trkpt>
      <trkpt lat="49.84742" lon="4.80676">
        <ele>377</ele>
        <time>2021-05-15T09:22:03.000Z</time>
      </trkpt>
      <trkpt lat="49.84745" lon="4.80674">
        <ele>377</ele>
        <time>2021-05-15T09:22:04.000Z</time>
      </trkpt>
      <trkpt lat="49.84747" lon="4.80673">
        <ele>377</ele>
        <time>2021-05-15T09:22:05.000Z</time>
      </trkpt>
      <trkpt lat="49.84748" lon="4.80671">
        <ele>377</ele>
        <time>2021-05-15T09:22:06.000Z</time>
      </trkpt>
      <trkpt lat="49.8475" lon="4.8067">
        <ele>378</ele>
        <time>2021-05-15T09:22:07.000Z</time>
      </trkpt>
      <trkpt lat="49.84751" lon="4.80667">
        <ele>378</ele>
        <time>2021-05-15T09:22:08.000Z</time>
      </trkpt>
      <trkpt lat="49.84753" lon="4.80665">
        <ele>378</ele>
        <time>2021-05-15T09:22:09.000Z</time>
      </trkpt>
      <trkpt lat="49.84754" lon="4.80662">
        <ele>378</ele>
        <time>2021-05-15T09:22:10.000Z</time>
      </trkpt>
      <trkpt lat="49.84756" lon="4.8066">
        <ele>379</ele>
        <time>2021-05-15T09:22:11.000Z</time>
      </trkpt>
      <trkpt lat="49.84757" lon="4.80657">
        <ele>379</ele>
        <time>2021-05-15T09:22:12.000Z</time>
      </trkpt>
      <trkpt lat="49.84759" lon="4.80653">
        <ele>379</ele>
        <time>2021-05-15T09:22:13.000Z</time>
      </trkpt>
      <trkpt lat="49.8476" lon="4.80651">
        <ele>379</ele>
        <time>2021-05-15T09:22:14.000Z</time>
      </trkpt>
      <trkpt lat="49.84762" lon="4.80649">
        <ele>380</ele>
        <time>2021-05-15T09:22:15.000Z</time>
      </trkpt>
      <trkpt lat="49.84765" lon="4.80649">
        <ele>380</ele>
        <time>2021-05-15T09:22:16.000Z</time>
      </trkpt>
      <trkpt lat="49.84767" lon="4.8065">
        <ele>380</ele>
        <time>2021-05-15T09:22:17.000Z</time>
      </trkpt>
      <trkpt lat="49.84769" lon="4.80652">
        <ele>380</ele>
        <time>2021-05-15T09:22:18.000Z</time>
      </trkpt>
      <trkpt lat="49.84771" lon="4.80655">
        <ele>380</ele>
        <time>2021-05-15T09:22:19.000Z</time>
      </trkpt>
      <trkpt lat="49.84773" lon="4.80659">
        <ele>380</ele>
        <time>2021-05-15T09:22:20.000Z</time>
      </trkpt>
      <trkpt lat="49.84774" lon="4.80664">
        <ele>381</ele>
        <time>2021-05-15T09:22:21.000Z</time>
      </trkpt>
      <trkpt lat="49.84776" lon="4.80668">
        <ele>381</ele>
        <time>2021-05-15T09:22:22.000Z</time>
      </trkpt>
      <trkpt lat="49.84778" lon="4.80673">
        <ele>381</ele>
        <time>2021-05-15T09:22:23.000Z</time>
      </trkpt>
      <trkpt lat="49.8478" lon="4.80678">
        <ele>381</ele>
        <time>2021-05-15T09:22:24.000Z</time>
      </trkpt>
      <trkpt lat="49.84782" lon="4.80684">
        <ele>381</ele>
        <time>2021-05-15T09:22:25.000Z</time>
      </trkpt>
      <trkpt lat="49.84783" lon="4.8069">
        <ele>381</ele>
        <time>2021-05-15T09:22:26.000Z</time>
      </trkpt>
      <trkpt lat="49.84785" lon="4.80696">
        <ele>381</ele>
        <time>2021-05-15T09:22:27.000Z</time>
      </trkpt>
      <trkpt lat="49.84787" lon="4.80702">
        <ele>381</ele>
        <time>2021-05-15T09:22:28.000Z</time>
      </trkpt>
      <trkpt lat="49.8479" lon="4.80709">
        <ele>381</ele>
        <time>2021-05-15T09:22:29.000Z</time>
      </trkpt>
      <trkpt lat="49.84792" lon="4.80715">
        <ele>381</ele>
        <time>2021-05-15T09:22:30.000Z</time>
      </trkpt>
      <trkpt lat="49.84793" lon="4.80721">
        <ele>381</ele>
        <time>2021-05-15T09:22:31.000Z</time>
      </trkpt>
      <trkpt lat="49.84795" lon="4.80727">
        <ele>381</ele>
        <time>2021-05-15T09:22:32.000Z</time>
      </trkpt>
      <trkpt lat="49.84797" lon="4.80732">
        <ele>381</ele>
        <time>2021-05-15T09:22:33.000Z</time>
      </trkpt>
      <trkpt lat="49.84799" lon="4.80738">
        <ele>381</ele>
        <time>2021-05-15T09:22:34.000Z</time>
      </trkpt>
      <trkpt lat="49.84801" lon="4.80743">
        <ele>381</ele>
        <time>2021-05-15T09:22:35.000Z</time>
      </trkpt>
      <trkpt lat="49.84803" lon="4.80749">
        <ele>381</ele>
        <time>2021-05-15T09:22:36.000Z</time>
      </trkpt>
      <trkpt lat="49.84805" lon="4.80754">
        <ele>382</ele>
        <time>2021-05-15T09:22:37.000Z</time>
      </trkpt>
      <trkpt lat="49.84808" lon="4.80759">
        <ele>382</ele>
        <time>2021-05-15T09:22:38.000Z</time>
      </trkpt>
      <trkpt lat="49.84811" lon="4.80763">
        <ele>381</ele>
        <time>2021-05-15T09:22:39.000Z</time>
      </trkpt>
      <trkpt lat="49.84815" lon="4.80767">
        <ele>381</ele>
        <time>2021-05-15T09:22:40.000Z</time>
      </trkpt>
      <trkpt lat="49.84818" lon="4.8077">
        <ele>381</ele>
        <time>2021-05-15T09:22:41.000Z</time>
      </trkpt>
      <trkpt lat="49.84822" lon="4.80773">
        <ele>381</ele>
        <time>2021-05-15T09:22:42.000Z</time>
      </trkpt>
      <trkpt lat="49.84826" lon="4.80777">
        <ele>381</ele>
        <time>2021-05-15T09:22:43.000Z</time>
      </trkpt>
      <trkpt lat="49.84828" lon="4.80779">
        <ele>381</ele>
        <time>2021-05-15T09:22:44.000Z</time>
      </trkpt>
      <trkpt lat="49.84831" lon="4.80781">
        <ele>381</ele>
        <time>2021-05-15T09:22:45.000Z</time>
      </trkpt>
      <trkpt lat="49.84833" lon="4.80785">
        <ele>381</ele>
        <time>2021-05-15T09:22:46.000Z</time>
      </trkpt>
      <trkpt lat="49.84836" lon="4.80789">
        <ele>381</ele>
        <time>2021-05-15T09:22:47.000Z</time>
      </trkpt>
      <trkpt lat="49.84839" lon="4.80793">
        <ele>381</ele>
        <time>2021-05-15T09:22:48.000Z</time>
      </trkpt>
      <trkpt lat="49.84842" lon="4.80798">
        <ele>381</ele>
        <time>2021-05-15T09:22:49.000Z</time>
      </trkpt>
      <trkpt lat="49.84844" lon="4.80803">
        <ele>381</ele>
        <time>2021-05-15T09:22:50.000Z</time>
      </trkpt>
      <trkpt lat="49.84847" lon="4.80808">
        <ele>382</ele>
        <time>2021-05-15T09:22:51.000Z</time>
      </trkpt>
      <trkpt lat="49.8485" lon="4.80814">
        <ele>382</ele>
        <time>2021-05-15T09:22:52.000Z</time>
      </trkpt>
      <trkpt lat="49.84853" lon="4.8082">
        <ele>382</ele>
        <time>2021-05-15T09:22:53.000Z</time>
      </trkpt>
      <trkpt lat="49.84857" lon="4.80825">
        <ele>382</ele>
        <time>2021-05-15T09:22:54.000Z</time>
      </trkpt>
      <trkpt lat="49.84861" lon="4.80831">
        <ele>382</ele>
        <time>2021-05-15T09:22:55.000Z</time>
      </trkpt>
      <trkpt lat="49.84865" lon="4.80837">
        <ele>382</ele>
        <time>2021-05-15T09:22:56.000Z</time>
      </trkpt>
      <trkpt lat="49.84868" lon="4.80844">
        <ele>382</ele>
        <time>2021-05-15T09:22:57.000Z</time>
      </trkpt>
      <trkpt lat="49.84873" lon="4.80851">
        <ele>382</ele>
        <time>2021-05-15T09:22:58.000Z</time>
      </trkpt>
      <trkpt lat="49.84877" lon="4.80857">
        <ele>382</ele>
        <time>2021-05-15T09:22:59.000Z</time>
      </trkpt>
      <trkpt lat="49.84882" lon="4.80864">
        <ele>382</ele>
        <time>2021-05-15T09:23:00.000Z</time>
      </trkpt>
      <trkpt lat="49.84886" lon="4.80871">
        <ele>382</ele>
        <time>2021-05-15T09:23:01.000Z</time>
      </trkpt>
      <trkpt lat="49.84891" lon="4.80877">
        <ele>382</ele>
        <time>2021-05-15T09:23:02.000Z</time>
      </trkpt>
      <trkpt lat="49.84895" lon="4.80883">
        <ele>382</ele>
        <time>2021-05-15T09:23:03.000Z</time>
      </trkpt>
      <trkpt lat="49.84899" lon="4.80888">
        <ele>382</ele>
        <time>2021-05-15T09:23:04.000Z</time>
      </trkpt>
      <trkpt lat="49.84903" lon="4.80892">
        <ele>382</ele>
        <time>2021-05-15T09:23:05.000Z</time>
      </trkpt>
      <trkpt lat="49.84905" lon="4.80895">
        <ele>382</ele>
        <time>2021-05-15T09:23:06.000Z</time>
      </trkpt>
      <trkpt lat="49.84907" lon="4.80898">
        <ele>382</ele>
        <time>2021-05-15T09:23:07.000Z</time>
      </trkpt>
      <trkpt lat="49.8491" lon="4.809">
        <ele>382</ele>
        <time>2021-05-15T09:23:08.000Z</time>
      </trkpt>
      <trkpt lat="49.84911" lon="4.80904">
        <ele>382</ele>
        <time>2021-05-15T09:23:09.000Z</time>
      </trkpt>
      <trkpt lat="49.84912" lon="4.80907">
        <ele>381</ele>
        <time>2021-05-15T09:23:10.000Z</time>
      </trkpt>
      <trkpt lat="49.84914" lon="4.8091">
        <ele>381</ele>
        <time>2021-05-15T09:23:11.000Z</time>
      </trkpt>
      <trkpt lat="49.84915" lon="4.80913">
        <ele>381</ele>
        <time>2021-05-15T09:23:12.000Z</time>
      </trkpt>
      <trkpt lat="49.84917" lon="4.80917">
        <ele>381</ele>
        <time>2021-05-15T09:23:13.000Z</time>
      </trkpt>
      <trkpt lat="49.8492" lon="4.8092">
        <ele>381</ele>
        <time>2021-05-15T09:23:14.000Z</time>
      </trkpt>
      <trkpt lat="49.84923" lon="4.80924">
        <ele>381</ele>
        <time>2021-05-15T09:23:15.000Z</time>
      </trkpt>
      <trkpt lat="49.84925" lon="4.80929">
        <ele>381</ele>
        <time>2021-05-15T09:23:16.000Z</time>
      </trkpt>
      <trkpt lat="49.84926" lon="4.80935">
        <ele>381</ele>
        <time>2021-05-15T09:23:17.000Z</time>
      </trkpt>
      <trkpt lat="49.84928" lon="4.8094">
        <ele>381</ele>
        <time>2021-05-15T09:23:18.000Z</time>
      </trkpt>
      <trkpt lat="49.8493" lon="4.80945">
        <ele>381</ele>
        <time>2021-05-15T09:23:19.000Z</time>
      </trkpt>
      <trkpt lat="49.84931" lon="4.80951">
        <ele>381</ele>
        <time>2021-05-15T09:23:20.000Z</time>
      </trkpt>
      <trkpt lat="49.84934" lon="4.80957">
        <ele>381</ele>
        <time>2021-05-15T09:23:21.000Z</time>
      </trkpt>
      <trkpt lat="49.84936" lon="4.80963">
        <ele>381</ele>
        <time>2021-05-15T09:23:22.000Z</time>
      </trkpt>
      <trkpt lat="49.84939" lon="4.80969">
        <ele>381</ele>
        <time>2021-05-15T09:23:23.000Z</time>
      </trkpt>
      <trkpt lat="49.84941" lon="4.80975">
        <ele>381</ele>
        <time>2021-05-15T09:23:24.000Z</time>
      </trkpt>
      <trkpt lat="49.84943" lon="4.8098">
        <ele>381</ele>
        <time>2021-05-15T09:23:25.000Z</time>
      </trkpt>
      <trkpt lat="49.84945" lon="4.80986">
        <ele>381</ele>
        <time>2021-05-15T09:23:26.000Z</time>
      </trkpt>
      <trkpt lat="49.84947" lon="4.80992">
        <ele>381</ele>
        <time>2021-05-15T09:23:27.000Z</time>
      </trkpt>
      <trkpt lat="49.84949" lon="4.80999">
        <ele>381</ele>
        <time>2021-05-15T09:23:28.000Z</time>
      </trkpt>
      <trkpt lat="49.84951" lon="4.81005">
        <ele>381</ele>
        <time>2021-05-15T09:23:29.000Z</time>
      </trkpt>
      <trkpt lat="49.84953" lon="4.81011">
        <ele>381</ele>
        <time>2021-05-15T09:23:30.000Z</time>
      </trkpt>
      <trkpt lat="49.84955" lon="4.81017">
        <ele>381</ele>
        <time>2021-05-15T09:23:31.000Z</time>
      </trkpt>
      <trkpt lat="49.84958" lon="4.81022">
        <ele>381</ele>
        <time>2021-05-15T09:23:32.000Z</time>
      </trkpt>
      <trkpt lat="49.8496" lon="4.81028">
        <ele>381</ele>
        <time>2021-05-15T09:23:33.000Z</time>
      </trkpt>
      <trkpt lat="49.84961" lon="4.81034">
        <ele>381</ele>
        <time>2021-05-15T09:23:34.000Z</time>
      </trkpt>
      <trkpt lat="49.84964" lon="4.81039">
        <ele>381</ele>
        <time>2021-05-15T09:23:35.000Z</time>
      </trkpt>
      <trkpt lat="49.84966" lon="4.81044">
        <ele>381</ele>
        <time>2021-05-15T09:23:36.000Z</time>
      </trkpt>
      <trkpt lat="49.84968" lon="4.8105">
        <ele>381</ele>
        <time>2021-05-15T09:23:37.000Z</time>
      </trkpt>
      <trkpt lat="49.8497" lon="4.81056">
        <ele>381</ele>
        <time>2021-05-15T09:23:38.000Z</time>
      </trkpt>
      <trkpt lat="49.84973" lon="4.81062">
        <ele>381</ele>
        <time>2021-05-15T09:23:39.000Z</time>
      </trkpt>
      <trkpt lat="49.84975" lon="4.81069">
        <ele>381</ele>
        <time>2021-05-15T09:23:40.000Z</time>
      </trkpt>
      <trkpt lat="49.84977" lon="4.81075">
        <ele>381</ele>
        <time>2021-05-15T09:23:41.000Z</time>
      </trkpt>
      <trkpt lat="49.84979" lon="4.81081">
        <ele>381</ele>
        <time>2021-05-15T09:23:42.000Z</time>
      </trkpt>
      <trkpt lat="49.84982" lon="4.81088">
        <ele>381</ele>
        <time>2021-05-15T09:23:43.000Z</time>
      </trkpt>
      <trkpt lat="49.84984" lon="4.81095">
        <ele>381</ele>
        <time>2021-05-15T09:23:44.000Z</time>
      </trkpt>
      <trkpt lat="49.84987" lon="4.81101">
        <ele>381</ele>
        <time>2021-05-15T09:23:45.000Z</time>
      </trkpt>
      <trkpt lat="49.8499" lon="4.81107">
        <ele>381</ele>
        <time>2021-05-15T09:23:46.000Z</time>
      </trkpt>
      <trkpt lat="49.84992" lon="4.81113">
        <ele>381</ele>
        <time>2021-05-15T09:23:47.000Z</time>
      </trkpt>
      <trkpt lat="49.84995" lon="4.81119">
        <ele>381</ele>
        <time>2021-05-15T09:23:48.000Z</time>
      </trkpt>
      <trkpt lat="49.84998" lon="4.81124">
        <ele>381</ele>
        <time>2021-05-15T09:23:49.000Z</time>
      </trkpt>
      <trkpt lat="49.85" lon="4.8113">
        <ele>381</ele>
        <time>2021-05-15T09:23:50.000Z</time>
      </trkpt>
      <trkpt lat="49.85003" lon="4.81136">
        <ele>381</ele>
        <time>2021-05-15T09:23:51.000Z</time>
      </trkpt>
      <trkpt lat="49.85006" lon="4.81141">
        <ele>381</ele>
        <time>2021-05-15T09:23:52.000Z</time>
      </trkpt>
      <trkpt lat="49.85008" lon="4.81147">
        <ele>381</ele>
        <time>2021-05-15T09:23:53.000Z</time>
      </trkpt>
      <trkpt lat="49.85011" lon="4.81152">
        <ele>381</ele>
        <time>2021-05-15T09:23:54.000Z</time>
      </trkpt>
      <trkpt lat="49.85014" lon="4.81158">
        <ele>381</ele>
        <time>2021-05-15T09:23:55.000Z</time>
      </trkpt>
      <trkpt lat="49.85017" lon="4.81163">
        <ele>381</ele>
        <time>2021-05-15T09:23:56.000Z</time>
      </trkpt>
      <trkpt lat="49.85021" lon="4.81169">
        <ele>381</ele>
        <time>2021-05-15T09:23:57.000Z</time>
      </trkpt>
      <trkpt lat="49.85024" lon="4.81174">
        <ele>381</ele>
        <time>2021-05-15T09:23:58.000Z</time>
      </trkpt>
      <trkpt lat="49.85028" lon="4.8118">
        <ele>381</ele>
        <time>2021-05-15T09:23:59.000Z</time>
      </trkpt>
      <trkpt lat="49.85031" lon="4.81186">
        <ele>381</ele>
        <time>2021-05-15T09:24:00.000Z</time>
      </trkpt>
      <trkpt lat="49.85035" lon="4.81192">
        <ele>381</ele>
        <time>2021-05-15T09:24:01.000Z</time>
      </trkpt>
      <trkpt lat="49.85038" lon="4.81198">
        <ele>381</ele>
        <time>2021-05-15T09:24:02.000Z</time>
      </trkpt>
      <trkpt lat="49.85042" lon="4.81204">
        <ele>381</ele>
        <time>2021-05-15T09:24:03.000Z</time>
      </trkpt>
      <trkpt lat="49.85045" lon="4.8121">
        <ele>381</ele>
        <time>2021-05-15T09:24:04.000Z</time>
      </trkpt>
      <trkpt lat="49.85048" lon="4.81217">
        <ele>380</ele>
        <time>2021-05-15T09:24:05.000Z</time>
      </trkpt>
      <trkpt lat="49.85051" lon="4.81222">
        <ele>380</ele>
        <time>2021-05-15T09:24:06.000Z</time>
      </trkpt>
      <trkpt lat="49.85055" lon="4.81228">
        <ele>380</ele>
        <time>2021-05-15T09:24:07.000Z</time>
      </trkpt>
      <trkpt lat="49.85058" lon="4.81232">
        <ele>380</ele>
        <time>2021-05-15T09:24:08.000Z</time>
      </trkpt>
      <trkpt lat="49.85062" lon="4.81237">
        <ele>380</ele>
        <time>2021-05-15T09:24:09.000Z</time>
      </trkpt>
      <trkpt lat="49.85065" lon="4.81242">
        <ele>380</ele>
        <time>2021-05-15T09:24:10.000Z</time>
      </trkpt>
      <trkpt lat="49.85068" lon="4.81247">
        <ele>380</ele>
        <time>2021-05-15T09:24:11.000Z</time>
      </trkpt>
      <trkpt lat="49.85072" lon="4.81252">
        <ele>380</ele>
        <time>2021-05-15T09:24:12.000Z</time>
      </trkpt>
      <trkpt lat="49.85075" lon="4.81257">
        <ele>380</ele>
        <time>2021-05-15T09:24:13.000Z</time>
      </trkpt>
      <trkpt lat="49.85078" lon="4.81262">
        <ele>380</ele>
        <time>2021-05-15T09:24:14.000Z</time>
      </trkpt>
      <trkpt lat="49.85081" lon="4.81266">
        <ele>380</ele>
        <time>2021-05-15T09:24:15.000Z</time>
      </trkpt>
      <trkpt lat="49.85084" lon="4.8127">
        <ele>380</ele>
        <time>2021-05-15T09:24:16.000Z</time>
      </trkpt>
      <trkpt lat="49.85087" lon="4.81274">
        <ele>380</ele>
        <time>2021-05-15T09:24:17.000Z</time>
      </trkpt>
      <trkpt lat="49.85091" lon="4.81279">
        <ele>380</ele>
        <time>2021-05-15T09:24:18.000Z</time>
      </trkpt>
      <trkpt lat="49.85094" lon="4.81283">
        <ele>380</ele>
        <time>2021-05-15T09:24:19.000Z</time>
      </trkpt>
      <trkpt lat="49.85098" lon="4.81288">
        <ele>380</ele>
        <time>2021-05-15T09:24:20.000Z</time>
      </trkpt>
      <trkpt lat="49.85101" lon="4.81294">
        <ele>380</ele>
        <time>2021-05-15T09:24:21.000Z</time>
      </trkpt>
      <trkpt lat="49.85105" lon="4.81299">
        <ele>380</ele>
        <time>2021-05-15T09:24:22.000Z</time>
      </trkpt>
      <trkpt lat="49.85107" lon="4.81305">
        <ele>380</ele>
        <time>2021-05-15T09:24:23.000Z</time>
      </trkpt>
      <trkpt lat="49.8511" lon="4.81311">
        <ele>380</ele>
        <time>2021-05-15T09:24:24.000Z</time>
      </trkpt>
      <trkpt lat="49.85113" lon="4.81316">
        <ele>380</ele>
        <time>2021-05-15T09:24:25.000Z</time>
      </trkpt>
      <trkpt lat="49.85116" lon="4.81321">
        <ele>380</ele>
        <time>2021-05-15T09:24:26.000Z</time>
      </trkpt>
      <trkpt lat="49.85118" lon="4.81326">
        <ele>380</ele>
        <time>2021-05-15T09:24:27.000Z</time>
      </trkpt>
      <trkpt lat="49.85121" lon="4.81331">
        <ele>380</ele>
        <time>2021-05-15T09:24:28.000Z</time>
      </trkpt>
      <trkpt lat="49.85124" lon="4.81336">
        <ele>381</ele>
        <time>2021-05-15T09:24:29.000Z</time>
      </trkpt>
      <trkpt lat="49.85126" lon="4.8134">
        <ele>381</ele>
        <time>2021-05-15T09:24:30.000Z</time>
      </trkpt>
      <trkpt lat="49.85129" lon="4.81346">
        <ele>381</ele>
        <time>2021-05-15T09:24:31.000Z</time>
      </trkpt>
      <trkpt lat="49.85131" lon="4.81352">
        <ele>381</ele>
        <time>2021-05-15T09:24:32.000Z</time>
      </trkpt>
      <trkpt lat="49.85134" lon="4.81358">
        <ele>381</ele>
        <time>2021-05-15T09:24:33.000Z</time>
      </trkpt>
      <trkpt lat="49.85136" lon="4.81365">
        <ele>381</ele>
        <time>2021-05-15T09:24:34.000Z</time>
      </trkpt>
      <trkpt lat="49.85137" lon="4.81371">
        <ele>381</ele>
        <time>2021-05-15T09:24:35.000Z</time>
      </trkpt>
      <trkpt lat="49.85139" lon="4.81377">
        <ele>381</ele>
        <time>2021-05-15T09:24:36.000Z</time>
      </trkpt>
      <trkpt lat="49.8514" lon="4.81384">
        <ele>381</ele>
        <time>2021-05-15T09:24:37.000Z</time>
      </trkpt>
      <trkpt lat="49.85142" lon="4.8139">
        <ele>381</ele>
        <time>2021-05-15T09:24:38.000Z</time>
      </trkpt>
      <trkpt lat="49.85143" lon="4.81397">
        <ele>381</ele>
        <time>2021-05-15T09:24:39.000Z</time>
      </trkpt>
      <trkpt lat="49.85144" lon="4.81405">
        <ele>381</ele>
        <time>2021-05-15T09:24:40.000Z</time>
      </trkpt>
      <trkpt lat="49.85146" lon="4.81413">
        <ele>381</ele>
        <time>2021-05-15T09:24:41.000Z</time>
      </trkpt>
      <trkpt lat="49.85146" lon="4.81422">
        <ele>382</ele>
        <time>2021-05-15T09:24:42.000Z</time>
      </trkpt>
      <trkpt lat="49.85147" lon="4.8143">
        <ele>382</ele>
        <time>2021-05-15T09:24:43.000Z</time>
      </trkpt>
      <trkpt lat="49.85148" lon="4.81439">
        <ele>382</ele>
        <time>2021-05-15T09:24:44.000Z</time>
      </trkpt>
      <trkpt lat="49.85148" lon="4.81447">
        <ele>382</ele>
        <time>2021-05-15T09:24:45.000Z</time>
      </trkpt>
      <trkpt lat="49.85148" lon="4.81455">
        <ele>382</ele>
        <time>2021-05-15T09:24:46.000Z</time>
      </trkpt>
      <trkpt lat="49.85148" lon="4.81463">
        <ele>382</ele>
        <time>2021-05-15T09:24:47.000Z</time>
      </trkpt>
      <trkpt lat="49.85147" lon="4.8147">
        <ele>382</ele>
        <time>2021-05-15T09:24:48.000Z</time>
      </trkpt>
      <trkpt lat="49.85146" lon="4.81478">
        <ele>382</ele>
        <time>2021-05-15T09:24:49.000Z</time>
      </trkpt>
      <trkpt lat="49.85145" lon="4.81486">
        <ele>383</ele>
        <time>2021-05-15T09:24:50.000Z</time>
      </trkpt>
      <trkpt lat="49.85145" lon="4.81494">
        <ele>383</ele>
        <time>2021-05-15T09:24:51.000Z</time>
      </trkpt>
      <trkpt lat="49.85145" lon="4.81501">
        <ele>383</ele>
        <time>2021-05-15T09:24:52.000Z</time>
      </trkpt>
      <trkpt lat="49.85144" lon="4.81509">
        <ele>383</ele>
        <time>2021-05-15T09:24:53.000Z</time>
      </trkpt>
      <trkpt lat="49.85144" lon="4.81517">
        <ele>383</ele>
        <time>2021-05-15T09:24:54.000Z</time>
      </trkpt>
      <trkpt lat="49.85143" lon="4.81524">
        <ele>383</ele>
        <time>2021-05-15T09:24:55.000Z</time>
      </trkpt>
      <trkpt lat="49.85143" lon="4.81531">
        <ele>384</ele>
        <time>2021-05-15T09:24:56.000Z</time>
      </trkpt>
      <trkpt lat="49.85143" lon="4.81538">
        <ele>384</ele>
        <time>2021-05-15T09:24:57.000Z</time>
      </trkpt>
      <trkpt lat="49.85143" lon="4.81545">
        <ele>384</ele>
        <time>2021-05-15T09:24:58.000Z</time>
      </trkpt>
      <trkpt lat="49.85142" lon="4.81551">
        <ele>384</ele>
        <time>2021-05-15T09:24:59.000Z</time>
      </trkpt>
      <trkpt lat="49.85142" lon="4.81558">
        <ele>385</ele>
        <time>2021-05-15T09:25:00.000Z</time>
      </trkpt>
      <trkpt lat="49.85143" lon="4.81564">
        <ele>385</ele>
        <time>2021-05-15T09:25:01.000Z</time>
      </trkpt>
      <trkpt lat="49.85143" lon="4.8157">
        <ele>385</ele>
        <time>2021-05-15T09:25:02.000Z</time>
      </trkpt>
      <trkpt lat="49.85143" lon="4.81577">
        <ele>385</ele>
        <time>2021-05-15T09:25:03.000Z</time>
      </trkpt>
      <trkpt lat="49.85143" lon="4.81584">
        <ele>386</ele>
        <time>2021-05-15T09:25:04.000Z</time>
      </trkpt>
      <trkpt lat="49.85142" lon="4.8159">
        <ele>386</ele>
        <time>2021-05-15T09:25:05.000Z</time>
      </trkpt>
      <trkpt lat="49.85142" lon="4.81597">
        <ele>386</ele>
        <time>2021-05-15T09:25:06.000Z</time>
      </trkpt>
      <trkpt lat="49.85141" lon="4.81605">
        <ele>386</ele>
        <time>2021-05-15T09:25:07.000Z</time>
      </trkpt>
      <trkpt lat="49.85141" lon="4.81612">
        <ele>387</ele>
        <time>2021-05-15T09:25:08.000Z</time>
      </trkpt>
      <trkpt lat="49.85142" lon="4.8162">
        <ele>387</ele>
        <time>2021-05-15T09:25:09.000Z</time>
      </trkpt>
      <trkpt lat="49.85142" lon="4.81627">
        <ele>387</ele>
        <time>2021-05-15T09:25:10.000Z</time>
      </trkpt>
      <trkpt lat="49.85142" lon="4.81634">
        <ele>387</ele>
        <time>2021-05-15T09:25:11.000Z</time>
      </trkpt>
      <trkpt lat="49.85143" lon="4.81642">
        <ele>388</ele>
        <time>2021-05-15T09:25:12.000Z</time>
      </trkpt>
      <trkpt lat="49.85144" lon="4.81649">
        <ele>388</ele>
        <time>2021-05-15T09:25:13.000Z</time>
      </trkpt>
      <trkpt lat="49.85145" lon="4.81656">
        <ele>388</ele>
        <time>2021-05-15T09:25:14.000Z</time>
      </trkpt>
      <trkpt lat="49.85146" lon="4.81663">
        <ele>388</ele>
        <time>2021-05-15T09:25:15.000Z</time>
      </trkpt>
      <trkpt lat="49.85147" lon="4.81669">
        <ele>389</ele>
        <time>2021-05-15T09:25:16.000Z</time>
      </trkpt>
      <trkpt lat="49.85148" lon="4.81676">
        <ele>389</ele>
        <time>2021-05-15T09:25:17.000Z</time>
      </trkpt>
      <trkpt lat="49.85149" lon="4.81683">
        <ele>389</ele>
        <time>2021-05-15T09:25:18.000Z</time>
      </trkpt>
      <trkpt lat="49.85149" lon="4.81689">
        <ele>389</ele>
        <time>2021-05-15T09:25:19.000Z</time>
      </trkpt>
      <trkpt lat="49.8515" lon="4.81696">
        <ele>390</ele>
        <time>2021-05-15T09:25:20.000Z</time>
      </trkpt>
      <trkpt lat="49.85151" lon="4.81703">
        <ele>390</ele>
        <time>2021-05-15T09:25:21.000Z</time>
      </trkpt>
      <trkpt lat="49.85152" lon="4.8171">
        <ele>390</ele>
        <time>2021-05-15T09:25:22.000Z</time>
      </trkpt>
      <trkpt lat="49.85153" lon="4.81718">
        <ele>390</ele>
        <time>2021-05-15T09:25:23.000Z</time>
      </trkpt>
      <trkpt lat="49.85155" lon="4.81725">
        <ele>391</ele>
        <time>2021-05-15T09:25:24.000Z</time>
      </trkpt>
      <trkpt lat="49.85156" lon="4.81733">
        <ele>391</ele>
        <time>2021-05-15T09:25:25.000Z</time>
      </trkpt>
      <trkpt lat="49.85158" lon="4.8174">
        <ele>391</ele>
        <time>2021-05-15T09:25:26.000Z</time>
      </trkpt>
      <trkpt lat="49.85158" lon="4.81748">
        <ele>391</ele>
        <time>2021-05-15T09:25:27.000Z</time>
      </trkpt>
      <trkpt lat="49.85159" lon="4.81757">
        <ele>391</ele>
        <time>2021-05-15T09:25:28.000Z</time>
      </trkpt>
      <trkpt lat="49.85161" lon="4.81765">
        <ele>391</ele>
        <time>2021-05-15T09:25:29.000Z</time>
      </trkpt>
      <trkpt lat="49.85163" lon="4.81773">
        <ele>391</ele>
        <time>2021-05-15T09:25:30.000Z</time>
      </trkpt>
      <trkpt lat="49.85165" lon="4.81782">
        <ele>392</ele>
        <time>2021-05-15T09:25:31.000Z</time>
      </trkpt>
      <trkpt lat="49.85168" lon="4.8179">
        <ele>392</ele>
        <time>2021-05-15T09:25:32.000Z</time>
      </trkpt>
      <trkpt lat="49.8517" lon="4.81799">
        <ele>392</ele>
        <time>2021-05-15T09:25:33.000Z</time>
      </trkpt>
      <trkpt lat="49.85173" lon="4.81808">
        <ele>392</ele>
        <time>2021-05-15T09:25:34.000Z</time>
      </trkpt>
      <trkpt lat="49.85175" lon="4.81818">
        <ele>391</ele>
        <time>2021-05-15T09:25:35.000Z</time>
      </trkpt>
      <trkpt lat="49.85177" lon="4.81829">
        <ele>391</ele>
        <time>2021-05-15T09:25:36.000Z</time>
      </trkpt>
      <trkpt lat="49.85178" lon="4.81841">
        <ele>391</ele>
        <time>2021-05-15T09:25:37.000Z</time>
      </trkpt>
      <trkpt lat="49.8518" lon="4.81853">
        <ele>391</ele>
        <time>2021-05-15T09:25:38.000Z</time>
      </trkpt>
      <trkpt lat="49.85182" lon="4.81864">
        <ele>391</ele>
        <time>2021-05-15T09:25:39.000Z</time>
      </trkpt>
      <trkpt lat="49.85184" lon="4.81875">
        <ele>391</ele>
        <time>2021-05-15T09:25:40.000Z</time>
      </trkpt>
      <trkpt lat="49.85184" lon="4.81887">
        <ele>391</ele>
        <time>2021-05-15T09:25:41.000Z</time>
      </trkpt>
      <trkpt lat="49.85185" lon="4.81899">
        <ele>391</ele>
        <time>2021-05-15T09:25:42.000Z</time>
      </trkpt>
      <trkpt lat="49.85186" lon="4.8191">
        <ele>390</ele>
        <time>2021-05-15T09:25:43.000Z</time>
      </trkpt>
      <trkpt lat="49.85186" lon="4.81921">
        <ele>390</ele>
        <time>2021-05-15T09:25:44.000Z</time>
      </trkpt>
      <trkpt lat="49.85186" lon="4.81932">
        <ele>390</ele>
        <time>2021-05-15T09:25:45.000Z</time>
      </trkpt>
      <trkpt lat="49.85186" lon="4.81943">
        <ele>390</ele>
        <time>2021-05-15T09:25:46.000Z</time>
      </trkpt>
      <trkpt lat="49.85186" lon="4.81953">
        <ele>390</ele>
        <time>2021-05-15T09:25:47.000Z</time>
      </trkpt>
      <trkpt lat="49.85187" lon="4.81964">
        <ele>389</ele>
        <time>2021-05-15T09:25:48.000Z</time>
      </trkpt>
      <trkpt lat="49.85187" lon="4.81975">
        <ele>389</ele>
        <time>2021-05-15T09:25:49.000Z</time>
      </trkpt>
      <trkpt lat="49.85188" lon="4.81985">
        <ele>389</ele>
        <time>2021-05-15T09:25:50.000Z</time>
      </trkpt>
      <trkpt lat="49.85189" lon="4.81996">
        <ele>389</ele>
        <time>2021-05-15T09:25:51.000Z</time>
      </trkpt>
      <trkpt lat="49.8519" lon="4.82008">
        <ele>388</ele>
        <time>2021-05-15T09:25:52.000Z</time>
      </trkpt>
      <trkpt lat="49.85191" lon="4.82019">
        <ele>388</ele>
        <time>2021-05-15T09:25:53.000Z</time>
      </trkpt>
      <trkpt lat="49.85192" lon="4.82032">
        <ele>388</ele>
        <time>2021-05-15T09:25:54.000Z</time>
      </trkpt>
      <trkpt lat="49.85193" lon="4.82044">
        <ele>387</ele>
        <time>2021-05-15T09:25:55.000Z</time>
      </trkpt>
      <trkpt lat="49.85195" lon="4.82055">
        <ele>387</ele>
        <time>2021-05-15T09:25:56.000Z</time>
      </trkpt>
      <trkpt lat="49.85197" lon="4.82066">
        <ele>387</ele>
        <time>2021-05-15T09:25:57.000Z</time>
      </trkpt>
      <trkpt lat="49.85199" lon="4.82077">
        <ele>386</ele>
        <time>2021-05-15T09:25:58.000Z</time>
      </trkpt>
      <trkpt lat="49.852" lon="4.82089">
        <ele>386</ele>
        <time>2021-05-15T09:25:59.000Z</time>
      </trkpt>
      <trkpt lat="49.85201" lon="4.821">
        <ele>385</ele>
        <time>2021-05-15T09:26:00.000Z</time>
      </trkpt>
      <trkpt lat="49.85201" lon="4.82112">
        <ele>385</ele>
        <time>2021-05-15T09:26:01.000Z</time>
      </trkpt>
      <trkpt lat="49.85203" lon="4.82124">
        <ele>384</ele>
        <time>2021-05-15T09:26:02.000Z</time>
      </trkpt>
      <trkpt lat="49.85204" lon="4.82136">
        <ele>384</ele>
        <time>2021-05-15T09:26:03.000Z</time>
      </trkpt>
      <trkpt lat="49.85206" lon="4.82147">
        <ele>383</ele>
        <time>2021-05-15T09:26:04.000Z</time>
      </trkpt>
      <trkpt lat="49.85207" lon="4.82157">
        <ele>383</ele>
        <time>2021-05-15T09:26:05.000Z</time>
      </trkpt>
      <trkpt lat="49.85208" lon="4.82167">
        <ele>382</ele>
        <time>2021-05-15T09:26:06.000Z</time>
      </trkpt>
      <trkpt lat="49.85209" lon="4.82176">
        <ele>382</ele>
        <time>2021-05-15T09:26:07.000Z</time>
      </trkpt>
      <trkpt lat="49.85211" lon="4.82186">
        <ele>381</ele>
        <time>2021-05-15T09:26:08.000Z</time>
      </trkpt>
      <trkpt lat="49.85214" lon="4.82195">
        <ele>381</ele>
        <time>2021-05-15T09:26:09.000Z</time>
      </trkpt>
      <trkpt lat="49.85216" lon="4.82205">
        <ele>380</ele>
        <time>2021-05-15T09:26:10.000Z</time>
      </trkpt>
      <trkpt lat="49.85217" lon="4.82216">
        <ele>380</ele>
        <time>2021-05-15T09:26:11.000Z</time>
      </trkpt>
      <trkpt lat="49.85218" lon="4.82227">
        <ele>379</ele>
        <time>2021-05-15T09:26:12.000Z</time>
      </trkpt>
      <trkpt lat="49.85219" lon="4.82239">
        <ele>379</ele>
        <time>2021-05-15T09:26:13.000Z</time>
      </trkpt>
      <trkpt lat="49.85221" lon="4.8225">
        <ele>378</ele>
        <time>2021-05-15T09:26:14.000Z</time>
      </trkpt>
      <trkpt lat="49.85221" lon="4.82261">
        <ele>378</ele>
        <time>2021-05-15T09:26:15.000Z</time>
      </trkpt>
      <trkpt lat="49.85222" lon="4.82272">
        <ele>377</ele>
        <time>2021-05-15T09:26:16.000Z</time>
      </trkpt>
      <trkpt lat="49.85222" lon="4.82282">
        <ele>377</ele>
        <time>2021-05-15T09:26:17.000Z</time>
      </trkpt>
      <trkpt lat="49.85223" lon="4.82293">
        <ele>376</ele>
        <time>2021-05-15T09:26:18.000Z</time>
      </trkpt>
      <trkpt lat="49.85224" lon="4.82303">
        <ele>375</ele>
        <time>2021-05-15T09:26:19.000Z</time>
      </trkpt>
      <trkpt lat="49.85226" lon="4.82315">
        <ele>375</ele>
        <time>2021-05-15T09:26:20.000Z</time>
      </trkpt>
      <trkpt lat="49.85228" lon="4.82326">
        <ele>374</ele>
        <time>2021-05-15T09:26:21.000Z</time>
      </trkpt>
      <trkpt lat="49.8523" lon="4.82337">
        <ele>374</ele>
        <time>2021-05-15T09:26:22.000Z</time>
      </trkpt>
      <trkpt lat="49.85232" lon="4.82349">
        <ele>373</ele>
        <time>2021-05-15T09:26:23.000Z</time>
      </trkpt>
      <trkpt lat="49.85233" lon="4.8236">
        <ele>372</ele>
        <time>2021-05-15T09:26:24.000Z</time>
      </trkpt>
      <trkpt lat="49.85233" lon="4.82371">
        <ele>372</ele>
        <time>2021-05-15T09:26:25.000Z</time>
      </trkpt>
      <trkpt lat="49.85233" lon="4.82381">
        <ele>371</ele>
        <time>2021-05-15T09:26:26.000Z</time>
      </trkpt>
      <trkpt lat="49.85233" lon="4.82388">
        <ele>370</ele>
        <time>2021-05-15T09:26:27.000Z</time>
      </trkpt>
      <trkpt lat="49.85234" lon="4.82394">
        <ele>370</ele>
        <time>2021-05-15T09:26:28.000Z</time>
      </trkpt>
      <trkpt lat="49.85235" lon="4.82399">
        <ele>369</ele>
        <time>2021-05-15T09:26:29.000Z</time>
      </trkpt>
      <trkpt lat="49.85237" lon="4.82404">
        <ele>369</ele>
        <time>2021-05-15T09:26:30.000Z</time>
      </trkpt>
      <trkpt lat="49.8524" lon="4.82411">
        <ele>368</ele>
        <time>2021-05-15T09:26:31.000Z</time>
      </trkpt>
      <trkpt lat="49.85242" lon="4.82417">
        <ele>368</ele>
        <time>2021-05-15T09:26:32.000Z</time>
      </trkpt>
      <trkpt lat="49.85245" lon="4.82423">
        <ele>367</ele>
        <time>2021-05-15T09:26:33.000Z</time>
      </trkpt>
      <trkpt lat="49.85247" lon="4.82429">
        <ele>367</ele>
        <time>2021-05-15T09:26:34.000Z</time>
      </trkpt>
      <trkpt lat="49.85251" lon="4.82435">
        <ele>366</ele>
        <time>2021-05-15T09:26:35.000Z</time>
      </trkpt>
      <trkpt lat="49.85254" lon="4.82441">
        <ele>365</ele>
        <time>2021-05-15T09:26:36.000Z</time>
      </trkpt>
      <trkpt lat="49.85257" lon="4.82447">
        <ele>365</ele>
        <time>2021-05-15T09:26:37.000Z</time>
      </trkpt>
      <trkpt lat="49.85261" lon="4.82452">
        <ele>364</ele>
        <time>2021-05-15T09:26:38.000Z</time>
      </trkpt>
      <trkpt lat="49.85265" lon="4.82457">
        <ele>364</ele>
        <time>2021-05-15T09:26:39.000Z</time>
      </trkpt>
      <trkpt lat="49.8527" lon="4.82462">
        <ele>363</ele>
        <time>2021-05-15T09:26:40.000Z</time>
      </trkpt>
      <trkpt lat="49.85274" lon="4.82467">
        <ele>362</ele>
        <time>2021-05-15T09:26:41.000Z</time>
      </trkpt>
      <trkpt lat="49.85279" lon="4.82472">
        <ele>362</ele>
        <time>2021-05-15T09:26:42.000Z</time>
      </trkpt>
      <trkpt lat="49.85284" lon="4.82477">
        <ele>361</ele>
        <time>2021-05-15T09:26:43.000Z</time>
      </trkpt>
      <trkpt lat="49.85289" lon="4.82481">
        <ele>361</ele>
        <time>2021-05-15T09:26:44.000Z</time>
      </trkpt>
      <trkpt lat="49.85294" lon="4.82485">
        <ele>360</ele>
        <time>2021-05-15T09:26:45.000Z</time>
      </trkpt>
      <trkpt lat="49.85299" lon="4.8249">
        <ele>360</ele>
        <time>2021-05-15T09:26:46.000Z</time>
      </trkpt>
      <trkpt lat="49.85304" lon="4.82495">
        <ele>360</ele>
        <time>2021-05-15T09:26:47.000Z</time>
      </trkpt>
      <trkpt lat="49.85308" lon="4.82501">
        <ele>359</ele>
        <time>2021-05-15T09:26:48.000Z</time>
      </trkpt>
      <trkpt lat="49.85313" lon="4.82506">
        <ele>359</ele>
        <time>2021-05-15T09:26:49.000Z</time>
      </trkpt>
      <trkpt lat="49.85316" lon="4.82513">
        <ele>359</ele>
        <time>2021-05-15T09:26:50.000Z</time>
      </trkpt>
      <trkpt lat="49.8532" lon="4.82518">
        <ele>358</ele>
        <time>2021-05-15T09:26:51.000Z</time>
      </trkpt>
      <trkpt lat="49.85324" lon="4.82523">
        <ele>358</ele>
        <time>2021-05-15T09:26:52.000Z</time>
      </trkpt>
      <trkpt lat="49.85327" lon="4.82526">
        <ele>358</ele>
        <time>2021-05-15T09:26:53.000Z</time>
      </trkpt>
      <trkpt lat="49.8533" lon="4.82529">
        <ele>358</ele>
        <time>2021-05-15T09:26:54.000Z</time>
      </trkpt>
      <trkpt lat="49.85333" lon="4.82534">
        <ele>358</ele>
        <time>2021-05-15T09:26:55.000Z</time>
      </trkpt>
      <trkpt lat="49.85334" lon="4.82538">
        <ele>357</ele>
        <time>2021-05-15T09:26:56.000Z</time>
      </trkpt>
      <trkpt lat="49.85337" lon="4.82543">
        <ele>357</ele>
        <time>2021-05-15T09:26:57.000Z</time>
      </trkpt>
      <trkpt lat="49.85341" lon="4.82547">
        <ele>357</ele>
        <time>2021-05-15T09:26:58.000Z</time>
      </trkpt>
      <trkpt lat="49.85345" lon="4.82553">
        <ele>357</ele>
        <time>2021-05-15T09:26:59.000Z</time>
      </trkpt>
      <trkpt lat="49.85348" lon="4.82558">
        <ele>356</ele>
        <time>2021-05-15T09:27:00.000Z</time>
      </trkpt>
      <trkpt lat="49.85351" lon="4.82564">
        <ele>356</ele>
        <time>2021-05-15T09:27:01.000Z</time>
      </trkpt>
      <trkpt lat="49.85354" lon="4.8257">
        <ele>356</ele>
        <time>2021-05-15T09:27:02.000Z</time>
      </trkpt>
      <trkpt lat="49.85355" lon="4.82577">
        <ele>355</ele>
        <time>2021-05-15T09:27:03.000Z</time>
      </trkpt>
      <trkpt lat="49.85357" lon="4.82584">
        <ele>355</ele>
        <time>2021-05-15T09:27:04.000Z</time>
      </trkpt>
      <trkpt lat="49.85358" lon="4.82591">
        <ele>355</ele>
        <time>2021-05-15T09:27:05.000Z</time>
      </trkpt>
      <trkpt lat="49.8536" lon="4.82598">
        <ele>355</ele>
        <time>2021-05-15T09:27:06.000Z</time>
      </trkpt>
      <trkpt lat="49.85362" lon="4.82605">
        <ele>355</ele>
        <time>2021-05-15T09:27:07.000Z</time>
      </trkpt>
      <trkpt lat="49.85365" lon="4.82611">
        <ele>355</ele>
        <time>2021-05-15T09:27:08.000Z</time>
      </trkpt>
      <trkpt lat="49.85367" lon="4.82618">
        <ele>355</ele>
        <time>2021-05-15T09:27:09.000Z</time>
      </trkpt>
      <trkpt lat="49.85369" lon="4.82625">
        <ele>355</ele>
        <time>2021-05-15T09:27:10.000Z</time>
      </trkpt>
      <trkpt lat="49.8537" lon="4.82633">
        <ele>355</ele>
        <time>2021-05-15T09:27:11.000Z</time>
      </trkpt>
      <trkpt lat="49.85372" lon="4.82639">
        <ele>355</ele>
        <time>2021-05-15T09:27:12.000Z</time>
      </trkpt>
      <trkpt lat="49.85374" lon="4.82645">
        <ele>355</ele>
        <time>2021-05-15T09:27:13.000Z</time>
      </trkpt>
      <trkpt lat="49.85377" lon="4.8265">
        <ele>354</ele>
        <time>2021-05-15T09:27:14.000Z</time>
      </trkpt>
      <trkpt lat="49.85379" lon="4.82656">
        <ele>354</ele>
        <time>2021-05-15T09:27:15.000Z</time>
      </trkpt>
      <trkpt lat="49.85382" lon="4.82662">
        <ele>354</ele>
        <time>2021-05-15T09:27:16.000Z</time>
      </trkpt>
      <trkpt lat="49.85384" lon="4.82667">
        <ele>354</ele>
        <time>2021-05-15T09:27:17.000Z</time>
      </trkpt>
      <trkpt lat="49.85386" lon="4.82673">
        <ele>354</ele>
        <time>2021-05-15T09:27:18.000Z</time>
      </trkpt>
      <trkpt lat="49.85389" lon="4.82679">
        <ele>354</ele>
        <time>2021-05-15T09:27:19.000Z</time>
      </trkpt>
      <trkpt lat="49.85391" lon="4.82685">
        <ele>354</ele>
        <time>2021-05-15T09:27:20.000Z</time>
      </trkpt>
      <trkpt lat="49.85394" lon="4.8269">
        <ele>353</ele>
        <time>2021-05-15T09:27:21.000Z</time>
      </trkpt>
      <trkpt lat="49.85396" lon="4.82696">
        <ele>353</ele>
        <time>2021-05-15T09:27:22.000Z</time>
      </trkpt>
      <trkpt lat="49.85398" lon="4.82701">
        <ele>353</ele>
        <time>2021-05-15T09:27:23.000Z</time>
      </trkpt>
      <trkpt lat="49.85401" lon="4.82706">
        <ele>353</ele>
        <time>2021-05-15T09:27:24.000Z</time>
      </trkpt>
      <trkpt lat="49.85403" lon="4.82712">
        <ele>353</ele>
        <time>2021-05-15T09:27:25.000Z</time>
      </trkpt>
      <trkpt lat="49.85405" lon="4.82719">
        <ele>353</ele>
        <time>2021-05-15T09:27:26.000Z</time>
      </trkpt>
      <trkpt lat="49.85407" lon="4.82725">
        <ele>353</ele>
        <time>2021-05-15T09:27:27.000Z</time>
      </trkpt>
      <trkpt lat="49.85409" lon="4.82731">
        <ele>353</ele>
        <time>2021-05-15T09:27:28.000Z</time>
      </trkpt>
      <trkpt lat="49.85411" lon="4.82737">
        <ele>353</ele>
        <time>2021-05-15T09:27:29.000Z</time>
      </trkpt>
      <trkpt lat="49.85414" lon="4.82742">
        <ele>353</ele>
        <time>2021-05-15T09:27:30.000Z</time>
      </trkpt>
      <trkpt lat="49.85417" lon="4.82747">
        <ele>353</ele>
        <time>2021-05-15T09:27:31.000Z</time>
      </trkpt>
      <trkpt lat="49.8542" lon="4.82753">
        <ele>353</ele>
        <time>2021-05-15T09:27:32.000Z</time>
      </trkpt>
      <trkpt lat="49.85424" lon="4.82757">
        <ele>354</ele>
        <time>2021-05-15T09:27:33.000Z</time>
      </trkpt>
      <trkpt lat="49.85428" lon="4.82761">
        <ele>354</ele>
        <time>2021-05-15T09:27:34.000Z</time>
      </trkpt>
      <trkpt lat="49.85432" lon="4.82764">
        <ele>354</ele>
        <time>2021-05-15T09:27:35.000Z</time>
      </trkpt>
      <trkpt lat="49.85436" lon="4.82767">
        <ele>354</ele>
        <time>2021-05-15T09:27:36.000Z</time>
      </trkpt>
      <trkpt lat="49.85439" lon="4.82771">
        <ele>354</ele>
        <time>2021-05-15T09:27:37.000Z</time>
      </trkpt>
      <trkpt lat="49.85443" lon="4.82775">
        <ele>354</ele>
        <time>2021-05-15T09:27:38.000Z</time>
      </trkpt>
      <trkpt lat="49.85446" lon="4.82779">
        <ele>355</ele>
        <time>2021-05-15T09:27:39.000Z</time>
      </trkpt>
      <trkpt lat="49.85449" lon="4.82782">
        <ele>355</ele>
        <time>2021-05-15T09:27:40.000Z</time>
      </trkpt>
      <trkpt lat="49.85452" lon="4.82786">
        <ele>355</ele>
        <time>2021-05-15T09:27:41.000Z</time>
      </trkpt>
      <trkpt lat="49.85454" lon="4.82789">
        <ele>355</ele>
        <time>2021-05-15T09:27:42.000Z</time>
      </trkpt>
      <trkpt lat="49.85457" lon="4.82792">
        <ele>355</ele>
        <time>2021-05-15T09:27:43.000Z</time>
      </trkpt>
      <trkpt lat="49.8546" lon="4.82795">
        <ele>356</ele>
        <time>2021-05-15T09:27:44.000Z</time>
      </trkpt>
      <trkpt lat="49.85462" lon="4.82798">
        <ele>356</ele>
        <time>2021-05-15T09:27:45.000Z</time>
      </trkpt>
      <trkpt lat="49.85465" lon="4.82802">
        <ele>356</ele>
        <time>2021-05-15T09:27:46.000Z</time>
      </trkpt>
      <trkpt lat="49.85467" lon="4.82806">
        <ele>356</ele>
        <time>2021-05-15T09:27:47.000Z</time>
      </trkpt>
      <trkpt lat="49.8547" lon="4.82809">
        <ele>356</ele>
        <time>2021-05-15T09:27:48.000Z</time>
      </trkpt>
      <trkpt lat="49.85472" lon="4.82813">
        <ele>356</ele>
        <time>2021-05-15T09:27:49.000Z</time>
      </trkpt>
      <trkpt lat="49.85475" lon="4.82816">
        <ele>356</ele>
        <time>2021-05-15T09:27:50.000Z</time>
      </trkpt>
      <trkpt lat="49.85477" lon="4.8282">
        <ele>356</ele>
        <time>2021-05-15T09:27:51.000Z</time>
      </trkpt>
      <trkpt lat="49.8548" lon="4.82823">
        <ele>357</ele>
        <time>2021-05-15T09:27:52.000Z</time>
      </trkpt>
      <trkpt lat="49.85482" lon="4.82827">
        <ele>357</ele>
        <time>2021-05-15T09:27:53.000Z</time>
      </trkpt>
      <trkpt lat="49.85484" lon="4.82831">
        <ele>357</ele>
        <time>2021-05-15T09:27:54.000Z</time>
      </trkpt>
      <trkpt lat="49.85486" lon="4.82834">
        <ele>357</ele>
        <time>2021-05-15T09:27:55.000Z</time>
      </trkpt>
      <trkpt lat="49.85488" lon="4.82838">
        <ele>357</ele>
        <time>2021-05-15T09:27:56.000Z</time>
      </trkpt>
      <trkpt lat="49.8549" lon="4.82842">
        <ele>357</ele>
        <time>2021-05-15T09:27:57.000Z</time>
      </trkpt>
      <trkpt lat="49.85492" lon="4.82846">
        <ele>357</ele>
        <time>2021-05-15T09:27:58.000Z</time>
      </trkpt>
      <trkpt lat="49.85494" lon="4.82849">
        <ele>358</ele>
        <time>2021-05-15T09:27:59.000Z</time>
      </trkpt>
      <trkpt lat="49.85496" lon="4.82852">
        <ele>358</ele>
        <time>2021-05-15T09:28:00.000Z</time>
      </trkpt>
      <trkpt lat="49.85498" lon="4.82855">
        <ele>358</ele>
        <time>2021-05-15T09:28:01.000Z</time>
      </trkpt>
      <trkpt lat="49.855" lon="4.82859">
        <ele>358</ele>
        <time>2021-05-15T09:28:02.000Z</time>
      </trkpt>
      <trkpt lat="49.85502" lon="4.82862">
        <ele>358</ele>
        <time>2021-05-15T09:28:03.000Z</time>
      </trkpt>
      <trkpt lat="49.85504" lon="4.82865">
        <ele>359</ele>
        <time>2021-05-15T09:28:04.000Z</time>
      </trkpt>
      <trkpt lat="49.85506" lon="4.82868">
        <ele>359</ele>
        <time>2021-05-15T09:28:05.000Z</time>
      </trkpt>
      <trkpt lat="49.85507" lon="4.82872">
        <ele>359</ele>
        <time>2021-05-15T09:28:06.000Z</time>
      </trkpt>
      <trkpt lat="49.85509" lon="4.82875">
        <ele>359</ele>
        <time>2021-05-15T09:28:07.000Z</time>
      </trkpt>
      <trkpt lat="49.85511" lon="4.82878">
        <ele>360</ele>
        <time>2021-05-15T09:28:08.000Z</time>
      </trkpt>
      <trkpt lat="49.85512" lon="4.82881">
        <ele>360</ele>
        <time>2021-05-15T09:28:09.000Z</time>
      </trkpt>
      <trkpt lat="49.85514" lon="4.82884">
        <ele>360</ele>
        <time>2021-05-15T09:28:10.000Z</time>
      </trkpt>
      <trkpt lat="49.85516" lon="4.82888">
        <ele>360</ele>
        <time>2021-05-15T09:28:11.000Z</time>
      </trkpt>
      <trkpt lat="49.85518" lon="4.82891">
        <ele>360</ele>
        <time>2021-05-15T09:28:12.000Z</time>
      </trkpt>
      <trkpt lat="49.85521" lon="4.82894">
        <ele>361</ele>
        <time>2021-05-15T09:28:13.000Z</time>
      </trkpt>
      <trkpt lat="49.85523" lon="4.82897">
        <ele>361</ele>
        <time>2021-05-15T09:28:14.000Z</time>
      </trkpt>
      <trkpt lat="49.85525" lon="4.829">
        <ele>361</ele>
        <time>2021-05-15T09:28:15.000Z</time>
      </trkpt>
      <trkpt lat="49.85527" lon="4.82904">
        <ele>361</ele>
        <time>2021-05-15T09:28:16.000Z</time>
      </trkpt>
      <trkpt lat="49.85529" lon="4.82908">
        <ele>362</ele>
        <time>2021-05-15T09:28:17.000Z</time>
      </trkpt>
      <trkpt lat="49.85531" lon="4.82911">
        <ele>362</ele>
        <time>2021-05-15T09:28:18.000Z</time>
      </trkpt>
      <trkpt lat="49.85533" lon="4.82915">
        <ele>362</ele>
        <time>2021-05-15T09:28:19.000Z</time>
      </trkpt>
      <trkpt lat="49.85534" lon="4.8292">
        <ele>362</ele>
        <time>2021-05-15T09:28:20.000Z</time>
      </trkpt>
      <trkpt lat="49.85536" lon="4.82924">
        <ele>362</ele>
        <time>2021-05-15T09:28:21.000Z</time>
      </trkpt>
      <trkpt lat="49.85538" lon="4.82928">
        <ele>363</ele>
        <time>2021-05-15T09:28:22.000Z</time>
      </trkpt>
      <trkpt lat="49.8554" lon="4.82932">
        <ele>363</ele>
        <time>2021-05-15T09:28:23.000Z</time>
      </trkpt>
      <trkpt lat="49.85542" lon="4.82937">
        <ele>363</ele>
        <time>2021-05-15T09:28:24.000Z</time>
      </trkpt>
      <trkpt lat="49.85544" lon="4.82941">
        <ele>363</ele>
        <time>2021-05-15T09:28:25.000Z</time>
      </trkpt>
      <trkpt lat="49.85546" lon="4.82945">
        <ele>363</ele>
        <time>2021-05-15T09:28:26.000Z</time>
      </trkpt>
      <trkpt lat="49.85547" lon="4.82949">
        <ele>363</ele>
        <time>2021-05-15T09:28:27.000Z</time>
      </trkpt>
      <trkpt lat="49.85549" lon="4.82953">
        <ele>363</ele>
        <time>2021-05-15T09:28:28.000Z</time>
      </trkpt>
      <trkpt lat="49.85551" lon="4.82957">
        <ele>364</ele>
        <time>2021-05-15T09:28:29.000Z</time>
      </trkpt>
      <trkpt lat="49.85553" lon="4.82961">
        <ele>364</ele>
        <time>2021-05-15T09:28:30.000Z</time>
      </trkpt>
      <trkpt lat="49.85555" lon="4.82965">
        <ele>364</ele>
        <time>2021-05-15T09:28:31.000Z</time>
      </trkpt>
      <trkpt lat="49.85556" lon="4.82969">
        <ele>364</ele>
        <time>2021-05-15T09:28:32.000Z</time>
      </trkpt>
      <trkpt lat="49.85557" lon="4.82973">
        <ele>364</ele>
        <time>2021-05-15T09:28:33.000Z</time>
      </trkpt>
      <trkpt lat="49.85559" lon="4.82978">
        <ele>365</ele>
        <time>2021-05-15T09:28:34.000Z</time>
      </trkpt>
      <trkpt lat="49.8556" lon="4.82981">
        <ele>365</ele>
        <time>2021-05-15T09:28:35.000Z</time>
      </trkpt>
      <trkpt lat="49.85561" lon="4.82986">
        <ele>365</ele>
        <time>2021-05-15T09:28:36.000Z</time>
      </trkpt>
      <trkpt lat="49.85563" lon="4.8299">
        <ele>366</ele>
        <time>2021-05-15T09:28:37.000Z</time>
      </trkpt>
      <trkpt lat="49.85564" lon="4.82994">
        <ele>366</ele>
        <time>2021-05-15T09:28:38.000Z</time>
      </trkpt>
      <trkpt lat="49.85566" lon="4.82998">
        <ele>366</ele>
        <time>2021-05-15T09:28:39.000Z</time>
      </trkpt>
      <trkpt lat="49.85567" lon="4.83002">
        <ele>366</ele>
        <time>2021-05-15T09:28:40.000Z</time>
      </trkpt>
      <trkpt lat="49.85568" lon="4.83007">
        <ele>367</ele>
        <time>2021-05-15T09:28:41.000Z</time>
      </trkpt>
      <trkpt lat="49.85569" lon="4.83011">
        <ele>367</ele>
        <time>2021-05-15T09:28:42.000Z</time>
      </trkpt>
      <trkpt lat="49.8557" lon="4.83015">
        <ele>367</ele>
        <time>2021-05-15T09:28:43.000Z</time>
      </trkpt>
      <trkpt lat="49.85571" lon="4.83019">
        <ele>367</ele>
        <time>2021-05-15T09:28:44.000Z</time>
      </trkpt>
      <trkpt lat="49.85572" lon="4.83023">
        <ele>367</ele>
        <time>2021-05-15T09:28:45.000Z</time>
      </trkpt>
      <trkpt lat="49.85574" lon="4.83028">
        <ele>368</ele>
        <time>2021-05-15T09:28:46.000Z</time>
      </trkpt>
      <trkpt lat="49.85575" lon="4.83032">
        <ele>368</ele>
        <time>2021-05-15T09:28:47.000Z</time>
      </trkpt>
      <trkpt lat="49.85576" lon="4.83036">
        <ele>368</ele>
        <time>2021-05-15T09:28:48.000Z</time>
      </trkpt>
      <trkpt lat="49.85577" lon="4.8304">
        <ele>368</ele>
        <time>2021-05-15T09:28:49.000Z</time>
      </trkpt>
      <trkpt lat="49.85578" lon="4.83045">
        <ele>369</ele>
        <time>2021-05-15T09:28:50.000Z</time>
      </trkpt>
      <trkpt lat="49.85579" lon="4.83049">
        <ele>369</ele>
        <time>2021-05-15T09:28:51.000Z</time>
      </trkpt>
      <trkpt lat="49.8558" lon="4.83054">
        <ele>369</ele>
        <time>2021-05-15T09:28:52.000Z</time>
      </trkpt>
      <trkpt lat="49.85581" lon="4.83059">
        <ele>369</ele>
        <time>2021-05-15T09:28:53.000Z</time>
      </trkpt>
      <trkpt lat="49.85582" lon="4.83064">
        <ele>370</ele>
        <time>2021-05-15T09:28:54.000Z</time>
      </trkpt>
      <trkpt lat="49.85583" lon="4.83068">
        <ele>370</ele>
        <time>2021-05-15T09:28:55.000Z</time>
      </trkpt>
      <trkpt lat="49.85585" lon="4.83073">
        <ele>370</ele>
        <time>2021-05-15T09:28:56.000Z</time>
      </trkpt>
      <trkpt lat="49.85586" lon="4.83077">
        <ele>370</ele>
        <time>2021-05-15T09:28:57.000Z</time>
      </trkpt>
      <trkpt lat="49.85588" lon="4.83081">
        <ele>370</ele>
        <time>2021-05-15T09:28:58.000Z</time>
      </trkpt>
      <trkpt lat="49.85589" lon="4.83085">
        <ele>371</ele>
        <time>2021-05-15T09:28:59.000Z</time>
      </trkpt>
      <trkpt lat="49.85591" lon="4.83089">
        <ele>371</ele>
        <time>2021-05-15T09:29:00.000Z</time>
      </trkpt>
      <trkpt lat="49.85593" lon="4.83092">
        <ele>371</ele>
        <time>2021-05-15T09:29:01.000Z</time>
      </trkpt>
      <trkpt lat="49.85595" lon="4.83096">
        <ele>371</ele>
        <time>2021-05-15T09:29:02.000Z</time>
      </trkpt>
      <trkpt lat="49.85597" lon="4.831">
        <ele>371</ele>
        <time>2021-05-15T09:29:03.000Z</time>
      </trkpt>
      <trkpt lat="49.85599" lon="4.83103">
        <ele>372</ele>
        <time>2021-05-15T09:29:04.000Z</time>
      </trkpt>
      <trkpt lat="49.85602" lon="4.83107">
        <ele>372</ele>
        <time>2021-05-15T09:29:05.000Z</time>
      </trkpt>
      <trkpt lat="49.85604" lon="4.8311">
        <ele>372</ele>
        <time>2021-05-15T09:29:06.000Z</time>
      </trkpt>
      <trkpt lat="49.85606" lon="4.83112">
        <ele>372</ele>
        <time>2021-05-15T09:29:07.000Z</time>
      </trkpt>
      <trkpt lat="49.85609" lon="4.83115">
        <ele>373</ele>
        <time>2021-05-15T09:29:08.000Z</time>
      </trkpt>
      <trkpt lat="49.85611" lon="4.83117">
        <ele>373</ele>
        <time>2021-05-15T09:29:09.000Z</time>
      </trkpt>
      <trkpt lat="49.85614" lon="4.8312">
        <ele>373</ele>
        <time>2021-05-15T09:29:10.000Z</time>
      </trkpt>
      <trkpt lat="49.85617" lon="4.83123">
        <ele>373</ele>
        <time>2021-05-15T09:29:11.000Z</time>
      </trkpt>
      <trkpt lat="49.85619" lon="4.83126">
        <ele>373</ele>
        <time>2021-05-15T09:29:12.000Z</time>
      </trkpt>
      <trkpt lat="49.85622" lon="4.83129">
        <ele>373</ele>
        <time>2021-05-15T09:29:13.000Z</time>
      </trkpt>
      <trkpt lat="49.85625" lon="4.83132">
        <ele>374</ele>
        <time>2021-05-15T09:29:14.000Z</time>
      </trkpt>
      <trkpt lat="49.85628" lon="4.83135">
        <ele>374</ele>
        <time>2021-05-15T09:29:15.000Z</time>
      </trkpt>
      <trkpt lat="49.85631" lon="4.83137">
        <ele>374</ele>
        <time>2021-05-15T09:29:16.000Z</time>
      </trkpt>
      <trkpt lat="49.85634" lon="4.8314">
        <ele>374</ele>
        <time>2021-05-15T09:29:17.000Z</time>
      </trkpt>
      <trkpt lat="49.85638" lon="4.83142">
        <ele>374</ele>
        <time>2021-05-15T09:29:18.000Z</time>
      </trkpt>
      <trkpt lat="49.85641" lon="4.83144">
        <ele>375</ele>
        <time>2021-05-15T09:29:19.000Z</time>
      </trkpt>
      <trkpt lat="49.85644" lon="4.83146">
        <ele>375</ele>
        <time>2021-05-15T09:29:20.000Z</time>
      </trkpt>
      <trkpt lat="49.85647" lon="4.83147">
        <ele>375</ele>
        <time>2021-05-15T09:29:21.000Z</time>
      </trkpt>
      <trkpt lat="49.8565" lon="4.83149">
        <ele>375</ele>
        <time>2021-05-15T09:29:22.000Z</time>
      </trkpt>
      <trkpt lat="49.85652" lon="4.83151">
        <ele>376</ele>
        <time>2021-05-15T09:29:23.000Z</time>
      </trkpt>
      <trkpt lat="49.85654" lon="4.83153">
        <ele>376</ele>
        <time>2021-05-15T09:29:24.000Z</time>
      </trkpt>
      <trkpt lat="49.85655" lon="4.83157">
        <ele>376</ele>
        <time>2021-05-15T09:29:25.000Z</time>
      </trkpt>
      <trkpt lat="49.85655" lon="4.8316">
        <ele>376</ele>
        <time>2021-05-15T09:29:26.000Z</time>
      </trkpt>
      <trkpt lat="49.85654" lon="4.83163">
        <ele>377</ele>
        <time>2021-05-15T09:29:27.000Z</time>
      </trkpt>
      <trkpt lat="49.85653" lon="4.83167">
        <ele>377</ele>
        <time>2021-05-15T09:29:28.000Z</time>
      </trkpt>
      <trkpt lat="49.85652" lon="4.8317">
        <ele>377</ele>
        <time>2021-05-15T09:29:29.000Z</time>
      </trkpt>
      <trkpt lat="49.8565" lon="4.83172">
        <ele>378</ele>
        <time>2021-05-15T09:29:30.000Z</time>
      </trkpt>
      <trkpt lat="49.85648" lon="4.83173">
        <ele>378</ele>
        <time>2021-05-15T09:29:31.000Z</time>
      </trkpt>
      <trkpt lat="49.85645" lon="4.83175">
        <ele>378</ele>
        <time>2021-05-15T09:29:32.000Z</time>
      </trkpt>
      <trkpt lat="49.85643" lon="4.83178">
        <ele>378</ele>
        <time>2021-05-15T09:29:33.000Z</time>
      </trkpt>
      <trkpt lat="49.85641" lon="4.83182">
        <ele>378</ele>
        <time>2021-05-15T09:29:34.000Z</time>
      </trkpt>
      <trkpt lat="49.85638" lon="4.83185">
        <ele>378</ele>
        <time>2021-05-15T09:29:35.000Z</time>
      </trkpt>
      <trkpt lat="49.85636" lon="4.83189">
        <ele>378</ele>
        <time>2021-05-15T09:29:36.000Z</time>
      </trkpt>
      <trkpt lat="49.85634" lon="4.83193">
        <ele>378</ele>
        <time>2021-05-15T09:29:37.000Z</time>
      </trkpt>
      <trkpt lat="49.85632" lon="4.83196">
        <ele>378</ele>
        <time>2021-05-15T09:29:38.000Z</time>
      </trkpt>
      <trkpt lat="49.85629" lon="4.83199">
        <ele>378</ele>
        <time>2021-05-15T09:29:39.000Z</time>
      </trkpt>
      <trkpt lat="49.85627" lon="4.83201">
        <ele>378</ele>
        <time>2021-05-15T09:29:40.000Z</time>
      </trkpt>
      <trkpt lat="49.85624" lon="4.83203">
        <ele>378</ele>
        <time>2021-05-15T09:29:41.000Z</time>
      </trkpt>
      <trkpt lat="49.85622" lon="4.83204">
        <ele>378</ele>
        <time>2021-05-15T09:29:42.000Z</time>
      </trkpt>
      <trkpt lat="49.85619" lon="4.83206">
        <ele>378</ele>
        <time>2021-05-15T09:29:43.000Z</time>
      </trkpt>
      <trkpt lat="49.85618" lon="4.83208">
        <ele>378</ele>
        <time>2021-05-15T09:29:44.000Z</time>
      </trkpt>
      <trkpt lat="49.85615" lon="4.83211">
        <ele>378</ele>
        <time>2021-05-15T09:29:45.000Z</time>
      </trkpt>
      <trkpt lat="49.85613" lon="4.83214">
        <ele>378</ele>
        <time>2021-05-15T09:29:46.000Z</time>
      </trkpt>
      <trkpt lat="49.85612" lon="4.83216">
        <ele>378</ele>
        <time>2021-05-15T09:29:47.000Z</time>
      </trkpt>
      <trkpt lat="49.85612" lon="4.83217">
        <ele>378</ele>
        <time>2021-05-15T09:29:48.000Z</time>
      </trkpt>
      <trkpt lat="49.85611" lon="4.83218">
        <ele>378</ele>
        <time>2021-05-15T09:29:49.000Z</time>
      </trkpt>
      <trkpt lat="49.8561" lon="4.83219">
        <ele>378</ele>
        <time>2021-05-15T09:29:50.000Z</time>
      </trkpt>
      <trkpt lat="49.8561" lon="4.8322">
        <ele>378</ele>
        <time>2021-05-15T09:29:51.000Z</time>
      </trkpt>
      <trkpt lat="49.85609" lon="4.83222">
        <ele>378</ele>
        <time>2021-05-15T09:29:52.000Z</time>
      </trkpt>
      <trkpt lat="49.85608" lon="4.83224">
        <ele>378</ele>
        <time>2021-05-15T09:29:53.000Z</time>
      </trkpt>
      <trkpt lat="49.85607" lon="4.83225">
        <ele>379</ele>
        <time>2021-05-15T09:29:54.000Z</time>
      </trkpt>
      <trkpt lat="49.85606" lon="4.83226">
        <ele>379</ele>
        <time>2021-05-15T09:29:55.000Z</time>
      </trkpt>
      <trkpt lat="49.85604" lon="4.83227">
        <ele>379</ele>
        <time>2021-05-15T09:29:56.000Z</time>
      </trkpt>
      <trkpt lat="49.85602" lon="4.8323">
        <ele>379</ele>
        <time>2021-05-15T09:29:57.000Z</time>
      </trkpt>
      <trkpt lat="49.85599" lon="4.83232">
        <ele>379</ele>
        <time>2021-05-15T09:29:58.000Z</time>
      </trkpt>
      <trkpt lat="49.85596" lon="4.83235">
        <ele>379</ele>
        <time>2021-05-15T09:29:59.000Z</time>
      </trkpt>
      <trkpt lat="49.85593" lon="4.83239">
        <ele>379</ele>
        <time>2021-05-15T09:30:00.000Z</time>
      </trkpt>
      <trkpt lat="49.8559" lon="4.83243">
        <ele>379</ele>
        <time>2021-05-15T09:30:01.000Z</time>
      </trkpt>
      <trkpt lat="49.85588" lon="4.83246">
        <ele>379</ele>
        <time>2021-05-15T09:30:02.000Z</time>
      </trkpt>
      <trkpt lat="49.85585" lon="4.8325">
        <ele>379</ele>
        <time>2021-05-15T09:30:03.000Z</time>
      </trkpt>
      <trkpt lat="49.85582" lon="4.83254">
        <ele>379</ele>
        <time>2021-05-15T09:30:04.000Z</time>
      </trkpt>
      <trkpt lat="49.85579" lon="4.83257">
        <ele>379</ele>
        <time>2021-05-15T09:30:05.000Z</time>
      </trkpt>
      <trkpt lat="49.85576" lon="4.83261">
        <ele>379</ele>
        <time>2021-05-15T09:30:06.000Z</time>
      </trkpt>
      <trkpt lat="49.85572" lon="4.83264">
        <ele>379</ele>
        <time>2021-05-15T09:30:07.000Z</time>
      </trkpt>
      <trkpt lat="49.85569" lon="4.83268">
        <ele>379</ele>
        <time>2021-05-15T09:30:08.000Z</time>
      </trkpt>
      <trkpt lat="49.85566" lon="4.83271">
        <ele>379</ele>
        <time>2021-05-15T09:30:09.000Z</time>
      </trkpt>
      <trkpt lat="49.85563" lon="4.83275">
        <ele>379</ele>
        <time>2021-05-15T09:30:10.000Z</time>
      </trkpt>
      <trkpt lat="49.85559" lon="4.83278">
        <ele>379</ele>
        <time>2021-05-15T09:30:11.000Z</time>
      </trkpt>
      <trkpt lat="49.85556" lon="4.83281">
        <ele>379</ele>
        <time>2021-05-15T09:30:12.000Z</time>
      </trkpt>
      <trkpt lat="49.85553" lon="4.83285">
        <ele>380</ele>
        <time>2021-05-15T09:30:13.000Z</time>
      </trkpt>
      <trkpt lat="49.8555" lon="4.83289">
        <ele>380</ele>
        <time>2021-05-15T09:30:14.000Z</time>
      </trkpt>
      <trkpt lat="49.85547" lon="4.83293">
        <ele>380</ele>
        <time>2021-05-15T09:30:15.000Z</time>
      </trkpt>
      <trkpt lat="49.85544" lon="4.83296">
        <ele>380</ele>
        <time>2021-05-15T09:30:16.000Z</time>
      </trkpt>
      <trkpt lat="49.85542" lon="4.83299">
        <ele>380</ele>
        <time>2021-05-15T09:30:17.000Z</time>
      </trkpt>
      <trkpt lat="49.85539" lon="4.83302">
        <ele>380</ele>
        <time>2021-05-15T09:30:18.000Z</time>
      </trkpt>
      <trkpt lat="49.85537" lon="4.83304">
        <ele>380</ele>
        <time>2021-05-15T09:30:19.000Z</time>
      </trkpt>
      <trkpt lat="49.85534" lon="4.83308">
        <ele>380</ele>
        <time>2021-05-15T09:30:20.000Z</time>
      </trkpt>
      <trkpt lat="49.85532" lon="4.83311">
        <ele>380</ele>
        <time>2021-05-15T09:30:21.000Z</time>
      </trkpt>
      <trkpt lat="49.85528" lon="4.83314">
        <ele>380</ele>
        <time>2021-05-15T09:30:22.000Z</time>
      </trkpt>
      <trkpt lat="49.85525" lon="4.83318">
        <ele>380</ele>
        <time>2021-05-15T09:30:23.000Z</time>
      </trkpt>
      <trkpt lat="49.85522" lon="4.83322">
        <ele>380</ele>
        <time>2021-05-15T09:30:24.000Z</time>
      </trkpt>
      <trkpt lat="49.8552" lon="4.83326">
        <ele>380</ele>
        <time>2021-05-15T09:30:25.000Z</time>
      </trkpt>
      <trkpt lat="49.85517" lon="4.83329">
        <ele>381</ele>
        <time>2021-05-15T09:30:26.000Z</time>
      </trkpt>
      <trkpt lat="49.85514" lon="4.83332">
        <ele>381</ele>
        <time>2021-05-15T09:30:27.000Z</time>
      </trkpt>
      <trkpt lat="49.85511" lon="4.83336">
        <ele>381</ele>
        <time>2021-05-15T09:30:28.000Z</time>
      </trkpt>
      <trkpt lat="49.85508" lon="4.8334">
        <ele>381</ele>
        <time>2021-05-15T09:30:29.000Z</time>
      </trkpt>
      <trkpt lat="49.85505" lon="4.83344">
        <ele>381</ele>
        <time>2021-05-15T09:30:30.000Z</time>
      </trkpt>
      <trkpt lat="49.85502" lon="4.83348">
        <ele>381</ele>
        <time>2021-05-15T09:30:31.000Z</time>
      </trkpt>
      <trkpt lat="49.85498" lon="4.83352">
        <ele>381</ele>
        <time>2021-05-15T09:30:32.000Z</time>
      </trkpt>
      <trkpt lat="49.85495" lon="4.83356">
        <ele>382</ele>
        <time>2021-05-15T09:30:33.000Z</time>
      </trkpt>
      <trkpt lat="49.85492" lon="4.8336">
        <ele>382</ele>
        <time>2021-05-15T09:30:34.000Z</time>
      </trkpt>
      <trkpt lat="49.85489" lon="4.83364">
        <ele>382</ele>
        <time>2021-05-15T09:30:35.000Z</time>
      </trkpt>
      <trkpt lat="49.85485" lon="4.83367">
        <ele>382</ele>
        <time>2021-05-15T09:30:36.000Z</time>
      </trkpt>
      <trkpt lat="49.85482" lon="4.83371">
        <ele>382</ele>
        <time>2021-05-15T09:30:37.000Z</time>
      </trkpt>
      <trkpt lat="49.85478" lon="4.83374">
        <ele>382</ele>
        <time>2021-05-15T09:30:38.000Z</time>
      </trkpt>
      <trkpt lat="49.85473" lon="4.83376">
        <ele>382</ele>
        <time>2021-05-15T09:30:39.000Z</time>
      </trkpt>
      <trkpt lat="49.8547" lon="4.83377">
        <ele>382</ele>
        <time>2021-05-15T09:30:40.000Z</time>
      </trkpt>
      <trkpt lat="49.85467" lon="4.8338">
        <ele>382</ele>
        <time>2021-05-15T09:30:41.000Z</time>
      </trkpt>
      <trkpt lat="49.85466" lon="4.83381">
        <ele>382</ele>
        <time>2021-05-15T09:30:42.000Z</time>
      </trkpt>
      <trkpt lat="49.85465" lon="4.83381">
        <ele>382</ele>
        <time>2021-05-15T09:30:43.000Z</time>
      </trkpt>
      <trkpt lat="49.85465" lon="4.83382">
        <ele>382</ele>
        <time>2021-05-15T09:30:44.000Z</time>
      </trkpt>
      <trkpt lat="49.85465" lon="4.83382">
        <ele>382</ele>
        <time>2021-05-15T09:30:45.000Z</time>
      </trkpt>
      <trkpt lat="49.85465" lon="4.83382">
        <ele>383</ele>
        <time>2021-05-15T09:30:46.000Z</time>
      </trkpt>
      <trkpt lat="49.85465" lon="4.83382">
        <ele>383</ele>
        <time>2021-05-15T09:30:47.000Z</time>
      </trkpt>
      <trkpt lat="49.85465" lon="4.83383">
        <ele>383</ele>
        <time>2021-05-15T09:30:48.000Z</time>
      </trkpt>
      <trkpt lat="49.85464" lon="4.83383">
        <ele>383</ele>
        <time>2021-05-15T09:30:49.000Z</time>
      </trkpt>
      <trkpt lat="49.85464" lon="4.83383">
        <ele>383</ele>
        <time>2021-05-15T09:30:50.000Z</time>
      </trkpt>
      <trkpt lat="49.85464" lon="4.83383">
        <ele>383</ele>
        <time>2021-05-15T09:30:51.000Z</time>
      </trkpt>
      <trkpt lat="49.85464" lon="4.83383">
        <ele>383</ele>
        <time>2021-05-15T09:30:52.000Z</time>
      </trkpt>
      <trkpt lat="49.85464" lon="4.83383">
        <ele>383</ele>
        <time>2021-05-15T09:30:53.000Z</time>
      </trkpt>
      <trkpt lat="49.85464" lon="4.83383">
        <ele>383</ele>
        <time>2021-05-15T09:30:54.000Z</time>
      </trkpt>
      <trkpt lat="49.85464" lon="4.83384">
        <ele>383</ele>
        <time>2021-05-15T09:30:55.000Z</time>
      </trkpt>
      <trkpt lat="49.85464" lon="4.83384">
        <ele>383</ele>
        <time>2021-05-15T09:30:56.000Z</time>
      </trkpt>
      <trkpt lat="49.85464" lon="4.83384">
        <ele>383</ele>
        <time>2021-05-15T09:30:57.000Z</time>
      </trkpt>
      <trkpt lat="49.85464" lon="4.83384">
        <ele>383</ele>
        <time>2021-05-15T09:30:58.000Z</time>
      </trkpt>
      <trkpt lat="49.85464" lon="4.83384">
        <ele>383</ele>
        <time>2021-05-15T09:30:59.000Z</time>
      </trkpt>
      <trkpt lat="49.85463" lon="4.83384">
        <ele>383</ele>
        <time>2021-05-15T09:31:00.000Z</time>
      </trkpt>
      <trkpt lat="49.85463" lon="4.83384">
        <ele>383</ele>
        <time>2021-05-15T09:31:01.000Z</time>
      </trkpt>
      <trkpt lat="49.85463" lon="4.83384">
        <ele>383</ele>
        <time>2021-05-15T09:31:02.000Z</time>
      </trkpt>
      <trkpt lat="49.85463" lon="4.83384">
        <ele>383</ele>
        <time>2021-05-15T09:31:03.000Z</time>
      </trkpt>
      <trkpt lat="49.85463" lon="4.83384">
        <ele>383</ele>
        <time>2021-05-15T09:31:04.000Z</time>
      </trkpt>
      <trkpt lat="49.85463" lon="4.83384">
        <ele>383</ele>
        <time>2021-05-15T09:31:05.000Z</time>
      </trkpt>
      <trkpt lat="49.85463" lon="4.83384">
        <ele>383</ele>
        <time>2021-05-15T09:31:06.000Z</time>
      </trkpt>
      <trkpt lat="49.85463" lon="4.83385">
        <ele>383</ele>
        <time>2021-05-15T09:31:07.000Z</time>
      </trkpt>
      <trkpt lat="49.85464" lon="4.83384">
        <ele>383</ele>
        <time>2021-05-15T09:31:08.000Z</time>
      </trkpt>
      <trkpt lat="49.85464" lon="4.83384">
        <ele>383</ele>
        <time>2021-05-15T09:31:09.000Z</time>
      </trkpt>
      <trkpt lat="49.85464" lon="4.83384">
        <ele>383</ele>
        <time>2021-05-15T09:31:10.000Z</time>
      </trkpt>
      <trkpt lat="49.85464" lon="4.83385">
        <ele>383</ele>
        <time>2021-05-15T09:31:11.000Z</time>
      </trkpt>
      <trkpt lat="49.85463" lon="4.83385">
        <ele>383</ele>
        <time>2021-05-15T09:31:12.000Z</time>
      </trkpt>
      <trkpt lat="49.85462" lon="4.83385">
        <ele>383</ele>
        <time>2021-05-15T09:31:13.000Z</time>
      </trkpt>
      <trkpt lat="49.85461" lon="4.83385">
        <ele>384</ele>
        <time>2021-05-15T09:31:14.000Z</time>
      </trkpt>
      <trkpt lat="49.85459" lon="4.83384">
        <ele>384</ele>
        <time>2021-05-15T09:31:15.000Z</time>
      </trkpt>
      <trkpt lat="49.85456" lon="4.83383">
        <ele>384</ele>
        <time>2021-05-15T09:31:16.000Z</time>
      </trkpt>
      <trkpt lat="49.85454" lon="4.83382">
        <ele>384</ele>
        <time>2021-05-15T09:31:17.000Z</time>
      </trkpt>
      <trkpt lat="49.85451" lon="4.83382">
        <ele>384</ele>
        <time>2021-05-15T09:31:18.000Z</time>
      </trkpt>
      <trkpt lat="49.85448" lon="4.83382">
        <ele>384</ele>
        <time>2021-05-15T09:31:19.000Z</time>
      </trkpt>
      <trkpt lat="49.85444" lon="4.83382">
        <ele>385</ele>
        <time>2021-05-15T09:31:20.000Z</time>
      </trkpt>
      <trkpt lat="49.85441" lon="4.83381">
        <ele>385</ele>
        <time>2021-05-15T09:31:21.000Z</time>
      </trkpt>
      <trkpt lat="49.85438" lon="4.83382">
        <ele>385</ele>
        <time>2021-05-15T09:31:22.000Z</time>
      </trkpt>
      <trkpt lat="49.85435" lon="4.83382">
        <ele>385</ele>
        <time>2021-05-15T09:31:23.000Z</time>
      </trkpt>
      <trkpt lat="49.85433" lon="4.83382">
        <ele>385</ele>
        <time>2021-05-15T09:31:24.000Z</time>
      </trkpt>
      <trkpt lat="49.85431" lon="4.8338">
        <ele>386</ele>
        <time>2021-05-15T09:31:25.000Z</time>
      </trkpt>
      <trkpt lat="49.85429" lon="4.83379">
        <ele>386</ele>
        <time>2021-05-15T09:31:26.000Z</time>
      </trkpt>
      <trkpt lat="49.85428" lon="4.83378">
        <ele>386</ele>
        <time>2021-05-15T09:31:27.000Z</time>
      </trkpt>
      <trkpt lat="49.85426" lon="4.83378">
        <ele>386</ele>
        <time>2021-05-15T09:31:28.000Z</time>
      </trkpt>
      <trkpt lat="49.85424" lon="4.83379">
        <ele>386</ele>
        <time>2021-05-15T09:31:29.000Z</time>
      </trkpt>
      <trkpt lat="49.85422" lon="4.8338">
        <ele>386</ele>
        <time>2021-05-15T09:31:30.000Z</time>
      </trkpt>
      <trkpt lat="49.8542" lon="4.83382">
        <ele>386</ele>
        <time>2021-05-15T09:31:31.000Z</time>
      </trkpt>
      <trkpt lat="49.85418" lon="4.83384">
        <ele>386</ele>
        <time>2021-05-15T09:31:32.000Z</time>
      </trkpt>
      <trkpt lat="49.85416" lon="4.83386">
        <ele>386</ele>
        <time>2021-05-15T09:31:33.000Z</time>
      </trkpt>
      <trkpt lat="49.85414" lon="4.83389">
        <ele>386</ele>
        <time>2021-05-15T09:31:34.000Z</time>
      </trkpt>
      <trkpt lat="49.85413" lon="4.83391">
        <ele>386</ele>
        <time>2021-05-15T09:31:35.000Z</time>
      </trkpt>
      <trkpt lat="49.85412" lon="4.83393">
        <ele>386</ele>
        <time>2021-05-15T09:31:36.000Z</time>
      </trkpt>
      <trkpt lat="49.85411" lon="4.83395">
        <ele>386</ele>
        <time>2021-05-15T09:31:37.000Z</time>
      </trkpt>
      <trkpt lat="49.85411" lon="4.83397">
        <ele>386</ele>
        <time>2021-05-15T09:31:38.000Z</time>
      </trkpt>
      <trkpt lat="49.85411" lon="4.83398">
        <ele>386</ele>
        <time>2021-05-15T09:31:39.000Z</time>
      </trkpt>
      <trkpt lat="49.85412" lon="4.83401">
        <ele>386</ele>
        <time>2021-05-15T09:31:40.000Z</time>
      </trkpt>
      <trkpt lat="49.85413" lon="4.83404">
        <ele>386</ele>
        <time>2021-05-15T09:31:41.000Z</time>
      </trkpt>
      <trkpt lat="49.85415" lon="4.83408">
        <ele>386</ele>
        <time>2021-05-15T09:31:42.000Z</time>
      </trkpt>
      <trkpt lat="49.85416" lon="4.83413">
        <ele>386</ele>
        <time>2021-05-15T09:31:43.000Z</time>
      </trkpt>
      <trkpt lat="49.85418" lon="4.83418">
        <ele>386</ele>
        <time>2021-05-15T09:31:44.000Z</time>
      </trkpt>
      <trkpt lat="49.8542" lon="4.83424">
        <ele>386</ele>
        <time>2021-05-15T09:31:45.000Z</time>
      </trkpt>
      <trkpt lat="49.85424" lon="4.8343">
        <ele>386</ele>
        <time>2021-05-15T09:31:46.000Z</time>
      </trkpt>
      <trkpt lat="49.85427" lon="4.83435">
        <ele>386</ele>
        <time>2021-05-15T09:31:47.000Z</time>
      </trkpt>
      <trkpt lat="49.85432" lon="4.83439">
        <ele>386</ele>
        <time>2021-05-15T09:31:48.000Z</time>
      </trkpt>
      <trkpt lat="49.85436" lon="4.83444">
        <ele>386</ele>
        <time>2021-05-15T09:31:49.000Z</time>
      </trkpt>
      <trkpt lat="49.85441" lon="4.83448">
        <ele>385</ele>
        <time>2021-05-15T09:31:50.000Z</time>
      </trkpt>
      <trkpt lat="49.85446" lon="4.83453">
        <ele>385</ele>
        <time>2021-05-15T09:31:51.000Z</time>
      </trkpt>
      <trkpt lat="49.85451" lon="4.83457">
        <ele>385</ele>
        <time>2021-05-15T09:31:52.000Z</time>
      </trkpt>
      <trkpt lat="49.85456" lon="4.83461">
        <ele>385</ele>
        <time>2021-05-15T09:31:53.000Z</time>
      </trkpt>
      <trkpt lat="49.85461" lon="4.83465">
        <ele>385</ele>
        <time>2021-05-15T09:31:54.000Z</time>
      </trkpt>
      <trkpt lat="49.85466" lon="4.83469">
        <ele>385</ele>
        <time>2021-05-15T09:31:55.000Z</time>
      </trkpt>
      <trkpt lat="49.85471" lon="4.83474">
        <ele>385</ele>
        <time>2021-05-15T09:31:56.000Z</time>
      </trkpt>
      <trkpt lat="49.85476" lon="4.83478">
        <ele>386</ele>
        <time>2021-05-15T09:31:57.000Z</time>
      </trkpt>
      <trkpt lat="49.85481" lon="4.83483">
        <ele>386</ele>
        <time>2021-05-15T09:31:58.000Z</time>
      </trkpt>
      <trkpt lat="49.85487" lon="4.83487">
        <ele>385</ele>
        <time>2021-05-15T09:31:59.000Z</time>
      </trkpt>
      <trkpt lat="49.85492" lon="4.83492">
        <ele>385</ele>
        <time>2021-05-15T09:32:00.000Z</time>
      </trkpt>
      <trkpt lat="49.85497" lon="4.83497">
        <ele>385</ele>
        <time>2021-05-15T09:32:01.000Z</time>
      </trkpt>
      <trkpt lat="49.85503" lon="4.83502">
        <ele>385</ele>
        <time>2021-05-15T09:32:02.000Z</time>
      </trkpt>
      <trkpt lat="49.85508" lon="4.83507">
        <ele>385</ele>
        <time>2021-05-15T09:32:03.000Z</time>
      </trkpt>
      <trkpt lat="49.85514" lon="4.83511">
        <ele>385</ele>
        <time>2021-05-15T09:32:04.000Z</time>
      </trkpt>
      <trkpt lat="49.8552" lon="4.83516">
        <ele>385</ele>
        <time>2021-05-15T09:32:05.000Z</time>
      </trkpt>
      <trkpt lat="49.85526" lon="4.83521">
        <ele>385</ele>
        <time>2021-05-15T09:32:06.000Z</time>
      </trkpt>
      <trkpt lat="49.85532" lon="4.83527">
        <ele>384</ele>
        <time>2021-05-15T09:32:07.000Z</time>
      </trkpt>
      <trkpt lat="49.85539" lon="4.83533">
        <ele>384</ele>
        <time>2021-05-15T09:32:08.000Z</time>
      </trkpt>
      <trkpt lat="49.85546" lon="4.83539">
        <ele>384</ele>
        <time>2021-05-15T09:32:09.000Z</time>
      </trkpt>
      <trkpt lat="49.85553" lon="4.83545">
        <ele>383</ele>
        <time>2021-05-15T09:32:10.000Z</time>
      </trkpt>
      <trkpt lat="49.8556" lon="4.83552">
        <ele>383</ele>
        <time>2021-05-15T09:32:11.000Z</time>
      </trkpt>
      <trkpt lat="49.85567" lon="4.83559">
        <ele>382</ele>
        <time>2021-05-15T09:32:12.000Z</time>
      </trkpt>
      <trkpt lat="49.85574" lon="4.83567">
        <ele>382</ele>
        <time>2021-05-15T09:32:13.000Z</time>
      </trkpt>
      <trkpt lat="49.85581" lon="4.83576">
        <ele>381</ele>
        <time>2021-05-15T09:32:14.000Z</time>
      </trkpt>
      <trkpt lat="49.85587" lon="4.83586">
        <ele>380</ele>
        <time>2021-05-15T09:32:15.000Z</time>
      </trkpt>
      <trkpt lat="49.85593" lon="4.83597">
        <ele>380</ele>
        <time>2021-05-15T09:32:16.000Z</time>
      </trkpt>
      <trkpt lat="49.85598" lon="4.83609">
        <ele>379</ele>
        <time>2021-05-15T09:32:17.000Z</time>
      </trkpt>
      <trkpt lat="49.85603" lon="4.83623">
        <ele>378</ele>
        <time>2021-05-15T09:32:18.000Z</time>
      </trkpt>
      <trkpt lat="49.85607" lon="4.83636">
        <ele>378</ele>
        <time>2021-05-15T09:32:19.000Z</time>
      </trkpt>
      <trkpt lat="49.85611" lon="4.8365">
        <ele>377</ele>
        <time>2021-05-15T09:32:20.000Z</time>
      </trkpt>
      <trkpt lat="49.85616" lon="4.83664">
        <ele>377</ele>
        <time>2021-05-15T09:32:21.000Z</time>
      </trkpt>
      <trkpt lat="49.8562" lon="4.83679">
        <ele>376</ele>
        <time>2021-05-15T09:32:22.000Z</time>
      </trkpt>
      <trkpt lat="49.85624" lon="4.83694">
        <ele>375</ele>
        <time>2021-05-15T09:32:23.000Z</time>
      </trkpt>
      <trkpt lat="49.85628" lon="4.8371">
        <ele>375</ele>
        <time>2021-05-15T09:32:24.000Z</time>
      </trkpt>
      <trkpt lat="49.85632" lon="4.83725">
        <ele>374</ele>
        <time>2021-05-15T09:32:25.000Z</time>
      </trkpt>
      <trkpt lat="49.85637" lon="4.8374">
        <ele>374</ele>
        <time>2021-05-15T09:32:26.000Z</time>
      </trkpt>
      <trkpt lat="49.85642" lon="4.83755">
        <ele>373</ele>
        <time>2021-05-15T09:32:27.000Z</time>
      </trkpt>
      <trkpt lat="49.85648" lon="4.83769">
        <ele>372</ele>
        <time>2021-05-15T09:32:28.000Z</time>
      </trkpt>
      <trkpt lat="49.85655" lon="4.83781">
        <ele>372</ele>
        <time>2021-05-15T09:32:29.000Z</time>
      </trkpt>
      <trkpt lat="49.85663" lon="4.83793">
        <ele>371</ele>
        <time>2021-05-15T09:32:30.000Z</time>
      </trkpt>
      <trkpt lat="49.85672" lon="4.83803">
        <ele>370</ele>
        <time>2021-05-15T09:32:31.000Z</time>
      </trkpt>
      <trkpt lat="49.85681" lon="4.83812">
        <ele>370</ele>
        <time>2021-05-15T09:32:32.000Z</time>
      </trkpt>
      <trkpt lat="49.8569" lon="4.8382">
        <ele>369</ele>
        <time>2021-05-15T09:32:33.000Z</time>
      </trkpt>
      <trkpt lat="49.857" lon="4.83828">
        <ele>368</ele>
        <time>2021-05-15T09:32:34.000Z</time>
      </trkpt>
      <trkpt lat="49.85709" lon="4.83836">
        <ele>367</ele>
        <time>2021-05-15T09:32:35.000Z</time>
      </trkpt>
      <trkpt lat="49.85719" lon="4.83845">
        <ele>367</ele>
        <time>2021-05-15T09:32:36.000Z</time>
      </trkpt>
      <trkpt lat="49.85728" lon="4.83853">
        <ele>366</ele>
        <time>2021-05-15T09:32:37.000Z</time>
      </trkpt>
      <trkpt lat="49.85738" lon="4.83861">
        <ele>365</ele>
        <time>2021-05-15T09:32:38.000Z</time>
      </trkpt>
      <trkpt lat="49.85747" lon="4.83869">
        <ele>365</ele>
        <time>2021-05-15T09:32:39.000Z</time>
      </trkpt>
      <trkpt lat="49.85757" lon="4.83876">
        <ele>364</ele>
        <time>2021-05-15T09:32:40.000Z</time>
      </trkpt>
      <trkpt lat="49.85767" lon="4.83884">
        <ele>364</ele>
        <time>2021-05-15T09:32:41.000Z</time>
      </trkpt>
      <trkpt lat="49.85776" lon="4.83892">
        <ele>363</ele>
        <time>2021-05-15T09:32:42.000Z</time>
      </trkpt>
      <trkpt lat="49.85785" lon="4.839">
        <ele>363</ele>
        <time>2021-05-15T09:32:43.000Z</time>
      </trkpt>
      <trkpt lat="49.85794" lon="4.83907">
        <ele>363</ele>
        <time>2021-05-15T09:32:44.000Z</time>
      </trkpt>
      <trkpt lat="49.85803" lon="4.83914">
        <ele>362</ele>
        <time>2021-05-15T09:32:45.000Z</time>
      </trkpt>
      <trkpt lat="49.85812" lon="4.83921">
        <ele>362</ele>
        <time>2021-05-15T09:32:46.000Z</time>
      </trkpt>
      <trkpt lat="49.85821" lon="4.83929">
        <ele>362</ele>
        <time>2021-05-15T09:32:47.000Z</time>
      </trkpt>
      <trkpt lat="49.85829" lon="4.83935">
        <ele>362</ele>
        <time>2021-05-15T09:32:48.000Z</time>
      </trkpt>
      <trkpt lat="49.85837" lon="4.83942">
        <ele>362</ele>
        <time>2021-05-15T09:32:49.000Z</time>
      </trkpt>
      <trkpt lat="49.85846" lon="4.83949">
        <ele>362</ele>
        <time>2021-05-15T09:32:50.000Z</time>
      </trkpt>
      <trkpt lat="49.85854" lon="4.83955">
        <ele>362</ele>
        <time>2021-05-15T09:32:51.000Z</time>
      </trkpt>
      <trkpt lat="49.85862" lon="4.83961">
        <ele>362</ele>
        <time>2021-05-15T09:32:52.000Z</time>
      </trkpt>
      <trkpt lat="49.8587" lon="4.83968">
        <ele>362</ele>
        <time>2021-05-15T09:32:53.000Z</time>
      </trkpt>
      <trkpt lat="49.85878" lon="4.83975">
        <ele>362</ele>
        <time>2021-05-15T09:32:54.000Z</time>
      </trkpt>
      <trkpt lat="49.85885" lon="4.83981">
        <ele>362</ele>
        <time>2021-05-15T09:32:55.000Z</time>
      </trkpt>
      <trkpt lat="49.85893" lon="4.83988">
        <ele>361</ele>
        <time>2021-05-15T09:32:56.000Z</time>
      </trkpt>
      <trkpt lat="49.859" lon="4.83994">
        <ele>361</ele>
        <time>2021-05-15T09:32:57.000Z</time>
      </trkpt>
      <trkpt lat="49.85908" lon="4.84">
        <ele>361</ele>
        <time>2021-05-15T09:32:58.000Z</time>
      </trkpt>
      <trkpt lat="49.85916" lon="4.84007">
        <ele>361</ele>
        <time>2021-05-15T09:32:59.000Z</time>
      </trkpt>
      <trkpt lat="49.85923" lon="4.84013">
        <ele>360</ele>
        <time>2021-05-15T09:33:00.000Z</time>
      </trkpt>
      <trkpt lat="49.85931" lon="4.84019">
        <ele>360</ele>
        <time>2021-05-15T09:33:01.000Z</time>
      </trkpt>
      <trkpt lat="49.85939" lon="4.84025">
        <ele>360</ele>
        <time>2021-05-15T09:33:02.000Z</time>
      </trkpt>
      <trkpt lat="49.85947" lon="4.84032">
        <ele>359</ele>
        <time>2021-05-15T09:33:03.000Z</time>
      </trkpt>
      <trkpt lat="49.85955" lon="4.84038">
        <ele>359</ele>
        <time>2021-05-15T09:33:04.000Z</time>
      </trkpt>
      <trkpt lat="49.85963" lon="4.84045">
        <ele>359</ele>
        <time>2021-05-15T09:33:05.000Z</time>
      </trkpt>
      <trkpt lat="49.85972" lon="4.84051">
        <ele>358</ele>
        <time>2021-05-15T09:33:06.000Z</time>
      </trkpt>
      <trkpt lat="49.8598" lon="4.84058">
        <ele>358</ele>
        <time>2021-05-15T09:33:07.000Z</time>
      </trkpt>
      <trkpt lat="49.85989" lon="4.84065">
        <ele>357</ele>
        <time>2021-05-15T09:33:08.000Z</time>
      </trkpt>
      <trkpt lat="49.85998" lon="4.84072">
        <ele>357</ele>
        <time>2021-05-15T09:33:09.000Z</time>
      </trkpt>
      <trkpt lat="49.86007" lon="4.84079">
        <ele>356</ele>
        <time>2021-05-15T09:33:10.000Z</time>
      </trkpt>
      <trkpt lat="49.86016" lon="4.84087">
        <ele>356</ele>
        <time>2021-05-15T09:33:11.000Z</time>
      </trkpt>
      <trkpt lat="49.86024" lon="4.84096">
        <ele>355</ele>
        <time>2021-05-15T09:33:12.000Z</time>
      </trkpt>
      <trkpt lat="49.86033" lon="4.84105">
        <ele>355</ele>
        <time>2021-05-15T09:33:13.000Z</time>
      </trkpt>
      <trkpt lat="49.86042" lon="4.84114">
        <ele>354</ele>
        <time>2021-05-15T09:33:14.000Z</time>
      </trkpt>
      <trkpt lat="49.8605" lon="4.84124">
        <ele>353</ele>
        <time>2021-05-15T09:33:15.000Z</time>
      </trkpt>
      <trkpt lat="49.86059" lon="4.84134">
        <ele>353</ele>
        <time>2021-05-15T09:33:16.000Z</time>
      </trkpt>
      <trkpt lat="49.86068" lon="4.84143">
        <ele>352</ele>
        <time>2021-05-15T09:33:17.000Z</time>
      </trkpt>
      <trkpt lat="49.86078" lon="4.84153">
        <ele>351</ele>
        <time>2021-05-15T09:33:18.000Z</time>
      </trkpt>
      <trkpt lat="49.86087" lon="4.84163">
        <ele>351</ele>
        <time>2021-05-15T09:33:19.000Z</time>
      </trkpt>
      <trkpt lat="49.86096" lon="4.84173">
        <ele>350</ele>
        <time>2021-05-15T09:33:20.000Z</time>
      </trkpt>
      <trkpt lat="49.86106" lon="4.84184">
        <ele>349</ele>
        <time>2021-05-15T09:33:21.000Z</time>
      </trkpt>
      <trkpt lat="49.86115" lon="4.84195">
        <ele>348</ele>
        <time>2021-05-15T09:33:22.000Z</time>
      </trkpt>
      <trkpt lat="49.86124" lon="4.84207">
        <ele>347</ele>
        <time>2021-05-15T09:33:23.000Z</time>
      </trkpt>
      <trkpt lat="49.86132" lon="4.84219">
        <ele>347</ele>
        <time>2021-05-15T09:33:24.000Z</time>
      </trkpt>
      <trkpt lat="49.86139" lon="4.84233">
        <ele>346</ele>
        <time>2021-05-15T09:33:25.000Z</time>
      </trkpt>
      <trkpt lat="49.86146" lon="4.84248">
        <ele>345</ele>
        <time>2021-05-15T09:33:26.000Z</time>
      </trkpt>
      <trkpt lat="49.86152" lon="4.84262">
        <ele>344</ele>
        <time>2021-05-15T09:33:27.000Z</time>
      </trkpt>
      <trkpt lat="49.86159" lon="4.84275">
        <ele>344</ele>
        <time>2021-05-15T09:33:28.000Z</time>
      </trkpt>
      <trkpt lat="49.86167" lon="4.84285">
        <ele>343</ele>
        <time>2021-05-15T09:33:29.000Z</time>
      </trkpt>
      <trkpt lat="49.86177" lon="4.84292">
        <ele>342</ele>
        <time>2021-05-15T09:33:30.000Z</time>
      </trkpt>
      <trkpt lat="49.86186" lon="4.84295">
        <ele>342</ele>
        <time>2021-05-15T09:33:31.000Z</time>
      </trkpt>
      <trkpt lat="49.86196" lon="4.84294">
        <ele>341</ele>
        <time>2021-05-15T09:33:32.000Z</time>
      </trkpt>
      <trkpt lat="49.86206" lon="4.8429">
        <ele>340</ele>
        <time>2021-05-15T09:33:33.000Z</time>
      </trkpt>
      <trkpt lat="49.86214" lon="4.84282">
        <ele>340</ele>
        <time>2021-05-15T09:33:34.000Z</time>
      </trkpt>
      <trkpt lat="49.86221" lon="4.84272">
        <ele>339</ele>
        <time>2021-05-15T09:33:35.000Z</time>
      </trkpt>
      <trkpt lat="49.86227" lon="4.8426">
        <ele>339</ele>
        <time>2021-05-15T09:33:36.000Z</time>
      </trkpt>
      <trkpt lat="49.86233" lon="4.84248">
        <ele>338</ele>
        <time>2021-05-15T09:33:37.000Z</time>
      </trkpt>
      <trkpt lat="49.86239" lon="4.84234">
        <ele>337</ele>
        <time>2021-05-15T09:33:38.000Z</time>
      </trkpt>
      <trkpt lat="49.86244" lon="4.8422">
        <ele>337</ele>
        <time>2021-05-15T09:33:39.000Z</time>
      </trkpt>
      <trkpt lat="49.86249" lon="4.84206">
        <ele>336</ele>
        <time>2021-05-15T09:33:40.000Z</time>
      </trkpt>
      <trkpt lat="49.86254" lon="4.84191">
        <ele>335</ele>
        <time>2021-05-15T09:33:41.000Z</time>
      </trkpt>
      <trkpt lat="49.86258" lon="4.84175">
        <ele>334</ele>
        <time>2021-05-15T09:33:42.000Z</time>
      </trkpt>
      <trkpt lat="49.86262" lon="4.84159">
        <ele>334</ele>
        <time>2021-05-15T09:33:43.000Z</time>
      </trkpt>
      <trkpt lat="49.86265" lon="4.84144">
        <ele>333</ele>
        <time>2021-05-15T09:33:44.000Z</time>
      </trkpt>
      <trkpt lat="49.86269" lon="4.8413">
        <ele>332</ele>
        <time>2021-05-15T09:33:45.000Z</time>
      </trkpt>
      <trkpt lat="49.86271" lon="4.84117">
        <ele>331</ele>
        <time>2021-05-15T09:33:46.000Z</time>
      </trkpt>
      <trkpt lat="49.86274" lon="4.84108">
        <ele>331</ele>
        <time>2021-05-15T09:33:47.000Z</time>
      </trkpt>
      <trkpt lat="49.86277" lon="4.84101">
        <ele>331</ele>
        <time>2021-05-15T09:33:48.000Z</time>
      </trkpt>
      <trkpt lat="49.86281" lon="4.84098">
        <ele>330</ele>
        <time>2021-05-15T09:33:49.000Z</time>
      </trkpt>
      <trkpt lat="49.86286" lon="4.84099">
        <ele>330</ele>
        <time>2021-05-15T09:33:50.000Z</time>
      </trkpt>
      <trkpt lat="49.86289" lon="4.84104">
        <ele>330</ele>
        <time>2021-05-15T09:33:51.000Z</time>
      </trkpt>
      <trkpt lat="49.8629" lon="4.8411">
        <ele>330</ele>
        <time>2021-05-15T09:33:52.000Z</time>
      </trkpt>
      <trkpt lat="49.86289" lon="4.84116">
        <ele>330</ele>
        <time>2021-05-15T09:33:53.000Z</time>
      </trkpt>
      <trkpt lat="49.86286" lon="4.84122">
        <ele>330</ele>
        <time>2021-05-15T09:33:54.000Z</time>
      </trkpt>
      <trkpt lat="49.86283" lon="4.84129">
        <ele>330</ele>
        <time>2021-05-15T09:33:55.000Z</time>
      </trkpt>
      <trkpt lat="49.86281" lon="4.84136">
        <ele>330</ele>
        <time>2021-05-15T09:33:56.000Z</time>
      </trkpt>
      <trkpt lat="49.86278" lon="4.84143">
        <ele>330</ele>
        <time>2021-05-15T09:33:57.000Z</time>
      </trkpt>
      <trkpt lat="49.86275" lon="4.84152">
        <ele>330</ele>
        <time>2021-05-15T09:33:58.000Z</time>
      </trkpt>
      <trkpt lat="49.86273" lon="4.84161">
        <ele>330</ele>
        <time>2021-05-15T09:33:59.000Z</time>
      </trkpt>
      <trkpt lat="49.8627" lon="4.84171">
        <ele>330</ele>
        <time>2021-05-15T09:34:00.000Z</time>
      </trkpt>
      <trkpt lat="49.86269" lon="4.84181">
        <ele>330</ele>
        <time>2021-05-15T09:34:01.000Z</time>
      </trkpt>
      <trkpt lat="49.86268" lon="4.84192">
        <ele>329</ele>
        <time>2021-05-15T09:34:02.000Z</time>
      </trkpt>
      <trkpt lat="49.86267" lon="4.84203">
        <ele>329</ele>
        <time>2021-05-15T09:34:03.000Z</time>
      </trkpt>
      <trkpt lat="49.86266" lon="4.84214">
        <ele>329</ele>
        <time>2021-05-15T09:34:04.000Z</time>
      </trkpt>
      <trkpt lat="49.86265" lon="4.84226">
        <ele>329</ele>
        <time>2021-05-15T09:34:05.000Z</time>
      </trkpt>
      <trkpt lat="49.86264" lon="4.84238">
        <ele>329</ele>
        <time>2021-05-15T09:34:06.000Z</time>
      </trkpt>
      <trkpt lat="49.86263" lon="4.8425">
        <ele>328</ele>
        <time>2021-05-15T09:34:07.000Z</time>
      </trkpt>
      <trkpt lat="49.86262" lon="4.84262">
        <ele>328</ele>
        <time>2021-05-15T09:34:08.000Z</time>
      </trkpt>
      <trkpt lat="49.86261" lon="4.84275">
        <ele>328</ele>
        <time>2021-05-15T09:34:09.000Z</time>
      </trkpt>
      <trkpt lat="49.86261" lon="4.84288">
        <ele>327</ele>
        <time>2021-05-15T09:34:10.000Z</time>
      </trkpt>
      <trkpt lat="49.8626" lon="4.84301">
        <ele>327</ele>
        <time>2021-05-15T09:34:11.000Z</time>
      </trkpt>
      <trkpt lat="49.8626" lon="4.84315">
        <ele>326</ele>
        <time>2021-05-15T09:34:12.000Z</time>
      </trkpt>
      <trkpt lat="49.86259" lon="4.84329">
        <ele>326</ele>
        <time>2021-05-15T09:34:13.000Z</time>
      </trkpt>
      <trkpt lat="49.8626" lon="4.84344">
        <ele>325</ele>
        <time>2021-05-15T09:34:14.000Z</time>
      </trkpt>
      <trkpt lat="49.86261" lon="4.84359">
        <ele>325</ele>
        <time>2021-05-15T09:34:15.000Z</time>
      </trkpt>
      <trkpt lat="49.86263" lon="4.84375">
        <ele>324</ele>
        <time>2021-05-15T09:34:16.000Z</time>
      </trkpt>
      <trkpt lat="49.86265" lon="4.84391">
        <ele>324</ele>
        <time>2021-05-15T09:34:17.000Z</time>
      </trkpt>
      <trkpt lat="49.86267" lon="4.84407">
        <ele>323</ele>
        <time>2021-05-15T09:34:18.000Z</time>
      </trkpt>
      <trkpt lat="49.86269" lon="4.84424">
        <ele>322</ele>
        <time>2021-05-15T09:34:19.000Z</time>
      </trkpt>
      <trkpt lat="49.86271" lon="4.8444">
        <ele>321</ele>
        <time>2021-05-15T09:34:20.000Z</time>
      </trkpt>
      <trkpt lat="49.86274" lon="4.84457">
        <ele>320</ele>
        <time>2021-05-15T09:34:21.000Z</time>
      </trkpt>
      <trkpt lat="49.86277" lon="4.84473">
        <ele>320</ele>
        <time>2021-05-15T09:34:22.000Z</time>
      </trkpt>
      <trkpt lat="49.86281" lon="4.84488">
        <ele>319</ele>
        <time>2021-05-15T09:34:23.000Z</time>
      </trkpt>
      <trkpt lat="49.86284" lon="4.84504">
        <ele>318</ele>
        <time>2021-05-15T09:34:24.000Z</time>
      </trkpt>
      <trkpt lat="49.86288" lon="4.84519">
        <ele>318</ele>
        <time>2021-05-15T09:34:25.000Z</time>
      </trkpt>
      <trkpt lat="49.86291" lon="4.84535">
        <ele>317</ele>
        <time>2021-05-15T09:34:26.000Z</time>
      </trkpt>
      <trkpt lat="49.86293" lon="4.8455">
        <ele>316</ele>
        <time>2021-05-15T09:34:27.000Z</time>
      </trkpt>
      <trkpt lat="49.86294" lon="4.84566">
        <ele>316</ele>
        <time>2021-05-15T09:34:28.000Z</time>
      </trkpt>
      <trkpt lat="49.86293" lon="4.84581">
        <ele>315</ele>
        <time>2021-05-15T09:34:29.000Z</time>
      </trkpt>
      <trkpt lat="49.86291" lon="4.84596">
        <ele>314</ele>
        <time>2021-05-15T09:34:30.000Z</time>
      </trkpt>
      <trkpt lat="49.86289" lon="4.84611">
        <ele>313</ele>
        <time>2021-05-15T09:34:31.000Z</time>
      </trkpt>
      <trkpt lat="49.86287" lon="4.84625">
        <ele>313</ele>
        <time>2021-05-15T09:34:32.000Z</time>
      </trkpt>
      <trkpt lat="49.86285" lon="4.84639">
        <ele>312</ele>
        <time>2021-05-15T09:34:33.000Z</time>
      </trkpt>
      <trkpt lat="49.86283" lon="4.84652">
        <ele>311</ele>
        <time>2021-05-15T09:34:34.000Z</time>
      </trkpt>
      <trkpt lat="49.86279" lon="4.84663">
        <ele>311</ele>
        <time>2021-05-15T09:34:35.000Z</time>
      </trkpt>
      <trkpt lat="49.86274" lon="4.84671">
        <ele>310</ele>
        <time>2021-05-15T09:34:36.000Z</time>
      </trkpt>
      <trkpt lat="49.86268" lon="4.84676">
        <ele>309</ele>
        <time>2021-05-15T09:34:37.000Z</time>
      </trkpt>
      <trkpt lat="49.86261" lon="4.8468">
        <ele>308</ele>
        <time>2021-05-15T09:34:38.000Z</time>
      </trkpt>
      <trkpt lat="49.86255" lon="4.84682">
        <ele>308</ele>
        <time>2021-05-15T09:34:39.000Z</time>
      </trkpt>
      <trkpt lat="49.86247" lon="4.84683">
        <ele>307</ele>
        <time>2021-05-15T09:34:40.000Z</time>
      </trkpt>
      <trkpt lat="49.8624" lon="4.84683">
        <ele>307</ele>
        <time>2021-05-15T09:34:41.000Z</time>
      </trkpt>
      <trkpt lat="49.86232" lon="4.84683">
        <ele>306</ele>
        <time>2021-05-15T09:34:42.000Z</time>
      </trkpt>
      <trkpt lat="49.86224" lon="4.84681">
        <ele>305</ele>
        <time>2021-05-15T09:34:43.000Z</time>
      </trkpt>
      <trkpt lat="49.86216" lon="4.84679">
        <ele>305</ele>
        <time>2021-05-15T09:34:44.000Z</time>
      </trkpt>
      <trkpt lat="49.86208" lon="4.84676">
        <ele>304</ele>
        <time>2021-05-15T09:34:45.000Z</time>
      </trkpt>
      <trkpt lat="49.862" lon="4.84673">
        <ele>304</ele>
        <time>2021-05-15T09:34:46.000Z</time>
      </trkpt>
      <trkpt lat="49.86191" lon="4.84668">
        <ele>303</ele>
        <time>2021-05-15T09:34:47.000Z</time>
      </trkpt>
      <trkpt lat="49.86184" lon="4.84662">
        <ele>303</ele>
        <time>2021-05-15T09:34:48.000Z</time>
      </trkpt>
      <trkpt lat="49.86177" lon="4.84654">
        <ele>302</ele>
        <time>2021-05-15T09:34:49.000Z</time>
      </trkpt>
      <trkpt lat="49.8617" lon="4.84644">
        <ele>302</ele>
        <time>2021-05-15T09:34:50.000Z</time>
      </trkpt>
      <trkpt lat="49.86164" lon="4.84634">
        <ele>301</ele>
        <time>2021-05-15T09:34:51.000Z</time>
      </trkpt>
      <trkpt lat="49.86158" lon="4.84623">
        <ele>301</ele>
        <time>2021-05-15T09:34:52.000Z</time>
      </trkpt>
      <trkpt lat="49.86152" lon="4.84612">
        <ele>300</ele>
        <time>2021-05-15T09:34:53.000Z</time>
      </trkpt>
      <trkpt lat="49.86146" lon="4.84601">
        <ele>299</ele>
        <time>2021-05-15T09:34:54.000Z</time>
      </trkpt>
      <trkpt lat="49.86141" lon="4.8459">
        <ele>299</ele>
        <time>2021-05-15T09:34:55.000Z</time>
      </trkpt>
      <trkpt lat="49.86135" lon="4.84578">
        <ele>298</ele>
        <time>2021-05-15T09:34:56.000Z</time>
      </trkpt>
      <trkpt lat="49.86129" lon="4.84567">
        <ele>298</ele>
        <time>2021-05-15T09:34:57.000Z</time>
      </trkpt>
      <trkpt lat="49.86123" lon="4.84556">
        <ele>297</ele>
        <time>2021-05-15T09:34:58.000Z</time>
      </trkpt>
      <trkpt lat="49.86117" lon="4.84546">
        <ele>297</ele>
        <time>2021-05-15T09:34:59.000Z</time>
      </trkpt>
      <trkpt lat="49.8611" lon="4.84535">
        <ele>296</ele>
        <time>2021-05-15T09:35:00.000Z</time>
      </trkpt>
      <trkpt lat="49.86104" lon="4.84524">
        <ele>295</ele>
        <time>2021-05-15T09:35:01.000Z</time>
      </trkpt>
      <trkpt lat="49.86098" lon="4.84512">
        <ele>295</ele>
        <time>2021-05-15T09:35:02.000Z</time>
      </trkpt>
      <trkpt lat="49.86093" lon="4.845">
        <ele>294</ele>
        <time>2021-05-15T09:35:03.000Z</time>
      </trkpt>
      <trkpt lat="49.86087" lon="4.84488">
        <ele>294</ele>
        <time>2021-05-15T09:35:04.000Z</time>
      </trkpt>
      <trkpt lat="49.86082" lon="4.84476">
        <ele>293</ele>
        <time>2021-05-15T09:35:05.000Z</time>
      </trkpt>
      <trkpt lat="49.86077" lon="4.84464">
        <ele>293</ele>
        <time>2021-05-15T09:35:06.000Z</time>
      </trkpt>
      <trkpt lat="49.86071" lon="4.84452">
        <ele>292</ele>
        <time>2021-05-15T09:35:07.000Z</time>
      </trkpt>
      <trkpt lat="49.86066" lon="4.8444">
        <ele>292</ele>
        <time>2021-05-15T09:35:08.000Z</time>
      </trkpt>
      <trkpt lat="49.8606" lon="4.84428">
        <ele>292</ele>
        <time>2021-05-15T09:35:09.000Z</time>
      </trkpt>
      <trkpt lat="49.86055" lon="4.84416">
        <ele>291</ele>
        <time>2021-05-15T09:35:10.000Z</time>
      </trkpt>
      <trkpt lat="49.86049" lon="4.84405">
        <ele>291</ele>
        <time>2021-05-15T09:35:11.000Z</time>
      </trkpt>
      <trkpt lat="49.86044" lon="4.84395">
        <ele>291</ele>
        <time>2021-05-15T09:35:12.000Z</time>
      </trkpt>
      <trkpt lat="49.86039" lon="4.84385">
        <ele>291</ele>
        <time>2021-05-15T09:35:13.000Z</time>
      </trkpt>
      <trkpt lat="49.86033" lon="4.84375">
        <ele>291</ele>
        <time>2021-05-15T09:35:14.000Z</time>
      </trkpt>
      <trkpt lat="49.86027" lon="4.84366">
        <ele>291</ele>
        <time>2021-05-15T09:35:15.000Z</time>
      </trkpt>
      <trkpt lat="49.86021" lon="4.84359">
        <ele>291</ele>
        <time>2021-05-15T09:35:16.000Z</time>
      </trkpt>
      <trkpt lat="49.86015" lon="4.84353">
        <ele>291</ele>
        <time>2021-05-15T09:35:17.000Z</time>
      </trkpt>
      <trkpt lat="49.86009" lon="4.84349">
        <ele>291</ele>
        <time>2021-05-15T09:35:18.000Z</time>
      </trkpt>
      <trkpt lat="49.86003" lon="4.84348">
        <ele>291</ele>
        <time>2021-05-15T09:35:19.000Z</time>
      </trkpt>
      <trkpt lat="49.85997" lon="4.84351">
        <ele>291</ele>
        <time>2021-05-15T09:35:20.000Z</time>
      </trkpt>
      <trkpt lat="49.8599" lon="4.84357">
        <ele>291</ele>
        <time>2021-05-15T09:35:21.000Z</time>
      </trkpt>
      <trkpt lat="49.85983" lon="4.84366">
        <ele>291</ele>
        <time>2021-05-15T09:35:22.000Z</time>
      </trkpt>
      <trkpt lat="49.85975" lon="4.84376">
        <ele>290</ele>
        <time>2021-05-15T09:35:23.000Z</time>
      </trkpt>
      <trkpt lat="49.85967" lon="4.84386">
        <ele>290</ele>
        <time>2021-05-15T09:35:24.000Z</time>
      </trkpt>
      <trkpt lat="49.8596" lon="4.84396">
        <ele>290</ele>
        <time>2021-05-15T09:35:25.000Z</time>
      </trkpt>
      <trkpt lat="49.85952" lon="4.84405">
        <ele>290</ele>
        <time>2021-05-15T09:35:26.000Z</time>
      </trkpt>
      <trkpt lat="49.85944" lon="4.84414">
        <ele>289</ele>
        <time>2021-05-15T09:35:27.000Z</time>
      </trkpt>
      <trkpt lat="49.85935" lon="4.8442">
        <ele>289</ele>
        <time>2021-05-15T09:35:28.000Z</time>
      </trkpt>
      <trkpt lat="49.85926" lon="4.84425">
        <ele>288</ele>
        <time>2021-05-15T09:35:29.000Z</time>
      </trkpt>
      <trkpt lat="49.85916" lon="4.84428">
        <ele>288</ele>
        <time>2021-05-15T09:35:30.000Z</time>
      </trkpt>
      <trkpt lat="49.85906" lon="4.8443">
        <ele>288</ele>
        <time>2021-05-15T09:35:31.000Z</time>
      </trkpt>
      <trkpt lat="49.85897" lon="4.8443">
        <ele>287</ele>
        <time>2021-05-15T09:35:32.000Z</time>
      </trkpt>
      <trkpt lat="49.85887" lon="4.84427">
        <ele>287</ele>
        <time>2021-05-15T09:35:33.000Z</time>
      </trkpt>
      <trkpt lat="49.85878" lon="4.84423">
        <ele>287</ele>
        <time>2021-05-15T09:35:34.000Z</time>
      </trkpt>
      <trkpt lat="49.85869" lon="4.84418">
        <ele>287</ele>
        <time>2021-05-15T09:35:35.000Z</time>
      </trkpt>
      <trkpt lat="49.8586" lon="4.84413">
        <ele>286</ele>
        <time>2021-05-15T09:35:36.000Z</time>
      </trkpt>
      <trkpt lat="49.85852" lon="4.84408">
        <ele>286</ele>
        <time>2021-05-15T09:35:37.000Z</time>
      </trkpt>
      <trkpt lat="49.85844" lon="4.84403">
        <ele>286</ele>
        <time>2021-05-15T09:35:38.000Z</time>
      </trkpt>
      <trkpt lat="49.85836" lon="4.84397">
        <ele>285</ele>
        <time>2021-05-15T09:35:39.000Z</time>
      </trkpt>
      <trkpt lat="49.85828" lon="4.84391">
        <ele>285</ele>
        <time>2021-05-15T09:35:40.000Z</time>
      </trkpt>
      <trkpt lat="49.85821" lon="4.84383">
        <ele>285</ele>
        <time>2021-05-15T09:35:41.000Z</time>
      </trkpt>
      <trkpt lat="49.85814" lon="4.84374">
        <ele>285</ele>
        <time>2021-05-15T09:35:42.000Z</time>
      </trkpt>
      <trkpt lat="49.85809" lon="4.84365">
        <ele>284</ele>
        <time>2021-05-15T09:35:43.000Z</time>
      </trkpt>
      <trkpt lat="49.85804" lon="4.84356">
        <ele>284</ele>
        <time>2021-05-15T09:35:44.000Z</time>
      </trkpt>
      <trkpt lat="49.85799" lon="4.84349">
        <ele>284</ele>
        <time>2021-05-15T09:35:45.000Z</time>
      </trkpt>
      <trkpt lat="49.85794" lon="4.84343">
        <ele>284</ele>
        <time>2021-05-15T09:35:46.000Z</time>
      </trkpt>
      <trkpt lat="49.85789" lon="4.84342">
        <ele>284</ele>
        <time>2021-05-15T09:35:47.000Z</time>
      </trkpt>
      <trkpt lat="49.85784" lon="4.84348">
        <ele>284</ele>
        <time>2021-05-15T09:35:48.000Z</time>
      </trkpt>
      <trkpt lat="49.8578" lon="4.84357">
        <ele>284</ele>
        <time>2021-05-15T09:35:49.000Z</time>
      </trkpt>
      <trkpt lat="49.85776" lon="4.8437">
        <ele>283</ele>
        <time>2021-05-15T09:35:50.000Z</time>
      </trkpt>
      <trkpt lat="49.85773" lon="4.84383">
        <ele>283</ele>
        <time>2021-05-15T09:35:51.000Z</time>
      </trkpt>
      <trkpt lat="49.85771" lon="4.84398">
        <ele>283</ele>
        <time>2021-05-15T09:35:52.000Z</time>
      </trkpt>
      <trkpt lat="49.85768" lon="4.84412">
        <ele>282</ele>
        <time>2021-05-15T09:35:53.000Z</time>
      </trkpt>
      <trkpt lat="49.85765" lon="4.84427">
        <ele>282</ele>
        <time>2021-05-15T09:35:54.000Z</time>
      </trkpt>
      <trkpt lat="49.85762" lon="4.84442">
        <ele>281</ele>
        <time>2021-05-15T09:35:55.000Z</time>
      </trkpt>
      <trkpt lat="49.85759" lon="4.84457">
        <ele>280</ele>
        <time>2021-05-15T09:35:56.000Z</time>
      </trkpt>
      <trkpt lat="49.85758" lon="4.84471">
        <ele>280</ele>
        <time>2021-05-15T09:35:57.000Z</time>
      </trkpt>
      <trkpt lat="49.85759" lon="4.84485">
        <ele>279</ele>
        <time>2021-05-15T09:35:58.000Z</time>
      </trkpt>
      <trkpt lat="49.85762" lon="4.84499">
        <ele>279</ele>
        <time>2021-05-15T09:35:59.000Z</time>
      </trkpt>
      <trkpt lat="49.85764" lon="4.84513">
        <ele>279</ele>
        <time>2021-05-15T09:36:00.000Z</time>
      </trkpt>
      <trkpt lat="49.85767" lon="4.84528">
        <ele>278</ele>
        <time>2021-05-15T09:36:01.000Z</time>
      </trkpt>
      <trkpt lat="49.8577" lon="4.84543">
        <ele>278</ele>
        <time>2021-05-15T09:36:02.000Z</time>
      </trkpt>
      <trkpt lat="49.85773" lon="4.84558">
        <ele>277</ele>
        <time>2021-05-15T09:36:03.000Z</time>
      </trkpt>
      <trkpt lat="49.85776" lon="4.84573">
        <ele>277</ele>
        <time>2021-05-15T09:36:04.000Z</time>
      </trkpt>
      <trkpt lat="49.8578" lon="4.84587">
        <ele>276</ele>
        <time>2021-05-15T09:36:05.000Z</time>
      </trkpt>
      <trkpt lat="49.85785" lon="4.846">
        <ele>276</ele>
        <time>2021-05-15T09:36:06.000Z</time>
      </trkpt>
      <trkpt lat="49.8579" lon="4.84613">
        <ele>275</ele>
        <time>2021-05-15T09:36:07.000Z</time>
      </trkpt>
      <trkpt lat="49.85796" lon="4.84626">
        <ele>275</ele>
        <time>2021-05-15T09:36:08.000Z</time>
      </trkpt>
      <trkpt lat="49.85801" lon="4.84639">
        <ele>275</ele>
        <time>2021-05-15T09:36:09.000Z</time>
      </trkpt>
      <trkpt lat="49.85806" lon="4.84652">
        <ele>274</ele>
        <time>2021-05-15T09:36:10.000Z</time>
      </trkpt>
      <trkpt lat="49.85812" lon="4.84665">
        <ele>274</ele>
        <time>2021-05-15T09:36:11.000Z</time>
      </trkpt>
      <trkpt lat="49.85817" lon="4.84678">
        <ele>273</ele>
        <time>2021-05-15T09:36:12.000Z</time>
      </trkpt>
      <trkpt lat="49.85821" lon="4.84691">
        <ele>273</ele>
        <time>2021-05-15T09:36:13.000Z</time>
      </trkpt>
      <trkpt lat="49.85824" lon="4.84706">
        <ele>272</ele>
        <time>2021-05-15T09:36:14.000Z</time>
      </trkpt>
      <trkpt lat="49.85827" lon="4.84721">
        <ele>272</ele>
        <time>2021-05-15T09:36:15.000Z</time>
      </trkpt>
      <trkpt lat="49.85829" lon="4.84737">
        <ele>271</ele>
        <time>2021-05-15T09:36:16.000Z</time>
      </trkpt>
      <trkpt lat="49.85831" lon="4.84752">
        <ele>270</ele>
        <time>2021-05-15T09:36:17.000Z</time>
      </trkpt>
      <trkpt lat="49.85835" lon="4.84768">
        <ele>269</ele>
        <time>2021-05-15T09:36:18.000Z</time>
      </trkpt>
      <trkpt lat="49.85838" lon="4.84783">
        <ele>269</ele>
        <time>2021-05-15T09:36:19.000Z</time>
      </trkpt>
      <trkpt lat="49.85842" lon="4.84797">
        <ele>268</ele>
        <time>2021-05-15T09:36:20.000Z</time>
      </trkpt>
      <trkpt lat="49.85846" lon="4.84811">
        <ele>267</ele>
        <time>2021-05-15T09:36:21.000Z</time>
      </trkpt>
      <trkpt lat="49.8585" lon="4.84825">
        <ele>267</ele>
        <time>2021-05-15T09:36:22.000Z</time>
      </trkpt>
      <trkpt lat="49.85854" lon="4.84839">
        <ele>266</ele>
        <time>2021-05-15T09:36:23.000Z</time>
      </trkpt>
      <trkpt lat="49.85857" lon="4.84853">
        <ele>265</ele>
        <time>2021-05-15T09:36:24.000Z</time>
      </trkpt>
      <trkpt lat="49.8586" lon="4.84868">
        <ele>265</ele>
        <time>2021-05-15T09:36:25.000Z</time>
      </trkpt>
      <trkpt lat="49.85861" lon="4.84883">
        <ele>264</ele>
        <time>2021-05-15T09:36:26.000Z</time>
      </trkpt>
      <trkpt lat="49.85861" lon="4.84898">
        <ele>263</ele>
        <time>2021-05-15T09:36:27.000Z</time>
      </trkpt>
      <trkpt lat="49.8586" lon="4.84912">
        <ele>263</ele>
        <time>2021-05-15T09:36:28.000Z</time>
      </trkpt>
      <trkpt lat="49.85858" lon="4.84925">
        <ele>262</ele>
        <time>2021-05-15T09:36:29.000Z</time>
      </trkpt>
      <trkpt lat="49.85854" lon="4.84936">
        <ele>262</ele>
        <time>2021-05-15T09:36:30.000Z</time>
      </trkpt>
      <trkpt lat="49.85848" lon="4.84946">
        <ele>262</ele>
        <time>2021-05-15T09:36:31.000Z</time>
      </trkpt>
      <trkpt lat="49.85841" lon="4.84955">
        <ele>261</ele>
        <time>2021-05-15T09:36:32.000Z</time>
      </trkpt>
      <trkpt lat="49.85833" lon="4.84962">
        <ele>261</ele>
        <time>2021-05-15T09:36:33.000Z</time>
      </trkpt>
      <trkpt lat="49.85825" lon="4.84968">
        <ele>260</ele>
        <time>2021-05-15T09:36:34.000Z</time>
      </trkpt>
      <trkpt lat="49.85816" lon="4.84971">
        <ele>260</ele>
        <time>2021-05-15T09:36:35.000Z</time>
      </trkpt>
      <trkpt lat="49.85806" lon="4.84974">
        <ele>260</ele>
        <time>2021-05-15T09:36:36.000Z</time>
      </trkpt>
      <trkpt lat="49.85797" lon="4.84975">
        <ele>259</ele>
        <time>2021-05-15T09:36:37.000Z</time>
      </trkpt>
      <trkpt lat="49.85787" lon="4.84975">
        <ele>259</ele>
        <time>2021-05-15T09:36:38.000Z</time>
      </trkpt>
      <trkpt lat="49.85778" lon="4.84974">
        <ele>259</ele>
        <time>2021-05-15T09:36:39.000Z</time>
      </trkpt>
      <trkpt lat="49.85768" lon="4.84973">
        <ele>258</ele>
        <time>2021-05-15T09:36:40.000Z</time>
      </trkpt>
      <trkpt lat="49.85758" lon="4.84971">
        <ele>258</ele>
        <time>2021-05-15T09:36:41.000Z</time>
      </trkpt>
      <trkpt lat="49.85748" lon="4.84969">
        <ele>257</ele>
        <time>2021-05-15T09:36:42.000Z</time>
      </trkpt>
      <trkpt lat="49.85739" lon="4.84966">
        <ele>257</ele>
        <time>2021-05-15T09:36:43.000Z</time>
      </trkpt>
      <trkpt lat="49.8573" lon="4.84962">
        <ele>256</ele>
        <time>2021-05-15T09:36:44.000Z</time>
      </trkpt>
      <trkpt lat="49.85721" lon="4.84958">
        <ele>256</ele>
        <time>2021-05-15T09:36:45.000Z</time>
      </trkpt>
      <trkpt lat="49.85712" lon="4.84956">
        <ele>256</ele>
        <time>2021-05-15T09:36:46.000Z</time>
      </trkpt>
      <trkpt lat="49.85702" lon="4.84954">
        <ele>255</ele>
        <time>2021-05-15T09:36:47.000Z</time>
      </trkpt>
      <trkpt lat="49.85693" lon="4.84953">
        <ele>255</ele>
        <time>2021-05-15T09:36:48.000Z</time>
      </trkpt>
      <trkpt lat="49.85684" lon="4.84951">
        <ele>255</ele>
        <time>2021-05-15T09:36:49.000Z</time>
      </trkpt>
      <trkpt lat="49.85675" lon="4.8495">
        <ele>255</ele>
        <time>2021-05-15T09:36:50.000Z</time>
      </trkpt>
      <trkpt lat="49.85666" lon="4.8495">
        <ele>254</ele>
        <time>2021-05-15T09:36:51.000Z</time>
      </trkpt>
      <trkpt lat="49.85657" lon="4.84949">
        <ele>254</ele>
        <time>2021-05-15T09:36:52.000Z</time>
      </trkpt>
      <trkpt lat="49.85649" lon="4.84948">
        <ele>254</ele>
        <time>2021-05-15T09:36:53.000Z</time>
      </trkpt>
      <trkpt lat="49.8564" lon="4.84948">
        <ele>254</ele>
        <time>2021-05-15T09:36:54.000Z</time>
      </trkpt>
      <trkpt lat="49.85632" lon="4.84947">
        <ele>254</ele>
        <time>2021-05-15T09:36:55.000Z</time>
      </trkpt>
      <trkpt lat="49.85623" lon="4.84945">
        <ele>253</ele>
        <time>2021-05-15T09:36:56.000Z</time>
      </trkpt>
      <trkpt lat="49.85614" lon="4.84943">
        <ele>253</ele>
        <time>2021-05-15T09:36:57.000Z</time>
      </trkpt>
      <trkpt lat="49.85606" lon="4.84941">
        <ele>253</ele>
        <time>2021-05-15T09:36:58.000Z</time>
      </trkpt>
      <trkpt lat="49.85598" lon="4.84937">
        <ele>253</ele>
        <time>2021-05-15T09:36:59.000Z</time>
      </trkpt>
      <trkpt lat="49.85592" lon="4.84933">
        <ele>253</ele>
        <time>2021-05-15T09:37:00.000Z</time>
      </trkpt>
      <trkpt lat="49.85586" lon="4.84928">
        <ele>253</ele>
        <time>2021-05-15T09:37:01.000Z</time>
      </trkpt>
      <trkpt lat="49.8558" lon="4.84922">
        <ele>253</ele>
        <time>2021-05-15T09:37:02.000Z</time>
      </trkpt>
      <trkpt lat="49.85575" lon="4.84916">
        <ele>253</ele>
        <time>2021-05-15T09:37:03.000Z</time>
      </trkpt>
      <trkpt lat="49.8557" lon="4.8491">
        <ele>253</ele>
        <time>2021-05-15T09:37:04.000Z</time>
      </trkpt>
      <trkpt lat="49.85566" lon="4.84904">
        <ele>253</ele>
        <time>2021-05-15T09:37:05.000Z</time>
      </trkpt>
      <trkpt lat="49.85561" lon="4.84899">
        <ele>253</ele>
        <time>2021-05-15T09:37:06.000Z</time>
      </trkpt>
      <trkpt lat="49.85557" lon="4.84894">
        <ele>253</ele>
        <time>2021-05-15T09:37:07.000Z</time>
      </trkpt>
      <trkpt lat="49.85553" lon="4.8489">
        <ele>253</ele>
        <time>2021-05-15T09:37:08.000Z</time>
      </trkpt>
      <trkpt lat="49.85549" lon="4.84886">
        <ele>253</ele>
        <time>2021-05-15T09:37:09.000Z</time>
      </trkpt>
      <trkpt lat="49.85545" lon="4.84883">
        <ele>253</ele>
        <time>2021-05-15T09:37:10.000Z</time>
      </trkpt>
      <trkpt lat="49.85542" lon="4.8488">
        <ele>253</ele>
        <time>2021-05-15T09:37:11.000Z</time>
      </trkpt>
      <trkpt lat="49.85539" lon="4.84876">
        <ele>253</ele>
        <time>2021-05-15T09:37:12.000Z</time>
      </trkpt>
      <trkpt lat="49.85535" lon="4.84873">
        <ele>253</ele>
        <time>2021-05-15T09:37:13.000Z</time>
      </trkpt>
      <trkpt lat="49.85531" lon="4.8487">
        <ele>253</ele>
        <time>2021-05-15T09:37:14.000Z</time>
      </trkpt>
      <trkpt lat="49.85528" lon="4.84867">
        <ele>253</ele>
        <time>2021-05-15T09:37:15.000Z</time>
      </trkpt>
      <trkpt lat="49.85524" lon="4.84864">
        <ele>253</ele>
        <time>2021-05-15T09:37:16.000Z</time>
      </trkpt>
      <trkpt lat="49.8552" lon="4.8486">
        <ele>253</ele>
        <time>2021-05-15T09:37:17.000Z</time>
      </trkpt>
      <trkpt lat="49.85516" lon="4.84857">
        <ele>253</ele>
        <time>2021-05-15T09:37:18.000Z</time>
      </trkpt>
      <trkpt lat="49.85513" lon="4.84853">
        <ele>253</ele>
        <time>2021-05-15T09:37:19.000Z</time>
      </trkpt>
      <trkpt lat="49.85509" lon="4.84851">
        <ele>253</ele>
        <time>2021-05-15T09:37:20.000Z</time>
      </trkpt>
      <trkpt lat="49.85505" lon="4.84848">
        <ele>253</ele>
        <time>2021-05-15T09:37:21.000Z</time>
      </trkpt>
      <trkpt lat="49.85502" lon="4.84846">
        <ele>253</ele>
        <time>2021-05-15T09:37:22.000Z</time>
      </trkpt>
      <trkpt lat="49.85499" lon="4.84844">
        <ele>253</ele>
        <time>2021-05-15T09:37:23.000Z</time>
      </trkpt>
      <trkpt lat="49.85495" lon="4.84842">
        <ele>253</ele>
        <time>2021-05-15T09:37:24.000Z</time>
      </trkpt>
      <trkpt lat="49.85492" lon="4.8484">
        <ele>253</ele>
        <time>2021-05-15T09:37:25.000Z</time>
      </trkpt>
      <trkpt lat="49.85488" lon="4.84838">
        <ele>253</ele>
        <time>2021-05-15T09:37:26.000Z</time>
      </trkpt>
      <trkpt lat="49.85485" lon="4.84835">
        <ele>253</ele>
        <time>2021-05-15T09:37:27.000Z</time>
      </trkpt>
      <trkpt lat="49.85481" lon="4.84833">
        <ele>253</ele>
        <time>2021-05-15T09:37:28.000Z</time>
      </trkpt>
      <trkpt lat="49.85477" lon="4.84831">
        <ele>253</ele>
        <time>2021-05-15T09:37:29.000Z</time>
      </trkpt>
      <trkpt lat="49.85474" lon="4.84828">
        <ele>253</ele>
        <time>2021-05-15T09:37:30.000Z</time>
      </trkpt>
      <trkpt lat="49.8547" lon="4.84825">
        <ele>254</ele>
        <time>2021-05-15T09:37:31.000Z</time>
      </trkpt>
      <trkpt lat="49.85467" lon="4.84823">
        <ele>254</ele>
        <time>2021-05-15T09:37:32.000Z</time>
      </trkpt>
      <trkpt lat="49.85463" lon="4.8482">
        <ele>254</ele>
        <time>2021-05-15T09:37:33.000Z</time>
      </trkpt>
      <trkpt lat="49.8546" lon="4.84817">
        <ele>254</ele>
        <time>2021-05-15T09:37:34.000Z</time>
      </trkpt>
      <trkpt lat="49.85457" lon="4.84815">
        <ele>254</ele>
        <time>2021-05-15T09:37:35.000Z</time>
      </trkpt>
      <trkpt lat="49.85454" lon="4.84813">
        <ele>254</ele>
        <time>2021-05-15T09:37:36.000Z</time>
      </trkpt>
      <trkpt lat="49.85452" lon="4.84811">
        <ele>254</ele>
        <time>2021-05-15T09:37:37.000Z</time>
      </trkpt>
      <trkpt lat="49.85451" lon="4.84811">
        <ele>254</ele>
        <time>2021-05-15T09:37:38.000Z</time>
      </trkpt>
      <trkpt lat="49.85451" lon="4.84811">
        <ele>254</ele>
        <time>2021-05-15T09:37:39.000Z</time>
      </trkpt>
      <trkpt lat="49.8545" lon="4.84811">
        <ele>254</ele>
        <time>2021-05-15T09:37:40.000Z</time>
      </trkpt>
      <trkpt lat="49.8545" lon="4.84811">
        <ele>254</ele>
        <time>2021-05-15T09:37:41.000Z</time>
      </trkpt>
      <trkpt lat="49.8545" lon="4.84811">
        <ele>254</ele>
        <time>2021-05-15T09:37:42.000Z</time>
      </trkpt>
      <trkpt lat="49.85451" lon="4.84812">
        <ele>254</ele>
        <time>2021-05-15T09:37:43.000Z</time>
      </trkpt>
      <trkpt lat="49.85451" lon="4.84812">
        <ele>254</ele>
        <time>2021-05-15T09:37:44.000Z</time>
      </trkpt>
      <trkpt lat="49.85451" lon="4.84811">
        <ele>254</ele>
        <time>2021-05-15T09:37:45.000Z</time>
      </trkpt>
      <trkpt lat="49.85451" lon="4.84811">
        <ele>255</ele>
        <time>2021-05-15T09:37:46.000Z</time>
      </trkpt>
      <trkpt lat="49.85451" lon="4.84811">
        <ele>255</ele>
        <time>2021-05-15T09:37:47.000Z</time>
      </trkpt>
      <trkpt lat="49.85451" lon="4.84811">
        <ele>255</ele>
        <time>2021-05-15T09:37:48.000Z</time>
      </trkpt>
      <trkpt lat="49.85451" lon="4.84811">
        <ele>255</ele>
        <time>2021-05-15T09:37:49.000Z</time>
      </trkpt>
      <trkpt lat="49.85451" lon="4.84811">
        <ele>255</ele>
        <time>2021-05-15T09:37:50.000Z</time>
      </trkpt>
      <trkpt lat="49.85451" lon="4.84811">
        <ele>255</ele>
        <time>2021-05-15T09:37:51.000Z</time>
      </trkpt>
      <trkpt lat="49.85451" lon="4.84811">
        <ele>255</ele>
        <time>2021-05-15T09:37:52.000Z</time>
      </trkpt>
      <trkpt lat="49.8545" lon="4.84811">
        <ele>255</ele>
        <time>2021-05-15T09:37:53.000Z</time>
      </trkpt>
      <trkpt lat="49.8545" lon="4.84812">
        <ele>255</ele>
        <time>2021-05-15T09:37:54.000Z</time>
      </trkpt>
      <trkpt lat="49.8545" lon="4.84811">
        <ele>255</ele>
        <time>2021-05-15T09:37:55.000Z</time>
      </trkpt>
      <trkpt lat="49.8545" lon="4.84812">
        <ele>255</ele>
        <time>2021-05-15T09:37:56.000Z</time>
      </trkpt>
      <trkpt lat="49.8545" lon="4.84812">
        <ele>256</ele>
        <time>2021-05-15T09:37:57.000Z</time>
      </trkpt>
      <trkpt lat="49.85449" lon="4.84812">
        <ele>256</ele>
        <time>2021-05-15T09:37:58.000Z</time>
      </trkpt>
      <trkpt lat="49.85448" lon="4.84812">
        <ele>256</ele>
        <time>2021-05-15T09:37:59.000Z</time>
      </trkpt>
      <trkpt lat="49.85446" lon="4.84812">
        <ele>256</ele>
        <time>2021-05-15T09:38:00.000Z</time>
      </trkpt>
      <trkpt lat="49.85444" lon="4.84812">
        <ele>256</ele>
        <time>2021-05-15T09:38:01.000Z</time>
      </trkpt>
      <trkpt lat="49.85442" lon="4.84811">
        <ele>256</ele>
        <time>2021-05-15T09:38:02.000Z</time>
      </trkpt>
      <trkpt lat="49.8544" lon="4.8481">
        <ele>256</ele>
        <time>2021-05-15T09:38:03.000Z</time>
      </trkpt>
      <trkpt lat="49.85437" lon="4.8481">
        <ele>256</ele>
        <time>2021-05-15T09:38:04.000Z</time>
      </trkpt>
      <trkpt lat="49.85435" lon="4.8481">
        <ele>257</ele>
        <time>2021-05-15T09:38:05.000Z</time>
      </trkpt>
      <trkpt lat="49.85434" lon="4.84811">
        <ele>257</ele>
        <time>2021-05-15T09:38:06.000Z</time>
      </trkpt>
      <trkpt lat="49.85432" lon="4.84812">
        <ele>257</ele>
        <time>2021-05-15T09:38:07.000Z</time>
      </trkpt>
      <trkpt lat="49.8543" lon="4.84814">
        <ele>257</ele>
        <time>2021-05-15T09:38:08.000Z</time>
      </trkpt>
      <trkpt lat="49.85428" lon="4.84817">
        <ele>257</ele>
        <time>2021-05-15T09:38:09.000Z</time>
      </trkpt>
      <trkpt lat="49.85426" lon="4.8482">
        <ele>257</ele>
        <time>2021-05-15T09:38:10.000Z</time>
      </trkpt>
      <trkpt lat="49.85424" lon="4.84824">
        <ele>258</ele>
        <time>2021-05-15T09:38:11.000Z</time>
      </trkpt>
      <trkpt lat="49.85422" lon="4.84828">
        <ele>258</ele>
        <time>2021-05-15T09:38:12.000Z</time>
      </trkpt>
      <trkpt lat="49.85421" lon="4.84833">
        <ele>258</ele>
        <time>2021-05-15T09:38:13.000Z</time>
      </trkpt>
      <trkpt lat="49.8542" lon="4.84838">
        <ele>258</ele>
        <time>2021-05-15T09:38:14.000Z</time>
      </trkpt>
      <trkpt lat="49.85419" lon="4.84843">
        <ele>258</ele>
        <time>2021-05-15T09:38:15.000Z</time>
      </trkpt>
      <trkpt lat="49.85418" lon="4.84849">
        <ele>258</ele>
        <time>2021-05-15T09:38:16.000Z</time>
      </trkpt>
      <trkpt lat="49.85417" lon="4.84855">
        <ele>258</ele>
        <time>2021-05-15T09:38:17.000Z</time>
      </trkpt>
      <trkpt lat="49.85415" lon="4.84861">
        <ele>258</ele>
        <time>2021-05-15T09:38:18.000Z</time>
      </trkpt>
      <trkpt lat="49.85414" lon="4.84868">
        <ele>259</ele>
        <time>2021-05-15T09:38:19.000Z</time>
      </trkpt>
      <trkpt lat="49.85413" lon="4.84875">
        <ele>259</ele>
        <time>2021-05-15T09:38:20.000Z</time>
      </trkpt>
      <trkpt lat="49.85413" lon="4.84881">
        <ele>259</ele>
        <time>2021-05-15T09:38:21.000Z</time>
      </trkpt>
      <trkpt lat="49.85412" lon="4.84889">
        <ele>259</ele>
        <time>2021-05-15T09:38:22.000Z</time>
      </trkpt>
      <trkpt lat="49.85412" lon="4.84896">
        <ele>259</ele>
        <time>2021-05-15T09:38:23.000Z</time>
      </trkpt>
      <trkpt lat="49.85412" lon="4.84904">
        <ele>259</ele>
        <time>2021-05-15T09:38:24.000Z</time>
      </trkpt>
      <trkpt lat="49.85412" lon="4.84911">
        <ele>259</ele>
        <time>2021-05-15T09:38:25.000Z</time>
      </trkpt>
      <trkpt lat="49.85412" lon="4.84919">
        <ele>259</ele>
        <time>2021-05-15T09:38:26.000Z</time>
      </trkpt>
      <trkpt lat="49.85412" lon="4.84926">
        <ele>259</ele>
        <time>2021-05-15T09:38:27.000Z</time>
      </trkpt>
      <trkpt lat="49.85412" lon="4.84933">
        <ele>259</ele>
        <time>2021-05-15T09:38:28.000Z</time>
      </trkpt>
      <trkpt lat="49.85413" lon="4.84941">
        <ele>259</ele>
        <time>2021-05-15T09:38:29.000Z</time>
      </trkpt>
      <trkpt lat="49.85412" lon="4.84948">
        <ele>259</ele>
        <time>2021-05-15T09:38:30.000Z</time>
      </trkpt>
      <trkpt lat="49.85411" lon="4.84955">
        <ele>259</ele>
        <time>2021-05-15T09:38:31.000Z</time>
      </trkpt>
      <trkpt lat="49.8541" lon="4.84962">
        <ele>259</ele>
        <time>2021-05-15T09:38:32.000Z</time>
      </trkpt>
      <trkpt lat="49.85408" lon="4.84969">
        <ele>259</ele>
        <time>2021-05-15T09:38:33.000Z</time>
      </trkpt>
      <trkpt lat="49.85405" lon="4.84975">
        <ele>259</ele>
        <time>2021-05-15T09:38:34.000Z</time>
      </trkpt>
      <trkpt lat="49.85403" lon="4.8498">
        <ele>259</ele>
        <time>2021-05-15T09:38:35.000Z</time>
      </trkpt>
      <trkpt lat="49.85399" lon="4.84985">
        <ele>259</ele>
        <time>2021-05-15T09:38:36.000Z</time>
      </trkpt>
      <trkpt lat="49.85395" lon="4.84988">
        <ele>259</ele>
        <time>2021-05-15T09:38:37.000Z</time>
      </trkpt>
      <trkpt lat="49.8539" lon="4.84991">
        <ele>259</ele>
        <time>2021-05-15T09:38:38.000Z</time>
      </trkpt>
      <trkpt lat="49.85386" lon="4.84992">
        <ele>259</ele>
        <time>2021-05-15T09:38:39.000Z</time>
      </trkpt>
      <trkpt lat="49.85382" lon="4.84992">
        <ele>259</ele>
        <time>2021-05-15T09:38:40.000Z</time>
      </trkpt>
      <trkpt lat="49.85378" lon="4.84993">
        <ele>259</ele>
        <time>2021-05-15T09:38:41.000Z</time>
      </trkpt>
      <trkpt lat="49.85373" lon="4.84992">
        <ele>259</ele>
        <time>2021-05-15T09:38:42.000Z</time>
      </trkpt>
      <trkpt lat="49.85369" lon="4.84991">
        <ele>259</ele>
        <time>2021-05-15T09:38:43.000Z</time>
      </trkpt>
      <trkpt lat="49.85364" lon="4.84991">
        <ele>259</ele>
        <time>2021-05-15T09:38:44.000Z</time>
      </trkpt>
      <trkpt lat="49.85359" lon="4.8499">
        <ele>259</ele>
        <time>2021-05-15T09:38:45.000Z</time>
      </trkpt>
      <trkpt lat="49.85355" lon="4.84989">
        <ele>259</ele>
        <time>2021-05-15T09:38:46.000Z</time>
      </trkpt>
      <trkpt lat="49.8535" lon="4.84988">
        <ele>259</ele>
        <time>2021-05-15T09:38:47.000Z</time>
      </trkpt>
      <trkpt lat="49.85346" lon="4.84986">
        <ele>259</ele>
        <time>2021-05-15T09:38:48.000Z</time>
      </trkpt>
      <trkpt lat="49.85342" lon="4.84984">
        <ele>259</ele>
        <time>2021-05-15T09:38:49.000Z</time>
      </trkpt>
      <trkpt lat="49.85337" lon="4.84983">
        <ele>259</ele>
        <time>2021-05-15T09:38:50.000Z</time>
      </trkpt>
      <trkpt lat="49.85332" lon="4.84982">
        <ele>259</ele>
        <time>2021-05-15T09:38:51.000Z</time>
      </trkpt>
      <trkpt lat="49.85327" lon="4.8498">
        <ele>259</ele>
        <time>2021-05-15T09:38:52.000Z</time>
      </trkpt>
      <trkpt lat="49.85323" lon="4.84979">
        <ele>259</ele>
        <time>2021-05-15T09:38:53.000Z</time>
      </trkpt>
      <trkpt lat="49.85318" lon="4.84978">
        <ele>259</ele>
        <time>2021-05-15T09:38:54.000Z</time>
      </trkpt>
      <trkpt lat="49.85312" lon="4.84978">
        <ele>259</ele>
        <time>2021-05-15T09:38:55.000Z</time>
      </trkpt>
      <trkpt lat="49.85307" lon="4.84978">
        <ele>259</ele>
        <time>2021-05-15T09:38:56.000Z</time>
      </trkpt>
      <trkpt lat="49.85301" lon="4.84979">
        <ele>259</ele>
        <time>2021-05-15T09:38:57.000Z</time>
      </trkpt>
      <trkpt lat="49.85296" lon="4.8498">
        <ele>259</ele>
        <time>2021-05-15T09:38:58.000Z</time>
      </trkpt>
      <trkpt lat="49.85291" lon="4.84981">
        <ele>259</ele>
        <time>2021-05-15T09:38:59.000Z</time>
      </trkpt>
      <trkpt lat="49.85286" lon="4.8498">
        <ele>259</ele>
        <time>2021-05-15T09:39:00.000Z</time>
      </trkpt>
      <trkpt lat="49.85282" lon="4.8498">
        <ele>259</ele>
        <time>2021-05-15T09:39:01.000Z</time>
      </trkpt>
      <trkpt lat="49.85277" lon="4.8498">
        <ele>259</ele>
        <time>2021-05-15T09:39:02.000Z</time>
      </trkpt>
      <trkpt lat="49.85272" lon="4.8498">
        <ele>260</ele>
        <time>2021-05-15T09:39:03.000Z</time>
      </trkpt>
      <trkpt lat="49.85267" lon="4.84981">
        <ele>260</ele>
        <time>2021-05-15T09:39:04.000Z</time>
      </trkpt>
      <trkpt lat="49.85261" lon="4.84982">
        <ele>260</ele>
        <time>2021-05-15T09:39:05.000Z</time>
      </trkpt>
      <trkpt lat="49.85255" lon="4.84984">
        <ele>260</ele>
        <time>2021-05-15T09:39:06.000Z</time>
      </trkpt>
      <trkpt lat="49.8525" lon="4.84986">
        <ele>260</ele>
        <time>2021-05-15T09:39:07.000Z</time>
      </trkpt>
      <trkpt lat="49.85244" lon="4.84988">
        <ele>260</ele>
        <time>2021-05-15T09:39:08.000Z</time>
      </trkpt>
      <trkpt lat="49.85239" lon="4.84991">
        <ele>260</ele>
        <time>2021-05-15T09:39:09.000Z</time>
      </trkpt>
      <trkpt lat="49.85233" lon="4.84993">
        <ele>260</ele>
        <time>2021-05-15T09:39:10.000Z</time>
      </trkpt>
      <trkpt lat="49.85228" lon="4.84996">
        <ele>260</ele>
        <time>2021-05-15T09:39:11.000Z</time>
      </trkpt>
      <trkpt lat="49.85223" lon="4.84999">
        <ele>261</ele>
        <time>2021-05-15T09:39:12.000Z</time>
      </trkpt>
      <trkpt lat="49.85219" lon="4.85001">
        <ele>261</ele>
        <time>2021-05-15T09:39:13.000Z</time>
      </trkpt>
      <trkpt lat="49.85214" lon="4.85005">
        <ele>261</ele>
        <time>2021-05-15T09:39:14.000Z</time>
      </trkpt>
      <trkpt lat="49.8521" lon="4.85009">
        <ele>261</ele>
        <time>2021-05-15T09:39:15.000Z</time>
      </trkpt>
      <trkpt lat="49.85205" lon="4.85014">
        <ele>261</ele>
        <time>2021-05-15T09:39:16.000Z</time>
      </trkpt>
      <trkpt lat="49.85201" lon="4.85018">
        <ele>261</ele>
        <time>2021-05-15T09:39:17.000Z</time>
      </trkpt>
      <trkpt lat="49.85197" lon="4.85022">
        <ele>261</ele>
        <time>2021-05-15T09:39:18.000Z</time>
      </trkpt>
      <trkpt lat="49.85194" lon="4.85026">
        <ele>261</ele>
        <time>2021-05-15T09:39:19.000Z</time>
      </trkpt>
      <trkpt lat="49.8519" lon="4.85029">
        <ele>261</ele>
        <time>2021-05-15T09:39:20.000Z</time>
      </trkpt>
      <trkpt lat="49.85186" lon="4.85032">
        <ele>261</ele>
        <time>2021-05-15T09:39:21.000Z</time>
      </trkpt>
      <trkpt lat="49.85183" lon="4.85035">
        <ele>261</ele>
        <time>2021-05-15T09:39:22.000Z</time>
      </trkpt>
      <trkpt lat="49.85179" lon="4.85037">
        <ele>261</ele>
        <time>2021-05-15T09:39:23.000Z</time>
      </trkpt>
      <trkpt lat="49.85176" lon="4.8504">
        <ele>261</ele>
        <time>2021-05-15T09:39:24.000Z</time>
      </trkpt>
      <trkpt lat="49.85173" lon="4.85042">
        <ele>261</ele>
        <time>2021-05-15T09:39:25.000Z</time>
      </trkpt>
      <trkpt lat="49.8517" lon="4.85044">
        <ele>261</ele>
        <time>2021-05-15T09:39:26.000Z</time>
      </trkpt>
      <trkpt lat="49.85167" lon="4.85048">
        <ele>261</ele>
        <time>2021-05-15T09:39:27.000Z</time>
      </trkpt>
      <trkpt lat="49.85163" lon="4.85051">
        <ele>261</ele>
        <time>2021-05-15T09:39:28.000Z</time>
      </trkpt>
      <trkpt lat="49.8516" lon="4.85053">
        <ele>261</ele>
        <time>2021-05-15T09:39:29.000Z</time>
      </trkpt>
      <trkpt lat="49.85155" lon="4.85057">
        <ele>261</ele>
        <time>2021-05-15T09:39:30.000Z</time>
      </trkpt>
      <trkpt lat="49.85151" lon="4.8506">
        <ele>261</ele>
        <time>2021-05-15T09:39:31.000Z</time>
      </trkpt>
      <trkpt lat="49.85147" lon="4.85063">
        <ele>261</ele>
        <time>2021-05-15T09:39:32.000Z</time>
      </trkpt>
      <trkpt lat="49.85143" lon="4.85068">
        <ele>261</ele>
        <time>2021-05-15T09:39:33.000Z</time>
      </trkpt>
      <trkpt lat="49.85139" lon="4.85072">
        <ele>261</ele>
        <time>2021-05-15T09:39:34.000Z</time>
      </trkpt>
      <trkpt lat="49.85135" lon="4.85076">
        <ele>261</ele>
        <time>2021-05-15T09:39:35.000Z</time>
      </trkpt>
      <trkpt lat="49.85131" lon="4.85081">
        <ele>261</ele>
        <time>2021-05-15T09:39:36.000Z</time>
      </trkpt>
      <trkpt lat="49.85128" lon="4.85085">
        <ele>261</ele>
        <time>2021-05-15T09:39:37.000Z</time>
      </trkpt>
      <trkpt lat="49.85124" lon="4.85089">
        <ele>261</ele>
        <time>2021-05-15T09:39:38.000Z</time>
      </trkpt>
      <trkpt lat="49.85119" lon="4.85093">
        <ele>262</ele>
        <time>2021-05-15T09:39:39.000Z</time>
      </trkpt>
      <trkpt lat="49.85115" lon="4.85096">
        <ele>262</ele>
        <time>2021-05-15T09:39:40.000Z</time>
      </trkpt>
      <trkpt lat="49.85111" lon="4.85099">
        <ele>262</ele>
        <time>2021-05-15T09:39:41.000Z</time>
      </trkpt>
      <trkpt lat="49.85107" lon="4.85103">
        <ele>262</ele>
        <time>2021-05-15T09:39:42.000Z</time>
      </trkpt>
      <trkpt lat="49.85102" lon="4.85107">
        <ele>262</ele>
        <time>2021-05-15T09:39:43.000Z</time>
      </trkpt>
      <trkpt lat="49.85097" lon="4.85111">
        <ele>262</ele>
        <time>2021-05-15T09:39:44.000Z</time>
      </trkpt>
      <trkpt lat="49.85093" lon="4.85114">
        <ele>262</ele>
        <time>2021-05-15T09:39:45.000Z</time>
      </trkpt>
      <trkpt lat="49.85089" lon="4.85116">
        <ele>262</ele>
        <time>2021-05-15T09:39:46.000Z</time>
      </trkpt>
      <trkpt lat="49.85085" lon="4.85118">
        <ele>262</ele>
        <time>2021-05-15T09:39:47.000Z</time>
      </trkpt>
      <trkpt lat="49.85081" lon="4.85121">
        <ele>262</ele>
        <time>2021-05-15T09:39:48.000Z</time>
      </trkpt>
      <trkpt lat="49.85076" lon="4.85123">
        <ele>262</ele>
        <time>2021-05-15T09:39:49.000Z</time>
      </trkpt>
      <trkpt lat="49.85072" lon="4.85125">
        <ele>263</ele>
        <time>2021-05-15T09:39:50.000Z</time>
      </trkpt>
      <trkpt lat="49.85068" lon="4.85127">
        <ele>263</ele>
        <time>2021-05-15T09:39:51.000Z</time>
      </trkpt>
      <trkpt lat="49.85064" lon="4.85129">
        <ele>263</ele>
        <time>2021-05-15T09:39:52.000Z</time>
      </trkpt>
      <trkpt lat="49.8506" lon="4.85131">
        <ele>263</ele>
        <time>2021-05-15T09:39:53.000Z</time>
      </trkpt>
      <trkpt lat="49.85055" lon="4.85133">
        <ele>263</ele>
        <time>2021-05-15T09:39:54.000Z</time>
      </trkpt>
      <trkpt lat="49.85051" lon="4.85135">
        <ele>263</ele>
        <time>2021-05-15T09:39:55.000Z</time>
      </trkpt>
      <trkpt lat="49.85046" lon="4.85137">
        <ele>263</ele>
        <time>2021-05-15T09:39:56.000Z</time>
      </trkpt>
      <trkpt lat="49.85042" lon="4.85139">
        <ele>263</ele>
        <time>2021-05-15T09:39:57.000Z</time>
      </trkpt>
      <trkpt lat="49.85037" lon="4.85142">
        <ele>263</ele>
        <time>2021-05-15T09:39:58.000Z</time>
      </trkpt>
      <trkpt lat="49.85032" lon="4.85145">
        <ele>263</ele>
        <time>2021-05-15T09:39:59.000Z</time>
      </trkpt>
      <trkpt lat="49.85027" lon="4.85148">
        <ele>263</ele>
        <time>2021-05-15T09:40:00.000Z</time>
      </trkpt>
      <trkpt lat="49.85022" lon="4.8515">
        <ele>263</ele>
        <time>2021-05-15T09:40:01.000Z</time>
      </trkpt>
      <trkpt lat="49.85018" lon="4.85153">
        <ele>264</ele>
        <time>2021-05-15T09:40:02.000Z</time>
      </trkpt>
      <trkpt lat="49.85013" lon="4.85156">
        <ele>264</ele>
        <time>2021-05-15T09:40:03.000Z</time>
      </trkpt>
      <trkpt lat="49.85009" lon="4.85159">
        <ele>264</ele>
        <time>2021-05-15T09:40:04.000Z</time>
      </trkpt>
      <trkpt lat="49.85005" lon="4.85162">
        <ele>264</ele>
        <time>2021-05-15T09:40:05.000Z</time>
      </trkpt>
      <trkpt lat="49.85002" lon="4.85166">
        <ele>264</ele>
        <time>2021-05-15T09:40:06.000Z</time>
      </trkpt>
      <trkpt lat="49.84998" lon="4.85171">
        <ele>264</ele>
        <time>2021-05-15T09:40:07.000Z</time>
      </trkpt>
      <trkpt lat="49.84994" lon="4.85177">
        <ele>264</ele>
        <time>2021-05-15T09:40:08.000Z</time>
      </trkpt>
      <trkpt lat="49.84989" lon="4.85184">
        <ele>264</ele>
        <time>2021-05-15T09:40:09.000Z</time>
      </trkpt>
      <trkpt lat="49.84984" lon="4.85191">
        <ele>264</ele>
        <time>2021-05-15T09:40:10.000Z</time>
      </trkpt>
      <trkpt lat="49.8498" lon="4.85198">
        <ele>264</ele>
        <time>2021-05-15T09:40:11.000Z</time>
      </trkpt>
      <trkpt lat="49.84976" lon="4.85205">
        <ele>264</ele>
        <time>2021-05-15T09:40:12.000Z</time>
      </trkpt>
      <trkpt lat="49.84972" lon="4.85213">
        <ele>264</ele>
        <time>2021-05-15T09:40:13.000Z</time>
      </trkpt>
      <trkpt lat="49.84967" lon="4.85219">
        <ele>264</ele>
        <time>2021-05-15T09:40:14.000Z</time>
      </trkpt>
      <trkpt lat="49.84963" lon="4.85226">
        <ele>264</ele>
        <time>2021-05-15T09:40:15.000Z</time>
      </trkpt>
      <trkpt lat="49.84958" lon="4.85232">
        <ele>264</ele>
        <time>2021-05-15T09:40:16.000Z</time>
      </trkpt>
      <trkpt lat="49.84953" lon="4.85238">
        <ele>264</ele>
        <time>2021-05-15T09:40:17.000Z</time>
      </trkpt>
      <trkpt lat="49.84948" lon="4.85243">
        <ele>264</ele>
        <time>2021-05-15T09:40:18.000Z</time>
      </trkpt>
      <trkpt lat="49.84943" lon="4.85246">
        <ele>264</ele>
        <time>2021-05-15T09:40:19.000Z</time>
      </trkpt>
      <trkpt lat="49.84938" lon="4.85248">
        <ele>264</ele>
        <time>2021-05-15T09:40:20.000Z</time>
      </trkpt>
      <trkpt lat="49.84933" lon="4.8525">
        <ele>264</ele>
        <time>2021-05-15T09:40:21.000Z</time>
      </trkpt>
      <trkpt lat="49.84927" lon="4.85252">
        <ele>264</ele>
        <time>2021-05-15T09:40:22.000Z</time>
      </trkpt>
      <trkpt lat="49.84922" lon="4.85252">
        <ele>264</ele>
        <time>2021-05-15T09:40:23.000Z</time>
      </trkpt>
      <trkpt lat="49.84916" lon="4.85251">
        <ele>264</ele>
        <time>2021-05-15T09:40:24.000Z</time>
      </trkpt>
      <trkpt lat="49.84911" lon="4.8525">
        <ele>264</ele>
        <time>2021-05-15T09:40:25.000Z</time>
      </trkpt>
      <trkpt lat="49.84906" lon="4.85247">
        <ele>264</ele>
        <time>2021-05-15T09:40:26.000Z</time>
      </trkpt>
      <trkpt lat="49.84901" lon="4.85243">
        <ele>264</ele>
        <time>2021-05-15T09:40:27.000Z</time>
      </trkpt>
      <trkpt lat="49.84897" lon="4.85239">
        <ele>264</ele>
        <time>2021-05-15T09:40:28.000Z</time>
      </trkpt>
      <trkpt lat="49.84893" lon="4.85234">
        <ele>264</ele>
        <time>2021-05-15T09:40:29.000Z</time>
      </trkpt>
      <trkpt lat="49.8489" lon="4.8523">
        <ele>264</ele>
        <time>2021-05-15T09:40:30.000Z</time>
      </trkpt>
      <trkpt lat="49.84887" lon="4.85224">
        <ele>264</ele>
        <time>2021-05-15T09:40:31.000Z</time>
      </trkpt>
      <trkpt lat="49.84885" lon="4.85219">
        <ele>263</ele>
        <time>2021-05-15T09:40:32.000Z</time>
      </trkpt>
      <trkpt lat="49.84882" lon="4.85214">
        <ele>263</ele>
        <time>2021-05-15T09:40:33.000Z</time>
      </trkpt>
      <trkpt lat="49.8488" lon="4.85209">
        <ele>263</ele>
        <time>2021-05-15T09:40:34.000Z</time>
      </trkpt>
      <trkpt lat="49.84878" lon="4.85204">
        <ele>263</ele>
        <time>2021-05-15T09:40:35.000Z</time>
      </trkpt>
      <trkpt lat="49.84876" lon="4.852">
        <ele>263</ele>
        <time>2021-05-15T09:40:36.000Z</time>
      </trkpt>
      <trkpt lat="49.84874" lon="4.85197">
        <ele>263</ele>
        <time>2021-05-15T09:40:37.000Z</time>
      </trkpt>
      <trkpt lat="49.84873" lon="4.85196">
        <ele>262</ele>
        <time>2021-05-15T09:40:38.000Z</time>
      </trkpt>
      <trkpt lat="49.84873" lon="4.85196">
        <ele>263</ele>
        <time>2021-05-15T09:40:39.000Z</time>
      </trkpt>
      <trkpt lat="49.84872" lon="4.85196">
        <ele>263</ele>
        <time>2021-05-15T09:40:40.000Z</time>
      </trkpt>
      <trkpt lat="49.84872" lon="4.85196">
        <ele>262</ele>
        <time>2021-05-15T09:40:41.000Z</time>
      </trkpt>
      <trkpt lat="49.84872" lon="4.85196">
        <ele>263</ele>
        <time>2021-05-15T09:40:42.000Z</time>
      </trkpt>
      <trkpt lat="49.84871" lon="4.85195">
        <ele>263</ele>
        <time>2021-05-15T09:40:43.000Z</time>
      </trkpt>
      <trkpt lat="49.8487" lon="4.85194">
        <ele>263</ele>
        <time>2021-05-15T09:40:44.000Z</time>
      </trkpt>
      <trkpt lat="49.84869" lon="4.85191">
        <ele>263</ele>
        <time>2021-05-15T09:40:45.000Z</time>
      </trkpt>
      <trkpt lat="49.84867" lon="4.85187">
        <ele>263</ele>
        <time>2021-05-15T09:40:46.000Z</time>
      </trkpt>
      <trkpt lat="49.84865" lon="4.85182">
        <ele>263</ele>
        <time>2021-05-15T09:40:47.000Z</time>
      </trkpt>
      <trkpt lat="49.84862" lon="4.85177">
        <ele>263</ele>
        <time>2021-05-15T09:40:48.000Z</time>
      </trkpt>
      <trkpt lat="49.8486" lon="4.85172">
        <ele>263</ele>
        <time>2021-05-15T09:40:49.000Z</time>
      </trkpt>
      <trkpt lat="49.84858" lon="4.85167">
        <ele>263</ele>
        <time>2021-05-15T09:40:50.000Z</time>
      </trkpt>
      <trkpt lat="49.84856" lon="4.85162">
        <ele>263</ele>
        <time>2021-05-15T09:40:51.000Z</time>
      </trkpt>
      <trkpt lat="49.84855" lon="4.85157">
        <ele>263</ele>
        <time>2021-05-15T09:40:52.000Z</time>
      </trkpt>
      <trkpt lat="49.84853" lon="4.85152">
        <ele>263</ele>
        <time>2021-05-15T09:40:53.000Z</time>
      </trkpt>
      <trkpt lat="49.8485" lon="4.85147">
        <ele>263</ele>
        <time>2021-05-15T09:40:54.000Z</time>
      </trkpt>
      <trkpt lat="49.84848" lon="4.85143">
        <ele>263</ele>
        <time>2021-05-15T09:40:55.000Z</time>
      </trkpt>
      <trkpt lat="49.84845" lon="4.8514">
        <ele>263</ele>
        <time>2021-05-15T09:40:56.000Z</time>
      </trkpt>
      <trkpt lat="49.84842" lon="4.85136">
        <ele>264</ele>
        <time>2021-05-15T09:40:57.000Z</time>
      </trkpt>
      <trkpt lat="49.84838" lon="4.85132">
        <ele>264</ele>
        <time>2021-05-15T09:40:58.000Z</time>
      </trkpt>
      <trkpt lat="49.84834" lon="4.85127">
        <ele>264</ele>
        <time>2021-05-15T09:40:59.000Z</time>
      </trkpt>
      <trkpt lat="49.84829" lon="4.85123">
        <ele>264</ele>
        <time>2021-05-15T09:41:00.000Z</time>
      </trkpt>
      <trkpt lat="49.84825" lon="4.85118">
        <ele>264</ele>
        <time>2021-05-15T09:41:01.000Z</time>
      </trkpt>
      <trkpt lat="49.8482" lon="4.85114">
        <ele>264</ele>
        <time>2021-05-15T09:41:02.000Z</time>
      </trkpt>
      <trkpt lat="49.84815" lon="4.85109">
        <ele>264</ele>
        <time>2021-05-15T09:41:03.000Z</time>
      </trkpt>
      <trkpt lat="49.84811" lon="4.85104">
        <ele>264</ele>
        <time>2021-05-15T09:41:04.000Z</time>
      </trkpt>
      <trkpt lat="49.84807" lon="4.85099">
        <ele>264</ele>
        <time>2021-05-15T09:41:05.000Z</time>
      </trkpt>
      <trkpt lat="49.84802" lon="4.85094">
        <ele>264</ele>
        <time>2021-05-15T09:41:06.000Z</time>
      </trkpt>
      <trkpt lat="49.84798" lon="4.85089">
        <ele>264</ele>
        <time>2021-05-15T09:41:07.000Z</time>
      </trkpt>
      <trkpt lat="49.84795" lon="4.85085">
        <ele>264</ele>
        <time>2021-05-15T09:41:08.000Z</time>
      </trkpt>
      <trkpt lat="49.84791" lon="4.85083">
        <ele>264</ele>
        <time>2021-05-15T09:41:09.000Z</time>
      </trkpt>
      <trkpt lat="49.84787" lon="4.85083">
        <ele>264</ele>
        <time>2021-05-15T09:41:10.000Z</time>
      </trkpt>
      <trkpt lat="49.84783" lon="4.85087">
        <ele>264</ele>
        <time>2021-05-15T09:41:11.000Z</time>
      </trkpt>
      <trkpt lat="49.84779" lon="4.85094">
        <ele>264</ele>
        <time>2021-05-15T09:41:12.000Z</time>
      </trkpt>
      <trkpt lat="49.84775" lon="4.85102">
        <ele>264</ele>
        <time>2021-05-15T09:41:13.000Z</time>
      </trkpt>
      <trkpt lat="49.84773" lon="4.85112">
        <ele>264</ele>
        <time>2021-05-15T09:41:14.000Z</time>
      </trkpt>
      <trkpt lat="49.84772" lon="4.85122">
        <ele>264</ele>
        <time>2021-05-15T09:41:15.000Z</time>
      </trkpt>
      <trkpt lat="49.84771" lon="4.85133">
        <ele>264</ele>
        <time>2021-05-15T09:41:16.000Z</time>
      </trkpt>
      <trkpt lat="49.84771" lon="4.85144">
        <ele>264</ele>
        <time>2021-05-15T09:41:17.000Z</time>
      </trkpt>
      <trkpt lat="49.84771" lon="4.85155">
        <ele>264</ele>
        <time>2021-05-15T09:41:18.000Z</time>
      </trkpt>
      <trkpt lat="49.84773" lon="4.85167">
        <ele>263</ele>
        <time>2021-05-15T09:41:19.000Z</time>
      </trkpt>
      <trkpt lat="49.84775" lon="4.85179">
        <ele>263</ele>
        <time>2021-05-15T09:41:20.000Z</time>
      </trkpt>
      <trkpt lat="49.84777" lon="4.85191">
        <ele>263</ele>
        <time>2021-05-15T09:41:21.000Z</time>
      </trkpt>
      <trkpt lat="49.84779" lon="4.85204">
        <ele>262</ele>
        <time>2021-05-15T09:41:22.000Z</time>
      </trkpt>
      <trkpt lat="49.8478" lon="4.85217">
        <ele>262</ele>
        <time>2021-05-15T09:41:23.000Z</time>
      </trkpt>
      <trkpt lat="49.8478" lon="4.85232">
        <ele>261</ele>
        <time>2021-05-15T09:41:24.000Z</time>
      </trkpt>
      <trkpt lat="49.8478" lon="4.85246">
        <ele>261</ele>
        <time>2021-05-15T09:41:25.000Z</time>
      </trkpt>
      <trkpt lat="49.84778" lon="4.85259">
        <ele>260</ele>
        <time>2021-05-15T09:41:26.000Z</time>
      </trkpt>
      <trkpt lat="49.84776" lon="4.85269">
        <ele>260</ele>
        <time>2021-05-15T09:41:27.000Z</time>
      </trkpt>
      <trkpt lat="49.84772" lon="4.85277">
        <ele>260</ele>
        <time>2021-05-15T09:41:28.000Z</time>
      </trkpt>
      <trkpt lat="49.84766" lon="4.85282">
        <ele>259</ele>
        <time>2021-05-15T09:41:29.000Z</time>
      </trkpt>
      <trkpt lat="49.84759" lon="4.85285">
        <ele>259</ele>
        <time>2021-05-15T09:41:30.000Z</time>
      </trkpt>
      <trkpt lat="49.84751" lon="4.85285">
        <ele>259</ele>
        <time>2021-05-15T09:41:31.000Z</time>
      </trkpt>
      <trkpt lat="49.84743" lon="4.85283">
        <ele>258</ele>
        <time>2021-05-15T09:41:32.000Z</time>
      </trkpt>
      <trkpt lat="49.84736" lon="4.85281">
        <ele>258</ele>
        <time>2021-05-15T09:41:33.000Z</time>
      </trkpt>
      <trkpt lat="49.84728" lon="4.85279">
        <ele>258</ele>
        <time>2021-05-15T09:41:34.000Z</time>
      </trkpt>
      <trkpt lat="49.84721" lon="4.85277">
        <ele>257</ele>
        <time>2021-05-15T09:41:35.000Z</time>
      </trkpt>
      <trkpt lat="49.84715" lon="4.85274">
        <ele>257</ele>
        <time>2021-05-15T09:41:36.000Z</time>
      </trkpt>
      <trkpt lat="49.84709" lon="4.85273">
        <ele>257</ele>
        <time>2021-05-15T09:41:37.000Z</time>
      </trkpt>
      <trkpt lat="49.84703" lon="4.85275">
        <ele>257</ele>
        <time>2021-05-15T09:41:38.000Z</time>
      </trkpt>
      <trkpt lat="49.84698" lon="4.8528">
        <ele>256</ele>
        <time>2021-05-15T09:41:39.000Z</time>
      </trkpt>
      <trkpt lat="49.84695" lon="4.85287">
        <ele>256</ele>
        <time>2021-05-15T09:41:40.000Z</time>
      </trkpt>
      <trkpt lat="49.84694" lon="4.85296">
        <ele>256</ele>
        <time>2021-05-15T09:41:41.000Z</time>
      </trkpt>
      <trkpt lat="49.84695" lon="4.85305">
        <ele>256</ele>
        <time>2021-05-15T09:41:42.000Z</time>
      </trkpt>
      <trkpt lat="49.84697" lon="4.85315">
        <ele>255</ele>
        <time>2021-05-15T09:41:43.000Z</time>
      </trkpt>
      <trkpt lat="49.84699" lon="4.85325">
        <ele>255</ele>
        <time>2021-05-15T09:41:44.000Z</time>
      </trkpt>
      <trkpt lat="49.84702" lon="4.85333">
        <ele>255</ele>
        <time>2021-05-15T09:41:45.000Z</time>
      </trkpt>
      <trkpt lat="49.84705" lon="4.85342">
        <ele>254</ele>
        <time>2021-05-15T09:41:46.000Z</time>
      </trkpt>
      <trkpt lat="49.84707" lon="4.85351">
        <ele>254</ele>
        <time>2021-05-15T09:41:47.000Z</time>
      </trkpt>
      <trkpt lat="49.8471" lon="4.8536">
        <ele>254</ele>
        <time>2021-05-15T09:41:48.000Z</time>
      </trkpt>
      <trkpt lat="49.84712" lon="4.8537">
        <ele>254</ele>
        <time>2021-05-15T09:41:49.000Z</time>
      </trkpt>
      <trkpt lat="49.84715" lon="4.85379">
        <ele>253</ele>
        <time>2021-05-15T09:41:50.000Z</time>
      </trkpt>
      <trkpt lat="49.84716" lon="4.85388">
        <ele>253</ele>
        <time>2021-05-15T09:41:51.000Z</time>
      </trkpt>
      <trkpt lat="49.84718" lon="4.85399">
        <ele>253</ele>
        <time>2021-05-15T09:41:52.000Z</time>
      </trkpt>
      <trkpt lat="49.8472" lon="4.85408">
        <ele>253</ele>
        <time>2021-05-15T09:41:53.000Z</time>
      </trkpt>
      <trkpt lat="49.84722" lon="4.85418">
        <ele>253</ele>
        <time>2021-05-15T09:41:54.000Z</time>
      </trkpt>
      <trkpt lat="49.84724" lon="4.85428">
        <ele>252</ele>
        <time>2021-05-15T09:41:55.000Z</time>
      </trkpt>
      <trkpt lat="49.84727" lon="4.85438">
        <ele>252</ele>
        <time>2021-05-15T09:41:56.000Z</time>
      </trkpt>
      <trkpt lat="49.8473" lon="4.85448">
        <ele>252</ele>
        <time>2021-05-15T09:41:57.000Z</time>
      </trkpt>
      <trkpt lat="49.84733" lon="4.85458">
        <ele>252</ele>
        <time>2021-05-15T09:41:58.000Z</time>
      </trkpt>
      <trkpt lat="49.84736" lon="4.85467">
        <ele>252</ele>
        <time>2021-05-15T09:41:59.000Z</time>
      </trkpt>
      <trkpt lat="49.84739" lon="4.85476">
        <ele>251</ele>
        <time>2021-05-15T09:42:00.000Z</time>
      </trkpt>
      <trkpt lat="49.84743" lon="4.85485">
        <ele>251</ele>
        <time>2021-05-15T09:42:01.000Z</time>
      </trkpt>
      <trkpt lat="49.84747" lon="4.85493">
        <ele>251</ele>
        <time>2021-05-15T09:42:02.000Z</time>
      </trkpt>
      <trkpt lat="49.8475" lon="4.85502">
        <ele>251</ele>
        <time>2021-05-15T09:42:03.000Z</time>
      </trkpt>
      <trkpt lat="49.84752" lon="4.85512">
        <ele>251</ele>
        <time>2021-05-15T09:42:04.000Z</time>
      </trkpt>
      <trkpt lat="49.84752" lon="4.85522">
        <ele>250</ele>
        <time>2021-05-15T09:42:05.000Z</time>
      </trkpt>
      <trkpt lat="49.84751" lon="4.85532">
        <ele>250</ele>
        <time>2021-05-15T09:42:06.000Z</time>
      </trkpt>
      <trkpt lat="49.84749" lon="4.85542">
        <ele>250</ele>
        <time>2021-05-15T09:42:07.000Z</time>
      </trkpt>
      <trkpt lat="49.84745" lon="4.85551">
        <ele>249</ele>
        <time>2021-05-15T09:42:08.000Z</time>
      </trkpt>
      <trkpt lat="49.8474" lon="4.85559">
        <ele>249</ele>
        <time>2021-05-15T09:42:09.000Z</time>
      </trkpt>
      <trkpt lat="49.84736" lon="4.85567">
        <ele>249</ele>
        <time>2021-05-15T09:42:10.000Z</time>
      </trkpt>
      <trkpt lat="49.84731" lon="4.85575">
        <ele>249</ele>
        <time>2021-05-15T09:42:11.000Z</time>
      </trkpt>
      <trkpt lat="49.84727" lon="4.85583">
        <ele>249</ele>
        <time>2021-05-15T09:42:12.000Z</time>
      </trkpt>
      <trkpt lat="49.84723" lon="4.85591">
        <ele>249</ele>
        <time>2021-05-15T09:42:13.000Z</time>
      </trkpt>
      <trkpt lat="49.8472" lon="4.85599">
        <ele>249</ele>
        <time>2021-05-15T09:42:14.000Z</time>
      </trkpt>
      <trkpt lat="49.84716" lon="4.85607">
        <ele>249</ele>
        <time>2021-05-15T09:42:15.000Z</time>
      </trkpt>
      <trkpt lat="49.84712" lon="4.85614">
        <ele>249</ele>
        <time>2021-05-15T09:42:16.000Z</time>
      </trkpt>
      <trkpt lat="49.84709" lon="4.85621">
        <ele>249</ele>
        <time>2021-05-15T09:42:17.000Z</time>
      </trkpt>
      <trkpt lat="49.84706" lon="4.85627">
        <ele>248</ele>
        <time>2021-05-15T09:42:18.000Z</time>
      </trkpt>
      <trkpt lat="49.84702" lon="4.85634">
        <ele>248</ele>
        <time>2021-05-15T09:42:19.000Z</time>
      </trkpt>
      <trkpt lat="49.84699" lon="4.8564">
        <ele>248</ele>
        <time>2021-05-15T09:42:20.000Z</time>
      </trkpt>
      <trkpt lat="49.84696" lon="4.85646">
        <ele>248</ele>
        <time>2021-05-15T09:42:21.000Z</time>
      </trkpt>
      <trkpt lat="49.84691" lon="4.8565">
        <ele>248</ele>
        <time>2021-05-15T09:42:22.000Z</time>
      </trkpt>
      <trkpt lat="49.84686" lon="4.85653">
        <ele>248</ele>
        <time>2021-05-15T09:42:23.000Z</time>
      </trkpt>
      <trkpt lat="49.84681" lon="4.85655">
        <ele>248</ele>
        <time>2021-05-15T09:42:24.000Z</time>
      </trkpt>
      <trkpt lat="49.84676" lon="4.85654">
        <ele>248</ele>
        <time>2021-05-15T09:42:25.000Z</time>
      </trkpt>
      <trkpt lat="49.84672" lon="4.85653">
        <ele>248</ele>
        <time>2021-05-15T09:42:26.000Z</time>
      </trkpt>
      <trkpt lat="49.84667" lon="4.85651">
        <ele>247</ele>
        <time>2021-05-15T09:42:27.000Z</time>
      </trkpt>
      <trkpt lat="49.84662" lon="4.8565">
        <ele>247</ele>
        <time>2021-05-15T09:42:28.000Z</time>
      </trkpt>
      <trkpt lat="49.84656" lon="4.85649">
        <ele>247</ele>
        <time>2021-05-15T09:42:29.000Z</time>
      </trkpt>
      <trkpt lat="49.84651" lon="4.85649">
        <ele>247</ele>
        <time>2021-05-15T09:42:30.000Z</time>
      </trkpt>
      <trkpt lat="49.84646" lon="4.85648">
        <ele>247</ele>
        <time>2021-05-15T09:42:31.000Z</time>
      </trkpt>
      <trkpt lat="49.84641" lon="4.85646">
        <ele>247</ele>
        <time>2021-05-15T09:42:32.000Z</time>
      </trkpt>
      <trkpt lat="49.84637" lon="4.85645">
        <ele>247</ele>
        <time>2021-05-15T09:42:33.000Z</time>
      </trkpt>
      <trkpt lat="49.84634" lon="4.85644">
        <ele>247</ele>
        <time>2021-05-15T09:42:34.000Z</time>
      </trkpt>
      <trkpt lat="49.8463" lon="4.85643">
        <ele>247</ele>
        <time>2021-05-15T09:42:35.000Z</time>
      </trkpt>
      <trkpt lat="49.84627" lon="4.85643">
        <ele>247</ele>
        <time>2021-05-15T09:42:36.000Z</time>
      </trkpt>
      <trkpt lat="49.84623" lon="4.85642">
        <ele>247</ele>
        <time>2021-05-15T09:42:37.000Z</time>
      </trkpt>
      <trkpt lat="49.8462" lon="4.85641">
        <ele>247</ele>
        <time>2021-05-15T09:42:38.000Z</time>
      </trkpt>
      <trkpt lat="49.84616" lon="4.85641">
        <ele>247</ele>
        <time>2021-05-15T09:42:39.000Z</time>
      </trkpt>
      <trkpt lat="49.84612" lon="4.85641">
        <ele>247</ele>
        <time>2021-05-15T09:42:40.000Z</time>
      </trkpt>
      <trkpt lat="49.84608" lon="4.85641">
        <ele>247</ele>
        <time>2021-05-15T09:42:41.000Z</time>
      </trkpt>
      <trkpt lat="49.84604" lon="4.8564">
        <ele>247</ele>
        <time>2021-05-15T09:42:42.000Z</time>
      </trkpt>
      <trkpt lat="49.846" lon="4.85638">
        <ele>247</ele>
        <time>2021-05-15T09:42:43.000Z</time>
      </trkpt>
      <trkpt lat="49.84596" lon="4.85636">
        <ele>247</ele>
        <time>2021-05-15T09:42:44.000Z</time>
      </trkpt>
      <trkpt lat="49.84592" lon="4.85634">
        <ele>247</ele>
        <time>2021-05-15T09:42:45.000Z</time>
      </trkpt>
      <trkpt lat="49.84588" lon="4.85632">
        <ele>247</ele>
        <time>2021-05-15T09:42:46.000Z</time>
      </trkpt>
      <trkpt lat="49.84583" lon="4.85631">
        <ele>247</ele>
        <time>2021-05-15T09:42:47.000Z</time>
      </trkpt>
      <trkpt lat="49.84579" lon="4.85629">
        <ele>247</ele>
        <time>2021-05-15T09:42:48.000Z</time>
      </trkpt>
      <trkpt lat="49.84575" lon="4.85628">
        <ele>247</ele>
        <time>2021-05-15T09:42:49.000Z</time>
      </trkpt>
      <trkpt lat="49.8457" lon="4.85626">
        <ele>247</ele>
        <time>2021-05-15T09:42:50.000Z</time>
      </trkpt>
      <trkpt lat="49.84567" lon="4.85624">
        <ele>247</ele>
        <time>2021-05-15T09:42:51.000Z</time>
      </trkpt>
      <trkpt lat="49.84562" lon="4.85622">
        <ele>247</ele>
        <time>2021-05-15T09:42:52.000Z</time>
      </trkpt>
      <trkpt lat="49.84558" lon="4.85621">
        <ele>247</ele>
        <time>2021-05-15T09:42:53.000Z</time>
      </trkpt>
      <trkpt lat="49.84553" lon="4.85619">
        <ele>247</ele>
        <time>2021-05-15T09:42:54.000Z</time>
      </trkpt>
      <trkpt lat="49.84549" lon="4.85616">
        <ele>248</ele>
        <time>2021-05-15T09:42:55.000Z</time>
      </trkpt>
      <trkpt lat="49.84544" lon="4.85614">
        <ele>248</ele>
        <time>2021-05-15T09:42:56.000Z</time>
      </trkpt>
      <trkpt lat="49.8454" lon="4.85612">
        <ele>248</ele>
        <time>2021-05-15T09:42:57.000Z</time>
      </trkpt>
      <trkpt lat="49.84535" lon="4.8561">
        <ele>248</ele>
        <time>2021-05-15T09:42:58.000Z</time>
      </trkpt>
      <trkpt lat="49.8453" lon="4.85608">
        <ele>248</ele>
        <time>2021-05-15T09:42:59.000Z</time>
      </trkpt>
      <trkpt lat="49.84525" lon="4.85605">
        <ele>248</ele>
        <time>2021-05-15T09:43:00.000Z</time>
      </trkpt>
      <trkpt lat="49.84521" lon="4.85601">
        <ele>248</ele>
        <time>2021-05-15T09:43:01.000Z</time>
      </trkpt>
      <trkpt lat="49.84517" lon="4.85597">
        <ele>249</ele>
        <time>2021-05-15T09:43:02.000Z</time>
      </trkpt>
      <trkpt lat="49.84514" lon="4.85592">
        <ele>249</ele>
        <time>2021-05-15T09:43:03.000Z</time>
      </trkpt>
      <trkpt lat="49.84511" lon="4.85587">
        <ele>249</ele>
        <time>2021-05-15T09:43:04.000Z</time>
      </trkpt>
      <trkpt lat="49.84509" lon="4.85581">
        <ele>249</ele>
        <time>2021-05-15T09:43:05.000Z</time>
      </trkpt>
      <trkpt lat="49.84507" lon="4.85576">
        <ele>249</ele>
        <time>2021-05-15T09:43:06.000Z</time>
      </trkpt>
      <trkpt lat="49.84506" lon="4.85569">
        <ele>249</ele>
        <time>2021-05-15T09:43:07.000Z</time>
      </trkpt>
      <trkpt lat="49.84505" lon="4.85564">
        <ele>249</ele>
        <time>2021-05-15T09:43:08.000Z</time>
      </trkpt>
      <trkpt lat="49.84504" lon="4.85559">
        <ele>249</ele>
        <time>2021-05-15T09:43:09.000Z</time>
      </trkpt>
      <trkpt lat="49.84502" lon="4.85553">
        <ele>249</ele>
        <time>2021-05-15T09:43:10.000Z</time>
      </trkpt>
      <trkpt lat="49.84501" lon="4.85548">
        <ele>249</ele>
        <time>2021-05-15T09:43:11.000Z</time>
      </trkpt>
      <trkpt lat="49.84501" lon="4.85544">
        <ele>249</ele>
        <time>2021-05-15T09:43:12.000Z</time>
      </trkpt>
      <trkpt lat="49.845" lon="4.85538">
        <ele>249</ele>
        <time>2021-05-15T09:43:13.000Z</time>
      </trkpt>
      <trkpt lat="49.84498" lon="4.85533">
        <ele>249</ele>
        <time>2021-05-15T09:43:14.000Z</time>
      </trkpt>
      <trkpt lat="49.84498" lon="4.85526">
        <ele>249</ele>
        <time>2021-05-15T09:43:15.000Z</time>
      </trkpt>
      <trkpt lat="49.84497" lon="4.8552">
        <ele>249</ele>
        <time>2021-05-15T09:43:16.000Z</time>
      </trkpt>
      <trkpt lat="49.84495" lon="4.85513">
        <ele>250</ele>
        <time>2021-05-15T09:43:17.000Z</time>
      </trkpt>
      <trkpt lat="49.84494" lon="4.85507">
        <ele>250</ele>
        <time>2021-05-15T09:43:18.000Z</time>
      </trkpt>
      <trkpt lat="49.84492" lon="4.855">
        <ele>250</ele>
        <time>2021-05-15T09:43:19.000Z</time>
      </trkpt>
      <trkpt lat="49.84491" lon="4.85493">
        <ele>250</ele>
        <time>2021-05-15T09:43:20.000Z</time>
      </trkpt>
      <trkpt lat="49.84489" lon="4.85487">
        <ele>250</ele>
        <time>2021-05-15T09:43:21.000Z</time>
      </trkpt>
      <trkpt lat="49.84487" lon="4.8548">
        <ele>250</ele>
        <time>2021-05-15T09:43:22.000Z</time>
      </trkpt>
      <trkpt lat="49.84485" lon="4.85474">
        <ele>251</ele>
        <time>2021-05-15T09:43:23.000Z</time>
      </trkpt>
      <trkpt lat="49.84482" lon="4.85468">
        <ele>251</ele>
        <time>2021-05-15T09:43:24.000Z</time>
      </trkpt>
      <trkpt lat="49.84481" lon="4.85462">
        <ele>251</ele>
        <time>2021-05-15T09:43:25.000Z</time>
      </trkpt>
      <trkpt lat="49.8448" lon="4.85456">
        <ele>251</ele>
        <time>2021-05-15T09:43:26.000Z</time>
      </trkpt>
      <trkpt lat="49.84479" lon="4.8545">
        <ele>252</ele>
        <time>2021-05-15T09:43:27.000Z</time>
      </trkpt>
      <trkpt lat="49.84477" lon="4.85444">
        <ele>252</ele>
        <time>2021-05-15T09:43:28.000Z</time>
      </trkpt>
      <trkpt lat="49.84475" lon="4.85438">
        <ele>252</ele>
        <time>2021-05-15T09:43:29.000Z</time>
      </trkpt>
      <trkpt lat="49.84472" lon="4.85432">
        <ele>253</ele>
        <time>2021-05-15T09:43:30.000Z</time>
      </trkpt>
      <trkpt lat="49.8447" lon="4.85426">
        <ele>253</ele>
        <time>2021-05-15T09:43:31.000Z</time>
      </trkpt>
      <trkpt lat="49.84467" lon="4.8542">
        <ele>253</ele>
        <time>2021-05-15T09:43:32.000Z</time>
      </trkpt>
      <trkpt lat="49.84465" lon="4.85415">
        <ele>253</ele>
        <time>2021-05-15T09:43:33.000Z</time>
      </trkpt>
      <trkpt lat="49.84462" lon="4.85409">
        <ele>253</ele>
        <time>2021-05-15T09:43:34.000Z</time>
      </trkpt>
      <trkpt lat="49.8446" lon="4.85403">
        <ele>253</ele>
        <time>2021-05-15T09:43:35.000Z</time>
      </trkpt>
      <trkpt lat="49.84457" lon="4.85398">
        <ele>254</ele>
        <time>2021-05-15T09:43:36.000Z</time>
      </trkpt>
      <trkpt lat="49.84454" lon="4.85392">
        <ele>254</ele>
        <time>2021-05-15T09:43:37.000Z</time>
      </trkpt>
      <trkpt lat="49.8445" lon="4.85387">
        <ele>254</ele>
        <time>2021-05-15T09:43:38.000Z</time>
      </trkpt>
      <trkpt lat="49.84447" lon="4.85381">
        <ele>254</ele>
        <time>2021-05-15T09:43:39.000Z</time>
      </trkpt>
      <trkpt lat="49.84444" lon="4.85375">
        <ele>254</ele>
        <time>2021-05-15T09:43:40.000Z</time>
      </trkpt>
      <trkpt lat="49.84441" lon="4.8537">
        <ele>254</ele>
        <time>2021-05-15T09:43:41.000Z</time>
      </trkpt>
      <trkpt lat="49.84438" lon="4.85365">
        <ele>254</ele>
        <time>2021-05-15T09:43:42.000Z</time>
      </trkpt>
      <trkpt lat="49.84434" lon="4.85359">
        <ele>254</ele>
        <time>2021-05-15T09:43:43.000Z</time>
      </trkpt>
      <trkpt lat="49.84431" lon="4.85354">
        <ele>254</ele>
        <time>2021-05-15T09:43:44.000Z</time>
      </trkpt>
      <trkpt lat="49.84428" lon="4.8535">
        <ele>254</ele>
        <time>2021-05-15T09:43:45.000Z</time>
      </trkpt>
      <trkpt lat="49.84425" lon="4.85345">
        <ele>254</ele>
        <time>2021-05-15T09:43:46.000Z</time>
      </trkpt>
      <trkpt lat="49.84423" lon="4.85339">
        <ele>255</ele>
        <time>2021-05-15T09:43:47.000Z</time>
      </trkpt>
      <trkpt lat="49.84421" lon="4.85334">
        <ele>255</ele>
        <time>2021-05-15T09:43:48.000Z</time>
      </trkpt>
      <trkpt lat="49.84418" lon="4.85329">
        <ele>255</ele>
        <time>2021-05-15T09:43:49.000Z</time>
      </trkpt>
      <trkpt lat="49.84415" lon="4.85325">
        <ele>255</ele>
        <time>2021-05-15T09:43:50.000Z</time>
      </trkpt>
      <trkpt lat="49.84412" lon="4.85321">
        <ele>255</ele>
        <time>2021-05-15T09:43:51.000Z</time>
      </trkpt>
      <trkpt lat="49.84409" lon="4.85317">
        <ele>255</ele>
        <time>2021-05-15T09:43:52.000Z</time>
      </trkpt>
      <trkpt lat="49.84406" lon="4.85314">
        <ele>255</ele>
        <time>2021-05-15T09:43:53.000Z</time>
      </trkpt>
      <trkpt lat="49.84402" lon="4.85311">
        <ele>255</ele>
        <time>2021-05-15T09:43:54.000Z</time>
      </trkpt>
      <trkpt lat="49.84398" lon="4.85309">
        <ele>255</ele>
        <time>2021-05-15T09:43:55.000Z</time>
      </trkpt>
      <trkpt lat="49.84394" lon="4.85308">
        <ele>255</ele>
        <time>2021-05-15T09:43:56.000Z</time>
      </trkpt>
      <trkpt lat="49.84391" lon="4.85308">
        <ele>255</ele>
        <time>2021-05-15T09:43:57.000Z</time>
      </trkpt>
      <trkpt lat="49.84388" lon="4.85309">
        <ele>256</ele>
        <time>2021-05-15T09:43:58.000Z</time>
      </trkpt>
      <trkpt lat="49.84386" lon="4.85311">
        <ele>256</ele>
        <time>2021-05-15T09:43:59.000Z</time>
      </trkpt>
      <trkpt lat="49.84383" lon="4.85313">
        <ele>256</ele>
        <time>2021-05-15T09:44:00.000Z</time>
      </trkpt>
      <trkpt lat="49.8438" lon="4.85314">
        <ele>256</ele>
        <time>2021-05-15T09:44:01.000Z</time>
      </trkpt>
      <trkpt lat="49.84378" lon="4.85315">
        <ele>256</ele>
        <time>2021-05-15T09:44:02.000Z</time>
      </trkpt>
      <trkpt lat="49.84375" lon="4.85315">
        <ele>256</ele>
        <time>2021-05-15T09:44:03.000Z</time>
      </trkpt>
      <trkpt lat="49.84373" lon="4.85315">
        <ele>256</ele>
        <time>2021-05-15T09:44:04.000Z</time>
      </trkpt>
      <trkpt lat="49.84371" lon="4.85314">
        <ele>257</ele>
        <time>2021-05-15T09:44:05.000Z</time>
      </trkpt>
      <trkpt lat="49.84369" lon="4.85312">
        <ele>257</ele>
        <time>2021-05-15T09:44:06.000Z</time>
      </trkpt>
      <trkpt lat="49.84367" lon="4.85311">
        <ele>257</ele>
        <time>2021-05-15T09:44:07.000Z</time>
      </trkpt>
      <trkpt lat="49.84365" lon="4.85309">
        <ele>257</ele>
        <time>2021-05-15T09:44:08.000Z</time>
      </trkpt>
      <trkpt lat="49.84364" lon="4.85307">
        <ele>258</ele>
        <time>2021-05-15T09:44:09.000Z</time>
      </trkpt>
      <trkpt lat="49.84364" lon="4.85305">
        <ele>258</ele>
        <time>2021-05-15T09:44:10.000Z</time>
      </trkpt>
      <trkpt lat="49.84362" lon="4.85303">
        <ele>258</ele>
        <time>2021-05-15T09:44:11.000Z</time>
      </trkpt>
      <trkpt lat="49.84361" lon="4.85301">
        <ele>258</ele>
        <time>2021-05-15T09:44:12.000Z</time>
      </trkpt>
      <trkpt lat="49.8436" lon="4.85299">
        <ele>258</ele>
        <time>2021-05-15T09:44:13.000Z</time>
      </trkpt>
      <trkpt lat="49.84359" lon="4.85296">
        <ele>259</ele>
        <time>2021-05-15T09:44:14.000Z</time>
      </trkpt>
      <trkpt lat="49.84358" lon="4.85294">
        <ele>259</ele>
        <time>2021-05-15T09:44:15.000Z</time>
      </trkpt>
      <trkpt lat="49.84357" lon="4.85291">
        <ele>259</ele>
        <time>2021-05-15T09:44:16.000Z</time>
      </trkpt>
      <trkpt lat="49.84357" lon="4.85288">
        <ele>259</ele>
        <time>2021-05-15T09:44:17.000Z</time>
      </trkpt>
      <trkpt lat="49.84356" lon="4.85284">
        <ele>259</ele>
        <time>2021-05-15T09:44:18.000Z</time>
      </trkpt>
      <trkpt lat="49.84355" lon="4.85281">
        <ele>260</ele>
        <time>2021-05-15T09:44:19.000Z</time>
      </trkpt>
      <trkpt lat="49.84353" lon="4.85278">
        <ele>260</ele>
        <time>2021-05-15T09:44:20.000Z</time>
      </trkpt>
      <trkpt lat="49.84353" lon="4.85275">
        <ele>260</ele>
        <time>2021-05-15T09:44:21.000Z</time>
      </trkpt>
      <trkpt lat="49.84352" lon="4.85272">
        <ele>260</ele>
        <time>2021-05-15T09:44:22.000Z</time>
      </trkpt>
      <trkpt lat="49.84352" lon="4.85269">
        <ele>260</ele>
        <time>2021-05-15T09:44:23.000Z</time>
      </trkpt>
      <trkpt lat="49.84351" lon="4.85266">
        <ele>261</ele>
        <time>2021-05-15T09:44:24.000Z</time>
      </trkpt>
      <trkpt lat="49.8435" lon="4.85262">
        <ele>261</ele>
        <time>2021-05-15T09:44:25.000Z</time>
      </trkpt>
      <trkpt lat="49.84349" lon="4.85259">
        <ele>261</ele>
        <time>2021-05-15T09:44:26.000Z</time>
      </trkpt>
      <trkpt lat="49.84348" lon="4.85255">
        <ele>261</ele>
        <time>2021-05-15T09:44:27.000Z</time>
      </trkpt>
      <trkpt lat="49.84347" lon="4.85251">
        <ele>261</ele>
        <time>2021-05-15T09:44:28.000Z</time>
      </trkpt>
      <trkpt lat="49.84346" lon="4.85247">
        <ele>262</ele>
        <time>2021-05-15T09:44:29.000Z</time>
      </trkpt>
      <trkpt lat="49.84345" lon="4.85243">
        <ele>262</ele>
        <time>2021-05-15T09:44:30.000Z</time>
      </trkpt>
      <trkpt lat="49.84345" lon="4.8524">
        <ele>262</ele>
        <time>2021-05-15T09:44:31.000Z</time>
      </trkpt>
      <trkpt lat="49.84345" lon="4.85238">
        <ele>263</ele>
        <time>2021-05-15T09:44:32.000Z</time>
      </trkpt>
      <trkpt lat="49.84346" lon="4.85235">
        <ele>263</ele>
        <time>2021-05-15T09:44:33.000Z</time>
      </trkpt>
      <trkpt lat="49.84345" lon="4.85232">
        <ele>263</ele>
        <time>2021-05-15T09:44:34.000Z</time>
      </trkpt>
      <trkpt lat="49.84346" lon="4.8523">
        <ele>263</ele>
        <time>2021-05-15T09:44:35.000Z</time>
      </trkpt>
      <trkpt lat="49.84346" lon="4.85228">
        <ele>264</ele>
        <time>2021-05-15T09:44:36.000Z</time>
      </trkpt>
      <trkpt lat="49.84347" lon="4.85225">
        <ele>264</ele>
        <time>2021-05-15T09:44:37.000Z</time>
      </trkpt>
      <trkpt lat="49.84348" lon="4.85223">
        <ele>264</ele>
        <time>2021-05-15T09:44:38.000Z</time>
      </trkpt>
      <trkpt lat="49.84349" lon="4.8522">
        <ele>264</ele>
        <time>2021-05-15T09:44:39.000Z</time>
      </trkpt>
      <trkpt lat="49.8435" lon="4.85217">
        <ele>265</ele>
        <time>2021-05-15T09:44:40.000Z</time>
      </trkpt>
      <trkpt lat="49.8435" lon="4.85214">
        <ele>265</ele>
        <time>2021-05-15T09:44:41.000Z</time>
      </trkpt>
      <trkpt lat="49.84351" lon="4.85211">
        <ele>265</ele>
        <time>2021-05-15T09:44:42.000Z</time>
      </trkpt>
      <trkpt lat="49.84353" lon="4.85209">
        <ele>266</ele>
        <time>2021-05-15T09:44:43.000Z</time>
      </trkpt>
      <trkpt lat="49.84355" lon="4.85206">
        <ele>266</ele>
        <time>2021-05-15T09:44:44.000Z</time>
      </trkpt>
      <trkpt lat="49.84356" lon="4.85204">
        <ele>266</ele>
        <time>2021-05-15T09:44:45.000Z</time>
      </trkpt>
      <trkpt lat="49.84358" lon="4.85202">
        <ele>267</ele>
        <time>2021-05-15T09:44:46.000Z</time>
      </trkpt>
      <trkpt lat="49.84359" lon="4.852">
        <ele>267</ele>
        <time>2021-05-15T09:44:47.000Z</time>
      </trkpt>
      <trkpt lat="49.84361" lon="4.85199">
        <ele>268</ele>
        <time>2021-05-15T09:44:48.000Z</time>
      </trkpt>
      <trkpt lat="49.84363" lon="4.85198">
        <ele>268</ele>
        <time>2021-05-15T09:44:49.000Z</time>
      </trkpt>
      <trkpt lat="49.84365" lon="4.85198">
        <ele>269</ele>
        <time>2021-05-15T09:44:50.000Z</time>
      </trkpt>
      <trkpt lat="49.84367" lon="4.85198">
        <ele>269</ele>
        <time>2021-05-15T09:44:51.000Z</time>
      </trkpt>
      <trkpt lat="49.84369" lon="4.85199">
        <ele>269</ele>
        <time>2021-05-15T09:44:52.000Z</time>
      </trkpt>
      <trkpt lat="49.8437" lon="4.85201">
        <ele>270</ele>
        <time>2021-05-15T09:44:53.000Z</time>
      </trkpt>
      <trkpt lat="49.84372" lon="4.85203">
        <ele>270</ele>
        <time>2021-05-15T09:44:54.000Z</time>
      </trkpt>
      <trkpt lat="49.84374" lon="4.85205">
        <ele>270</ele>
        <time>2021-05-15T09:44:55.000Z</time>
      </trkpt>
      <trkpt lat="49.84376" lon="4.85207">
        <ele>270</ele>
        <time>2021-05-15T09:44:56.000Z</time>
      </trkpt>
      <trkpt lat="49.84377" lon="4.8521">
        <ele>271</ele>
        <time>2021-05-15T09:44:57.000Z</time>
      </trkpt>
      <trkpt lat="49.84379" lon="4.85212">
        <ele>271</ele>
        <time>2021-05-15T09:44:58.000Z</time>
      </trkpt>
      <trkpt lat="49.84381" lon="4.85214">
        <ele>271</ele>
        <time>2021-05-15T09:44:59.000Z</time>
      </trkpt>
      <trkpt lat="49.84383" lon="4.85216">
        <ele>271</ele>
        <time>2021-05-15T09:45:00.000Z</time>
      </trkpt>
      <trkpt lat="49.84384" lon="4.85218">
        <ele>272</ele>
        <time>2021-05-15T09:45:01.000Z</time>
      </trkpt>
      <trkpt lat="49.84386" lon="4.8522">
        <ele>272</ele>
        <time>2021-05-15T09:45:02.000Z</time>
      </trkpt>
      <trkpt lat="49.84387" lon="4.85223">
        <ele>272</ele>
        <time>2021-05-15T09:45:03.000Z</time>
      </trkpt>
      <trkpt lat="49.84389" lon="4.85225">
        <ele>272</ele>
        <time>2021-05-15T09:45:04.000Z</time>
      </trkpt>
      <trkpt lat="49.84391" lon="4.85228">
        <ele>272</ele>
        <time>2021-05-15T09:45:05.000Z</time>
      </trkpt>
      <trkpt lat="49.84392" lon="4.85231">
        <ele>272</ele>
        <time>2021-05-15T09:45:06.000Z</time>
      </trkpt>
      <trkpt lat="49.84394" lon="4.85234">
        <ele>273</ele>
        <time>2021-05-15T09:45:07.000Z</time>
      </trkpt>
      <trkpt lat="49.84396" lon="4.85236">
        <ele>273</ele>
        <time>2021-05-15T09:45:08.000Z</time>
      </trkpt>
      <trkpt lat="49.84398" lon="4.8524">
        <ele>273</ele>
        <time>2021-05-15T09:45:09.000Z</time>
      </trkpt>
      <trkpt lat="49.84399" lon="4.85242">
        <ele>273</ele>
        <time>2021-05-15T09:45:10.000Z</time>
      </trkpt>
      <trkpt lat="49.84401" lon="4.85245">
        <ele>273</ele>
        <time>2021-05-15T09:45:11.000Z</time>
      </trkpt>
      <trkpt lat="49.84403" lon="4.85248">
        <ele>273</ele>
        <time>2021-05-15T09:45:12.000Z</time>
      </trkpt>
      <trkpt lat="49.84404" lon="4.85251">
        <ele>273</ele>
        <time>2021-05-15T09:45:13.000Z</time>
      </trkpt>
      <trkpt lat="49.84406" lon="4.85253">
        <ele>273</ele>
        <time>2021-05-15T09:45:14.000Z</time>
      </trkpt>
      <trkpt lat="49.84407" lon="4.85256">
        <ele>273</ele>
        <time>2021-05-15T09:45:15.000Z</time>
      </trkpt>
      <trkpt lat="49.84409" lon="4.85259">
        <ele>273</ele>
        <time>2021-05-15T09:45:16.000Z</time>
      </trkpt>
      <trkpt lat="49.84411" lon="4.85261">
        <ele>273</ele>
        <time>2021-05-15T09:45:17.000Z</time>
      </trkpt>
      <trkpt lat="49.84412" lon="4.85264">
        <ele>273</ele>
        <time>2021-05-15T09:45:18.000Z</time>
      </trkpt>
      <trkpt lat="49.84413" lon="4.85266">
        <ele>273</ele>
        <time>2021-05-15T09:45:19.000Z</time>
      </trkpt>
      <trkpt lat="49.84415" lon="4.85269">
        <ele>273</ele>
        <time>2021-05-15T09:45:20.000Z</time>
      </trkpt>
      <trkpt lat="49.84416" lon="4.85272">
        <ele>273</ele>
        <time>2021-05-15T09:45:21.000Z</time>
      </trkpt>
      <trkpt lat="49.84417" lon="4.85274">
        <ele>273</ele>
        <time>2021-05-15T09:45:22.000Z</time>
      </trkpt>
      <trkpt lat="49.84419" lon="4.85277">
        <ele>273</ele>
        <time>2021-05-15T09:45:23.000Z</time>
      </trkpt>
      <trkpt lat="49.84421" lon="4.8528">
        <ele>273</ele>
        <time>2021-05-15T09:45:24.000Z</time>
      </trkpt>
      <trkpt lat="49.84422" lon="4.85283">
        <ele>273</ele>
        <time>2021-05-15T09:45:25.000Z</time>
      </trkpt>
      <trkpt lat="49.84423" lon="4.85285">
        <ele>273</ele>
        <time>2021-05-15T09:45:26.000Z</time>
      </trkpt>
      <trkpt lat="49.84425" lon="4.85288">
        <ele>273</ele>
        <time>2021-05-15T09:45:27.000Z</time>
      </trkpt>
      <trkpt lat="49.84427" lon="4.8529">
        <ele>273</ele>
        <time>2021-05-15T09:45:28.000Z</time>
      </trkpt>
      <trkpt lat="49.84429" lon="4.85293">
        <ele>273</ele>
        <time>2021-05-15T09:45:29.000Z</time>
      </trkpt>
      <trkpt lat="49.8443" lon="4.85296">
        <ele>273</ele>
        <time>2021-05-15T09:45:30.000Z</time>
      </trkpt>
      <trkpt lat="49.84432" lon="4.85298">
        <ele>273</ele>
        <time>2021-05-15T09:45:31.000Z</time>
      </trkpt>
      <trkpt lat="49.84434" lon="4.85301">
        <ele>273</ele>
        <time>2021-05-15T09:45:32.000Z</time>
      </trkpt>
      <trkpt lat="49.84436" lon="4.85303">
        <ele>273</ele>
        <time>2021-05-15T09:45:33.000Z</time>
      </trkpt>
      <trkpt lat="49.84438" lon="4.85306">
        <ele>273</ele>
        <time>2021-05-15T09:45:34.000Z</time>
      </trkpt>
      <trkpt lat="49.8444" lon="4.85308">
        <ele>273</ele>
        <time>2021-05-15T09:45:35.000Z</time>
      </trkpt>
      <trkpt lat="49.84443" lon="4.8531">
        <ele>273</ele>
        <time>2021-05-15T09:45:36.000Z</time>
      </trkpt>
      <trkpt lat="49.84445" lon="4.85313">
        <ele>273</ele>
        <time>2021-05-15T09:45:37.000Z</time>
      </trkpt>
      <trkpt lat="49.84448" lon="4.85315">
        <ele>273</ele>
        <time>2021-05-15T09:45:38.000Z</time>
      </trkpt>
      <trkpt lat="49.8445" lon="4.85318">
        <ele>273</ele>
        <time>2021-05-15T09:45:39.000Z</time>
      </trkpt>
      <trkpt lat="49.84453" lon="4.8532">
        <ele>273</ele>
        <time>2021-05-15T09:45:40.000Z</time>
      </trkpt>
      <trkpt lat="49.84455" lon="4.85323">
        <ele>273</ele>
        <time>2021-05-15T09:45:41.000Z</time>
      </trkpt>
      <trkpt lat="49.84457" lon="4.85326">
        <ele>273</ele>
        <time>2021-05-15T09:45:42.000Z</time>
      </trkpt>
      <trkpt lat="49.84459" lon="4.85328">
        <ele>273</ele>
        <time>2021-05-15T09:45:43.000Z</time>
      </trkpt>
      <trkpt lat="49.84461" lon="4.85331">
        <ele>273</ele>
        <time>2021-05-15T09:45:44.000Z</time>
      </trkpt>
      <trkpt lat="49.84464" lon="4.85335">
        <ele>273</ele>
        <time>2021-05-15T09:45:45.000Z</time>
      </trkpt>
      <trkpt lat="49.84466" lon="4.85337">
        <ele>274</ele>
        <time>2021-05-15T09:45:46.000Z</time>
      </trkpt>
      <trkpt lat="49.84469" lon="4.8534">
        <ele>274</ele>
        <time>2021-05-15T09:45:47.000Z</time>
      </trkpt>
      <trkpt lat="49.84471" lon="4.85344">
        <ele>274</ele>
        <time>2021-05-15T09:45:48.000Z</time>
      </trkpt>
      <trkpt lat="49.84473" lon="4.85346">
        <ele>274</ele>
        <time>2021-05-15T09:45:49.000Z</time>
      </trkpt>
      <trkpt lat="49.84475" lon="4.8535">
        <ele>274</ele>
        <time>2021-05-15T09:45:50.000Z</time>
      </trkpt>
      <trkpt lat="49.84477" lon="4.85353">
        <ele>274</ele>
        <time>2021-05-15T09:45:51.000Z</time>
      </trkpt>
      <trkpt lat="49.8448" lon="4.85356">
        <ele>274</ele>
        <time>2021-05-15T09:45:52.000Z</time>
      </trkpt>
      <trkpt lat="49.84482" lon="4.85359">
        <ele>274</ele>
        <time>2021-05-15T09:45:53.000Z</time>
      </trkpt>
      <trkpt lat="49.84484" lon="4.85361">
        <ele>274</ele>
        <time>2021-05-15T09:45:54.000Z</time>
      </trkpt>
      <trkpt lat="49.84486" lon="4.85364">
        <ele>274</ele>
        <time>2021-05-15T09:45:55.000Z</time>
      </trkpt>
      <trkpt lat="49.84488" lon="4.85367">
        <ele>275</ele>
        <time>2021-05-15T09:45:56.000Z</time>
      </trkpt>
      <trkpt lat="49.84489" lon="4.8537">
        <ele>275</ele>
        <time>2021-05-15T09:45:57.000Z</time>
      </trkpt>
      <trkpt lat="49.84492" lon="4.85373">
        <ele>275</ele>
        <time>2021-05-15T09:45:58.000Z</time>
      </trkpt>
      <trkpt lat="49.84494" lon="4.85376">
        <ele>275</ele>
        <time>2021-05-15T09:45:59.000Z</time>
      </trkpt>
      <trkpt lat="49.84496" lon="4.85379">
        <ele>275</ele>
        <time>2021-05-15T09:46:00.000Z</time>
      </trkpt>
      <trkpt lat="49.84497" lon="4.85382">
        <ele>275</ele>
        <time>2021-05-15T09:46:01.000Z</time>
      </trkpt>
      <trkpt lat="49.84499" lon="4.85385">
        <ele>275</ele>
        <time>2021-05-15T09:46:02.000Z</time>
      </trkpt>
      <trkpt lat="49.845" lon="4.85389">
        <ele>275</ele>
        <time>2021-05-15T09:46:03.000Z</time>
      </trkpt>
      <trkpt lat="49.84502" lon="4.85393">
        <ele>275</ele>
        <time>2021-05-15T09:46:04.000Z</time>
      </trkpt>
      <trkpt lat="49.84503" lon="4.85397">
        <ele>275</ele>
        <time>2021-05-15T09:46:05.000Z</time>
      </trkpt>
      <trkpt lat="49.84504" lon="4.854">
        <ele>275</ele>
        <time>2021-05-15T09:46:06.000Z</time>
      </trkpt>
      <trkpt lat="49.84506" lon="4.85404">
        <ele>276</ele>
        <time>2021-05-15T09:46:07.000Z</time>
      </trkpt>
      <trkpt lat="49.84507" lon="4.85407">
        <ele>276</ele>
        <time>2021-05-15T09:46:08.000Z</time>
      </trkpt>
      <trkpt lat="49.84509" lon="4.85411">
        <ele>276</ele>
        <time>2021-05-15T09:46:09.000Z</time>
      </trkpt>
      <trkpt lat="49.8451" lon="4.85415">
        <ele>276</ele>
        <time>2021-05-15T09:46:10.000Z</time>
      </trkpt>
      <trkpt lat="49.84511" lon="4.85419">
        <ele>276</ele>
        <time>2021-05-15T09:46:11.000Z</time>
      </trkpt>
      <trkpt lat="49.84512" lon="4.85422">
        <ele>276</ele>
        <time>2021-05-15T09:46:12.000Z</time>
      </trkpt>
      <trkpt lat="49.84514" lon="4.85425">
        <ele>276</ele>
        <time>2021-05-15T09:46:13.000Z</time>
      </trkpt>
      <trkpt lat="49.84516" lon="4.85428">
        <ele>276</ele>
        <time>2021-05-15T09:46:14.000Z</time>
      </trkpt>
      <trkpt lat="49.84516" lon="4.85431">
        <ele>276</ele>
        <time>2021-05-15T09:46:15.000Z</time>
      </trkpt>
      <trkpt lat="49.84518" lon="4.85435">
        <ele>276</ele>
        <time>2021-05-15T09:46:16.000Z</time>
      </trkpt>
      <trkpt lat="49.84519" lon="4.85438">
        <ele>276</ele>
        <time>2021-05-15T09:46:17.000Z</time>
      </trkpt>
      <trkpt lat="49.84519" lon="4.85442">
        <ele>276</ele>
        <time>2021-05-15T09:46:18.000Z</time>
      </trkpt>
      <trkpt lat="49.8452" lon="4.85446">
        <ele>276</ele>
        <time>2021-05-15T09:46:19.000Z</time>
      </trkpt>
      <trkpt lat="49.84521" lon="4.85449">
        <ele>276</ele>
        <time>2021-05-15T09:46:20.000Z</time>
      </trkpt>
      <trkpt lat="49.84523" lon="4.85453">
        <ele>276</ele>
        <time>2021-05-15T09:46:21.000Z</time>
      </trkpt>
      <trkpt lat="49.84524" lon="4.85456">
        <ele>277</ele>
        <time>2021-05-15T09:46:22.000Z</time>
      </trkpt>
      <trkpt lat="49.84525" lon="4.8546">
        <ele>277</ele>
        <time>2021-05-15T09:46:23.000Z</time>
      </trkpt>
      <trkpt lat="49.84527" lon="4.85465">
        <ele>277</ele>
        <time>2021-05-15T09:46:24.000Z</time>
      </trkpt>
      <trkpt lat="49.84528" lon="4.85468">
        <ele>277</ele>
        <time>2021-05-15T09:46:25.000Z</time>
      </trkpt>
      <trkpt lat="49.84529" lon="4.85472">
        <ele>277</ele>
        <time>2021-05-15T09:46:26.000Z</time>
      </trkpt>
      <trkpt lat="49.84531" lon="4.85476">
        <ele>277</ele>
        <time>2021-05-15T09:46:27.000Z</time>
      </trkpt>
      <trkpt lat="49.84532" lon="4.8548">
        <ele>277</ele>
        <time>2021-05-15T09:46:28.000Z</time>
      </trkpt>
      <trkpt lat="49.84534" lon="4.85484">
        <ele>278</ele>
        <time>2021-05-15T09:46:29.000Z</time>
      </trkpt>
      <trkpt lat="49.84535" lon="4.85487">
        <ele>278</ele>
        <time>2021-05-15T09:46:30.000Z</time>
      </trkpt>
      <trkpt lat="49.84537" lon="4.85491">
        <ele>278</ele>
        <time>2021-05-15T09:46:31.000Z</time>
      </trkpt>
      <trkpt lat="49.84538" lon="4.85494">
        <ele>278</ele>
        <time>2021-05-15T09:46:32.000Z</time>
      </trkpt>
      <trkpt lat="49.84539" lon="4.85498">
        <ele>278</ele>
        <time>2021-05-15T09:46:33.000Z</time>
      </trkpt>
      <trkpt lat="49.8454" lon="4.85501">
        <ele>278</ele>
        <time>2021-05-15T09:46:34.000Z</time>
      </trkpt>
      <trkpt lat="49.84541" lon="4.85504">
        <ele>278</ele>
        <time>2021-05-15T09:46:35.000Z</time>
      </trkpt>
      <trkpt lat="49.84542" lon="4.85506">
        <ele>278</ele>
        <time>2021-05-15T09:46:36.000Z</time>
      </trkpt>
      <trkpt lat="49.84542" lon="4.85508">
        <ele>278</ele>
        <time>2021-05-15T09:46:37.000Z</time>
      </trkpt>
      <trkpt lat="49.84542" lon="4.8551">
        <ele>278</ele>
        <time>2021-05-15T09:46:38.000Z</time>
      </trkpt>
      <trkpt lat="49.84543" lon="4.85513">
        <ele>278</ele>
        <time>2021-05-15T09:46:39.000Z</time>
      </trkpt>
      <trkpt lat="49.84544" lon="4.85515">
        <ele>278</ele>
        <time>2021-05-15T09:46:40.000Z</time>
      </trkpt>
      <trkpt lat="49.84545" lon="4.85517">
        <ele>279</ele>
        <time>2021-05-15T09:46:41.000Z</time>
      </trkpt>
      <trkpt lat="49.84546" lon="4.8552">
        <ele>279</ele>
        <time>2021-05-15T09:46:42.000Z</time>
      </trkpt>
      <trkpt lat="49.84547" lon="4.85522">
        <ele>279</ele>
        <time>2021-05-15T09:46:43.000Z</time>
      </trkpt>
      <trkpt lat="49.84548" lon="4.85524">
        <ele>279</ele>
        <time>2021-05-15T09:46:44.000Z</time>
      </trkpt>
      <trkpt lat="49.84549" lon="4.85527">
        <ele>279</ele>
        <time>2021-05-15T09:46:45.000Z</time>
      </trkpt>
      <trkpt lat="49.8455" lon="4.85529">
        <ele>279</ele>
        <time>2021-05-15T09:46:46.000Z</time>
      </trkpt>
      <trkpt lat="49.84551" lon="4.85532">
        <ele>279</ele>
        <time>2021-05-15T09:46:47.000Z</time>
      </trkpt>
      <trkpt lat="49.84551" lon="4.85533">
        <ele>278</ele>
        <time>2021-05-15T09:46:48.000Z</time>
      </trkpt>
      <trkpt lat="49.84553" lon="4.85534">
        <ele>278</ele>
        <time>2021-05-15T09:46:49.000Z</time>
      </trkpt>
      <trkpt lat="49.84554" lon="4.85534">
        <ele>278</ele>
        <time>2021-05-15T09:46:50.000Z</time>
      </trkpt>
      <trkpt lat="49.84555" lon="4.85533">
        <ele>278</ele>
        <time>2021-05-15T09:46:51.000Z</time>
      </trkpt>
      <trkpt lat="49.84555" lon="4.85532">
        <ele>278</ele>
        <time>2021-05-15T09:46:52.000Z</time>
      </trkpt>
      <trkpt lat="49.84555" lon="4.85531">
        <ele>279</ele>
        <time>2021-05-15T09:46:53.000Z</time>
      </trkpt>
      <trkpt lat="49.84555" lon="4.8553">
        <ele>279</ele>
        <time>2021-05-15T09:46:54.000Z</time>
      </trkpt>
      <trkpt lat="49.84555" lon="4.85528">
        <ele>279</ele>
        <time>2021-05-15T09:46:55.000Z</time>
      </trkpt>
      <trkpt lat="49.84554" lon="4.85525">
        <ele>279</ele>
        <time>2021-05-15T09:46:56.000Z</time>
      </trkpt>
      <trkpt lat="49.84554" lon="4.85523">
        <ele>279</ele>
        <time>2021-05-15T09:46:57.000Z</time>
      </trkpt>
      <trkpt lat="49.84554" lon="4.8552">
        <ele>279</ele>
        <time>2021-05-15T09:46:58.000Z</time>
      </trkpt>
      <trkpt lat="49.84553" lon="4.85518">
        <ele>279</ele>
        <time>2021-05-15T09:46:59.000Z</time>
      </trkpt>
      <trkpt lat="49.84553" lon="4.85515">
        <ele>279</ele>
        <time>2021-05-15T09:47:00.000Z</time>
      </trkpt>
      <trkpt lat="49.84552" lon="4.85511">
        <ele>279</ele>
        <time>2021-05-15T09:47:01.000Z</time>
      </trkpt>
      <trkpt lat="49.84551" lon="4.85508">
        <ele>279</ele>
        <time>2021-05-15T09:47:02.000Z</time>
      </trkpt>
      <trkpt lat="49.84551" lon="4.85506">
        <ele>280</ele>
        <time>2021-05-15T09:47:03.000Z</time>
      </trkpt>
      <trkpt lat="49.8455" lon="4.85503">
        <ele>280</ele>
        <time>2021-05-15T09:47:04.000Z</time>
      </trkpt>
      <trkpt lat="49.8455" lon="4.855">
        <ele>280</ele>
        <time>2021-05-15T09:47:05.000Z</time>
      </trkpt>
      <trkpt lat="49.84549" lon="4.85497">
        <ele>280</ele>
        <time>2021-05-15T09:47:06.000Z</time>
      </trkpt>
      <trkpt lat="49.84549" lon="4.85494">
        <ele>281</ele>
        <time>2021-05-15T09:47:07.000Z</time>
      </trkpt>
      <trkpt lat="49.84548" lon="4.85491">
        <ele>281</ele>
        <time>2021-05-15T09:47:08.000Z</time>
      </trkpt>
      <trkpt lat="49.84547" lon="4.85488">
        <ele>281</ele>
        <time>2021-05-15T09:47:09.000Z</time>
      </trkpt>
      <trkpt lat="49.84548" lon="4.85485">
        <ele>281</ele>
        <time>2021-05-15T09:47:10.000Z</time>
      </trkpt>
      <trkpt lat="49.84547" lon="4.85482">
        <ele>282</ele>
        <time>2021-05-15T09:47:11.000Z</time>
      </trkpt>
      <trkpt lat="49.84546" lon="4.85479">
        <ele>282</ele>
        <time>2021-05-15T09:47:12.000Z</time>
      </trkpt>
      <trkpt lat="49.84545" lon="4.85477">
        <ele>282</ele>
        <time>2021-05-15T09:47:13.000Z</time>
      </trkpt>
      <trkpt lat="49.84545" lon="4.85473">
        <ele>282</ele>
        <time>2021-05-15T09:47:14.000Z</time>
      </trkpt>
      <trkpt lat="49.84545" lon="4.8547">
        <ele>282</ele>
        <time>2021-05-15T09:47:15.000Z</time>
      </trkpt>
      <trkpt lat="49.84545" lon="4.85467">
        <ele>282</ele>
        <time>2021-05-15T09:47:16.000Z</time>
      </trkpt>
      <trkpt lat="49.84544" lon="4.85464">
        <ele>282</ele>
        <time>2021-05-15T09:47:17.000Z</time>
      </trkpt>
      <trkpt lat="49.84543" lon="4.85461">
        <ele>282</ele>
        <time>2021-05-15T09:47:18.000Z</time>
      </trkpt>
      <trkpt lat="49.84543" lon="4.85458">
        <ele>283</ele>
        <time>2021-05-15T09:47:19.000Z</time>
      </trkpt>
      <trkpt lat="49.84542" lon="4.85455">
        <ele>283</ele>
        <time>2021-05-15T09:47:20.000Z</time>
      </trkpt>
      <trkpt lat="49.84541" lon="4.85452">
        <ele>283</ele>
        <time>2021-05-15T09:47:21.000Z</time>
      </trkpt>
      <trkpt lat="49.84542" lon="4.85449">
        <ele>283</ele>
        <time>2021-05-15T09:47:22.000Z</time>
      </trkpt>
      <trkpt lat="49.84542" lon="4.85446">
        <ele>283</ele>
        <time>2021-05-15T09:47:23.000Z</time>
      </trkpt>
      <trkpt lat="49.84543" lon="4.85443">
        <ele>283</ele>
        <time>2021-05-15T09:47:24.000Z</time>
      </trkpt>
      <trkpt lat="49.84543" lon="4.8544">
        <ele>284</ele>
        <time>2021-05-15T09:47:25.000Z</time>
      </trkpt>
      <trkpt lat="49.84544" lon="4.85438">
        <ele>284</ele>
        <time>2021-05-15T09:47:26.000Z</time>
      </trkpt>
      <trkpt lat="49.84545" lon="4.85436">
        <ele>284</ele>
        <time>2021-05-15T09:47:27.000Z</time>
      </trkpt>
      <trkpt lat="49.84545" lon="4.85433">
        <ele>284</ele>
        <time>2021-05-15T09:47:28.000Z</time>
      </trkpt>
      <trkpt lat="49.84545" lon="4.8543">
        <ele>284</ele>
        <time>2021-05-15T09:47:29.000Z</time>
      </trkpt>
      <trkpt lat="49.84545" lon="4.85428">
        <ele>284</ele>
        <time>2021-05-15T09:47:30.000Z</time>
      </trkpt>
      <trkpt lat="49.84545" lon="4.85426">
        <ele>285</ele>
        <time>2021-05-15T09:47:31.000Z</time>
      </trkpt>
      <trkpt lat="49.84544" lon="4.85424">
        <ele>285</ele>
        <time>2021-05-15T09:47:32.000Z</time>
      </trkpt>
      <trkpt lat="49.84544" lon="4.85421">
        <ele>285</ele>
        <time>2021-05-15T09:47:33.000Z</time>
      </trkpt>
      <trkpt lat="49.84545" lon="4.85418">
        <ele>285</ele>
        <time>2021-05-15T09:47:34.000Z</time>
      </trkpt>
      <trkpt lat="49.84545" lon="4.85415">
        <ele>285</ele>
        <time>2021-05-15T09:47:35.000Z</time>
      </trkpt>
      <trkpt lat="49.84545" lon="4.85411">
        <ele>286</ele>
        <time>2021-05-15T09:47:36.000Z</time>
      </trkpt>
      <trkpt lat="49.84545" lon="4.85408">
        <ele>286</ele>
        <time>2021-05-15T09:47:37.000Z</time>
      </trkpt>
      <trkpt lat="49.84544" lon="4.85404">
        <ele>286</ele>
        <time>2021-05-15T09:47:38.000Z</time>
      </trkpt>
      <trkpt lat="49.84545" lon="4.85401">
        <ele>286</ele>
        <time>2021-05-15T09:47:39.000Z</time>
      </trkpt>
      <trkpt lat="49.84545" lon="4.85398">
        <ele>287</ele>
        <time>2021-05-15T09:47:40.000Z</time>
      </trkpt>
      <trkpt lat="49.84545" lon="4.85395">
        <ele>287</ele>
        <time>2021-05-15T09:47:41.000Z</time>
      </trkpt>
      <trkpt lat="49.84545" lon="4.85393">
        <ele>287</ele>
        <time>2021-05-15T09:47:42.000Z</time>
      </trkpt>
      <trkpt lat="49.84544" lon="4.8539">
        <ele>287</ele>
        <time>2021-05-15T09:47:43.000Z</time>
      </trkpt>
      <trkpt lat="49.84544" lon="4.85388">
        <ele>288</ele>
        <time>2021-05-15T09:47:44.000Z</time>
      </trkpt>
      <trkpt lat="49.84544" lon="4.85385">
        <ele>288</ele>
        <time>2021-05-15T09:47:45.000Z</time>
      </trkpt>
      <trkpt lat="49.84544" lon="4.85382">
        <ele>288</ele>
        <time>2021-05-15T09:47:46.000Z</time>
      </trkpt>
      <trkpt lat="49.84544" lon="4.8538">
        <ele>288</ele>
        <time>2021-05-15T09:47:47.000Z</time>
      </trkpt>
      <trkpt lat="49.84544" lon="4.85377">
        <ele>289</ele>
        <time>2021-05-15T09:47:48.000Z</time>
      </trkpt>
      <trkpt lat="49.84543" lon="4.85374">
        <ele>289</ele>
        <time>2021-05-15T09:47:49.000Z</time>
      </trkpt>
      <trkpt lat="49.84543" lon="4.85371">
        <ele>289</ele>
        <time>2021-05-15T09:47:50.000Z</time>
      </trkpt>
      <trkpt lat="49.84542" lon="4.85367">
        <ele>289</ele>
        <time>2021-05-15T09:47:51.000Z</time>
      </trkpt>
      <trkpt lat="49.84541" lon="4.85364">
        <ele>289</ele>
        <time>2021-05-15T09:47:52.000Z</time>
      </trkpt>
      <trkpt lat="49.8454" lon="4.85362">
        <ele>290</ele>
        <time>2021-05-15T09:47:53.000Z</time>
      </trkpt>
      <trkpt lat="49.84538" lon="4.85359">
        <ele>290</ele>
        <time>2021-05-15T09:47:54.000Z</time>
      </trkpt>
      <trkpt lat="49.84536" lon="4.85357">
        <ele>290</ele>
        <time>2021-05-15T09:47:55.000Z</time>
      </trkpt>
      <trkpt lat="49.84535" lon="4.85355">
        <ele>290</ele>
        <time>2021-05-15T09:47:56.000Z</time>
      </trkpt>
      <trkpt lat="49.84534" lon="4.85353">
        <ele>291</ele>
        <time>2021-05-15T09:47:57.000Z</time>
      </trkpt>
      <trkpt lat="49.84534" lon="4.8535">
        <ele>291</ele>
        <time>2021-05-15T09:47:58.000Z</time>
      </trkpt>
      <trkpt lat="49.84533" lon="4.85348">
        <ele>291</ele>
        <time>2021-05-15T09:47:59.000Z</time>
      </trkpt>
      <trkpt lat="49.84532" lon="4.85346">
        <ele>291</ele>
        <time>2021-05-15T09:48:00.000Z</time>
      </trkpt>
      <trkpt lat="49.84531" lon="4.85344">
        <ele>292</ele>
        <time>2021-05-15T09:48:01.000Z</time>
      </trkpt>
      <trkpt lat="49.8453" lon="4.85342">
        <ele>292</ele>
        <time>2021-05-15T09:48:02.000Z</time>
      </trkpt>
      <trkpt lat="49.8453" lon="4.8534">
        <ele>292</ele>
        <time>2021-05-15T09:48:03.000Z</time>
      </trkpt>
      <trkpt lat="49.84529" lon="4.85337">
        <ele>292</ele>
        <time>2021-05-15T09:48:04.000Z</time>
      </trkpt>
      <trkpt lat="49.84528" lon="4.85335">
        <ele>292</ele>
        <time>2021-05-15T09:48:05.000Z</time>
      </trkpt>
      <trkpt lat="49.84526" lon="4.85332">
        <ele>292</ele>
        <time>2021-05-15T09:48:06.000Z</time>
      </trkpt>
      <trkpt lat="49.84525" lon="4.85329">
        <ele>293</ele>
        <time>2021-05-15T09:48:07.000Z</time>
      </trkpt>
      <trkpt lat="49.84524" lon="4.85326">
        <ele>293</ele>
        <time>2021-05-15T09:48:08.000Z</time>
      </trkpt>
      <trkpt lat="49.84524" lon="4.85324">
        <ele>293</ele>
        <time>2021-05-15T09:48:09.000Z</time>
      </trkpt>
      <trkpt lat="49.84523" lon="4.85322">
        <ele>293</ele>
        <time>2021-05-15T09:48:10.000Z</time>
      </trkpt>
      <trkpt lat="49.84523" lon="4.85319">
        <ele>293</ele>
        <time>2021-05-15T09:48:11.000Z</time>
      </trkpt>
      <trkpt lat="49.84522" lon="4.85316">
        <ele>294</ele>
        <time>2021-05-15T09:48:12.000Z</time>
      </trkpt>
      <trkpt lat="49.84521" lon="4.85313">
        <ele>294</ele>
        <time>2021-05-15T09:48:13.000Z</time>
      </trkpt>
      <trkpt lat="49.8452" lon="4.85311">
        <ele>294</ele>
        <time>2021-05-15T09:48:14.000Z</time>
      </trkpt>
      <trkpt lat="49.84519" lon="4.85308">
        <ele>294</ele>
        <time>2021-05-15T09:48:15.000Z</time>
      </trkpt>
      <trkpt lat="49.84519" lon="4.85305">
        <ele>294</ele>
        <time>2021-05-15T09:48:16.000Z</time>
      </trkpt>
      <trkpt lat="49.84519" lon="4.85302">
        <ele>295</ele>
        <time>2021-05-15T09:48:17.000Z</time>
      </trkpt>
      <trkpt lat="49.84518" lon="4.85298">
        <ele>295</ele>
        <time>2021-05-15T09:48:18.000Z</time>
      </trkpt>
      <trkpt lat="49.84518" lon="4.85295">
        <ele>295</ele>
        <time>2021-05-15T09:48:19.000Z</time>
      </trkpt>
      <trkpt lat="49.84517" lon="4.85292">
        <ele>295</ele>
        <time>2021-05-15T09:48:20.000Z</time>
      </trkpt>
      <trkpt lat="49.84516" lon="4.85289">
        <ele>296</ele>
        <time>2021-05-15T09:48:21.000Z</time>
      </trkpt>
      <trkpt lat="49.84515" lon="4.85286">
        <ele>296</ele>
        <time>2021-05-15T09:48:22.000Z</time>
      </trkpt>
      <trkpt lat="49.84514" lon="4.85283">
        <ele>296</ele>
        <time>2021-05-15T09:48:23.000Z</time>
      </trkpt>
      <trkpt lat="49.84513" lon="4.8528">
        <ele>296</ele>
        <time>2021-05-15T09:48:24.000Z</time>
      </trkpt>
      <trkpt lat="49.84512" lon="4.85276">
        <ele>297</ele>
        <time>2021-05-15T09:48:25.000Z</time>
      </trkpt>
      <trkpt lat="49.84511" lon="4.85273">
        <ele>297</ele>
        <time>2021-05-15T09:48:26.000Z</time>
      </trkpt>
      <trkpt lat="49.84509" lon="4.85271">
        <ele>297</ele>
        <time>2021-05-15T09:48:27.000Z</time>
      </trkpt>
      <trkpt lat="49.84508" lon="4.85268">
        <ele>297</ele>
        <time>2021-05-15T09:48:28.000Z</time>
      </trkpt>
      <trkpt lat="49.84507" lon="4.85265">
        <ele>298</ele>
        <time>2021-05-15T09:48:29.000Z</time>
      </trkpt>
      <trkpt lat="49.84506" lon="4.85263">
        <ele>298</ele>
        <time>2021-05-15T09:48:30.000Z</time>
      </trkpt>
      <trkpt lat="49.84505" lon="4.85261">
        <ele>298</ele>
        <time>2021-05-15T09:48:31.000Z</time>
      </trkpt>
      <trkpt lat="49.84504" lon="4.85258">
        <ele>298</ele>
        <time>2021-05-15T09:48:32.000Z</time>
      </trkpt>
      <trkpt lat="49.84503" lon="4.85256">
        <ele>299</ele>
        <time>2021-05-15T09:48:33.000Z</time>
      </trkpt>
      <trkpt lat="49.84502" lon="4.85253">
        <ele>299</ele>
        <time>2021-05-15T09:48:34.000Z</time>
      </trkpt>
      <trkpt lat="49.84501" lon="4.8525">
        <ele>299</ele>
        <time>2021-05-15T09:48:35.000Z</time>
      </trkpt>
      <trkpt lat="49.845" lon="4.85247">
        <ele>299</ele>
        <time>2021-05-15T09:48:36.000Z</time>
      </trkpt>
      <trkpt lat="49.845" lon="4.85244">
        <ele>299</ele>
        <time>2021-05-15T09:48:37.000Z</time>
      </trkpt>
      <trkpt lat="49.84499" lon="4.85242">
        <ele>299</ele>
        <time>2021-05-15T09:48:38.000Z</time>
      </trkpt>
      <trkpt lat="49.84498" lon="4.85239">
        <ele>299</ele>
        <time>2021-05-15T09:48:39.000Z</time>
      </trkpt>
      <trkpt lat="49.84497" lon="4.85237">
        <ele>300</ele>
        <time>2021-05-15T09:48:40.000Z</time>
      </trkpt>
      <trkpt lat="49.84497" lon="4.85235">
        <ele>300</ele>
        <time>2021-05-15T09:48:41.000Z</time>
      </trkpt>
      <trkpt lat="49.84496" lon="4.85233">
        <ele>300</ele>
        <time>2021-05-15T09:48:42.000Z</time>
      </trkpt>
      <trkpt lat="49.84495" lon="4.85231">
        <ele>300</ele>
        <time>2021-05-15T09:48:43.000Z</time>
      </trkpt>
      <trkpt lat="49.84493" lon="4.85229">
        <ele>301</ele>
        <time>2021-05-15T09:48:44.000Z</time>
      </trkpt>
      <trkpt lat="49.84492" lon="4.85227">
        <ele>301</ele>
        <time>2021-05-15T09:48:45.000Z</time>
      </trkpt>
      <trkpt lat="49.84491" lon="4.85224">
        <ele>301</ele>
        <time>2021-05-15T09:48:46.000Z</time>
      </trkpt>
      <trkpt lat="49.84489" lon="4.85222">
        <ele>301</ele>
        <time>2021-05-15T09:48:47.000Z</time>
      </trkpt>
      <trkpt lat="49.84488" lon="4.85218">
        <ele>301</ele>
        <time>2021-05-15T09:48:48.000Z</time>
      </trkpt>
      <trkpt lat="49.84486" lon="4.85215">
        <ele>301</ele>
        <time>2021-05-15T09:48:49.000Z</time>
      </trkpt>
      <trkpt lat="49.84484" lon="4.85212">
        <ele>301</ele>
        <time>2021-05-15T09:48:50.000Z</time>
      </trkpt>
      <trkpt lat="49.84482" lon="4.85209">
        <ele>301</ele>
        <time>2021-05-15T09:48:51.000Z</time>
      </trkpt>
      <trkpt lat="49.8448" lon="4.85206">
        <ele>301</ele>
        <time>2021-05-15T09:48:52.000Z</time>
      </trkpt>
      <trkpt lat="49.84478" lon="4.85202">
        <ele>301</ele>
        <time>2021-05-15T09:48:53.000Z</time>
      </trkpt>
      <trkpt lat="49.84477" lon="4.85199">
        <ele>301</ele>
        <time>2021-05-15T09:48:54.000Z</time>
      </trkpt>
      <trkpt lat="49.84475" lon="4.85195">
        <ele>301</ele>
        <time>2021-05-15T09:48:55.000Z</time>
      </trkpt>
      <trkpt lat="49.84473" lon="4.85192">
        <ele>301</ele>
        <time>2021-05-15T09:48:56.000Z</time>
      </trkpt>
      <trkpt lat="49.84472" lon="4.85189">
        <ele>301</ele>
        <time>2021-05-15T09:48:57.000Z</time>
      </trkpt>
      <trkpt lat="49.8447" lon="4.85186">
        <ele>301</ele>
        <time>2021-05-15T09:48:58.000Z</time>
      </trkpt>
      <trkpt lat="49.84468" lon="4.85182">
        <ele>301</ele>
        <time>2021-05-15T09:48:59.000Z</time>
      </trkpt>
      <trkpt lat="49.84467" lon="4.85178">
        <ele>301</ele>
        <time>2021-05-15T09:49:00.000Z</time>
      </trkpt>
      <trkpt lat="49.84465" lon="4.85173">
        <ele>301</ele>
        <time>2021-05-15T09:49:01.000Z</time>
      </trkpt>
      <trkpt lat="49.84464" lon="4.85169">
        <ele>301</ele>
        <time>2021-05-15T09:49:02.000Z</time>
      </trkpt>
      <trkpt lat="49.84463" lon="4.85165">
        <ele>302</ele>
        <time>2021-05-15T09:49:03.000Z</time>
      </trkpt>
      <trkpt lat="49.84461" lon="4.8516">
        <ele>302</ele>
        <time>2021-05-15T09:49:04.000Z</time>
      </trkpt>
      <trkpt lat="49.8446" lon="4.85156">
        <ele>302</ele>
        <time>2021-05-15T09:49:05.000Z</time>
      </trkpt>
      <trkpt lat="49.84458" lon="4.85151">
        <ele>302</ele>
        <time>2021-05-15T09:49:06.000Z</time>
      </trkpt>
      <trkpt lat="49.84457" lon="4.85146">
        <ele>302</ele>
        <time>2021-05-15T09:49:07.000Z</time>
      </trkpt>
      <trkpt lat="49.84455" lon="4.85141">
        <ele>302</ele>
        <time>2021-05-15T09:49:08.000Z</time>
      </trkpt>
      <trkpt lat="49.84453" lon="4.85136">
        <ele>302</ele>
        <time>2021-05-15T09:49:09.000Z</time>
      </trkpt>
      <trkpt lat="49.84451" lon="4.85131">
        <ele>302</ele>
        <time>2021-05-15T09:49:10.000Z</time>
      </trkpt>
      <trkpt lat="49.84449" lon="4.85125">
        <ele>303</ele>
        <time>2021-05-15T09:49:11.000Z</time>
      </trkpt>
      <trkpt lat="49.84447" lon="4.8512">
        <ele>303</ele>
        <time>2021-05-15T09:49:12.000Z</time>
      </trkpt>
      <trkpt lat="49.84446" lon="4.85116">
        <ele>303</ele>
        <time>2021-05-15T09:49:13.000Z</time>
      </trkpt>
      <trkpt lat="49.84444" lon="4.85112">
        <ele>303</ele>
        <time>2021-05-15T09:49:14.000Z</time>
      </trkpt>
      <trkpt lat="49.84443" lon="4.85109">
        <ele>303</ele>
        <time>2021-05-15T09:49:15.000Z</time>
      </trkpt>
      <trkpt lat="49.84442" lon="4.85107">
        <ele>303</ele>
        <time>2021-05-15T09:49:16.000Z</time>
      </trkpt>
      <trkpt lat="49.84441" lon="4.85105">
        <ele>303</ele>
        <time>2021-05-15T09:49:17.000Z</time>
      </trkpt>
      <trkpt lat="49.8444" lon="4.85104">
        <ele>303</ele>
        <time>2021-05-15T09:49:18.000Z</time>
      </trkpt>
      <trkpt lat="49.8444" lon="4.85103">
        <ele>303</ele>
        <time>2021-05-15T09:49:19.000Z</time>
      </trkpt>
      <trkpt lat="49.8444" lon="4.85102">
        <ele>303</ele>
        <time>2021-05-15T09:49:20.000Z</time>
      </trkpt>
      <trkpt lat="49.8444" lon="4.85101">
        <ele>303</ele>
        <time>2021-05-15T09:49:21.000Z</time>
      </trkpt>
      <trkpt lat="49.84439" lon="4.85101">
        <ele>304</ele>
        <time>2021-05-15T09:49:22.000Z</time>
      </trkpt>
      <trkpt lat="49.84439" lon="4.851">
        <ele>304</ele>
        <time>2021-05-15T09:49:23.000Z</time>
      </trkpt>
      <trkpt lat="49.84439" lon="4.85099">
        <ele>304</ele>
        <time>2021-05-15T09:49:24.000Z</time>
      </trkpt>
      <trkpt lat="49.84439" lon="4.85099">
        <ele>304</ele>
        <time>2021-05-15T09:49:25.000Z</time>
      </trkpt>
      <trkpt lat="49.84438" lon="4.85098">
        <ele>304</ele>
        <time>2021-05-15T09:49:26.000Z</time>
      </trkpt>
      <trkpt lat="49.84438" lon="4.85097">
        <ele>304</ele>
        <time>2021-05-15T09:49:27.000Z</time>
      </trkpt>
      <trkpt lat="49.84438" lon="4.85095">
        <ele>304</ele>
        <time>2021-05-15T09:49:28.000Z</time>
      </trkpt>
      <trkpt lat="49.84437" lon="4.85093">
        <ele>304</ele>
        <time>2021-05-15T09:49:29.000Z</time>
      </trkpt>
      <trkpt lat="49.84436" lon="4.8509">
        <ele>304</ele>
        <time>2021-05-15T09:49:30.000Z</time>
      </trkpt>
      <trkpt lat="49.84436" lon="4.85088">
        <ele>304</ele>
        <time>2021-05-15T09:49:31.000Z</time>
      </trkpt>
      <trkpt lat="49.84435" lon="4.85085">
        <ele>304</ele>
        <time>2021-05-15T09:49:32.000Z</time>
      </trkpt>
      <trkpt lat="49.84434" lon="4.85081">
        <ele>305</ele>
        <time>2021-05-15T09:49:33.000Z</time>
      </trkpt>
      <trkpt lat="49.84434" lon="4.85078">
        <ele>305</ele>
        <time>2021-05-15T09:49:34.000Z</time>
      </trkpt>
      <trkpt lat="49.84434" lon="4.85074">
        <ele>305</ele>
        <time>2021-05-15T09:49:35.000Z</time>
      </trkpt>
      <trkpt lat="49.84433" lon="4.8507">
        <ele>305</ele>
        <time>2021-05-15T09:49:36.000Z</time>
      </trkpt>
      <trkpt lat="49.84432" lon="4.85066">
        <ele>305</ele>
        <time>2021-05-15T09:49:37.000Z</time>
      </trkpt>
      <trkpt lat="49.84431" lon="4.85062">
        <ele>305</ele>
        <time>2021-05-15T09:49:38.000Z</time>
      </trkpt>
      <trkpt lat="49.8443" lon="4.85057">
        <ele>306</ele>
        <time>2021-05-15T09:49:39.000Z</time>
      </trkpt>
      <trkpt lat="49.84428" lon="4.85052">
        <ele>306</ele>
        <time>2021-05-15T09:49:40.000Z</time>
      </trkpt>
      <trkpt lat="49.84427" lon="4.85047">
        <ele>306</ele>
        <time>2021-05-15T09:49:41.000Z</time>
      </trkpt>
      <trkpt lat="49.84426" lon="4.85042">
        <ele>306</ele>
        <time>2021-05-15T09:49:42.000Z</time>
      </trkpt>
      <trkpt lat="49.84424" lon="4.85038">
        <ele>306</ele>
        <time>2021-05-15T09:49:43.000Z</time>
      </trkpt>
      <trkpt lat="49.84422" lon="4.85033">
        <ele>306</ele>
        <time>2021-05-15T09:49:44.000Z</time>
      </trkpt>
      <trkpt lat="49.84421" lon="4.85028">
        <ele>307</ele>
        <time>2021-05-15T09:49:45.000Z</time>
      </trkpt>
      <trkpt lat="49.84419" lon="4.85023">
        <ele>307</ele>
        <time>2021-05-15T09:49:46.000Z</time>
      </trkpt>
      <trkpt lat="49.84417" lon="4.85018">
        <ele>307</ele>
        <time>2021-05-15T09:49:47.000Z</time>
      </trkpt>
      <trkpt lat="49.84416" lon="4.85013">
        <ele>307</ele>
        <time>2021-05-15T09:49:48.000Z</time>
      </trkpt>
      <trkpt lat="49.84414" lon="4.85008">
        <ele>307</ele>
        <time>2021-05-15T09:49:49.000Z</time>
      </trkpt>
      <trkpt lat="49.84412" lon="4.85003">
        <ele>308</ele>
        <time>2021-05-15T09:49:50.000Z</time>
      </trkpt>
      <trkpt lat="49.84411" lon="4.84998">
        <ele>308</ele>
        <time>2021-05-15T09:49:51.000Z</time>
      </trkpt>
      <trkpt lat="49.84409" lon="4.84992">
        <ele>308</ele>
        <time>2021-05-15T09:49:52.000Z</time>
      </trkpt>
      <trkpt lat="49.84406" lon="4.84987">
        <ele>308</ele>
        <time>2021-05-15T09:49:53.000Z</time>
      </trkpt>
      <trkpt lat="49.84404" lon="4.84983">
        <ele>308</ele>
        <time>2021-05-15T09:49:54.000Z</time>
      </trkpt>
      <trkpt lat="49.84402" lon="4.84978">
        <ele>308</ele>
        <time>2021-05-15T09:49:55.000Z</time>
      </trkpt>
      <trkpt lat="49.844" lon="4.84974">
        <ele>308</ele>
        <time>2021-05-15T09:49:56.000Z</time>
      </trkpt>
      <trkpt lat="49.84398" lon="4.84969">
        <ele>308</ele>
        <time>2021-05-15T09:49:57.000Z</time>
      </trkpt>
      <trkpt lat="49.84397" lon="4.84966">
        <ele>308</ele>
        <time>2021-05-15T09:49:58.000Z</time>
      </trkpt>
      <trkpt lat="49.84395" lon="4.84961">
        <ele>308</ele>
        <time>2021-05-15T09:49:59.000Z</time>
      </trkpt>
      <trkpt lat="49.84393" lon="4.84958">
        <ele>308</ele>
        <time>2021-05-15T09:50:00.000Z</time>
      </trkpt>
      <trkpt lat="49.84391" lon="4.84954">
        <ele>308</ele>
        <time>2021-05-15T09:50:01.000Z</time>
      </trkpt>
      <trkpt lat="49.84389" lon="4.8495">
        <ele>308</ele>
        <time>2021-05-15T09:50:02.000Z</time>
      </trkpt>
      <trkpt lat="49.84387" lon="4.84947">
        <ele>309</ele>
        <time>2021-05-15T09:50:03.000Z</time>
      </trkpt>
      <trkpt lat="49.84385" lon="4.84944">
        <ele>309</ele>
        <time>2021-05-15T09:50:04.000Z</time>
      </trkpt>
      <trkpt lat="49.84382" lon="4.84939">
        <ele>309</ele>
        <time>2021-05-15T09:50:05.000Z</time>
      </trkpt>
      <trkpt lat="49.84379" lon="4.84935">
        <ele>309</ele>
        <time>2021-05-15T09:50:06.000Z</time>
      </trkpt>
      <trkpt lat="49.84377" lon="4.84932">
        <ele>309</ele>
        <time>2021-05-15T09:50:07.000Z</time>
      </trkpt>
      <trkpt lat="49.84375" lon="4.84927">
        <ele>309</ele>
        <time>2021-05-15T09:50:08.000Z</time>
      </trkpt>
      <trkpt lat="49.84372" lon="4.84923">
        <ele>309</ele>
        <time>2021-05-15T09:50:09.000Z</time>
      </trkpt>
      <trkpt lat="49.8437" lon="4.84919">
        <ele>309</ele>
        <time>2021-05-15T09:50:10.000Z</time>
      </trkpt>
      <trkpt lat="49.84368" lon="4.84915">
        <ele>309</ele>
        <time>2021-05-15T09:50:11.000Z</time>
      </trkpt>
      <trkpt lat="49.84365" lon="4.84911">
        <ele>309</ele>
        <time>2021-05-15T09:50:12.000Z</time>
      </trkpt>
      <trkpt lat="49.84363" lon="4.84907">
        <ele>309</ele>
        <time>2021-05-15T09:50:13.000Z</time>
      </trkpt>
      <trkpt lat="49.8436" lon="4.84903">
        <ele>309</ele>
        <time>2021-05-15T09:50:14.000Z</time>
      </trkpt>
      <trkpt lat="49.84358" lon="4.84899">
        <ele>309</ele>
        <time>2021-05-15T09:50:15.000Z</time>
      </trkpt>
      <trkpt lat="49.84355" lon="4.84897">
        <ele>309</ele>
        <time>2021-05-15T09:50:16.000Z</time>
      </trkpt>
      <trkpt lat="49.84352" lon="4.84894">
        <ele>309</ele>
        <time>2021-05-15T09:50:17.000Z</time>
      </trkpt>
      <trkpt lat="49.8435" lon="4.84891">
        <ele>309</ele>
        <time>2021-05-15T09:50:18.000Z</time>
      </trkpt>
      <trkpt lat="49.84347" lon="4.84888">
        <ele>309</ele>
        <time>2021-05-15T09:50:19.000Z</time>
      </trkpt>
      <trkpt lat="49.84345" lon="4.84885">
        <ele>309</ele>
        <time>2021-05-15T09:50:20.000Z</time>
      </trkpt>
      <trkpt lat="49.84343" lon="4.84881">
        <ele>309</ele>
        <time>2021-05-15T09:50:21.000Z</time>
      </trkpt>
      <trkpt lat="49.8434" lon="4.84878">
        <ele>309</ele>
        <time>2021-05-15T09:50:22.000Z</time>
      </trkpt>
      <trkpt lat="49.84337" lon="4.84875">
        <ele>309</ele>
        <time>2021-05-15T09:50:23.000Z</time>
      </trkpt>
      <trkpt lat="49.84335" lon="4.84873">
        <ele>309</ele>
        <time>2021-05-15T09:50:24.000Z</time>
      </trkpt>
      <trkpt lat="49.84332" lon="4.84871">
        <ele>309</ele>
        <time>2021-05-15T09:50:25.000Z</time>
      </trkpt>
      <trkpt lat="49.8433" lon="4.84869">
        <ele>309</ele>
        <time>2021-05-15T09:50:26.000Z</time>
      </trkpt>
      <trkpt lat="49.84328" lon="4.84866">
        <ele>309</ele>
        <time>2021-05-15T09:50:27.000Z</time>
      </trkpt>
      <trkpt lat="49.84325" lon="4.84864">
        <ele>310</ele>
        <time>2021-05-15T09:50:28.000Z</time>
      </trkpt>
      <trkpt lat="49.84322" lon="4.84861">
        <ele>310</ele>
        <time>2021-05-15T09:50:29.000Z</time>
      </trkpt>
      <trkpt lat="49.84319" lon="4.84859">
        <ele>310</ele>
        <time>2021-05-15T09:50:30.000Z</time>
      </trkpt>
      <trkpt lat="49.84317" lon="4.84857">
        <ele>310</ele>
        <time>2021-05-15T09:50:31.000Z</time>
      </trkpt>
      <trkpt lat="49.84314" lon="4.84855">
        <ele>310</ele>
        <time>2021-05-15T09:50:32.000Z</time>
      </trkpt>
      <trkpt lat="49.84312" lon="4.84854">
        <ele>310</ele>
        <time>2021-05-15T09:50:33.000Z</time>
      </trkpt>
      <trkpt lat="49.84309" lon="4.84852">
        <ele>310</ele>
        <time>2021-05-15T09:50:34.000Z</time>
      </trkpt>
      <trkpt lat="49.84307" lon="4.84851">
        <ele>310</ele>
        <time>2021-05-15T09:50:35.000Z</time>
      </trkpt>
      <trkpt lat="49.84305" lon="4.84852">
        <ele>310</ele>
        <time>2021-05-15T09:50:36.000Z</time>
      </trkpt>
      <trkpt lat="49.84303" lon="4.84852">
        <ele>310</ele>
        <time>2021-05-15T09:50:37.000Z</time>
      </trkpt>
      <trkpt lat="49.84301" lon="4.84853">
        <ele>310</ele>
        <time>2021-05-15T09:50:38.000Z</time>
      </trkpt>
      <trkpt lat="49.843" lon="4.84854">
        <ele>311</ele>
        <time>2021-05-15T09:50:39.000Z</time>
      </trkpt>
      <trkpt lat="49.84299" lon="4.84856">
        <ele>311</ele>
        <time>2021-05-15T09:50:40.000Z</time>
      </trkpt>
      <trkpt lat="49.84297" lon="4.84858">
        <ele>311</ele>
        <time>2021-05-15T09:50:41.000Z</time>
      </trkpt>
      <trkpt lat="49.84294" lon="4.8486">
        <ele>311</ele>
        <time>2021-05-15T09:50:42.000Z</time>
      </trkpt>
      <trkpt lat="49.84293" lon="4.84863">
        <ele>311</ele>
        <time>2021-05-15T09:50:43.000Z</time>
      </trkpt>
      <trkpt lat="49.84291" lon="4.84867">
        <ele>311</ele>
        <time>2021-05-15T09:50:44.000Z</time>
      </trkpt>
      <trkpt lat="49.84289" lon="4.84871">
        <ele>311</ele>
        <time>2021-05-15T09:50:45.000Z</time>
      </trkpt>
      <trkpt lat="49.84287" lon="4.84875">
        <ele>312</ele>
        <time>2021-05-15T09:50:46.000Z</time>
      </trkpt>
      <trkpt lat="49.84285" lon="4.8488">
        <ele>312</ele>
        <time>2021-05-15T09:50:47.000Z</time>
      </trkpt>
      <trkpt lat="49.84283" lon="4.84884">
        <ele>312</ele>
        <time>2021-05-15T09:50:48.000Z</time>
      </trkpt>
      <trkpt lat="49.84282" lon="4.84888">
        <ele>312</ele>
        <time>2021-05-15T09:50:49.000Z</time>
      </trkpt>
      <trkpt lat="49.84281" lon="4.84893">
        <ele>312</ele>
        <time>2021-05-15T09:50:50.000Z</time>
      </trkpt>
      <trkpt lat="49.8428" lon="4.84897">
        <ele>312</ele>
        <time>2021-05-15T09:50:51.000Z</time>
      </trkpt>
      <trkpt lat="49.8428" lon="4.84901">
        <ele>312</ele>
        <time>2021-05-15T09:50:52.000Z</time>
      </trkpt>
      <trkpt lat="49.84279" lon="4.84906">
        <ele>312</ele>
        <time>2021-05-15T09:50:53.000Z</time>
      </trkpt>
      <trkpt lat="49.84279" lon="4.8491">
        <ele>312</ele>
        <time>2021-05-15T09:50:54.000Z</time>
      </trkpt>
      <trkpt lat="49.84279" lon="4.84915">
        <ele>312</ele>
        <time>2021-05-15T09:50:55.000Z</time>
      </trkpt>
      <trkpt lat="49.84278" lon="4.8492">
        <ele>312</ele>
        <time>2021-05-15T09:50:56.000Z</time>
      </trkpt>
      <trkpt lat="49.84278" lon="4.84925">
        <ele>312</ele>
        <time>2021-05-15T09:50:57.000Z</time>
      </trkpt>
      <trkpt lat="49.84277" lon="4.84929">
        <ele>312</ele>
        <time>2021-05-15T09:50:58.000Z</time>
      </trkpt>
      <trkpt lat="49.84277" lon="4.84934">
        <ele>312</ele>
        <time>2021-05-15T09:50:59.000Z</time>
      </trkpt>
      <trkpt lat="49.84276" lon="4.84938">
        <ele>312</ele>
        <time>2021-05-15T09:51:00.000Z</time>
      </trkpt>
      <trkpt lat="49.84276" lon="4.84943">
        <ele>312</ele>
        <time>2021-05-15T09:51:01.000Z</time>
      </trkpt>
      <trkpt lat="49.84276" lon="4.84948">
        <ele>311</ele>
        <time>2021-05-15T09:51:02.000Z</time>
      </trkpt>
      <trkpt lat="49.84276" lon="4.84953">
        <ele>311</ele>
        <time>2021-05-15T09:51:03.000Z</time>
      </trkpt>
      <trkpt lat="49.84275" lon="4.84957">
        <ele>311</ele>
        <time>2021-05-15T09:51:04.000Z</time>
      </trkpt>
      <trkpt lat="49.84275" lon="4.84962">
        <ele>311</ele>
        <time>2021-05-15T09:51:05.000Z</time>
      </trkpt>
      <trkpt lat="49.84274" lon="4.84967">
        <ele>311</ele>
        <time>2021-05-15T09:51:06.000Z</time>
      </trkpt>
      <trkpt lat="49.84273" lon="4.84971">
        <ele>311</ele>
        <time>2021-05-15T09:51:07.000Z</time>
      </trkpt>
      <trkpt lat="49.84273" lon="4.84975">
        <ele>310</ele>
        <time>2021-05-15T09:51:08.000Z</time>
      </trkpt>
      <trkpt lat="49.84273" lon="4.8498">
        <ele>310</ele>
        <time>2021-05-15T09:51:09.000Z</time>
      </trkpt>
      <trkpt lat="49.84273" lon="4.84984">
        <ele>310</ele>
        <time>2021-05-15T09:51:10.000Z</time>
      </trkpt>
      <trkpt lat="49.84272" lon="4.84988">
        <ele>310</ele>
        <time>2021-05-15T09:51:11.000Z</time>
      </trkpt>
      <trkpt lat="49.84272" lon="4.84992">
        <ele>310</ele>
        <time>2021-05-15T09:51:12.000Z</time>
      </trkpt>
      <trkpt lat="49.84272" lon="4.84996">
        <ele>310</ele>
        <time>2021-05-15T09:51:13.000Z</time>
      </trkpt>
      <trkpt lat="49.84272" lon="4.85">
        <ele>310</ele>
        <time>2021-05-15T09:51:14.000Z</time>
      </trkpt>
      <trkpt lat="49.84271" lon="4.85005">
        <ele>309</ele>
        <time>2021-05-15T09:51:15.000Z</time>
      </trkpt>
      <trkpt lat="49.84271" lon="4.85009">
        <ele>309</ele>
        <time>2021-05-15T09:51:16.000Z</time>
      </trkpt>
      <trkpt lat="49.8427" lon="4.85014">
        <ele>309</ele>
        <time>2021-05-15T09:51:17.000Z</time>
      </trkpt>
      <trkpt lat="49.8427" lon="4.85018">
        <ele>309</ele>
        <time>2021-05-15T09:51:18.000Z</time>
      </trkpt>
      <trkpt lat="49.84269" lon="4.85022">
        <ele>308</ele>
        <time>2021-05-15T09:51:19.000Z</time>
      </trkpt>
      <trkpt lat="49.84269" lon="4.85027">
        <ele>308</ele>
        <time>2021-05-15T09:51:20.000Z</time>
      </trkpt>
      <trkpt lat="49.84269" lon="4.85031">
        <ele>308</ele>
        <time>2021-05-15T09:51:21.000Z</time>
      </trkpt>
      <trkpt lat="49.84269" lon="4.85035">
        <ele>308</ele>
        <time>2021-05-15T09:51:22.000Z</time>
      </trkpt>
      <trkpt lat="49.84269" lon="4.85039">
        <ele>308</ele>
        <time>2021-05-15T09:51:23.000Z</time>
      </trkpt>
      <trkpt lat="49.84269" lon="4.85043">
        <ele>308</ele>
        <time>2021-05-15T09:51:24.000Z</time>
      </trkpt>
      <trkpt lat="49.84268" lon="4.85046">
        <ele>308</ele>
        <time>2021-05-15T09:51:25.000Z</time>
      </trkpt>
      <trkpt lat="49.84268" lon="4.8505">
        <ele>308</ele>
        <time>2021-05-15T09:51:26.000Z</time>
      </trkpt>
      <trkpt lat="49.84267" lon="4.85054">
        <ele>308</ele>
        <time>2021-05-15T09:51:27.000Z</time>
      </trkpt>
      <trkpt lat="49.84267" lon="4.85058">
        <ele>308</ele>
        <time>2021-05-15T09:51:28.000Z</time>
      </trkpt>
      <trkpt lat="49.84267" lon="4.85063">
        <ele>308</ele>
        <time>2021-05-15T09:51:29.000Z</time>
      </trkpt>
      <trkpt lat="49.84266" lon="4.85067">
        <ele>307</ele>
        <time>2021-05-15T09:51:30.000Z</time>
      </trkpt>
      <trkpt lat="49.84265" lon="4.85071">
        <ele>307</ele>
        <time>2021-05-15T09:51:31.000Z</time>
      </trkpt>
      <trkpt lat="49.84265" lon="4.85075">
        <ele>307</ele>
        <time>2021-05-15T09:51:32.000Z</time>
      </trkpt>
      <trkpt lat="49.84264" lon="4.85079">
        <ele>307</ele>
        <time>2021-05-15T09:51:33.000Z</time>
      </trkpt>
      <trkpt lat="49.84263" lon="4.85083">
        <ele>307</ele>
        <time>2021-05-15T09:51:34.000Z</time>
      </trkpt>
      <trkpt lat="49.84262" lon="4.85086">
        <ele>307</ele>
        <time>2021-05-15T09:51:35.000Z</time>
      </trkpt>
      <trkpt lat="49.84259" lon="4.85088">
        <ele>307</ele>
        <time>2021-05-15T09:51:36.000Z</time>
      </trkpt>
      <trkpt lat="49.84257" lon="4.85089">
        <ele>307</ele>
        <time>2021-05-15T09:51:37.000Z</time>
      </trkpt>
      <trkpt lat="49.84255" lon="4.85089">
        <ele>307</ele>
        <time>2021-05-15T09:51:38.000Z</time>
      </trkpt>
      <trkpt lat="49.84253" lon="4.85089">
        <ele>307</ele>
        <time>2021-05-15T09:51:39.000Z</time>
      </trkpt>
      <trkpt lat="49.8425" lon="4.85089">
        <ele>307</ele>
        <time>2021-05-15T09:51:40.000Z</time>
      </trkpt>
      <trkpt lat="49.84248" lon="4.85089">
        <ele>307</ele>
        <time>2021-05-15T09:51:41.000Z</time>
      </trkpt>
      <trkpt lat="49.84245" lon="4.85088">
        <ele>307</ele>
        <time>2021-05-15T09:51:42.000Z</time>
      </trkpt>
      <trkpt lat="49.84243" lon="4.85088">
        <ele>307</ele>
        <time>2021-05-15T09:51:43.000Z</time>
      </trkpt>
      <trkpt lat="49.8424" lon="4.85087">
        <ele>308</ele>
        <time>2021-05-15T09:51:44.000Z</time>
      </trkpt>
      <trkpt lat="49.84237" lon="4.85086">
        <ele>308</ele>
        <time>2021-05-15T09:51:45.000Z</time>
      </trkpt>
      <trkpt lat="49.84235" lon="4.85084">
        <ele>308</ele>
        <time>2021-05-15T09:51:46.000Z</time>
      </trkpt>
      <trkpt lat="49.84232" lon="4.85083">
        <ele>308</ele>
        <time>2021-05-15T09:51:47.000Z</time>
      </trkpt>
      <trkpt lat="49.84229" lon="4.8508">
        <ele>308</ele>
        <time>2021-05-15T09:51:48.000Z</time>
      </trkpt>
      <trkpt lat="49.84226" lon="4.85078">
        <ele>308</ele>
        <time>2021-05-15T09:51:49.000Z</time>
      </trkpt>
      <trkpt lat="49.84222" lon="4.85075">
        <ele>308</ele>
        <time>2021-05-15T09:51:50.000Z</time>
      </trkpt>
      <trkpt lat="49.84218" lon="4.85072">
        <ele>308</ele>
        <time>2021-05-15T09:51:51.000Z</time>
      </trkpt>
      <trkpt lat="49.84214" lon="4.85069">
        <ele>308</ele>
        <time>2021-05-15T09:51:52.000Z</time>
      </trkpt>
      <trkpt lat="49.8421" lon="4.85065">
        <ele>308</ele>
        <time>2021-05-15T09:51:53.000Z</time>
      </trkpt>
      <trkpt lat="49.84206" lon="4.85062">
        <ele>308</ele>
        <time>2021-05-15T09:51:54.000Z</time>
      </trkpt>
      <trkpt lat="49.84203" lon="4.85058">
        <ele>309</ele>
        <time>2021-05-15T09:51:55.000Z</time>
      </trkpt>
      <trkpt lat="49.84199" lon="4.85054">
        <ele>309</ele>
        <time>2021-05-15T09:51:56.000Z</time>
      </trkpt>
      <trkpt lat="49.84196" lon="4.8505">
        <ele>309</ele>
        <time>2021-05-15T09:51:57.000Z</time>
      </trkpt>
      <trkpt lat="49.84193" lon="4.85045">
        <ele>309</ele>
        <time>2021-05-15T09:51:58.000Z</time>
      </trkpt>
      <trkpt lat="49.84189" lon="4.85041">
        <ele>309</ele>
        <time>2021-05-15T09:51:59.000Z</time>
      </trkpt>
      <trkpt lat="49.84185" lon="4.85037">
        <ele>309</ele>
        <time>2021-05-15T09:52:00.000Z</time>
      </trkpt>
      <trkpt lat="49.84182" lon="4.85032">
        <ele>309</ele>
        <time>2021-05-15T09:52:01.000Z</time>
      </trkpt>
      <trkpt lat="49.84179" lon="4.85027">
        <ele>309</ele>
        <time>2021-05-15T09:52:02.000Z</time>
      </trkpt>
      <trkpt lat="49.84175" lon="4.85022">
        <ele>309</ele>
        <time>2021-05-15T09:52:03.000Z</time>
      </trkpt>
      <trkpt lat="49.8417" lon="4.85016">
        <ele>309</ele>
        <time>2021-05-15T09:52:04.000Z</time>
      </trkpt>
      <trkpt lat="49.84165" lon="4.8501">
        <ele>308</ele>
        <time>2021-05-15T09:52:05.000Z</time>
      </trkpt>
      <trkpt lat="49.84161" lon="4.85004">
        <ele>308</ele>
        <time>2021-05-15T09:52:06.000Z</time>
      </trkpt>
      <trkpt lat="49.84157" lon="4.84997">
        <ele>308</ele>
        <time>2021-05-15T09:52:07.000Z</time>
      </trkpt>
      <trkpt lat="49.84153" lon="4.84991">
        <ele>308</ele>
        <time>2021-05-15T09:52:08.000Z</time>
      </trkpt>
      <trkpt lat="49.8415" lon="4.84985">
        <ele>308</ele>
        <time>2021-05-15T09:52:09.000Z</time>
      </trkpt>
      <trkpt lat="49.84147" lon="4.8498">
        <ele>307</ele>
        <time>2021-05-15T09:52:10.000Z</time>
      </trkpt>
      <trkpt lat="49.84144" lon="4.84975">
        <ele>307</ele>
        <time>2021-05-15T09:52:11.000Z</time>
      </trkpt>
      <trkpt lat="49.84141" lon="4.84969">
        <ele>307</ele>
        <time>2021-05-15T09:52:12.000Z</time>
      </trkpt>
      <trkpt lat="49.84139" lon="4.84964">
        <ele>307</ele>
        <time>2021-05-15T09:52:13.000Z</time>
      </trkpt>
      <trkpt lat="49.84137" lon="4.84958">
        <ele>307</ele>
        <time>2021-05-15T09:52:14.000Z</time>
      </trkpt>
      <trkpt lat="49.84135" lon="4.84952">
        <ele>307</ele>
        <time>2021-05-15T09:52:15.000Z</time>
      </trkpt>
      <trkpt lat="49.84134" lon="4.84945">
        <ele>307</ele>
        <time>2021-05-15T09:52:16.000Z</time>
      </trkpt>
      <trkpt lat="49.84133" lon="4.84937">
        <ele>307</ele>
        <time>2021-05-15T09:52:17.000Z</time>
      </trkpt>
      <trkpt lat="49.84132" lon="4.8493">
        <ele>307</ele>
        <time>2021-05-15T09:52:18.000Z</time>
      </trkpt>
      <trkpt lat="49.84131" lon="4.84923">
        <ele>307</ele>
        <time>2021-05-15T09:52:19.000Z</time>
      </trkpt>
      <trkpt lat="49.84131" lon="4.84916">
        <ele>307</ele>
        <time>2021-05-15T09:52:20.000Z</time>
      </trkpt>
      <trkpt lat="49.8413" lon="4.84909">
        <ele>307</ele>
        <time>2021-05-15T09:52:21.000Z</time>
      </trkpt>
      <trkpt lat="49.8413" lon="4.84902">
        <ele>307</ele>
        <time>2021-05-15T09:52:22.000Z</time>
      </trkpt>
      <trkpt lat="49.84129" lon="4.84896">
        <ele>307</ele>
        <time>2021-05-15T09:52:23.000Z</time>
      </trkpt>
      <trkpt lat="49.84129" lon="4.84891">
        <ele>307</ele>
        <time>2021-05-15T09:52:24.000Z</time>
      </trkpt>
      <trkpt lat="49.84128" lon="4.84886">
        <ele>307</ele>
        <time>2021-05-15T09:52:25.000Z</time>
      </trkpt>
      <trkpt lat="49.84128" lon="4.84881">
        <ele>307</ele>
        <time>2021-05-15T09:52:26.000Z</time>
      </trkpt>
      <trkpt lat="49.84127" lon="4.84876">
        <ele>307</ele>
        <time>2021-05-15T09:52:27.000Z</time>
      </trkpt>
      <trkpt lat="49.84127" lon="4.84872">
        <ele>307</ele>
        <time>2021-05-15T09:52:28.000Z</time>
      </trkpt>
      <trkpt lat="49.84126" lon="4.84867">
        <ele>307</ele>
        <time>2021-05-15T09:52:29.000Z</time>
      </trkpt>
      <trkpt lat="49.84125" lon="4.84862">
        <ele>307</ele>
        <time>2021-05-15T09:52:30.000Z</time>
      </trkpt>
      <trkpt lat="49.84124" lon="4.84857">
        <ele>307</ele>
        <time>2021-05-15T09:52:31.000Z</time>
      </trkpt>
      <trkpt lat="49.84123" lon="4.84852">
        <ele>308</ele>
        <time>2021-05-15T09:52:32.000Z</time>
      </trkpt>
      <trkpt lat="49.84122" lon="4.84847">
        <ele>308</ele>
        <time>2021-05-15T09:52:33.000Z</time>
      </trkpt>
      <trkpt lat="49.84121" lon="4.84842">
        <ele>308</ele>
        <time>2021-05-15T09:52:34.000Z</time>
      </trkpt>
      <trkpt lat="49.8412" lon="4.84838">
        <ele>308</ele>
        <time>2021-05-15T09:52:35.000Z</time>
      </trkpt>
      <trkpt lat="49.84118" lon="4.84833">
        <ele>308</ele>
        <time>2021-05-15T09:52:36.000Z</time>
      </trkpt>
      <trkpt lat="49.84117" lon="4.84828">
        <ele>308</ele>
        <time>2021-05-15T09:52:37.000Z</time>
      </trkpt>
      <trkpt lat="49.84116" lon="4.84823">
        <ele>308</ele>
        <time>2021-05-15T09:52:38.000Z</time>
      </trkpt>
      <trkpt lat="49.84115" lon="4.84818">
        <ele>308</ele>
        <time>2021-05-15T09:52:39.000Z</time>
      </trkpt>
      <trkpt lat="49.84114" lon="4.84814">
        <ele>308</ele>
        <time>2021-05-15T09:52:40.000Z</time>
      </trkpt>
      <trkpt lat="49.84113" lon="4.8481">
        <ele>308</ele>
        <time>2021-05-15T09:52:41.000Z</time>
      </trkpt>
      <trkpt lat="49.84113" lon="4.84806">
        <ele>309</ele>
        <time>2021-05-15T09:52:42.000Z</time>
      </trkpt>
      <trkpt lat="49.84112" lon="4.84801">
        <ele>309</ele>
        <time>2021-05-15T09:52:43.000Z</time>
      </trkpt>
      <trkpt lat="49.84111" lon="4.84796">
        <ele>309</ele>
        <time>2021-05-15T09:52:44.000Z</time>
      </trkpt>
      <trkpt lat="49.8411" lon="4.84791">
        <ele>309</ele>
        <time>2021-05-15T09:52:45.000Z</time>
      </trkpt>
      <trkpt lat="49.8411" lon="4.84786">
        <ele>309</ele>
        <time>2021-05-15T09:52:46.000Z</time>
      </trkpt>
      <trkpt lat="49.84109" lon="4.84782">
        <ele>309</ele>
        <time>2021-05-15T09:52:47.000Z</time>
      </trkpt>
      <trkpt lat="49.84108" lon="4.84778">
        <ele>309</ele>
        <time>2021-05-15T09:52:48.000Z</time>
      </trkpt>
      <trkpt lat="49.84107" lon="4.84774">
        <ele>309</ele>
        <time>2021-05-15T09:52:49.000Z</time>
      </trkpt>
      <trkpt lat="49.84106" lon="4.84769">
        <ele>309</ele>
        <time>2021-05-15T09:52:50.000Z</time>
      </trkpt>
      <trkpt lat="49.84104" lon="4.84765">
        <ele>309</ele>
        <time>2021-05-15T09:52:51.000Z</time>
      </trkpt>
      <trkpt lat="49.84103" lon="4.8476">
        <ele>309</ele>
        <time>2021-05-15T09:52:52.000Z</time>
      </trkpt>
      <trkpt lat="49.84101" lon="4.84756">
        <ele>309</ele>
        <time>2021-05-15T09:52:53.000Z</time>
      </trkpt>
      <trkpt lat="49.84099" lon="4.84752">
        <ele>310</ele>
        <time>2021-05-15T09:52:54.000Z</time>
      </trkpt>
      <trkpt lat="49.84097" lon="4.84748">
        <ele>310</ele>
        <time>2021-05-15T09:52:55.000Z</time>
      </trkpt>
      <trkpt lat="49.84096" lon="4.84745">
        <ele>310</ele>
        <time>2021-05-15T09:52:56.000Z</time>
      </trkpt>
      <trkpt lat="49.84094" lon="4.84741">
        <ele>310</ele>
        <time>2021-05-15T09:52:57.000Z</time>
      </trkpt>
      <trkpt lat="49.84092" lon="4.84737">
        <ele>310</ele>
        <time>2021-05-15T09:52:58.000Z</time>
      </trkpt>
      <trkpt lat="49.84091" lon="4.84733">
        <ele>310</ele>
        <time>2021-05-15T09:52:59.000Z</time>
      </trkpt>
      <trkpt lat="49.8409" lon="4.8473">
        <ele>310</ele>
        <time>2021-05-15T09:53:00.000Z</time>
      </trkpt>
      <trkpt lat="49.84088" lon="4.84726">
        <ele>310</ele>
        <time>2021-05-15T09:53:01.000Z</time>
      </trkpt>
      <trkpt lat="49.84086" lon="4.84721">
        <ele>311</ele>
        <time>2021-05-15T09:53:02.000Z</time>
      </trkpt>
      <trkpt lat="49.84084" lon="4.84717">
        <ele>311</ele>
        <time>2021-05-15T09:53:03.000Z</time>
      </trkpt>
      <trkpt lat="49.84082" lon="4.84713">
        <ele>311</ele>
        <time>2021-05-15T09:53:04.000Z</time>
      </trkpt>
      <trkpt lat="49.8408" lon="4.84709">
        <ele>311</ele>
        <time>2021-05-15T09:53:05.000Z</time>
      </trkpt>
      <trkpt lat="49.84077" lon="4.84705">
        <ele>311</ele>
        <time>2021-05-15T09:53:06.000Z</time>
      </trkpt>
      <trkpt lat="49.84075" lon="4.84701">
        <ele>311</ele>
        <time>2021-05-15T09:53:07.000Z</time>
      </trkpt>
      <trkpt lat="49.84073" lon="4.84697">
        <ele>312</ele>
        <time>2021-05-15T09:53:08.000Z</time>
      </trkpt>
      <trkpt lat="49.84071" lon="4.84694">
        <ele>312</ele>
        <time>2021-05-15T09:53:09.000Z</time>
      </trkpt>
      <trkpt lat="49.84069" lon="4.8469">
        <ele>312</ele>
        <time>2021-05-15T09:53:10.000Z</time>
      </trkpt>
      <trkpt lat="49.84067" lon="4.84686">
        <ele>312</ele>
        <time>2021-05-15T09:53:11.000Z</time>
      </trkpt>
      <trkpt lat="49.84065" lon="4.84683">
        <ele>312</ele>
        <time>2021-05-15T09:53:12.000Z</time>
      </trkpt>
      <trkpt lat="49.84062" lon="4.84679">
        <ele>312</ele>
        <time>2021-05-15T09:53:13.000Z</time>
      </trkpt>
      <trkpt lat="49.8406" lon="4.84675">
        <ele>313</ele>
        <time>2021-05-15T09:53:14.000Z</time>
      </trkpt>
      <trkpt lat="49.84057" lon="4.84672">
        <ele>313</ele>
        <time>2021-05-15T09:53:15.000Z</time>
      </trkpt>
      <trkpt lat="49.84055" lon="4.84668">
        <ele>313</ele>
        <time>2021-05-15T09:53:16.000Z</time>
      </trkpt>
      <trkpt lat="49.84052" lon="4.84664">
        <ele>313</ele>
        <time>2021-05-15T09:53:17.000Z</time>
      </trkpt>
      <trkpt lat="49.8405" lon="4.8466">
        <ele>313</ele>
        <time>2021-05-15T09:53:18.000Z</time>
      </trkpt>
      <trkpt lat="49.84048" lon="4.84656">
        <ele>313</ele>
        <time>2021-05-15T09:53:19.000Z</time>
      </trkpt>
      <trkpt lat="49.84045" lon="4.84653">
        <ele>314</ele>
        <time>2021-05-15T09:53:20.000Z</time>
      </trkpt>
      <trkpt lat="49.84043" lon="4.84649">
        <ele>314</ele>
        <time>2021-05-15T09:53:21.000Z</time>
      </trkpt>
      <trkpt lat="49.84041" lon="4.84645">
        <ele>314</ele>
        <time>2021-05-15T09:53:22.000Z</time>
      </trkpt>
      <trkpt lat="49.84038" lon="4.84642">
        <ele>314</ele>
        <time>2021-05-15T09:53:23.000Z</time>
      </trkpt>
      <trkpt lat="49.84036" lon="4.84639">
        <ele>314</ele>
        <time>2021-05-15T09:53:24.000Z</time>
      </trkpt>
      <trkpt lat="49.84033" lon="4.84636">
        <ele>314</ele>
        <time>2021-05-15T09:53:25.000Z</time>
      </trkpt>
      <trkpt lat="49.84031" lon="4.84633">
        <ele>314</ele>
        <time>2021-05-15T09:53:26.000Z</time>
      </trkpt>
      <trkpt lat="49.84028" lon="4.8463">
        <ele>315</ele>
        <time>2021-05-15T09:53:27.000Z</time>
      </trkpt>
      <trkpt lat="49.84026" lon="4.84627">
        <ele>315</ele>
        <time>2021-05-15T09:53:28.000Z</time>
      </trkpt>
      <trkpt lat="49.84023" lon="4.84624">
        <ele>315</ele>
        <time>2021-05-15T09:53:29.000Z</time>
      </trkpt>
      <trkpt lat="49.84021" lon="4.84622">
        <ele>315</ele>
        <time>2021-05-15T09:53:30.000Z</time>
      </trkpt>
      <trkpt lat="49.84018" lon="4.84619">
        <ele>315</ele>
        <time>2021-05-15T09:53:31.000Z</time>
      </trkpt>
      <trkpt lat="49.84015" lon="4.84616">
        <ele>315</ele>
        <time>2021-05-15T09:53:32.000Z</time>
      </trkpt>
      <trkpt lat="49.84012" lon="4.84613">
        <ele>316</ele>
        <time>2021-05-15T09:53:33.000Z</time>
      </trkpt>
      <trkpt lat="49.84009" lon="4.8461">
        <ele>316</ele>
        <time>2021-05-15T09:53:34.000Z</time>
      </trkpt>
      <trkpt lat="49.84006" lon="4.84608">
        <ele>316</ele>
        <time>2021-05-15T09:53:35.000Z</time>
      </trkpt>
      <trkpt lat="49.84003" lon="4.84606">
        <ele>316</ele>
        <time>2021-05-15T09:53:36.000Z</time>
      </trkpt>
      <trkpt lat="49.84" lon="4.84603">
        <ele>316</ele>
        <time>2021-05-15T09:53:37.000Z</time>
      </trkpt>
      <trkpt lat="49.83998" lon="4.84601">
        <ele>316</ele>
        <time>2021-05-15T09:53:38.000Z</time>
      </trkpt>
      <trkpt lat="49.83995" lon="4.84599">
        <ele>317</ele>
        <time>2021-05-15T09:53:39.000Z</time>
      </trkpt>
      <trkpt lat="49.83992" lon="4.84596">
        <ele>317</ele>
        <time>2021-05-15T09:53:40.000Z</time>
      </trkpt>
      <trkpt lat="49.83989" lon="4.84594">
        <ele>317</ele>
        <time>2021-05-15T09:53:41.000Z</time>
      </trkpt>
      <trkpt lat="49.83987" lon="4.84592">
        <ele>317</ele>
        <time>2021-05-15T09:53:42.000Z</time>
      </trkpt>
      <trkpt lat="49.83984" lon="4.84589">
        <ele>317</ele>
        <time>2021-05-15T09:53:43.000Z</time>
      </trkpt>
      <trkpt lat="49.83982" lon="4.84587">
        <ele>317</ele>
        <time>2021-05-15T09:53:44.000Z</time>
      </trkpt>
      <trkpt lat="49.83979" lon="4.84585">
        <ele>317</ele>
        <time>2021-05-15T09:53:45.000Z</time>
      </trkpt>
      <trkpt lat="49.83977" lon="4.84581">
        <ele>318</ele>
        <time>2021-05-15T09:53:46.000Z</time>
      </trkpt>
      <trkpt lat="49.83974" lon="4.84578">
        <ele>318</ele>
        <time>2021-05-15T09:53:47.000Z</time>
      </trkpt>
      <trkpt lat="49.83971" lon="4.84575">
        <ele>318</ele>
        <time>2021-05-15T09:53:48.000Z</time>
      </trkpt>
      <trkpt lat="49.83969" lon="4.84572">
        <ele>318</ele>
        <time>2021-05-15T09:53:49.000Z</time>
      </trkpt>
      <trkpt lat="49.83966" lon="4.84569">
        <ele>318</ele>
        <time>2021-05-15T09:53:50.000Z</time>
      </trkpt>
      <trkpt lat="49.83964" lon="4.84566">
        <ele>318</ele>
        <time>2021-05-15T09:53:51.000Z</time>
      </trkpt>
      <trkpt lat="49.83961" lon="4.84563">
        <ele>318</ele>
        <time>2021-05-15T09:53:52.000Z</time>
      </trkpt>
      <trkpt lat="49.83958" lon="4.84561">
        <ele>318</ele>
        <time>2021-05-15T09:53:53.000Z</time>
      </trkpt>
      <trkpt lat="49.83956" lon="4.84558">
        <ele>318</ele>
        <time>2021-05-15T09:53:54.000Z</time>
      </trkpt>
      <trkpt lat="49.83953" lon="4.84555">
        <ele>318</ele>
        <time>2021-05-15T09:53:55.000Z</time>
      </trkpt>
      <trkpt lat="49.83951" lon="4.84553">
        <ele>319</ele>
        <time>2021-05-15T09:53:56.000Z</time>
      </trkpt>
      <trkpt lat="49.83949" lon="4.84551">
        <ele>319</ele>
        <time>2021-05-15T09:53:57.000Z</time>
      </trkpt>
      <trkpt lat="49.83947" lon="4.84548">
        <ele>319</ele>
        <time>2021-05-15T09:53:58.000Z</time>
      </trkpt>
      <trkpt lat="49.83945" lon="4.84546">
        <ele>319</ele>
        <time>2021-05-15T09:53:59.000Z</time>
      </trkpt>
      <trkpt lat="49.83942" lon="4.84543">
        <ele>319</ele>
        <time>2021-05-15T09:54:00.000Z</time>
      </trkpt>
      <trkpt lat="49.8394" lon="4.84541">
        <ele>319</ele>
        <time>2021-05-15T09:54:01.000Z</time>
      </trkpt>
      <trkpt lat="49.83937" lon="4.84538">
        <ele>319</ele>
        <time>2021-05-15T09:54:02.000Z</time>
      </trkpt>
      <trkpt lat="49.83934" lon="4.84536">
        <ele>319</ele>
        <time>2021-05-15T09:54:03.000Z</time>
      </trkpt>
      <trkpt lat="49.83931" lon="4.84533">
        <ele>319</ele>
        <time>2021-05-15T09:54:04.000Z</time>
      </trkpt>
      <trkpt lat="49.83927" lon="4.84531">
        <ele>319</ele>
        <time>2021-05-15T09:54:05.000Z</time>
      </trkpt>
      <trkpt lat="49.83924" lon="4.84529">
        <ele>319</ele>
        <time>2021-05-15T09:54:06.000Z</time>
      </trkpt>
      <trkpt lat="49.83921" lon="4.84526">
        <ele>319</ele>
        <time>2021-05-15T09:54:07.000Z</time>
      </trkpt>
      <trkpt lat="49.83919" lon="4.84524">
        <ele>319</ele>
        <time>2021-05-15T09:54:08.000Z</time>
      </trkpt>
      <trkpt lat="49.83916" lon="4.84522">
        <ele>319</ele>
        <time>2021-05-15T09:54:09.000Z</time>
      </trkpt>
      <trkpt lat="49.83913" lon="4.84519">
        <ele>320</ele>
        <time>2021-05-15T09:54:10.000Z</time>
      </trkpt>
      <trkpt lat="49.83911" lon="4.84517">
        <ele>320</ele>
        <time>2021-05-15T09:54:11.000Z</time>
      </trkpt>
      <trkpt lat="49.83908" lon="4.84514">
        <ele>320</ele>
        <time>2021-05-15T09:54:12.000Z</time>
      </trkpt>
      <trkpt lat="49.83905" lon="4.84511">
        <ele>320</ele>
        <time>2021-05-15T09:54:13.000Z</time>
      </trkpt>
      <trkpt lat="49.83902" lon="4.84509">
        <ele>320</ele>
        <time>2021-05-15T09:54:14.000Z</time>
      </trkpt>
      <trkpt lat="49.83898" lon="4.84506">
        <ele>320</ele>
        <time>2021-05-15T09:54:15.000Z</time>
      </trkpt>
      <trkpt lat="49.83895" lon="4.84504">
        <ele>320</ele>
        <time>2021-05-15T09:54:16.000Z</time>
      </trkpt>
      <trkpt lat="49.83892" lon="4.84501">
        <ele>320</ele>
        <time>2021-05-15T09:54:17.000Z</time>
      </trkpt>
      <trkpt lat="49.83889" lon="4.84499">
        <ele>320</ele>
        <time>2021-05-15T09:54:18.000Z</time>
      </trkpt>
      <trkpt lat="49.83886" lon="4.84496">
        <ele>321</ele>
        <time>2021-05-15T09:54:19.000Z</time>
      </trkpt>
      <trkpt lat="49.83884" lon="4.84493">
        <ele>321</ele>
        <time>2021-05-15T09:54:20.000Z</time>
      </trkpt>
      <trkpt lat="49.83881" lon="4.84491">
        <ele>321</ele>
        <time>2021-05-15T09:54:21.000Z</time>
      </trkpt>
      <trkpt lat="49.83878" lon="4.8449">
        <ele>321</ele>
        <time>2021-05-15T09:54:22.000Z</time>
      </trkpt>
      <trkpt lat="49.83875" lon="4.84488">
        <ele>321</ele>
        <time>2021-05-15T09:54:23.000Z</time>
      </trkpt>
      <trkpt lat="49.83871" lon="4.84486">
        <ele>321</ele>
        <time>2021-05-15T09:54:24.000Z</time>
      </trkpt>
      <trkpt lat="49.83868" lon="4.84485">
        <ele>322</ele>
        <time>2021-05-15T09:54:25.000Z</time>
      </trkpt>
      <trkpt lat="49.83865" lon="4.84482">
        <ele>322</ele>
        <time>2021-05-15T09:54:26.000Z</time>
      </trkpt>
      <trkpt lat="49.83863" lon="4.8448">
        <ele>322</ele>
        <time>2021-05-15T09:54:27.000Z</time>
      </trkpt>
      <trkpt lat="49.83861" lon="4.84479">
        <ele>322</ele>
        <time>2021-05-15T09:54:28.000Z</time>
      </trkpt>
      <trkpt lat="49.83858" lon="4.84477">
        <ele>323</ele>
        <time>2021-05-15T09:54:29.000Z</time>
      </trkpt>
      <trkpt lat="49.83855" lon="4.84474">
        <ele>323</ele>
        <time>2021-05-15T09:54:30.000Z</time>
      </trkpt>
      <trkpt lat="49.83852" lon="4.84473">
        <ele>323</ele>
        <time>2021-05-15T09:54:31.000Z</time>
      </trkpt>
      <trkpt lat="49.83849" lon="4.84471">
        <ele>323</ele>
        <time>2021-05-15T09:54:32.000Z</time>
      </trkpt>
      <trkpt lat="49.83846" lon="4.84469">
        <ele>324</ele>
        <time>2021-05-15T09:54:33.000Z</time>
      </trkpt>
      <trkpt lat="49.83844" lon="4.84467">
        <ele>324</ele>
        <time>2021-05-15T09:54:34.000Z</time>
      </trkpt>
      <trkpt lat="49.83841" lon="4.84465">
        <ele>324</ele>
        <time>2021-05-15T09:54:35.000Z</time>
      </trkpt>
      <trkpt lat="49.83838" lon="4.84463">
        <ele>325</ele>
        <time>2021-05-15T09:54:36.000Z</time>
      </trkpt>
      <trkpt lat="49.83835" lon="4.84461">
        <ele>325</ele>
        <time>2021-05-15T09:54:37.000Z</time>
      </trkpt>
      <trkpt lat="49.83832" lon="4.8446">
        <ele>325</ele>
        <time>2021-05-15T09:54:38.000Z</time>
      </trkpt>
      <trkpt lat="49.83829" lon="4.84458">
        <ele>325</ele>
        <time>2021-05-15T09:54:39.000Z</time>
      </trkpt>
      <trkpt lat="49.83825" lon="4.84456">
        <ele>326</ele>
        <time>2021-05-15T09:54:40.000Z</time>
      </trkpt>
      <trkpt lat="49.83822" lon="4.84454">
        <ele>326</ele>
        <time>2021-05-15T09:54:41.000Z</time>
      </trkpt>
      <trkpt lat="49.8382" lon="4.84452">
        <ele>326</ele>
        <time>2021-05-15T09:54:42.000Z</time>
      </trkpt>
      <trkpt lat="49.83816" lon="4.8445">
        <ele>326</ele>
        <time>2021-05-15T09:54:43.000Z</time>
      </trkpt>
      <trkpt lat="49.83813" lon="4.84448">
        <ele>327</ele>
        <time>2021-05-15T09:54:44.000Z</time>
      </trkpt>
      <trkpt lat="49.8381" lon="4.84447">
        <ele>327</ele>
        <time>2021-05-15T09:54:45.000Z</time>
      </trkpt>
      <trkpt lat="49.83807" lon="4.84446">
        <ele>327</ele>
        <time>2021-05-15T09:54:46.000Z</time>
      </trkpt>
      <trkpt lat="49.83804" lon="4.84445">
        <ele>327</ele>
        <time>2021-05-15T09:54:47.000Z</time>
      </trkpt>
      <trkpt lat="49.83801" lon="4.84444">
        <ele>327</ele>
        <time>2021-05-15T09:54:48.000Z</time>
      </trkpt>
      <trkpt lat="49.83798" lon="4.84442">
        <ele>328</ele>
        <time>2021-05-15T09:54:49.000Z</time>
      </trkpt>
      <trkpt lat="49.83795" lon="4.84441">
        <ele>328</ele>
        <time>2021-05-15T09:54:50.000Z</time>
      </trkpt>
      <trkpt lat="49.83792" lon="4.8444">
        <ele>328</ele>
        <time>2021-05-15T09:54:51.000Z</time>
      </trkpt>
      <trkpt lat="49.83788" lon="4.84438">
        <ele>328</ele>
        <time>2021-05-15T09:54:52.000Z</time>
      </trkpt>
      <trkpt lat="49.83785" lon="4.84437">
        <ele>328</ele>
        <time>2021-05-15T09:54:53.000Z</time>
      </trkpt>
      <trkpt lat="49.83782" lon="4.84435">
        <ele>329</ele>
        <time>2021-05-15T09:54:54.000Z</time>
      </trkpt>
      <trkpt lat="49.83779" lon="4.84433">
        <ele>329</ele>
        <time>2021-05-15T09:54:55.000Z</time>
      </trkpt>
      <trkpt lat="49.83776" lon="4.84431">
        <ele>329</ele>
        <time>2021-05-15T09:54:56.000Z</time>
      </trkpt>
      <trkpt lat="49.83773" lon="4.8443">
        <ele>329</ele>
        <time>2021-05-15T09:54:57.000Z</time>
      </trkpt>
      <trkpt lat="49.8377" lon="4.84428">
        <ele>329</ele>
        <time>2021-05-15T09:54:58.000Z</time>
      </trkpt>
      <trkpt lat="49.83768" lon="4.84427">
        <ele>330</ele>
        <time>2021-05-15T09:54:59.000Z</time>
      </trkpt>
      <trkpt lat="49.83765" lon="4.84425">
        <ele>330</ele>
        <time>2021-05-15T09:55:00.000Z</time>
      </trkpt>
      <trkpt lat="49.83763" lon="4.84424">
        <ele>330</ele>
        <time>2021-05-15T09:55:01.000Z</time>
      </trkpt>
      <trkpt lat="49.8376" lon="4.84422">
        <ele>330</ele>
        <time>2021-05-15T09:55:02.000Z</time>
      </trkpt>
      <trkpt lat="49.83759" lon="4.8442">
        <ele>331</ele>
        <time>2021-05-15T09:55:03.000Z</time>
      </trkpt>
      <trkpt lat="49.83757" lon="4.84418">
        <ele>331</ele>
        <time>2021-05-15T09:55:04.000Z</time>
      </trkpt>
      <trkpt lat="49.83754" lon="4.84416">
        <ele>331</ele>
        <time>2021-05-15T09:55:05.000Z</time>
      </trkpt>
      <trkpt lat="49.83752" lon="4.84414">
        <ele>331</ele>
        <time>2021-05-15T09:55:06.000Z</time>
      </trkpt>
      <trkpt lat="49.8375" lon="4.84412">
        <ele>331</ele>
        <time>2021-05-15T09:55:07.000Z</time>
      </trkpt>
      <trkpt lat="49.83747" lon="4.84409">
        <ele>332</ele>
        <time>2021-05-15T09:55:08.000Z</time>
      </trkpt>
      <trkpt lat="49.83744" lon="4.84407">
        <ele>332</ele>
        <time>2021-05-15T09:55:09.000Z</time>
      </trkpt>
      <trkpt lat="49.83742" lon="4.84404">
        <ele>332</ele>
        <time>2021-05-15T09:55:10.000Z</time>
      </trkpt>
      <trkpt lat="49.8374" lon="4.84401">
        <ele>332</ele>
        <time>2021-05-15T09:55:11.000Z</time>
      </trkpt>
      <trkpt lat="49.83738" lon="4.84399">
        <ele>333</ele>
        <time>2021-05-15T09:55:12.000Z</time>
      </trkpt>
      <trkpt lat="49.83736" lon="4.84396">
        <ele>333</ele>
        <time>2021-05-15T09:55:13.000Z</time>
      </trkpt>
      <trkpt lat="49.83734" lon="4.84394">
        <ele>333</ele>
        <time>2021-05-15T09:55:14.000Z</time>
      </trkpt>
      <trkpt lat="49.83732" lon="4.84391">
        <ele>333</ele>
        <time>2021-05-15T09:55:15.000Z</time>
      </trkpt>
      <trkpt lat="49.83731" lon="4.84388">
        <ele>334</ele>
        <time>2021-05-15T09:55:16.000Z</time>
      </trkpt>
      <trkpt lat="49.83728" lon="4.84386">
        <ele>334</ele>
        <time>2021-05-15T09:55:17.000Z</time>
      </trkpt>
      <trkpt lat="49.83725" lon="4.84383">
        <ele>334</ele>
        <time>2021-05-15T09:55:18.000Z</time>
      </trkpt>
      <trkpt lat="49.83723" lon="4.84379">
        <ele>334</ele>
        <time>2021-05-15T09:55:19.000Z</time>
      </trkpt>
      <trkpt lat="49.83721" lon="4.84376">
        <ele>335</ele>
        <time>2021-05-15T09:55:20.000Z</time>
      </trkpt>
      <trkpt lat="49.83719" lon="4.84373">
        <ele>335</ele>
        <time>2021-05-15T09:55:21.000Z</time>
      </trkpt>
      <trkpt lat="49.83716" lon="4.8437">
        <ele>335</ele>
        <time>2021-05-15T09:55:22.000Z</time>
      </trkpt>
      <trkpt lat="49.83713" lon="4.84367">
        <ele>335</ele>
        <time>2021-05-15T09:55:23.000Z</time>
      </trkpt>
      <trkpt lat="49.8371" lon="4.84364">
        <ele>335</ele>
        <time>2021-05-15T09:55:24.000Z</time>
      </trkpt>
      <trkpt lat="49.83707" lon="4.84362">
        <ele>336</ele>
        <time>2021-05-15T09:55:25.000Z</time>
      </trkpt>
      <trkpt lat="49.83704" lon="4.8436">
        <ele>336</ele>
        <time>2021-05-15T09:55:26.000Z</time>
      </trkpt>
      <trkpt lat="49.83702" lon="4.84358">
        <ele>336</ele>
        <time>2021-05-15T09:55:27.000Z</time>
      </trkpt>
      <trkpt lat="49.837" lon="4.84356">
        <ele>336</ele>
        <time>2021-05-15T09:55:28.000Z</time>
      </trkpt>
      <trkpt lat="49.83698" lon="4.84355">
        <ele>336</ele>
        <time>2021-05-15T09:55:29.000Z</time>
      </trkpt>
      <trkpt lat="49.83696" lon="4.84353">
        <ele>337</ele>
        <time>2021-05-15T09:55:30.000Z</time>
      </trkpt>
      <trkpt lat="49.83693" lon="4.84352">
        <ele>337</ele>
        <time>2021-05-15T09:55:31.000Z</time>
      </trkpt>
      <trkpt lat="49.8369" lon="4.84351">
        <ele>337</ele>
        <time>2021-05-15T09:55:32.000Z</time>
      </trkpt>
      <trkpt lat="49.83687" lon="4.84351">
        <ele>338</ele>
        <time>2021-05-15T09:55:33.000Z</time>
      </trkpt>
      <trkpt lat="49.83684" lon="4.84351">
        <ele>338</ele>
        <time>2021-05-15T09:55:34.000Z</time>
      </trkpt>
      <trkpt lat="49.83681" lon="4.8435">
        <ele>339</ele>
        <time>2021-05-15T09:55:35.000Z</time>
      </trkpt>
      <trkpt lat="49.83678" lon="4.8435">
        <ele>339</ele>
        <time>2021-05-15T09:55:36.000Z</time>
      </trkpt>
      <trkpt lat="49.83675" lon="4.8435">
        <ele>340</ele>
        <time>2021-05-15T09:55:37.000Z</time>
      </trkpt>
      <trkpt lat="49.83673" lon="4.8435">
        <ele>340</ele>
        <time>2021-05-15T09:55:38.000Z</time>
      </trkpt>
      <trkpt lat="49.8367" lon="4.8435">
        <ele>340</ele>
        <time>2021-05-15T09:55:39.000Z</time>
      </trkpt>
      <trkpt lat="49.83668" lon="4.8435">
        <ele>341</ele>
        <time>2021-05-15T09:55:40.000Z</time>
      </trkpt>
      <trkpt lat="49.83665" lon="4.84349">
        <ele>341</ele>
        <time>2021-05-15T09:55:41.000Z</time>
      </trkpt>
      <trkpt lat="49.83663" lon="4.84349">
        <ele>341</ele>
        <time>2021-05-15T09:55:42.000Z</time>
      </trkpt>
      <trkpt lat="49.8366" lon="4.84348">
        <ele>341</ele>
        <time>2021-05-15T09:55:43.000Z</time>
      </trkpt>
      <trkpt lat="49.83657" lon="4.84347">
        <ele>342</ele>
        <time>2021-05-15T09:55:44.000Z</time>
      </trkpt>
      <trkpt lat="49.83655" lon="4.84346">
        <ele>342</ele>
        <time>2021-05-15T09:55:45.000Z</time>
      </trkpt>
      <trkpt lat="49.83652" lon="4.84346">
        <ele>342</ele>
        <time>2021-05-15T09:55:46.000Z</time>
      </trkpt>
      <trkpt lat="49.8365" lon="4.84345">
        <ele>342</ele>
        <time>2021-05-15T09:55:47.000Z</time>
      </trkpt>
      <trkpt lat="49.83647" lon="4.84344">
        <ele>343</ele>
        <time>2021-05-15T09:55:48.000Z</time>
      </trkpt>
      <trkpt lat="49.83644" lon="4.84345">
        <ele>343</ele>
        <time>2021-05-15T09:55:49.000Z</time>
      </trkpt>
      <trkpt lat="49.83642" lon="4.84345">
        <ele>343</ele>
        <time>2021-05-15T09:55:50.000Z</time>
      </trkpt>
      <trkpt lat="49.83639" lon="4.84346">
        <ele>344</ele>
        <time>2021-05-15T09:55:51.000Z</time>
      </trkpt>
      <trkpt lat="49.83636" lon="4.84347">
        <ele>344</ele>
        <time>2021-05-15T09:55:52.000Z</time>
      </trkpt>
      <trkpt lat="49.83634" lon="4.84349">
        <ele>344</ele>
        <time>2021-05-15T09:55:53.000Z</time>
      </trkpt>
      <trkpt lat="49.83632" lon="4.8435">
        <ele>345</ele>
        <time>2021-05-15T09:55:54.000Z</time>
      </trkpt>
      <trkpt lat="49.83629" lon="4.84352">
        <ele>345</ele>
        <time>2021-05-15T09:55:55.000Z</time>
      </trkpt>
      <trkpt lat="49.83627" lon="4.84355">
        <ele>345</ele>
        <time>2021-05-15T09:55:56.000Z</time>
      </trkpt>
      <trkpt lat="49.83625" lon="4.84358">
        <ele>345</ele>
        <time>2021-05-15T09:55:57.000Z</time>
      </trkpt>
      <trkpt lat="49.83623" lon="4.84361">
        <ele>346</ele>
        <time>2021-05-15T09:55:58.000Z</time>
      </trkpt>
      <trkpt lat="49.83621" lon="4.84363">
        <ele>346</ele>
        <time>2021-05-15T09:55:59.000Z</time>
      </trkpt>
      <trkpt lat="49.83619" lon="4.84366">
        <ele>346</ele>
        <time>2021-05-15T09:56:00.000Z</time>
      </trkpt>
      <trkpt lat="49.83617" lon="4.8437">
        <ele>346</ele>
        <time>2021-05-15T09:56:01.000Z</time>
      </trkpt>
      <trkpt lat="49.83615" lon="4.84375">
        <ele>347</ele>
        <time>2021-05-15T09:56:02.000Z</time>
      </trkpt>
      <trkpt lat="49.83612" lon="4.84379">
        <ele>347</ele>
        <time>2021-05-15T09:56:03.000Z</time>
      </trkpt>
      <trkpt lat="49.83609" lon="4.84383">
        <ele>347</ele>
        <time>2021-05-15T09:56:04.000Z</time>
      </trkpt>
      <trkpt lat="49.83607" lon="4.84387">
        <ele>348</ele>
        <time>2021-05-15T09:56:05.000Z</time>
      </trkpt>
      <trkpt lat="49.83605" lon="4.84391">
        <ele>348</ele>
        <time>2021-05-15T09:56:06.000Z</time>
      </trkpt>
      <trkpt lat="49.83604" lon="4.84394">
        <ele>348</ele>
        <time>2021-05-15T09:56:07.000Z</time>
      </trkpt>
      <trkpt lat="49.83601" lon="4.84398">
        <ele>348</ele>
        <time>2021-05-15T09:56:08.000Z</time>
      </trkpt>
      <trkpt lat="49.83599" lon="4.844">
        <ele>348</ele>
        <time>2021-05-15T09:56:09.000Z</time>
      </trkpt>
      <trkpt lat="49.83597" lon="4.84402">
        <ele>348</ele>
        <time>2021-05-15T09:56:10.000Z</time>
      </trkpt>
      <trkpt lat="49.83595" lon="4.84406">
        <ele>348</ele>
        <time>2021-05-15T09:56:11.000Z</time>
      </trkpt>
      <trkpt lat="49.83592" lon="4.8441">
        <ele>349</ele>
        <time>2021-05-15T09:56:12.000Z</time>
      </trkpt>
      <trkpt lat="49.8359" lon="4.84415">
        <ele>349</ele>
        <time>2021-05-15T09:56:13.000Z</time>
      </trkpt>
      <trkpt lat="49.83589" lon="4.8442">
        <ele>349</ele>
        <time>2021-05-15T09:56:14.000Z</time>
      </trkpt>
      <trkpt lat="49.83587" lon="4.84425">
        <ele>349</ele>
        <time>2021-05-15T09:56:15.000Z</time>
      </trkpt>
      <trkpt lat="49.83586" lon="4.8443">
        <ele>349</ele>
        <time>2021-05-15T09:56:16.000Z</time>
      </trkpt>
      <trkpt lat="49.83584" lon="4.84435">
        <ele>349</ele>
        <time>2021-05-15T09:56:17.000Z</time>
      </trkpt>
      <trkpt lat="49.83583" lon="4.84441">
        <ele>349</ele>
        <time>2021-05-15T09:56:18.000Z</time>
      </trkpt>
      <trkpt lat="49.83582" lon="4.84447">
        <ele>348</ele>
        <time>2021-05-15T09:56:19.000Z</time>
      </trkpt>
      <trkpt lat="49.8358" lon="4.84453">
        <ele>348</ele>
        <time>2021-05-15T09:56:20.000Z</time>
      </trkpt>
      <trkpt lat="49.83579" lon="4.84458">
        <ele>348</ele>
        <time>2021-05-15T09:56:21.000Z</time>
      </trkpt>
      <trkpt lat="49.83577" lon="4.84463">
        <ele>348</ele>
        <time>2021-05-15T09:56:22.000Z</time>
      </trkpt>
      <trkpt lat="49.83576" lon="4.84467">
        <ele>348</ele>
        <time>2021-05-15T09:56:23.000Z</time>
      </trkpt>
      <trkpt lat="49.83575" lon="4.84472">
        <ele>348</ele>
        <time>2021-05-15T09:56:24.000Z</time>
      </trkpt>
      <trkpt lat="49.83573" lon="4.84477">
        <ele>347</ele>
        <time>2021-05-15T09:56:25.000Z</time>
      </trkpt>
      <trkpt lat="49.83572" lon="4.84483">
        <ele>347</ele>
        <time>2021-05-15T09:56:26.000Z</time>
      </trkpt>
      <trkpt lat="49.83571" lon="4.8449">
        <ele>347</ele>
        <time>2021-05-15T09:56:27.000Z</time>
      </trkpt>
      <trkpt lat="49.8357" lon="4.84497">
        <ele>347</ele>
        <time>2021-05-15T09:56:28.000Z</time>
      </trkpt>
      <trkpt lat="49.83569" lon="4.84504">
        <ele>346</ele>
        <time>2021-05-15T09:56:29.000Z</time>
      </trkpt>
      <trkpt lat="49.83568" lon="4.84512">
        <ele>346</ele>
        <time>2021-05-15T09:56:30.000Z</time>
      </trkpt>
      <trkpt lat="49.83566" lon="4.84519">
        <ele>346</ele>
        <time>2021-05-15T09:56:31.000Z</time>
      </trkpt>
      <trkpt lat="49.83564" lon="4.84526">
        <ele>346</ele>
        <time>2021-05-15T09:56:32.000Z</time>
      </trkpt>
      <trkpt lat="49.83562" lon="4.84533">
        <ele>346</ele>
        <time>2021-05-15T09:56:33.000Z</time>
      </trkpt>
      <trkpt lat="49.83561" lon="4.84541">
        <ele>345</ele>
        <time>2021-05-15T09:56:34.000Z</time>
      </trkpt>
      <trkpt lat="49.83559" lon="4.84549">
        <ele>345</ele>
        <time>2021-05-15T09:56:35.000Z</time>
      </trkpt>
      <trkpt lat="49.83557" lon="4.84556">
        <ele>345</ele>
        <time>2021-05-15T09:56:36.000Z</time>
      </trkpt>
      <trkpt lat="49.83555" lon="4.84564">
        <ele>345</ele>
        <time>2021-05-15T09:56:37.000Z</time>
      </trkpt>
      <trkpt lat="49.83554" lon="4.84571">
        <ele>345</ele>
        <time>2021-05-15T09:56:38.000Z</time>
      </trkpt>
      <trkpt lat="49.83552" lon="4.84579">
        <ele>344</ele>
        <time>2021-05-15T09:56:39.000Z</time>
      </trkpt>
      <trkpt lat="49.83551" lon="4.84587">
        <ele>344</ele>
        <time>2021-05-15T09:56:40.000Z</time>
      </trkpt>
      <trkpt lat="49.83549" lon="4.84595">
        <ele>344</ele>
        <time>2021-05-15T09:56:41.000Z</time>
      </trkpt>
      <trkpt lat="49.83547" lon="4.84603">
        <ele>344</ele>
        <time>2021-05-15T09:56:42.000Z</time>
      </trkpt>
      <trkpt lat="49.83546" lon="4.84611">
        <ele>344</ele>
        <time>2021-05-15T09:56:43.000Z</time>
      </trkpt>
      <trkpt lat="49.83544" lon="4.84619">
        <ele>344</ele>
        <time>2021-05-15T09:56:44.000Z</time>
      </trkpt>
      <trkpt lat="49.83543" lon="4.84628">
        <ele>343</ele>
        <time>2021-05-15T09:56:45.000Z</time>
      </trkpt>
      <trkpt lat="49.83541" lon="4.84636">
        <ele>343</ele>
        <time>2021-05-15T09:56:46.000Z</time>
      </trkpt>
      <trkpt lat="49.8354" lon="4.84644">
        <ele>343</ele>
        <time>2021-05-15T09:56:47.000Z</time>
      </trkpt>
      <trkpt lat="49.83538" lon="4.84652">
        <ele>343</ele>
        <time>2021-05-15T09:56:48.000Z</time>
      </trkpt>
      <trkpt lat="49.83536" lon="4.84661">
        <ele>343</ele>
        <time>2021-05-15T09:56:49.000Z</time>
      </trkpt>
      <trkpt lat="49.83535" lon="4.84669">
        <ele>343</ele>
        <time>2021-05-15T09:56:50.000Z</time>
      </trkpt>
      <trkpt lat="49.83533" lon="4.84678">
        <ele>343</ele>
        <time>2021-05-15T09:56:51.000Z</time>
      </trkpt>
      <trkpt lat="49.83532" lon="4.84686">
        <ele>343</ele>
        <time>2021-05-15T09:56:52.000Z</time>
      </trkpt>
      <trkpt lat="49.8353" lon="4.84695">
        <ele>343</ele>
        <time>2021-05-15T09:56:53.000Z</time>
      </trkpt>
      <trkpt lat="49.83528" lon="4.84703">
        <ele>343</ele>
        <time>2021-05-15T09:56:54.000Z</time>
      </trkpt>
      <trkpt lat="49.83527" lon="4.84712">
        <ele>343</ele>
        <time>2021-05-15T09:56:55.000Z</time>
      </trkpt>
      <trkpt lat="49.83526" lon="4.8472">
        <ele>343</ele>
        <time>2021-05-15T09:56:56.000Z</time>
      </trkpt>
      <trkpt lat="49.83524" lon="4.84729">
        <ele>343</ele>
        <time>2021-05-15T09:56:57.000Z</time>
      </trkpt>
      <trkpt lat="49.83523" lon="4.84737">
        <ele>343</ele>
        <time>2021-05-15T09:56:58.000Z</time>
      </trkpt>
      <trkpt lat="49.83522" lon="4.84746">
        <ele>343</ele>
        <time>2021-05-15T09:56:59.000Z</time>
      </trkpt>
      <trkpt lat="49.8352" lon="4.84754">
        <ele>343</ele>
        <time>2021-05-15T09:57:00.000Z</time>
      </trkpt>
      <trkpt lat="49.83519" lon="4.84762">
        <ele>343</ele>
        <time>2021-05-15T09:57:01.000Z</time>
      </trkpt>
      <trkpt lat="49.83518" lon="4.84771">
        <ele>343</ele>
        <time>2021-05-15T09:57:02.000Z</time>
      </trkpt>
      <trkpt lat="49.83516" lon="4.84779">
        <ele>343</ele>
        <time>2021-05-15T09:57:03.000Z</time>
      </trkpt>
      <trkpt lat="49.83515" lon="4.84787">
        <ele>343</ele>
        <time>2021-05-15T09:57:04.000Z</time>
      </trkpt>
      <trkpt lat="49.83514" lon="4.84796">
        <ele>343</ele>
        <time>2021-05-15T09:57:05.000Z</time>
      </trkpt>
      <trkpt lat="49.83513" lon="4.84804">
        <ele>343</ele>
        <time>2021-05-15T09:57:06.000Z</time>
      </trkpt>
      <trkpt lat="49.83511" lon="4.84812">
        <ele>343</ele>
        <time>2021-05-15T09:57:07.000Z</time>
      </trkpt>
      <trkpt lat="49.8351" lon="4.8482">
        <ele>343</ele>
        <time>2021-05-15T09:57:08.000Z</time>
      </trkpt>
      <trkpt lat="49.83509" lon="4.84828">
        <ele>344</ele>
        <time>2021-05-15T09:57:09.000Z</time>
      </trkpt>
      <trkpt lat="49.83508" lon="4.84836">
        <ele>344</ele>
        <time>2021-05-15T09:57:10.000Z</time>
      </trkpt>
      <trkpt lat="49.83507" lon="4.84843">
        <ele>344</ele>
        <time>2021-05-15T09:57:11.000Z</time>
      </trkpt>
      <trkpt lat="49.83506" lon="4.84851">
        <ele>344</ele>
        <time>2021-05-15T09:57:12.000Z</time>
      </trkpt>
      <trkpt lat="49.83504" lon="4.84858">
        <ele>344</ele>
        <time>2021-05-15T09:57:13.000Z</time>
      </trkpt>
      <trkpt lat="49.83502" lon="4.84865">
        <ele>344</ele>
        <time>2021-05-15T09:57:14.000Z</time>
      </trkpt>
      <trkpt lat="49.835" lon="4.84872">
        <ele>344</ele>
        <time>2021-05-15T09:57:15.000Z</time>
      </trkpt>
      <trkpt lat="49.83498" lon="4.84878">
        <ele>344</ele>
        <time>2021-05-15T09:57:16.000Z</time>
      </trkpt>
      <trkpt lat="49.83496" lon="4.84883">
        <ele>344</ele>
        <time>2021-05-15T09:57:17.000Z</time>
      </trkpt>
      <trkpt lat="49.83493" lon="4.84889">
        <ele>344</ele>
        <time>2021-05-15T09:57:18.000Z</time>
      </trkpt>
      <trkpt lat="49.8349" lon="4.84893">
        <ele>344</ele>
        <time>2021-05-15T09:57:19.000Z</time>
      </trkpt>
      <trkpt lat="49.83487" lon="4.84898">
        <ele>344</ele>
        <time>2021-05-15T09:57:20.000Z</time>
      </trkpt>
      <trkpt lat="49.83484" lon="4.84902">
        <ele>344</ele>
        <time>2021-05-15T09:57:21.000Z</time>
      </trkpt>
      <trkpt lat="49.83482" lon="4.84906">
        <ele>344</ele>
        <time>2021-05-15T09:57:22.000Z</time>
      </trkpt>
      <trkpt lat="49.83479" lon="4.8491">
        <ele>344</ele>
        <time>2021-05-15T09:57:23.000Z</time>
      </trkpt>
      <trkpt lat="49.83476" lon="4.84913">
        <ele>345</ele>
        <time>2021-05-15T09:57:24.000Z</time>
      </trkpt>
      <trkpt lat="49.83473" lon="4.84917">
        <ele>345</ele>
        <time>2021-05-15T09:57:25.000Z</time>
      </trkpt>
      <trkpt lat="49.8347" lon="4.8492">
        <ele>345</ele>
        <time>2021-05-15T09:57:26.000Z</time>
      </trkpt>
      <trkpt lat="49.83467" lon="4.84923">
        <ele>345</ele>
        <time>2021-05-15T09:57:27.000Z</time>
      </trkpt>
      <trkpt lat="49.83464" lon="4.84926">
        <ele>345</ele>
        <time>2021-05-15T09:57:28.000Z</time>
      </trkpt>
      <trkpt lat="49.83461" lon="4.84929">
        <ele>345</ele>
        <time>2021-05-15T09:57:29.000Z</time>
      </trkpt>
      <trkpt lat="49.83457" lon="4.84933">
        <ele>345</ele>
        <time>2021-05-15T09:57:30.000Z</time>
      </trkpt>
      <trkpt lat="49.83454" lon="4.84936">
        <ele>345</ele>
        <time>2021-05-15T09:57:31.000Z</time>
      </trkpt>
      <trkpt lat="49.8345" lon="4.84939">
        <ele>345</ele>
        <time>2021-05-15T09:57:32.000Z</time>
      </trkpt>
      <trkpt lat="49.83447" lon="4.84943">
        <ele>346</ele>
        <time>2021-05-15T09:57:33.000Z</time>
      </trkpt>
      <trkpt lat="49.83444" lon="4.84947">
        <ele>346</ele>
        <time>2021-05-15T09:57:34.000Z</time>
      </trkpt>
      <trkpt lat="49.8344" lon="4.8495">
        <ele>346</ele>
        <time>2021-05-15T09:57:35.000Z</time>
      </trkpt>
      <trkpt lat="49.83436" lon="4.84954">
        <ele>346</ele>
        <time>2021-05-15T09:57:36.000Z</time>
      </trkpt>
      <trkpt lat="49.83433" lon="4.84957">
        <ele>346</ele>
        <time>2021-05-15T09:57:37.000Z</time>
      </trkpt>
      <trkpt lat="49.83429" lon="4.8496">
        <ele>346</ele>
        <time>2021-05-15T09:57:38.000Z</time>
      </trkpt>
      <trkpt lat="49.83426" lon="4.84963">
        <ele>346</ele>
        <time>2021-05-15T09:57:39.000Z</time>
      </trkpt>
      <trkpt lat="49.83422" lon="4.84967">
        <ele>346</ele>
        <time>2021-05-15T09:57:40.000Z</time>
      </trkpt>
      <trkpt lat="49.83419" lon="4.8497">
        <ele>346</ele>
        <time>2021-05-15T09:57:41.000Z</time>
      </trkpt>
      <trkpt lat="49.83416" lon="4.84973">
        <ele>347</ele>
        <time>2021-05-15T09:57:42.000Z</time>
      </trkpt>
      <trkpt lat="49.83413" lon="4.84976">
        <ele>347</ele>
        <time>2021-05-15T09:57:43.000Z</time>
      </trkpt>
      <trkpt lat="49.8341" lon="4.84979">
        <ele>347</ele>
        <time>2021-05-15T09:57:44.000Z</time>
      </trkpt>
      <trkpt lat="49.83406" lon="4.84982">
        <ele>347</ele>
        <time>2021-05-15T09:57:45.000Z</time>
      </trkpt>
      <trkpt lat="49.83403" lon="4.84985">
        <ele>347</ele>
        <time>2021-05-15T09:57:46.000Z</time>
      </trkpt>
      <trkpt lat="49.834" lon="4.84988">
        <ele>347</ele>
        <time>2021-05-15T09:57:47.000Z</time>
      </trkpt>
      <trkpt lat="49.83398" lon="4.8499">
        <ele>347</ele>
        <time>2021-05-15T09:57:48.000Z</time>
      </trkpt>
      <trkpt lat="49.83395" lon="4.84993">
        <ele>347</ele>
        <time>2021-05-15T09:57:49.000Z</time>
      </trkpt>
      <trkpt lat="49.83395" lon="4.84993">
        <ele>348</ele>
        <time>2021-05-15T09:57:50.000Z</time>
      </trkpt>
      <trkpt lat="49.83395" lon="4.84994">
        <ele>348</ele>
        <time>2021-05-15T09:57:51.000Z</time>
      </trkpt>
      <trkpt lat="49.83395" lon="4.84994">
        <ele>348</ele>
        <time>2021-05-15T09:57:52.000Z</time>
      </trkpt>
      <trkpt lat="49.83395" lon="4.84994">
        <ele>348</ele>
        <time>2021-05-15T09:57:53.000Z</time>
      </trkpt>
      <trkpt lat="49.83395" lon="4.84994">
        <ele>348</ele>
        <time>2021-05-15T09:57:54.000Z</time>
      </trkpt>
      <trkpt lat="49.83395" lon="4.84994">
        <ele>348</ele>
        <time>2021-05-15T09:57:55.000Z</time>
      </trkpt>
      <trkpt lat="49.83395" lon="4.84994">
        <ele>348</ele>
        <time>2021-05-15T09:57:56.000Z</time>
      </trkpt>
      <trkpt lat="49.83395" lon="4.84994">
        <ele>348</ele>
        <time>2021-05-15T09:57:57.000Z</time>
      </trkpt>
      <trkpt lat="49.83395" lon="4.84994">
        <ele>348</ele>
        <time>2021-05-15T09:57:58.000Z</time>
      </trkpt>
      <trkpt lat="49.83395" lon="4.84994">
        <ele>348</ele>
        <time>2021-05-15T09:57:59.000Z</time>
      </trkpt>
      <trkpt lat="49.83395" lon="4.84994">
        <ele>348</ele>
        <time>2021-05-15T09:58:00.000Z</time>
      </trkpt>
      <trkpt lat="49.83395" lon="4.84994">
        <ele>349</ele>
        <time>2021-05-15T09:58:01.000Z</time>
      </trkpt>
      <trkpt lat="49.83395" lon="4.84995">
        <ele>349</ele>
        <time>2021-05-15T09:58:02.000Z</time>
      </trkpt>
      <trkpt lat="49.83395" lon="4.84995">
        <ele>349</ele>
        <time>2021-05-15T09:58:03.000Z</time>
      </trkpt>
      <trkpt lat="49.83395" lon="4.84995">
        <ele>349</ele>
        <time>2021-05-15T09:58:04.000Z</time>
      </trkpt>
      <trkpt lat="49.83395" lon="4.84995">
        <ele>349</ele>
        <time>2021-05-15T09:58:05.000Z</time>
      </trkpt>
      <trkpt lat="49.83395" lon="4.84995">
        <ele>349</ele>
        <time>2021-05-15T09:58:06.000Z</time>
      </trkpt>
      <trkpt lat="49.83395" lon="4.84995">
        <ele>349</ele>
        <time>2021-05-15T09:58:07.000Z</time>
      </trkpt>
      <trkpt lat="49.83394" lon="4.84996">
        <ele>349</ele>
        <time>2021-05-15T09:58:08.000Z</time>
      </trkpt>
      <trkpt lat="49.83394" lon="4.84996">
        <ele>349</ele>
        <time>2021-05-15T09:58:09.000Z</time>
      </trkpt>
      <trkpt lat="49.83394" lon="4.84996">
        <ele>349</ele>
        <time>2021-05-15T09:58:10.000Z</time>
      </trkpt>
      <trkpt lat="49.83394" lon="4.84995">
        <ele>349</ele>
        <time>2021-05-15T09:58:11.000Z</time>
      </trkpt>
      <trkpt lat="49.83395" lon="4.84995">
        <ele>350</ele>
        <time>2021-05-15T09:58:12.000Z</time>
      </trkpt>
      <trkpt lat="49.83394" lon="4.84995">
        <ele>350</ele>
        <time>2021-05-15T09:58:13.000Z</time>
      </trkpt>
      <trkpt lat="49.83394" lon="4.84995">
        <ele>350</ele>
        <time>2021-05-15T09:58:14.000Z</time>
      </trkpt>
      <trkpt lat="49.83394" lon="4.84995">
        <ele>350</ele>
        <time>2021-05-15T09:58:15.000Z</time>
      </trkpt>
      <trkpt lat="49.83393" lon="4.84996">
        <ele>350</ele>
        <time>2021-05-15T09:58:16.000Z</time>
      </trkpt>
      <trkpt lat="49.83391" lon="4.84998">
        <ele>350</ele>
        <time>2021-05-15T09:58:17.000Z</time>
      </trkpt>
      <trkpt lat="49.83389" lon="4.84999">
        <ele>350</ele>
        <time>2021-05-15T09:58:18.000Z</time>
      </trkpt>
      <trkpt lat="49.83387" lon="4.85002">
        <ele>350</ele>
        <time>2021-05-15T09:58:19.000Z</time>
      </trkpt>
      <trkpt lat="49.83384" lon="4.85004">
        <ele>350</ele>
        <time>2021-05-15T09:58:20.000Z</time>
      </trkpt>
      <trkpt lat="49.83382" lon="4.85006">
        <ele>350</ele>
        <time>2021-05-15T09:58:21.000Z</time>
      </trkpt>
      <trkpt lat="49.83379" lon="4.85009">
        <ele>350</ele>
        <time>2021-05-15T09:58:22.000Z</time>
      </trkpt>
      <trkpt lat="49.83377" lon="4.85011">
        <ele>350</ele>
        <time>2021-05-15T09:58:23.000Z</time>
      </trkpt>
      <trkpt lat="49.83374" lon="4.85013">
        <ele>350</ele>
        <time>2021-05-15T09:58:24.000Z</time>
      </trkpt>
      <trkpt lat="49.83372" lon="4.85015">
        <ele>351</ele>
        <time>2021-05-15T09:58:25.000Z</time>
      </trkpt>
      <trkpt lat="49.83369" lon="4.85018">
        <ele>351</ele>
        <time>2021-05-15T09:58:26.000Z</time>
      </trkpt>
      <trkpt lat="49.83366" lon="4.8502">
        <ele>351</ele>
        <time>2021-05-15T09:58:27.000Z</time>
      </trkpt>
      <trkpt lat="49.83363" lon="4.85022">
        <ele>351</ele>
        <time>2021-05-15T09:58:28.000Z</time>
      </trkpt>
      <trkpt lat="49.83361" lon="4.85024">
        <ele>351</ele>
        <time>2021-05-15T09:58:29.000Z</time>
      </trkpt>
      <trkpt lat="49.83358" lon="4.85026">
        <ele>351</ele>
        <time>2021-05-15T09:58:30.000Z</time>
      </trkpt>
      <trkpt lat="49.83356" lon="4.85028">
        <ele>351</ele>
        <time>2021-05-15T09:58:31.000Z</time>
      </trkpt>
      <trkpt lat="49.83353" lon="4.8503">
        <ele>352</ele>
        <time>2021-05-15T09:58:32.000Z</time>
      </trkpt>
      <trkpt lat="49.83351" lon="4.85032">
        <ele>352</ele>
        <time>2021-05-15T09:58:33.000Z</time>
      </trkpt>
      <trkpt lat="49.83348" lon="4.85033">
        <ele>352</ele>
        <time>2021-05-15T09:58:34.000Z</time>
      </trkpt>
      <trkpt lat="49.83345" lon="4.85035">
        <ele>352</ele>
        <time>2021-05-15T09:58:35.000Z</time>
      </trkpt>
      <trkpt lat="49.83342" lon="4.85036">
        <ele>352</ele>
        <time>2021-05-15T09:58:36.000Z</time>
      </trkpt>
      <trkpt lat="49.83339" lon="4.85038">
        <ele>352</ele>
        <time>2021-05-15T09:58:37.000Z</time>
      </trkpt>
      <trkpt lat="49.83337" lon="4.85039">
        <ele>352</ele>
        <time>2021-05-15T09:58:38.000Z</time>
      </trkpt>
      <trkpt lat="49.83334" lon="4.8504">
        <ele>352</ele>
        <time>2021-05-15T09:58:39.000Z</time>
      </trkpt>
      <trkpt lat="49.83331" lon="4.85041">
        <ele>352</ele>
        <time>2021-05-15T09:58:40.000Z</time>
      </trkpt>
      <trkpt lat="49.83328" lon="4.85042">
        <ele>352</ele>
        <time>2021-05-15T09:58:41.000Z</time>
      </trkpt>
      <trkpt lat="49.83325" lon="4.85043">
        <ele>353</ele>
        <time>2021-05-15T09:58:42.000Z</time>
      </trkpt>
      <trkpt lat="49.83322" lon="4.85044">
        <ele>353</ele>
        <time>2021-05-15T09:58:43.000Z</time>
      </trkpt>
      <trkpt lat="49.83319" lon="4.85044">
        <ele>353</ele>
        <time>2021-05-15T09:58:44.000Z</time>
      </trkpt>
      <trkpt lat="49.83316" lon="4.85045">
        <ele>353</ele>
        <time>2021-05-15T09:58:45.000Z</time>
      </trkpt>
      <trkpt lat="49.83313" lon="4.85045">
        <ele>353</ele>
        <time>2021-05-15T09:58:46.000Z</time>
      </trkpt>
      <trkpt lat="49.8331" lon="4.85046">
        <ele>353</ele>
        <time>2021-05-15T09:58:47.000Z</time>
      </trkpt>
      <trkpt lat="49.83306" lon="4.85046">
        <ele>353</ele>
        <time>2021-05-15T09:58:48.000Z</time>
      </trkpt>
      <trkpt lat="49.83303" lon="4.85048">
        <ele>353</ele>
        <time>2021-05-15T09:58:49.000Z</time>
      </trkpt>
      <trkpt lat="49.833" lon="4.85049">
        <ele>354</ele>
        <time>2021-05-15T09:58:50.000Z</time>
      </trkpt>
      <trkpt lat="49.83297" lon="4.8505">
        <ele>354</ele>
        <time>2021-05-15T09:58:51.000Z</time>
      </trkpt>
      <trkpt lat="49.83294" lon="4.85051">
        <ele>354</ele>
        <time>2021-05-15T09:58:52.000Z</time>
      </trkpt>
      <trkpt lat="49.83291" lon="4.85052">
        <ele>354</ele>
        <time>2021-05-15T09:58:53.000Z</time>
      </trkpt>
      <trkpt lat="49.83288" lon="4.85053">
        <ele>354</ele>
        <time>2021-05-15T09:58:54.000Z</time>
      </trkpt>
      <trkpt lat="49.83285" lon="4.85053">
        <ele>354</ele>
        <time>2021-05-15T09:58:55.000Z</time>
      </trkpt>
      <trkpt lat="49.83282" lon="4.85054">
        <ele>354</ele>
        <time>2021-05-15T09:58:56.000Z</time>
      </trkpt>
      <trkpt lat="49.83279" lon="4.85055">
        <ele>354</ele>
        <time>2021-05-15T09:58:57.000Z</time>
      </trkpt>
      <trkpt lat="49.83276" lon="4.85056">
        <ele>354</ele>
        <time>2021-05-15T09:58:58.000Z</time>
      </trkpt>
      <trkpt lat="49.83273" lon="4.85058">
        <ele>355</ele>
        <time>2021-05-15T09:58:59.000Z</time>
      </trkpt>
      <trkpt lat="49.8327" lon="4.85059">
        <ele>355</ele>
        <time>2021-05-15T09:59:00.000Z</time>
      </trkpt>
      <trkpt lat="49.83268" lon="4.85061">
        <ele>355</ele>
        <time>2021-05-15T09:59:01.000Z</time>
      </trkpt>
      <trkpt lat="49.83267" lon="4.85064">
        <ele>355</ele>
        <time>2021-05-15T09:59:02.000Z</time>
      </trkpt>
      <trkpt lat="49.83266" lon="4.85067">
        <ele>355</ele>
        <time>2021-05-15T09:59:03.000Z</time>
      </trkpt>
      <trkpt lat="49.83267" lon="4.85069">
        <ele>355</ele>
        <time>2021-05-15T09:59:04.000Z</time>
      </trkpt>
      <trkpt lat="49.83269" lon="4.85071">
        <ele>356</ele>
        <time>2021-05-15T09:59:05.000Z</time>
      </trkpt>
      <trkpt lat="49.83271" lon="4.85072">
        <ele>356</ele>
        <time>2021-05-15T09:59:06.000Z</time>
      </trkpt>
      <trkpt lat="49.83272" lon="4.85073">
        <ele>356</ele>
        <time>2021-05-15T09:59:07.000Z</time>
      </trkpt>
      <trkpt lat="49.83272" lon="4.85073">
        <ele>357</ele>
        <time>2021-05-15T09:59:08.000Z</time>
      </trkpt>
      <trkpt lat="49.83272" lon="4.85072">
        <ele>357</ele>
        <time>2021-05-15T09:59:09.000Z</time>
      </trkpt>
      <trkpt lat="49.83272" lon="4.85072">
        <ele>357</ele>
        <time>2021-05-15T09:59:10.000Z</time>
      </trkpt>
      <trkpt lat="49.83272" lon="4.85072">
        <ele>357</ele>
        <time>2021-05-15T09:59:11.000Z</time>
      </trkpt>
      <trkpt lat="49.83273" lon="4.85072">
        <ele>357</ele>
        <time>2021-05-15T09:59:12.000Z</time>
      </trkpt>
      <trkpt lat="49.83273" lon="4.85072">
        <ele>358</ele>
        <time>2021-05-15T09:59:13.000Z</time>
      </trkpt>
      <trkpt lat="49.83273" lon="4.85072">
        <ele>358</ele>
        <time>2021-05-15T09:59:14.000Z</time>
      </trkpt>
      <trkpt lat="49.83273" lon="4.85072">
        <ele>358</ele>
        <time>2021-05-15T09:59:15.000Z</time>
      </trkpt>
      <trkpt lat="49.83273" lon="4.85072">
        <ele>358</ele>
        <time>2021-05-15T09:59:16.000Z</time>
      </trkpt>
      <trkpt lat="49.83273" lon="4.85072">
        <ele>358</ele>
        <time>2021-05-15T09:59:17.000Z</time>
      </trkpt>
      <trkpt lat="49.83273" lon="4.85072">
        <ele>358</ele>
        <time>2021-05-15T09:59:18.000Z</time>
      </trkpt>
      <trkpt lat="49.83273" lon="4.85071">
        <ele>359</ele>
        <time>2021-05-15T09:59:19.000Z</time>
      </trkpt>
      <trkpt lat="49.83273" lon="4.85071">
        <ele>359</ele>
        <time>2021-05-15T09:59:20.000Z</time>
      </trkpt>
      <trkpt lat="49.83273" lon="4.85071">
        <ele>359</ele>
        <time>2021-05-15T09:59:21.000Z</time>
      </trkpt>
      <trkpt lat="49.83273" lon="4.85071">
        <ele>359</ele>
        <time>2021-05-15T09:59:22.000Z</time>
      </trkpt>
      <trkpt lat="49.83273" lon="4.85071">
        <ele>359</ele>
        <time>2021-05-15T09:59:23.000Z</time>
      </trkpt>
      <trkpt lat="49.83274" lon="4.85071">
        <ele>359</ele>
        <time>2021-05-15T09:59:24.000Z</time>
      </trkpt>
      <trkpt lat="49.83274" lon="4.85071">
        <ele>359</ele>
        <time>2021-05-15T09:59:25.000Z</time>
      </trkpt>
      <trkpt lat="49.83274" lon="4.85071">
        <ele>359</ele>
        <time>2021-05-15T09:59:26.000Z</time>
      </trkpt>
      <trkpt lat="49.83274" lon="4.85071">
        <ele>359</ele>
        <time>2021-05-15T09:59:27.000Z</time>
      </trkpt>
      <trkpt lat="49.83274" lon="4.85071">
        <ele>359</ele>
        <time>2021-05-15T09:59:28.000Z</time>
      </trkpt>
      <trkpt lat="49.83274" lon="4.85071">
        <ele>359</ele>
        <time>2021-05-15T09:59:29.000Z</time>
      </trkpt>
      <trkpt lat="49.83274" lon="4.85071">
        <ele>359</ele>
        <time>2021-05-15T09:59:30.000Z</time>
      </trkpt>
      <trkpt lat="49.83274" lon="4.85071">
        <ele>359</ele>
        <time>2021-05-15T09:59:31.000Z</time>
      </trkpt>
      <trkpt lat="49.83274" lon="4.85071">
        <ele>359</ele>
        <time>2021-05-15T09:59:32.000Z</time>
      </trkpt>
      <trkpt lat="49.83274" lon="4.85071">
        <ele>359</ele>
        <time>2021-05-15T09:59:33.000Z</time>
      </trkpt>
      <trkpt lat="49.83274" lon="4.85071">
        <ele>359</ele>
        <time>2021-05-15T09:59:34.000Z</time>
      </trkpt>
      <trkpt lat="49.83274" lon="4.85071">
        <ele>359</ele>
        <time>2021-05-15T09:59:35.000Z</time>
      </trkpt>
      <trkpt lat="49.83274" lon="4.85071">
        <ele>359</ele>
        <time>2021-05-15T09:59:36.000Z</time>
      </trkpt>
      <trkpt lat="49.83275" lon="4.85071">
        <ele>359</ele>
        <time>2021-05-15T09:59:37.000Z</time>
      </trkpt>
      <trkpt lat="49.83276" lon="4.85073">
        <ele>360</ele>
        <time>2021-05-15T09:59:38.000Z</time>
      </trkpt>
      <trkpt lat="49.83278" lon="4.85074">
        <ele>360</ele>
        <time>2021-05-15T09:59:39.000Z</time>
      </trkpt>
      <trkpt lat="49.83281" lon="4.85076">
        <ele>360</ele>
        <time>2021-05-15T09:59:40.000Z</time>
      </trkpt>
      <trkpt lat="49.83284" lon="4.85077">
        <ele>360</ele>
        <time>2021-05-15T09:59:41.000Z</time>
      </trkpt>
      <trkpt lat="49.83287" lon="4.85079">
        <ele>360</ele>
        <time>2021-05-15T09:59:42.000Z</time>
      </trkpt>
      <trkpt lat="49.8329" lon="4.85081">
        <ele>360</ele>
        <time>2021-05-15T09:59:43.000Z</time>
      </trkpt>
      <trkpt lat="49.83293" lon="4.85082">
        <ele>360</ele>
        <time>2021-05-15T09:59:44.000Z</time>
      </trkpt>
      <trkpt lat="49.83297" lon="4.85084">
        <ele>360</ele>
        <time>2021-05-15T09:59:45.000Z</time>
      </trkpt>
      <trkpt lat="49.833" lon="4.85086">
        <ele>360</ele>
        <time>2021-05-15T09:59:46.000Z</time>
      </trkpt>
      <trkpt lat="49.83304" lon="4.85088">
        <ele>360</ele>
        <time>2021-05-15T09:59:47.000Z</time>
      </trkpt>
      <trkpt lat="49.83308" lon="4.85091">
        <ele>360</ele>
        <time>2021-05-15T09:59:48.000Z</time>
      </trkpt>
      <trkpt lat="49.83312" lon="4.85094">
        <ele>360</ele>
        <time>2021-05-15T09:59:49.000Z</time>
      </trkpt>
      <trkpt lat="49.83316" lon="4.85098">
        <ele>360</ele>
        <time>2021-05-15T09:59:50.000Z</time>
      </trkpt>
      <trkpt lat="49.83321" lon="4.85102">
        <ele>360</ele>
        <time>2021-05-15T09:59:51.000Z</time>
      </trkpt>
      <trkpt lat="49.83325" lon="4.85106">
        <ele>360</ele>
        <time>2021-05-15T09:59:52.000Z</time>
      </trkpt>
      <trkpt lat="49.8333" lon="4.8511">
        <ele>360</ele>
        <time>2021-05-15T09:59:53.000Z</time>
      </trkpt>
      <trkpt lat="49.83334" lon="4.85114">
        <ele>360</ele>
        <time>2021-05-15T09:59:54.000Z</time>
      </trkpt>
      <trkpt lat="49.83338" lon="4.85119">
        <ele>360</ele>
        <time>2021-05-15T09:59:55.000Z</time>
      </trkpt>
      <trkpt lat="49.83342" lon="4.85123">
        <ele>359</ele>
        <time>2021-05-15T09:59:56.000Z</time>
      </trkpt>
      <trkpt lat="49.83344" lon="4.85129">
        <ele>359</ele>
        <time>2021-05-15T09:59:57.000Z</time>
      </trkpt>
      <trkpt lat="49.83347" lon="4.85134">
        <ele>359</ele>
        <time>2021-05-15T09:59:58.000Z</time>
      </trkpt>
      <trkpt lat="49.83349" lon="4.85138">
        <ele>359</ele>
        <time>2021-05-15T09:59:59.000Z</time>
      </trkpt>
      <trkpt lat="49.8335" lon="4.85143">
        <ele>359</ele>
        <time>2021-05-15T10:00:00.000Z</time>
      </trkpt>
      <trkpt lat="49.83351" lon="4.85149">
        <ele>359</ele>
        <time>2021-05-15T10:00:01.000Z</time>
      </trkpt>
      <trkpt lat="49.83351" lon="4.85154">
        <ele>359</ele>
        <time>2021-05-15T10:00:02.000Z</time>
      </trkpt>
      <trkpt lat="49.83351" lon="4.85159">
        <ele>359</ele>
        <time>2021-05-15T10:00:03.000Z</time>
      </trkpt>
      <trkpt lat="49.8335" lon="4.85165">
        <ele>358</ele>
        <time>2021-05-15T10:00:04.000Z</time>
      </trkpt>
      <trkpt lat="49.83348" lon="4.8517">
        <ele>358</ele>
        <time>2021-05-15T10:00:05.000Z</time>
      </trkpt>
      <trkpt lat="49.83346" lon="4.85176">
        <ele>358</ele>
        <time>2021-05-15T10:00:06.000Z</time>
      </trkpt>
      <trkpt lat="49.83344" lon="4.85181">
        <ele>358</ele>
        <time>2021-05-15T10:00:07.000Z</time>
      </trkpt>
      <trkpt lat="49.83342" lon="4.85186">
        <ele>358</ele>
        <time>2021-05-15T10:00:08.000Z</time>
      </trkpt>
      <trkpt lat="49.83339" lon="4.85191">
        <ele>358</ele>
        <time>2021-05-15T10:00:09.000Z</time>
      </trkpt>
      <trkpt lat="49.83336" lon="4.85196">
        <ele>358</ele>
        <time>2021-05-15T10:00:10.000Z</time>
      </trkpt>
      <trkpt lat="49.83333" lon="4.85202">
        <ele>358</ele>
        <time>2021-05-15T10:00:11.000Z</time>
      </trkpt>
      <trkpt lat="49.8333" lon="4.85207">
        <ele>358</ele>
        <time>2021-05-15T10:00:12.000Z</time>
      </trkpt>
      <trkpt lat="49.83327" lon="4.85212">
        <ele>358</ele>
        <time>2021-05-15T10:00:13.000Z</time>
      </trkpt>
      <trkpt lat="49.83324" lon="4.85217">
        <ele>358</ele>
        <time>2021-05-15T10:00:14.000Z</time>
      </trkpt>
      <trkpt lat="49.83321" lon="4.85222">
        <ele>358</ele>
        <time>2021-05-15T10:00:15.000Z</time>
      </trkpt>
      <trkpt lat="49.83318" lon="4.85227">
        <ele>358</ele>
        <time>2021-05-15T10:00:16.000Z</time>
      </trkpt>
      <trkpt lat="49.83315" lon="4.85233">
        <ele>358</ele>
        <time>2021-05-15T10:00:17.000Z</time>
      </trkpt>
      <trkpt lat="49.83312" lon="4.85239">
        <ele>358</ele>
        <time>2021-05-15T10:00:18.000Z</time>
      </trkpt>
      <trkpt lat="49.83309" lon="4.85244">
        <ele>358</ele>
        <time>2021-05-15T10:00:19.000Z</time>
      </trkpt>
      <trkpt lat="49.83307" lon="4.85248">
        <ele>358</ele>
        <time>2021-05-15T10:00:20.000Z</time>
      </trkpt>
      <trkpt lat="49.83304" lon="4.85254">
        <ele>358</ele>
        <time>2021-05-15T10:00:21.000Z</time>
      </trkpt>
      <trkpt lat="49.83302" lon="4.85259">
        <ele>358</ele>
        <time>2021-05-15T10:00:22.000Z</time>
      </trkpt>
      <trkpt lat="49.83299" lon="4.85265">
        <ele>357</ele>
        <time>2021-05-15T10:00:23.000Z</time>
      </trkpt>
      <trkpt lat="49.83297" lon="4.8527">
        <ele>357</ele>
        <time>2021-05-15T10:00:24.000Z</time>
      </trkpt>
      <trkpt lat="49.83294" lon="4.85276">
        <ele>357</ele>
        <time>2021-05-15T10:00:25.000Z</time>
      </trkpt>
      <trkpt lat="49.83291" lon="4.85281">
        <ele>357</ele>
        <time>2021-05-15T10:00:26.000Z</time>
      </trkpt>
      <trkpt lat="49.83288" lon="4.85286">
        <ele>357</ele>
        <time>2021-05-15T10:00:27.000Z</time>
      </trkpt>
      <trkpt lat="49.83285" lon="4.85292">
        <ele>357</ele>
        <time>2021-05-15T10:00:28.000Z</time>
      </trkpt>
      <trkpt lat="49.83283" lon="4.85297">
        <ele>357</ele>
        <time>2021-05-15T10:00:29.000Z</time>
      </trkpt>
      <trkpt lat="49.83279" lon="4.85302">
        <ele>357</ele>
        <time>2021-05-15T10:00:30.000Z</time>
      </trkpt>
      <trkpt lat="49.83276" lon="4.85307">
        <ele>357</ele>
        <time>2021-05-15T10:00:31.000Z</time>
      </trkpt>
      <trkpt lat="49.83273" lon="4.85312">
        <ele>357</ele>
        <time>2021-05-15T10:00:32.000Z</time>
      </trkpt>
      <trkpt lat="49.8327" lon="4.85317">
        <ele>357</ele>
        <time>2021-05-15T10:00:33.000Z</time>
      </trkpt>
      <trkpt lat="49.83268" lon="4.85323">
        <ele>357</ele>
        <time>2021-05-15T10:00:34.000Z</time>
      </trkpt>
      <trkpt lat="49.83265" lon="4.85328">
        <ele>357</ele>
        <time>2021-05-15T10:00:35.000Z</time>
      </trkpt>
      <trkpt lat="49.83262" lon="4.85333">
        <ele>357</ele>
        <time>2021-05-15T10:00:36.000Z</time>
      </trkpt>
      <trkpt lat="49.83259" lon="4.85338">
        <ele>357</ele>
        <time>2021-05-15T10:00:37.000Z</time>
      </trkpt>
      <trkpt lat="49.83256" lon="4.85344">
        <ele>357</ele>
        <time>2021-05-15T10:00:38.000Z</time>
      </trkpt>
      <trkpt lat="49.83253" lon="4.85349">
        <ele>357</ele>
        <time>2021-05-15T10:00:39.000Z</time>
      </trkpt>
      <trkpt lat="49.8325" lon="4.85355">
        <ele>357</ele>
        <time>2021-05-15T10:00:40.000Z</time>
      </trkpt>
      <trkpt lat="49.83247" lon="4.8536">
        <ele>357</ele>
        <time>2021-05-15T10:00:41.000Z</time>
      </trkpt>
      <trkpt lat="49.83245" lon="4.85366">
        <ele>357</ele>
        <time>2021-05-15T10:00:42.000Z</time>
      </trkpt>
      <trkpt lat="49.83243" lon="4.85372">
        <ele>357</ele>
        <time>2021-05-15T10:00:43.000Z</time>
      </trkpt>
      <trkpt lat="49.8324" lon="4.85377">
        <ele>357</ele>
        <time>2021-05-15T10:00:44.000Z</time>
      </trkpt>
      <trkpt lat="49.83238" lon="4.85382">
        <ele>356</ele>
        <time>2021-05-15T10:00:45.000Z</time>
      </trkpt>
      <trkpt lat="49.83235" lon="4.85387">
        <ele>356</ele>
        <time>2021-05-15T10:00:46.000Z</time>
      </trkpt>
      <trkpt lat="49.83232" lon="4.85392">
        <ele>356</ele>
        <time>2021-05-15T10:00:47.000Z</time>
      </trkpt>
      <trkpt lat="49.83229" lon="4.85398">
        <ele>356</ele>
        <time>2021-05-15T10:00:48.000Z</time>
      </trkpt>
      <trkpt lat="49.83226" lon="4.85405">
        <ele>356</ele>
        <time>2021-05-15T10:00:49.000Z</time>
      </trkpt>
      <trkpt lat="49.83223" lon="4.85412">
        <ele>356</ele>
        <time>2021-05-15T10:00:50.000Z</time>
      </trkpt>
      <trkpt lat="49.8322" lon="4.8542">
        <ele>355</ele>
        <time>2021-05-15T10:00:51.000Z</time>
      </trkpt>
      <trkpt lat="49.83216" lon="4.85428">
        <ele>355</ele>
        <time>2021-05-15T10:00:52.000Z</time>
      </trkpt>
      <trkpt lat="49.83212" lon="4.85435">
        <ele>355</ele>
        <time>2021-05-15T10:00:53.000Z</time>
      </trkpt>
      <trkpt lat="49.83208" lon="4.85443">
        <ele>355</ele>
        <time>2021-05-15T10:00:54.000Z</time>
      </trkpt>
      <trkpt lat="49.83204" lon="4.85451">
        <ele>355</ele>
        <time>2021-05-15T10:00:55.000Z</time>
      </trkpt>
      <trkpt lat="49.832" lon="4.85458">
        <ele>354</ele>
        <time>2021-05-15T10:00:56.000Z</time>
      </trkpt>
      <trkpt lat="49.83197" lon="4.85466">
        <ele>354</ele>
        <time>2021-05-15T10:00:57.000Z</time>
      </trkpt>
      <trkpt lat="49.83193" lon="4.85475">
        <ele>354</ele>
        <time>2021-05-15T10:00:58.000Z</time>
      </trkpt>
      <trkpt lat="49.83189" lon="4.85483">
        <ele>354</ele>
        <time>2021-05-15T10:00:59.000Z</time>
      </trkpt>
      <trkpt lat="49.83186" lon="4.85491">
        <ele>353</ele>
        <time>2021-05-15T10:01:00.000Z</time>
      </trkpt>
      <trkpt lat="49.83183" lon="4.85497">
        <ele>353</ele>
        <time>2021-05-15T10:01:01.000Z</time>
      </trkpt>
      <trkpt lat="49.8318" lon="4.85503">
        <ele>353</ele>
        <time>2021-05-15T10:01:02.000Z</time>
      </trkpt>
      <trkpt lat="49.83178" lon="4.85509">
        <ele>353</ele>
        <time>2021-05-15T10:01:03.000Z</time>
      </trkpt>
      <trkpt lat="49.83176" lon="4.85515">
        <ele>352</ele>
        <time>2021-05-15T10:01:04.000Z</time>
      </trkpt>
      <trkpt lat="49.83173" lon="4.85521">
        <ele>352</ele>
        <time>2021-05-15T10:01:05.000Z</time>
      </trkpt>
      <trkpt lat="49.83171" lon="4.85528">
        <ele>352</ele>
        <time>2021-05-15T10:01:06.000Z</time>
      </trkpt>
      <trkpt lat="49.83169" lon="4.85534">
        <ele>352</ele>
        <time>2021-05-15T10:01:07.000Z</time>
      </trkpt>
      <trkpt lat="49.83167" lon="4.8554">
        <ele>352</ele>
        <time>2021-05-15T10:01:08.000Z</time>
      </trkpt>
      <trkpt lat="49.83164" lon="4.85547">
        <ele>352</ele>
        <time>2021-05-15T10:01:09.000Z</time>
      </trkpt>
      <trkpt lat="49.83162" lon="4.85554">
        <ele>352</ele>
        <time>2021-05-15T10:01:10.000Z</time>
      </trkpt>
      <trkpt lat="49.83159" lon="4.85562">
        <ele>352</ele>
        <time>2021-05-15T10:01:11.000Z</time>
      </trkpt>
      <trkpt lat="49.83157" lon="4.8557">
        <ele>352</ele>
        <time>2021-05-15T10:01:12.000Z</time>
      </trkpt>
      <trkpt lat="49.83154" lon="4.85578">
        <ele>351</ele>
        <time>2021-05-15T10:01:13.000Z</time>
      </trkpt>
      <trkpt lat="49.83151" lon="4.85586">
        <ele>351</ele>
        <time>2021-05-15T10:01:14.000Z</time>
      </trkpt>
      <trkpt lat="49.83148" lon="4.85594">
        <ele>351</ele>
        <time>2021-05-15T10:01:15.000Z</time>
      </trkpt>
      <trkpt lat="49.83144" lon="4.85604">
        <ele>351</ele>
        <time>2021-05-15T10:01:16.000Z</time>
      </trkpt>
      <trkpt lat="49.83141" lon="4.85614">
        <ele>351</ele>
        <time>2021-05-15T10:01:17.000Z</time>
      </trkpt>
      <trkpt lat="49.83138" lon="4.85622">
        <ele>351</ele>
        <time>2021-05-15T10:01:18.000Z</time>
      </trkpt>
      <trkpt lat="49.83135" lon="4.8563">
        <ele>350</ele>
        <time>2021-05-15T10:01:19.000Z</time>
      </trkpt>
      <trkpt lat="49.83131" lon="4.85638">
        <ele>350</ele>
        <time>2021-05-15T10:01:20.000Z</time>
      </trkpt>
      <trkpt lat="49.83127" lon="4.85644">
        <ele>350</ele>
        <time>2021-05-15T10:01:21.000Z</time>
      </trkpt>
      <trkpt lat="49.83121" lon="4.85651">
        <ele>350</ele>
        <time>2021-05-15T10:01:22.000Z</time>
      </trkpt>
      <trkpt lat="49.83115" lon="4.85657">
        <ele>350</ele>
        <time>2021-05-15T10:01:23.000Z</time>
      </trkpt>
      <trkpt lat="49.83108" lon="4.85662">
        <ele>349</ele>
        <time>2021-05-15T10:01:24.000Z</time>
      </trkpt>
      <trkpt lat="49.83103" lon="4.85667">
        <ele>349</ele>
        <time>2021-05-15T10:01:25.000Z</time>
      </trkpt>
      <trkpt lat="49.83097" lon="4.85671">
        <ele>349</ele>
        <time>2021-05-15T10:01:26.000Z</time>
      </trkpt>
      <trkpt lat="49.83092" lon="4.85676">
        <ele>349</ele>
        <time>2021-05-15T10:01:27.000Z</time>
      </trkpt>
      <trkpt lat="49.83088" lon="4.85681">
        <ele>349</ele>
        <time>2021-05-15T10:01:28.000Z</time>
      </trkpt>
      <trkpt lat="49.83084" lon="4.85685">
        <ele>348</ele>
        <time>2021-05-15T10:01:29.000Z</time>
      </trkpt>
      <trkpt lat="49.8308" lon="4.85689">
        <ele>348</ele>
        <time>2021-05-15T10:01:30.000Z</time>
      </trkpt>
      <trkpt lat="49.83077" lon="4.85693">
        <ele>348</ele>
        <time>2021-05-15T10:01:31.000Z</time>
      </trkpt>
      <trkpt lat="49.83074" lon="4.85697">
        <ele>348</ele>
        <time>2021-05-15T10:01:32.000Z</time>
      </trkpt>
      <trkpt lat="49.83071" lon="4.85701">
        <ele>347</ele>
        <time>2021-05-15T10:01:33.000Z</time>
      </trkpt>
      <trkpt lat="49.83068" lon="4.85704">
        <ele>347</ele>
        <time>2021-05-15T10:01:34.000Z</time>
      </trkpt>
      <trkpt lat="49.83065" lon="4.85707">
        <ele>347</ele>
        <time>2021-05-15T10:01:35.000Z</time>
      </trkpt>
      <trkpt lat="49.83062" lon="4.85711">
        <ele>347</ele>
        <time>2021-05-15T10:01:36.000Z</time>
      </trkpt>
      <trkpt lat="49.83059" lon="4.85714">
        <ele>346</ele>
        <time>2021-05-15T10:01:37.000Z</time>
      </trkpt>
      <trkpt lat="49.83057" lon="4.85717">
        <ele>346</ele>
        <time>2021-05-15T10:01:38.000Z</time>
      </trkpt>
      <trkpt lat="49.83054" lon="4.8572">
        <ele>346</ele>
        <time>2021-05-15T10:01:39.000Z</time>
      </trkpt>
      <trkpt lat="49.83051" lon="4.85723">
        <ele>346</ele>
        <time>2021-05-15T10:01:40.000Z</time>
      </trkpt>
      <trkpt lat="49.83048" lon="4.85726">
        <ele>345</ele>
        <time>2021-05-15T10:01:41.000Z</time>
      </trkpt>
      <trkpt lat="49.83046" lon="4.85729">
        <ele>345</ele>
        <time>2021-05-15T10:01:42.000Z</time>
      </trkpt>
      <trkpt lat="49.83043" lon="4.85732">
        <ele>345</ele>
        <time>2021-05-15T10:01:43.000Z</time>
      </trkpt>
      <trkpt lat="49.8304" lon="4.85735">
        <ele>345</ele>
        <time>2021-05-15T10:01:44.000Z</time>
      </trkpt>
      <trkpt lat="49.83038" lon="4.85738">
        <ele>344</ele>
        <time>2021-05-15T10:01:45.000Z</time>
      </trkpt>
      <trkpt lat="49.83035" lon="4.85741">
        <ele>344</ele>
        <time>2021-05-15T10:01:46.000Z</time>
      </trkpt>
      <trkpt lat="49.83032" lon="4.85744">
        <ele>344</ele>
        <time>2021-05-15T10:01:47.000Z</time>
      </trkpt>
      <trkpt lat="49.83029" lon="4.85746">
        <ele>344</ele>
        <time>2021-05-15T10:01:48.000Z</time>
      </trkpt>
      <trkpt lat="49.83026" lon="4.85747">
        <ele>344</ele>
        <time>2021-05-15T10:01:49.000Z</time>
      </trkpt>
      <trkpt lat="49.83022" lon="4.85749">
        <ele>343</ele>
        <time>2021-05-15T10:01:50.000Z</time>
      </trkpt>
      <trkpt lat="49.8302" lon="4.8575">
        <ele>343</ele>
        <time>2021-05-15T10:01:51.000Z</time>
      </trkpt>
      <trkpt lat="49.83016" lon="4.85752">
        <ele>343</ele>
        <time>2021-05-15T10:01:52.000Z</time>
      </trkpt>
      <trkpt lat="49.83013" lon="4.85753">
        <ele>343</ele>
        <time>2021-05-15T10:01:53.000Z</time>
      </trkpt>
      <trkpt lat="49.8301" lon="4.85755">
        <ele>343</ele>
        <time>2021-05-15T10:01:54.000Z</time>
      </trkpt>
      <trkpt lat="49.83007" lon="4.85756">
        <ele>343</ele>
        <time>2021-05-15T10:01:55.000Z</time>
      </trkpt>
      <trkpt lat="49.83004" lon="4.85757">
        <ele>343</ele>
        <time>2021-05-15T10:01:56.000Z</time>
      </trkpt>
      <trkpt lat="49.83002" lon="4.85758">
        <ele>343</ele>
        <time>2021-05-15T10:01:57.000Z</time>
      </trkpt>
      <trkpt lat="49.83" lon="4.8576">
        <ele>343</ele>
        <time>2021-05-15T10:01:58.000Z</time>
      </trkpt>
      <trkpt lat="49.82998" lon="4.85761">
        <ele>343</ele>
        <time>2021-05-15T10:01:59.000Z</time>
      </trkpt>
      <trkpt lat="49.82997" lon="4.85763">
        <ele>343</ele>
        <time>2021-05-15T10:02:00.000Z</time>
      </trkpt>
      <trkpt lat="49.82995" lon="4.85763">
        <ele>343</ele>
        <time>2021-05-15T10:02:01.000Z</time>
      </trkpt>
      <trkpt lat="49.82993" lon="4.85764">
        <ele>343</ele>
        <time>2021-05-15T10:02:02.000Z</time>
      </trkpt>
      <trkpt lat="49.82992" lon="4.85765">
        <ele>342</ele>
        <time>2021-05-15T10:02:03.000Z</time>
      </trkpt>
      <trkpt lat="49.82991" lon="4.85765">
        <ele>342</ele>
        <time>2021-05-15T10:02:04.000Z</time>
      </trkpt>
      <trkpt lat="49.82989" lon="4.85767">
        <ele>342</ele>
        <time>2021-05-15T10:02:05.000Z</time>
      </trkpt>
      <trkpt lat="49.82988" lon="4.8577">
        <ele>342</ele>
        <time>2021-05-15T10:02:06.000Z</time>
      </trkpt>
      <trkpt lat="49.82987" lon="4.85775">
        <ele>342</ele>
        <time>2021-05-15T10:02:07.000Z</time>
      </trkpt>
      <trkpt lat="49.82986" lon="4.8578">
        <ele>342</ele>
        <time>2021-05-15T10:02:08.000Z</time>
      </trkpt>
      <trkpt lat="49.82985" lon="4.85785">
        <ele>342</ele>
        <time>2021-05-15T10:02:09.000Z</time>
      </trkpt>
      <trkpt lat="49.82985" lon="4.85791">
        <ele>342</ele>
        <time>2021-05-15T10:02:10.000Z</time>
      </trkpt>
      <trkpt lat="49.82985" lon="4.85797">
        <ele>342</ele>
        <time>2021-05-15T10:02:11.000Z</time>
      </trkpt>
      <trkpt lat="49.82985" lon="4.85803">
        <ele>341</ele>
        <time>2021-05-15T10:02:12.000Z</time>
      </trkpt>
      <trkpt lat="49.82985" lon="4.85809">
        <ele>341</ele>
        <time>2021-05-15T10:02:13.000Z</time>
      </trkpt>
      <trkpt lat="49.82985" lon="4.85816">
        <ele>341</ele>
        <time>2021-05-15T10:02:14.000Z</time>
      </trkpt>
      <trkpt lat="49.82984" lon="4.85823">
        <ele>341</ele>
        <time>2021-05-15T10:02:15.000Z</time>
      </trkpt>
      <trkpt lat="49.82984" lon="4.8583">
        <ele>341</ele>
        <time>2021-05-15T10:02:16.000Z</time>
      </trkpt>
      <trkpt lat="49.82983" lon="4.85837">
        <ele>341</ele>
        <time>2021-05-15T10:02:17.000Z</time>
      </trkpt>
      <trkpt lat="49.82983" lon="4.85844">
        <ele>341</ele>
        <time>2021-05-15T10:02:18.000Z</time>
      </trkpt>
      <trkpt lat="49.82983" lon="4.85851">
        <ele>341</ele>
        <time>2021-05-15T10:02:19.000Z</time>
      </trkpt>
      <trkpt lat="49.82983" lon="4.85859">
        <ele>341</ele>
        <time>2021-05-15T10:02:20.000Z</time>
      </trkpt>
      <trkpt lat="49.82983" lon="4.85866">
        <ele>341</ele>
        <time>2021-05-15T10:02:21.000Z</time>
      </trkpt>
      <trkpt lat="49.82984" lon="4.85874">
        <ele>341</ele>
        <time>2021-05-15T10:02:22.000Z</time>
      </trkpt>
      <trkpt lat="49.82984" lon="4.85881">
        <ele>340</ele>
        <time>2021-05-15T10:02:23.000Z</time>
      </trkpt>
      <trkpt lat="49.82985" lon="4.85889">
        <ele>340</ele>
        <time>2021-05-15T10:02:24.000Z</time>
      </trkpt>
      <trkpt lat="49.82986" lon="4.85896">
        <ele>340</ele>
        <time>2021-05-15T10:02:25.000Z</time>
      </trkpt>
      <trkpt lat="49.82987" lon="4.85902">
        <ele>340</ele>
        <time>2021-05-15T10:02:26.000Z</time>
      </trkpt>
      <trkpt lat="49.82989" lon="4.85908">
        <ele>340</ele>
        <time>2021-05-15T10:02:27.000Z</time>
      </trkpt>
      <trkpt lat="49.82992" lon="4.85914">
        <ele>340</ele>
        <time>2021-05-15T10:02:28.000Z</time>
      </trkpt>
      <trkpt lat="49.82994" lon="4.8592">
        <ele>340</ele>
        <time>2021-05-15T10:02:29.000Z</time>
      </trkpt>
      <trkpt lat="49.82996" lon="4.85926">
        <ele>340</ele>
        <time>2021-05-15T10:02:30.000Z</time>
      </trkpt>
      <trkpt lat="49.82998" lon="4.85932">
        <ele>340</ele>
        <time>2021-05-15T10:02:31.000Z</time>
      </trkpt>
      <trkpt lat="49.83" lon="4.85938">
        <ele>340</ele>
        <time>2021-05-15T10:02:32.000Z</time>
      </trkpt>
      <trkpt lat="49.83002" lon="4.85943">
        <ele>340</ele>
        <time>2021-05-15T10:02:33.000Z</time>
      </trkpt>
      <trkpt lat="49.83003" lon="4.85949">
        <ele>340</ele>
        <time>2021-05-15T10:02:34.000Z</time>
      </trkpt>
      <trkpt lat="49.83005" lon="4.85954">
        <ele>340</ele>
        <time>2021-05-15T10:02:35.000Z</time>
      </trkpt>
      <trkpt lat="49.83006" lon="4.8596">
        <ele>340</ele>
        <time>2021-05-15T10:02:36.000Z</time>
      </trkpt>
      <trkpt lat="49.83008" lon="4.85965">
        <ele>340</ele>
        <time>2021-05-15T10:02:37.000Z</time>
      </trkpt>
      <trkpt lat="49.83009" lon="4.85971">
        <ele>340</ele>
        <time>2021-05-15T10:02:38.000Z</time>
      </trkpt>
      <trkpt lat="49.8301" lon="4.85977">
        <ele>340</ele>
        <time>2021-05-15T10:02:39.000Z</time>
      </trkpt>
      <trkpt lat="49.83011" lon="4.85982">
        <ele>340</ele>
        <time>2021-05-15T10:02:40.000Z</time>
      </trkpt>
      <trkpt lat="49.83012" lon="4.85988">
        <ele>340</ele>
        <time>2021-05-15T10:02:41.000Z</time>
      </trkpt>
      <trkpt lat="49.83013" lon="4.85994">
        <ele>340</ele>
        <time>2021-05-15T10:02:42.000Z</time>
      </trkpt>
      <trkpt lat="49.83014" lon="4.86">
        <ele>340</ele>
        <time>2021-05-15T10:02:43.000Z</time>
      </trkpt>
      <trkpt lat="49.83015" lon="4.86007">
        <ele>340</ele>
        <time>2021-05-15T10:02:44.000Z</time>
      </trkpt>
      <trkpt lat="49.83015" lon="4.86013">
        <ele>340</ele>
        <time>2021-05-15T10:02:45.000Z</time>
      </trkpt>
      <trkpt lat="49.83016" lon="4.8602">
        <ele>340</ele>
        <time>2021-05-15T10:02:46.000Z</time>
      </trkpt>
      <trkpt lat="49.83017" lon="4.86027">
        <ele>340</ele>
        <time>2021-05-15T10:02:47.000Z</time>
      </trkpt>
      <trkpt lat="49.83018" lon="4.86033">
        <ele>340</ele>
        <time>2021-05-15T10:02:48.000Z</time>
      </trkpt>
      <trkpt lat="49.83019" lon="4.8604">
        <ele>340</ele>
        <time>2021-05-15T10:02:49.000Z</time>
      </trkpt>
      <trkpt lat="49.83019" lon="4.86046">
        <ele>340</ele>
        <time>2021-05-15T10:02:50.000Z</time>
      </trkpt>
      <trkpt lat="49.8302" lon="4.86053">
        <ele>340</ele>
        <time>2021-05-15T10:02:51.000Z</time>
      </trkpt>
      <trkpt lat="49.83021" lon="4.86059">
        <ele>340</ele>
        <time>2021-05-15T10:02:52.000Z</time>
      </trkpt>
      <trkpt lat="49.83021" lon="4.86066">
        <ele>340</ele>
        <time>2021-05-15T10:02:53.000Z</time>
      </trkpt>
      <trkpt lat="49.83021" lon="4.86072">
        <ele>340</ele>
        <time>2021-05-15T10:02:54.000Z</time>
      </trkpt>
      <trkpt lat="49.83022" lon="4.86079">
        <ele>340</ele>
        <time>2021-05-15T10:02:55.000Z</time>
      </trkpt>
      <trkpt lat="49.83023" lon="4.86086">
        <ele>340</ele>
        <time>2021-05-15T10:02:56.000Z</time>
      </trkpt>
      <trkpt lat="49.83023" lon="4.86092">
        <ele>340</ele>
        <time>2021-05-15T10:02:57.000Z</time>
      </trkpt>
      <trkpt lat="49.83024" lon="4.86099">
        <ele>340</ele>
        <time>2021-05-15T10:02:58.000Z</time>
      </trkpt>
      <trkpt lat="49.83025" lon="4.86105">
        <ele>340</ele>
        <time>2021-05-15T10:02:59.000Z</time>
      </trkpt>
      <trkpt lat="49.83025" lon="4.86112">
        <ele>340</ele>
        <time>2021-05-15T10:03:00.000Z</time>
      </trkpt>
      <trkpt lat="49.83025" lon="4.86119">
        <ele>340</ele>
        <time>2021-05-15T10:03:01.000Z</time>
      </trkpt>
      <trkpt lat="49.83025" lon="4.86126">
        <ele>340</ele>
        <time>2021-05-15T10:03:02.000Z</time>
      </trkpt>
      <trkpt lat="49.83025" lon="4.86133">
        <ele>340</ele>
        <time>2021-05-15T10:03:03.000Z</time>
      </trkpt>
      <trkpt lat="49.83025" lon="4.86139">
        <ele>340</ele>
        <time>2021-05-15T10:03:04.000Z</time>
      </trkpt>
      <trkpt lat="49.83025" lon="4.86146">
        <ele>340</ele>
        <time>2021-05-15T10:03:05.000Z</time>
      </trkpt>
      <trkpt lat="49.83025" lon="4.86152">
        <ele>340</ele>
        <time>2021-05-15T10:03:06.000Z</time>
      </trkpt>
      <trkpt lat="49.83024" lon="4.86159">
        <ele>340</ele>
        <time>2021-05-15T10:03:07.000Z</time>
      </trkpt>
      <trkpt lat="49.83023" lon="4.86166">
        <ele>340</ele>
        <time>2021-05-15T10:03:08.000Z</time>
      </trkpt>
      <trkpt lat="49.83023" lon="4.86172">
        <ele>340</ele>
        <time>2021-05-15T10:03:09.000Z</time>
      </trkpt>
      <trkpt lat="49.83022" lon="4.86179">
        <ele>340</ele>
        <time>2021-05-15T10:03:10.000Z</time>
      </trkpt>
      <trkpt lat="49.83021" lon="4.86185">
        <ele>340</ele>
        <time>2021-05-15T10:03:11.000Z</time>
      </trkpt>
      <trkpt lat="49.8302" lon="4.86192">
        <ele>340</ele>
        <time>2021-05-15T10:03:12.000Z</time>
      </trkpt>
      <trkpt lat="49.83019" lon="4.86198">
        <ele>340</ele>
        <time>2021-05-15T10:03:13.000Z</time>
      </trkpt>
      <trkpt lat="49.83018" lon="4.86205">
        <ele>340</ele>
        <time>2021-05-15T10:03:14.000Z</time>
      </trkpt>
      <trkpt lat="49.83017" lon="4.86211">
        <ele>340</ele>
        <time>2021-05-15T10:03:15.000Z</time>
      </trkpt>
      <trkpt lat="49.83016" lon="4.86217">
        <ele>340</ele>
        <time>2021-05-15T10:03:16.000Z</time>
      </trkpt>
      <trkpt lat="49.83014" lon="4.86224">
        <ele>341</ele>
        <time>2021-05-15T10:03:17.000Z</time>
      </trkpt>
      <trkpt lat="49.83012" lon="4.8623">
        <ele>341</ele>
        <time>2021-05-15T10:03:18.000Z</time>
      </trkpt>
      <trkpt lat="49.8301" lon="4.86236">
        <ele>341</ele>
        <time>2021-05-15T10:03:19.000Z</time>
      </trkpt>
      <trkpt lat="49.83009" lon="4.86242">
        <ele>341</ele>
        <time>2021-05-15T10:03:20.000Z</time>
      </trkpt>
      <trkpt lat="49.83007" lon="4.86248">
        <ele>340</ele>
        <time>2021-05-15T10:03:21.000Z</time>
      </trkpt>
      <trkpt lat="49.83005" lon="4.86254">
        <ele>340</ele>
        <time>2021-05-15T10:03:22.000Z</time>
      </trkpt>
      <trkpt lat="49.83003" lon="4.8626">
        <ele>340</ele>
        <time>2021-05-15T10:03:23.000Z</time>
      </trkpt>
      <trkpt lat="49.83001" lon="4.86265">
        <ele>340</ele>
        <time>2021-05-15T10:03:24.000Z</time>
      </trkpt>
      <trkpt lat="49.82999" lon="4.86271">
        <ele>340</ele>
        <time>2021-05-15T10:03:25.000Z</time>
      </trkpt>
      <trkpt lat="49.82997" lon="4.86278">
        <ele>340</ele>
        <time>2021-05-15T10:03:26.000Z</time>
      </trkpt>
      <trkpt lat="49.82996" lon="4.86284">
        <ele>340</ele>
        <time>2021-05-15T10:03:27.000Z</time>
      </trkpt>
      <trkpt lat="49.82995" lon="4.86291">
        <ele>340</ele>
        <time>2021-05-15T10:03:28.000Z</time>
      </trkpt>
      <trkpt lat="49.82993" lon="4.86298">
        <ele>340</ele>
        <time>2021-05-15T10:03:29.000Z</time>
      </trkpt>
      <trkpt lat="49.82991" lon="4.86304">
        <ele>340</ele>
        <time>2021-05-15T10:03:30.000Z</time>
      </trkpt>
      <trkpt lat="49.8299" lon="4.8631">
        <ele>340</ele>
        <time>2021-05-15T10:03:31.000Z</time>
      </trkpt>
      <trkpt lat="49.82989" lon="4.86317">
        <ele>340</ele>
        <time>2021-05-15T10:03:32.000Z</time>
      </trkpt>
      <trkpt lat="49.82988" lon="4.86323">
        <ele>340</ele>
        <time>2021-05-15T10:03:33.000Z</time>
      </trkpt>
      <trkpt lat="49.82986" lon="4.86329">
        <ele>340</ele>
        <time>2021-05-15T10:03:34.000Z</time>
      </trkpt>
      <trkpt lat="49.82984" lon="4.86334">
        <ele>341</ele>
        <time>2021-05-15T10:03:35.000Z</time>
      </trkpt>
      <trkpt lat="49.82982" lon="4.86341">
        <ele>341</ele>
        <time>2021-05-15T10:03:36.000Z</time>
      </trkpt>
      <trkpt lat="49.8298" lon="4.86347">
        <ele>341</ele>
        <time>2021-05-15T10:03:37.000Z</time>
      </trkpt>
      <trkpt lat="49.82978" lon="4.86353">
        <ele>341</ele>
        <time>2021-05-15T10:03:38.000Z</time>
      </trkpt>
      <trkpt lat="49.82975" lon="4.86359">
        <ele>341</ele>
        <time>2021-05-15T10:03:39.000Z</time>
      </trkpt>
      <trkpt lat="49.82972" lon="4.86366">
        <ele>341</ele>
        <time>2021-05-15T10:03:40.000Z</time>
      </trkpt>
      <trkpt lat="49.8297" lon="4.86372">
        <ele>341</ele>
        <time>2021-05-15T10:03:41.000Z</time>
      </trkpt>
      <trkpt lat="49.82967" lon="4.86378">
        <ele>342</ele>
        <time>2021-05-15T10:03:42.000Z</time>
      </trkpt>
      <trkpt lat="49.82964" lon="4.86384">
        <ele>342</ele>
        <time>2021-05-15T10:03:43.000Z</time>
      </trkpt>
      <trkpt lat="49.82961" lon="4.8639">
        <ele>342</ele>
        <time>2021-05-15T10:03:44.000Z</time>
      </trkpt>
      <trkpt lat="49.82959" lon="4.86396">
        <ele>342</ele>
        <time>2021-05-15T10:03:45.000Z</time>
      </trkpt>
      <trkpt lat="49.82956" lon="4.86403">
        <ele>342</ele>
        <time>2021-05-15T10:03:46.000Z</time>
      </trkpt>
      <trkpt lat="49.82954" lon="4.86409">
        <ele>343</ele>
        <time>2021-05-15T10:03:47.000Z</time>
      </trkpt>
      <trkpt lat="49.82951" lon="4.86416">
        <ele>343</ele>
        <time>2021-05-15T10:03:48.000Z</time>
      </trkpt>
      <trkpt lat="49.82948" lon="4.86422">
        <ele>343</ele>
        <time>2021-05-15T10:03:49.000Z</time>
      </trkpt>
      <trkpt lat="49.82946" lon="4.86428">
        <ele>343</ele>
        <time>2021-05-15T10:03:50.000Z</time>
      </trkpt>
      <trkpt lat="49.82943" lon="4.86434">
        <ele>343</ele>
        <time>2021-05-15T10:03:51.000Z</time>
      </trkpt>
      <trkpt lat="49.82941" lon="4.8644">
        <ele>343</ele>
        <time>2021-05-15T10:03:52.000Z</time>
      </trkpt>
      <trkpt lat="49.82938" lon="4.86445">
        <ele>343</ele>
        <time>2021-05-15T10:03:53.000Z</time>
      </trkpt>
      <trkpt lat="49.82936" lon="4.86451">
        <ele>343</ele>
        <time>2021-05-15T10:03:54.000Z</time>
      </trkpt>
      <trkpt lat="49.82934" lon="4.86457">
        <ele>343</ele>
        <time>2021-05-15T10:03:55.000Z</time>
      </trkpt>
      <trkpt lat="49.82932" lon="4.86462">
        <ele>344</ele>
        <time>2021-05-15T10:03:56.000Z</time>
      </trkpt>
      <trkpt lat="49.82929" lon="4.86468">
        <ele>344</ele>
        <time>2021-05-15T10:03:57.000Z</time>
      </trkpt>
      <trkpt lat="49.82926" lon="4.86474">
        <ele>344</ele>
        <time>2021-05-15T10:03:58.000Z</time>
      </trkpt>
      <trkpt lat="49.82924" lon="4.8648">
        <ele>344</ele>
        <time>2021-05-15T10:03:59.000Z</time>
      </trkpt>
      <trkpt lat="49.82922" lon="4.86487">
        <ele>344</ele>
        <time>2021-05-15T10:04:00.000Z</time>
      </trkpt>
      <trkpt lat="49.82919" lon="4.86492">
        <ele>344</ele>
        <time>2021-05-15T10:04:01.000Z</time>
      </trkpt>
      <trkpt lat="49.82915" lon="4.86498">
        <ele>345</ele>
        <time>2021-05-15T10:04:02.000Z</time>
      </trkpt>
      <trkpt lat="49.82912" lon="4.86503">
        <ele>345</ele>
        <time>2021-05-15T10:04:03.000Z</time>
      </trkpt>
      <trkpt lat="49.82908" lon="4.86508">
        <ele>345</ele>
        <time>2021-05-15T10:04:04.000Z</time>
      </trkpt>
      <trkpt lat="49.82905" lon="4.86513">
        <ele>345</ele>
        <time>2021-05-15T10:04:05.000Z</time>
      </trkpt>
      <trkpt lat="49.82901" lon="4.86518">
        <ele>345</ele>
        <time>2021-05-15T10:04:06.000Z</time>
      </trkpt>
      <trkpt lat="49.82898" lon="4.86523">
        <ele>346</ele>
        <time>2021-05-15T10:04:07.000Z</time>
      </trkpt>
      <trkpt lat="49.82895" lon="4.86529">
        <ele>346</ele>
        <time>2021-05-15T10:04:08.000Z</time>
      </trkpt>
      <trkpt lat="49.82892" lon="4.86533">
        <ele>346</ele>
        <time>2021-05-15T10:04:09.000Z</time>
      </trkpt>
      <trkpt lat="49.82889" lon="4.86536">
        <ele>346</ele>
        <time>2021-05-15T10:04:10.000Z</time>
      </trkpt>
      <trkpt lat="49.82886" lon="4.86539">
        <ele>346</ele>
        <time>2021-05-15T10:04:11.000Z</time>
      </trkpt>
      <trkpt lat="49.82883" lon="4.86542">
        <ele>347</ele>
        <time>2021-05-15T10:04:12.000Z</time>
      </trkpt>
      <trkpt lat="49.8288" lon="4.86544">
        <ele>347</ele>
        <time>2021-05-15T10:04:13.000Z</time>
      </trkpt>
      <trkpt lat="49.82877" lon="4.86546">
        <ele>347</ele>
        <time>2021-05-15T10:04:14.000Z</time>
      </trkpt>
      <trkpt lat="49.82874" lon="4.86548">
        <ele>347</ele>
        <time>2021-05-15T10:04:15.000Z</time>
      </trkpt>
      <trkpt lat="49.82871" lon="4.8655">
        <ele>347</ele>
        <time>2021-05-15T10:04:16.000Z</time>
      </trkpt>
      <trkpt lat="49.82868" lon="4.86552">
        <ele>347</ele>
        <time>2021-05-15T10:04:17.000Z</time>
      </trkpt>
      <trkpt lat="49.82864" lon="4.86555">
        <ele>347</ele>
        <time>2021-05-15T10:04:18.000Z</time>
      </trkpt>
      <trkpt lat="49.82859" lon="4.86557">
        <ele>347</ele>
        <time>2021-05-15T10:04:19.000Z</time>
      </trkpt>
      <trkpt lat="49.82855" lon="4.86559">
        <ele>347</ele>
        <time>2021-05-15T10:04:20.000Z</time>
      </trkpt>
      <trkpt lat="49.8285" lon="4.86562">
        <ele>347</ele>
        <time>2021-05-15T10:04:21.000Z</time>
      </trkpt>
      <trkpt lat="49.82846" lon="4.86565">
        <ele>347</ele>
        <time>2021-05-15T10:04:22.000Z</time>
      </trkpt>
      <trkpt lat="49.82841" lon="4.86567">
        <ele>347</ele>
        <time>2021-05-15T10:04:23.000Z</time>
      </trkpt>
      <trkpt lat="49.82836" lon="4.86569">
        <ele>347</ele>
        <time>2021-05-15T10:04:24.000Z</time>
      </trkpt>
      <trkpt lat="49.82831" lon="4.86572">
        <ele>347</ele>
        <time>2021-05-15T10:04:25.000Z</time>
      </trkpt>
      <trkpt lat="49.82826" lon="4.86574">
        <ele>348</ele>
        <time>2021-05-15T10:04:26.000Z</time>
      </trkpt>
      <trkpt lat="49.82821" lon="4.86576">
        <ele>348</ele>
        <time>2021-05-15T10:04:27.000Z</time>
      </trkpt>
      <trkpt lat="49.82816" lon="4.86578">
        <ele>348</ele>
        <time>2021-05-15T10:04:28.000Z</time>
      </trkpt>
      <trkpt lat="49.82812" lon="4.8658">
        <ele>348</ele>
        <time>2021-05-15T10:04:29.000Z</time>
      </trkpt>
      <trkpt lat="49.82809" lon="4.86583">
        <ele>348</ele>
        <time>2021-05-15T10:04:30.000Z</time>
      </trkpt>
      <trkpt lat="49.82806" lon="4.86584">
        <ele>348</ele>
        <time>2021-05-15T10:04:31.000Z</time>
      </trkpt>
      <trkpt lat="49.82802" lon="4.86587">
        <ele>348</ele>
        <time>2021-05-15T10:04:32.000Z</time>
      </trkpt>
      <trkpt lat="49.82799" lon="4.86589">
        <ele>348</ele>
        <time>2021-05-15T10:04:33.000Z</time>
      </trkpt>
      <trkpt lat="49.82795" lon="4.86592">
        <ele>348</ele>
        <time>2021-05-15T10:04:34.000Z</time>
      </trkpt>
      <trkpt lat="49.82792" lon="4.86595">
        <ele>348</ele>
        <time>2021-05-15T10:04:35.000Z</time>
      </trkpt>
      <trkpt lat="49.82788" lon="4.86597">
        <ele>349</ele>
        <time>2021-05-15T10:04:36.000Z</time>
      </trkpt>
      <trkpt lat="49.82784" lon="4.866">
        <ele>349</ele>
        <time>2021-05-15T10:04:37.000Z</time>
      </trkpt>
      <trkpt lat="49.82781" lon="4.86602">
        <ele>349</ele>
        <time>2021-05-15T10:04:38.000Z</time>
      </trkpt>
      <trkpt lat="49.82777" lon="4.86604">
        <ele>349</ele>
        <time>2021-05-15T10:04:39.000Z</time>
      </trkpt>
      <trkpt lat="49.82773" lon="4.86606">
        <ele>349</ele>
        <time>2021-05-15T10:04:40.000Z</time>
      </trkpt>
      <trkpt lat="49.82769" lon="4.86608">
        <ele>349</ele>
        <time>2021-05-15T10:04:41.000Z</time>
      </trkpt>
      <trkpt lat="49.82766" lon="4.8661">
        <ele>349</ele>
        <time>2021-05-15T10:04:42.000Z</time>
      </trkpt>
      <trkpt lat="49.82762" lon="4.86613">
        <ele>350</ele>
        <time>2021-05-15T10:04:43.000Z</time>
      </trkpt>
      <trkpt lat="49.82757" lon="4.86617">
        <ele>350</ele>
        <time>2021-05-15T10:04:44.000Z</time>
      </trkpt>
      <trkpt lat="49.82753" lon="4.8662">
        <ele>350</ele>
        <time>2021-05-15T10:04:45.000Z</time>
      </trkpt>
      <trkpt lat="49.8275" lon="4.86624">
        <ele>350</ele>
        <time>2021-05-15T10:04:46.000Z</time>
      </trkpt>
      <trkpt lat="49.82746" lon="4.86629">
        <ele>350</ele>
        <time>2021-05-15T10:04:47.000Z</time>
      </trkpt>
      <trkpt lat="49.82743" lon="4.86633">
        <ele>350</ele>
        <time>2021-05-15T10:04:48.000Z</time>
      </trkpt>
      <trkpt lat="49.82739" lon="4.86639">
        <ele>350</ele>
        <time>2021-05-15T10:04:49.000Z</time>
      </trkpt>
      <trkpt lat="49.82736" lon="4.86644">
        <ele>350</ele>
        <time>2021-05-15T10:04:50.000Z</time>
      </trkpt>
      <trkpt lat="49.82732" lon="4.86649">
        <ele>350</ele>
        <time>2021-05-15T10:04:51.000Z</time>
      </trkpt>
      <trkpt lat="49.82729" lon="4.86653">
        <ele>351</ele>
        <time>2021-05-15T10:04:52.000Z</time>
      </trkpt>
      <trkpt lat="49.82726" lon="4.86659">
        <ele>351</ele>
        <time>2021-05-15T10:04:53.000Z</time>
      </trkpt>
      <trkpt lat="49.82723" lon="4.86665">
        <ele>351</ele>
        <time>2021-05-15T10:04:54.000Z</time>
      </trkpt>
      <trkpt lat="49.82719" lon="4.86671">
        <ele>351</ele>
        <time>2021-05-15T10:04:55.000Z</time>
      </trkpt>
      <trkpt lat="49.82716" lon="4.86677">
        <ele>351</ele>
        <time>2021-05-15T10:04:56.000Z</time>
      </trkpt>
      <trkpt lat="49.82712" lon="4.86683">
        <ele>351</ele>
        <time>2021-05-15T10:04:57.000Z</time>
      </trkpt>
      <trkpt lat="49.82708" lon="4.86689">
        <ele>351</ele>
        <time>2021-05-15T10:04:58.000Z</time>
      </trkpt>
      <trkpt lat="49.82704" lon="4.86695">
        <ele>351</ele>
        <time>2021-05-15T10:04:59.000Z</time>
      </trkpt>
      <trkpt lat="49.82701" lon="4.867">
        <ele>351</ele>
        <time>2021-05-15T10:05:00.000Z</time>
      </trkpt>
      <trkpt lat="49.82698" lon="4.86706">
        <ele>352</ele>
        <time>2021-05-15T10:05:01.000Z</time>
      </trkpt>
      <trkpt lat="49.82695" lon="4.86711">
        <ele>352</ele>
        <time>2021-05-15T10:05:02.000Z</time>
      </trkpt>
      <trkpt lat="49.82692" lon="4.86716">
        <ele>352</ele>
        <time>2021-05-15T10:05:03.000Z</time>
      </trkpt>
      <trkpt lat="49.8269" lon="4.86721">
        <ele>352</ele>
        <time>2021-05-15T10:05:04.000Z</time>
      </trkpt>
      <trkpt lat="49.82687" lon="4.86726">
        <ele>352</ele>
        <time>2021-05-15T10:05:05.000Z</time>
      </trkpt>
      <trkpt lat="49.82685" lon="4.86731">
        <ele>352</ele>
        <time>2021-05-15T10:05:06.000Z</time>
      </trkpt>
      <trkpt lat="49.82682" lon="4.86737">
        <ele>352</ele>
        <time>2021-05-15T10:05:07.000Z</time>
      </trkpt>
      <trkpt lat="49.82679" lon="4.86743">
        <ele>352</ele>
        <time>2021-05-15T10:05:08.000Z</time>
      </trkpt>
      <trkpt lat="49.82676" lon="4.8675">
        <ele>352</ele>
        <time>2021-05-15T10:05:09.000Z</time>
      </trkpt>
      <trkpt lat="49.82673" lon="4.86756">
        <ele>352</ele>
        <time>2021-05-15T10:05:10.000Z</time>
      </trkpt>
      <trkpt lat="49.8267" lon="4.86761">
        <ele>352</ele>
        <time>2021-05-15T10:05:11.000Z</time>
      </trkpt>
      <trkpt lat="49.82667" lon="4.86767">
        <ele>352</ele>
        <time>2021-05-15T10:05:12.000Z</time>
      </trkpt>
      <trkpt lat="49.82664" lon="4.86773">
        <ele>352</ele>
        <time>2021-05-15T10:05:13.000Z</time>
      </trkpt>
      <trkpt lat="49.82662" lon="4.8678">
        <ele>352</ele>
        <time>2021-05-15T10:05:14.000Z</time>
      </trkpt>
      <trkpt lat="49.82659" lon="4.86786">
        <ele>352</ele>
        <time>2021-05-15T10:05:15.000Z</time>
      </trkpt>
      <trkpt lat="49.82657" lon="4.86792">
        <ele>352</ele>
        <time>2021-05-15T10:05:16.000Z</time>
      </trkpt>
      <trkpt lat="49.82655" lon="4.86798">
        <ele>352</ele>
        <time>2021-05-15T10:05:17.000Z</time>
      </trkpt>
      <trkpt lat="49.82654" lon="4.86804">
        <ele>353</ele>
        <time>2021-05-15T10:05:18.000Z</time>
      </trkpt>
      <trkpt lat="49.82652" lon="4.86811">
        <ele>353</ele>
        <time>2021-05-15T10:05:19.000Z</time>
      </trkpt>
      <trkpt lat="49.82651" lon="4.86817">
        <ele>353</ele>
        <time>2021-05-15T10:05:20.000Z</time>
      </trkpt>
      <trkpt lat="49.82649" lon="4.86823">
        <ele>353</ele>
        <time>2021-05-15T10:05:21.000Z</time>
      </trkpt>
      <trkpt lat="49.82648" lon="4.86828">
        <ele>353</ele>
        <time>2021-05-15T10:05:22.000Z</time>
      </trkpt>
      <trkpt lat="49.82647" lon="4.86834">
        <ele>353</ele>
        <time>2021-05-15T10:05:23.000Z</time>
      </trkpt>
      <trkpt lat="49.82647" lon="4.8684">
        <ele>353</ele>
        <time>2021-05-15T10:05:24.000Z</time>
      </trkpt>
      <trkpt lat="49.82646" lon="4.86846">
        <ele>353</ele>
        <time>2021-05-15T10:05:25.000Z</time>
      </trkpt>
      <trkpt lat="49.82646" lon="4.86852">
        <ele>353</ele>
        <time>2021-05-15T10:05:26.000Z</time>
      </trkpt>
      <trkpt lat="49.82645" lon="4.86857">
        <ele>353</ele>
        <time>2021-05-15T10:05:27.000Z</time>
      </trkpt>
      <trkpt lat="49.82645" lon="4.86862">
        <ele>353</ele>
        <time>2021-05-15T10:05:28.000Z</time>
      </trkpt>
      <trkpt lat="49.82645" lon="4.86868">
        <ele>353</ele>
        <time>2021-05-15T10:05:29.000Z</time>
      </trkpt>
      <trkpt lat="49.82645" lon="4.86874">
        <ele>353</ele>
        <time>2021-05-15T10:05:30.000Z</time>
      </trkpt>
      <trkpt lat="49.82644" lon="4.8688">
        <ele>353</ele>
        <time>2021-05-15T10:05:31.000Z</time>
      </trkpt>
      <trkpt lat="49.82642" lon="4.86886">
        <ele>353</ele>
        <time>2021-05-15T10:05:32.000Z</time>
      </trkpt>
      <trkpt lat="49.82641" lon="4.86892">
        <ele>353</ele>
        <time>2021-05-15T10:05:33.000Z</time>
      </trkpt>
      <trkpt lat="49.82639" lon="4.86897">
        <ele>353</ele>
        <time>2021-05-15T10:05:34.000Z</time>
      </trkpt>
      <trkpt lat="49.82638" lon="4.86903">
        <ele>353</ele>
        <time>2021-05-15T10:05:35.000Z</time>
      </trkpt>
      <trkpt lat="49.82637" lon="4.86909">
        <ele>353</ele>
        <time>2021-05-15T10:05:36.000Z</time>
      </trkpt>
      <trkpt lat="49.82635" lon="4.86915">
        <ele>353</ele>
        <time>2021-05-15T10:05:37.000Z</time>
      </trkpt>
      <trkpt lat="49.82635" lon="4.86921">
        <ele>353</ele>
        <time>2021-05-15T10:05:38.000Z</time>
      </trkpt>
      <trkpt lat="49.82634" lon="4.86927">
        <ele>353</ele>
        <time>2021-05-15T10:05:39.000Z</time>
      </trkpt>
      <trkpt lat="49.82633" lon="4.86933">
        <ele>352</ele>
        <time>2021-05-15T10:05:40.000Z</time>
      </trkpt>
      <trkpt lat="49.82633" lon="4.8694">
        <ele>352</ele>
        <time>2021-05-15T10:05:41.000Z</time>
      </trkpt>
      <trkpt lat="49.82632" lon="4.86946">
        <ele>352</ele>
        <time>2021-05-15T10:05:42.000Z</time>
      </trkpt>
      <trkpt lat="49.82631" lon="4.86953">
        <ele>353</ele>
        <time>2021-05-15T10:05:43.000Z</time>
      </trkpt>
      <trkpt lat="49.8263" lon="4.86959">
        <ele>353</ele>
        <time>2021-05-15T10:05:44.000Z</time>
      </trkpt>
      <trkpt lat="49.82629" lon="4.86965">
        <ele>353</ele>
        <time>2021-05-15T10:05:45.000Z</time>
      </trkpt>
      <trkpt lat="49.82627" lon="4.86971">
        <ele>353</ele>
        <time>2021-05-15T10:05:46.000Z</time>
      </trkpt>
      <trkpt lat="49.82626" lon="4.86977">
        <ele>353</ele>
        <time>2021-05-15T10:05:47.000Z</time>
      </trkpt>
      <trkpt lat="49.82624" lon="4.86983">
        <ele>353</ele>
        <time>2021-05-15T10:05:48.000Z</time>
      </trkpt>
      <trkpt lat="49.82622" lon="4.86989">
        <ele>353</ele>
        <time>2021-05-15T10:05:49.000Z</time>
      </trkpt>
      <trkpt lat="49.8262" lon="4.86994">
        <ele>353</ele>
        <time>2021-05-15T10:05:50.000Z</time>
      </trkpt>
      <trkpt lat="49.82618" lon="4.87">
        <ele>353</ele>
        <time>2021-05-15T10:05:51.000Z</time>
      </trkpt>
      <trkpt lat="49.82615" lon="4.87005">
        <ele>354</ele>
        <time>2021-05-15T10:05:52.000Z</time>
      </trkpt>
      <trkpt lat="49.82612" lon="4.87009">
        <ele>354</ele>
        <time>2021-05-15T10:05:53.000Z</time>
      </trkpt>
      <trkpt lat="49.82609" lon="4.87013">
        <ele>354</ele>
        <time>2021-05-15T10:05:54.000Z</time>
      </trkpt>
      <trkpt lat="49.82606" lon="4.87018">
        <ele>354</ele>
        <time>2021-05-15T10:05:55.000Z</time>
      </trkpt>
      <trkpt lat="49.82602" lon="4.87022">
        <ele>354</ele>
        <time>2021-05-15T10:05:56.000Z</time>
      </trkpt>
      <trkpt lat="49.82599" lon="4.87026">
        <ele>354</ele>
        <time>2021-05-15T10:05:57.000Z</time>
      </trkpt>
      <trkpt lat="49.82595" lon="4.8703">
        <ele>354</ele>
        <time>2021-05-15T10:05:58.000Z</time>
      </trkpt>
      <trkpt lat="49.82592" lon="4.87033">
        <ele>354</ele>
        <time>2021-05-15T10:05:59.000Z</time>
      </trkpt>
      <trkpt lat="49.82589" lon="4.87037">
        <ele>355</ele>
        <time>2021-05-15T10:06:00.000Z</time>
      </trkpt>
      <trkpt lat="49.82585" lon="4.8704">
        <ele>355</ele>
        <time>2021-05-15T10:06:01.000Z</time>
      </trkpt>
      <trkpt lat="49.82581" lon="4.87043">
        <ele>355</ele>
        <time>2021-05-15T10:06:02.000Z</time>
      </trkpt>
      <trkpt lat="49.82578" lon="4.87046">
        <ele>355</ele>
        <time>2021-05-15T10:06:03.000Z</time>
      </trkpt>
      <trkpt lat="49.82575" lon="4.8705">
        <ele>355</ele>
        <time>2021-05-15T10:06:04.000Z</time>
      </trkpt>
      <trkpt lat="49.82572" lon="4.87054">
        <ele>355</ele>
        <time>2021-05-15T10:06:05.000Z</time>
      </trkpt>
      <trkpt lat="49.8257" lon="4.87057">
        <ele>355</ele>
        <time>2021-05-15T10:06:06.000Z</time>
      </trkpt>
      <trkpt lat="49.82567" lon="4.8706">
        <ele>355</ele>
        <time>2021-05-15T10:06:07.000Z</time>
      </trkpt>
      <trkpt lat="49.82564" lon="4.87064">
        <ele>355</ele>
        <time>2021-05-15T10:06:08.000Z</time>
      </trkpt>
      <trkpt lat="49.8256" lon="4.87068">
        <ele>355</ele>
        <time>2021-05-15T10:06:09.000Z</time>
      </trkpt>
      <trkpt lat="49.82557" lon="4.87072">
        <ele>355</ele>
        <time>2021-05-15T10:06:10.000Z</time>
      </trkpt>
      <trkpt lat="49.82553" lon="4.87075">
        <ele>355</ele>
        <time>2021-05-15T10:06:11.000Z</time>
      </trkpt>
      <trkpt lat="49.8255" lon="4.87078">
        <ele>355</ele>
        <time>2021-05-15T10:06:12.000Z</time>
      </trkpt>
      <trkpt lat="49.82546" lon="4.87082">
        <ele>356</ele>
        <time>2021-05-15T10:06:13.000Z</time>
      </trkpt>
      <trkpt lat="49.82543" lon="4.87086">
        <ele>356</ele>
        <time>2021-05-15T10:06:14.000Z</time>
      </trkpt>
      <trkpt lat="49.82539" lon="4.8709">
        <ele>356</ele>
        <time>2021-05-15T10:06:15.000Z</time>
      </trkpt>
      <trkpt lat="49.82536" lon="4.87094">
        <ele>355</ele>
        <time>2021-05-15T10:06:16.000Z</time>
      </trkpt>
      <trkpt lat="49.82532" lon="4.87099">
        <ele>355</ele>
        <time>2021-05-15T10:06:17.000Z</time>
      </trkpt>
      <trkpt lat="49.82528" lon="4.87104">
        <ele>355</ele>
        <time>2021-05-15T10:06:18.000Z</time>
      </trkpt>
      <trkpt lat="49.82524" lon="4.87109">
        <ele>355</ele>
        <time>2021-05-15T10:06:19.000Z</time>
      </trkpt>
      <trkpt lat="49.8252" lon="4.87116">
        <ele>355</ele>
        <time>2021-05-15T10:06:20.000Z</time>
      </trkpt>
      <trkpt lat="49.82516" lon="4.87122">
        <ele>355</ele>
        <time>2021-05-15T10:06:21.000Z</time>
      </trkpt>
      <trkpt lat="49.82512" lon="4.87129">
        <ele>355</ele>
        <time>2021-05-15T10:06:22.000Z</time>
      </trkpt>
      <trkpt lat="49.82508" lon="4.87135">
        <ele>355</ele>
        <time>2021-05-15T10:06:23.000Z</time>
      </trkpt>
      <trkpt lat="49.82505" lon="4.87142">
        <ele>355</ele>
        <time>2021-05-15T10:06:24.000Z</time>
      </trkpt>
      <trkpt lat="49.82501" lon="4.87149">
        <ele>355</ele>
        <time>2021-05-15T10:06:25.000Z</time>
      </trkpt>
      <trkpt lat="49.82498" lon="4.87156">
        <ele>355</ele>
        <time>2021-05-15T10:06:26.000Z</time>
      </trkpt>
      <trkpt lat="49.82494" lon="4.87163">
        <ele>355</ele>
        <time>2021-05-15T10:06:27.000Z</time>
      </trkpt>
      <trkpt lat="49.82491" lon="4.8717">
        <ele>354</ele>
        <time>2021-05-15T10:06:28.000Z</time>
      </trkpt>
      <trkpt lat="49.82488" lon="4.87177">
        <ele>354</ele>
        <time>2021-05-15T10:06:29.000Z</time>
      </trkpt>
      <trkpt lat="49.82485" lon="4.87185">
        <ele>354</ele>
        <time>2021-05-15T10:06:30.000Z</time>
      </trkpt>
      <trkpt lat="49.82482" lon="4.87192">
        <ele>354</ele>
        <time>2021-05-15T10:06:31.000Z</time>
      </trkpt>
      <trkpt lat="49.82479" lon="4.872">
        <ele>354</ele>
        <time>2021-05-15T10:06:32.000Z</time>
      </trkpt>
      <trkpt lat="49.82476" lon="4.87207">
        <ele>354</ele>
        <time>2021-05-15T10:06:33.000Z</time>
      </trkpt>
      <trkpt lat="49.82473" lon="4.87214">
        <ele>354</ele>
        <time>2021-05-15T10:06:34.000Z</time>
      </trkpt>
      <trkpt lat="49.8247" lon="4.87222">
        <ele>354</ele>
        <time>2021-05-15T10:06:35.000Z</time>
      </trkpt>
      <trkpt lat="49.82467" lon="4.87229">
        <ele>354</ele>
        <time>2021-05-15T10:06:36.000Z</time>
      </trkpt>
      <trkpt lat="49.82464" lon="4.87236">
        <ele>354</ele>
        <time>2021-05-15T10:06:37.000Z</time>
      </trkpt>
      <trkpt lat="49.82461" lon="4.87243">
        <ele>354</ele>
        <time>2021-05-15T10:06:38.000Z</time>
      </trkpt>
      <trkpt lat="49.82458" lon="4.87249">
        <ele>354</ele>
        <time>2021-05-15T10:06:39.000Z</time>
      </trkpt>
      <trkpt lat="49.82455" lon="4.87255">
        <ele>354</ele>
        <time>2021-05-15T10:06:40.000Z</time>
      </trkpt>
      <trkpt lat="49.82452" lon="4.87262">
        <ele>354</ele>
        <time>2021-05-15T10:06:41.000Z</time>
      </trkpt>
      <trkpt lat="49.82449" lon="4.87268">
        <ele>354</ele>
        <time>2021-05-15T10:06:42.000Z</time>
      </trkpt>
      <trkpt lat="49.82447" lon="4.87274">
        <ele>354</ele>
        <time>2021-05-15T10:06:43.000Z</time>
      </trkpt>
      <trkpt lat="49.82445" lon="4.8728">
        <ele>355</ele>
        <time>2021-05-15T10:06:44.000Z</time>
      </trkpt>
      <trkpt lat="49.82442" lon="4.87285">
        <ele>355</ele>
        <time>2021-05-15T10:06:45.000Z</time>
      </trkpt>
      <trkpt lat="49.8244" lon="4.87291">
        <ele>355</ele>
        <time>2021-05-15T10:06:46.000Z</time>
      </trkpt>
      <trkpt lat="49.82438" lon="4.87298">
        <ele>355</ele>
        <time>2021-05-15T10:06:47.000Z</time>
      </trkpt>
      <trkpt lat="49.82436" lon="4.87304">
        <ele>355</ele>
        <time>2021-05-15T10:06:48.000Z</time>
      </trkpt>
      <trkpt lat="49.82435" lon="4.87311">
        <ele>355</ele>
        <time>2021-05-15T10:06:49.000Z</time>
      </trkpt>
      <trkpt lat="49.82433" lon="4.87317">
        <ele>355</ele>
        <time>2021-05-15T10:06:50.000Z</time>
      </trkpt>
      <trkpt lat="49.82431" lon="4.87324">
        <ele>355</ele>
        <time>2021-05-15T10:06:51.000Z</time>
      </trkpt>
      <trkpt lat="49.82429" lon="4.8733">
        <ele>355</ele>
        <time>2021-05-15T10:06:52.000Z</time>
      </trkpt>
      <trkpt lat="49.82428" lon="4.87337">
        <ele>355</ele>
        <time>2021-05-15T10:06:53.000Z</time>
      </trkpt>
      <trkpt lat="49.82427" lon="4.87344">
        <ele>356</ele>
        <time>2021-05-15T10:06:54.000Z</time>
      </trkpt>
      <trkpt lat="49.82427" lon="4.87351">
        <ele>356</ele>
        <time>2021-05-15T10:06:55.000Z</time>
      </trkpt>
      <trkpt lat="49.82426" lon="4.87358">
        <ele>356</ele>
        <time>2021-05-15T10:06:56.000Z</time>
      </trkpt>
      <trkpt lat="49.82425" lon="4.87365">
        <ele>356</ele>
        <time>2021-05-15T10:06:57.000Z</time>
      </trkpt>
      <trkpt lat="49.82424" lon="4.87372">
        <ele>356</ele>
        <time>2021-05-15T10:06:58.000Z</time>
      </trkpt>
      <trkpt lat="49.82423" lon="4.87379">
        <ele>356</ele>
        <time>2021-05-15T10:06:59.000Z</time>
      </trkpt>
      <trkpt lat="49.82422" lon="4.87385">
        <ele>356</ele>
        <time>2021-05-15T10:07:00.000Z</time>
      </trkpt>
      <trkpt lat="49.82422" lon="4.87392">
        <ele>356</ele>
        <time>2021-05-15T10:07:01.000Z</time>
      </trkpt>
      <trkpt lat="49.82422" lon="4.87399">
        <ele>357</ele>
        <time>2021-05-15T10:07:02.000Z</time>
      </trkpt>
      <trkpt lat="49.82421" lon="4.87405">
        <ele>357</ele>
        <time>2021-05-15T10:07:03.000Z</time>
      </trkpt>
      <trkpt lat="49.82419" lon="4.8741">
        <ele>357</ele>
        <time>2021-05-15T10:07:04.000Z</time>
      </trkpt>
      <trkpt lat="49.82415" lon="4.87411">
        <ele>357</ele>
        <time>2021-05-15T10:07:05.000Z</time>
      </trkpt>
      <trkpt lat="49.82412" lon="4.87408">
        <ele>357</ele>
        <time>2021-05-15T10:07:06.000Z</time>
      </trkpt>
      <trkpt lat="49.8241" lon="4.87404">
        <ele>357</ele>
        <time>2021-05-15T10:07:07.000Z</time>
      </trkpt>
      <trkpt lat="49.82407" lon="4.87399">
        <ele>357</ele>
        <time>2021-05-15T10:07:08.000Z</time>
      </trkpt>
      <trkpt lat="49.82405" lon="4.87394">
        <ele>357</ele>
        <time>2021-05-15T10:07:09.000Z</time>
      </trkpt>
      <trkpt lat="49.82403" lon="4.87388">
        <ele>357</ele>
        <time>2021-05-15T10:07:10.000Z</time>
      </trkpt>
      <trkpt lat="49.82401" lon="4.87383">
        <ele>358</ele>
        <time>2021-05-15T10:07:11.000Z</time>
      </trkpt>
      <trkpt lat="49.824" lon="4.87377">
        <ele>358</ele>
        <time>2021-05-15T10:07:12.000Z</time>
      </trkpt>
      <trkpt lat="49.82398" lon="4.87371">
        <ele>358</ele>
        <time>2021-05-15T10:07:13.000Z</time>
      </trkpt>
      <trkpt lat="49.82398" lon="4.87366">
        <ele>358</ele>
        <time>2021-05-15T10:07:14.000Z</time>
      </trkpt>
      <trkpt lat="49.82396" lon="4.8736">
        <ele>358</ele>
        <time>2021-05-15T10:07:15.000Z</time>
      </trkpt>
      <trkpt lat="49.82395" lon="4.87354">
        <ele>358</ele>
        <time>2021-05-15T10:07:16.000Z</time>
      </trkpt>
      <trkpt lat="49.82394" lon="4.87348">
        <ele>359</ele>
        <time>2021-05-15T10:07:17.000Z</time>
      </trkpt>
      <trkpt lat="49.82392" lon="4.87341">
        <ele>359</ele>
        <time>2021-05-15T10:07:18.000Z</time>
      </trkpt>
      <trkpt lat="49.82391" lon="4.87335">
        <ele>359</ele>
        <time>2021-05-15T10:07:19.000Z</time>
      </trkpt>
      <trkpt lat="49.82389" lon="4.87329">
        <ele>359</ele>
        <time>2021-05-15T10:07:20.000Z</time>
      </trkpt>
      <trkpt lat="49.82387" lon="4.87323">
        <ele>359</ele>
        <time>2021-05-15T10:07:21.000Z</time>
      </trkpt>
      <trkpt lat="49.82386" lon="4.87317">
        <ele>359</ele>
        <time>2021-05-15T10:07:22.000Z</time>
      </trkpt>
      <trkpt lat="49.82384" lon="4.87311">
        <ele>360</ele>
        <time>2021-05-15T10:07:23.000Z</time>
      </trkpt>
      <trkpt lat="49.82382" lon="4.87305">
        <ele>360</ele>
        <time>2021-05-15T10:07:24.000Z</time>
      </trkpt>
      <trkpt lat="49.8238" lon="4.87299">
        <ele>360</ele>
        <time>2021-05-15T10:07:25.000Z</time>
      </trkpt>
      <trkpt lat="49.82378" lon="4.87293">
        <ele>360</ele>
        <time>2021-05-15T10:07:26.000Z</time>
      </trkpt>
      <trkpt lat="49.82375" lon="4.87288">
        <ele>360</ele>
        <time>2021-05-15T10:07:27.000Z</time>
      </trkpt>
      <trkpt lat="49.82372" lon="4.87283">
        <ele>360</ele>
        <time>2021-05-15T10:07:28.000Z</time>
      </trkpt>
      <trkpt lat="49.82369" lon="4.87278">
        <ele>360</ele>
        <time>2021-05-15T10:07:29.000Z</time>
      </trkpt>
      <trkpt lat="49.82366" lon="4.87272">
        <ele>360</ele>
        <time>2021-05-15T10:07:30.000Z</time>
      </trkpt>
      <trkpt lat="49.82363" lon="4.87267">
        <ele>360</ele>
        <time>2021-05-15T10:07:31.000Z</time>
      </trkpt>
      <trkpt lat="49.8236" lon="4.87262">
        <ele>360</ele>
        <time>2021-05-15T10:07:32.000Z</time>
      </trkpt>
      <trkpt lat="49.82357" lon="4.87257">
        <ele>361</ele>
        <time>2021-05-15T10:07:33.000Z</time>
      </trkpt>
      <trkpt lat="49.82353" lon="4.87252">
        <ele>361</ele>
        <time>2021-05-15T10:07:34.000Z</time>
      </trkpt>
      <trkpt lat="49.8235" lon="4.87247">
        <ele>361</ele>
        <time>2021-05-15T10:07:35.000Z</time>
      </trkpt>
      <trkpt lat="49.82346" lon="4.87242">
        <ele>361</ele>
        <time>2021-05-15T10:07:36.000Z</time>
      </trkpt>
      <trkpt lat="49.82342" lon="4.87237">
        <ele>361</ele>
        <time>2021-05-15T10:07:37.000Z</time>
      </trkpt>
      <trkpt lat="49.82339" lon="4.87232">
        <ele>361</ele>
        <time>2021-05-15T10:07:38.000Z</time>
      </trkpt>
      <trkpt lat="49.82335" lon="4.87227">
        <ele>361</ele>
        <time>2021-05-15T10:07:39.000Z</time>
      </trkpt>
      <trkpt lat="49.82332" lon="4.87221">
        <ele>361</ele>
        <time>2021-05-15T10:07:40.000Z</time>
      </trkpt>
      <trkpt lat="49.82328" lon="4.87215">
        <ele>361</ele>
        <time>2021-05-15T10:07:41.000Z</time>
      </trkpt>
      <trkpt lat="49.82325" lon="4.8721">
        <ele>361</ele>
        <time>2021-05-15T10:07:42.000Z</time>
      </trkpt>
      <trkpt lat="49.82322" lon="4.87204">
        <ele>361</ele>
        <time>2021-05-15T10:07:43.000Z</time>
      </trkpt>
      <trkpt lat="49.82319" lon="4.87198">
        <ele>362</ele>
        <time>2021-05-15T10:07:44.000Z</time>
      </trkpt>
      <trkpt lat="49.82316" lon="4.87192">
        <ele>362</ele>
        <time>2021-05-15T10:07:45.000Z</time>
      </trkpt>
      <trkpt lat="49.82313" lon="4.87187">
        <ele>362</ele>
        <time>2021-05-15T10:07:46.000Z</time>
      </trkpt>
      <trkpt lat="49.8231" lon="4.87182">
        <ele>362</ele>
        <time>2021-05-15T10:07:47.000Z</time>
      </trkpt>
      <trkpt lat="49.82306" lon="4.87178">
        <ele>362</ele>
        <time>2021-05-15T10:07:48.000Z</time>
      </trkpt>
      <trkpt lat="49.82303" lon="4.87173">
        <ele>362</ele>
        <time>2021-05-15T10:07:49.000Z</time>
      </trkpt>
      <trkpt lat="49.823" lon="4.87169">
        <ele>362</ele>
        <time>2021-05-15T10:07:50.000Z</time>
      </trkpt>
      <trkpt lat="49.82296" lon="4.87165">
        <ele>363</ele>
        <time>2021-05-15T10:07:51.000Z</time>
      </trkpt>
      <trkpt lat="49.82293" lon="4.87161">
        <ele>363</ele>
        <time>2021-05-15T10:07:52.000Z</time>
      </trkpt>
      <trkpt lat="49.8229" lon="4.87158">
        <ele>363</ele>
        <time>2021-05-15T10:07:53.000Z</time>
      </trkpt>
      <trkpt lat="49.82286" lon="4.87154">
        <ele>363</ele>
        <time>2021-05-15T10:07:54.000Z</time>
      </trkpt>
      <trkpt lat="49.82284" lon="4.8715">
        <ele>363</ele>
        <time>2021-05-15T10:07:55.000Z</time>
      </trkpt>
      <trkpt lat="49.82281" lon="4.87146">
        <ele>363</ele>
        <time>2021-05-15T10:07:56.000Z</time>
      </trkpt>
      <trkpt lat="49.82277" lon="4.87143">
        <ele>363</ele>
        <time>2021-05-15T10:07:57.000Z</time>
      </trkpt>
      <trkpt lat="49.82274" lon="4.87138">
        <ele>363</ele>
        <time>2021-05-15T10:07:58.000Z</time>
      </trkpt>
      <trkpt lat="49.82271" lon="4.87134">
        <ele>363</ele>
        <time>2021-05-15T10:07:59.000Z</time>
      </trkpt>
      <trkpt lat="49.82268" lon="4.8713">
        <ele>363</ele>
        <time>2021-05-15T10:08:00.000Z</time>
      </trkpt>
      <trkpt lat="49.82265" lon="4.87126">
        <ele>364</ele>
        <time>2021-05-15T10:08:01.000Z</time>
      </trkpt>
      <trkpt lat="49.82262" lon="4.87121">
        <ele>364</ele>
        <time>2021-05-15T10:08:02.000Z</time>
      </trkpt>
      <trkpt lat="49.82259" lon="4.87116">
        <ele>364</ele>
        <time>2021-05-15T10:08:03.000Z</time>
      </trkpt>
      <trkpt lat="49.82256" lon="4.87111">
        <ele>364</ele>
        <time>2021-05-15T10:08:04.000Z</time>
      </trkpt>
      <trkpt lat="49.82253" lon="4.87106">
        <ele>364</ele>
        <time>2021-05-15T10:08:05.000Z</time>
      </trkpt>
      <trkpt lat="49.82251" lon="4.87101">
        <ele>364</ele>
        <time>2021-05-15T10:08:06.000Z</time>
      </trkpt>
      <trkpt lat="49.82248" lon="4.87096">
        <ele>363</ele>
        <time>2021-05-15T10:08:07.000Z</time>
      </trkpt>
      <trkpt lat="49.82246" lon="4.87091">
        <ele>363</ele>
        <time>2021-05-15T10:08:08.000Z</time>
      </trkpt>
      <trkpt lat="49.82243" lon="4.87086">
        <ele>363</ele>
        <time>2021-05-15T10:08:09.000Z</time>
      </trkpt>
      <trkpt lat="49.82241" lon="4.87081">
        <ele>363</ele>
        <time>2021-05-15T10:08:10.000Z</time>
      </trkpt>
      <trkpt lat="49.82239" lon="4.87077">
        <ele>363</ele>
        <time>2021-05-15T10:08:11.000Z</time>
      </trkpt>
      <trkpt lat="49.82238" lon="4.87073">
        <ele>363</ele>
        <time>2021-05-15T10:08:12.000Z</time>
      </trkpt>
      <trkpt lat="49.82236" lon="4.87069">
        <ele>363</ele>
        <time>2021-05-15T10:08:13.000Z</time>
      </trkpt>
      <trkpt lat="49.82235" lon="4.87065">
        <ele>363</ele>
        <time>2021-05-15T10:08:14.000Z</time>
      </trkpt>
      <trkpt lat="49.82233" lon="4.8706">
        <ele>363</ele>
        <time>2021-05-15T10:08:15.000Z</time>
      </trkpt>
      <trkpt lat="49.82231" lon="4.87057">
        <ele>363</ele>
        <time>2021-05-15T10:08:16.000Z</time>
      </trkpt>
      <trkpt lat="49.8223" lon="4.87054">
        <ele>363</ele>
        <time>2021-05-15T10:08:17.000Z</time>
      </trkpt>
      <trkpt lat="49.82229" lon="4.87051">
        <ele>363</ele>
        <time>2021-05-15T10:08:18.000Z</time>
      </trkpt>
      <trkpt lat="49.82228" lon="4.87049">
        <ele>363</ele>
        <time>2021-05-15T10:08:19.000Z</time>
      </trkpt>
      <trkpt lat="49.82227" lon="4.87047">
        <ele>363</ele>
        <time>2021-05-15T10:08:20.000Z</time>
      </trkpt>
      <trkpt lat="49.82227" lon="4.87046">
        <ele>363</ele>
        <time>2021-05-15T10:08:21.000Z</time>
      </trkpt>
      <trkpt lat="49.82226" lon="4.87045">
        <ele>363</ele>
        <time>2021-05-15T10:08:22.000Z</time>
      </trkpt>
      <trkpt lat="49.82226" lon="4.87044">
        <ele>363</ele>
        <time>2021-05-15T10:08:23.000Z</time>
      </trkpt>
      <trkpt lat="49.82227" lon="4.87042">
        <ele>363</ele>
        <time>2021-05-15T10:08:24.000Z</time>
      </trkpt>
      <trkpt lat="49.82227" lon="4.87041">
        <ele>363</ele>
        <time>2021-05-15T10:08:25.000Z</time>
      </trkpt>
      <trkpt lat="49.82227" lon="4.8704">
        <ele>363</ele>
        <time>2021-05-15T10:08:26.000Z</time>
      </trkpt>
      <trkpt lat="49.82228" lon="4.8704">
        <ele>363</ele>
        <time>2021-05-15T10:08:27.000Z</time>
      </trkpt>
      <trkpt lat="49.82227" lon="4.87039">
        <ele>363</ele>
        <time>2021-05-15T10:08:28.000Z</time>
      </trkpt>
      <trkpt lat="49.82227" lon="4.87038">
        <ele>363</ele>
        <time>2021-05-15T10:08:29.000Z</time>
      </trkpt>
      <trkpt lat="49.82227" lon="4.87038">
        <ele>363</ele>
        <time>2021-05-15T10:08:30.000Z</time>
      </trkpt>
      <trkpt lat="49.82227" lon="4.87037">
        <ele>363</ele>
        <time>2021-05-15T10:08:31.000Z</time>
      </trkpt>
      <trkpt lat="49.82226" lon="4.87036">
        <ele>363</ele>
        <time>2021-05-15T10:08:32.000Z</time>
      </trkpt>
      <trkpt lat="49.82224" lon="4.87034">
        <ele>363</ele>
        <time>2021-05-15T10:08:33.000Z</time>
      </trkpt>
      <trkpt lat="49.82222" lon="4.87032">
        <ele>363</ele>
        <time>2021-05-15T10:08:34.000Z</time>
      </trkpt>
      <trkpt lat="49.82221" lon="4.8703">
        <ele>363</ele>
        <time>2021-05-15T10:08:35.000Z</time>
      </trkpt>
      <trkpt lat="49.82219" lon="4.87029">
        <ele>363</ele>
        <time>2021-05-15T10:08:36.000Z</time>
      </trkpt>
      <trkpt lat="49.82218" lon="4.87028">
        <ele>363</ele>
        <time>2021-05-15T10:08:37.000Z</time>
      </trkpt>
      <trkpt lat="49.82216" lon="4.87028">
        <ele>364</ele>
        <time>2021-05-15T10:08:38.000Z</time>
      </trkpt>
      <trkpt lat="49.82215" lon="4.87028">
        <ele>364</ele>
        <time>2021-05-15T10:08:39.000Z</time>
      </trkpt>
      <trkpt lat="49.82213" lon="4.87028">
        <ele>364</ele>
        <time>2021-05-15T10:08:40.000Z</time>
      </trkpt>
      <trkpt lat="49.82212" lon="4.87027">
        <ele>364</ele>
        <time>2021-05-15T10:08:41.000Z</time>
      </trkpt>
      <trkpt lat="49.8221" lon="4.87028">
        <ele>364</ele>
        <time>2021-05-15T10:08:42.000Z</time>
      </trkpt>
      <trkpt lat="49.82207" lon="4.87029">
        <ele>364</ele>
        <time>2021-05-15T10:08:43.000Z</time>
      </trkpt>
      <trkpt lat="49.82205" lon="4.8703">
        <ele>364</ele>
        <time>2021-05-15T10:08:44.000Z</time>
      </trkpt>
      <trkpt lat="49.82204" lon="4.87031">
        <ele>364</ele>
        <time>2021-05-15T10:08:45.000Z</time>
      </trkpt>
      <trkpt lat="49.82202" lon="4.87032">
        <ele>364</ele>
        <time>2021-05-15T10:08:46.000Z</time>
      </trkpt>
      <trkpt lat="49.822" lon="4.87034">
        <ele>364</ele>
        <time>2021-05-15T10:08:47.000Z</time>
      </trkpt>
      <trkpt lat="49.82198" lon="4.87036">
        <ele>364</ele>
        <time>2021-05-15T10:08:48.000Z</time>
      </trkpt>
      <trkpt lat="49.82195" lon="4.87038">
        <ele>364</ele>
        <time>2021-05-15T10:08:49.000Z</time>
      </trkpt>
      <trkpt lat="49.82192" lon="4.8704">
        <ele>364</ele>
        <time>2021-05-15T10:08:50.000Z</time>
      </trkpt>
      <trkpt lat="49.82189" lon="4.87041">
        <ele>364</ele>
        <time>2021-05-15T10:08:51.000Z</time>
      </trkpt>
      <trkpt lat="49.82185" lon="4.87042">
        <ele>364</ele>
        <time>2021-05-15T10:08:52.000Z</time>
      </trkpt>
      <trkpt lat="49.82181" lon="4.87044">
        <ele>364</ele>
        <time>2021-05-15T10:08:53.000Z</time>
      </trkpt>
      <trkpt lat="49.82177" lon="4.87046">
        <ele>364</ele>
        <time>2021-05-15T10:08:54.000Z</time>
      </trkpt>
      <trkpt lat="49.82173" lon="4.87048">
        <ele>364</ele>
        <time>2021-05-15T10:08:55.000Z</time>
      </trkpt>
      <trkpt lat="49.82168" lon="4.87049">
        <ele>364</ele>
        <time>2021-05-15T10:08:56.000Z</time>
      </trkpt>
      <trkpt lat="49.82164" lon="4.8705">
        <ele>364</ele>
        <time>2021-05-15T10:08:57.000Z</time>
      </trkpt>
      <trkpt lat="49.8216" lon="4.8705">
        <ele>364</ele>
        <time>2021-05-15T10:08:58.000Z</time>
      </trkpt>
      <trkpt lat="49.82156" lon="4.87051">
        <ele>364</ele>
        <time>2021-05-15T10:08:59.000Z</time>
      </trkpt>
      <trkpt lat="49.82153" lon="4.87052">
        <ele>364</ele>
        <time>2021-05-15T10:09:00.000Z</time>
      </trkpt>
      <trkpt lat="49.82149" lon="4.87053">
        <ele>364</ele>
        <time>2021-05-15T10:09:01.000Z</time>
      </trkpt>
      <trkpt lat="49.82145" lon="4.87055">
        <ele>364</ele>
        <time>2021-05-15T10:09:02.000Z</time>
      </trkpt>
      <trkpt lat="49.82141" lon="4.87056">
        <ele>364</ele>
        <time>2021-05-15T10:09:03.000Z</time>
      </trkpt>
      <trkpt lat="49.82137" lon="4.87058">
        <ele>364</ele>
        <time>2021-05-15T10:09:04.000Z</time>
      </trkpt>
      <trkpt lat="49.82132" lon="4.87059">
        <ele>365</ele>
        <time>2021-05-15T10:09:05.000Z</time>
      </trkpt>
      <trkpt lat="49.82127" lon="4.87062">
        <ele>365</ele>
        <time>2021-05-15T10:09:06.000Z</time>
      </trkpt>
      <trkpt lat="49.82123" lon="4.87064">
        <ele>365</ele>
        <time>2021-05-15T10:09:07.000Z</time>
      </trkpt>
      <trkpt lat="49.82119" lon="4.87065">
        <ele>365</ele>
        <time>2021-05-15T10:09:08.000Z</time>
      </trkpt>
      <trkpt lat="49.82115" lon="4.87066">
        <ele>365</ele>
        <time>2021-05-15T10:09:09.000Z</time>
      </trkpt>
      <trkpt lat="49.8211" lon="4.87067">
        <ele>365</ele>
        <time>2021-05-15T10:09:10.000Z</time>
      </trkpt>
      <trkpt lat="49.82105" lon="4.87068">
        <ele>365</ele>
        <time>2021-05-15T10:09:11.000Z</time>
      </trkpt>
      <trkpt lat="49.82101" lon="4.87068">
        <ele>365</ele>
        <time>2021-05-15T10:09:12.000Z</time>
      </trkpt>
      <trkpt lat="49.82097" lon="4.87069">
        <ele>365</ele>
        <time>2021-05-15T10:09:13.000Z</time>
      </trkpt>
      <trkpt lat="49.82093" lon="4.87069">
        <ele>365</ele>
        <time>2021-05-15T10:09:14.000Z</time>
      </trkpt>
      <trkpt lat="49.82089" lon="4.87067">
        <ele>365</ele>
        <time>2021-05-15T10:09:15.000Z</time>
      </trkpt>
      <trkpt lat="49.82085" lon="4.87065">
        <ele>365</ele>
        <time>2021-05-15T10:09:16.000Z</time>
      </trkpt>
      <trkpt lat="49.82082" lon="4.87063">
        <ele>365</ele>
        <time>2021-05-15T10:09:17.000Z</time>
      </trkpt>
      <trkpt lat="49.82079" lon="4.8706">
        <ele>365</ele>
        <time>2021-05-15T10:09:18.000Z</time>
      </trkpt>
      <trkpt lat="49.82076" lon="4.87057">
        <ele>365</ele>
        <time>2021-05-15T10:09:19.000Z</time>
      </trkpt>
      <trkpt lat="49.82073" lon="4.87054">
        <ele>365</ele>
        <time>2021-05-15T10:09:20.000Z</time>
      </trkpt>
      <trkpt lat="49.82071" lon="4.87051">
        <ele>365</ele>
        <time>2021-05-15T10:09:21.000Z</time>
      </trkpt>
      <trkpt lat="49.82068" lon="4.87047">
        <ele>365</ele>
        <time>2021-05-15T10:09:22.000Z</time>
      </trkpt>
      <trkpt lat="49.82065" lon="4.87043">
        <ele>365</ele>
        <time>2021-05-15T10:09:23.000Z</time>
      </trkpt>
      <trkpt lat="49.82062" lon="4.8704">
        <ele>364</ele>
        <time>2021-05-15T10:09:24.000Z</time>
      </trkpt>
      <trkpt lat="49.82059" lon="4.87037">
        <ele>364</ele>
        <time>2021-05-15T10:09:25.000Z</time>
      </trkpt>
      <trkpt lat="49.82057" lon="4.87033">
        <ele>364</ele>
        <time>2021-05-15T10:09:26.000Z</time>
      </trkpt>
      <trkpt lat="49.82055" lon="4.87028">
        <ele>364</ele>
        <time>2021-05-15T10:09:27.000Z</time>
      </trkpt>
      <trkpt lat="49.82052" lon="4.87023">
        <ele>364</ele>
        <time>2021-05-15T10:09:28.000Z</time>
      </trkpt>
      <trkpt lat="49.8205" lon="4.87019">
        <ele>364</ele>
        <time>2021-05-15T10:09:29.000Z</time>
      </trkpt>
      <trkpt lat="49.82048" lon="4.87014">
        <ele>364</ele>
        <time>2021-05-15T10:09:30.000Z</time>
      </trkpt>
      <trkpt lat="49.82045" lon="4.87009">
        <ele>364</ele>
        <time>2021-05-15T10:09:31.000Z</time>
      </trkpt>
      <trkpt lat="49.82043" lon="4.87003">
        <ele>364</ele>
        <time>2021-05-15T10:09:32.000Z</time>
      </trkpt>
      <trkpt lat="49.82041" lon="4.86998">
        <ele>363</ele>
        <time>2021-05-15T10:09:33.000Z</time>
      </trkpt>
      <trkpt lat="49.82039" lon="4.86992">
        <ele>363</ele>
        <time>2021-05-15T10:09:34.000Z</time>
      </trkpt>
      <trkpt lat="49.82037" lon="4.86986">
        <ele>363</ele>
        <time>2021-05-15T10:09:35.000Z</time>
      </trkpt>
      <trkpt lat="49.82034" lon="4.8698">
        <ele>363</ele>
        <time>2021-05-15T10:09:36.000Z</time>
      </trkpt>
      <trkpt lat="49.82031" lon="4.86974">
        <ele>363</ele>
        <time>2021-05-15T10:09:37.000Z</time>
      </trkpt>
      <trkpt lat="49.82028" lon="4.86969">
        <ele>363</ele>
        <time>2021-05-15T10:09:38.000Z</time>
      </trkpt>
      <trkpt lat="49.82025" lon="4.86963">
        <ele>363</ele>
        <time>2021-05-15T10:09:39.000Z</time>
      </trkpt>
      <trkpt lat="49.82022" lon="4.86957">
        <ele>363</ele>
        <time>2021-05-15T10:09:40.000Z</time>
      </trkpt>
      <trkpt lat="49.82018" lon="4.86951">
        <ele>363</ele>
        <time>2021-05-15T10:09:41.000Z</time>
      </trkpt>
      <trkpt lat="49.82014" lon="4.86945">
        <ele>363</ele>
        <time>2021-05-15T10:09:42.000Z</time>
      </trkpt>
      <trkpt lat="49.8201" lon="4.86938">
        <ele>363</ele>
        <time>2021-05-15T10:09:43.000Z</time>
      </trkpt>
      <trkpt lat="49.82006" lon="4.86931">
        <ele>363</ele>
        <time>2021-05-15T10:09:44.000Z</time>
      </trkpt>
      <trkpt lat="49.82002" lon="4.86923">
        <ele>363</ele>
        <time>2021-05-15T10:09:45.000Z</time>
      </trkpt>
      <trkpt lat="49.81999" lon="4.86916">
        <ele>363</ele>
        <time>2021-05-15T10:09:46.000Z</time>
      </trkpt>
      <trkpt lat="49.81996" lon="4.86909">
        <ele>363</ele>
        <time>2021-05-15T10:09:47.000Z</time>
      </trkpt>
      <trkpt lat="49.81992" lon="4.86902">
        <ele>362</ele>
        <time>2021-05-15T10:09:48.000Z</time>
      </trkpt>
      <trkpt lat="49.81989" lon="4.86893">
        <ele>362</ele>
        <time>2021-05-15T10:09:49.000Z</time>
      </trkpt>
      <trkpt lat="49.81984" lon="4.86884">
        <ele>362</ele>
        <time>2021-05-15T10:09:50.000Z</time>
      </trkpt>
      <trkpt lat="49.8198" lon="4.86876">
        <ele>362</ele>
        <time>2021-05-15T10:09:51.000Z</time>
      </trkpt>
      <trkpt lat="49.81975" lon="4.86867">
        <ele>362</ele>
        <time>2021-05-15T10:09:52.000Z</time>
      </trkpt>
      <trkpt lat="49.8197" lon="4.86859">
        <ele>361</ele>
        <time>2021-05-15T10:09:53.000Z</time>
      </trkpt>
      <trkpt lat="49.81966" lon="4.8685">
        <ele>361</ele>
        <time>2021-05-15T10:09:54.000Z</time>
      </trkpt>
      <trkpt lat="49.81961" lon="4.86841">
        <ele>361</ele>
        <time>2021-05-15T10:09:55.000Z</time>
      </trkpt>
      <trkpt lat="49.81957" lon="4.86832">
        <ele>361</ele>
        <time>2021-05-15T10:09:56.000Z</time>
      </trkpt>
      <trkpt lat="49.81953" lon="4.86823">
        <ele>360</ele>
        <time>2021-05-15T10:09:57.000Z</time>
      </trkpt>
      <trkpt lat="49.81949" lon="4.86814">
        <ele>360</ele>
        <time>2021-05-15T10:09:58.000Z</time>
      </trkpt>
      <trkpt lat="49.81945" lon="4.86804">
        <ele>360</ele>
        <time>2021-05-15T10:09:59.000Z</time>
      </trkpt>
      <trkpt lat="49.8194" lon="4.86796">
        <ele>359</ele>
        <time>2021-05-15T10:10:00.000Z</time>
      </trkpt>
      <trkpt lat="49.81936" lon="4.86788">
        <ele>359</ele>
        <time>2021-05-15T10:10:01.000Z</time>
      </trkpt>
      <trkpt lat="49.81932" lon="4.8678">
        <ele>359</ele>
        <time>2021-05-15T10:10:02.000Z</time>
      </trkpt>
      <trkpt lat="49.81928" lon="4.86772">
        <ele>358</ele>
        <time>2021-05-15T10:10:03.000Z</time>
      </trkpt>
      <trkpt lat="49.81924" lon="4.86765">
        <ele>358</ele>
        <time>2021-05-15T10:10:04.000Z</time>
      </trkpt>
      <trkpt lat="49.8192" lon="4.86758">
        <ele>358</ele>
        <time>2021-05-15T10:10:05.000Z</time>
      </trkpt>
      <trkpt lat="49.81916" lon="4.86751">
        <ele>357</ele>
        <time>2021-05-15T10:10:06.000Z</time>
      </trkpt>
      <trkpt lat="49.81913" lon="4.86743">
        <ele>357</ele>
        <time>2021-05-15T10:10:07.000Z</time>
      </trkpt>
      <trkpt lat="49.8191" lon="4.86736">
        <ele>356</ele>
        <time>2021-05-15T10:10:08.000Z</time>
      </trkpt>
      <trkpt lat="49.81907" lon="4.86728">
        <ele>356</ele>
        <time>2021-05-15T10:10:09.000Z</time>
      </trkpt>
      <trkpt lat="49.81903" lon="4.8672">
        <ele>356</ele>
        <time>2021-05-15T10:10:10.000Z</time>
      </trkpt>
      <trkpt lat="49.819" lon="4.86712">
        <ele>355</ele>
        <time>2021-05-15T10:10:11.000Z</time>
      </trkpt>
      <trkpt lat="49.81897" lon="4.86705">
        <ele>355</ele>
        <time>2021-05-15T10:10:12.000Z</time>
      </trkpt>
      <trkpt lat="49.81894" lon="4.86698">
        <ele>355</ele>
        <time>2021-05-15T10:10:13.000Z</time>
      </trkpt>
      <trkpt lat="49.81892" lon="4.86691">
        <ele>354</ele>
        <time>2021-05-15T10:10:14.000Z</time>
      </trkpt>
      <trkpt lat="49.81889" lon="4.86685">
        <ele>354</ele>
        <time>2021-05-15T10:10:15.000Z</time>
      </trkpt>
      <trkpt lat="49.81886" lon="4.86679">
        <ele>353</ele>
        <time>2021-05-15T10:10:16.000Z</time>
      </trkpt>
      <trkpt lat="49.81883" lon="4.86674">
        <ele>353</ele>
        <time>2021-05-15T10:10:17.000Z</time>
      </trkpt>
      <trkpt lat="49.81881" lon="4.86668">
        <ele>353</ele>
        <time>2021-05-15T10:10:18.000Z</time>
      </trkpt>
      <trkpt lat="49.81878" lon="4.86662">
        <ele>352</ele>
        <time>2021-05-15T10:10:19.000Z</time>
      </trkpt>
      <trkpt lat="49.81877" lon="4.86657">
        <ele>352</ele>
        <time>2021-05-15T10:10:20.000Z</time>
      </trkpt>
      <trkpt lat="49.81874" lon="4.86652">
        <ele>352</ele>
        <time>2021-05-15T10:10:21.000Z</time>
      </trkpt>
      <trkpt lat="49.81872" lon="4.86647">
        <ele>352</ele>
        <time>2021-05-15T10:10:22.000Z</time>
      </trkpt>
      <trkpt lat="49.8187" lon="4.86642">
        <ele>351</ele>
        <time>2021-05-15T10:10:23.000Z</time>
      </trkpt>
      <trkpt lat="49.81869" lon="4.86638">
        <ele>351</ele>
        <time>2021-05-15T10:10:24.000Z</time>
      </trkpt>
      <trkpt lat="49.81867" lon="4.86633">
        <ele>351</ele>
        <time>2021-05-15T10:10:25.000Z</time>
      </trkpt>
      <trkpt lat="49.81864" lon="4.86628">
        <ele>351</ele>
        <time>2021-05-15T10:10:26.000Z</time>
      </trkpt>
      <trkpt lat="49.81862" lon="4.86624">
        <ele>350</ele>
        <time>2021-05-15T10:10:27.000Z</time>
      </trkpt>
      <trkpt lat="49.8186" lon="4.86619">
        <ele>350</ele>
        <time>2021-05-15T10:10:28.000Z</time>
      </trkpt>
      <trkpt lat="49.81858" lon="4.86614">
        <ele>350</ele>
        <time>2021-05-15T10:10:29.000Z</time>
      </trkpt>
      <trkpt lat="49.81855" lon="4.86608">
        <ele>350</ele>
        <time>2021-05-15T10:10:30.000Z</time>
      </trkpt>
      <trkpt lat="49.81853" lon="4.86602">
        <ele>349</ele>
        <time>2021-05-15T10:10:31.000Z</time>
      </trkpt>
      <trkpt lat="49.8185" lon="4.86596">
        <ele>349</ele>
        <time>2021-05-15T10:10:32.000Z</time>
      </trkpt>
      <trkpt lat="49.81847" lon="4.86589">
        <ele>349</ele>
        <time>2021-05-15T10:10:33.000Z</time>
      </trkpt>
      <trkpt lat="49.81844" lon="4.86584">
        <ele>349</ele>
        <time>2021-05-15T10:10:34.000Z</time>
      </trkpt>
      <trkpt lat="49.81841" lon="4.86579">
        <ele>349</ele>
        <time>2021-05-15T10:10:35.000Z</time>
      </trkpt>
      <trkpt lat="49.81839" lon="4.86574">
        <ele>349</ele>
        <time>2021-05-15T10:10:36.000Z</time>
      </trkpt>
      <trkpt lat="49.81837" lon="4.86569">
        <ele>349</ele>
        <time>2021-05-15T10:10:37.000Z</time>
      </trkpt>
      <trkpt lat="49.81835" lon="4.86565">
        <ele>349</ele>
        <time>2021-05-15T10:10:38.000Z</time>
      </trkpt>
      <trkpt lat="49.81832" lon="4.8656">
        <ele>348</ele>
        <time>2021-05-15T10:10:39.000Z</time>
      </trkpt>
      <trkpt lat="49.8183" lon="4.86554">
        <ele>348</ele>
        <time>2021-05-15T10:10:40.000Z</time>
      </trkpt>
      <trkpt lat="49.81827" lon="4.86549">
        <ele>348</ele>
        <time>2021-05-15T10:10:41.000Z</time>
      </trkpt>
      <trkpt lat="49.81824" lon="4.86543">
        <ele>348</ele>
        <time>2021-05-15T10:10:42.000Z</time>
      </trkpt>
      <trkpt lat="49.81821" lon="4.86538">
        <ele>348</ele>
        <time>2021-05-15T10:10:43.000Z</time>
      </trkpt>
      <trkpt lat="49.81818" lon="4.86532">
        <ele>348</ele>
        <time>2021-05-15T10:10:44.000Z</time>
      </trkpt>
      <trkpt lat="49.81815" lon="4.86527">
        <ele>348</ele>
        <time>2021-05-15T10:10:45.000Z</time>
      </trkpt>
      <trkpt lat="49.81813" lon="4.86521">
        <ele>348</ele>
        <time>2021-05-15T10:10:46.000Z</time>
      </trkpt>
      <trkpt lat="49.81811" lon="4.86515">
        <ele>348</ele>
        <time>2021-05-15T10:10:47.000Z</time>
      </trkpt>
      <trkpt lat="49.8181" lon="4.86509">
        <ele>347</ele>
        <time>2021-05-15T10:10:48.000Z</time>
      </trkpt>
      <trkpt lat="49.81809" lon="4.86504">
        <ele>347</ele>
        <time>2021-05-15T10:10:49.000Z</time>
      </trkpt>
      <trkpt lat="49.81808" lon="4.86498">
        <ele>347</ele>
        <time>2021-05-15T10:10:50.000Z</time>
      </trkpt>
      <trkpt lat="49.81806" lon="4.86492">
        <ele>347</ele>
        <time>2021-05-15T10:10:51.000Z</time>
      </trkpt>
      <trkpt lat="49.81802" lon="4.86485">
        <ele>347</ele>
        <time>2021-05-15T10:10:52.000Z</time>
      </trkpt>
      <trkpt lat="49.81799" lon="4.86477">
        <ele>346</ele>
        <time>2021-05-15T10:10:53.000Z</time>
      </trkpt>
      <trkpt lat="49.81795" lon="4.86469">
        <ele>346</ele>
        <time>2021-05-15T10:10:54.000Z</time>
      </trkpt>
      <trkpt lat="49.81791" lon="4.8646">
        <ele>346</ele>
        <time>2021-05-15T10:10:55.000Z</time>
      </trkpt>
      <trkpt lat="49.81787" lon="4.86452">
        <ele>346</ele>
        <time>2021-05-15T10:10:56.000Z</time>
      </trkpt>
      <trkpt lat="49.81784" lon="4.86444">
        <ele>345</ele>
        <time>2021-05-15T10:10:57.000Z</time>
      </trkpt>
      <trkpt lat="49.8178" lon="4.86436">
        <ele>345</ele>
        <time>2021-05-15T10:10:58.000Z</time>
      </trkpt>
      <trkpt lat="49.81776" lon="4.86428">
        <ele>345</ele>
        <time>2021-05-15T10:10:59.000Z</time>
      </trkpt>
      <trkpt lat="49.81772" lon="4.8642">
        <ele>344</ele>
        <time>2021-05-15T10:11:00.000Z</time>
      </trkpt>
      <trkpt lat="49.81768" lon="4.86412">
        <ele>344</ele>
        <time>2021-05-15T10:11:01.000Z</time>
      </trkpt>
      <trkpt lat="49.81765" lon="4.86405">
        <ele>344</ele>
        <time>2021-05-15T10:11:02.000Z</time>
      </trkpt>
      <trkpt lat="49.8176" lon="4.86396">
        <ele>343</ele>
        <time>2021-05-15T10:11:03.000Z</time>
      </trkpt>
      <trkpt lat="49.81756" lon="4.86388">
        <ele>343</ele>
        <time>2021-05-15T10:11:04.000Z</time>
      </trkpt>
      <trkpt lat="49.81752" lon="4.86379">
        <ele>342</ele>
        <time>2021-05-15T10:11:05.000Z</time>
      </trkpt>
      <trkpt lat="49.81747" lon="4.86371">
        <ele>342</ele>
        <time>2021-05-15T10:11:06.000Z</time>
      </trkpt>
      <trkpt lat="49.81743" lon="4.86362">
        <ele>342</ele>
        <time>2021-05-15T10:11:07.000Z</time>
      </trkpt>
      <trkpt lat="49.81739" lon="4.86354">
        <ele>341</ele>
        <time>2021-05-15T10:11:08.000Z</time>
      </trkpt>
      <trkpt lat="49.81735" lon="4.86348">
        <ele>341</ele>
        <time>2021-05-15T10:11:09.000Z</time>
      </trkpt>
      <trkpt lat="49.81731" lon="4.86344">
        <ele>340</ele>
        <time>2021-05-15T10:11:10.000Z</time>
      </trkpt>
      <trkpt lat="49.81728" lon="4.86341">
        <ele>340</ele>
        <time>2021-05-15T10:11:11.000Z</time>
      </trkpt>
      <trkpt lat="49.81725" lon="4.8634">
        <ele>340</ele>
        <time>2021-05-15T10:11:12.000Z</time>
      </trkpt>
      <trkpt lat="49.81723" lon="4.86339">
        <ele>339</ele>
        <time>2021-05-15T10:11:13.000Z</time>
      </trkpt>
      <trkpt lat="49.8172" lon="4.86339">
        <ele>339</ele>
        <time>2021-05-15T10:11:14.000Z</time>
      </trkpt>
      <trkpt lat="49.81718" lon="4.86339">
        <ele>339</ele>
        <time>2021-05-15T10:11:15.000Z</time>
      </trkpt>
      <trkpt lat="49.81715" lon="4.86338">
        <ele>338</ele>
        <time>2021-05-15T10:11:16.000Z</time>
      </trkpt>
      <trkpt lat="49.81712" lon="4.86338">
        <ele>338</ele>
        <time>2021-05-15T10:11:17.000Z</time>
      </trkpt>
      <trkpt lat="49.81711" lon="4.86337">
        <ele>338</ele>
        <time>2021-05-15T10:11:18.000Z</time>
      </trkpt>
      <trkpt lat="49.8171" lon="4.86336">
        <ele>337</ele>
        <time>2021-05-15T10:11:19.000Z</time>
      </trkpt>
      <trkpt lat="49.81708" lon="4.86336">
        <ele>337</ele>
        <time>2021-05-15T10:11:20.000Z</time>
      </trkpt>
      <trkpt lat="49.81707" lon="4.86335">
        <ele>337</ele>
        <time>2021-05-15T10:11:21.000Z</time>
      </trkpt>
      <trkpt lat="49.81705" lon="4.86336">
        <ele>337</ele>
        <time>2021-05-15T10:11:22.000Z</time>
      </trkpt>
      <trkpt lat="49.81702" lon="4.86337">
        <ele>336</ele>
        <time>2021-05-15T10:11:23.000Z</time>
      </trkpt>
      <trkpt lat="49.817" lon="4.86338">
        <ele>336</ele>
        <time>2021-05-15T10:11:24.000Z</time>
      </trkpt>
      <trkpt lat="49.81697" lon="4.86341">
        <ele>336</ele>
        <time>2021-05-15T10:11:25.000Z</time>
      </trkpt>
      <trkpt lat="49.81696" lon="4.86344">
        <ele>336</ele>
        <time>2021-05-15T10:11:26.000Z</time>
      </trkpt>
      <trkpt lat="49.81693" lon="4.86347">
        <ele>335</ele>
        <time>2021-05-15T10:11:27.000Z</time>
      </trkpt>
      <trkpt lat="49.8169" lon="4.8635">
        <ele>335</ele>
        <time>2021-05-15T10:11:28.000Z</time>
      </trkpt>
      <trkpt lat="49.81686" lon="4.86354">
        <ele>335</ele>
        <time>2021-05-15T10:11:29.000Z</time>
      </trkpt>
      <trkpt lat="49.81683" lon="4.86359">
        <ele>335</ele>
        <time>2021-05-15T10:11:30.000Z</time>
      </trkpt>
      <trkpt lat="49.81679" lon="4.86363">
        <ele>335</ele>
        <time>2021-05-15T10:11:31.000Z</time>
      </trkpt>
      <trkpt lat="49.81675" lon="4.86368">
        <ele>334</ele>
        <time>2021-05-15T10:11:32.000Z</time>
      </trkpt>
      <trkpt lat="49.81672" lon="4.86374">
        <ele>334</ele>
        <time>2021-05-15T10:11:33.000Z</time>
      </trkpt>
      <trkpt lat="49.81668" lon="4.86379">
        <ele>334</ele>
        <time>2021-05-15T10:11:34.000Z</time>
      </trkpt>
      <trkpt lat="49.81665" lon="4.86383">
        <ele>333</ele>
        <time>2021-05-15T10:11:35.000Z</time>
      </trkpt>
      <trkpt lat="49.81661" lon="4.86389">
        <ele>333</ele>
        <time>2021-05-15T10:11:36.000Z</time>
      </trkpt>
      <trkpt lat="49.81658" lon="4.86394">
        <ele>333</ele>
        <time>2021-05-15T10:11:37.000Z</time>
      </trkpt>
      <trkpt lat="49.81654" lon="4.86399">
        <ele>332</ele>
        <time>2021-05-15T10:11:38.000Z</time>
      </trkpt>
      <trkpt lat="49.81649" lon="4.86404">
        <ele>332</ele>
        <time>2021-05-15T10:11:39.000Z</time>
      </trkpt>
      <trkpt lat="49.81644" lon="4.86409">
        <ele>332</ele>
        <time>2021-05-15T10:11:40.000Z</time>
      </trkpt>
      <trkpt lat="49.81639" lon="4.86413">
        <ele>331</ele>
        <time>2021-05-15T10:11:41.000Z</time>
      </trkpt>
      <trkpt lat="49.81634" lon="4.86418">
        <ele>331</ele>
        <time>2021-05-15T10:11:42.000Z</time>
      </trkpt>
      <trkpt lat="49.81629" lon="4.86423">
        <ele>330</ele>
        <time>2021-05-15T10:11:43.000Z</time>
      </trkpt>
      <trkpt lat="49.81624" lon="4.86428">
        <ele>330</ele>
        <time>2021-05-15T10:11:44.000Z</time>
      </trkpt>
      <trkpt lat="49.81618" lon="4.86433">
        <ele>329</ele>
        <time>2021-05-15T10:11:45.000Z</time>
      </trkpt>
      <trkpt lat="49.81612" lon="4.86438">
        <ele>329</ele>
        <time>2021-05-15T10:11:46.000Z</time>
      </trkpt>
      <trkpt lat="49.81607" lon="4.86444">
        <ele>329</ele>
        <time>2021-05-15T10:11:47.000Z</time>
      </trkpt>
      <trkpt lat="49.81602" lon="4.8645">
        <ele>328</ele>
        <time>2021-05-15T10:11:48.000Z</time>
      </trkpt>
      <trkpt lat="49.81597" lon="4.86456">
        <ele>328</ele>
        <time>2021-05-15T10:11:49.000Z</time>
      </trkpt>
      <trkpt lat="49.81592" lon="4.86461">
        <ele>327</ele>
        <time>2021-05-15T10:11:50.000Z</time>
      </trkpt>
      <trkpt lat="49.81587" lon="4.86466">
        <ele>326</ele>
        <time>2021-05-15T10:11:51.000Z</time>
      </trkpt>
      <trkpt lat="49.81582" lon="4.86471">
        <ele>326</ele>
        <time>2021-05-15T10:11:52.000Z</time>
      </trkpt>
      <trkpt lat="49.81578" lon="4.86476">
        <ele>325</ele>
        <time>2021-05-15T10:11:53.000Z</time>
      </trkpt>
      <trkpt lat="49.81574" lon="4.86481">
        <ele>324</ele>
        <time>2021-05-15T10:11:54.000Z</time>
      </trkpt>
      <trkpt lat="49.81571" lon="4.86485">
        <ele>324</ele>
        <time>2021-05-15T10:11:55.000Z</time>
      </trkpt>
      <trkpt lat="49.81567" lon="4.86488">
        <ele>323</ele>
        <time>2021-05-15T10:11:56.000Z</time>
      </trkpt>
      <trkpt lat="49.81565" lon="4.8649">
        <ele>322</ele>
        <time>2021-05-15T10:11:57.000Z</time>
      </trkpt>
      <trkpt lat="49.81564" lon="4.86491">
        <ele>321</ele>
        <time>2021-05-15T10:11:58.000Z</time>
      </trkpt>
      <trkpt lat="49.81562" lon="4.86494">
        <ele>321</ele>
        <time>2021-05-15T10:11:59.000Z</time>
      </trkpt>
      <trkpt lat="49.81559" lon="4.86498">
        <ele>320</ele>
        <time>2021-05-15T10:12:00.000Z</time>
      </trkpt>
      <trkpt lat="49.81557" lon="4.86502">
        <ele>319</ele>
        <time>2021-05-15T10:12:01.000Z</time>
      </trkpt>
      <trkpt lat="49.81555" lon="4.86507">
        <ele>319</ele>
        <time>2021-05-15T10:12:02.000Z</time>
      </trkpt>
      <trkpt lat="49.81552" lon="4.86512">
        <ele>318</ele>
        <time>2021-05-15T10:12:03.000Z</time>
      </trkpt>
      <trkpt lat="49.81549" lon="4.86517">
        <ele>317</ele>
        <time>2021-05-15T10:12:04.000Z</time>
      </trkpt>
      <trkpt lat="49.81545" lon="4.86523">
        <ele>317</ele>
        <time>2021-05-15T10:12:05.000Z</time>
      </trkpt>
      <trkpt lat="49.81542" lon="4.86529">
        <ele>316</ele>
        <time>2021-05-15T10:12:06.000Z</time>
      </trkpt>
      <trkpt lat="49.81538" lon="4.86536">
        <ele>315</ele>
        <time>2021-05-15T10:12:07.000Z</time>
      </trkpt>
      <trkpt lat="49.81533" lon="4.86542">
        <ele>314</ele>
        <time>2021-05-15T10:12:08.000Z</time>
      </trkpt>
      <trkpt lat="49.81529" lon="4.86549">
        <ele>313</ele>
        <time>2021-05-15T10:12:09.000Z</time>
      </trkpt>
      <trkpt lat="49.81524" lon="4.86556">
        <ele>312</ele>
        <time>2021-05-15T10:12:10.000Z</time>
      </trkpt>
      <trkpt lat="49.81519" lon="4.86562">
        <ele>311</ele>
        <time>2021-05-15T10:12:11.000Z</time>
      </trkpt>
      <trkpt lat="49.81514" lon="4.86568">
        <ele>310</ele>
        <time>2021-05-15T10:12:12.000Z</time>
      </trkpt>
      <trkpt lat="49.81509" lon="4.86575">
        <ele>309</ele>
        <time>2021-05-15T10:12:13.000Z</time>
      </trkpt>
      <trkpt lat="49.81503" lon="4.86581">
        <ele>308</ele>
        <time>2021-05-15T10:12:14.000Z</time>
      </trkpt>
      <trkpt lat="49.81496" lon="4.86588">
        <ele>307</ele>
        <time>2021-05-15T10:12:15.000Z</time>
      </trkpt>
      <trkpt lat="49.81489" lon="4.86594">
        <ele>306</ele>
        <time>2021-05-15T10:12:16.000Z</time>
      </trkpt>
      <trkpt lat="49.81483" lon="4.86599">
        <ele>305</ele>
        <time>2021-05-15T10:12:17.000Z</time>
      </trkpt>
      <trkpt lat="49.81477" lon="4.86603">
        <ele>304</ele>
        <time>2021-05-15T10:12:18.000Z</time>
      </trkpt>
      <trkpt lat="49.81472" lon="4.86608">
        <ele>303</ele>
        <time>2021-05-15T10:12:19.000Z</time>
      </trkpt>
      <trkpt lat="49.81467" lon="4.86612">
        <ele>302</ele>
        <time>2021-05-15T10:12:20.000Z</time>
      </trkpt>
      <trkpt lat="49.81462" lon="4.86615">
        <ele>301</ele>
        <time>2021-05-15T10:12:21.000Z</time>
      </trkpt>
      <trkpt lat="49.81459" lon="4.86618">
        <ele>300</ele>
        <time>2021-05-15T10:12:22.000Z</time>
      </trkpt>
      <trkpt lat="49.81456" lon="4.8662">
        <ele>299</ele>
        <time>2021-05-15T10:12:23.000Z</time>
      </trkpt>
      <trkpt lat="49.81454" lon="4.86622">
        <ele>298</ele>
        <time>2021-05-15T10:12:24.000Z</time>
      </trkpt>
      <trkpt lat="49.81451" lon="4.86624">
        <ele>297</ele>
        <time>2021-05-15T10:12:25.000Z</time>
      </trkpt>
      <trkpt lat="49.81448" lon="4.86625">
        <ele>296</ele>
        <time>2021-05-15T10:12:26.000Z</time>
      </trkpt>
      <trkpt lat="49.81446" lon="4.86626">
        <ele>295</ele>
        <time>2021-05-15T10:12:27.000Z</time>
      </trkpt>
      <trkpt lat="49.81443" lon="4.86627">
        <ele>294</ele>
        <time>2021-05-15T10:12:28.000Z</time>
      </trkpt>
      <trkpt lat="49.81441" lon="4.86627">
        <ele>293</ele>
        <time>2021-05-15T10:12:29.000Z</time>
      </trkpt>
      <trkpt lat="49.8144" lon="4.86628">
        <ele>292</ele>
        <time>2021-05-15T10:12:30.000Z</time>
      </trkpt>
      <trkpt lat="49.81437" lon="4.86629">
        <ele>292</ele>
        <time>2021-05-15T10:12:31.000Z</time>
      </trkpt>
      <trkpt lat="49.81435" lon="4.86631">
        <ele>291</ele>
        <time>2021-05-15T10:12:32.000Z</time>
      </trkpt>
      <trkpt lat="49.81432" lon="4.86632">
        <ele>290</ele>
        <time>2021-05-15T10:12:33.000Z</time>
      </trkpt>
      <trkpt lat="49.8143" lon="4.86634">
        <ele>289</ele>
        <time>2021-05-15T10:12:34.000Z</time>
      </trkpt>
      <trkpt lat="49.81427" lon="4.86636">
        <ele>288</ele>
        <time>2021-05-15T10:12:35.000Z</time>
      </trkpt>
      <trkpt lat="49.81426" lon="4.86637">
        <ele>288</ele>
        <time>2021-05-15T10:12:36.000Z</time>
      </trkpt>
      <trkpt lat="49.81424" lon="4.86638">
        <ele>287</ele>
        <time>2021-05-15T10:12:37.000Z</time>
      </trkpt>
      <trkpt lat="49.81422" lon="4.86639">
        <ele>286</ele>
        <time>2021-05-15T10:12:38.000Z</time>
      </trkpt>
      <trkpt lat="49.81419" lon="4.86639">
        <ele>286</ele>
        <time>2021-05-15T10:12:39.000Z</time>
      </trkpt>
      <trkpt lat="49.81416" lon="4.8664">
        <ele>285</ele>
        <time>2021-05-15T10:12:40.000Z</time>
      </trkpt>
      <trkpt lat="49.81413" lon="4.86641">
        <ele>285</ele>
        <time>2021-05-15T10:12:41.000Z</time>
      </trkpt>
      <trkpt lat="49.81409" lon="4.86642">
        <ele>284</ele>
        <time>2021-05-15T10:12:42.000Z</time>
      </trkpt>
      <trkpt lat="49.81405" lon="4.86645">
        <ele>284</ele>
        <time>2021-05-15T10:12:43.000Z</time>
      </trkpt>
      <trkpt lat="49.81401" lon="4.86648">
        <ele>283</ele>
        <time>2021-05-15T10:12:44.000Z</time>
      </trkpt>
      <trkpt lat="49.81398" lon="4.86652">
        <ele>283</ele>
        <time>2021-05-15T10:12:45.000Z</time>
      </trkpt>
      <trkpt lat="49.81394" lon="4.86656">
        <ele>282</ele>
        <time>2021-05-15T10:12:46.000Z</time>
      </trkpt>
      <trkpt lat="49.8139" lon="4.8666">
        <ele>281</ele>
        <time>2021-05-15T10:12:47.000Z</time>
      </trkpt>
      <trkpt lat="49.81386" lon="4.86664">
        <ele>281</ele>
        <time>2021-05-15T10:12:48.000Z</time>
      </trkpt>
      <trkpt lat="49.81382" lon="4.86668">
        <ele>280</ele>
        <time>2021-05-15T10:12:49.000Z</time>
      </trkpt>
      <trkpt lat="49.81379" lon="4.86672">
        <ele>279</ele>
        <time>2021-05-15T10:12:50.000Z</time>
      </trkpt>
      <trkpt lat="49.81377" lon="4.86675">
        <ele>279</ele>
        <time>2021-05-15T10:12:51.000Z</time>
      </trkpt>
      <trkpt lat="49.81374" lon="4.86677">
        <ele>278</ele>
        <time>2021-05-15T10:12:52.000Z</time>
      </trkpt>
      <trkpt lat="49.81373" lon="4.86678">
        <ele>277</ele>
        <time>2021-05-15T10:12:53.000Z</time>
      </trkpt>
      <trkpt lat="49.81371" lon="4.86681">
        <ele>277</ele>
        <time>2021-05-15T10:12:54.000Z</time>
      </trkpt>
      <trkpt lat="49.81369" lon="4.86683">
        <ele>276</ele>
        <time>2021-05-15T10:12:55.000Z</time>
      </trkpt>
      <trkpt lat="49.81368" lon="4.86687">
        <ele>275</ele>
        <time>2021-05-15T10:12:56.000Z</time>
      </trkpt>
      <trkpt lat="49.81367" lon="4.86691">
        <ele>274</ele>
        <time>2021-05-15T10:12:57.000Z</time>
      </trkpt>
      <trkpt lat="49.81367" lon="4.86696">
        <ele>274</ele>
        <time>2021-05-15T10:12:58.000Z</time>
      </trkpt>
      <trkpt lat="49.81366" lon="4.86701">
        <ele>273</ele>
        <time>2021-05-15T10:12:59.000Z</time>
      </trkpt>
      <trkpt lat="49.81364" lon="4.86705">
        <ele>272</ele>
        <time>2021-05-15T10:13:00.000Z</time>
      </trkpt>
      <trkpt lat="49.81363" lon="4.86709">
        <ele>271</ele>
        <time>2021-05-15T10:13:01.000Z</time>
      </trkpt>
      <trkpt lat="49.81363" lon="4.86711">
        <ele>271</ele>
        <time>2021-05-15T10:13:02.000Z</time>
      </trkpt>
      <trkpt lat="49.81362" lon="4.86714">
        <ele>270</ele>
        <time>2021-05-15T10:13:03.000Z</time>
      </trkpt>
      <trkpt lat="49.81361" lon="4.86716">
        <ele>269</ele>
        <time>2021-05-15T10:13:04.000Z</time>
      </trkpt>
      <trkpt lat="49.8136" lon="4.86719">
        <ele>269</ele>
        <time>2021-05-15T10:13:05.000Z</time>
      </trkpt>
      <trkpt lat="49.81359" lon="4.86721">
        <ele>268</ele>
        <time>2021-05-15T10:13:06.000Z</time>
      </trkpt>
      <trkpt lat="49.81357" lon="4.86723">
        <ele>268</ele>
        <time>2021-05-15T10:13:07.000Z</time>
      </trkpt>
      <trkpt lat="49.81356" lon="4.86724">
        <ele>267</ele>
        <time>2021-05-15T10:13:08.000Z</time>
      </trkpt>
      <trkpt lat="49.81354" lon="4.86726">
        <ele>267</ele>
        <time>2021-05-15T10:13:09.000Z</time>
      </trkpt>
      <trkpt lat="49.81353" lon="4.86727">
        <ele>266</ele>
        <time>2021-05-15T10:13:10.000Z</time>
      </trkpt>
      <trkpt lat="49.81351" lon="4.86729">
        <ele>265</ele>
        <time>2021-05-15T10:13:11.000Z</time>
      </trkpt>
      <trkpt lat="49.81348" lon="4.86731">
        <ele>265</ele>
        <time>2021-05-15T10:13:12.000Z</time>
      </trkpt>
      <trkpt lat="49.81346" lon="4.86733">
        <ele>264</ele>
        <time>2021-05-15T10:13:13.000Z</time>
      </trkpt>
      <trkpt lat="49.81343" lon="4.86735">
        <ele>264</ele>
        <time>2021-05-15T10:13:14.000Z</time>
      </trkpt>
      <trkpt lat="49.81341" lon="4.86738">
        <ele>263</ele>
        <time>2021-05-15T10:13:15.000Z</time>
      </trkpt>
      <trkpt lat="49.81339" lon="4.8674">
        <ele>263</ele>
        <time>2021-05-15T10:13:16.000Z</time>
      </trkpt>
      <trkpt lat="49.81336" lon="4.86742">
        <ele>262</ele>
        <time>2021-05-15T10:13:17.000Z</time>
      </trkpt>
      <trkpt lat="49.81334" lon="4.86744">
        <ele>261</ele>
        <time>2021-05-15T10:13:18.000Z</time>
      </trkpt>
      <trkpt lat="49.81331" lon="4.86746">
        <ele>261</ele>
        <time>2021-05-15T10:13:19.000Z</time>
      </trkpt>
      <trkpt lat="49.81329" lon="4.86748">
        <ele>261</ele>
        <time>2021-05-15T10:13:20.000Z</time>
      </trkpt>
      <trkpt lat="49.81326" lon="4.8675">
        <ele>260</ele>
        <time>2021-05-15T10:13:21.000Z</time>
      </trkpt>
      <trkpt lat="49.81324" lon="4.86752">
        <ele>260</ele>
        <time>2021-05-15T10:13:22.000Z</time>
      </trkpt>
      <trkpt lat="49.81322" lon="4.86755">
        <ele>259</ele>
        <time>2021-05-15T10:13:23.000Z</time>
      </trkpt>
      <trkpt lat="49.8132" lon="4.86757">
        <ele>259</ele>
        <time>2021-05-15T10:13:24.000Z</time>
      </trkpt>
      <trkpt lat="49.81318" lon="4.86759">
        <ele>259</ele>
        <time>2021-05-15T10:13:25.000Z</time>
      </trkpt>
      <trkpt lat="49.81316" lon="4.86761">
        <ele>258</ele>
        <time>2021-05-15T10:13:26.000Z</time>
      </trkpt>
      <trkpt lat="49.81313" lon="4.86763">
        <ele>258</ele>
        <time>2021-05-15T10:13:27.000Z</time>
      </trkpt>
      <trkpt lat="49.81311" lon="4.86765">
        <ele>257</ele>
        <time>2021-05-15T10:13:28.000Z</time>
      </trkpt>
      <trkpt lat="49.81308" lon="4.86767">
        <ele>257</ele>
        <time>2021-05-15T10:13:29.000Z</time>
      </trkpt>
      <trkpt lat="49.81306" lon="4.86768">
        <ele>257</ele>
        <time>2021-05-15T10:13:30.000Z</time>
      </trkpt>
      <trkpt lat="49.81304" lon="4.86769">
        <ele>257</ele>
        <time>2021-05-15T10:13:31.000Z</time>
      </trkpt>
      <trkpt lat="49.81302" lon="4.8677">
        <ele>256</ele>
        <time>2021-05-15T10:13:32.000Z</time>
      </trkpt>
      <trkpt lat="49.813" lon="4.86771">
        <ele>256</ele>
        <time>2021-05-15T10:13:33.000Z</time>
      </trkpt>
      <trkpt lat="49.81298" lon="4.86772">
        <ele>256</ele>
        <time>2021-05-15T10:13:34.000Z</time>
      </trkpt>
      <trkpt lat="49.81296" lon="4.86773">
        <ele>256</ele>
        <time>2021-05-15T10:13:35.000Z</time>
      </trkpt>
      <trkpt lat="49.81293" lon="4.86774">
        <ele>255</ele>
        <time>2021-05-15T10:13:36.000Z</time>
      </trkpt>
      <trkpt lat="49.8129" lon="4.86775">
        <ele>254</ele>
        <time>2021-05-15T10:13:37.000Z</time>
      </trkpt>
      <trkpt lat="49.81287" lon="4.86775">
        <ele>254</ele>
        <time>2021-05-15T10:13:38.000Z</time>
      </trkpt>
      <trkpt lat="49.81283" lon="4.86775">
        <ele>253</ele>
        <time>2021-05-15T10:13:39.000Z</time>
      </trkpt>
      <trkpt lat="49.8128" lon="4.86775">
        <ele>253</ele>
        <time>2021-05-15T10:13:40.000Z</time>
      </trkpt>
      <trkpt lat="49.81277" lon="4.86776">
        <ele>252</ele>
        <time>2021-05-15T10:13:41.000Z</time>
      </trkpt>
      <trkpt lat="49.81274" lon="4.86776">
        <ele>252</ele>
        <time>2021-05-15T10:13:42.000Z</time>
      </trkpt>
      <trkpt lat="49.8127" lon="4.86776">
        <ele>251</ele>
        <time>2021-05-15T10:13:43.000Z</time>
      </trkpt>
      <trkpt lat="49.81267" lon="4.86777">
        <ele>251</ele>
        <time>2021-05-15T10:13:44.000Z</time>
      </trkpt>
      <trkpt lat="49.81264" lon="4.86778">
        <ele>251</ele>
        <time>2021-05-15T10:13:45.000Z</time>
      </trkpt>
      <trkpt lat="49.8126" lon="4.86778">
        <ele>250</ele>
        <time>2021-05-15T10:13:46.000Z</time>
      </trkpt>
      <trkpt lat="49.81257" lon="4.86779">
        <ele>250</ele>
        <time>2021-05-15T10:13:47.000Z</time>
      </trkpt>
      <trkpt lat="49.81255" lon="4.8678">
        <ele>249</ele>
        <time>2021-05-15T10:13:48.000Z</time>
      </trkpt>
      <trkpt lat="49.81252" lon="4.86781">
        <ele>249</ele>
        <time>2021-05-15T10:13:49.000Z</time>
      </trkpt>
      <trkpt lat="49.8125" lon="4.86782">
        <ele>249</ele>
        <time>2021-05-15T10:13:50.000Z</time>
      </trkpt>
      <trkpt lat="49.81248" lon="4.86783">
        <ele>249</ele>
        <time>2021-05-15T10:13:51.000Z</time>
      </trkpt>
      <trkpt lat="49.81246" lon="4.86784">
        <ele>249</ele>
        <time>2021-05-15T10:13:52.000Z</time>
      </trkpt>
      <trkpt lat="49.81244" lon="4.86785">
        <ele>248</ele>
        <time>2021-05-15T10:13:53.000Z</time>
      </trkpt>
      <trkpt lat="49.81244" lon="4.86786">
        <ele>248</ele>
        <time>2021-05-15T10:13:54.000Z</time>
      </trkpt>
      <trkpt lat="49.81244" lon="4.86787">
        <ele>248</ele>
        <time>2021-05-15T10:13:55.000Z</time>
      </trkpt>
      <trkpt lat="49.81245" lon="4.86786">
        <ele>248</ele>
        <time>2021-05-15T10:13:56.000Z</time>
      </trkpt>
      <trkpt lat="49.81246" lon="4.86784">
        <ele>247</ele>
        <time>2021-05-15T10:13:57.000Z</time>
      </trkpt>
      <trkpt lat="49.81248" lon="4.86782">
        <ele>247</ele>
        <time>2021-05-15T10:13:58.000Z</time>
      </trkpt>
      <trkpt lat="49.8125" lon="4.86779">
        <ele>247</ele>
        <time>2021-05-15T10:13:59.000Z</time>
      </trkpt>
      <trkpt lat="49.81252" lon="4.86777">
        <ele>247</ele>
        <time>2021-05-15T10:14:00.000Z</time>
      </trkpt>
      <trkpt lat="49.81255" lon="4.86774">
        <ele>247</ele>
        <time>2021-05-15T10:14:01.000Z</time>
      </trkpt>
      <trkpt lat="49.81259" lon="4.86773">
        <ele>247</ele>
        <time>2021-05-15T10:14:02.000Z</time>
      </trkpt>
      <trkpt lat="49.81263" lon="4.86771">
        <ele>247</ele>
        <time>2021-05-15T10:14:03.000Z</time>
      </trkpt>
      <trkpt lat="49.81267" lon="4.86771">
        <ele>246</ele>
        <time>2021-05-15T10:14:04.000Z</time>
      </trkpt>
      <trkpt lat="49.81271" lon="4.86771">
        <ele>246</ele>
        <time>2021-05-15T10:14:05.000Z</time>
      </trkpt>
      <trkpt lat="49.81275" lon="4.8677">
        <ele>246</ele>
        <time>2021-05-15T10:14:06.000Z</time>
      </trkpt>
      <trkpt lat="49.8128" lon="4.86769">
        <ele>246</ele>
        <time>2021-05-15T10:14:07.000Z</time>
      </trkpt>
      <trkpt lat="49.81285" lon="4.86767">
        <ele>246</ele>
        <time>2021-05-15T10:14:08.000Z</time>
      </trkpt>
      <trkpt lat="49.81291" lon="4.86766">
        <ele>246</ele>
        <time>2021-05-15T10:14:09.000Z</time>
      </trkpt>
      <trkpt lat="49.81297" lon="4.86764">
        <ele>245</ele>
        <time>2021-05-15T10:14:10.000Z</time>
      </trkpt>
      <trkpt lat="49.81303" lon="4.86761">
        <ele>245</ele>
        <time>2021-05-15T10:14:11.000Z</time>
      </trkpt>
      <trkpt lat="49.81309" lon="4.86757">
        <ele>245</ele>
        <time>2021-05-15T10:14:12.000Z</time>
      </trkpt>
      <trkpt lat="49.81314" lon="4.86753">
        <ele>245</ele>
        <time>2021-05-15T10:14:13.000Z</time>
      </trkpt>
      <trkpt lat="49.81319" lon="4.86749">
        <ele>245</ele>
        <time>2021-05-15T10:14:14.000Z</time>
      </trkpt>
      <trkpt lat="49.81325" lon="4.86744">
        <ele>245</ele>
        <time>2021-05-15T10:14:15.000Z</time>
      </trkpt>
      <trkpt lat="49.8133" lon="4.86739">
        <ele>244</ele>
        <time>2021-05-15T10:14:16.000Z</time>
      </trkpt>
      <trkpt lat="49.81335" lon="4.86734">
        <ele>244</ele>
        <time>2021-05-15T10:14:17.000Z</time>
      </trkpt>
      <trkpt lat="49.81341" lon="4.86729">
        <ele>244</ele>
        <time>2021-05-15T10:14:18.000Z</time>
      </trkpt>
      <trkpt lat="49.81346" lon="4.86725">
        <ele>244</ele>
        <time>2021-05-15T10:14:19.000Z</time>
      </trkpt>
      <trkpt lat="49.8135" lon="4.86722">
        <ele>244</ele>
        <time>2021-05-15T10:14:20.000Z</time>
      </trkpt>
      <trkpt lat="49.81354" lon="4.86719">
        <ele>244</ele>
        <time>2021-05-15T10:14:21.000Z</time>
      </trkpt>
      <trkpt lat="49.81357" lon="4.86716">
        <ele>244</ele>
        <time>2021-05-15T10:14:22.000Z</time>
      </trkpt>
      <trkpt lat="49.81359" lon="4.86714">
        <ele>244</ele>
        <time>2021-05-15T10:14:23.000Z</time>
      </trkpt>
      <trkpt lat="49.8136" lon="4.86712">
        <ele>243</ele>
        <time>2021-05-15T10:14:24.000Z</time>
      </trkpt>
      <trkpt lat="49.8136" lon="4.8671">
        <ele>243</ele>
        <time>2021-05-15T10:14:25.000Z</time>
      </trkpt>
      <trkpt lat="49.81361" lon="4.86709">
        <ele>243</ele>
        <time>2021-05-15T10:14:26.000Z</time>
      </trkpt>
      <trkpt lat="49.81361" lon="4.86708">
        <ele>243</ele>
        <time>2021-05-15T10:14:27.000Z</time>
      </trkpt>
      <trkpt lat="49.81361" lon="4.86706">
        <ele>243</ele>
        <time>2021-05-15T10:14:28.000Z</time>
      </trkpt>
      <trkpt lat="49.81362" lon="4.86704">
        <ele>243</ele>
        <time>2021-05-15T10:14:29.000Z</time>
      </trkpt>
      <trkpt lat="49.81363" lon="4.86703">
        <ele>243</ele>
        <time>2021-05-15T10:14:30.000Z</time>
      </trkpt>
      <trkpt lat="49.81364" lon="4.86701">
        <ele>243</ele>
        <time>2021-05-15T10:14:31.000Z</time>
      </trkpt>
      <trkpt lat="49.81365" lon="4.867">
        <ele>242</ele>
        <time>2021-05-15T10:14:32.000Z</time>
      </trkpt>
      <trkpt lat="49.81365" lon="4.86699">
        <ele>242</ele>
        <time>2021-05-15T10:14:33.000Z</time>
      </trkpt>
      <trkpt lat="49.81365" lon="4.86698">
        <ele>242</ele>
        <time>2021-05-15T10:14:34.000Z</time>
      </trkpt>
      <trkpt lat="49.81366" lon="4.86697">
        <ele>242</ele>
        <time>2021-05-15T10:14:35.000Z</time>
      </trkpt>
      <trkpt lat="49.81367" lon="4.86696">
        <ele>242</ele>
        <time>2021-05-15T10:14:36.000Z</time>
      </trkpt>
      <trkpt lat="49.81367" lon="4.86695">
        <ele>241</ele>
        <time>2021-05-15T10:14:37.000Z</time>
      </trkpt>
      <trkpt lat="49.81367" lon="4.86693">
        <ele>241</ele>
        <time>2021-05-15T10:14:38.000Z</time>
      </trkpt>
      <trkpt lat="49.81367" lon="4.86692">
        <ele>241</ele>
        <time>2021-05-15T10:14:39.000Z</time>
      </trkpt>
      <trkpt lat="49.81367" lon="4.86691">
        <ele>241</ele>
        <time>2021-05-15T10:14:40.000Z</time>
      </trkpt>
      <trkpt lat="49.81367" lon="4.8669">
        <ele>241</ele>
        <time>2021-05-15T10:14:41.000Z</time>
      </trkpt>
      <trkpt lat="49.81368" lon="4.86688">
        <ele>241</ele>
        <time>2021-05-15T10:14:42.000Z</time>
      </trkpt>
      <trkpt lat="49.81368" lon="4.86686">
        <ele>241</ele>
        <time>2021-05-15T10:14:43.000Z</time>
      </trkpt>
      <trkpt lat="49.81368" lon="4.86685">
        <ele>241</ele>
        <time>2021-05-15T10:14:44.000Z</time>
      </trkpt>
      <trkpt lat="49.81368" lon="4.86684">
        <ele>241</ele>
        <time>2021-05-15T10:14:45.000Z</time>
      </trkpt>
      <trkpt lat="49.81369" lon="4.86683">
        <ele>241</ele>
        <time>2021-05-15T10:14:46.000Z</time>
      </trkpt>
      <trkpt lat="49.81369" lon="4.86682">
        <ele>241</ele>
        <time>2021-05-15T10:14:47.000Z</time>
      </trkpt>
      <trkpt lat="49.8137" lon="4.86681">
        <ele>241</ele>
        <time>2021-05-15T10:14:48.000Z</time>
      </trkpt>
      <trkpt lat="49.81371" lon="4.86679">
        <ele>242</ele>
        <time>2021-05-15T10:14:49.000Z</time>
      </trkpt>
      <trkpt lat="49.81371" lon="4.86678">
        <ele>242</ele>
        <time>2021-05-15T10:14:50.000Z</time>
      </trkpt>
      <trkpt lat="49.81371" lon="4.86676">
        <ele>242</ele>
        <time>2021-05-15T10:14:51.000Z</time>
      </trkpt>
      <trkpt lat="49.81371" lon="4.86674">
        <ele>242</ele>
        <time>2021-05-15T10:14:52.000Z</time>
      </trkpt>
      <trkpt lat="49.81371" lon="4.86673">
        <ele>242</ele>
        <time>2021-05-15T10:14:53.000Z</time>
      </trkpt>
      <trkpt lat="49.81371" lon="4.86672">
        <ele>243</ele>
        <time>2021-05-15T10:14:54.000Z</time>
      </trkpt>
      <trkpt lat="49.81372" lon="4.86671">
        <ele>243</ele>
        <time>2021-05-15T10:14:55.000Z</time>
      </trkpt>
      <trkpt lat="49.81373" lon="4.86669">
        <ele>243</ele>
        <time>2021-05-15T10:14:56.000Z</time>
      </trkpt>
      <trkpt lat="49.81374" lon="4.86668">
        <ele>243</ele>
        <time>2021-05-15T10:14:57.000Z</time>
      </trkpt>
      <trkpt lat="49.81374" lon="4.86667">
        <ele>243</ele>
        <time>2021-05-15T10:14:58.000Z</time>
      </trkpt>
      <trkpt lat="49.81374" lon="4.86666">
        <ele>244</ele>
        <time>2021-05-15T10:14:59.000Z</time>
      </trkpt>
      <trkpt lat="49.81375" lon="4.86665">
        <ele>244</ele>
        <time>2021-05-15T10:15:00.000Z</time>
      </trkpt>
      <trkpt lat="49.81376" lon="4.86664">
        <ele>244</ele>
        <time>2021-05-15T10:15:01.000Z</time>
      </trkpt>
      <trkpt lat="49.81377" lon="4.86663">
        <ele>245</ele>
        <time>2021-05-15T10:15:02.000Z</time>
      </trkpt>
      <trkpt lat="49.81377" lon="4.86663">
        <ele>245</ele>
        <time>2021-05-15T10:15:03.000Z</time>
      </trkpt>
      <trkpt lat="49.81378" lon="4.86662">
        <ele>245</ele>
        <time>2021-05-15T10:15:04.000Z</time>
      </trkpt>
      <trkpt lat="49.81378" lon="4.86661">
        <ele>246</ele>
        <time>2021-05-15T10:15:05.000Z</time>
      </trkpt>
      <trkpt lat="49.81379" lon="4.86659">
        <ele>246</ele>
        <time>2021-05-15T10:15:06.000Z</time>
      </trkpt>
      <trkpt lat="49.81379" lon="4.86659">
        <ele>246</ele>
        <time>2021-05-15T10:15:07.000Z</time>
      </trkpt>
      <trkpt lat="49.81379" lon="4.86658">
        <ele>247</ele>
        <time>2021-05-15T10:15:08.000Z</time>
      </trkpt>
      <trkpt lat="49.8138" lon="4.86656">
        <ele>247</ele>
        <time>2021-05-15T10:15:09.000Z</time>
      </trkpt>
      <trkpt lat="49.81381" lon="4.86655">
        <ele>247</ele>
        <time>2021-05-15T10:15:10.000Z</time>
      </trkpt>
      <trkpt lat="49.81381" lon="4.86655">
        <ele>247</ele>
        <time>2021-05-15T10:15:11.000Z</time>
      </trkpt>
      <trkpt lat="49.81382" lon="4.86654">
        <ele>248</ele>
        <time>2021-05-15T10:15:12.000Z</time>
      </trkpt>
      <trkpt lat="49.81383" lon="4.86653">
        <ele>248</ele>
        <time>2021-05-15T10:15:13.000Z</time>
      </trkpt>
      <trkpt lat="49.81384" lon="4.86652">
        <ele>248</ele>
        <time>2021-05-15T10:15:14.000Z</time>
      </trkpt>
      <trkpt lat="49.81384" lon="4.86651">
        <ele>249</ele>
        <time>2021-05-15T10:15:15.000Z</time>
      </trkpt>
      <trkpt lat="49.81385" lon="4.86651">
        <ele>249</ele>
        <time>2021-05-15T10:15:16.000Z</time>
      </trkpt>
      <trkpt lat="49.81385" lon="4.8665">
        <ele>249</ele>
        <time>2021-05-15T10:15:17.000Z</time>
      </trkpt>
      <trkpt lat="49.81386" lon="4.86649">
        <ele>250</ele>
        <time>2021-05-15T10:15:18.000Z</time>
      </trkpt>
      <trkpt lat="49.81387" lon="4.86648">
        <ele>250</ele>
        <time>2021-05-15T10:15:19.000Z</time>
      </trkpt>
      <trkpt lat="49.81388" lon="4.86646">
        <ele>250</ele>
        <time>2021-05-15T10:15:20.000Z</time>
      </trkpt>
      <trkpt lat="49.81389" lon="4.86645">
        <ele>250</ele>
        <time>2021-05-15T10:15:21.000Z</time>
      </trkpt>
      <trkpt lat="49.81389" lon="4.86644">
        <ele>251</ele>
        <time>2021-05-15T10:15:22.000Z</time>
      </trkpt>
      <trkpt lat="49.8139" lon="4.86643">
        <ele>251</ele>
        <time>2021-05-15T10:15:23.000Z</time>
      </trkpt>
      <trkpt lat="49.81391" lon="4.86642">
        <ele>252</ele>
        <time>2021-05-15T10:15:24.000Z</time>
      </trkpt>
      <trkpt lat="49.81391" lon="4.86641">
        <ele>252</ele>
        <time>2021-05-15T10:15:25.000Z</time>
      </trkpt>
      <trkpt lat="49.81392" lon="4.8664">
        <ele>252</ele>
        <time>2021-05-15T10:15:26.000Z</time>
      </trkpt>
      <trkpt lat="49.81393" lon="4.86639">
        <ele>253</ele>
        <time>2021-05-15T10:15:27.000Z</time>
      </trkpt>
      <trkpt lat="49.81393" lon="4.86639">
        <ele>253</ele>
        <time>2021-05-15T10:15:28.000Z</time>
      </trkpt>
      <trkpt lat="49.81394" lon="4.86638">
        <ele>253</ele>
        <time>2021-05-15T10:15:29.000Z</time>
      </trkpt>
      <trkpt lat="49.81395" lon="4.86638">
        <ele>254</ele>
        <time>2021-05-15T10:15:30.000Z</time>
      </trkpt>
      <trkpt lat="49.81395" lon="4.86637">
        <ele>254</ele>
        <time>2021-05-15T10:15:31.000Z</time>
      </trkpt>
      <trkpt lat="49.81396" lon="4.86636">
        <ele>254</ele>
        <time>2021-05-15T10:15:32.000Z</time>
      </trkpt>
      <trkpt lat="49.81396" lon="4.86635">
        <ele>255</ele>
        <time>2021-05-15T10:15:33.000Z</time>
      </trkpt>
      <trkpt lat="49.81397" lon="4.86635">
        <ele>255</ele>
        <time>2021-05-15T10:15:34.000Z</time>
      </trkpt>
      <trkpt lat="49.81397" lon="4.86634">
        <ele>255</ele>
        <time>2021-05-15T10:15:35.000Z</time>
      </trkpt>
      <trkpt lat="49.81398" lon="4.86634">
        <ele>256</ele>
        <time>2021-05-15T10:15:36.000Z</time>
      </trkpt>
      <trkpt lat="49.81399" lon="4.86634">
        <ele>256</ele>
        <time>2021-05-15T10:15:37.000Z</time>
      </trkpt>
      <trkpt lat="49.814" lon="4.86633">
        <ele>256</ele>
        <time>2021-05-15T10:15:38.000Z</time>
      </trkpt>
      <trkpt lat="49.814" lon="4.86633">
        <ele>257</ele>
        <time>2021-05-15T10:15:39.000Z</time>
      </trkpt>
      <trkpt lat="49.81401" lon="4.86633">
        <ele>257</ele>
        <time>2021-05-15T10:15:40.000Z</time>
      </trkpt>
      <trkpt lat="49.81402" lon="4.86632">
        <ele>257</ele>
        <time>2021-05-15T10:15:41.000Z</time>
      </trkpt>
      <trkpt lat="49.81402" lon="4.86632">
        <ele>258</ele>
        <time>2021-05-15T10:15:42.000Z</time>
      </trkpt>
      <trkpt lat="49.81403" lon="4.86631">
        <ele>258</ele>
        <time>2021-05-15T10:15:43.000Z</time>
      </trkpt>
      <trkpt lat="49.81403" lon="4.8663">
        <ele>259</ele>
        <time>2021-05-15T10:15:44.000Z</time>
      </trkpt>
      <trkpt lat="49.81404" lon="4.86629">
        <ele>259</ele>
        <time>2021-05-15T10:15:45.000Z</time>
      </trkpt>
      <trkpt lat="49.81405" lon="4.86628">
        <ele>260</ele>
        <time>2021-05-15T10:15:46.000Z</time>
      </trkpt>
      <trkpt lat="49.81406" lon="4.86627">
        <ele>260</ele>
        <time>2021-05-15T10:15:47.000Z</time>
      </trkpt>
      <trkpt lat="49.81407" lon="4.86626">
        <ele>261</ele>
        <time>2021-05-15T10:15:48.000Z</time>
      </trkpt>
      <trkpt lat="49.81407" lon="4.86625">
        <ele>261</ele>
        <time>2021-05-15T10:15:49.000Z</time>
      </trkpt>
      <trkpt lat="49.81408" lon="4.86625">
        <ele>262</ele>
        <time>2021-05-15T10:15:50.000Z</time>
      </trkpt>
      <trkpt lat="49.81409" lon="4.86624">
        <ele>262</ele>
        <time>2021-05-15T10:15:51.000Z</time>
      </trkpt>
      <trkpt lat="49.8141" lon="4.86624">
        <ele>262</ele>
        <time>2021-05-15T10:15:52.000Z</time>
      </trkpt>
      <trkpt lat="49.81412" lon="4.86624">
        <ele>263</ele>
        <time>2021-05-15T10:15:53.000Z</time>
      </trkpt>
      <trkpt lat="49.81413" lon="4.86625">
        <ele>263</ele>
        <time>2021-05-15T10:15:54.000Z</time>
      </trkpt>
      <trkpt lat="49.81414" lon="4.86625">
        <ele>263</ele>
        <time>2021-05-15T10:15:55.000Z</time>
      </trkpt>
      <trkpt lat="49.81415" lon="4.86626">
        <ele>263</ele>
        <time>2021-05-15T10:15:56.000Z</time>
      </trkpt>
      <trkpt lat="49.81416" lon="4.86627">
        <ele>263</ele>
        <time>2021-05-15T10:15:57.000Z</time>
      </trkpt>
      <trkpt lat="49.81417" lon="4.86628">
        <ele>263</ele>
        <time>2021-05-15T10:15:58.000Z</time>
      </trkpt>
      <trkpt lat="49.81418" lon="4.86628">
        <ele>264</ele>
        <time>2021-05-15T10:15:59.000Z</time>
      </trkpt>
      <trkpt lat="49.81419" lon="4.86628">
        <ele>264</ele>
        <time>2021-05-15T10:16:00.000Z</time>
      </trkpt>
      <trkpt lat="49.81419" lon="4.86628">
        <ele>264</ele>
        <time>2021-05-15T10:16:01.000Z</time>
      </trkpt>
      <trkpt lat="49.8142" lon="4.86629">
        <ele>264</ele>
        <time>2021-05-15T10:16:02.000Z</time>
      </trkpt>
      <trkpt lat="49.81421" lon="4.86631">
        <ele>265</ele>
        <time>2021-05-15T10:16:03.000Z</time>
      </trkpt>
      <trkpt lat="49.81422" lon="4.86633">
        <ele>265</ele>
        <time>2021-05-15T10:16:04.000Z</time>
      </trkpt>
      <trkpt lat="49.81423" lon="4.86634">
        <ele>265</ele>
        <time>2021-05-15T10:16:05.000Z</time>
      </trkpt>
      <trkpt lat="49.81425" lon="4.86636">
        <ele>265</ele>
        <time>2021-05-15T10:16:06.000Z</time>
      </trkpt>
      <trkpt lat="49.81426" lon="4.86637">
        <ele>265</ele>
        <time>2021-05-15T10:16:07.000Z</time>
      </trkpt>
      <trkpt lat="49.81428" lon="4.86639">
        <ele>265</ele>
        <time>2021-05-15T10:16:08.000Z</time>
      </trkpt>
      <trkpt lat="49.8143" lon="4.86641">
        <ele>266</ele>
        <time>2021-05-15T10:16:09.000Z</time>
      </trkpt>
      <trkpt lat="49.81432" lon="4.86642">
        <ele>266</ele>
        <time>2021-05-15T10:16:10.000Z</time>
      </trkpt>
      <trkpt lat="49.81434" lon="4.86644">
        <ele>266</ele>
        <time>2021-05-15T10:16:11.000Z</time>
      </trkpt>
      <trkpt lat="49.81435" lon="4.86646">
        <ele>266</ele>
        <time>2021-05-15T10:16:12.000Z</time>
      </trkpt>
      <trkpt lat="49.81437" lon="4.86647">
        <ele>266</ele>
        <time>2021-05-15T10:16:13.000Z</time>
      </trkpt>
      <trkpt lat="49.81438" lon="4.86648">
        <ele>266</ele>
        <time>2021-05-15T10:16:14.000Z</time>
      </trkpt>
      <trkpt lat="49.81439" lon="4.86649">
        <ele>267</ele>
        <time>2021-05-15T10:16:15.000Z</time>
      </trkpt>
      <trkpt lat="49.8144" lon="4.86651">
        <ele>267</ele>
        <time>2021-05-15T10:16:16.000Z</time>
      </trkpt>
      <trkpt lat="49.81441" lon="4.86653">
        <ele>267</ele>
        <time>2021-05-15T10:16:17.000Z</time>
      </trkpt>
      <trkpt lat="49.81443" lon="4.86655">
        <ele>267</ele>
        <time>2021-05-15T10:16:18.000Z</time>
      </trkpt>
      <trkpt lat="49.81444" lon="4.86657">
        <ele>267</ele>
        <time>2021-05-15T10:16:19.000Z</time>
      </trkpt>
      <trkpt lat="49.81446" lon="4.86659">
        <ele>267</ele>
        <time>2021-05-15T10:16:20.000Z</time>
      </trkpt>
      <trkpt lat="49.81448" lon="4.8666">
        <ele>267</ele>
        <time>2021-05-15T10:16:21.000Z</time>
      </trkpt>
      <trkpt lat="49.81451" lon="4.86662">
        <ele>267</ele>
        <time>2021-05-15T10:16:22.000Z</time>
      </trkpt>
      <trkpt lat="49.81454" lon="4.86663">
        <ele>267</ele>
        <time>2021-05-15T10:16:23.000Z</time>
      </trkpt>
      <trkpt lat="49.81456" lon="4.86665">
        <ele>267</ele>
        <time>2021-05-15T10:16:24.000Z</time>
      </trkpt>
      <trkpt lat="49.8146" lon="4.86666">
        <ele>267</ele>
        <time>2021-05-15T10:16:25.000Z</time>
      </trkpt>
      <trkpt lat="49.81463" lon="4.86668">
        <ele>267</ele>
        <time>2021-05-15T10:16:26.000Z</time>
      </trkpt>
      <trkpt lat="49.81468" lon="4.86669">
        <ele>267</ele>
        <time>2021-05-15T10:16:27.000Z</time>
      </trkpt>
      <trkpt lat="49.81471" lon="4.86671">
        <ele>268</ele>
        <time>2021-05-15T10:16:28.000Z</time>
      </trkpt>
      <trkpt lat="49.81475" lon="4.86673">
        <ele>268</ele>
        <time>2021-05-15T10:16:29.000Z</time>
      </trkpt>
      <trkpt lat="49.81478" lon="4.86674">
        <ele>268</ele>
        <time>2021-05-15T10:16:30.000Z</time>
      </trkpt>
      <trkpt lat="49.81482" lon="4.86676">
        <ele>268</ele>
        <time>2021-05-15T10:16:31.000Z</time>
      </trkpt>
      <trkpt lat="49.81486" lon="4.86677">
        <ele>268</ele>
        <time>2021-05-15T10:16:32.000Z</time>
      </trkpt>
      <trkpt lat="49.81489" lon="4.86678">
        <ele>268</ele>
        <time>2021-05-15T10:16:33.000Z</time>
      </trkpt>
      <trkpt lat="49.81492" lon="4.86679">
        <ele>268</ele>
        <time>2021-05-15T10:16:34.000Z</time>
      </trkpt>
      <trkpt lat="49.81495" lon="4.8668">
        <ele>268</ele>
        <time>2021-05-15T10:16:35.000Z</time>
      </trkpt>
      <trkpt lat="49.81498" lon="4.86682">
        <ele>268</ele>
        <time>2021-05-15T10:16:36.000Z</time>
      </trkpt>
      <trkpt lat="49.81501" lon="4.86683">
        <ele>269</ele>
        <time>2021-05-15T10:16:37.000Z</time>
      </trkpt>
      <trkpt lat="49.81505" lon="4.86684">
        <ele>269</ele>
        <time>2021-05-15T10:16:38.000Z</time>
      </trkpt>
      <trkpt lat="49.81508" lon="4.86685">
        <ele>269</ele>
        <time>2021-05-15T10:16:39.000Z</time>
      </trkpt>
      <trkpt lat="49.81511" lon="4.86686">
        <ele>269</ele>
        <time>2021-05-15T10:16:40.000Z</time>
      </trkpt>
      <trkpt lat="49.81515" lon="4.86687">
        <ele>269</ele>
        <time>2021-05-15T10:16:41.000Z</time>
      </trkpt>
      <trkpt lat="49.81518" lon="4.86688">
        <ele>269</ele>
        <time>2021-05-15T10:16:42.000Z</time>
      </trkpt>
      <trkpt lat="49.81521" lon="4.86689">
        <ele>269</ele>
        <time>2021-05-15T10:16:43.000Z</time>
      </trkpt>
      <trkpt lat="49.81524" lon="4.8669">
        <ele>269</ele>
        <time>2021-05-15T10:16:44.000Z</time>
      </trkpt>
      <trkpt lat="49.81528" lon="4.8669">
        <ele>270</ele>
        <time>2021-05-15T10:16:45.000Z</time>
      </trkpt>
      <trkpt lat="49.81531" lon="4.8669">
        <ele>270</ele>
        <time>2021-05-15T10:16:46.000Z</time>
      </trkpt>
      <trkpt lat="49.81534" lon="4.86691">
        <ele>270</ele>
        <time>2021-05-15T10:16:47.000Z</time>
      </trkpt>
      <trkpt lat="49.81538" lon="4.86692">
        <ele>270</ele>
        <time>2021-05-15T10:16:48.000Z</time>
      </trkpt>
      <trkpt lat="49.81541" lon="4.86692">
        <ele>270</ele>
        <time>2021-05-15T10:16:49.000Z</time>
      </trkpt>
      <trkpt lat="49.81545" lon="4.86692">
        <ele>270</ele>
        <time>2021-05-15T10:16:50.000Z</time>
      </trkpt>
      <trkpt lat="49.81549" lon="4.86693">
        <ele>270</ele>
        <time>2021-05-15T10:16:51.000Z</time>
      </trkpt>
      <trkpt lat="49.81552" lon="4.86693">
        <ele>270</ele>
        <time>2021-05-15T10:16:52.000Z</time>
      </trkpt>
      <trkpt lat="49.81555" lon="4.86693">
        <ele>270</ele>
        <time>2021-05-15T10:16:53.000Z</time>
      </trkpt>
      <trkpt lat="49.81559" lon="4.86693">
        <ele>270</ele>
        <time>2021-05-15T10:16:54.000Z</time>
      </trkpt>
      <trkpt lat="49.81562" lon="4.86694">
        <ele>270</ele>
        <time>2021-05-15T10:16:55.000Z</time>
      </trkpt>
      <trkpt lat="49.81565" lon="4.86695">
        <ele>270</ele>
        <time>2021-05-15T10:16:56.000Z</time>
      </trkpt>
      <trkpt lat="49.81569" lon="4.86696">
        <ele>271</ele>
        <time>2021-05-15T10:16:57.000Z</time>
      </trkpt>
      <trkpt lat="49.81572" lon="4.86698">
        <ele>271</ele>
        <time>2021-05-15T10:16:58.000Z</time>
      </trkpt>
      <trkpt lat="49.81577" lon="4.86701">
        <ele>271</ele>
        <time>2021-05-15T10:16:59.000Z</time>
      </trkpt>
      <trkpt lat="49.81582" lon="4.86704">
        <ele>271</ele>
        <time>2021-05-15T10:17:00.000Z</time>
      </trkpt>
      <trkpt lat="49.81587" lon="4.86708">
        <ele>271</ele>
        <time>2021-05-15T10:17:01.000Z</time>
      </trkpt>
      <trkpt lat="49.81592" lon="4.86712">
        <ele>271</ele>
        <time>2021-05-15T10:17:02.000Z</time>
      </trkpt>
      <trkpt lat="49.81597" lon="4.86717">
        <ele>271</ele>
        <time>2021-05-15T10:17:03.000Z</time>
      </trkpt>
      <trkpt lat="49.81601" lon="4.86722">
        <ele>271</ele>
        <time>2021-05-15T10:17:04.000Z</time>
      </trkpt>
      <trkpt lat="49.81604" lon="4.86728">
        <ele>271</ele>
        <time>2021-05-15T10:17:05.000Z</time>
      </trkpt>
      <trkpt lat="49.81607" lon="4.86734">
        <ele>271</ele>
        <time>2021-05-15T10:17:06.000Z</time>
      </trkpt>
      <trkpt lat="49.81611" lon="4.8674">
        <ele>271</ele>
        <time>2021-05-15T10:17:07.000Z</time>
      </trkpt>
      <trkpt lat="49.81614" lon="4.86746">
        <ele>271</ele>
        <time>2021-05-15T10:17:08.000Z</time>
      </trkpt>
      <trkpt lat="49.81615" lon="4.86752">
        <ele>271</ele>
        <time>2021-05-15T10:17:09.000Z</time>
      </trkpt>
      <trkpt lat="49.81617" lon="4.86758">
        <ele>271</ele>
        <time>2021-05-15T10:17:10.000Z</time>
      </trkpt>
      <trkpt lat="49.81618" lon="4.86763">
        <ele>271</ele>
        <time>2021-05-15T10:17:11.000Z</time>
      </trkpt>
      <trkpt lat="49.81619" lon="4.86769">
        <ele>271</ele>
        <time>2021-05-15T10:17:12.000Z</time>
      </trkpt>
      <trkpt lat="49.81621" lon="4.86774">
        <ele>271</ele>
        <time>2021-05-15T10:17:13.000Z</time>
      </trkpt>
      <trkpt lat="49.81624" lon="4.86779">
        <ele>271</ele>
        <time>2021-05-15T10:17:14.000Z</time>
      </trkpt>
      <trkpt lat="49.81626" lon="4.86785">
        <ele>271</ele>
        <time>2021-05-15T10:17:15.000Z</time>
      </trkpt>
      <trkpt lat="49.81629" lon="4.86791">
        <ele>271</ele>
        <time>2021-05-15T10:17:16.000Z</time>
      </trkpt>
      <trkpt lat="49.8163" lon="4.86798">
        <ele>271</ele>
        <time>2021-05-15T10:17:17.000Z</time>
      </trkpt>
      <trkpt lat="49.81632" lon="4.86805">
        <ele>271</ele>
        <time>2021-05-15T10:17:18.000Z</time>
      </trkpt>
      <trkpt lat="49.81633" lon="4.86812">
        <ele>271</ele>
        <time>2021-05-15T10:17:19.000Z</time>
      </trkpt>
      <trkpt lat="49.81635" lon="4.86819">
        <ele>270</ele>
        <time>2021-05-15T10:17:20.000Z</time>
      </trkpt>
      <trkpt lat="49.81636" lon="4.86825">
        <ele>270</ele>
        <time>2021-05-15T10:17:21.000Z</time>
      </trkpt>
      <trkpt lat="49.81637" lon="4.8683">
        <ele>270</ele>
        <time>2021-05-15T10:17:22.000Z</time>
      </trkpt>
      <trkpt lat="49.81638" lon="4.86834">
        <ele>270</ele>
        <time>2021-05-15T10:17:23.000Z</time>
      </trkpt>
      <trkpt lat="49.81639" lon="4.86839">
        <ele>270</ele>
        <time>2021-05-15T10:17:24.000Z</time>
      </trkpt>
      <trkpt lat="49.8164" lon="4.86843">
        <ele>270</ele>
        <time>2021-05-15T10:17:25.000Z</time>
      </trkpt>
      <trkpt lat="49.8164" lon="4.86848">
        <ele>270</ele>
        <time>2021-05-15T10:17:26.000Z</time>
      </trkpt>
      <trkpt lat="49.8164" lon="4.86853">
        <ele>270</ele>
        <time>2021-05-15T10:17:27.000Z</time>
      </trkpt>
      <trkpt lat="49.8164" lon="4.86859">
        <ele>270</ele>
        <time>2021-05-15T10:17:28.000Z</time>
      </trkpt>
      <trkpt lat="49.8164" lon="4.86866">
        <ele>270</ele>
        <time>2021-05-15T10:17:29.000Z</time>
      </trkpt>
      <trkpt lat="49.81641" lon="4.86872">
        <ele>270</ele>
        <time>2021-05-15T10:17:30.000Z</time>
      </trkpt>
      <trkpt lat="49.81641" lon="4.86878">
        <ele>270</ele>
        <time>2021-05-15T10:17:31.000Z</time>
      </trkpt>
      <trkpt lat="49.81642" lon="4.86885">
        <ele>270</ele>
        <time>2021-05-15T10:17:32.000Z</time>
      </trkpt>
      <trkpt lat="49.81643" lon="4.86891">
        <ele>269</ele>
        <time>2021-05-15T10:17:33.000Z</time>
      </trkpt>
      <trkpt lat="49.81644" lon="4.86898">
        <ele>269</ele>
        <time>2021-05-15T10:17:34.000Z</time>
      </trkpt>
      <trkpt lat="49.81644" lon="4.86906">
        <ele>269</ele>
        <time>2021-05-15T10:17:35.000Z</time>
      </trkpt>
      <trkpt lat="49.81645" lon="4.86914">
        <ele>269</ele>
        <time>2021-05-15T10:17:36.000Z</time>
      </trkpt>
      <trkpt lat="49.81646" lon="4.86922">
        <ele>269</ele>
        <time>2021-05-15T10:17:37.000Z</time>
      </trkpt>
      <trkpt lat="49.81646" lon="4.8693">
        <ele>268</ele>
        <time>2021-05-15T10:17:38.000Z</time>
      </trkpt>
      <trkpt lat="49.81647" lon="4.86938">
        <ele>268</ele>
        <time>2021-05-15T10:17:39.000Z</time>
      </trkpt>
      <trkpt lat="49.81648" lon="4.86946">
        <ele>268</ele>
        <time>2021-05-15T10:17:40.000Z</time>
      </trkpt>
      <trkpt lat="49.81649" lon="4.86953">
        <ele>268</ele>
        <time>2021-05-15T10:17:41.000Z</time>
      </trkpt>
      <trkpt lat="49.81649" lon="4.8696">
        <ele>268</ele>
        <time>2021-05-15T10:17:42.000Z</time>
      </trkpt>
      <trkpt lat="49.8165" lon="4.86967">
        <ele>268</ele>
        <time>2021-05-15T10:17:43.000Z</time>
      </trkpt>
      <trkpt lat="49.8165" lon="4.86974">
        <ele>268</ele>
        <time>2021-05-15T10:17:44.000Z</time>
      </trkpt>
      <trkpt lat="49.8165" lon="4.86981">
        <ele>268</ele>
        <time>2021-05-15T10:17:45.000Z</time>
      </trkpt>
      <trkpt lat="49.8165" lon="4.86988">
        <ele>268</ele>
        <time>2021-05-15T10:17:46.000Z</time>
      </trkpt>
      <trkpt lat="49.8165" lon="4.86994">
        <ele>268</ele>
        <time>2021-05-15T10:17:47.000Z</time>
      </trkpt>
      <trkpt lat="49.8165" lon="4.87002">
        <ele>268</ele>
        <time>2021-05-15T10:17:48.000Z</time>
      </trkpt>
      <trkpt lat="49.8165" lon="4.87009">
        <ele>268</ele>
        <time>2021-05-15T10:17:49.000Z</time>
      </trkpt>
      <trkpt lat="49.8165" lon="4.87018">
        <ele>268</ele>
        <time>2021-05-15T10:17:50.000Z</time>
      </trkpt>
      <trkpt lat="49.81651" lon="4.87026">
        <ele>268</ele>
        <time>2021-05-15T10:17:51.000Z</time>
      </trkpt>
      <trkpt lat="49.81651" lon="4.87034">
        <ele>267</ele>
        <time>2021-05-15T10:17:52.000Z</time>
      </trkpt>
      <trkpt lat="49.81651" lon="4.87042">
        <ele>267</ele>
        <time>2021-05-15T10:17:53.000Z</time>
      </trkpt>
      <trkpt lat="49.81652" lon="4.87049">
        <ele>267</ele>
        <time>2021-05-15T10:17:54.000Z</time>
      </trkpt>
      <trkpt lat="49.81653" lon="4.87057">
        <ele>267</ele>
        <time>2021-05-15T10:17:55.000Z</time>
      </trkpt>
      <trkpt lat="49.81654" lon="4.87063">
        <ele>267</ele>
        <time>2021-05-15T10:17:56.000Z</time>
      </trkpt>
      <trkpt lat="49.81655" lon="4.87071">
        <ele>267</ele>
        <time>2021-05-15T10:17:57.000Z</time>
      </trkpt>
      <trkpt lat="49.81655" lon="4.87078">
        <ele>267</ele>
        <time>2021-05-15T10:17:58.000Z</time>
      </trkpt>
      <trkpt lat="49.81656" lon="4.87085">
        <ele>267</ele>
        <time>2021-05-15T10:17:59.000Z</time>
      </trkpt>
      <trkpt lat="49.81657" lon="4.87092">
        <ele>267</ele>
        <time>2021-05-15T10:18:00.000Z</time>
      </trkpt>
      <trkpt lat="49.81658" lon="4.87098">
        <ele>267</ele>
        <time>2021-05-15T10:18:01.000Z</time>
      </trkpt>
      <trkpt lat="49.81659" lon="4.87105">
        <ele>267</ele>
        <time>2021-05-15T10:18:02.000Z</time>
      </trkpt>
      <trkpt lat="49.8166" lon="4.87111">
        <ele>267</ele>
        <time>2021-05-15T10:18:03.000Z</time>
      </trkpt>
      <trkpt lat="49.81661" lon="4.87118">
        <ele>267</ele>
        <time>2021-05-15T10:18:04.000Z</time>
      </trkpt>
      <trkpt lat="49.81661" lon="4.87125">
        <ele>267</ele>
        <time>2021-05-15T10:18:05.000Z</time>
      </trkpt>
      <trkpt lat="49.81662" lon="4.87132">
        <ele>267</ele>
        <time>2021-05-15T10:18:06.000Z</time>
      </trkpt>
      <trkpt lat="49.81662" lon="4.87138">
        <ele>267</ele>
        <time>2021-05-15T10:18:07.000Z</time>
      </trkpt>
      <trkpt lat="49.81663" lon="4.87145">
        <ele>267</ele>
        <time>2021-05-15T10:18:08.000Z</time>
      </trkpt>
      <trkpt lat="49.81663" lon="4.87151">
        <ele>267</ele>
        <time>2021-05-15T10:18:09.000Z</time>
      </trkpt>
      <trkpt lat="49.81664" lon="4.87158">
        <ele>267</ele>
        <time>2021-05-15T10:18:10.000Z</time>
      </trkpt>
      <trkpt lat="49.81665" lon="4.87164">
        <ele>267</ele>
        <time>2021-05-15T10:18:11.000Z</time>
      </trkpt>
      <trkpt lat="49.81666" lon="4.87171">
        <ele>267</ele>
        <time>2021-05-15T10:18:12.000Z</time>
      </trkpt>
      <trkpt lat="49.81667" lon="4.87178">
        <ele>267</ele>
        <time>2021-05-15T10:18:13.000Z</time>
      </trkpt>
      <trkpt lat="49.81668" lon="4.87185">
        <ele>267</ele>
        <time>2021-05-15T10:18:14.000Z</time>
      </trkpt>
      <trkpt lat="49.81669" lon="4.87193">
        <ele>267</ele>
        <time>2021-05-15T10:18:15.000Z</time>
      </trkpt>
      <trkpt lat="49.8167" lon="4.87201">
        <ele>267</ele>
        <time>2021-05-15T10:18:16.000Z</time>
      </trkpt>
      <trkpt lat="49.81671" lon="4.87208">
        <ele>267</ele>
        <time>2021-05-15T10:18:17.000Z</time>
      </trkpt>
      <trkpt lat="49.81672" lon="4.87216">
        <ele>267</ele>
        <time>2021-05-15T10:18:18.000Z</time>
      </trkpt>
      <trkpt lat="49.81672" lon="4.87224">
        <ele>267</ele>
        <time>2021-05-15T10:18:19.000Z</time>
      </trkpt>
      <trkpt lat="49.81673" lon="4.87232">
        <ele>267</ele>
        <time>2021-05-15T10:18:20.000Z</time>
      </trkpt>
      <trkpt lat="49.81674" lon="4.8724">
        <ele>267</ele>
        <time>2021-05-15T10:18:21.000Z</time>
      </trkpt>
      <trkpt lat="49.81675" lon="4.87249">
        <ele>267</ele>
        <time>2021-05-15T10:18:22.000Z</time>
      </trkpt>
      <trkpt lat="49.81675" lon="4.87257">
        <ele>267</ele>
        <time>2021-05-15T10:18:23.000Z</time>
      </trkpt>
      <trkpt lat="49.81676" lon="4.87265">
        <ele>267</ele>
        <time>2021-05-15T10:18:24.000Z</time>
      </trkpt>
      <trkpt lat="49.81676" lon="4.87273">
        <ele>267</ele>
        <time>2021-05-15T10:18:25.000Z</time>
      </trkpt>
      <trkpt lat="49.81676" lon="4.8728">
        <ele>267</ele>
        <time>2021-05-15T10:18:26.000Z</time>
      </trkpt>
      <trkpt lat="49.81676" lon="4.87287">
        <ele>267</ele>
        <time>2021-05-15T10:18:27.000Z</time>
      </trkpt>
      <trkpt lat="49.81677" lon="4.87294">
        <ele>267</ele>
        <time>2021-05-15T10:18:28.000Z</time>
      </trkpt>
      <trkpt lat="49.81677" lon="4.87301">
        <ele>267</ele>
        <time>2021-05-15T10:18:29.000Z</time>
      </trkpt>
      <trkpt lat="49.81678" lon="4.87308">
        <ele>267</ele>
        <time>2021-05-15T10:18:30.000Z</time>
      </trkpt>
      <trkpt lat="49.81679" lon="4.87316">
        <ele>267</ele>
        <time>2021-05-15T10:18:31.000Z</time>
      </trkpt>
      <trkpt lat="49.8168" lon="4.87323">
        <ele>267</ele>
        <time>2021-05-15T10:18:32.000Z</time>
      </trkpt>
      <trkpt lat="49.81681" lon="4.8733">
        <ele>267</ele>
        <time>2021-05-15T10:18:33.000Z</time>
      </trkpt>
      <trkpt lat="49.81682" lon="4.87337">
        <ele>266</ele>
        <time>2021-05-15T10:18:34.000Z</time>
      </trkpt>
      <trkpt lat="49.81683" lon="4.87344">
        <ele>266</ele>
        <time>2021-05-15T10:18:35.000Z</time>
      </trkpt>
      <trkpt lat="49.81684" lon="4.87351">
        <ele>266</ele>
        <time>2021-05-15T10:18:36.000Z</time>
      </trkpt>
      <trkpt lat="49.81685" lon="4.87358">
        <ele>266</ele>
        <time>2021-05-15T10:18:37.000Z</time>
      </trkpt>
      <trkpt lat="49.81686" lon="4.87366">
        <ele>266</ele>
        <time>2021-05-15T10:18:38.000Z</time>
      </trkpt>
      <trkpt lat="49.81687" lon="4.87373">
        <ele>266</ele>
        <time>2021-05-15T10:18:39.000Z</time>
      </trkpt>
      <trkpt lat="49.81688" lon="4.87381">
        <ele>266</ele>
        <time>2021-05-15T10:18:40.000Z</time>
      </trkpt>
      <trkpt lat="49.8169" lon="4.87389">
        <ele>266</ele>
        <time>2021-05-15T10:18:41.000Z</time>
      </trkpt>
      <trkpt lat="49.81691" lon="4.87396">
        <ele>266</ele>
        <time>2021-05-15T10:18:42.000Z</time>
      </trkpt>
      <trkpt lat="49.81692" lon="4.87403">
        <ele>266</ele>
        <time>2021-05-15T10:18:43.000Z</time>
      </trkpt>
      <trkpt lat="49.81692" lon="4.87411">
        <ele>265</ele>
        <time>2021-05-15T10:18:44.000Z</time>
      </trkpt>
      <trkpt lat="49.81693" lon="4.87419">
        <ele>265</ele>
        <time>2021-05-15T10:18:45.000Z</time>
      </trkpt>
      <trkpt lat="49.81694" lon="4.87426">
        <ele>265</ele>
        <time>2021-05-15T10:18:46.000Z</time>
      </trkpt>
      <trkpt lat="49.81695" lon="4.87433">
        <ele>265</ele>
        <time>2021-05-15T10:18:47.000Z</time>
      </trkpt>
      <trkpt lat="49.81695" lon="4.8744">
        <ele>265</ele>
        <time>2021-05-15T10:18:48.000Z</time>
      </trkpt>
      <trkpt lat="49.81695" lon="4.87446">
        <ele>265</ele>
        <time>2021-05-15T10:18:49.000Z</time>
      </trkpt>
      <trkpt lat="49.81696" lon="4.87451">
        <ele>264</ele>
        <time>2021-05-15T10:18:50.000Z</time>
      </trkpt>
      <trkpt lat="49.81696" lon="4.87456">
        <ele>264</ele>
        <time>2021-05-15T10:18:51.000Z</time>
      </trkpt>
      <trkpt lat="49.81697" lon="4.8746">
        <ele>264</ele>
        <time>2021-05-15T10:18:52.000Z</time>
      </trkpt>
      <trkpt lat="49.81697" lon="4.87463">
        <ele>264</ele>
        <time>2021-05-15T10:18:53.000Z</time>
      </trkpt>
      <trkpt lat="49.81698" lon="4.87466">
        <ele>264</ele>
        <time>2021-05-15T10:18:54.000Z</time>
      </trkpt>
      <trkpt lat="49.81698" lon="4.87468">
        <ele>263</ele>
        <time>2021-05-15T10:18:55.000Z</time>
      </trkpt>
      <trkpt lat="49.81699" lon="4.87471">
        <ele>263</ele>
        <time>2021-05-15T10:18:56.000Z</time>
      </trkpt>
      <trkpt lat="49.817" lon="4.87474">
        <ele>263</ele>
        <time>2021-05-15T10:18:57.000Z</time>
      </trkpt>
      <trkpt lat="49.817" lon="4.87477">
        <ele>263</ele>
        <time>2021-05-15T10:18:58.000Z</time>
      </trkpt>
      <trkpt lat="49.81701" lon="4.8748">
        <ele>263</ele>
        <time>2021-05-15T10:18:59.000Z</time>
      </trkpt>
      <trkpt lat="49.81702" lon="4.87483">
        <ele>262</ele>
        <time>2021-05-15T10:19:00.000Z</time>
      </trkpt>
      <trkpt lat="49.81704" lon="4.87486">
        <ele>262</ele>
        <time>2021-05-15T10:19:01.000Z</time>
      </trkpt>
      <trkpt lat="49.81706" lon="4.87488">
        <ele>262</ele>
        <time>2021-05-15T10:19:02.000Z</time>
      </trkpt>
      <trkpt lat="49.81709" lon="4.8749">
        <ele>262</ele>
        <time>2021-05-15T10:19:03.000Z</time>
      </trkpt>
      <trkpt lat="49.81712" lon="4.87492">
        <ele>262</ele>
        <time>2021-05-15T10:19:04.000Z</time>
      </trkpt>
      <trkpt lat="49.81714" lon="4.87495">
        <ele>262</ele>
        <time>2021-05-15T10:19:05.000Z</time>
      </trkpt>
      <trkpt lat="49.81718" lon="4.87497">
        <ele>261</ele>
        <time>2021-05-15T10:19:06.000Z</time>
      </trkpt>
      <trkpt lat="49.81721" lon="4.875">
        <ele>261</ele>
        <time>2021-05-15T10:19:07.000Z</time>
      </trkpt>
      <trkpt lat="49.81724" lon="4.87501">
        <ele>261</ele>
        <time>2021-05-15T10:19:08.000Z</time>
      </trkpt>
      <trkpt lat="49.81727" lon="4.87504">
        <ele>261</ele>
        <time>2021-05-15T10:19:09.000Z</time>
      </trkpt>
      <trkpt lat="49.8173" lon="4.87506">
        <ele>261</ele>
        <time>2021-05-15T10:19:10.000Z</time>
      </trkpt>
      <trkpt lat="49.81733" lon="4.87508">
        <ele>261</ele>
        <time>2021-05-15T10:19:11.000Z</time>
      </trkpt>
      <trkpt lat="49.81736" lon="4.87511">
        <ele>261</ele>
        <time>2021-05-15T10:19:12.000Z</time>
      </trkpt>
      <trkpt lat="49.81739" lon="4.87513">
        <ele>261</ele>
        <time>2021-05-15T10:19:13.000Z</time>
      </trkpt>
      <trkpt lat="49.81741" lon="4.87516">
        <ele>261</ele>
        <time>2021-05-15T10:19:14.000Z</time>
      </trkpt>
      <trkpt lat="49.81744" lon="4.87518">
        <ele>262</ele>
        <time>2021-05-15T10:19:15.000Z</time>
      </trkpt>
      <trkpt lat="49.81746" lon="4.8752">
        <ele>262</ele>
        <time>2021-05-15T10:19:16.000Z</time>
      </trkpt>
      <trkpt lat="49.81747" lon="4.87522">
        <ele>262</ele>
        <time>2021-05-15T10:19:17.000Z</time>
      </trkpt>
      <trkpt lat="49.81749" lon="4.87524">
        <ele>262</ele>
        <time>2021-05-15T10:19:18.000Z</time>
      </trkpt>
      <trkpt lat="49.81751" lon="4.87525">
        <ele>262</ele>
        <time>2021-05-15T10:19:19.000Z</time>
      </trkpt>
      <trkpt lat="49.81752" lon="4.87527">
        <ele>263</ele>
        <time>2021-05-15T10:19:20.000Z</time>
      </trkpt>
      <trkpt lat="49.81753" lon="4.87528">
        <ele>263</ele>
        <time>2021-05-15T10:19:21.000Z</time>
      </trkpt>
      <trkpt lat="49.81755" lon="4.87529">
        <ele>263</ele>
        <time>2021-05-15T10:19:22.000Z</time>
      </trkpt>
      <trkpt lat="49.81757" lon="4.8753">
        <ele>263</ele>
        <time>2021-05-15T10:19:23.000Z</time>
      </trkpt>
      <trkpt lat="49.81758" lon="4.87531">
        <ele>264</ele>
        <time>2021-05-15T10:19:24.000Z</time>
      </trkpt>
      <trkpt lat="49.81759" lon="4.87531">
        <ele>264</ele>
        <time>2021-05-15T10:19:25.000Z</time>
      </trkpt>
      <trkpt lat="49.8176" lon="4.87531">
        <ele>264</ele>
        <time>2021-05-15T10:19:26.000Z</time>
      </trkpt>
      <trkpt lat="49.8176" lon="4.87532">
        <ele>265</ele>
        <time>2021-05-15T10:19:27.000Z</time>
      </trkpt>
      <trkpt lat="49.81761" lon="4.87532">
        <ele>265</ele>
        <time>2021-05-15T10:19:28.000Z</time>
      </trkpt>
      <trkpt lat="49.81762" lon="4.87533">
        <ele>265</ele>
        <time>2021-05-15T10:19:29.000Z</time>
      </trkpt>
      <trkpt lat="49.81762" lon="4.87533">
        <ele>266</ele>
        <time>2021-05-15T10:19:30.000Z</time>
      </trkpt>
      <trkpt lat="49.81762" lon="4.87534">
        <ele>266</ele>
        <time>2021-05-15T10:19:31.000Z</time>
      </trkpt>
      <trkpt lat="49.81762" lon="4.87534">
        <ele>266</ele>
        <time>2021-05-15T10:19:32.000Z</time>
      </trkpt>
      <trkpt lat="49.81763" lon="4.87534">
        <ele>266</ele>
        <time>2021-05-15T10:19:33.000Z</time>
      </trkpt>
      <trkpt lat="49.81763" lon="4.87534">
        <ele>266</ele>
        <time>2021-05-15T10:19:34.000Z</time>
      </trkpt>
      <trkpt lat="49.81763" lon="4.87534">
        <ele>267</ele>
        <time>2021-05-15T10:19:35.000Z</time>
      </trkpt>
      <trkpt lat="49.81764" lon="4.87534">
        <ele>267</ele>
        <time>2021-05-15T10:19:36.000Z</time>
      </trkpt>
      <trkpt lat="49.81764" lon="4.87534">
        <ele>267</ele>
        <time>2021-05-15T10:19:37.000Z</time>
      </trkpt>
      <trkpt lat="49.81764" lon="4.87535">
        <ele>267</ele>
        <time>2021-05-15T10:19:38.000Z</time>
      </trkpt>
      <trkpt lat="49.81765" lon="4.87535">
        <ele>267</ele>
        <time>2021-05-15T10:19:39.000Z</time>
      </trkpt>
      <trkpt lat="49.81765" lon="4.87535">
        <ele>267</ele>
        <time>2021-05-15T10:19:40.000Z</time>
      </trkpt>
      <trkpt lat="49.81765" lon="4.87535">
        <ele>267</ele>
        <time>2021-05-15T10:19:41.000Z</time>
      </trkpt>
      <trkpt lat="49.81765" lon="4.87535">
        <ele>267</ele>
        <time>2021-05-15T10:19:42.000Z</time>
      </trkpt>
      <trkpt lat="49.81765" lon="4.87535">
        <ele>267</ele>
        <time>2021-05-15T10:19:43.000Z</time>
      </trkpt>
      <trkpt lat="49.81766" lon="4.87535">
        <ele>268</ele>
        <time>2021-05-15T10:19:44.000Z</time>
      </trkpt>
      <trkpt lat="49.81766" lon="4.87535">
        <ele>268</ele>
        <time>2021-05-15T10:19:45.000Z</time>
      </trkpt>
      <trkpt lat="49.81766" lon="4.87535">
        <ele>268</ele>
        <time>2021-05-15T10:19:46.000Z</time>
      </trkpt>
      <trkpt lat="49.81766" lon="4.87535">
        <ele>268</ele>
        <time>2021-05-15T10:19:47.000Z</time>
      </trkpt>
      <trkpt lat="49.81766" lon="4.87535">
        <ele>268</ele>
        <time>2021-05-15T10:19:48.000Z</time>
      </trkpt>
      <trkpt lat="49.81766" lon="4.87536">
        <ele>268</ele>
        <time>2021-05-15T10:19:49.000Z</time>
      </trkpt>
      <trkpt lat="49.81766" lon="4.87536">
        <ele>268</ele>
        <time>2021-05-15T10:19:50.000Z</time>
      </trkpt>
      <trkpt lat="49.81767" lon="4.87536">
        <ele>268</ele>
        <time>2021-05-15T10:19:51.000Z</time>
      </trkpt>
      <trkpt lat="49.81767" lon="4.87536">
        <ele>268</ele>
        <time>2021-05-15T10:19:52.000Z</time>
      </trkpt>
      <trkpt lat="49.81767" lon="4.87536">
        <ele>268</ele>
        <time>2021-05-15T10:19:53.000Z</time>
      </trkpt>
      <trkpt lat="49.81767" lon="4.87536">
        <ele>268</ele>
        <time>2021-05-15T10:19:54.000Z</time>
      </trkpt>
      <trkpt lat="49.81767" lon="4.87536">
        <ele>268</ele>
        <time>2021-05-15T10:19:55.000Z</time>
      </trkpt>
      <trkpt lat="49.81767" lon="4.87536">
        <ele>268</ele>
        <time>2021-05-15T10:19:56.000Z</time>
      </trkpt>
      <trkpt lat="49.81767" lon="4.87536">
        <ele>268</ele>
        <time>2021-05-15T10:19:57.000Z</time>
      </trkpt>
      <trkpt lat="49.81767" lon="4.87536">
        <ele>268</ele>
        <time>2021-05-15T10:19:58.000Z</time>
      </trkpt>
      <trkpt lat="49.81767" lon="4.87536">
        <ele>268</ele>
        <time>2021-05-15T10:19:59.000Z</time>
      </trkpt>
      <trkpt lat="49.81767" lon="4.87536">
        <ele>268</ele>
        <time>2021-05-15T10:20:00.000Z</time>
      </trkpt>
      <trkpt lat="49.81767" lon="4.87536">
        <ele>268</ele>
        <time>2021-05-15T10:20:01.000Z</time>
      </trkpt>
      <trkpt lat="49.81766" lon="4.87536">
        <ele>268</ele>
        <time>2021-05-15T10:20:02.000Z</time>
      </trkpt>
      <trkpt lat="49.81765" lon="4.87536">
        <ele>268</ele>
        <time>2021-05-15T10:20:03.000Z</time>
      </trkpt>
      <trkpt lat="49.81764" lon="4.87536">
        <ele>268</ele>
        <time>2021-05-15T10:20:04.000Z</time>
      </trkpt>
      <trkpt lat="49.81762" lon="4.87535">
        <ele>268</ele>
        <time>2021-05-15T10:20:05.000Z</time>
      </trkpt>
      <trkpt lat="49.81761" lon="4.87535">
        <ele>268</ele>
        <time>2021-05-15T10:20:06.000Z</time>
      </trkpt>
      <trkpt lat="49.81759" lon="4.87534">
        <ele>267</ele>
        <time>2021-05-15T10:20:07.000Z</time>
      </trkpt>
      <trkpt lat="49.81757" lon="4.87532">
        <ele>267</ele>
        <time>2021-05-15T10:20:08.000Z</time>
      </trkpt>
      <trkpt lat="49.81756" lon="4.87528">
        <ele>267</ele>
        <time>2021-05-15T10:20:09.000Z</time>
      </trkpt>
      <trkpt lat="49.81753" lon="4.87525">
        <ele>267</ele>
        <time>2021-05-15T10:20:10.000Z</time>
      </trkpt>
      <trkpt lat="49.81751" lon="4.87522">
        <ele>267</ele>
        <time>2021-05-15T10:20:11.000Z</time>
      </trkpt>
      <trkpt lat="49.81749" lon="4.87519">
        <ele>267</ele>
        <time>2021-05-15T10:20:12.000Z</time>
      </trkpt>
      <trkpt lat="49.81747" lon="4.87516">
        <ele>267</ele>
        <time>2021-05-15T10:20:13.000Z</time>
      </trkpt>
      <trkpt lat="49.81745" lon="4.87513">
        <ele>267</ele>
        <time>2021-05-15T10:20:14.000Z</time>
      </trkpt>
      <trkpt lat="49.81742" lon="4.87509">
        <ele>267</ele>
        <time>2021-05-15T10:20:15.000Z</time>
      </trkpt>
      <trkpt lat="49.8174" lon="4.87506">
        <ele>267</ele>
        <time>2021-05-15T10:20:16.000Z</time>
      </trkpt>
      <trkpt lat="49.81737" lon="4.87501">
        <ele>267</ele>
        <time>2021-05-15T10:20:17.000Z</time>
      </trkpt>
      <trkpt lat="49.81735" lon="4.87497">
        <ele>266</ele>
        <time>2021-05-15T10:20:18.000Z</time>
      </trkpt>
      <trkpt lat="49.81732" lon="4.87493">
        <ele>266</ele>
        <time>2021-05-15T10:20:19.000Z</time>
      </trkpt>
      <trkpt lat="49.8173" lon="4.87489">
        <ele>266</ele>
        <time>2021-05-15T10:20:20.000Z</time>
      </trkpt>
      <trkpt lat="49.81728" lon="4.87485">
        <ele>266</ele>
        <time>2021-05-15T10:20:21.000Z</time>
      </trkpt>
      <trkpt lat="49.81726" lon="4.87479">
        <ele>266</ele>
        <time>2021-05-15T10:20:22.000Z</time>
      </trkpt>
      <trkpt lat="49.81724" lon="4.87475">
        <ele>266</ele>
        <time>2021-05-15T10:20:23.000Z</time>
      </trkpt>
      <trkpt lat="49.81723" lon="4.8747">
        <ele>266</ele>
        <time>2021-05-15T10:20:24.000Z</time>
      </trkpt>
      <trkpt lat="49.81721" lon="4.87465">
        <ele>266</ele>
        <time>2021-05-15T10:20:25.000Z</time>
      </trkpt>
      <trkpt lat="49.81719" lon="4.8746">
        <ele>266</ele>
        <time>2021-05-15T10:20:26.000Z</time>
      </trkpt>
      <trkpt lat="49.81718" lon="4.87455">
        <ele>266</ele>
        <time>2021-05-15T10:20:27.000Z</time>
      </trkpt>
      <trkpt lat="49.81717" lon="4.87451">
        <ele>266</ele>
        <time>2021-05-15T10:20:28.000Z</time>
      </trkpt>
      <trkpt lat="49.81715" lon="4.87446">
        <ele>266</ele>
        <time>2021-05-15T10:20:29.000Z</time>
      </trkpt>
      <trkpt lat="49.81714" lon="4.8744">
        <ele>266</ele>
        <time>2021-05-15T10:20:30.000Z</time>
      </trkpt>
      <trkpt lat="49.81713" lon="4.87434">
        <ele>266</ele>
        <time>2021-05-15T10:20:31.000Z</time>
      </trkpt>
      <trkpt lat="49.81712" lon="4.87428">
        <ele>266</ele>
        <time>2021-05-15T10:20:32.000Z</time>
      </trkpt>
      <trkpt lat="49.8171" lon="4.87422">
        <ele>266</ele>
        <time>2021-05-15T10:20:33.000Z</time>
      </trkpt>
      <trkpt lat="49.81708" lon="4.87416">
        <ele>266</ele>
        <time>2021-05-15T10:20:34.000Z</time>
      </trkpt>
      <trkpt lat="49.81707" lon="4.8741">
        <ele>266</ele>
        <time>2021-05-15T10:20:35.000Z</time>
      </trkpt>
      <trkpt lat="49.81704" lon="4.87403">
        <ele>266</ele>
        <time>2021-05-15T10:20:36.000Z</time>
      </trkpt>
      <trkpt lat="49.81702" lon="4.87396">
        <ele>266</ele>
        <time>2021-05-15T10:20:37.000Z</time>
      </trkpt>
      <trkpt lat="49.81701" lon="4.87389">
        <ele>266</ele>
        <time>2021-05-15T10:20:38.000Z</time>
      </trkpt>
      <trkpt lat="49.81699" lon="4.87382">
        <ele>266</ele>
        <time>2021-05-15T10:20:39.000Z</time>
      </trkpt>
      <trkpt lat="49.81698" lon="4.87374">
        <ele>266</ele>
        <time>2021-05-15T10:20:40.000Z</time>
      </trkpt>
      <trkpt lat="49.81697" lon="4.87367">
        <ele>266</ele>
        <time>2021-05-15T10:20:41.000Z</time>
      </trkpt>
      <trkpt lat="49.81696" lon="4.87359">
        <ele>266</ele>
        <time>2021-05-15T10:20:42.000Z</time>
      </trkpt>
      <trkpt lat="49.81695" lon="4.87352">
        <ele>266</ele>
        <time>2021-05-15T10:20:43.000Z</time>
      </trkpt>
      <trkpt lat="49.81694" lon="4.87346">
        <ele>266</ele>
        <time>2021-05-15T10:20:44.000Z</time>
      </trkpt>
      <trkpt lat="49.81693" lon="4.8734">
        <ele>266</ele>
        <time>2021-05-15T10:20:45.000Z</time>
      </trkpt>
      <trkpt lat="49.81692" lon="4.87333">
        <ele>266</ele>
        <time>2021-05-15T10:20:46.000Z</time>
      </trkpt>
      <trkpt lat="49.81691" lon="4.87326">
        <ele>266</ele>
        <time>2021-05-15T10:20:47.000Z</time>
      </trkpt>
      <trkpt lat="49.8169" lon="4.87319">
        <ele>266</ele>
        <time>2021-05-15T10:20:48.000Z</time>
      </trkpt>
      <trkpt lat="49.81689" lon="4.87311">
        <ele>266</ele>
        <time>2021-05-15T10:20:49.000Z</time>
      </trkpt>
      <trkpt lat="49.81688" lon="4.87303">
        <ele>266</ele>
        <time>2021-05-15T10:20:50.000Z</time>
      </trkpt>
      <trkpt lat="49.81688" lon="4.87295">
        <ele>266</ele>
        <time>2021-05-15T10:20:51.000Z</time>
      </trkpt>
      <trkpt lat="49.81687" lon="4.87287">
        <ele>266</ele>
        <time>2021-05-15T10:20:52.000Z</time>
      </trkpt>
      <trkpt lat="49.81685" lon="4.87278">
        <ele>266</ele>
        <time>2021-05-15T10:20:53.000Z</time>
      </trkpt>
      <trkpt lat="49.81684" lon="4.87269">
        <ele>266</ele>
        <time>2021-05-15T10:20:54.000Z</time>
      </trkpt>
      <trkpt lat="49.81683" lon="4.87261">
        <ele>266</ele>
        <time>2021-05-15T10:20:55.000Z</time>
      </trkpt>
      <trkpt lat="49.81682" lon="4.87254">
        <ele>266</ele>
        <time>2021-05-15T10:20:56.000Z</time>
      </trkpt>
      <trkpt lat="49.81681" lon="4.87246">
        <ele>266</ele>
        <time>2021-05-15T10:20:57.000Z</time>
      </trkpt>
      <trkpt lat="49.8168" lon="4.87239">
        <ele>266</ele>
        <time>2021-05-15T10:20:58.000Z</time>
      </trkpt>
      <trkpt lat="49.81679" lon="4.87231">
        <ele>266</ele>
        <time>2021-05-15T10:20:59.000Z</time>
      </trkpt>
      <trkpt lat="49.81678" lon="4.87224">
        <ele>266</ele>
        <time>2021-05-15T10:21:00.000Z</time>
      </trkpt>
      <trkpt lat="49.81677" lon="4.87217">
        <ele>266</ele>
        <time>2021-05-15T10:21:01.000Z</time>
      </trkpt>
      <trkpt lat="49.81675" lon="4.8721">
        <ele>267</ele>
        <time>2021-05-15T10:21:02.000Z</time>
      </trkpt>
      <trkpt lat="49.81674" lon="4.87203">
        <ele>267</ele>
        <time>2021-05-15T10:21:03.000Z</time>
      </trkpt>
      <trkpt lat="49.81673" lon="4.87196">
        <ele>267</ele>
        <time>2021-05-15T10:21:04.000Z</time>
      </trkpt>
      <trkpt lat="49.81671" lon="4.87188">
        <ele>267</ele>
        <time>2021-05-15T10:21:05.000Z</time>
      </trkpt>
      <trkpt lat="49.81669" lon="4.87181">
        <ele>267</ele>
        <time>2021-05-15T10:21:06.000Z</time>
      </trkpt>
      <trkpt lat="49.81668" lon="4.87174">
        <ele>267</ele>
        <time>2021-05-15T10:21:07.000Z</time>
      </trkpt>
      <trkpt lat="49.81667" lon="4.87167">
        <ele>267</ele>
        <time>2021-05-15T10:21:08.000Z</time>
      </trkpt>
      <trkpt lat="49.81665" lon="4.87159">
        <ele>267</ele>
        <time>2021-05-15T10:21:09.000Z</time>
      </trkpt>
      <trkpt lat="49.81663" lon="4.87151">
        <ele>267</ele>
        <time>2021-05-15T10:21:10.000Z</time>
      </trkpt>
      <trkpt lat="49.81662" lon="4.87144">
        <ele>267</ele>
        <time>2021-05-15T10:21:11.000Z</time>
      </trkpt>
      <trkpt lat="49.81661" lon="4.87138">
        <ele>267</ele>
        <time>2021-05-15T10:21:12.000Z</time>
      </trkpt>
      <trkpt lat="49.81661" lon="4.87133">
        <ele>268</ele>
        <time>2021-05-15T10:21:13.000Z</time>
      </trkpt>
      <trkpt lat="49.81661" lon="4.8713">
        <ele>268</ele>
        <time>2021-05-15T10:21:14.000Z</time>
      </trkpt>
      <trkpt lat="49.81661" lon="4.87129">
        <ele>268</ele>
        <time>2021-05-15T10:21:15.000Z</time>
      </trkpt>
      <trkpt lat="49.81662" lon="4.87129">
        <ele>268</ele>
        <time>2021-05-15T10:21:16.000Z</time>
      </trkpt>
      <trkpt lat="49.81662" lon="4.87129">
        <ele>268</ele>
        <time>2021-05-15T10:21:17.000Z</time>
      </trkpt>
      <trkpt lat="49.81663" lon="4.87128">
        <ele>268</ele>
        <time>2021-05-15T10:21:18.000Z</time>
      </trkpt>
      <trkpt lat="49.81663" lon="4.87128">
        <ele>268</ele>
        <time>2021-05-15T10:21:19.000Z</time>
      </trkpt>
      <trkpt lat="49.81663" lon="4.87127">
        <ele>268</ele>
        <time>2021-05-15T10:21:20.000Z</time>
      </trkpt>
      <trkpt lat="49.81663" lon="4.87126">
        <ele>268</ele>
        <time>2021-05-15T10:21:21.000Z</time>
      </trkpt>
      <trkpt lat="49.81664" lon="4.87126">
        <ele>268</ele>
        <time>2021-05-15T10:21:22.000Z</time>
      </trkpt>
      <trkpt lat="49.81664" lon="4.87125">
        <ele>268</ele>
        <time>2021-05-15T10:21:23.000Z</time>
      </trkpt>
      <trkpt lat="49.81665" lon="4.87125">
        <ele>268</ele>
        <time>2021-05-15T10:21:24.000Z</time>
      </trkpt>
      <trkpt lat="49.81665" lon="4.87123">
        <ele>268</ele>
        <time>2021-05-15T10:21:25.000Z</time>
      </trkpt>
      <trkpt lat="49.81666" lon="4.87123">
        <ele>269</ele>
        <time>2021-05-15T10:21:26.000Z</time>
      </trkpt>
      <trkpt lat="49.81666" lon="4.87124">
        <ele>269</ele>
        <time>2021-05-15T10:21:27.000Z</time>
      </trkpt>
      <trkpt lat="49.81667" lon="4.87123">
        <ele>269</ele>
        <time>2021-05-15T10:21:28.000Z</time>
      </trkpt>
      <trkpt lat="49.81668" lon="4.87122">
        <ele>269</ele>
        <time>2021-05-15T10:21:29.000Z</time>
      </trkpt>
      <trkpt lat="49.81668" lon="4.87122">
        <ele>269</ele>
        <time>2021-05-15T10:21:30.000Z</time>
      </trkpt>
      <trkpt lat="49.81669" lon="4.87121">
        <ele>269</ele>
        <time>2021-05-15T10:21:31.000Z</time>
      </trkpt>
      <trkpt lat="49.81669" lon="4.87121">
        <ele>269</ele>
        <time>2021-05-15T10:21:32.000Z</time>
      </trkpt>
      <trkpt lat="49.8167" lon="4.87121">
        <ele>269</ele>
        <time>2021-05-15T10:21:33.000Z</time>
      </trkpt>
      <trkpt lat="49.8167" lon="4.87121">
        <ele>269</ele>
        <time>2021-05-15T10:21:34.000Z</time>
      </trkpt>
      <trkpt lat="49.81671" lon="4.8712">
        <ele>269</ele>
        <time>2021-05-15T10:21:35.000Z</time>
      </trkpt>
      <trkpt lat="49.81671" lon="4.8712">
        <ele>270</ele>
        <time>2021-05-15T10:21:36.000Z</time>
      </trkpt>
      <trkpt lat="49.81671" lon="4.8712">
        <ele>270</ele>
        <time>2021-05-15T10:21:37.000Z</time>
      </trkpt>
      <trkpt lat="49.8167" lon="4.8712">
        <ele>270</ele>
        <time>2021-05-15T10:21:38.000Z</time>
      </trkpt>
      <trkpt lat="49.8167" lon="4.8712">
        <ele>270</ele>
        <time>2021-05-15T10:21:39.000Z</time>
      </trkpt>
      <trkpt lat="49.81671" lon="4.8712">
        <ele>270</ele>
        <time>2021-05-15T10:21:40.000Z</time>
      </trkpt>
      <trkpt lat="49.81671" lon="4.87119">
        <ele>270</ele>
        <time>2021-05-15T10:21:41.000Z</time>
      </trkpt>
      <trkpt lat="49.81671" lon="4.87119">
        <ele>271</ele>
        <time>2021-05-15T10:21:42.000Z</time>
      </trkpt>
      <trkpt lat="49.81671" lon="4.87119">
        <ele>271</ele>
        <time>2021-05-15T10:21:43.000Z</time>
      </trkpt>
      <trkpt lat="49.81671" lon="4.87119">
        <ele>271</ele>
        <time>2021-05-15T10:21:44.000Z</time>
      </trkpt>
      <trkpt lat="49.81671" lon="4.87118">
        <ele>271</ele>
        <time>2021-05-15T10:21:45.000Z</time>
      </trkpt>
      <trkpt lat="49.81671" lon="4.87118">
        <ele>271</ele>
        <time>2021-05-15T10:21:46.000Z</time>
      </trkpt>
      <trkpt lat="49.81671" lon="4.87118">
        <ele>272</ele>
        <time>2021-05-15T10:21:47.000Z</time>
      </trkpt>
      <trkpt lat="49.81671" lon="4.87118">
        <ele>272</ele>
        <time>2021-05-15T10:21:48.000Z</time>
      </trkpt>
      <trkpt lat="49.81671" lon="4.87118">
        <ele>272</ele>
        <time>2021-05-15T10:21:49.000Z</time>
      </trkpt>
      <trkpt lat="49.81672" lon="4.87118">
        <ele>272</ele>
        <time>2021-05-15T10:21:50.000Z</time>
      </trkpt>
      <trkpt lat="49.81672" lon="4.87118">
        <ele>272</ele>
        <time>2021-05-15T10:21:51.000Z</time>
      </trkpt>
      <trkpt lat="49.81671" lon="4.87117">
        <ele>272</ele>
        <time>2021-05-15T10:21:52.000Z</time>
      </trkpt>
      <trkpt lat="49.81671" lon="4.87118">
        <ele>272</ele>
        <time>2021-05-15T10:21:53.000Z</time>
      </trkpt>
      <trkpt lat="49.81672" lon="4.87118">
        <ele>273</ele>
        <time>2021-05-15T10:21:54.000Z</time>
      </trkpt>
      <trkpt lat="49.81672" lon="4.87119">
        <ele>273</ele>
        <time>2021-05-15T10:21:55.000Z</time>
      </trkpt>
      <trkpt lat="49.81672" lon="4.87119">
        <ele>273</ele>
        <time>2021-05-15T10:21:56.000Z</time>
      </trkpt>
      <trkpt lat="49.81672" lon="4.87119">
        <ele>273</ele>
        <time>2021-05-15T10:21:57.000Z</time>
      </trkpt>
      <trkpt lat="49.81673" lon="4.8712">
        <ele>274</ele>
        <time>2021-05-15T10:21:58.000Z</time>
      </trkpt>
      <trkpt lat="49.81672" lon="4.8712">
        <ele>274</ele>
        <time>2021-05-15T10:21:59.000Z</time>
      </trkpt>
      <trkpt lat="49.81672" lon="4.8712">
        <ele>274</ele>
        <time>2021-05-15T10:22:00.000Z</time>
      </trkpt>
      <trkpt lat="49.81672" lon="4.87121">
        <ele>274</ele>
        <time>2021-05-15T10:22:01.000Z</time>
      </trkpt>
      <trkpt lat="49.81672" lon="4.87121">
        <ele>275</ele>
        <time>2021-05-15T10:22:02.000Z</time>
      </trkpt>
      <trkpt lat="49.81672" lon="4.87121">
        <ele>275</ele>
        <time>2021-05-15T10:22:03.000Z</time>
      </trkpt>
      <trkpt lat="49.81672" lon="4.87121">
        <ele>275</ele>
        <time>2021-05-15T10:22:04.000Z</time>
      </trkpt>
      <trkpt lat="49.81672" lon="4.87121">
        <ele>276</ele>
        <time>2021-05-15T10:22:05.000Z</time>
      </trkpt>
      <trkpt lat="49.81672" lon="4.87121">
        <ele>276</ele>
        <time>2021-05-15T10:22:06.000Z</time>
      </trkpt>
      <trkpt lat="49.81671" lon="4.87121">
        <ele>276</ele>
        <time>2021-05-15T10:22:07.000Z</time>
      </trkpt>
      <trkpt lat="49.81671" lon="4.87122">
        <ele>276</ele>
        <time>2021-05-15T10:22:08.000Z</time>
      </trkpt>
      <trkpt lat="49.8167" lon="4.87122">
        <ele>276</ele>
        <time>2021-05-15T10:22:09.000Z</time>
      </trkpt>
      <trkpt lat="49.8167" lon="4.87121">
        <ele>277</ele>
        <time>2021-05-15T10:22:10.000Z</time>
      </trkpt>
      <trkpt lat="49.8167" lon="4.87121">
        <ele>277</ele>
        <time>2021-05-15T10:22:11.000Z</time>
      </trkpt>
      <trkpt lat="49.81671" lon="4.87121">
        <ele>277</ele>
        <time>2021-05-15T10:22:12.000Z</time>
      </trkpt>
      <trkpt lat="49.81671" lon="4.87122">
        <ele>277</ele>
        <time>2021-05-15T10:22:13.000Z</time>
      </trkpt>
      <trkpt lat="49.8167" lon="4.87122">
        <ele>278</ele>
        <time>2021-05-15T10:22:14.000Z</time>
      </trkpt>
      <trkpt lat="49.8167" lon="4.87122">
        <ele>278</ele>
        <time>2021-05-15T10:22:15.000Z</time>
      </trkpt>
      <trkpt lat="49.8167" lon="4.87122">
        <ele>278</ele>
        <time>2021-05-15T10:22:16.000Z</time>
      </trkpt>
      <trkpt lat="49.8167" lon="4.87122">
        <ele>278</ele>
        <time>2021-05-15T10:22:17.000Z</time>
      </trkpt>
      <trkpt lat="49.81669" lon="4.87122">
        <ele>278</ele>
        <time>2021-05-15T10:22:18.000Z</time>
      </trkpt>
      <trkpt lat="49.81669" lon="4.87122">
        <ele>279</ele>
        <time>2021-05-15T10:22:19.000Z</time>
      </trkpt>
      <trkpt lat="49.81669" lon="4.87122">
        <ele>279</ele>
        <time>2021-05-15T10:22:20.000Z</time>
      </trkpt>
      <trkpt lat="49.81669" lon="4.87122">
        <ele>279</ele>
        <time>2021-05-15T10:22:21.000Z</time>
      </trkpt>
      <trkpt lat="49.81669" lon="4.87122">
        <ele>279</ele>
        <time>2021-05-15T10:22:22.000Z</time>
      </trkpt>
      <trkpt lat="49.81668" lon="4.87123">
        <ele>279</ele>
        <time>2021-05-15T10:22:23.000Z</time>
      </trkpt>
      <trkpt lat="49.81668" lon="4.87122">
        <ele>279</ele>
        <time>2021-05-15T10:22:24.000Z</time>
      </trkpt>
      <trkpt lat="49.81668" lon="4.87122">
        <ele>279</ele>
        <time>2021-05-15T10:22:25.000Z</time>
      </trkpt>
      <trkpt lat="49.81667" lon="4.87121">
        <ele>280</ele>
        <time>2021-05-15T10:22:26.000Z</time>
      </trkpt>
      <trkpt lat="49.81666" lon="4.8712">
        <ele>280</ele>
        <time>2021-05-15T10:22:27.000Z</time>
      </trkpt>
      <trkpt lat="49.81665" lon="4.87119">
        <ele>280</ele>
        <time>2021-05-15T10:22:28.000Z</time>
      </trkpt>
      <trkpt lat="49.81665" lon="4.87119">
        <ele>280</ele>
        <time>2021-05-15T10:22:29.000Z</time>
      </trkpt>
      <trkpt lat="49.81665" lon="4.87119">
        <ele>280</ele>
        <time>2021-05-15T10:22:30.000Z</time>
      </trkpt>
      <trkpt lat="49.81666" lon="4.87118">
        <ele>280</ele>
        <time>2021-05-15T10:22:31.000Z</time>
      </trkpt>
      <trkpt lat="49.81666" lon="4.87118">
        <ele>280</ele>
        <time>2021-05-15T10:22:32.000Z</time>
      </trkpt>
      <trkpt lat="49.81666" lon="4.87117">
        <ele>280</ele>
        <time>2021-05-15T10:22:33.000Z</time>
      </trkpt>
      <trkpt lat="49.81666" lon="4.87116">
        <ele>280</ele>
        <time>2021-05-15T10:22:34.000Z</time>
      </trkpt>
      <trkpt lat="49.81666" lon="4.87116">
        <ele>280</ele>
        <time>2021-05-15T10:22:35.000Z</time>
      </trkpt>
      <trkpt lat="49.81666" lon="4.87115">
        <ele>280</ele>
        <time>2021-05-15T10:22:36.000Z</time>
      </trkpt>
      <trkpt lat="49.81666" lon="4.87115">
        <ele>280</ele>
        <time>2021-05-15T10:22:37.000Z</time>
      </trkpt>
      <trkpt lat="49.81666" lon="4.87115">
        <ele>280</ele>
        <time>2021-05-15T10:22:38.000Z</time>
      </trkpt>
      <trkpt lat="49.81666" lon="4.87115">
        <ele>280</ele>
        <time>2021-05-15T10:22:39.000Z</time>
      </trkpt>
      <trkpt lat="49.81666" lon="4.87116">
        <ele>280</ele>
        <time>2021-05-15T10:22:40.000Z</time>
      </trkpt>
      <trkpt lat="49.81666" lon="4.87116">
        <ele>280</ele>
        <time>2021-05-15T10:22:41.000Z</time>
      </trkpt>
      <trkpt lat="49.81667" lon="4.87116">
        <ele>279</ele>
        <time>2021-05-15T10:22:42.000Z</time>
      </trkpt>
      <trkpt lat="49.81667" lon="4.87116">
        <ele>279</ele>
        <time>2021-05-15T10:22:43.000Z</time>
      </trkpt>
      <trkpt lat="49.81667" lon="4.87116">
        <ele>279</ele>
        <time>2021-05-15T10:22:44.000Z</time>
      </trkpt>
      <trkpt lat="49.81666" lon="4.87115">
        <ele>279</ele>
        <time>2021-05-15T10:22:45.000Z</time>
      </trkpt>
      <trkpt lat="49.81666" lon="4.87114">
        <ele>279</ele>
        <time>2021-05-15T10:22:46.000Z</time>
      </trkpt>
      <trkpt lat="49.81665" lon="4.87114">
        <ele>279</ele>
        <time>2021-05-15T10:22:47.000Z</time>
      </trkpt>
      <trkpt lat="49.81665" lon="4.87113">
        <ele>279</ele>
        <time>2021-05-15T10:22:48.000Z</time>
      </trkpt>
      <trkpt lat="49.81665" lon="4.87114">
        <ele>279</ele>
        <time>2021-05-15T10:22:49.000Z</time>
      </trkpt>
      <trkpt lat="49.81665" lon="4.87113">
        <ele>278</ele>
        <time>2021-05-15T10:22:50.000Z</time>
      </trkpt>
      <trkpt lat="49.81665" lon="4.87113">
        <ele>278</ele>
        <time>2021-05-15T10:22:51.000Z</time>
      </trkpt>
      <trkpt lat="49.81665" lon="4.87111">
        <ele>278</ele>
        <time>2021-05-15T10:22:52.000Z</time>
      </trkpt>
      <trkpt lat="49.81665" lon="4.8711">
        <ele>278</ele>
        <time>2021-05-15T10:22:53.000Z</time>
      </trkpt>
      <trkpt lat="49.81665" lon="4.87108">
        <ele>278</ele>
        <time>2021-05-15T10:22:54.000Z</time>
      </trkpt>
      <trkpt lat="49.81665" lon="4.87104">
        <ele>278</ele>
        <time>2021-05-15T10:22:55.000Z</time>
      </trkpt>
      <trkpt lat="49.81664" lon="4.87099">
        <ele>278</ele>
        <time>2021-05-15T10:22:56.000Z</time>
      </trkpt>
      <trkpt lat="49.81662" lon="4.87092">
        <ele>278</ele>
        <time>2021-05-15T10:22:57.000Z</time>
      </trkpt>
      <trkpt lat="49.81661" lon="4.87084">
        <ele>277</ele>
        <time>2021-05-15T10:22:58.000Z</time>
      </trkpt>
      <trkpt lat="49.8166" lon="4.87076">
        <ele>277</ele>
        <time>2021-05-15T10:22:59.000Z</time>
      </trkpt>
      <trkpt lat="49.81659" lon="4.87068">
        <ele>277</ele>
        <time>2021-05-15T10:23:00.000Z</time>
      </trkpt>
      <trkpt lat="49.81658" lon="4.8706">
        <ele>277</ele>
        <time>2021-05-15T10:23:01.000Z</time>
      </trkpt>
      <trkpt lat="49.81657" lon="4.87052">
        <ele>277</ele>
        <time>2021-05-15T10:23:02.000Z</time>
      </trkpt>
      <trkpt lat="49.81657" lon="4.87044">
        <ele>276</ele>
        <time>2021-05-15T10:23:03.000Z</time>
      </trkpt>
      <trkpt lat="49.81656" lon="4.87036">
        <ele>276</ele>
        <time>2021-05-15T10:23:04.000Z</time>
      </trkpt>
      <trkpt lat="49.81655" lon="4.87027">
        <ele>276</ele>
        <time>2021-05-15T10:23:05.000Z</time>
      </trkpt>
      <trkpt lat="49.81654" lon="4.87018">
        <ele>275</ele>
        <time>2021-05-15T10:23:06.000Z</time>
      </trkpt>
      <trkpt lat="49.81654" lon="4.8701">
        <ele>275</ele>
        <time>2021-05-15T10:23:07.000Z</time>
      </trkpt>
      <trkpt lat="49.81654" lon="4.87003">
        <ele>275</ele>
        <time>2021-05-15T10:23:08.000Z</time>
      </trkpt>
      <trkpt lat="49.81653" lon="4.86995">
        <ele>275</ele>
        <time>2021-05-15T10:23:09.000Z</time>
      </trkpt>
      <trkpt lat="49.81652" lon="4.86986">
        <ele>274</ele>
        <time>2021-05-15T10:23:10.000Z</time>
      </trkpt>
      <trkpt lat="49.81651" lon="4.86978">
        <ele>274</ele>
        <time>2021-05-15T10:23:11.000Z</time>
      </trkpt>
      <trkpt lat="49.8165" lon="4.86969">
        <ele>274</ele>
        <time>2021-05-15T10:23:12.000Z</time>
      </trkpt>
      <trkpt lat="49.81649" lon="4.86961">
        <ele>273</ele>
        <time>2021-05-15T10:23:13.000Z</time>
      </trkpt>
      <trkpt lat="49.81648" lon="4.86953">
        <ele>273</ele>
        <time>2021-05-15T10:23:14.000Z</time>
      </trkpt>
      <trkpt lat="49.81648" lon="4.86945">
        <ele>273</ele>
        <time>2021-05-15T10:23:15.000Z</time>
      </trkpt>
      <trkpt lat="49.81647" lon="4.86938">
        <ele>273</ele>
        <time>2021-05-15T10:23:16.000Z</time>
      </trkpt>
      <trkpt lat="49.81647" lon="4.86931">
        <ele>272</ele>
        <time>2021-05-15T10:23:17.000Z</time>
      </trkpt>
      <trkpt lat="49.81646" lon="4.86924">
        <ele>272</ele>
        <time>2021-05-15T10:23:18.000Z</time>
      </trkpt>
      <trkpt lat="49.81646" lon="4.86917">
        <ele>272</ele>
        <time>2021-05-15T10:23:19.000Z</time>
      </trkpt>
      <trkpt lat="49.81645" lon="4.86911">
        <ele>272</ele>
        <time>2021-05-15T10:23:20.000Z</time>
      </trkpt>
      <trkpt lat="49.81644" lon="4.86905">
        <ele>271</ele>
        <time>2021-05-15T10:23:21.000Z</time>
      </trkpt>
      <trkpt lat="49.81643" lon="4.86899">
        <ele>271</ele>
        <time>2021-05-15T10:23:22.000Z</time>
      </trkpt>
      <trkpt lat="49.81642" lon="4.86893">
        <ele>271</ele>
        <time>2021-05-15T10:23:23.000Z</time>
      </trkpt>
      <trkpt lat="49.81642" lon="4.86887">
        <ele>271</ele>
        <time>2021-05-15T10:23:24.000Z</time>
      </trkpt>
      <trkpt lat="49.81641" lon="4.8688">
        <ele>270</ele>
        <time>2021-05-15T10:23:25.000Z</time>
      </trkpt>
      <trkpt lat="49.81641" lon="4.86874">
        <ele>270</ele>
        <time>2021-05-15T10:23:26.000Z</time>
      </trkpt>
      <trkpt lat="49.81641" lon="4.86868">
        <ele>270</ele>
        <time>2021-05-15T10:23:27.000Z</time>
      </trkpt>
      <trkpt lat="49.81641" lon="4.86862">
        <ele>270</ele>
        <time>2021-05-15T10:23:28.000Z</time>
      </trkpt>
      <trkpt lat="49.81642" lon="4.86855">
        <ele>269</ele>
        <time>2021-05-15T10:23:29.000Z</time>
      </trkpt>
      <trkpt lat="49.81642" lon="4.86849">
        <ele>269</ele>
        <time>2021-05-15T10:23:30.000Z</time>
      </trkpt>
      <trkpt lat="49.81642" lon="4.86844">
        <ele>269</ele>
        <time>2021-05-15T10:23:31.000Z</time>
      </trkpt>
      <trkpt lat="49.81642" lon="4.86839">
        <ele>269</ele>
        <time>2021-05-15T10:23:32.000Z</time>
      </trkpt>
      <trkpt lat="49.81641" lon="4.86836">
        <ele>269</ele>
        <time>2021-05-15T10:23:33.000Z</time>
      </trkpt>
      <trkpt lat="49.81641" lon="4.86831">
        <ele>269</ele>
        <time>2021-05-15T10:23:34.000Z</time>
      </trkpt>
      <trkpt lat="49.8164" lon="4.86827">
        <ele>269</ele>
        <time>2021-05-15T10:23:35.000Z</time>
      </trkpt>
      <trkpt lat="49.81639" lon="4.86823">
        <ele>269</ele>
        <time>2021-05-15T10:23:36.000Z</time>
      </trkpt>
      <trkpt lat="49.81639" lon="4.86818">
        <ele>268</ele>
        <time>2021-05-15T10:23:37.000Z</time>
      </trkpt>
      <trkpt lat="49.81639" lon="4.86813">
        <ele>268</ele>
        <time>2021-05-15T10:23:38.000Z</time>
      </trkpt>
      <trkpt lat="49.81638" lon="4.86808">
        <ele>268</ele>
        <time>2021-05-15T10:23:39.000Z</time>
      </trkpt>
      <trkpt lat="49.81637" lon="4.86803">
        <ele>268</ele>
        <time>2021-05-15T10:23:40.000Z</time>
      </trkpt>
      <trkpt lat="49.81636" lon="4.86799">
        <ele>268</ele>
        <time>2021-05-15T10:23:41.000Z</time>
      </trkpt>
      <trkpt lat="49.81635" lon="4.86794">
        <ele>268</ele>
        <time>2021-05-15T10:23:42.000Z</time>
      </trkpt>
      <trkpt lat="49.81634" lon="4.8679">
        <ele>268</ele>
        <time>2021-05-15T10:23:43.000Z</time>
      </trkpt>
      <trkpt lat="49.81633" lon="4.86786">
        <ele>268</ele>
        <time>2021-05-15T10:23:44.000Z</time>
      </trkpt>
      <trkpt lat="49.81632" lon="4.86783">
        <ele>268</ele>
        <time>2021-05-15T10:23:45.000Z</time>
      </trkpt>
      <trkpt lat="49.81631" lon="4.86779">
        <ele>268</ele>
        <time>2021-05-15T10:23:46.000Z</time>
      </trkpt>
      <trkpt lat="49.81629" lon="4.86775">
        <ele>268</ele>
        <time>2021-05-15T10:23:47.000Z</time>
      </trkpt>
      <trkpt lat="49.81627" lon="4.8677">
        <ele>268</ele>
        <time>2021-05-15T10:23:48.000Z</time>
      </trkpt>
      <trkpt lat="49.81625" lon="4.86765">
        <ele>268</ele>
        <time>2021-05-15T10:23:49.000Z</time>
      </trkpt>
      <trkpt lat="49.81624" lon="4.86761">
        <ele>268</ele>
        <time>2021-05-15T10:23:50.000Z</time>
      </trkpt>
      <trkpt lat="49.81622" lon="4.86756">
        <ele>269</ele>
        <time>2021-05-15T10:23:51.000Z</time>
      </trkpt>
      <trkpt lat="49.81621" lon="4.86751">
        <ele>269</ele>
        <time>2021-05-15T10:23:52.000Z</time>
      </trkpt>
      <trkpt lat="49.8162" lon="4.86746">
        <ele>269</ele>
        <time>2021-05-15T10:23:53.000Z</time>
      </trkpt>
      <trkpt lat="49.81619" lon="4.86742">
        <ele>269</ele>
        <time>2021-05-15T10:23:54.000Z</time>
      </trkpt>
      <trkpt lat="49.81617" lon="4.86737">
        <ele>269</ele>
        <time>2021-05-15T10:23:55.000Z</time>
      </trkpt>
      <trkpt lat="49.81615" lon="4.86733">
        <ele>269</ele>
        <time>2021-05-15T10:23:56.000Z</time>
      </trkpt>
      <trkpt lat="49.81614" lon="4.86729">
        <ele>269</ele>
        <time>2021-05-15T10:23:57.000Z</time>
      </trkpt>
      <trkpt lat="49.81612" lon="4.86725">
        <ele>269</ele>
        <time>2021-05-15T10:23:58.000Z</time>
      </trkpt>
      <trkpt lat="49.8161" lon="4.86721">
        <ele>270</ele>
        <time>2021-05-15T10:23:59.000Z</time>
      </trkpt>
      <trkpt lat="49.81608" lon="4.86718">
        <ele>270</ele>
        <time>2021-05-15T10:24:00.000Z</time>
      </trkpt>
      <trkpt lat="49.81607" lon="4.86715">
        <ele>270</ele>
        <time>2021-05-15T10:24:01.000Z</time>
      </trkpt>
      <trkpt lat="49.81605" lon="4.86713">
        <ele>270</ele>
        <time>2021-05-15T10:24:02.000Z</time>
      </trkpt>
      <trkpt lat="49.81602" lon="4.86711">
        <ele>270</ele>
        <time>2021-05-15T10:24:03.000Z</time>
      </trkpt>
      <trkpt lat="49.81599" lon="4.86709">
        <ele>270</ele>
        <time>2021-05-15T10:24:04.000Z</time>
      </trkpt>
      <trkpt lat="49.81596" lon="4.86708">
        <ele>271</ele>
        <time>2021-05-15T10:24:05.000Z</time>
      </trkpt>
      <trkpt lat="49.81594" lon="4.86708">
        <ele>271</ele>
        <time>2021-05-15T10:24:06.000Z</time>
      </trkpt>
      <trkpt lat="49.81591" lon="4.86708">
        <ele>271</ele>
        <time>2021-05-15T10:24:07.000Z</time>
      </trkpt>
      <trkpt lat="49.81588" lon="4.86708">
        <ele>271</ele>
        <time>2021-05-15T10:24:08.000Z</time>
      </trkpt>
      <trkpt lat="49.81584" lon="4.86707">
        <ele>271</ele>
        <time>2021-05-15T10:24:09.000Z</time>
      </trkpt>
      <trkpt lat="49.8158" lon="4.86707">
        <ele>271</ele>
        <time>2021-05-15T10:24:10.000Z</time>
      </trkpt>
      <trkpt lat="49.81576" lon="4.86707">
        <ele>271</ele>
        <time>2021-05-15T10:24:11.000Z</time>
      </trkpt>
      <trkpt lat="49.81572" lon="4.86707">
        <ele>272</ele>
        <time>2021-05-15T10:24:12.000Z</time>
      </trkpt>
      <trkpt lat="49.81568" lon="4.86706">
        <ele>272</ele>
        <time>2021-05-15T10:24:13.000Z</time>
      </trkpt>
      <trkpt lat="49.81563" lon="4.86706">
        <ele>272</ele>
        <time>2021-05-15T10:24:14.000Z</time>
      </trkpt>
      <trkpt lat="49.81558" lon="4.86705">
        <ele>272</ele>
        <time>2021-05-15T10:24:15.000Z</time>
      </trkpt>
      <trkpt lat="49.81554" lon="4.86704">
        <ele>272</ele>
        <time>2021-05-15T10:24:16.000Z</time>
      </trkpt>
      <trkpt lat="49.81549" lon="4.86702">
        <ele>272</ele>
        <time>2021-05-15T10:24:17.000Z</time>
      </trkpt>
      <trkpt lat="49.81545" lon="4.86701">
        <ele>272</ele>
        <time>2021-05-15T10:24:18.000Z</time>
      </trkpt>
      <trkpt lat="49.8154" lon="4.86701">
        <ele>273</ele>
        <time>2021-05-15T10:24:19.000Z</time>
      </trkpt>
      <trkpt lat="49.81533" lon="4.86699">
        <ele>273</ele>
        <time>2021-05-15T10:24:20.000Z</time>
      </trkpt>
      <trkpt lat="49.81528" lon="4.86698">
        <ele>273</ele>
        <time>2021-05-15T10:24:21.000Z</time>
      </trkpt>
      <trkpt lat="49.81522" lon="4.86697">
        <ele>273</ele>
        <time>2021-05-15T10:24:22.000Z</time>
      </trkpt>
      <trkpt lat="49.81516" lon="4.86695">
        <ele>273</ele>
        <time>2021-05-15T10:24:23.000Z</time>
      </trkpt>
      <trkpt lat="49.8151" lon="4.86695">
        <ele>273</ele>
        <time>2021-05-15T10:24:24.000Z</time>
      </trkpt>
      <trkpt lat="49.81505" lon="4.86694">
        <ele>273</ele>
        <time>2021-05-15T10:24:25.000Z</time>
      </trkpt>
      <trkpt lat="49.815" lon="4.86692">
        <ele>273</ele>
        <time>2021-05-15T10:24:26.000Z</time>
      </trkpt>
      <trkpt lat="49.81494" lon="4.8669">
        <ele>273</ele>
        <time>2021-05-15T10:24:27.000Z</time>
      </trkpt>
      <trkpt lat="49.81488" lon="4.86687">
        <ele>273</ele>
        <time>2021-05-15T10:24:28.000Z</time>
      </trkpt>
      <trkpt lat="49.81483" lon="4.86684">
        <ele>273</ele>
        <time>2021-05-15T10:24:29.000Z</time>
      </trkpt>
      <trkpt lat="49.81477" lon="4.86679">
        <ele>273</ele>
        <time>2021-05-15T10:24:30.000Z</time>
      </trkpt>
      <trkpt lat="49.81471" lon="4.86674">
        <ele>273</ele>
        <time>2021-05-15T10:24:31.000Z</time>
      </trkpt>
      <trkpt lat="49.81465" lon="4.86669">
        <ele>273</ele>
        <time>2021-05-15T10:24:32.000Z</time>
      </trkpt>
      <trkpt lat="49.8146" lon="4.86663">
        <ele>272</ele>
        <time>2021-05-15T10:24:33.000Z</time>
      </trkpt>
      <trkpt lat="49.81455" lon="4.86656">
        <ele>272</ele>
        <time>2021-05-15T10:24:34.000Z</time>
      </trkpt>
      <trkpt lat="49.8145" lon="4.86648">
        <ele>272</ele>
        <time>2021-05-15T10:24:35.000Z</time>
      </trkpt>
      <trkpt lat="49.81446" lon="4.86641">
        <ele>271</ele>
        <time>2021-05-15T10:24:36.000Z</time>
      </trkpt>
      <trkpt lat="49.81442" lon="4.86633">
        <ele>271</ele>
        <time>2021-05-15T10:24:37.000Z</time>
      </trkpt>
      <trkpt lat="49.81439" lon="4.86624">
        <ele>271</ele>
        <time>2021-05-15T10:24:38.000Z</time>
      </trkpt>
      <trkpt lat="49.81436" lon="4.86615">
        <ele>271</ele>
        <time>2021-05-15T10:24:39.000Z</time>
      </trkpt>
      <trkpt lat="49.81433" lon="4.86605">
        <ele>270</ele>
        <time>2021-05-15T10:24:40.000Z</time>
      </trkpt>
      <trkpt lat="49.81431" lon="4.86595">
        <ele>270</ele>
        <time>2021-05-15T10:24:41.000Z</time>
      </trkpt>
      <trkpt lat="49.81429" lon="4.86584">
        <ele>270</ele>
        <time>2021-05-15T10:24:42.000Z</time>
      </trkpt>
      <trkpt lat="49.81426" lon="4.86573">
        <ele>270</ele>
        <time>2021-05-15T10:24:43.000Z</time>
      </trkpt>
      <trkpt lat="49.81422" lon="4.86561">
        <ele>269</ele>
        <time>2021-05-15T10:24:44.000Z</time>
      </trkpt>
      <trkpt lat="49.81419" lon="4.8655">
        <ele>269</ele>
        <time>2021-05-15T10:24:45.000Z</time>
      </trkpt>
      <trkpt lat="49.81416" lon="4.86537">
        <ele>268</ele>
        <time>2021-05-15T10:24:46.000Z</time>
      </trkpt>
      <trkpt lat="49.81413" lon="4.86525">
        <ele>268</ele>
        <time>2021-05-15T10:24:47.000Z</time>
      </trkpt>
      <trkpt lat="49.8141" lon="4.86511">
        <ele>267</ele>
        <time>2021-05-15T10:24:48.000Z</time>
      </trkpt>
      <trkpt lat="49.81407" lon="4.86498">
        <ele>267</ele>
        <time>2021-05-15T10:24:49.000Z</time>
      </trkpt>
      <trkpt lat="49.81404" lon="4.86484">
        <ele>266</ele>
        <time>2021-05-15T10:24:50.000Z</time>
      </trkpt>
      <trkpt lat="49.81402" lon="4.86471">
        <ele>266</ele>
        <time>2021-05-15T10:24:51.000Z</time>
      </trkpt>
      <trkpt lat="49.814" lon="4.86458">
        <ele>265</ele>
        <time>2021-05-15T10:24:52.000Z</time>
      </trkpt>
      <trkpt lat="49.81398" lon="4.86446">
        <ele>264</ele>
        <time>2021-05-15T10:24:53.000Z</time>
      </trkpt>
      <trkpt lat="49.81395" lon="4.86433">
        <ele>264</ele>
        <time>2021-05-15T10:24:54.000Z</time>
      </trkpt>
      <trkpt lat="49.81393" lon="4.86421">
        <ele>263</ele>
        <time>2021-05-15T10:24:55.000Z</time>
      </trkpt>
      <trkpt lat="49.81391" lon="4.8641">
        <ele>263</ele>
        <time>2021-05-15T10:24:56.000Z</time>
      </trkpt>
      <trkpt lat="49.81389" lon="4.86399">
        <ele>263</ele>
        <time>2021-05-15T10:24:57.000Z</time>
      </trkpt>
      <trkpt lat="49.81387" lon="4.86389">
        <ele>262</ele>
        <time>2021-05-15T10:24:58.000Z</time>
      </trkpt>
      <trkpt lat="49.81386" lon="4.86378">
        <ele>262</ele>
        <time>2021-05-15T10:24:59.000Z</time>
      </trkpt>
      <trkpt lat="49.81384" lon="4.86368">
        <ele>261</ele>
        <time>2021-05-15T10:25:00.000Z</time>
      </trkpt>
      <trkpt lat="49.81382" lon="4.86358">
        <ele>261</ele>
        <time>2021-05-15T10:25:01.000Z</time>
      </trkpt>
      <trkpt lat="49.8138" lon="4.86349">
        <ele>261</ele>
        <time>2021-05-15T10:25:02.000Z</time>
      </trkpt>
      <trkpt lat="49.81379" lon="4.8634">
        <ele>261</ele>
        <time>2021-05-15T10:25:03.000Z</time>
      </trkpt>
      <trkpt lat="49.81377" lon="4.86331">
        <ele>260</ele>
        <time>2021-05-15T10:25:04.000Z</time>
      </trkpt>
      <trkpt lat="49.81375" lon="4.86321">
        <ele>260</ele>
        <time>2021-05-15T10:25:05.000Z</time>
      </trkpt>
      <trkpt lat="49.81374" lon="4.86312">
        <ele>259</ele>
        <time>2021-05-15T10:25:06.000Z</time>
      </trkpt>
      <trkpt lat="49.81373" lon="4.86302">
        <ele>259</ele>
        <time>2021-05-15T10:25:07.000Z</time>
      </trkpt>
      <trkpt lat="49.81372" lon="4.86293">
        <ele>258</ele>
        <time>2021-05-15T10:25:08.000Z</time>
      </trkpt>
      <trkpt lat="49.81372" lon="4.86285">
        <ele>258</ele>
        <time>2021-05-15T10:25:09.000Z</time>
      </trkpt>
      <trkpt lat="49.81371" lon="4.86276">
        <ele>258</ele>
        <time>2021-05-15T10:25:10.000Z</time>
      </trkpt>
      <trkpt lat="49.8137" lon="4.86268">
        <ele>257</ele>
        <time>2021-05-15T10:25:11.000Z</time>
      </trkpt>
      <trkpt lat="49.81367" lon="4.86259">
        <ele>257</ele>
        <time>2021-05-15T10:25:12.000Z</time>
      </trkpt>
      <trkpt lat="49.81365" lon="4.8625">
        <ele>257</ele>
        <time>2021-05-15T10:25:13.000Z</time>
      </trkpt>
      <trkpt lat="49.81362" lon="4.86239">
        <ele>256</ele>
        <time>2021-05-15T10:25:14.000Z</time>
      </trkpt>
      <trkpt lat="49.8136" lon="4.86228">
        <ele>256</ele>
        <time>2021-05-15T10:25:15.000Z</time>
      </trkpt>
      <trkpt lat="49.81358" lon="4.86218">
        <ele>256</ele>
        <time>2021-05-15T10:25:16.000Z</time>
      </trkpt>
      <trkpt lat="49.81355" lon="4.86207">
        <ele>255</ele>
        <time>2021-05-15T10:25:17.000Z</time>
      </trkpt>
      <trkpt lat="49.81353" lon="4.86196">
        <ele>255</ele>
        <time>2021-05-15T10:25:18.000Z</time>
      </trkpt>
      <trkpt lat="49.81351" lon="4.86187">
        <ele>255</ele>
        <time>2021-05-15T10:25:19.000Z</time>
      </trkpt>
      <trkpt lat="49.8135" lon="4.86177">
        <ele>254</ele>
        <time>2021-05-15T10:25:20.000Z</time>
      </trkpt>
      <trkpt lat="49.81348" lon="4.86169">
        <ele>254</ele>
        <time>2021-05-15T10:25:21.000Z</time>
      </trkpt>
      <trkpt lat="49.81347" lon="4.8616">
        <ele>254</ele>
        <time>2021-05-15T10:25:22.000Z</time>
      </trkpt>
      <trkpt lat="49.81346" lon="4.86152">
        <ele>254</ele>
        <time>2021-05-15T10:25:23.000Z</time>
      </trkpt>
      <trkpt lat="49.81344" lon="4.86143">
        <ele>254</ele>
        <time>2021-05-15T10:25:24.000Z</time>
      </trkpt>
      <trkpt lat="49.81342" lon="4.86135">
        <ele>254</ele>
        <time>2021-05-15T10:25:25.000Z</time>
      </trkpt>
      <trkpt lat="49.8134" lon="4.86126">
        <ele>254</ele>
        <time>2021-05-15T10:25:26.000Z</time>
      </trkpt>
      <trkpt lat="49.81338" lon="4.86118">
        <ele>254</ele>
        <time>2021-05-15T10:25:27.000Z</time>
      </trkpt>
      <trkpt lat="49.81336" lon="4.8611">
        <ele>254</ele>
        <time>2021-05-15T10:25:28.000Z</time>
      </trkpt>
      <trkpt lat="49.81335" lon="4.86102">
        <ele>254</ele>
        <time>2021-05-15T10:25:29.000Z</time>
      </trkpt>
      <trkpt lat="49.81335" lon="4.86093">
        <ele>254</ele>
        <time>2021-05-15T10:25:30.000Z</time>
      </trkpt>
      <trkpt lat="49.81334" lon="4.86085">
        <ele>253</ele>
        <time>2021-05-15T10:25:31.000Z</time>
      </trkpt>
      <trkpt lat="49.81334" lon="4.86076">
        <ele>253</ele>
        <time>2021-05-15T10:25:32.000Z</time>
      </trkpt>
      <trkpt lat="49.81334" lon="4.86067">
        <ele>253</ele>
        <time>2021-05-15T10:25:33.000Z</time>
      </trkpt>
      <trkpt lat="49.81334" lon="4.86058">
        <ele>253</ele>
        <time>2021-05-15T10:25:34.000Z</time>
      </trkpt>
      <trkpt lat="49.81334" lon="4.86049">
        <ele>253</ele>
        <time>2021-05-15T10:25:35.000Z</time>
      </trkpt>
      <trkpt lat="49.81335" lon="4.8604">
        <ele>253</ele>
        <time>2021-05-15T10:25:36.000Z</time>
      </trkpt>
      <trkpt lat="49.81335" lon="4.86031">
        <ele>253</ele>
        <time>2021-05-15T10:25:37.000Z</time>
      </trkpt>
      <trkpt lat="49.81335" lon="4.86022">
        <ele>252</ele>
        <time>2021-05-15T10:25:38.000Z</time>
      </trkpt>
      <trkpt lat="49.81334" lon="4.86014">
        <ele>252</ele>
        <time>2021-05-15T10:25:39.000Z</time>
      </trkpt>
      <trkpt lat="49.81335" lon="4.86005">
        <ele>252</ele>
        <time>2021-05-15T10:25:40.000Z</time>
      </trkpt>
      <trkpt lat="49.81334" lon="4.85997">
        <ele>252</ele>
        <time>2021-05-15T10:25:41.000Z</time>
      </trkpt>
      <trkpt lat="49.81334" lon="4.85988">
        <ele>252</ele>
        <time>2021-05-15T10:25:42.000Z</time>
      </trkpt>
      <trkpt lat="49.81334" lon="4.85978">
        <ele>251</ele>
        <time>2021-05-15T10:25:43.000Z</time>
      </trkpt>
      <trkpt lat="49.81333" lon="4.85969">
        <ele>251</ele>
        <time>2021-05-15T10:25:44.000Z</time>
      </trkpt>
      <trkpt lat="49.81333" lon="4.85959">
        <ele>251</ele>
        <time>2021-05-15T10:25:45.000Z</time>
      </trkpt>
      <trkpt lat="49.81334" lon="4.85949">
        <ele>251</ele>
        <time>2021-05-15T10:25:46.000Z</time>
      </trkpt>
      <trkpt lat="49.81335" lon="4.85938">
        <ele>250</ele>
        <time>2021-05-15T10:25:47.000Z</time>
      </trkpt>
      <trkpt lat="49.81335" lon="4.85928">
        <ele>250</ele>
        <time>2021-05-15T10:25:48.000Z</time>
      </trkpt>
      <trkpt lat="49.81335" lon="4.85917">
        <ele>250</ele>
        <time>2021-05-15T10:25:49.000Z</time>
      </trkpt>
      <trkpt lat="49.81336" lon="4.85906">
        <ele>249</ele>
        <time>2021-05-15T10:25:50.000Z</time>
      </trkpt>
      <trkpt lat="49.81337" lon="4.85894">
        <ele>249</ele>
        <time>2021-05-15T10:25:51.000Z</time>
      </trkpt>
      <trkpt lat="49.81338" lon="4.85883">
        <ele>249</ele>
        <time>2021-05-15T10:25:52.000Z</time>
      </trkpt>
      <trkpt lat="49.81341" lon="4.85872">
        <ele>248</ele>
        <time>2021-05-15T10:25:53.000Z</time>
      </trkpt>
      <trkpt lat="49.81342" lon="4.85862">
        <ele>248</ele>
        <time>2021-05-15T10:25:54.000Z</time>
      </trkpt>
      <trkpt lat="49.81344" lon="4.85851">
        <ele>248</ele>
        <time>2021-05-15T10:25:55.000Z</time>
      </trkpt>
      <trkpt lat="49.81347" lon="4.85841">
        <ele>247</ele>
        <time>2021-05-15T10:25:56.000Z</time>
      </trkpt>
      <trkpt lat="49.8135" lon="4.8583">
        <ele>247</ele>
        <time>2021-05-15T10:25:57.000Z</time>
      </trkpt>
      <trkpt lat="49.81354" lon="4.8582">
        <ele>246</ele>
        <time>2021-05-15T10:25:58.000Z</time>
      </trkpt>
      <trkpt lat="49.81357" lon="4.85809">
        <ele>246</ele>
        <time>2021-05-15T10:25:59.000Z</time>
      </trkpt>
      <trkpt lat="49.8136" lon="4.85799">
        <ele>245</ele>
        <time>2021-05-15T10:26:00.000Z</time>
      </trkpt>
      <trkpt lat="49.81362" lon="4.85788">
        <ele>245</ele>
        <time>2021-05-15T10:26:01.000Z</time>
      </trkpt>
      <trkpt lat="49.81364" lon="4.85778">
        <ele>244</ele>
        <time>2021-05-15T10:26:02.000Z</time>
      </trkpt>
      <trkpt lat="49.81366" lon="4.85767">
        <ele>244</ele>
        <time>2021-05-15T10:26:03.000Z</time>
      </trkpt>
      <trkpt lat="49.81368" lon="4.85756">
        <ele>243</ele>
        <time>2021-05-15T10:26:04.000Z</time>
      </trkpt>
      <trkpt lat="49.8137" lon="4.85745">
        <ele>243</ele>
        <time>2021-05-15T10:26:05.000Z</time>
      </trkpt>
      <trkpt lat="49.81372" lon="4.85736">
        <ele>242</ele>
        <time>2021-05-15T10:26:06.000Z</time>
      </trkpt>
      <trkpt lat="49.81374" lon="4.85726">
        <ele>242</ele>
        <time>2021-05-15T10:26:07.000Z</time>
      </trkpt>
      <trkpt lat="49.81376" lon="4.85718">
        <ele>242</ele>
        <time>2021-05-15T10:26:08.000Z</time>
      </trkpt>
      <trkpt lat="49.81379" lon="4.85709">
        <ele>241</ele>
        <time>2021-05-15T10:26:09.000Z</time>
      </trkpt>
      <trkpt lat="49.81381" lon="4.857">
        <ele>241</ele>
        <time>2021-05-15T10:26:10.000Z</time>
      </trkpt>
      <trkpt lat="49.81383" lon="4.85691">
        <ele>241</ele>
        <time>2021-05-15T10:26:11.000Z</time>
      </trkpt>
      <trkpt lat="49.81385" lon="4.85682">
        <ele>240</ele>
        <time>2021-05-15T10:26:12.000Z</time>
      </trkpt>
      <trkpt lat="49.81387" lon="4.85673">
        <ele>240</ele>
        <time>2021-05-15T10:26:13.000Z</time>
      </trkpt>
      <trkpt lat="49.81389" lon="4.85665">
        <ele>240</ele>
        <time>2021-05-15T10:26:14.000Z</time>
      </trkpt>
      <trkpt lat="49.81391" lon="4.85657">
        <ele>240</ele>
        <time>2021-05-15T10:26:15.000Z</time>
      </trkpt>
      <trkpt lat="49.81394" lon="4.8565">
        <ele>239</ele>
        <time>2021-05-15T10:26:16.000Z</time>
      </trkpt>
      <trkpt lat="49.81396" lon="4.85642">
        <ele>239</ele>
        <time>2021-05-15T10:26:17.000Z</time>
      </trkpt>
      <trkpt lat="49.81399" lon="4.85634">
        <ele>239</ele>
        <time>2021-05-15T10:26:18.000Z</time>
      </trkpt>
      <trkpt lat="49.81401" lon="4.85626">
        <ele>239</ele>
        <time>2021-05-15T10:26:19.000Z</time>
      </trkpt>
      <trkpt lat="49.81403" lon="4.85617">
        <ele>238</ele>
        <time>2021-05-15T10:26:20.000Z</time>
      </trkpt>
      <trkpt lat="49.81405" lon="4.85608">
        <ele>238</ele>
        <time>2021-05-15T10:26:21.000Z</time>
      </trkpt>
      <trkpt lat="49.81407" lon="4.85598">
        <ele>238</ele>
        <time>2021-05-15T10:26:22.000Z</time>
      </trkpt>
      <trkpt lat="49.81409" lon="4.85588">
        <ele>238</ele>
        <time>2021-05-15T10:26:23.000Z</time>
      </trkpt>
      <trkpt lat="49.81411" lon="4.85579">
        <ele>237</ele>
        <time>2021-05-15T10:26:24.000Z</time>
      </trkpt>
      <trkpt lat="49.81414" lon="4.85569">
        <ele>237</ele>
        <time>2021-05-15T10:26:25.000Z</time>
      </trkpt>
      <trkpt lat="49.81417" lon="4.85559">
        <ele>237</ele>
        <time>2021-05-15T10:26:26.000Z</time>
      </trkpt>
      <trkpt lat="49.81419" lon="4.8555">
        <ele>236</ele>
        <time>2021-05-15T10:26:27.000Z</time>
      </trkpt>
      <trkpt lat="49.81422" lon="4.8554">
        <ele>236</ele>
        <time>2021-05-15T10:26:28.000Z</time>
      </trkpt>
      <trkpt lat="49.81425" lon="4.85531">
        <ele>236</ele>
        <time>2021-05-15T10:26:29.000Z</time>
      </trkpt>
      <trkpt lat="49.81428" lon="4.85523">
        <ele>235</ele>
        <time>2021-05-15T10:26:30.000Z</time>
      </trkpt>
      <trkpt lat="49.81432" lon="4.85515">
        <ele>235</ele>
        <time>2021-05-15T10:26:31.000Z</time>
      </trkpt>
      <trkpt lat="49.81435" lon="4.85508">
        <ele>235</ele>
        <time>2021-05-15T10:26:32.000Z</time>
      </trkpt>
      <trkpt lat="49.81439" lon="4.85501">
        <ele>235</ele>
        <time>2021-05-15T10:26:33.000Z</time>
      </trkpt>
      <trkpt lat="49.81442" lon="4.85494">
        <ele>234</ele>
        <time>2021-05-15T10:26:34.000Z</time>
      </trkpt>
      <trkpt lat="49.81446" lon="4.85486">
        <ele>234</ele>
        <time>2021-05-15T10:26:35.000Z</time>
      </trkpt>
      <trkpt lat="49.8145" lon="4.85479">
        <ele>234</ele>
        <time>2021-05-15T10:26:36.000Z</time>
      </trkpt>
      <trkpt lat="49.81454" lon="4.85471">
        <ele>234</ele>
        <time>2021-05-15T10:26:37.000Z</time>
      </trkpt>
      <trkpt lat="49.81458" lon="4.85464">
        <ele>234</ele>
        <time>2021-05-15T10:26:38.000Z</time>
      </trkpt>
      <trkpt lat="49.81462" lon="4.85458">
        <ele>234</ele>
        <time>2021-05-15T10:26:39.000Z</time>
      </trkpt>
      <trkpt lat="49.81465" lon="4.85452">
        <ele>234</ele>
        <time>2021-05-15T10:26:40.000Z</time>
      </trkpt>
      <trkpt lat="49.81468" lon="4.85446">
        <ele>233</ele>
        <time>2021-05-15T10:26:41.000Z</time>
      </trkpt>
      <trkpt lat="49.81472" lon="4.8544">
        <ele>233</ele>
        <time>2021-05-15T10:26:42.000Z</time>
      </trkpt>
      <trkpt lat="49.81477" lon="4.85436">
        <ele>233</ele>
        <time>2021-05-15T10:26:43.000Z</time>
      </trkpt>
      <trkpt lat="49.81482" lon="4.85431">
        <ele>233</ele>
        <time>2021-05-15T10:26:44.000Z</time>
      </trkpt>
      <trkpt lat="49.81487" lon="4.85427">
        <ele>233</ele>
        <time>2021-05-15T10:26:45.000Z</time>
      </trkpt>
      <trkpt lat="49.81492" lon="4.85423">
        <ele>233</ele>
        <time>2021-05-15T10:26:46.000Z</time>
      </trkpt>
      <trkpt lat="49.81497" lon="4.8542">
        <ele>233</ele>
        <time>2021-05-15T10:26:47.000Z</time>
      </trkpt>
      <trkpt lat="49.81502" lon="4.85419">
        <ele>233</ele>
        <time>2021-05-15T10:26:48.000Z</time>
      </trkpt>
      <trkpt lat="49.81507" lon="4.85418">
        <ele>233</ele>
        <time>2021-05-15T10:26:49.000Z</time>
      </trkpt>
      <trkpt lat="49.81511" lon="4.85418">
        <ele>233</ele>
        <time>2021-05-15T10:26:50.000Z</time>
      </trkpt>
      <trkpt lat="49.81515" lon="4.85418">
        <ele>233</ele>
        <time>2021-05-15T10:26:51.000Z</time>
      </trkpt>
      <trkpt lat="49.81519" lon="4.85418">
        <ele>233</ele>
        <time>2021-05-15T10:26:52.000Z</time>
      </trkpt>
      <trkpt lat="49.81523" lon="4.85419">
        <ele>233</ele>
        <time>2021-05-15T10:26:53.000Z</time>
      </trkpt>
      <trkpt lat="49.81527" lon="4.85419">
        <ele>233</ele>
        <time>2021-05-15T10:26:54.000Z</time>
      </trkpt>
      <trkpt lat="49.81531" lon="4.85418">
        <ele>233</ele>
        <time>2021-05-15T10:26:55.000Z</time>
      </trkpt>
      <trkpt lat="49.81535" lon="4.85416">
        <ele>233</ele>
        <time>2021-05-15T10:26:56.000Z</time>
      </trkpt>
      <trkpt lat="49.8154" lon="4.85415">
        <ele>232</ele>
        <time>2021-05-15T10:26:57.000Z</time>
      </trkpt>
      <trkpt lat="49.81544" lon="4.85414">
        <ele>232</ele>
        <time>2021-05-15T10:26:58.000Z</time>
      </trkpt>
      <trkpt lat="49.81547" lon="4.85414">
        <ele>232</ele>
        <time>2021-05-15T10:26:59.000Z</time>
      </trkpt>
      <trkpt lat="49.81551" lon="4.85413">
        <ele>232</ele>
        <time>2021-05-15T10:27:00.000Z</time>
      </trkpt>
      <trkpt lat="49.81554" lon="4.85413">
        <ele>232</ele>
        <time>2021-05-15T10:27:01.000Z</time>
      </trkpt>
      <trkpt lat="49.81559" lon="4.85413">
        <ele>232</ele>
        <time>2021-05-15T10:27:02.000Z</time>
      </trkpt>
      <trkpt lat="49.81562" lon="4.85412">
        <ele>232</ele>
        <time>2021-05-15T10:27:03.000Z</time>
      </trkpt>
      <trkpt lat="49.81566" lon="4.85412">
        <ele>231</ele>
        <time>2021-05-15T10:27:04.000Z</time>
      </trkpt>
      <trkpt lat="49.8157" lon="4.85411">
        <ele>231</ele>
        <time>2021-05-15T10:27:05.000Z</time>
      </trkpt>
      <trkpt lat="49.81574" lon="4.85411">
        <ele>231</ele>
        <time>2021-05-15T10:27:06.000Z</time>
      </trkpt>
      <trkpt lat="49.81577" lon="4.85412">
        <ele>231</ele>
        <time>2021-05-15T10:27:07.000Z</time>
      </trkpt>
      <trkpt lat="49.81579" lon="4.85413">
        <ele>231</ele>
        <time>2021-05-15T10:27:08.000Z</time>
      </trkpt>
      <trkpt lat="49.81581" lon="4.85413">
        <ele>231</ele>
        <time>2021-05-15T10:27:09.000Z</time>
      </trkpt>
      <trkpt lat="49.81583" lon="4.85414">
        <ele>231</ele>
        <time>2021-05-15T10:27:10.000Z</time>
      </trkpt>
      <trkpt lat="49.81586" lon="4.85414">
        <ele>230</ele>
        <time>2021-05-15T10:27:11.000Z</time>
      </trkpt>
      <trkpt lat="49.81589" lon="4.85415">
        <ele>230</ele>
        <time>2021-05-15T10:27:12.000Z</time>
      </trkpt>
      <trkpt lat="49.81592" lon="4.85415">
        <ele>230</ele>
        <time>2021-05-15T10:27:13.000Z</time>
      </trkpt>
      <trkpt lat="49.81595" lon="4.85416">
        <ele>230</ele>
        <time>2021-05-15T10:27:14.000Z</time>
      </trkpt>
      <trkpt lat="49.81598" lon="4.85417">
        <ele>230</ele>
        <time>2021-05-15T10:27:15.000Z</time>
      </trkpt>
      <trkpt lat="49.81602" lon="4.85418">
        <ele>230</ele>
        <time>2021-05-15T10:27:16.000Z</time>
      </trkpt>
      <trkpt lat="49.81604" lon="4.85419">
        <ele>229</ele>
        <time>2021-05-15T10:27:17.000Z</time>
      </trkpt>
      <trkpt lat="49.81607" lon="4.8542">
        <ele>229</ele>
        <time>2021-05-15T10:27:18.000Z</time>
      </trkpt>
      <trkpt lat="49.8161" lon="4.8542">
        <ele>229</ele>
        <time>2021-05-15T10:27:19.000Z</time>
      </trkpt>
      <trkpt lat="49.81613" lon="4.85422">
        <ele>229</ele>
        <time>2021-05-15T10:27:20.000Z</time>
      </trkpt>
      <trkpt lat="49.81615" lon="4.85424">
        <ele>229</ele>
        <time>2021-05-15T10:27:21.000Z</time>
      </trkpt>
      <trkpt lat="49.81618" lon="4.85425">
        <ele>229</ele>
        <time>2021-05-15T10:27:22.000Z</time>
      </trkpt>
      <trkpt lat="49.81621" lon="4.85427">
        <ele>229</ele>
        <time>2021-05-15T10:27:23.000Z</time>
      </trkpt>
      <trkpt lat="49.81625" lon="4.85428">
        <ele>229</ele>
        <time>2021-05-15T10:27:24.000Z</time>
      </trkpt>
      <trkpt lat="49.81629" lon="4.8543">
        <ele>229</ele>
        <time>2021-05-15T10:27:25.000Z</time>
      </trkpt>
      <trkpt lat="49.81631" lon="4.85432">
        <ele>229</ele>
        <time>2021-05-15T10:27:26.000Z</time>
      </trkpt>
      <trkpt lat="49.81634" lon="4.85433">
        <ele>229</ele>
        <time>2021-05-15T10:27:27.000Z</time>
      </trkpt>
      <trkpt lat="49.81637" lon="4.85434">
        <ele>229</ele>
        <time>2021-05-15T10:27:28.000Z</time>
      </trkpt>
      <trkpt lat="49.8164" lon="4.85434">
        <ele>229</ele>
        <time>2021-05-15T10:27:29.000Z</time>
      </trkpt>
      <trkpt lat="49.81642" lon="4.85434">
        <ele>229</ele>
        <time>2021-05-15T10:27:30.000Z</time>
      </trkpt>
      <trkpt lat="49.81645" lon="4.85434">
        <ele>229</ele>
        <time>2021-05-15T10:27:31.000Z</time>
      </trkpt>
      <trkpt lat="49.81648" lon="4.85434">
        <ele>229</ele>
        <time>2021-05-15T10:27:32.000Z</time>
      </trkpt>
      <trkpt lat="49.81651" lon="4.85434">
        <ele>229</ele>
        <time>2021-05-15T10:27:33.000Z</time>
      </trkpt>
      <trkpt lat="49.81654" lon="4.85433">
        <ele>229</ele>
        <time>2021-05-15T10:27:34.000Z</time>
      </trkpt>
      <trkpt lat="49.81656" lon="4.85431">
        <ele>229</ele>
        <time>2021-05-15T10:27:35.000Z</time>
      </trkpt>
      <trkpt lat="49.81659" lon="4.85429">
        <ele>230</ele>
        <time>2021-05-15T10:27:36.000Z</time>
      </trkpt>
      <trkpt lat="49.81662" lon="4.85427">
        <ele>230</ele>
        <time>2021-05-15T10:27:37.000Z</time>
      </trkpt>
      <trkpt lat="49.81665" lon="4.85425">
        <ele>230</ele>
        <time>2021-05-15T10:27:38.000Z</time>
      </trkpt>
      <trkpt lat="49.81668" lon="4.85423">
        <ele>230</ele>
        <time>2021-05-15T10:27:39.000Z</time>
      </trkpt>
      <trkpt lat="49.81671" lon="4.85419">
        <ele>230</ele>
        <time>2021-05-15T10:27:40.000Z</time>
      </trkpt>
      <trkpt lat="49.81674" lon="4.85414">
        <ele>230</ele>
        <time>2021-05-15T10:27:41.000Z</time>
      </trkpt>
      <trkpt lat="49.81676" lon="4.85408">
        <ele>230</ele>
        <time>2021-05-15T10:27:42.000Z</time>
      </trkpt>
      <trkpt lat="49.81677" lon="4.85402">
        <ele>230</ele>
        <time>2021-05-15T10:27:43.000Z</time>
      </trkpt>
      <trkpt lat="49.81678" lon="4.85394">
        <ele>230</ele>
        <time>2021-05-15T10:27:44.000Z</time>
      </trkpt>
      <trkpt lat="49.81677" lon="4.85387">
        <ele>230</ele>
        <time>2021-05-15T10:27:45.000Z</time>
      </trkpt>
      <trkpt lat="49.81675" lon="4.85379">
        <ele>230</ele>
        <time>2021-05-15T10:27:46.000Z</time>
      </trkpt>
      <trkpt lat="49.81673" lon="4.8537">
        <ele>230</ele>
        <time>2021-05-15T10:27:47.000Z</time>
      </trkpt>
      <trkpt lat="49.81671" lon="4.85361">
        <ele>229</ele>
        <time>2021-05-15T10:27:48.000Z</time>
      </trkpt>
      <trkpt lat="49.81668" lon="4.85353">
        <ele>229</ele>
        <time>2021-05-15T10:27:49.000Z</time>
      </trkpt>
      <trkpt lat="49.81665" lon="4.85343">
        <ele>229</ele>
        <time>2021-05-15T10:27:50.000Z</time>
      </trkpt>
      <trkpt lat="49.81662" lon="4.85334">
        <ele>228</ele>
        <time>2021-05-15T10:27:51.000Z</time>
      </trkpt>
      <trkpt lat="49.81658" lon="4.85325">
        <ele>228</ele>
        <time>2021-05-15T10:27:52.000Z</time>
      </trkpt>
      <trkpt lat="49.81655" lon="4.85315">
        <ele>228</ele>
        <time>2021-05-15T10:27:53.000Z</time>
      </trkpt>
      <trkpt lat="49.81652" lon="4.85306">
        <ele>227</ele>
        <time>2021-05-15T10:27:54.000Z</time>
      </trkpt>
      <trkpt lat="49.81649" lon="4.85297">
        <ele>227</ele>
        <time>2021-05-15T10:27:55.000Z</time>
      </trkpt>
      <trkpt lat="49.81646" lon="4.85287">
        <ele>226</ele>
        <time>2021-05-15T10:27:56.000Z</time>
      </trkpt>
      <trkpt lat="49.81643" lon="4.85277">
        <ele>226</ele>
        <time>2021-05-15T10:27:57.000Z</time>
      </trkpt>
      <trkpt lat="49.81639" lon="4.85266">
        <ele>226</ele>
        <time>2021-05-15T10:27:58.000Z</time>
      </trkpt>
      <trkpt lat="49.81635" lon="4.85255">
        <ele>225</ele>
        <time>2021-05-15T10:27:59.000Z</time>
      </trkpt>
      <trkpt lat="49.81632" lon="4.85244">
        <ele>225</ele>
        <time>2021-05-15T10:28:00.000Z</time>
      </trkpt>
      <trkpt lat="49.81628" lon="4.85234">
        <ele>224</ele>
        <time>2021-05-15T10:28:01.000Z</time>
      </trkpt>
      <trkpt lat="49.81624" lon="4.85224">
        <ele>223</ele>
        <time>2021-05-15T10:28:02.000Z</time>
      </trkpt>
      <trkpt lat="49.81621" lon="4.85213">
        <ele>223</ele>
        <time>2021-05-15T10:28:03.000Z</time>
      </trkpt>
      <trkpt lat="49.81617" lon="4.85202">
        <ele>222</ele>
        <time>2021-05-15T10:28:04.000Z</time>
      </trkpt>
      <trkpt lat="49.81613" lon="4.85192">
        <ele>222</ele>
        <time>2021-05-15T10:28:05.000Z</time>
      </trkpt>
      <trkpt lat="49.81609" lon="4.85181">
        <ele>222</ele>
        <time>2021-05-15T10:28:06.000Z</time>
      </trkpt>
      <trkpt lat="49.81606" lon="4.85171">
        <ele>221</ele>
        <time>2021-05-15T10:28:07.000Z</time>
      </trkpt>
      <trkpt lat="49.81602" lon="4.85162">
        <ele>221</ele>
        <time>2021-05-15T10:28:08.000Z</time>
      </trkpt>
      <trkpt lat="49.81599" lon="4.85152">
        <ele>220</ele>
        <time>2021-05-15T10:28:09.000Z</time>
      </trkpt>
      <trkpt lat="49.81595" lon="4.85143">
        <ele>220</ele>
        <time>2021-05-15T10:28:10.000Z</time>
      </trkpt>
      <trkpt lat="49.81591" lon="4.85135">
        <ele>219</ele>
        <time>2021-05-15T10:28:11.000Z</time>
      </trkpt>
      <trkpt lat="49.81587" lon="4.85127">
        <ele>219</ele>
        <time>2021-05-15T10:28:12.000Z</time>
      </trkpt>
      <trkpt lat="49.81584" lon="4.85119">
        <ele>219</ele>
        <time>2021-05-15T10:28:13.000Z</time>
      </trkpt>
      <trkpt lat="49.81581" lon="4.85111">
        <ele>219</ele>
        <time>2021-05-15T10:28:14.000Z</time>
      </trkpt>
      <trkpt lat="49.81577" lon="4.85104">
        <ele>218</ele>
        <time>2021-05-15T10:28:15.000Z</time>
      </trkpt>
      <trkpt lat="49.81573" lon="4.85096">
        <ele>218</ele>
        <time>2021-05-15T10:28:16.000Z</time>
      </trkpt>
      <trkpt lat="49.8157" lon="4.85089">
        <ele>218</ele>
        <time>2021-05-15T10:28:17.000Z</time>
      </trkpt>
      <trkpt lat="49.81567" lon="4.85082">
        <ele>218</ele>
        <time>2021-05-15T10:28:18.000Z</time>
      </trkpt>
      <trkpt lat="49.81565" lon="4.85075">
        <ele>218</ele>
        <time>2021-05-15T10:28:19.000Z</time>
      </trkpt>
      <trkpt lat="49.81562" lon="4.85068">
        <ele>218</ele>
        <time>2021-05-15T10:28:20.000Z</time>
      </trkpt>
      <trkpt lat="49.8156" lon="4.8506">
        <ele>218</ele>
        <time>2021-05-15T10:28:21.000Z</time>
      </trkpt>
      <trkpt lat="49.81558" lon="4.85051">
        <ele>218</ele>
        <time>2021-05-15T10:28:22.000Z</time>
      </trkpt>
      <trkpt lat="49.81556" lon="4.85042">
        <ele>218</ele>
        <time>2021-05-15T10:28:23.000Z</time>
      </trkpt>
      <trkpt lat="49.81556" lon="4.85034">
        <ele>218</ele>
        <time>2021-05-15T10:28:24.000Z</time>
      </trkpt>
      <trkpt lat="49.81556" lon="4.85027">
        <ele>218</ele>
        <time>2021-05-15T10:28:25.000Z</time>
      </trkpt>
      <trkpt lat="49.81556" lon="4.8502">
        <ele>218</ele>
        <time>2021-05-15T10:28:26.000Z</time>
      </trkpt>
      <trkpt lat="49.81555" lon="4.85013">
        <ele>218</ele>
        <time>2021-05-15T10:28:27.000Z</time>
      </trkpt>
      <trkpt lat="49.81555" lon="4.85007">
        <ele>218</ele>
        <time>2021-05-15T10:28:28.000Z</time>
      </trkpt>
      <trkpt lat="49.81554" lon="4.85">
        <ele>218</ele>
        <time>2021-05-15T10:28:29.000Z</time>
      </trkpt>
      <trkpt lat="49.81554" lon="4.84994">
        <ele>218</ele>
        <time>2021-05-15T10:28:30.000Z</time>
      </trkpt>
      <trkpt lat="49.81553" lon="4.84989">
        <ele>218</ele>
        <time>2021-05-15T10:28:31.000Z</time>
      </trkpt>
      <trkpt lat="49.8155" lon="4.84985">
        <ele>219</ele>
        <time>2021-05-15T10:28:32.000Z</time>
      </trkpt>
      <trkpt lat="49.81548" lon="4.84983">
        <ele>219</ele>
        <time>2021-05-15T10:28:33.000Z</time>
      </trkpt>
      <trkpt lat="49.81546" lon="4.84983">
        <ele>219</ele>
        <time>2021-05-15T10:28:34.000Z</time>
      </trkpt>
      <trkpt lat="49.81543" lon="4.84985">
        <ele>219</ele>
        <time>2021-05-15T10:28:35.000Z</time>
      </trkpt>
      <trkpt lat="49.81542" lon="4.84988">
        <ele>219</ele>
        <time>2021-05-15T10:28:36.000Z</time>
      </trkpt>
      <trkpt lat="49.8154" lon="4.84991">
        <ele>219</ele>
        <time>2021-05-15T10:28:37.000Z</time>
      </trkpt>
      <trkpt lat="49.81538" lon="4.84992">
        <ele>219</ele>
        <time>2021-05-15T10:28:38.000Z</time>
      </trkpt>
      <trkpt lat="49.81535" lon="4.84991">
        <ele>220</ele>
        <time>2021-05-15T10:28:39.000Z</time>
      </trkpt>
      <trkpt lat="49.81532" lon="4.84989">
        <ele>220</ele>
        <time>2021-05-15T10:28:40.000Z</time>
      </trkpt>
      <trkpt lat="49.8153" lon="4.84986">
        <ele>220</ele>
        <time>2021-05-15T10:28:41.000Z</time>
      </trkpt>
      <trkpt lat="49.81527" lon="4.84984">
        <ele>220</ele>
        <time>2021-05-15T10:28:42.000Z</time>
      </trkpt>
      <trkpt lat="49.81526" lon="4.8498">
        <ele>220</ele>
        <time>2021-05-15T10:28:43.000Z</time>
      </trkpt>
      <trkpt lat="49.81524" lon="4.84976">
        <ele>220</ele>
        <time>2021-05-15T10:28:44.000Z</time>
      </trkpt>
      <trkpt lat="49.81524" lon="4.84971">
        <ele>221</ele>
        <time>2021-05-15T10:28:45.000Z</time>
      </trkpt>
      <trkpt lat="49.81524" lon="4.84965">
        <ele>221</ele>
        <time>2021-05-15T10:28:46.000Z</time>
      </trkpt>
      <trkpt lat="49.81524" lon="4.84959">
        <ele>221</ele>
        <time>2021-05-15T10:28:47.000Z</time>
      </trkpt>
      <trkpt lat="49.81525" lon="4.84953">
        <ele>221</ele>
        <time>2021-05-15T10:28:48.000Z</time>
      </trkpt>
      <trkpt lat="49.81526" lon="4.84946">
        <ele>220</ele>
        <time>2021-05-15T10:28:49.000Z</time>
      </trkpt>
      <trkpt lat="49.81528" lon="4.8494">
        <ele>220</ele>
        <time>2021-05-15T10:28:50.000Z</time>
      </trkpt>
      <trkpt lat="49.8153" lon="4.84933">
        <ele>220</ele>
        <time>2021-05-15T10:28:51.000Z</time>
      </trkpt>
      <trkpt lat="49.81532" lon="4.84926">
        <ele>220</ele>
        <time>2021-05-15T10:28:52.000Z</time>
      </trkpt>
      <trkpt lat="49.81534" lon="4.8492">
        <ele>220</ele>
        <time>2021-05-15T10:28:53.000Z</time>
      </trkpt>
      <trkpt lat="49.81536" lon="4.84913">
        <ele>220</ele>
        <time>2021-05-15T10:28:54.000Z</time>
      </trkpt>
      <trkpt lat="49.81537" lon="4.84906">
        <ele>221</ele>
        <time>2021-05-15T10:28:55.000Z</time>
      </trkpt>
      <trkpt lat="49.81537" lon="4.84899">
        <ele>221</ele>
        <time>2021-05-15T10:28:56.000Z</time>
      </trkpt>
      <trkpt lat="49.81536" lon="4.84893">
        <ele>221</ele>
        <time>2021-05-15T10:28:57.000Z</time>
      </trkpt>
      <trkpt lat="49.81535" lon="4.84886">
        <ele>221</ele>
        <time>2021-05-15T10:28:58.000Z</time>
      </trkpt>
      <trkpt lat="49.81533" lon="4.84879">
        <ele>221</ele>
        <time>2021-05-15T10:28:59.000Z</time>
      </trkpt>
      <trkpt lat="49.81532" lon="4.84872">
        <ele>221</ele>
        <time>2021-05-15T10:29:00.000Z</time>
      </trkpt>
      <trkpt lat="49.81531" lon="4.84866">
        <ele>221</ele>
        <time>2021-05-15T10:29:01.000Z</time>
      </trkpt>
      <trkpt lat="49.81529" lon="4.84859">
        <ele>221</ele>
        <time>2021-05-15T10:29:02.000Z</time>
      </trkpt>
      <trkpt lat="49.81528" lon="4.84852">
        <ele>221</ele>
        <time>2021-05-15T10:29:03.000Z</time>
      </trkpt>
      <trkpt lat="49.81527" lon="4.84845">
        <ele>221</ele>
        <time>2021-05-15T10:29:04.000Z</time>
      </trkpt>
      <trkpt lat="49.81525" lon="4.84838">
        <ele>221</ele>
        <time>2021-05-15T10:29:05.000Z</time>
      </trkpt>
      <trkpt lat="49.81524" lon="4.84831">
        <ele>221</ele>
        <time>2021-05-15T10:29:06.000Z</time>
      </trkpt>
      <trkpt lat="49.81523" lon="4.84823">
        <ele>221</ele>
        <time>2021-05-15T10:29:07.000Z</time>
      </trkpt>
      <trkpt lat="49.81522" lon="4.84815">
        <ele>221</ele>
        <time>2021-05-15T10:29:08.000Z</time>
      </trkpt>
      <trkpt lat="49.8152" lon="4.84807">
        <ele>221</ele>
        <time>2021-05-15T10:29:09.000Z</time>
      </trkpt>
      <trkpt lat="49.81518" lon="4.84798">
        <ele>221</ele>
        <time>2021-05-15T10:29:10.000Z</time>
      </trkpt>
      <trkpt lat="49.81516" lon="4.84789">
        <ele>221</ele>
        <time>2021-05-15T10:29:11.000Z</time>
      </trkpt>
      <trkpt lat="49.81514" lon="4.8478">
        <ele>221</ele>
        <time>2021-05-15T10:29:12.000Z</time>
      </trkpt>
      <trkpt lat="49.81512" lon="4.84771">
        <ele>221</ele>
        <time>2021-05-15T10:29:13.000Z</time>
      </trkpt>
      <trkpt lat="49.81509" lon="4.84763">
        <ele>221</ele>
        <time>2021-05-15T10:29:14.000Z</time>
      </trkpt>
      <trkpt lat="49.81507" lon="4.84754">
        <ele>221</ele>
        <time>2021-05-15T10:29:15.000Z</time>
      </trkpt>
      <trkpt lat="49.81505" lon="4.84746">
        <ele>221</ele>
        <time>2021-05-15T10:29:16.000Z</time>
      </trkpt>
      <trkpt lat="49.81503" lon="4.84737">
        <ele>221</ele>
        <time>2021-05-15T10:29:17.000Z</time>
      </trkpt>
      <trkpt lat="49.81501" lon="4.84729">
        <ele>221</ele>
        <time>2021-05-15T10:29:18.000Z</time>
      </trkpt>
      <trkpt lat="49.81499" lon="4.84722">
        <ele>221</ele>
        <time>2021-05-15T10:29:19.000Z</time>
      </trkpt>
      <trkpt lat="49.81497" lon="4.84714">
        <ele>221</ele>
        <time>2021-05-15T10:29:20.000Z</time>
      </trkpt>
      <trkpt lat="49.81496" lon="4.84707">
        <ele>221</ele>
        <time>2021-05-15T10:29:21.000Z</time>
      </trkpt>
      <trkpt lat="49.81494" lon="4.84699">
        <ele>221</ele>
        <time>2021-05-15T10:29:22.000Z</time>
      </trkpt>
      <trkpt lat="49.81493" lon="4.84692">
        <ele>221</ele>
        <time>2021-05-15T10:29:23.000Z</time>
      </trkpt>
      <trkpt lat="49.81491" lon="4.84685">
        <ele>221</ele>
        <time>2021-05-15T10:29:24.000Z</time>
      </trkpt>
      <trkpt lat="49.81489" lon="4.84677">
        <ele>221</ele>
        <time>2021-05-15T10:29:25.000Z</time>
      </trkpt>
      <trkpt lat="49.81487" lon="4.8467">
        <ele>221</ele>
        <time>2021-05-15T10:29:26.000Z</time>
      </trkpt>
      <trkpt lat="49.81486" lon="4.84663">
        <ele>221</ele>
        <time>2021-05-15T10:29:27.000Z</time>
      </trkpt>
      <trkpt lat="49.81483" lon="4.84657">
        <ele>221</ele>
        <time>2021-05-15T10:29:28.000Z</time>
      </trkpt>
      <trkpt lat="49.8148" lon="4.84651">
        <ele>221</ele>
        <time>2021-05-15T10:29:29.000Z</time>
      </trkpt>
      <trkpt lat="49.81477" lon="4.84645">
        <ele>221</ele>
        <time>2021-05-15T10:29:30.000Z</time>
      </trkpt>
      <trkpt lat="49.81473" lon="4.8464">
        <ele>221</ele>
        <time>2021-05-15T10:29:31.000Z</time>
      </trkpt>
      <trkpt lat="49.81469" lon="4.84637">
        <ele>221</ele>
        <time>2021-05-15T10:29:32.000Z</time>
      </trkpt>
      <trkpt lat="49.81465" lon="4.84634">
        <ele>221</ele>
        <time>2021-05-15T10:29:33.000Z</time>
      </trkpt>
      <trkpt lat="49.81462" lon="4.84632">
        <ele>221</ele>
        <time>2021-05-15T10:29:34.000Z</time>
      </trkpt>
      <trkpt lat="49.8146" lon="4.84629">
        <ele>221</ele>
        <time>2021-05-15T10:29:35.000Z</time>
      </trkpt>
      <trkpt lat="49.81458" lon="4.84623">
        <ele>221</ele>
        <time>2021-05-15T10:29:36.000Z</time>
      </trkpt>
      <trkpt lat="49.81456" lon="4.84616">
        <ele>221</ele>
        <time>2021-05-15T10:29:37.000Z</time>
      </trkpt>
      <trkpt lat="49.81455" lon="4.84608">
        <ele>221</ele>
        <time>2021-05-15T10:29:38.000Z</time>
      </trkpt>
      <trkpt lat="49.81455" lon="4.84599">
        <ele>221</ele>
        <time>2021-05-15T10:29:39.000Z</time>
      </trkpt>
      <trkpt lat="49.81456" lon="4.84589">
        <ele>221</ele>
        <time>2021-05-15T10:29:40.000Z</time>
      </trkpt>
      <trkpt lat="49.81456" lon="4.8458">
        <ele>221</ele>
        <time>2021-05-15T10:29:41.000Z</time>
      </trkpt>
      <trkpt lat="49.81456" lon="4.84571">
        <ele>221</ele>
        <time>2021-05-15T10:29:42.000Z</time>
      </trkpt>
      <trkpt lat="49.81457" lon="4.84563">
        <ele>221</ele>
        <time>2021-05-15T10:29:43.000Z</time>
      </trkpt>
      <trkpt lat="49.81458" lon="4.84554">
        <ele>221</ele>
        <time>2021-05-15T10:29:44.000Z</time>
      </trkpt>
      <trkpt lat="49.81459" lon="4.84544">
        <ele>221</ele>
        <time>2021-05-15T10:29:45.000Z</time>
      </trkpt>
      <trkpt lat="49.81459" lon="4.84534">
        <ele>221</ele>
        <time>2021-05-15T10:29:46.000Z</time>
      </trkpt>
      <trkpt lat="49.81459" lon="4.84522">
        <ele>220</ele>
        <time>2021-05-15T10:29:47.000Z</time>
      </trkpt>
      <trkpt lat="49.81458" lon="4.8451">
        <ele>220</ele>
        <time>2021-05-15T10:29:48.000Z</time>
      </trkpt>
      <trkpt lat="49.81458" lon="4.84499">
        <ele>220</ele>
        <time>2021-05-15T10:29:49.000Z</time>
      </trkpt>
      <trkpt lat="49.81458" lon="4.84488">
        <ele>220</ele>
        <time>2021-05-15T10:29:50.000Z</time>
      </trkpt>
      <trkpt lat="49.81458" lon="4.84477">
        <ele>220</ele>
        <time>2021-05-15T10:29:51.000Z</time>
      </trkpt>
      <trkpt lat="49.81458" lon="4.84466">
        <ele>220</ele>
        <time>2021-05-15T10:29:52.000Z</time>
      </trkpt>
      <trkpt lat="49.81458" lon="4.84455">
        <ele>219</ele>
        <time>2021-05-15T10:29:53.000Z</time>
      </trkpt>
      <trkpt lat="49.81458" lon="4.84445">
        <ele>219</ele>
        <time>2021-05-15T10:29:54.000Z</time>
      </trkpt>
      <trkpt lat="49.81458" lon="4.84437">
        <ele>219</ele>
        <time>2021-05-15T10:29:55.000Z</time>
      </trkpt>
      <trkpt lat="49.81458" lon="4.84429">
        <ele>219</ele>
        <time>2021-05-15T10:29:56.000Z</time>
      </trkpt>
      <trkpt lat="49.8146" lon="4.84423">
        <ele>218</ele>
        <time>2021-05-15T10:29:57.000Z</time>
      </trkpt>
      <trkpt lat="49.81463" lon="4.84419">
        <ele>218</ele>
        <time>2021-05-15T10:29:58.000Z</time>
      </trkpt>
      <trkpt lat="49.81466" lon="4.84414">
        <ele>218</ele>
        <time>2021-05-15T10:29:59.000Z</time>
      </trkpt>
      <trkpt lat="49.81468" lon="4.84408">
        <ele>217</ele>
        <time>2021-05-15T10:30:00.000Z</time>
      </trkpt>
      <trkpt lat="49.81469" lon="4.84401">
        <ele>217</ele>
        <time>2021-05-15T10:30:01.000Z</time>
      </trkpt>
      <trkpt lat="49.81469" lon="4.84394">
        <ele>217</ele>
        <time>2021-05-15T10:30:02.000Z</time>
      </trkpt>
      <trkpt lat="49.81469" lon="4.84387">
        <ele>217</ele>
        <time>2021-05-15T10:30:03.000Z</time>
      </trkpt>
      <trkpt lat="49.81469" lon="4.84379">
        <ele>217</ele>
        <time>2021-05-15T10:30:04.000Z</time>
      </trkpt>
      <trkpt lat="49.81469" lon="4.84371">
        <ele>216</ele>
        <time>2021-05-15T10:30:05.000Z</time>
      </trkpt>
      <trkpt lat="49.8147" lon="4.84363">
        <ele>216</ele>
        <time>2021-05-15T10:30:06.000Z</time>
      </trkpt>
      <trkpt lat="49.81471" lon="4.84355">
        <ele>216</ele>
        <time>2021-05-15T10:30:07.000Z</time>
      </trkpt>
      <trkpt lat="49.81473" lon="4.84347">
        <ele>216</ele>
        <time>2021-05-15T10:30:08.000Z</time>
      </trkpt>
      <trkpt lat="49.81475" lon="4.84339">
        <ele>216</ele>
        <time>2021-05-15T10:30:09.000Z</time>
      </trkpt>
      <trkpt lat="49.81477" lon="4.84331">
        <ele>216</ele>
        <time>2021-05-15T10:30:10.000Z</time>
      </trkpt>
      <trkpt lat="49.81479" lon="4.84323">
        <ele>216</ele>
        <time>2021-05-15T10:30:11.000Z</time>
      </trkpt>
      <trkpt lat="49.8148" lon="4.84315">
        <ele>216</ele>
        <time>2021-05-15T10:30:12.000Z</time>
      </trkpt>
      <trkpt lat="49.81482" lon="4.84306">
        <ele>216</ele>
        <time>2021-05-15T10:30:13.000Z</time>
      </trkpt>
      <trkpt lat="49.81484" lon="4.84298">
        <ele>216</ele>
        <time>2021-05-15T10:30:14.000Z</time>
      </trkpt>
      <trkpt lat="49.81486" lon="4.8429">
        <ele>216</ele>
        <time>2021-05-15T10:30:15.000Z</time>
      </trkpt>
      <trkpt lat="49.81489" lon="4.84282">
        <ele>216</ele>
        <time>2021-05-15T10:30:16.000Z</time>
      </trkpt>
      <trkpt lat="49.81491" lon="4.84275">
        <ele>216</ele>
        <time>2021-05-15T10:30:17.000Z</time>
      </trkpt>
      <trkpt lat="49.81494" lon="4.84267">
        <ele>216</ele>
        <time>2021-05-15T10:30:18.000Z</time>
      </trkpt>
      <trkpt lat="49.81496" lon="4.8426">
        <ele>216</ele>
        <time>2021-05-15T10:30:19.000Z</time>
      </trkpt>
      <trkpt lat="49.81497" lon="4.84253">
        <ele>216</ele>
        <time>2021-05-15T10:30:20.000Z</time>
      </trkpt>
      <trkpt lat="49.81499" lon="4.84246">
        <ele>216</ele>
        <time>2021-05-15T10:30:21.000Z</time>
      </trkpt>
      <trkpt lat="49.815" lon="4.8424">
        <ele>216</ele>
        <time>2021-05-15T10:30:22.000Z</time>
      </trkpt>
      <trkpt lat="49.81501" lon="4.84235">
        <ele>216</ele>
        <time>2021-05-15T10:30:23.000Z</time>
      </trkpt>
      <trkpt lat="49.815" lon="4.84231">
        <ele>216</ele>
        <time>2021-05-15T10:30:24.000Z</time>
      </trkpt>
      <trkpt lat="49.81499" lon="4.84226">
        <ele>216</ele>
        <time>2021-05-15T10:30:25.000Z</time>
      </trkpt>
      <trkpt lat="49.81498" lon="4.84221">
        <ele>216</ele>
        <time>2021-05-15T10:30:26.000Z</time>
      </trkpt>
      <trkpt lat="49.81497" lon="4.84215">
        <ele>216</ele>
        <time>2021-05-15T10:30:27.000Z</time>
      </trkpt>
      <trkpt lat="49.81497" lon="4.84208">
        <ele>216</ele>
        <time>2021-05-15T10:30:28.000Z</time>
      </trkpt>
      <trkpt lat="49.81497" lon="4.842">
        <ele>215</ele>
        <time>2021-05-15T10:30:29.000Z</time>
      </trkpt>
      <trkpt lat="49.81497" lon="4.84192">
        <ele>215</ele>
        <time>2021-05-15T10:30:30.000Z</time>
      </trkpt>
      <trkpt lat="49.81498" lon="4.84185">
        <ele>215</ele>
        <time>2021-05-15T10:30:31.000Z</time>
      </trkpt>
      <trkpt lat="49.81498" lon="4.84177">
        <ele>215</ele>
        <time>2021-05-15T10:30:32.000Z</time>
      </trkpt>
      <trkpt lat="49.81499" lon="4.84168">
        <ele>215</ele>
        <time>2021-05-15T10:30:33.000Z</time>
      </trkpt>
      <trkpt lat="49.81501" lon="4.8416">
        <ele>215</ele>
        <time>2021-05-15T10:30:34.000Z</time>
      </trkpt>
      <trkpt lat="49.81502" lon="4.84151">
        <ele>215</ele>
        <time>2021-05-15T10:30:35.000Z</time>
      </trkpt>
      <trkpt lat="49.81503" lon="4.84143">
        <ele>215</ele>
        <time>2021-05-15T10:30:36.000Z</time>
      </trkpt>
      <trkpt lat="49.81504" lon="4.84134">
        <ele>215</ele>
        <time>2021-05-15T10:30:37.000Z</time>
      </trkpt>
      <trkpt lat="49.81504" lon="4.84126">
        <ele>215</ele>
        <time>2021-05-15T10:30:38.000Z</time>
      </trkpt>
      <trkpt lat="49.81504" lon="4.84117">
        <ele>215</ele>
        <time>2021-05-15T10:30:39.000Z</time>
      </trkpt>
      <trkpt lat="49.81505" lon="4.84108">
        <ele>215</ele>
        <time>2021-05-15T10:30:40.000Z</time>
      </trkpt>
      <trkpt lat="49.81505" lon="4.84099">
        <ele>215</ele>
        <time>2021-05-15T10:30:41.000Z</time>
      </trkpt>
      <trkpt lat="49.81505" lon="4.84089">
        <ele>215</ele>
        <time>2021-05-15T10:30:42.000Z</time>
      </trkpt>
      <trkpt lat="49.81504" lon="4.8408">
        <ele>215</ele>
        <time>2021-05-15T10:30:43.000Z</time>
      </trkpt>
      <trkpt lat="49.81504" lon="4.84071">
        <ele>215</ele>
        <time>2021-05-15T10:30:44.000Z</time>
      </trkpt>
      <trkpt lat="49.81503" lon="4.84062">
        <ele>215</ele>
        <time>2021-05-15T10:30:45.000Z</time>
      </trkpt>
      <trkpt lat="49.81503" lon="4.84054">
        <ele>215</ele>
        <time>2021-05-15T10:30:46.000Z</time>
      </trkpt>
      <trkpt lat="49.81502" lon="4.84045">
        <ele>215</ele>
        <time>2021-05-15T10:30:47.000Z</time>
      </trkpt>
      <trkpt lat="49.81501" lon="4.84036">
        <ele>215</ele>
        <time>2021-05-15T10:30:48.000Z</time>
      </trkpt>
      <trkpt lat="49.815" lon="4.84028">
        <ele>215</ele>
        <time>2021-05-15T10:30:49.000Z</time>
      </trkpt>
      <trkpt lat="49.815" lon="4.8402">
        <ele>216</ele>
        <time>2021-05-15T10:30:50.000Z</time>
      </trkpt>
      <trkpt lat="49.81499" lon="4.84012">
        <ele>216</ele>
        <time>2021-05-15T10:30:51.000Z</time>
      </trkpt>
      <trkpt lat="49.81498" lon="4.84004">
        <ele>216</ele>
        <time>2021-05-15T10:30:52.000Z</time>
      </trkpt>
      <trkpt lat="49.81496" lon="4.83996">
        <ele>216</ele>
        <time>2021-05-15T10:30:53.000Z</time>
      </trkpt>
      <trkpt lat="49.81494" lon="4.83988">
        <ele>216</ele>
        <time>2021-05-15T10:30:54.000Z</time>
      </trkpt>
      <trkpt lat="49.81493" lon="4.83979">
        <ele>216</ele>
        <time>2021-05-15T10:30:55.000Z</time>
      </trkpt>
      <trkpt lat="49.81492" lon="4.8397">
        <ele>216</ele>
        <time>2021-05-15T10:30:56.000Z</time>
      </trkpt>
      <trkpt lat="49.81491" lon="4.83961">
        <ele>216</ele>
        <time>2021-05-15T10:30:57.000Z</time>
      </trkpt>
      <trkpt lat="49.81489" lon="4.83952">
        <ele>217</ele>
        <time>2021-05-15T10:30:58.000Z</time>
      </trkpt>
      <trkpt lat="49.81488" lon="4.83943">
        <ele>217</ele>
        <time>2021-05-15T10:30:59.000Z</time>
      </trkpt>
      <trkpt lat="49.81487" lon="4.83935">
        <ele>217</ele>
        <time>2021-05-15T10:31:00.000Z</time>
      </trkpt>
      <trkpt lat="49.81486" lon="4.83927">
        <ele>217</ele>
        <time>2021-05-15T10:31:01.000Z</time>
      </trkpt>
      <trkpt lat="49.81485" lon="4.8392">
        <ele>217</ele>
        <time>2021-05-15T10:31:02.000Z</time>
      </trkpt>
      <trkpt lat="49.81485" lon="4.83912">
        <ele>217</ele>
        <time>2021-05-15T10:31:03.000Z</time>
      </trkpt>
      <trkpt lat="49.81485" lon="4.83904">
        <ele>217</ele>
        <time>2021-05-15T10:31:04.000Z</time>
      </trkpt>
      <trkpt lat="49.81485" lon="4.83896">
        <ele>217</ele>
        <time>2021-05-15T10:31:05.000Z</time>
      </trkpt>
      <trkpt lat="49.81483" lon="4.83888">
        <ele>217</ele>
        <time>2021-05-15T10:31:06.000Z</time>
      </trkpt>
      <trkpt lat="49.81482" lon="4.8388">
        <ele>217</ele>
        <time>2021-05-15T10:31:07.000Z</time>
      </trkpt>
      <trkpt lat="49.81481" lon="4.83872">
        <ele>217</ele>
        <time>2021-05-15T10:31:08.000Z</time>
      </trkpt>
      <trkpt lat="49.81479" lon="4.83866">
        <ele>217</ele>
        <time>2021-05-15T10:31:09.000Z</time>
      </trkpt>
      <trkpt lat="49.81477" lon="4.83861">
        <ele>217</ele>
        <time>2021-05-15T10:31:10.000Z</time>
      </trkpt>
      <trkpt lat="49.81475" lon="4.83858">
        <ele>217</ele>
        <time>2021-05-15T10:31:11.000Z</time>
      </trkpt>
      <trkpt lat="49.81472" lon="4.83857">
        <ele>217</ele>
        <time>2021-05-15T10:31:12.000Z</time>
      </trkpt>
      <trkpt lat="49.8147" lon="4.83855">
        <ele>217</ele>
        <time>2021-05-15T10:31:13.000Z</time>
      </trkpt>
      <trkpt lat="49.81468" lon="4.83854">
        <ele>216</ele>
        <time>2021-05-15T10:31:14.000Z</time>
      </trkpt>
      <trkpt lat="49.81466" lon="4.83853">
        <ele>216</ele>
        <time>2021-05-15T10:31:15.000Z</time>
      </trkpt>
      <trkpt lat="49.81464" lon="4.83853">
        <ele>216</ele>
        <time>2021-05-15T10:31:16.000Z</time>
      </trkpt>
      <trkpt lat="49.81463" lon="4.83853">
        <ele>216</ele>
        <time>2021-05-15T10:31:17.000Z</time>
      </trkpt>
      <trkpt lat="49.81461" lon="4.83854">
        <ele>216</ele>
        <time>2021-05-15T10:31:18.000Z</time>
      </trkpt>
      <trkpt lat="49.8146" lon="4.83854">
        <ele>216</ele>
        <time>2021-05-15T10:31:19.000Z</time>
      </trkpt>
      <trkpt lat="49.81459" lon="4.83855">
        <ele>216</ele>
        <time>2021-05-15T10:31:20.000Z</time>
      </trkpt>
      <trkpt lat="49.81457" lon="4.83855">
        <ele>216</ele>
        <time>2021-05-15T10:31:21.000Z</time>
      </trkpt>
      <trkpt lat="49.81456" lon="4.83855">
        <ele>216</ele>
        <time>2021-05-15T10:31:22.000Z</time>
      </trkpt>
      <trkpt lat="49.81454" lon="4.83856">
        <ele>216</ele>
        <time>2021-05-15T10:31:23.000Z</time>
      </trkpt>
      <trkpt lat="49.81452" lon="4.83856">
        <ele>216</ele>
        <time>2021-05-15T10:31:24.000Z</time>
      </trkpt>
      <trkpt lat="49.8145" lon="4.83856">
        <ele>216</ele>
        <time>2021-05-15T10:31:25.000Z</time>
      </trkpt>
      <trkpt lat="49.81449" lon="4.83857">
        <ele>216</ele>
        <time>2021-05-15T10:31:26.000Z</time>
      </trkpt>
      <trkpt lat="49.81448" lon="4.83856">
        <ele>217</ele>
        <time>2021-05-15T10:31:27.000Z</time>
      </trkpt>
      <trkpt lat="49.81447" lon="4.83855">
        <ele>217</ele>
        <time>2021-05-15T10:31:28.000Z</time>
      </trkpt>
      <trkpt lat="49.81446" lon="4.83854">
        <ele>217</ele>
        <time>2021-05-15T10:31:29.000Z</time>
      </trkpt>
      <trkpt lat="49.81444" lon="4.83852">
        <ele>217</ele>
        <time>2021-05-15T10:31:30.000Z</time>
      </trkpt>
      <trkpt lat="49.81443" lon="4.8385">
        <ele>217</ele>
        <time>2021-05-15T10:31:31.000Z</time>
      </trkpt>
      <trkpt lat="49.81441" lon="4.83849">
        <ele>217</ele>
        <time>2021-05-15T10:31:32.000Z</time>
      </trkpt>
      <trkpt lat="49.81439" lon="4.83849">
        <ele>217</ele>
        <time>2021-05-15T10:31:33.000Z</time>
      </trkpt>
      <trkpt lat="49.81437" lon="4.83848">
        <ele>217</ele>
        <time>2021-05-15T10:31:34.000Z</time>
      </trkpt>
      <trkpt lat="49.81434" lon="4.83847">
        <ele>217</ele>
        <time>2021-05-15T10:31:35.000Z</time>
      </trkpt>
      <trkpt lat="49.81432" lon="4.83847">
        <ele>217</ele>
        <time>2021-05-15T10:31:36.000Z</time>
      </trkpt>
      <trkpt lat="49.81429" lon="4.83847">
        <ele>217</ele>
        <time>2021-05-15T10:31:37.000Z</time>
      </trkpt>
      <trkpt lat="49.81427" lon="4.83849">
        <ele>217</ele>
        <time>2021-05-15T10:31:38.000Z</time>
      </trkpt>
      <trkpt lat="49.81424" lon="4.8385">
        <ele>217</ele>
        <time>2021-05-15T10:31:39.000Z</time>
      </trkpt>
      <trkpt lat="49.81422" lon="4.83851">
        <ele>217</ele>
        <time>2021-05-15T10:31:40.000Z</time>
      </trkpt>
      <trkpt lat="49.81419" lon="4.83853">
        <ele>217</ele>
        <time>2021-05-15T10:31:41.000Z</time>
      </trkpt>
      <trkpt lat="49.81417" lon="4.83855">
        <ele>218</ele>
        <time>2021-05-15T10:31:42.000Z</time>
      </trkpt>
      <trkpt lat="49.81415" lon="4.83855">
        <ele>218</ele>
        <time>2021-05-15T10:31:43.000Z</time>
      </trkpt>
      <trkpt lat="49.81412" lon="4.83855">
        <ele>218</ele>
        <time>2021-05-15T10:31:44.000Z</time>
      </trkpt>
      <trkpt lat="49.81409" lon="4.83856">
        <ele>218</ele>
        <time>2021-05-15T10:31:45.000Z</time>
      </trkpt>
      <trkpt lat="49.81406" lon="4.83856">
        <ele>218</ele>
        <time>2021-05-15T10:31:46.000Z</time>
      </trkpt>
      <trkpt lat="49.81403" lon="4.83856">
        <ele>219</ele>
        <time>2021-05-15T10:31:47.000Z</time>
      </trkpt>
      <trkpt lat="49.814" lon="4.83856">
        <ele>219</ele>
        <time>2021-05-15T10:31:48.000Z</time>
      </trkpt>
      <trkpt lat="49.81397" lon="4.83856">
        <ele>219</ele>
        <time>2021-05-15T10:31:49.000Z</time>
      </trkpt>
      <trkpt lat="49.81393" lon="4.83855">
        <ele>219</ele>
        <time>2021-05-15T10:31:50.000Z</time>
      </trkpt>
      <trkpt lat="49.81389" lon="4.83854">
        <ele>219</ele>
        <time>2021-05-15T10:31:51.000Z</time>
      </trkpt>
      <trkpt lat="49.81385" lon="4.83853">
        <ele>219</ele>
        <time>2021-05-15T10:31:52.000Z</time>
      </trkpt>
      <trkpt lat="49.81381" lon="4.83854">
        <ele>219</ele>
        <time>2021-05-15T10:31:53.000Z</time>
      </trkpt>
      <trkpt lat="49.81377" lon="4.83854">
        <ele>219</ele>
        <time>2021-05-15T10:31:54.000Z</time>
      </trkpt>
      <trkpt lat="49.81372" lon="4.83854">
        <ele>220</ele>
        <time>2021-05-15T10:31:55.000Z</time>
      </trkpt>
      <trkpt lat="49.81367" lon="4.83853">
        <ele>220</ele>
        <time>2021-05-15T10:31:56.000Z</time>
      </trkpt>
      <trkpt lat="49.81362" lon="4.83852">
        <ele>220</ele>
        <time>2021-05-15T10:31:57.000Z</time>
      </trkpt>
      <trkpt lat="49.81357" lon="4.83851">
        <ele>220</ele>
        <time>2021-05-15T10:31:58.000Z</time>
      </trkpt>
      <trkpt lat="49.81352" lon="4.83849">
        <ele>220</ele>
        <time>2021-05-15T10:31:59.000Z</time>
      </trkpt>
      <trkpt lat="49.81347" lon="4.83848">
        <ele>220</ele>
        <time>2021-05-15T10:32:00.000Z</time>
      </trkpt>
      <trkpt lat="49.81342" lon="4.83847">
        <ele>221</ele>
        <time>2021-05-15T10:32:01.000Z</time>
      </trkpt>
      <trkpt lat="49.81337" lon="4.83845">
        <ele>221</ele>
        <time>2021-05-15T10:32:02.000Z</time>
      </trkpt>
      <trkpt lat="49.81331" lon="4.83844">
        <ele>221</ele>
        <time>2021-05-15T10:32:03.000Z</time>
      </trkpt>
      <trkpt lat="49.81325" lon="4.83845">
        <ele>221</ele>
        <time>2021-05-15T10:32:04.000Z</time>
      </trkpt>
      <trkpt lat="49.8132" lon="4.83847">
        <ele>221</ele>
        <time>2021-05-15T10:32:05.000Z</time>
      </trkpt>
      <trkpt lat="49.81315" lon="4.83852">
        <ele>221</ele>
        <time>2021-05-15T10:32:06.000Z</time>
      </trkpt>
      <trkpt lat="49.81311" lon="4.83856">
        <ele>221</ele>
        <time>2021-05-15T10:32:07.000Z</time>
      </trkpt>
      <trkpt lat="49.81309" lon="4.8386">
        <ele>221</ele>
        <time>2021-05-15T10:32:08.000Z</time>
      </trkpt>
      <trkpt lat="49.81306" lon="4.83863">
        <ele>221</ele>
        <time>2021-05-15T10:32:09.000Z</time>
      </trkpt>
      <trkpt lat="49.81304" lon="4.83866">
        <ele>221</ele>
        <time>2021-05-15T10:32:10.000Z</time>
      </trkpt>
      <trkpt lat="49.81301" lon="4.83867">
        <ele>221</ele>
        <time>2021-05-15T10:32:11.000Z</time>
      </trkpt>
      <trkpt lat="49.81299" lon="4.83868">
        <ele>222</ele>
        <time>2021-05-15T10:32:12.000Z</time>
      </trkpt>
      <trkpt lat="49.81298" lon="4.83869">
        <ele>222</ele>
        <time>2021-05-15T10:32:13.000Z</time>
      </trkpt>
      <trkpt lat="49.81295" lon="4.83871">
        <ele>222</ele>
        <time>2021-05-15T10:32:14.000Z</time>
      </trkpt>
      <trkpt lat="49.81293" lon="4.83873">
        <ele>222</ele>
        <time>2021-05-15T10:32:15.000Z</time>
      </trkpt>
      <trkpt lat="49.81289" lon="4.83874">
        <ele>222</ele>
        <time>2021-05-15T10:32:16.000Z</time>
      </trkpt>
      <trkpt lat="49.81286" lon="4.83875">
        <ele>222</ele>
        <time>2021-05-15T10:32:17.000Z</time>
      </trkpt>
      <trkpt lat="49.81283" lon="4.83875">
        <ele>222</ele>
        <time>2021-05-15T10:32:18.000Z</time>
      </trkpt>
      <trkpt lat="49.8128" lon="4.83876">
        <ele>223</ele>
        <time>2021-05-15T10:32:19.000Z</time>
      </trkpt>
      <trkpt lat="49.81277" lon="4.83878">
        <ele>223</ele>
        <time>2021-05-15T10:32:20.000Z</time>
      </trkpt>
      <trkpt lat="49.81273" lon="4.83879">
        <ele>223</ele>
        <time>2021-05-15T10:32:21.000Z</time>
      </trkpt>
      <trkpt lat="49.8127" lon="4.83881">
        <ele>223</ele>
        <time>2021-05-15T10:32:22.000Z</time>
      </trkpt>
      <trkpt lat="49.81266" lon="4.83882">
        <ele>223</ele>
        <time>2021-05-15T10:32:23.000Z</time>
      </trkpt>
      <trkpt lat="49.81262" lon="4.83883">
        <ele>223</ele>
        <time>2021-05-15T10:32:24.000Z</time>
      </trkpt>
      <trkpt lat="49.81258" lon="4.83884">
        <ele>224</ele>
        <time>2021-05-15T10:32:25.000Z</time>
      </trkpt>
      <trkpt lat="49.81253" lon="4.83885">
        <ele>224</ele>
        <time>2021-05-15T10:32:26.000Z</time>
      </trkpt>
      <trkpt lat="49.81249" lon="4.83886">
        <ele>224</ele>
        <time>2021-05-15T10:32:27.000Z</time>
      </trkpt>
      <trkpt lat="49.81244" lon="4.83886">
        <ele>224</ele>
        <time>2021-05-15T10:32:28.000Z</time>
      </trkpt>
      <trkpt lat="49.8124" lon="4.83886">
        <ele>224</ele>
        <time>2021-05-15T10:32:29.000Z</time>
      </trkpt>
      <trkpt lat="49.81236" lon="4.83887">
        <ele>224</ele>
        <time>2021-05-15T10:32:30.000Z</time>
      </trkpt>
      <trkpt lat="49.81233" lon="4.83888">
        <ele>224</ele>
        <time>2021-05-15T10:32:31.000Z</time>
      </trkpt>
      <trkpt lat="49.81229" lon="4.83889">
        <ele>225</ele>
        <time>2021-05-15T10:32:32.000Z</time>
      </trkpt>
      <trkpt lat="49.81226" lon="4.83889">
        <ele>225</ele>
        <time>2021-05-15T10:32:33.000Z</time>
      </trkpt>
      <trkpt lat="49.81222" lon="4.8389">
        <ele>225</ele>
        <time>2021-05-15T10:32:34.000Z</time>
      </trkpt>
      <trkpt lat="49.81218" lon="4.8389">
        <ele>225</ele>
        <time>2021-05-15T10:32:35.000Z</time>
      </trkpt>
      <trkpt lat="49.81214" lon="4.8389">
        <ele>225</ele>
        <time>2021-05-15T10:32:36.000Z</time>
      </trkpt>
      <trkpt lat="49.81209" lon="4.8389">
        <ele>225</ele>
        <time>2021-05-15T10:32:37.000Z</time>
      </trkpt>
      <trkpt lat="49.81205" lon="4.8389">
        <ele>225</ele>
        <time>2021-05-15T10:32:38.000Z</time>
      </trkpt>
      <trkpt lat="49.812" lon="4.8389">
        <ele>225</ele>
        <time>2021-05-15T10:32:39.000Z</time>
      </trkpt>
      <trkpt lat="49.81195" lon="4.8389">
        <ele>225</ele>
        <time>2021-05-15T10:32:40.000Z</time>
      </trkpt>
      <trkpt lat="49.81191" lon="4.8389">
        <ele>225</ele>
        <time>2021-05-15T10:32:41.000Z</time>
      </trkpt>
      <trkpt lat="49.81187" lon="4.83891">
        <ele>225</ele>
        <time>2021-05-15T10:32:42.000Z</time>
      </trkpt>
      <trkpt lat="49.81183" lon="4.83892">
        <ele>225</ele>
        <time>2021-05-15T10:32:43.000Z</time>
      </trkpt>
      <trkpt lat="49.81179" lon="4.83892">
        <ele>225</ele>
        <time>2021-05-15T10:32:44.000Z</time>
      </trkpt>
      <trkpt lat="49.81174" lon="4.83893">
        <ele>225</ele>
        <time>2021-05-15T10:32:45.000Z</time>
      </trkpt>
      <trkpt lat="49.81169" lon="4.83893">
        <ele>225</ele>
        <time>2021-05-15T10:32:46.000Z</time>
      </trkpt>
      <trkpt lat="49.81165" lon="4.83894">
        <ele>225</ele>
        <time>2021-05-15T10:32:47.000Z</time>
      </trkpt>
      <trkpt lat="49.81159" lon="4.83894">
        <ele>224</ele>
        <time>2021-05-15T10:32:48.000Z</time>
      </trkpt>
      <trkpt lat="49.81154" lon="4.83895">
        <ele>224</ele>
        <time>2021-05-15T10:32:49.000Z</time>
      </trkpt>
      <trkpt lat="49.8115" lon="4.83896">
        <ele>224</ele>
        <time>2021-05-15T10:32:50.000Z</time>
      </trkpt>
      <trkpt lat="49.81146" lon="4.83897">
        <ele>224</ele>
        <time>2021-05-15T10:32:51.000Z</time>
      </trkpt>
      <trkpt lat="49.81142" lon="4.83898">
        <ele>224</ele>
        <time>2021-05-15T10:32:52.000Z</time>
      </trkpt>
      <trkpt lat="49.81138" lon="4.83899">
        <ele>224</ele>
        <time>2021-05-15T10:32:53.000Z</time>
      </trkpt>
      <trkpt lat="49.81133" lon="4.839">
        <ele>224</ele>
        <time>2021-05-15T10:32:54.000Z</time>
      </trkpt>
      <trkpt lat="49.81128" lon="4.83899">
        <ele>224</ele>
        <time>2021-05-15T10:32:55.000Z</time>
      </trkpt>
      <trkpt lat="49.81122" lon="4.83898">
        <ele>224</ele>
        <time>2021-05-15T10:32:56.000Z</time>
      </trkpt>
      <trkpt lat="49.81116" lon="4.83897">
        <ele>224</ele>
        <time>2021-05-15T10:32:57.000Z</time>
      </trkpt>
      <trkpt lat="49.81111" lon="4.83897">
        <ele>224</ele>
        <time>2021-05-15T10:32:58.000Z</time>
      </trkpt>
      <trkpt lat="49.81105" lon="4.83895">
        <ele>223</ele>
        <time>2021-05-15T10:32:59.000Z</time>
      </trkpt>
      <trkpt lat="49.81099" lon="4.83895">
        <ele>223</ele>
        <time>2021-05-15T10:33:00.000Z</time>
      </trkpt>
      <trkpt lat="49.81092" lon="4.83893">
        <ele>223</ele>
        <time>2021-05-15T10:33:01.000Z</time>
      </trkpt>
      <trkpt lat="49.81085" lon="4.83892">
        <ele>223</ele>
        <time>2021-05-15T10:33:02.000Z</time>
      </trkpt>
      <trkpt lat="49.81078" lon="4.83891">
        <ele>223</ele>
        <time>2021-05-15T10:33:03.000Z</time>
      </trkpt>
      <trkpt lat="49.81072" lon="4.83889">
        <ele>223</ele>
        <time>2021-05-15T10:33:04.000Z</time>
      </trkpt>
      <trkpt lat="49.81066" lon="4.83887">
        <ele>223</ele>
        <time>2021-05-15T10:33:05.000Z</time>
      </trkpt>
      <trkpt lat="49.8106" lon="4.83886">
        <ele>223</ele>
        <time>2021-05-15T10:33:06.000Z</time>
      </trkpt>
      <trkpt lat="49.81054" lon="4.83886">
        <ele>223</ele>
        <time>2021-05-15T10:33:07.000Z</time>
      </trkpt>
      <trkpt lat="49.81049" lon="4.83886">
        <ele>223</ele>
        <time>2021-05-15T10:33:08.000Z</time>
      </trkpt>
      <trkpt lat="49.81044" lon="4.83887">
        <ele>223</ele>
        <time>2021-05-15T10:33:09.000Z</time>
      </trkpt>
      <trkpt lat="49.81039" lon="4.83887">
        <ele>223</ele>
        <time>2021-05-15T10:33:10.000Z</time>
      </trkpt>
      <trkpt lat="49.81034" lon="4.83888">
        <ele>223</ele>
        <time>2021-05-15T10:33:11.000Z</time>
      </trkpt>
      <trkpt lat="49.8103" lon="4.83888">
        <ele>223</ele>
        <time>2021-05-15T10:33:12.000Z</time>
      </trkpt>
      <trkpt lat="49.81026" lon="4.83889">
        <ele>223</ele>
        <time>2021-05-15T10:33:13.000Z</time>
      </trkpt>
      <trkpt lat="49.81021" lon="4.83889">
        <ele>223</ele>
        <time>2021-05-15T10:33:14.000Z</time>
      </trkpt>
      <trkpt lat="49.81017" lon="4.8389">
        <ele>223</ele>
        <time>2021-05-15T10:33:15.000Z</time>
      </trkpt>
      <trkpt lat="49.81013" lon="4.8389">
        <ele>223</ele>
        <time>2021-05-15T10:33:16.000Z</time>
      </trkpt>
      <trkpt lat="49.81009" lon="4.8389">
        <ele>223</ele>
        <time>2021-05-15T10:33:17.000Z</time>
      </trkpt>
      <trkpt lat="49.81006" lon="4.8389">
        <ele>223</ele>
        <time>2021-05-15T10:33:18.000Z</time>
      </trkpt>
      <trkpt lat="49.81002" lon="4.83891">
        <ele>223</ele>
        <time>2021-05-15T10:33:19.000Z</time>
      </trkpt>
      <trkpt lat="49.80997" lon="4.83891">
        <ele>223</ele>
        <time>2021-05-15T10:33:20.000Z</time>
      </trkpt>
      <trkpt lat="49.80992" lon="4.83891">
        <ele>223</ele>
        <time>2021-05-15T10:33:21.000Z</time>
      </trkpt>
      <trkpt lat="49.80986" lon="4.83891">
        <ele>224</ele>
        <time>2021-05-15T10:33:22.000Z</time>
      </trkpt>
      <trkpt lat="49.80981" lon="4.83891">
        <ele>224</ele>
        <time>2021-05-15T10:33:23.000Z</time>
      </trkpt>
      <trkpt lat="49.80975" lon="4.83891">
        <ele>224</ele>
        <time>2021-05-15T10:33:24.000Z</time>
      </trkpt>
      <trkpt lat="49.80969" lon="4.83891">
        <ele>224</ele>
        <time>2021-05-15T10:33:25.000Z</time>
      </trkpt>
      <trkpt lat="49.80964" lon="4.8389">
        <ele>224</ele>
        <time>2021-05-15T10:33:26.000Z</time>
      </trkpt>
      <trkpt lat="49.80959" lon="4.83889">
        <ele>224</ele>
        <time>2021-05-15T10:33:27.000Z</time>
      </trkpt>
      <trkpt lat="49.80954" lon="4.83889">
        <ele>225</ele>
        <time>2021-05-15T10:33:28.000Z</time>
      </trkpt>
      <trkpt lat="49.80948" lon="4.83889">
        <ele>225</ele>
        <time>2021-05-15T10:33:29.000Z</time>
      </trkpt>
      <trkpt lat="49.80942" lon="4.83889">
        <ele>225</ele>
        <time>2021-05-15T10:33:30.000Z</time>
      </trkpt>
      <trkpt lat="49.80936" lon="4.8389">
        <ele>225</ele>
        <time>2021-05-15T10:33:31.000Z</time>
      </trkpt>
      <trkpt lat="49.8093" lon="4.8389">
        <ele>225</ele>
        <time>2021-05-15T10:33:32.000Z</time>
      </trkpt>
      <trkpt lat="49.80924" lon="4.8389">
        <ele>225</ele>
        <time>2021-05-15T10:33:33.000Z</time>
      </trkpt>
      <trkpt lat="49.80918" lon="4.8389">
        <ele>225</ele>
        <time>2021-05-15T10:33:34.000Z</time>
      </trkpt>
      <trkpt lat="49.80912" lon="4.8389">
        <ele>226</ele>
        <time>2021-05-15T10:33:35.000Z</time>
      </trkpt>
      <trkpt lat="49.80906" lon="4.8389">
        <ele>226</ele>
        <time>2021-05-15T10:33:36.000Z</time>
      </trkpt>
      <trkpt lat="49.809" lon="4.83891">
        <ele>226</ele>
        <time>2021-05-15T10:33:37.000Z</time>
      </trkpt>
      <trkpt lat="49.80893" lon="4.83892">
        <ele>226</ele>
        <time>2021-05-15T10:33:38.000Z</time>
      </trkpt>
      <trkpt lat="49.80887" lon="4.83894">
        <ele>226</ele>
        <time>2021-05-15T10:33:39.000Z</time>
      </trkpt>
      <trkpt lat="49.80881" lon="4.83895">
        <ele>226</ele>
        <time>2021-05-15T10:33:40.000Z</time>
      </trkpt>
      <trkpt lat="49.80874" lon="4.83896">
        <ele>226</ele>
        <time>2021-05-15T10:33:41.000Z</time>
      </trkpt>
      <trkpt lat="49.80867" lon="4.83896">
        <ele>226</ele>
        <time>2021-05-15T10:33:42.000Z</time>
      </trkpt>
      <trkpt lat="49.8086" lon="4.83897">
        <ele>226</ele>
        <time>2021-05-15T10:33:43.000Z</time>
      </trkpt>
      <trkpt lat="49.80854" lon="4.83896">
        <ele>226</ele>
        <time>2021-05-15T10:33:44.000Z</time>
      </trkpt>
      <trkpt lat="49.80848" lon="4.83896">
        <ele>226</ele>
        <time>2021-05-15T10:33:45.000Z</time>
      </trkpt>
      <trkpt lat="49.80842" lon="4.83896">
        <ele>225</ele>
        <time>2021-05-15T10:33:46.000Z</time>
      </trkpt>
      <trkpt lat="49.80836" lon="4.83896">
        <ele>225</ele>
        <time>2021-05-15T10:33:47.000Z</time>
      </trkpt>
      <trkpt lat="49.80829" lon="4.83895">
        <ele>225</ele>
        <time>2021-05-15T10:33:48.000Z</time>
      </trkpt>
      <trkpt lat="49.80823" lon="4.83893">
        <ele>225</ele>
        <time>2021-05-15T10:33:49.000Z</time>
      </trkpt>
      <trkpt lat="49.80817" lon="4.83892">
        <ele>224</ele>
        <time>2021-05-15T10:33:50.000Z</time>
      </trkpt>
      <trkpt lat="49.80811" lon="4.83893">
        <ele>224</ele>
        <time>2021-05-15T10:33:51.000Z</time>
      </trkpt>
      <trkpt lat="49.80805" lon="4.83894">
        <ele>224</ele>
        <time>2021-05-15T10:33:52.000Z</time>
      </trkpt>
      <trkpt lat="49.80799" lon="4.83895">
        <ele>223</ele>
        <time>2021-05-15T10:33:53.000Z</time>
      </trkpt>
      <trkpt lat="49.80794" lon="4.83896">
        <ele>223</ele>
        <time>2021-05-15T10:33:54.000Z</time>
      </trkpt>
      <trkpt lat="49.80788" lon="4.83897">
        <ele>223</ele>
        <time>2021-05-15T10:33:55.000Z</time>
      </trkpt>
      <trkpt lat="49.80783" lon="4.83897">
        <ele>223</ele>
        <time>2021-05-15T10:33:56.000Z</time>
      </trkpt>
      <trkpt lat="49.80778" lon="4.83898">
        <ele>223</ele>
        <time>2021-05-15T10:33:57.000Z</time>
      </trkpt>
      <trkpt lat="49.80773" lon="4.83899">
        <ele>222</ele>
        <time>2021-05-15T10:33:58.000Z</time>
      </trkpt>
      <trkpt lat="49.80768" lon="4.83902">
        <ele>222</ele>
        <time>2021-05-15T10:33:59.000Z</time>
      </trkpt>
      <trkpt lat="49.80763" lon="4.83903">
        <ele>222</ele>
        <time>2021-05-15T10:34:00.000Z</time>
      </trkpt>
      <trkpt lat="49.80758" lon="4.83904">
        <ele>222</ele>
        <time>2021-05-15T10:34:01.000Z</time>
      </trkpt>
      <trkpt lat="49.80753" lon="4.83905">
        <ele>222</ele>
        <time>2021-05-15T10:34:02.000Z</time>
      </trkpt>
      <trkpt lat="49.80749" lon="4.83907">
        <ele>222</ele>
        <time>2021-05-15T10:34:03.000Z</time>
      </trkpt>
      <trkpt lat="49.80744" lon="4.83908">
        <ele>222</ele>
        <time>2021-05-15T10:34:04.000Z</time>
      </trkpt>
      <trkpt lat="49.8074" lon="4.8391">
        <ele>222</ele>
        <time>2021-05-15T10:34:05.000Z</time>
      </trkpt>
      <trkpt lat="49.80736" lon="4.83911">
        <ele>222</ele>
        <time>2021-05-15T10:34:06.000Z</time>
      </trkpt>
      <trkpt lat="49.80731" lon="4.83913">
        <ele>222</ele>
        <time>2021-05-15T10:34:07.000Z</time>
      </trkpt>
      <trkpt lat="49.80726" lon="4.83914">
        <ele>222</ele>
        <time>2021-05-15T10:34:08.000Z</time>
      </trkpt>
      <trkpt lat="49.80721" lon="4.83916">
        <ele>222</ele>
        <time>2021-05-15T10:34:09.000Z</time>
      </trkpt>
      <trkpt lat="49.80716" lon="4.83917">
        <ele>222</ele>
        <time>2021-05-15T10:34:10.000Z</time>
      </trkpt>
      <trkpt lat="49.80711" lon="4.83918">
        <ele>222</ele>
        <time>2021-05-15T10:34:11.000Z</time>
      </trkpt>
      <trkpt lat="49.80707" lon="4.83919">
        <ele>222</ele>
        <time>2021-05-15T10:34:12.000Z</time>
      </trkpt>
      <trkpt lat="49.80703" lon="4.8392">
        <ele>221</ele>
        <time>2021-05-15T10:34:13.000Z</time>
      </trkpt>
      <trkpt lat="49.80699" lon="4.83921">
        <ele>221</ele>
        <time>2021-05-15T10:34:14.000Z</time>
      </trkpt>
      <trkpt lat="49.80696" lon="4.83922">
        <ele>221</ele>
        <time>2021-05-15T10:34:15.000Z</time>
      </trkpt>
      <trkpt lat="49.80693" lon="4.83923">
        <ele>221</ele>
        <time>2021-05-15T10:34:16.000Z</time>
      </trkpt>
      <trkpt lat="49.8069" lon="4.83923">
        <ele>221</ele>
        <time>2021-05-15T10:34:17.000Z</time>
      </trkpt>
      <trkpt lat="49.80688" lon="4.83924">
        <ele>221</ele>
        <time>2021-05-15T10:34:18.000Z</time>
      </trkpt>
      <trkpt lat="49.80685" lon="4.83925">
        <ele>221</ele>
        <time>2021-05-15T10:34:19.000Z</time>
      </trkpt>
      <trkpt lat="49.80683" lon="4.83926">
        <ele>221</ele>
        <time>2021-05-15T10:34:20.000Z</time>
      </trkpt>
      <trkpt lat="49.8068" lon="4.83927">
        <ele>221</ele>
        <time>2021-05-15T10:34:21.000Z</time>
      </trkpt>
      <trkpt lat="49.80676" lon="4.83929">
        <ele>221</ele>
        <time>2021-05-15T10:34:22.000Z</time>
      </trkpt>
      <trkpt lat="49.80672" lon="4.8393">
        <ele>221</ele>
        <time>2021-05-15T10:34:23.000Z</time>
      </trkpt>
      <trkpt lat="49.80668" lon="4.83929">
        <ele>221</ele>
        <time>2021-05-15T10:34:24.000Z</time>
      </trkpt>
      <trkpt lat="49.80663" lon="4.8393">
        <ele>221</ele>
        <time>2021-05-15T10:34:25.000Z</time>
      </trkpt>
      <trkpt lat="49.80659" lon="4.83931">
        <ele>221</ele>
        <time>2021-05-15T10:34:26.000Z</time>
      </trkpt>
      <trkpt lat="49.80654" lon="4.83932">
        <ele>221</ele>
        <time>2021-05-15T10:34:27.000Z</time>
      </trkpt>
      <trkpt lat="49.8065" lon="4.83934">
        <ele>221</ele>
        <time>2021-05-15T10:34:28.000Z</time>
      </trkpt>
      <trkpt lat="49.80646" lon="4.83936">
        <ele>221</ele>
        <time>2021-05-15T10:34:29.000Z</time>
      </trkpt>
      <trkpt lat="49.80641" lon="4.83937">
        <ele>221</ele>
        <time>2021-05-15T10:34:30.000Z</time>
      </trkpt>
      <trkpt lat="49.80636" lon="4.83939">
        <ele>221</ele>
        <time>2021-05-15T10:34:31.000Z</time>
      </trkpt>
      <trkpt lat="49.80631" lon="4.8394">
        <ele>221</ele>
        <time>2021-05-15T10:34:32.000Z</time>
      </trkpt>
      <trkpt lat="49.80626" lon="4.83941">
        <ele>221</ele>
        <time>2021-05-15T10:34:33.000Z</time>
      </trkpt>
      <trkpt lat="49.80622" lon="4.83942">
        <ele>222</ele>
        <time>2021-05-15T10:34:34.000Z</time>
      </trkpt>
      <trkpt lat="49.80617" lon="4.83943">
        <ele>222</ele>
        <time>2021-05-15T10:34:35.000Z</time>
      </trkpt>
      <trkpt lat="49.80613" lon="4.83944">
        <ele>222</ele>
        <time>2021-05-15T10:34:36.000Z</time>
      </trkpt>
      <trkpt lat="49.80608" lon="4.83945">
        <ele>222</ele>
        <time>2021-05-15T10:34:37.000Z</time>
      </trkpt>
      <trkpt lat="49.80603" lon="4.83946">
        <ele>222</ele>
        <time>2021-05-15T10:34:38.000Z</time>
      </trkpt>
      <trkpt lat="49.80598" lon="4.83948">
        <ele>222</ele>
        <time>2021-05-15T10:34:39.000Z</time>
      </trkpt>
      <trkpt lat="49.80594" lon="4.83949">
        <ele>221</ele>
        <time>2021-05-15T10:34:40.000Z</time>
      </trkpt>
      <trkpt lat="49.8059" lon="4.83949">
        <ele>221</ele>
        <time>2021-05-15T10:34:41.000Z</time>
      </trkpt>
      <trkpt lat="49.80586" lon="4.83949">
        <ele>221</ele>
        <time>2021-05-15T10:34:42.000Z</time>
      </trkpt>
      <trkpt lat="49.80582" lon="4.8395">
        <ele>221</ele>
        <time>2021-05-15T10:34:43.000Z</time>
      </trkpt>
      <trkpt lat="49.80578" lon="4.8395">
        <ele>221</ele>
        <time>2021-05-15T10:34:44.000Z</time>
      </trkpt>
      <trkpt lat="49.80573" lon="4.83951">
        <ele>221</ele>
        <time>2021-05-15T10:34:45.000Z</time>
      </trkpt>
      <trkpt lat="49.80569" lon="4.83951">
        <ele>221</ele>
        <time>2021-05-15T10:34:46.000Z</time>
      </trkpt>
      <trkpt lat="49.80565" lon="4.83951">
        <ele>221</ele>
        <time>2021-05-15T10:34:47.000Z</time>
      </trkpt>
      <trkpt lat="49.8056" lon="4.83952">
        <ele>221</ele>
        <time>2021-05-15T10:34:48.000Z</time>
      </trkpt>
      <trkpt lat="49.80556" lon="4.83952">
        <ele>221</ele>
        <time>2021-05-15T10:34:49.000Z</time>
      </trkpt>
      <trkpt lat="49.80551" lon="4.83952">
        <ele>221</ele>
        <time>2021-05-15T10:34:50.000Z</time>
      </trkpt>
      <trkpt lat="49.80546" lon="4.83953">
        <ele>221</ele>
        <time>2021-05-15T10:34:51.000Z</time>
      </trkpt>
      <trkpt lat="49.80542" lon="4.83953">
        <ele>221</ele>
        <time>2021-05-15T10:34:52.000Z</time>
      </trkpt>
      <trkpt lat="49.80537" lon="4.83954">
        <ele>222</ele>
        <time>2021-05-15T10:34:53.000Z</time>
      </trkpt>
      <trkpt lat="49.80533" lon="4.83954">
        <ele>222</ele>
        <time>2021-05-15T10:34:54.000Z</time>
      </trkpt>
      <trkpt lat="49.80529" lon="4.83954">
        <ele>222</ele>
        <time>2021-05-15T10:34:55.000Z</time>
      </trkpt>
      <trkpt lat="49.80526" lon="4.83955">
        <ele>222</ele>
        <time>2021-05-15T10:34:56.000Z</time>
      </trkpt>
      <trkpt lat="49.80522" lon="4.83956">
        <ele>221</ele>
        <time>2021-05-15T10:34:57.000Z</time>
      </trkpt>
      <trkpt lat="49.8052" lon="4.83957">
        <ele>221</ele>
        <time>2021-05-15T10:34:58.000Z</time>
      </trkpt>
      <trkpt lat="49.80517" lon="4.83957">
        <ele>221</ele>
        <time>2021-05-15T10:34:59.000Z</time>
      </trkpt>
      <trkpt lat="49.80514" lon="4.83957">
        <ele>221</ele>
        <time>2021-05-15T10:35:00.000Z</time>
      </trkpt>
      <trkpt lat="49.80512" lon="4.83957">
        <ele>221</ele>
        <time>2021-05-15T10:35:01.000Z</time>
      </trkpt>
      <trkpt lat="49.80509" lon="4.83958">
        <ele>221</ele>
        <time>2021-05-15T10:35:02.000Z</time>
      </trkpt>
      <trkpt lat="49.80507" lon="4.83958">
        <ele>221</ele>
        <time>2021-05-15T10:35:03.000Z</time>
      </trkpt>
      <trkpt lat="49.80504" lon="4.83957">
        <ele>221</ele>
        <time>2021-05-15T10:35:04.000Z</time>
      </trkpt>
      <trkpt lat="49.80501" lon="4.83955">
        <ele>221</ele>
        <time>2021-05-15T10:35:05.000Z</time>
      </trkpt>
      <trkpt lat="49.80499" lon="4.83952">
        <ele>221</ele>
        <time>2021-05-15T10:35:06.000Z</time>
      </trkpt>
      <trkpt lat="49.80496" lon="4.83949">
        <ele>221</ele>
        <time>2021-05-15T10:35:07.000Z</time>
      </trkpt>
      <trkpt lat="49.80493" lon="4.83945">
        <ele>221</ele>
        <time>2021-05-15T10:35:08.000Z</time>
      </trkpt>
      <trkpt lat="49.80489" lon="4.8394">
        <ele>220</ele>
        <time>2021-05-15T10:35:09.000Z</time>
      </trkpt>
      <trkpt lat="49.80486" lon="4.83936">
        <ele>220</ele>
        <time>2021-05-15T10:35:10.000Z</time>
      </trkpt>
      <trkpt lat="49.80481" lon="4.83931">
        <ele>220</ele>
        <time>2021-05-15T10:35:11.000Z</time>
      </trkpt>
      <trkpt lat="49.80477" lon="4.83926">
        <ele>220</ele>
        <time>2021-05-15T10:35:12.000Z</time>
      </trkpt>
      <trkpt lat="49.80472" lon="4.83922">
        <ele>220</ele>
        <time>2021-05-15T10:35:13.000Z</time>
      </trkpt>
      <trkpt lat="49.80467" lon="4.83918">
        <ele>220</ele>
        <time>2021-05-15T10:35:14.000Z</time>
      </trkpt>
      <trkpt lat="49.80462" lon="4.83916">
        <ele>220</ele>
        <time>2021-05-15T10:35:15.000Z</time>
      </trkpt>
      <trkpt lat="49.80457" lon="4.83913">
        <ele>219</ele>
        <time>2021-05-15T10:35:16.000Z</time>
      </trkpt>
      <trkpt lat="49.80453" lon="4.83911">
        <ele>219</ele>
        <time>2021-05-15T10:35:17.000Z</time>
      </trkpt>
      <trkpt lat="49.80449" lon="4.8391">
        <ele>219</ele>
        <time>2021-05-15T10:35:18.000Z</time>
      </trkpt>
      <trkpt lat="49.80445" lon="4.83908">
        <ele>219</ele>
        <time>2021-05-15T10:35:19.000Z</time>
      </trkpt>
      <trkpt lat="49.80441" lon="4.83905">
        <ele>219</ele>
        <time>2021-05-15T10:35:20.000Z</time>
      </trkpt>
      <trkpt lat="49.80437" lon="4.83902">
        <ele>219</ele>
        <time>2021-05-15T10:35:21.000Z</time>
      </trkpt>
      <trkpt lat="49.80434" lon="4.83899">
        <ele>219</ele>
        <time>2021-05-15T10:35:22.000Z</time>
      </trkpt>
      <trkpt lat="49.8043" lon="4.83896">
        <ele>219</ele>
        <time>2021-05-15T10:35:23.000Z</time>
      </trkpt>
      <trkpt lat="49.80425" lon="4.83893">
        <ele>219</ele>
        <time>2021-05-15T10:35:24.000Z</time>
      </trkpt>
      <trkpt lat="49.80421" lon="4.83889">
        <ele>219</ele>
        <time>2021-05-15T10:35:25.000Z</time>
      </trkpt>
      <trkpt lat="49.80416" lon="4.83885">
        <ele>218</ele>
        <time>2021-05-15T10:35:26.000Z</time>
      </trkpt>
      <trkpt lat="49.80412" lon="4.83881">
        <ele>218</ele>
        <time>2021-05-15T10:35:27.000Z</time>
      </trkpt>
      <trkpt lat="49.80408" lon="4.83876">
        <ele>218</ele>
        <time>2021-05-15T10:35:28.000Z</time>
      </trkpt>
      <trkpt lat="49.80404" lon="4.8387">
        <ele>218</ele>
        <time>2021-05-15T10:35:29.000Z</time>
      </trkpt>
      <trkpt lat="49.80399" lon="4.83866">
        <ele>218</ele>
        <time>2021-05-15T10:35:30.000Z</time>
      </trkpt>
      <trkpt lat="49.80395" lon="4.83864">
        <ele>219</ele>
        <time>2021-05-15T10:35:31.000Z</time>
      </trkpt>
      <trkpt lat="49.80391" lon="4.83863">
        <ele>219</ele>
        <time>2021-05-15T10:35:32.000Z</time>
      </trkpt>
      <trkpt lat="49.80387" lon="4.83863">
        <ele>219</ele>
        <time>2021-05-15T10:35:33.000Z</time>
      </trkpt>
      <trkpt lat="49.80384" lon="4.83862">
        <ele>219</ele>
        <time>2021-05-15T10:35:34.000Z</time>
      </trkpt>
      <trkpt lat="49.80379" lon="4.83862">
        <ele>219</ele>
        <time>2021-05-15T10:35:35.000Z</time>
      </trkpt>
      <trkpt lat="49.80374" lon="4.83861">
        <ele>219</ele>
        <time>2021-05-15T10:35:36.000Z</time>
      </trkpt>
      <trkpt lat="49.80369" lon="4.8386">
        <ele>219</ele>
        <time>2021-05-15T10:35:37.000Z</time>
      </trkpt>
      <trkpt lat="49.80365" lon="4.83859">
        <ele>219</ele>
        <time>2021-05-15T10:35:38.000Z</time>
      </trkpt>
      <trkpt lat="49.8036" lon="4.83859">
        <ele>219</ele>
        <time>2021-05-15T10:35:39.000Z</time>
      </trkpt>
      <trkpt lat="49.80355" lon="4.83858">
        <ele>218</ele>
        <time>2021-05-15T10:35:40.000Z</time>
      </trkpt>
      <trkpt lat="49.80351" lon="4.83857">
        <ele>219</ele>
        <time>2021-05-15T10:35:41.000Z</time>
      </trkpt>
      <trkpt lat="49.80346" lon="4.83856">
        <ele>219</ele>
        <time>2021-05-15T10:35:42.000Z</time>
      </trkpt>
      <trkpt lat="49.80342" lon="4.83855">
        <ele>219</ele>
        <time>2021-05-15T10:35:43.000Z</time>
      </trkpt>
      <trkpt lat="49.80337" lon="4.83854">
        <ele>219</ele>
        <time>2021-05-15T10:35:44.000Z</time>
      </trkpt>
      <trkpt lat="49.80332" lon="4.83853">
        <ele>219</ele>
        <time>2021-05-15T10:35:45.000Z</time>
      </trkpt>
      <trkpt lat="49.80327" lon="4.83852">
        <ele>219</ele>
        <time>2021-05-15T10:35:46.000Z</time>
      </trkpt>
      <trkpt lat="49.80322" lon="4.83851">
        <ele>219</ele>
        <time>2021-05-15T10:35:47.000Z</time>
      </trkpt>
      <trkpt lat="49.80317" lon="4.83851">
        <ele>219</ele>
        <time>2021-05-15T10:35:48.000Z</time>
      </trkpt>
      <trkpt lat="49.80312" lon="4.83851">
        <ele>219</ele>
        <time>2021-05-15T10:35:49.000Z</time>
      </trkpt>
      <trkpt lat="49.80307" lon="4.8385">
        <ele>219</ele>
        <time>2021-05-15T10:35:50.000Z</time>
      </trkpt>
      <trkpt lat="49.80303" lon="4.8385">
        <ele>219</ele>
        <time>2021-05-15T10:35:51.000Z</time>
      </trkpt>
      <trkpt lat="49.80298" lon="4.83849">
        <ele>220</ele>
        <time>2021-05-15T10:35:52.000Z</time>
      </trkpt>
      <trkpt lat="49.80294" lon="4.83847">
        <ele>220</ele>
        <time>2021-05-15T10:35:53.000Z</time>
      </trkpt>
      <trkpt lat="49.8029" lon="4.83846">
        <ele>220</ele>
        <time>2021-05-15T10:35:54.000Z</time>
      </trkpt>
      <trkpt lat="49.80285" lon="4.83845">
        <ele>220</ele>
        <time>2021-05-15T10:35:55.000Z</time>
      </trkpt>
      <trkpt lat="49.8028" lon="4.83843">
        <ele>220</ele>
        <time>2021-05-15T10:35:56.000Z</time>
      </trkpt>
      <trkpt lat="49.80275" lon="4.83842">
        <ele>220</ele>
        <time>2021-05-15T10:35:57.000Z</time>
      </trkpt>
      <trkpt lat="49.8027" lon="4.83841">
        <ele>220</ele>
        <time>2021-05-15T10:35:58.000Z</time>
      </trkpt>
      <trkpt lat="49.80265" lon="4.8384">
        <ele>221</ele>
        <time>2021-05-15T10:35:59.000Z</time>
      </trkpt>
      <trkpt lat="49.8026" lon="4.8384">
        <ele>221</ele>
        <time>2021-05-15T10:36:00.000Z</time>
      </trkpt>
      <trkpt lat="49.80254" lon="4.83839">
        <ele>221</ele>
        <time>2021-05-15T10:36:01.000Z</time>
      </trkpt>
      <trkpt lat="49.80249" lon="4.83839">
        <ele>221</ele>
        <time>2021-05-15T10:36:02.000Z</time>
      </trkpt>
      <trkpt lat="49.80243" lon="4.83839">
        <ele>221</ele>
        <time>2021-05-15T10:36:03.000Z</time>
      </trkpt>
      <trkpt lat="49.80237" lon="4.8384">
        <ele>221</ele>
        <time>2021-05-15T10:36:04.000Z</time>
      </trkpt>
      <trkpt lat="49.80232" lon="4.83841">
        <ele>221</ele>
        <time>2021-05-15T10:36:05.000Z</time>
      </trkpt>
      <trkpt lat="49.80227" lon="4.83841">
        <ele>221</ele>
        <time>2021-05-15T10:36:06.000Z</time>
      </trkpt>
      <trkpt lat="49.80222" lon="4.83842">
        <ele>222</ele>
        <time>2021-05-15T10:36:07.000Z</time>
      </trkpt>
      <trkpt lat="49.80217" lon="4.83843">
        <ele>222</ele>
        <time>2021-05-15T10:36:08.000Z</time>
      </trkpt>
      <trkpt lat="49.80212" lon="4.83843">
        <ele>222</ele>
        <time>2021-05-15T10:36:09.000Z</time>
      </trkpt>
      <trkpt lat="49.80208" lon="4.83842">
        <ele>222</ele>
        <time>2021-05-15T10:36:10.000Z</time>
      </trkpt>
      <trkpt lat="49.80203" lon="4.83842">
        <ele>222</ele>
        <time>2021-05-15T10:36:11.000Z</time>
      </trkpt>
      <trkpt lat="49.80199" lon="4.83841">
        <ele>222</ele>
        <time>2021-05-15T10:36:12.000Z</time>
      </trkpt>
      <trkpt lat="49.80193" lon="4.8384">
        <ele>222</ele>
        <time>2021-05-15T10:36:13.000Z</time>
      </trkpt>
      <trkpt lat="49.80188" lon="4.8384">
        <ele>223</ele>
        <time>2021-05-15T10:36:14.000Z</time>
      </trkpt>
      <trkpt lat="49.80184" lon="4.83838">
        <ele>223</ele>
        <time>2021-05-15T10:36:15.000Z</time>
      </trkpt>
      <trkpt lat="49.80179" lon="4.83838">
        <ele>223</ele>
        <time>2021-05-15T10:36:16.000Z</time>
      </trkpt>
      <trkpt lat="49.80174" lon="4.83837">
        <ele>223</ele>
        <time>2021-05-15T10:36:17.000Z</time>
      </trkpt>
      <trkpt lat="49.8017" lon="4.83836">
        <ele>223</ele>
        <time>2021-05-15T10:36:18.000Z</time>
      </trkpt>
      <trkpt lat="49.80165" lon="4.83835">
        <ele>223</ele>
        <time>2021-05-15T10:36:19.000Z</time>
      </trkpt>
      <trkpt lat="49.8016" lon="4.83834">
        <ele>224</ele>
        <time>2021-05-15T10:36:20.000Z</time>
      </trkpt>
      <trkpt lat="49.80155" lon="4.83832">
        <ele>224</ele>
        <time>2021-05-15T10:36:21.000Z</time>
      </trkpt>
      <trkpt lat="49.8015" lon="4.83831">
        <ele>224</ele>
        <time>2021-05-15T10:36:22.000Z</time>
      </trkpt>
      <trkpt lat="49.80146" lon="4.8383">
        <ele>224</ele>
        <time>2021-05-15T10:36:23.000Z</time>
      </trkpt>
      <trkpt lat="49.80142" lon="4.83829">
        <ele>224</ele>
        <time>2021-05-15T10:36:24.000Z</time>
      </trkpt>
      <trkpt lat="49.80137" lon="4.83827">
        <ele>224</ele>
        <time>2021-05-15T10:36:25.000Z</time>
      </trkpt>
      <trkpt lat="49.80132" lon="4.83825">
        <ele>224</ele>
        <time>2021-05-15T10:36:26.000Z</time>
      </trkpt>
      <trkpt lat="49.80126" lon="4.83823">
        <ele>224</ele>
        <time>2021-05-15T10:36:27.000Z</time>
      </trkpt>
      <trkpt lat="49.80122" lon="4.83821">
        <ele>224</ele>
        <time>2021-05-15T10:36:28.000Z</time>
      </trkpt>
      <trkpt lat="49.80116" lon="4.83819">
        <ele>224</ele>
        <time>2021-05-15T10:36:29.000Z</time>
      </trkpt>
      <trkpt lat="49.80111" lon="4.83818">
        <ele>224</ele>
        <time>2021-05-15T10:36:30.000Z</time>
      </trkpt>
      <trkpt lat="49.80106" lon="4.83817">
        <ele>224</ele>
        <time>2021-05-15T10:36:31.000Z</time>
      </trkpt>
      <trkpt lat="49.80101" lon="4.83814">
        <ele>224</ele>
        <time>2021-05-15T10:36:32.000Z</time>
      </trkpt>
      <trkpt lat="49.80097" lon="4.83812">
        <ele>224</ele>
        <time>2021-05-15T10:36:33.000Z</time>
      </trkpt>
      <trkpt lat="49.80093" lon="4.83809">
        <ele>224</ele>
        <time>2021-05-15T10:36:34.000Z</time>
      </trkpt>
      <trkpt lat="49.80089" lon="4.83806">
        <ele>224</ele>
        <time>2021-05-15T10:36:35.000Z</time>
      </trkpt>
      <trkpt lat="49.80085" lon="4.83804">
        <ele>224</ele>
        <time>2021-05-15T10:36:36.000Z</time>
      </trkpt>
      <trkpt lat="49.8008" lon="4.83801">
        <ele>224</ele>
        <time>2021-05-15T10:36:37.000Z</time>
      </trkpt>
      <trkpt lat="49.80075" lon="4.83799">
        <ele>224</ele>
        <time>2021-05-15T10:36:38.000Z</time>
      </trkpt>
      <trkpt lat="49.80069" lon="4.83796">
        <ele>224</ele>
        <time>2021-05-15T10:36:39.000Z</time>
      </trkpt>
      <trkpt lat="49.80064" lon="4.83794">
        <ele>224</ele>
        <time>2021-05-15T10:36:40.000Z</time>
      </trkpt>
      <trkpt lat="49.80058" lon="4.83793">
        <ele>224</ele>
        <time>2021-05-15T10:36:41.000Z</time>
      </trkpt>
      <trkpt lat="49.80052" lon="4.83791">
        <ele>224</ele>
        <time>2021-05-15T10:36:42.000Z</time>
      </trkpt>
      <trkpt lat="49.80047" lon="4.83789">
        <ele>224</ele>
        <time>2021-05-15T10:36:43.000Z</time>
      </trkpt>
      <trkpt lat="49.80042" lon="4.83786">
        <ele>225</ele>
        <time>2021-05-15T10:36:44.000Z</time>
      </trkpt>
      <trkpt lat="49.80037" lon="4.83785">
        <ele>225</ele>
        <time>2021-05-15T10:36:45.000Z</time>
      </trkpt>
      <trkpt lat="49.80032" lon="4.83784">
        <ele>225</ele>
        <time>2021-05-15T10:36:46.000Z</time>
      </trkpt>
      <trkpt lat="49.80026" lon="4.83783">
        <ele>225</ele>
        <time>2021-05-15T10:36:47.000Z</time>
      </trkpt>
      <trkpt lat="49.8002" lon="4.83782">
        <ele>225</ele>
        <time>2021-05-15T10:36:48.000Z</time>
      </trkpt>
      <trkpt lat="49.80014" lon="4.8378">
        <ele>225</ele>
        <time>2021-05-15T10:36:49.000Z</time>
      </trkpt>
      <trkpt lat="49.80009" lon="4.83779">
        <ele>225</ele>
        <time>2021-05-15T10:36:50.000Z</time>
      </trkpt>
      <trkpt lat="49.80004" lon="4.83777">
        <ele>225</ele>
        <time>2021-05-15T10:36:51.000Z</time>
      </trkpt>
      <trkpt lat="49.79998" lon="4.83775">
        <ele>225</ele>
        <time>2021-05-15T10:36:52.000Z</time>
      </trkpt>
      <trkpt lat="49.79993" lon="4.83772">
        <ele>225</ele>
        <time>2021-05-15T10:36:53.000Z</time>
      </trkpt>
      <trkpt lat="49.79988" lon="4.8377">
        <ele>225</ele>
        <time>2021-05-15T10:36:54.000Z</time>
      </trkpt>
      <trkpt lat="49.79982" lon="4.83769">
        <ele>225</ele>
        <time>2021-05-15T10:36:55.000Z</time>
      </trkpt>
      <trkpt lat="49.79976" lon="4.83767">
        <ele>225</ele>
        <time>2021-05-15T10:36:56.000Z</time>
      </trkpt>
      <trkpt lat="49.79969" lon="4.83766">
        <ele>225</ele>
        <time>2021-05-15T10:36:57.000Z</time>
      </trkpt>
      <trkpt lat="49.79963" lon="4.83764">
        <ele>226</ele>
        <time>2021-05-15T10:36:58.000Z</time>
      </trkpt>
      <trkpt lat="49.79958" lon="4.83763">
        <ele>226</ele>
        <time>2021-05-15T10:36:59.000Z</time>
      </trkpt>
      <trkpt lat="49.79952" lon="4.83761">
        <ele>226</ele>
        <time>2021-05-15T10:37:00.000Z</time>
      </trkpt>
      <trkpt lat="49.79947" lon="4.8376">
        <ele>226</ele>
        <time>2021-05-15T10:37:01.000Z</time>
      </trkpt>
      <trkpt lat="49.79941" lon="4.83759">
        <ele>226</ele>
        <time>2021-05-15T10:37:02.000Z</time>
      </trkpt>
      <trkpt lat="49.79936" lon="4.83758">
        <ele>226</ele>
        <time>2021-05-15T10:37:03.000Z</time>
      </trkpt>
      <trkpt lat="49.79931" lon="4.83757">
        <ele>226</ele>
        <time>2021-05-15T10:37:04.000Z</time>
      </trkpt>
      <trkpt lat="49.79927" lon="4.83756">
        <ele>226</ele>
        <time>2021-05-15T10:37:05.000Z</time>
      </trkpt>
      <trkpt lat="49.79923" lon="4.83754">
        <ele>226</ele>
        <time>2021-05-15T10:37:06.000Z</time>
      </trkpt>
      <trkpt lat="49.79917" lon="4.83753">
        <ele>226</ele>
        <time>2021-05-15T10:37:07.000Z</time>
      </trkpt>
      <trkpt lat="49.79912" lon="4.8375">
        <ele>226</ele>
        <time>2021-05-15T10:37:08.000Z</time>
      </trkpt>
      <trkpt lat="49.79907" lon="4.83748">
        <ele>226</ele>
        <time>2021-05-15T10:37:09.000Z</time>
      </trkpt>
      <trkpt lat="49.79901" lon="4.83746">
        <ele>226</ele>
        <time>2021-05-15T10:37:10.000Z</time>
      </trkpt>
      <trkpt lat="49.79896" lon="4.83744">
        <ele>226</ele>
        <time>2021-05-15T10:37:11.000Z</time>
      </trkpt>
      <trkpt lat="49.79891" lon="4.83744">
        <ele>226</ele>
        <time>2021-05-15T10:37:12.000Z</time>
      </trkpt>
      <trkpt lat="49.79886" lon="4.83743">
        <ele>226</ele>
        <time>2021-05-15T10:37:13.000Z</time>
      </trkpt>
      <trkpt lat="49.79881" lon="4.83741">
        <ele>226</ele>
        <time>2021-05-15T10:37:14.000Z</time>
      </trkpt>
      <trkpt lat="49.79875" lon="4.8374">
        <ele>226</ele>
        <time>2021-05-15T10:37:15.000Z</time>
      </trkpt>
      <trkpt lat="49.79869" lon="4.83738">
        <ele>226</ele>
        <time>2021-05-15T10:37:16.000Z</time>
      </trkpt>
      <trkpt lat="49.79864" lon="4.83737">
        <ele>226</ele>
        <time>2021-05-15T10:37:17.000Z</time>
      </trkpt>
      <trkpt lat="49.79857" lon="4.83736">
        <ele>226</ele>
        <time>2021-05-15T10:37:18.000Z</time>
      </trkpt>
      <trkpt lat="49.79851" lon="4.83735">
        <ele>226</ele>
        <time>2021-05-15T10:37:19.000Z</time>
      </trkpt>
      <trkpt lat="49.79845" lon="4.83734">
        <ele>226</ele>
        <time>2021-05-15T10:37:20.000Z</time>
      </trkpt>
      <trkpt lat="49.79839" lon="4.83732">
        <ele>226</ele>
        <time>2021-05-15T10:37:21.000Z</time>
      </trkpt>
      <trkpt lat="49.79833" lon="4.8373">
        <ele>226</ele>
        <time>2021-05-15T10:37:22.000Z</time>
      </trkpt>
      <trkpt lat="49.79826" lon="4.83729">
        <ele>226</ele>
        <time>2021-05-15T10:37:23.000Z</time>
      </trkpt>
      <trkpt lat="49.79819" lon="4.83727">
        <ele>226</ele>
        <time>2021-05-15T10:37:24.000Z</time>
      </trkpt>
      <trkpt lat="49.79812" lon="4.83726">
        <ele>226</ele>
        <time>2021-05-15T10:37:25.000Z</time>
      </trkpt>
      <trkpt lat="49.79804" lon="4.83726">
        <ele>226</ele>
        <time>2021-05-15T10:37:26.000Z</time>
      </trkpt>
      <trkpt lat="49.79797" lon="4.83727">
        <ele>226</ele>
        <time>2021-05-15T10:37:27.000Z</time>
      </trkpt>
      <trkpt lat="49.7979" lon="4.83727">
        <ele>226</ele>
        <time>2021-05-15T10:37:28.000Z</time>
      </trkpt>
      <trkpt lat="49.79782" lon="4.83727">
        <ele>226</ele>
        <time>2021-05-15T10:37:29.000Z</time>
      </trkpt>
      <trkpt lat="49.79775" lon="4.83727">
        <ele>226</ele>
        <time>2021-05-15T10:37:30.000Z</time>
      </trkpt>
      <trkpt lat="49.79768" lon="4.83727">
        <ele>226</ele>
        <time>2021-05-15T10:37:31.000Z</time>
      </trkpt>
      <trkpt lat="49.79761" lon="4.83726">
        <ele>226</ele>
        <time>2021-05-15T10:37:32.000Z</time>
      </trkpt>
      <trkpt lat="49.79754" lon="4.83726">
        <ele>226</ele>
        <time>2021-05-15T10:37:33.000Z</time>
      </trkpt>
      <trkpt lat="49.79746" lon="4.83726">
        <ele>226</ele>
        <time>2021-05-15T10:37:34.000Z</time>
      </trkpt>
      <trkpt lat="49.79739" lon="4.83726">
        <ele>226</ele>
        <time>2021-05-15T10:37:35.000Z</time>
      </trkpt>
      <trkpt lat="49.79732" lon="4.83727">
        <ele>226</ele>
        <time>2021-05-15T10:37:36.000Z</time>
      </trkpt>
      <trkpt lat="49.79724" lon="4.83727">
        <ele>226</ele>
        <time>2021-05-15T10:37:37.000Z</time>
      </trkpt>
      <trkpt lat="49.79716" lon="4.83726">
        <ele>226</ele>
        <time>2021-05-15T10:37:38.000Z</time>
      </trkpt>
      <trkpt lat="49.79709" lon="4.83726">
        <ele>226</ele>
        <time>2021-05-15T10:37:39.000Z</time>
      </trkpt>
      <trkpt lat="49.79702" lon="4.83727">
        <ele>226</ele>
        <time>2021-05-15T10:37:40.000Z</time>
      </trkpt>
      <trkpt lat="49.79694" lon="4.83727">
        <ele>226</ele>
        <time>2021-05-15T10:37:41.000Z</time>
      </trkpt>
      <trkpt lat="49.79687" lon="4.83728">
        <ele>226</ele>
        <time>2021-05-15T10:37:42.000Z</time>
      </trkpt>
      <trkpt lat="49.79679" lon="4.83728">
        <ele>226</ele>
        <time>2021-05-15T10:37:43.000Z</time>
      </trkpt>
      <trkpt lat="49.79672" lon="4.83729">
        <ele>226</ele>
        <time>2021-05-15T10:37:44.000Z</time>
      </trkpt>
      <trkpt lat="49.79664" lon="4.8373">
        <ele>226</ele>
        <time>2021-05-15T10:37:45.000Z</time>
      </trkpt>
      <trkpt lat="49.79656" lon="4.83732">
        <ele>226</ele>
        <time>2021-05-15T10:37:46.000Z</time>
      </trkpt>
      <trkpt lat="49.79649" lon="4.83732">
        <ele>225</ele>
        <time>2021-05-15T10:37:47.000Z</time>
      </trkpt>
      <trkpt lat="49.79642" lon="4.83733">
        <ele>225</ele>
        <time>2021-05-15T10:37:48.000Z</time>
      </trkpt>
      <trkpt lat="49.79636" lon="4.83732">
        <ele>225</ele>
        <time>2021-05-15T10:37:49.000Z</time>
      </trkpt>
      <trkpt lat="49.79629" lon="4.83732">
        <ele>225</ele>
        <time>2021-05-15T10:37:50.000Z</time>
      </trkpt>
      <trkpt lat="49.79622" lon="4.83732">
        <ele>225</ele>
        <time>2021-05-15T10:37:51.000Z</time>
      </trkpt>
      <trkpt lat="49.79614" lon="4.83731">
        <ele>225</ele>
        <time>2021-05-15T10:37:52.000Z</time>
      </trkpt>
      <trkpt lat="49.79607" lon="4.83731">
        <ele>225</ele>
        <time>2021-05-15T10:37:53.000Z</time>
      </trkpt>
      <trkpt lat="49.796" lon="4.83731">
        <ele>225</ele>
        <time>2021-05-15T10:37:54.000Z</time>
      </trkpt>
      <trkpt lat="49.79593" lon="4.8373">
        <ele>224</ele>
        <time>2021-05-15T10:37:55.000Z</time>
      </trkpt>
      <trkpt lat="49.79586" lon="4.83729">
        <ele>224</ele>
        <time>2021-05-15T10:37:56.000Z</time>
      </trkpt>
      <trkpt lat="49.79579" lon="4.83729">
        <ele>224</ele>
        <time>2021-05-15T10:37:57.000Z</time>
      </trkpt>
      <trkpt lat="49.79572" lon="4.83728">
        <ele>224</ele>
        <time>2021-05-15T10:37:58.000Z</time>
      </trkpt>
      <trkpt lat="49.79566" lon="4.83726">
        <ele>224</ele>
        <time>2021-05-15T10:37:59.000Z</time>
      </trkpt>
      <trkpt lat="49.79559" lon="4.83724">
        <ele>223</ele>
        <time>2021-05-15T10:38:00.000Z</time>
      </trkpt>
      <trkpt lat="49.79552" lon="4.83722">
        <ele>223</ele>
        <time>2021-05-15T10:38:01.000Z</time>
      </trkpt>
      <trkpt lat="49.79545" lon="4.8372">
        <ele>223</ele>
        <time>2021-05-15T10:38:02.000Z</time>
      </trkpt>
      <trkpt lat="49.79538" lon="4.83718">
        <ele>222</ele>
        <time>2021-05-15T10:38:03.000Z</time>
      </trkpt>
      <trkpt lat="49.79532" lon="4.83715">
        <ele>222</ele>
        <time>2021-05-15T10:38:04.000Z</time>
      </trkpt>
      <trkpt lat="49.79526" lon="4.83712">
        <ele>222</ele>
        <time>2021-05-15T10:38:05.000Z</time>
      </trkpt>
      <trkpt lat="49.79519" lon="4.83711">
        <ele>221</ele>
        <time>2021-05-15T10:38:06.000Z</time>
      </trkpt>
      <trkpt lat="49.79512" lon="4.8371">
        <ele>221</ele>
        <time>2021-05-15T10:38:07.000Z</time>
      </trkpt>
      <trkpt lat="49.79505" lon="4.83708">
        <ele>220</ele>
        <time>2021-05-15T10:38:08.000Z</time>
      </trkpt>
      <trkpt lat="49.79499" lon="4.83706">
        <ele>220</ele>
        <time>2021-05-15T10:38:09.000Z</time>
      </trkpt>
      <trkpt lat="49.79493" lon="4.83705">
        <ele>220</ele>
        <time>2021-05-15T10:38:10.000Z</time>
      </trkpt>
      <trkpt lat="49.79486" lon="4.83704">
        <ele>219</ele>
        <time>2021-05-15T10:38:11.000Z</time>
      </trkpt>
      <trkpt lat="49.79478" lon="4.83702">
        <ele>219</ele>
        <time>2021-05-15T10:38:12.000Z</time>
      </trkpt>
      <trkpt lat="49.79472" lon="4.837">
        <ele>219</ele>
        <time>2021-05-15T10:38:13.000Z</time>
      </trkpt>
      <trkpt lat="49.79465" lon="4.83698">
        <ele>218</ele>
        <time>2021-05-15T10:38:14.000Z</time>
      </trkpt>
      <trkpt lat="49.79459" lon="4.83696">
        <ele>218</ele>
        <time>2021-05-15T10:38:15.000Z</time>
      </trkpt>
      <trkpt lat="49.79452" lon="4.83694">
        <ele>218</ele>
        <time>2021-05-15T10:38:16.000Z</time>
      </trkpt>
      <trkpt lat="49.79445" lon="4.83693">
        <ele>218</ele>
        <time>2021-05-15T10:38:17.000Z</time>
      </trkpt>
      <trkpt lat="49.79438" lon="4.83691">
        <ele>218</ele>
        <time>2021-05-15T10:38:18.000Z</time>
      </trkpt>
      <trkpt lat="49.79431" lon="4.8369">
        <ele>218</ele>
        <time>2021-05-15T10:38:19.000Z</time>
      </trkpt>
      <trkpt lat="49.79424" lon="4.83689">
        <ele>218</ele>
        <time>2021-05-15T10:38:20.000Z</time>
      </trkpt>
      <trkpt lat="49.79416" lon="4.83688">
        <ele>218</ele>
        <time>2021-05-15T10:38:21.000Z</time>
      </trkpt>
      <trkpt lat="49.79409" lon="4.83687">
        <ele>217</ele>
        <time>2021-05-15T10:38:22.000Z</time>
      </trkpt>
      <trkpt lat="49.79401" lon="4.83687">
        <ele>217</ele>
        <time>2021-05-15T10:38:23.000Z</time>
      </trkpt>
      <trkpt lat="49.79394" lon="4.83688">
        <ele>217</ele>
        <time>2021-05-15T10:38:24.000Z</time>
      </trkpt>
      <trkpt lat="49.79387" lon="4.83689">
        <ele>216</ele>
        <time>2021-05-15T10:38:25.000Z</time>
      </trkpt>
      <trkpt lat="49.7938" lon="4.83691">
        <ele>216</ele>
        <time>2021-05-15T10:38:26.000Z</time>
      </trkpt>
      <trkpt lat="49.79374" lon="4.83693">
        <ele>215</ele>
        <time>2021-05-15T10:38:27.000Z</time>
      </trkpt>
      <trkpt lat="49.79368" lon="4.83696">
        <ele>215</ele>
        <time>2021-05-15T10:38:28.000Z</time>
      </trkpt>
      <trkpt lat="49.79362" lon="4.837">
        <ele>215</ele>
        <time>2021-05-15T10:38:29.000Z</time>
      </trkpt>
      <trkpt lat="49.79357" lon="4.83707">
        <ele>214</ele>
        <time>2021-05-15T10:38:30.000Z</time>
      </trkpt>
      <trkpt lat="49.79352" lon="4.83713">
        <ele>214</ele>
        <time>2021-05-15T10:38:31.000Z</time>
      </trkpt>
      <trkpt lat="49.79348" lon="4.8372">
        <ele>214</ele>
        <time>2021-05-15T10:38:32.000Z</time>
      </trkpt>
      <trkpt lat="49.79343" lon="4.83726">
        <ele>214</ele>
        <time>2021-05-15T10:38:33.000Z</time>
      </trkpt>
      <trkpt lat="49.79339" lon="4.83733">
        <ele>214</ele>
        <time>2021-05-15T10:38:34.000Z</time>
      </trkpt>
      <trkpt lat="49.79334" lon="4.83741">
        <ele>214</ele>
        <time>2021-05-15T10:38:35.000Z</time>
      </trkpt>
      <trkpt lat="49.7933" lon="4.83748">
        <ele>214</ele>
        <time>2021-05-15T10:38:36.000Z</time>
      </trkpt>
      <trkpt lat="49.79325" lon="4.83755">
        <ele>214</ele>
        <time>2021-05-15T10:38:37.000Z</time>
      </trkpt>
      <trkpt lat="49.79321" lon="4.83761">
        <ele>214</ele>
        <time>2021-05-15T10:38:38.000Z</time>
      </trkpt>
      <trkpt lat="49.79317" lon="4.83769">
        <ele>214</ele>
        <time>2021-05-15T10:38:39.000Z</time>
      </trkpt>
      <trkpt lat="49.79313" lon="4.83775">
        <ele>214</ele>
        <time>2021-05-15T10:38:40.000Z</time>
      </trkpt>
      <trkpt lat="49.79309" lon="4.83782">
        <ele>214</ele>
        <time>2021-05-15T10:38:41.000Z</time>
      </trkpt>
      <trkpt lat="49.79305" lon="4.8379">
        <ele>214</ele>
        <time>2021-05-15T10:38:42.000Z</time>
      </trkpt>
      <trkpt lat="49.79301" lon="4.83799">
        <ele>214</ele>
        <time>2021-05-15T10:38:43.000Z</time>
      </trkpt>
      <trkpt lat="49.79297" lon="4.83807">
        <ele>214</ele>
        <time>2021-05-15T10:38:44.000Z</time>
      </trkpt>
      <trkpt lat="49.79293" lon="4.83816">
        <ele>215</ele>
        <time>2021-05-15T10:38:45.000Z</time>
      </trkpt>
      <trkpt lat="49.79289" lon="4.83824">
        <ele>215</ele>
        <time>2021-05-15T10:38:46.000Z</time>
      </trkpt>
      <trkpt lat="49.79285" lon="4.83833">
        <ele>215</ele>
        <time>2021-05-15T10:38:47.000Z</time>
      </trkpt>
      <trkpt lat="49.79281" lon="4.83842">
        <ele>215</ele>
        <time>2021-05-15T10:38:48.000Z</time>
      </trkpt>
      <trkpt lat="49.79278" lon="4.8385">
        <ele>215</ele>
        <time>2021-05-15T10:38:49.000Z</time>
      </trkpt>
      <trkpt lat="49.79273" lon="4.83858">
        <ele>215</ele>
        <time>2021-05-15T10:38:50.000Z</time>
      </trkpt>
      <trkpt lat="49.79269" lon="4.83866">
        <ele>215</ele>
        <time>2021-05-15T10:38:51.000Z</time>
      </trkpt>
      <trkpt lat="49.79265" lon="4.83875">
        <ele>215</ele>
        <time>2021-05-15T10:38:52.000Z</time>
      </trkpt>
      <trkpt lat="49.79262" lon="4.83883">
        <ele>216</ele>
        <time>2021-05-15T10:38:53.000Z</time>
      </trkpt>
      <trkpt lat="49.79258" lon="4.83891">
        <ele>216</ele>
        <time>2021-05-15T10:38:54.000Z</time>
      </trkpt>
      <trkpt lat="49.79254" lon="4.83901">
        <ele>216</ele>
        <time>2021-05-15T10:38:55.000Z</time>
      </trkpt>
      <trkpt lat="49.7925" lon="4.8391">
        <ele>216</ele>
        <time>2021-05-15T10:38:56.000Z</time>
      </trkpt>
      <trkpt lat="49.79246" lon="4.83918">
        <ele>216</ele>
        <time>2021-05-15T10:38:57.000Z</time>
      </trkpt>
      <trkpt lat="49.79242" lon="4.83926">
        <ele>216</ele>
        <time>2021-05-15T10:38:58.000Z</time>
      </trkpt>
      <trkpt lat="49.79238" lon="4.83934">
        <ele>216</ele>
        <time>2021-05-15T10:38:59.000Z</time>
      </trkpt>
      <trkpt lat="49.79233" lon="4.83942">
        <ele>216</ele>
        <time>2021-05-15T10:39:00.000Z</time>
      </trkpt>
      <trkpt lat="49.79229" lon="4.8395">
        <ele>216</ele>
        <time>2021-05-15T10:39:01.000Z</time>
      </trkpt>
      <trkpt lat="49.79225" lon="4.83959">
        <ele>217</ele>
        <time>2021-05-15T10:39:02.000Z</time>
      </trkpt>
      <trkpt lat="49.79222" lon="4.83968">
        <ele>217</ele>
        <time>2021-05-15T10:39:03.000Z</time>
      </trkpt>
      <trkpt lat="49.79218" lon="4.83977">
        <ele>217</ele>
        <time>2021-05-15T10:39:04.000Z</time>
      </trkpt>
      <trkpt lat="49.79214" lon="4.83987">
        <ele>217</ele>
        <time>2021-05-15T10:39:05.000Z</time>
      </trkpt>
      <trkpt lat="49.7921" lon="4.83996">
        <ele>217</ele>
        <time>2021-05-15T10:39:06.000Z</time>
      </trkpt>
      <trkpt lat="49.79206" lon="4.84005">
        <ele>217</ele>
        <time>2021-05-15T10:39:07.000Z</time>
      </trkpt>
      <trkpt lat="49.79202" lon="4.84014">
        <ele>217</ele>
        <time>2021-05-15T10:39:08.000Z</time>
      </trkpt>
      <trkpt lat="49.79198" lon="4.84022">
        <ele>217</ele>
        <time>2021-05-15T10:39:09.000Z</time>
      </trkpt>
      <trkpt lat="49.79194" lon="4.8403">
        <ele>217</ele>
        <time>2021-05-15T10:39:10.000Z</time>
      </trkpt>
      <trkpt lat="49.7919" lon="4.84038">
        <ele>217</ele>
        <time>2021-05-15T10:39:11.000Z</time>
      </trkpt>
      <trkpt lat="49.79187" lon="4.84045">
        <ele>217</ele>
        <time>2021-05-15T10:39:12.000Z</time>
      </trkpt>
      <trkpt lat="49.79184" lon="4.84051">
        <ele>217</ele>
        <time>2021-05-15T10:39:13.000Z</time>
      </trkpt>
      <trkpt lat="49.7918" lon="4.84059">
        <ele>217</ele>
        <time>2021-05-15T10:39:14.000Z</time>
      </trkpt>
      <trkpt lat="49.79175" lon="4.84067">
        <ele>217</ele>
        <time>2021-05-15T10:39:15.000Z</time>
      </trkpt>
      <trkpt lat="49.7917" lon="4.84075">
        <ele>218</ele>
        <time>2021-05-15T10:39:16.000Z</time>
      </trkpt>
      <trkpt lat="49.79166" lon="4.84082">
        <ele>218</ele>
        <time>2021-05-15T10:39:17.000Z</time>
      </trkpt>
      <trkpt lat="49.79161" lon="4.84088">
        <ele>218</ele>
        <time>2021-05-15T10:39:18.000Z</time>
      </trkpt>
      <trkpt lat="49.79155" lon="4.84094">
        <ele>218</ele>
        <time>2021-05-15T10:39:19.000Z</time>
      </trkpt>
      <trkpt lat="49.79149" lon="4.841">
        <ele>218</ele>
        <time>2021-05-15T10:39:20.000Z</time>
      </trkpt>
      <trkpt lat="49.79143" lon="4.84107">
        <ele>218</ele>
        <time>2021-05-15T10:39:21.000Z</time>
      </trkpt>
      <trkpt lat="49.79137" lon="4.84114">
        <ele>218</ele>
        <time>2021-05-15T10:39:22.000Z</time>
      </trkpt>
      <trkpt lat="49.79131" lon="4.8412">
        <ele>218</ele>
        <time>2021-05-15T10:39:23.000Z</time>
      </trkpt>
      <trkpt lat="49.79125" lon="4.84126">
        <ele>218</ele>
        <time>2021-05-15T10:39:24.000Z</time>
      </trkpt>
      <trkpt lat="49.79119" lon="4.84132">
        <ele>218</ele>
        <time>2021-05-15T10:39:25.000Z</time>
      </trkpt>
      <trkpt lat="49.79114" lon="4.84138">
        <ele>218</ele>
        <time>2021-05-15T10:39:26.000Z</time>
      </trkpt>
      <trkpt lat="49.79109" lon="4.84144">
        <ele>218</ele>
        <time>2021-05-15T10:39:27.000Z</time>
      </trkpt>
      <trkpt lat="49.79103" lon="4.8415">
        <ele>218</ele>
        <time>2021-05-15T10:39:28.000Z</time>
      </trkpt>
      <trkpt lat="49.79098" lon="4.84156">
        <ele>218</ele>
        <time>2021-05-15T10:39:29.000Z</time>
      </trkpt>
      <trkpt lat="49.79092" lon="4.84163">
        <ele>218</ele>
        <time>2021-05-15T10:39:30.000Z</time>
      </trkpt>
      <trkpt lat="49.79088" lon="4.8417">
        <ele>217</ele>
        <time>2021-05-15T10:39:31.000Z</time>
      </trkpt>
      <trkpt lat="49.79083" lon="4.84177">
        <ele>217</ele>
        <time>2021-05-15T10:39:32.000Z</time>
      </trkpt>
      <trkpt lat="49.79079" lon="4.84185">
        <ele>217</ele>
        <time>2021-05-15T10:39:33.000Z</time>
      </trkpt>
      <trkpt lat="49.79075" lon="4.84192">
        <ele>217</ele>
        <time>2021-05-15T10:39:34.000Z</time>
      </trkpt>
      <trkpt lat="49.7907" lon="4.84199">
        <ele>217</ele>
        <time>2021-05-15T10:39:35.000Z</time>
      </trkpt>
      <trkpt lat="49.79065" lon="4.84207">
        <ele>216</ele>
        <time>2021-05-15T10:39:36.000Z</time>
      </trkpt>
      <trkpt lat="49.7906" lon="4.84214">
        <ele>216</ele>
        <time>2021-05-15T10:39:37.000Z</time>
      </trkpt>
      <trkpt lat="49.79056" lon="4.8422">
        <ele>216</ele>
        <time>2021-05-15T10:39:38.000Z</time>
      </trkpt>
      <trkpt lat="49.79051" lon="4.84227">
        <ele>216</ele>
        <time>2021-05-15T10:39:39.000Z</time>
      </trkpt>
      <trkpt lat="49.79045" lon="4.84233">
        <ele>215</ele>
        <time>2021-05-15T10:39:40.000Z</time>
      </trkpt>
      <trkpt lat="49.7904" lon="4.84238">
        <ele>215</ele>
        <time>2021-05-15T10:39:41.000Z</time>
      </trkpt>
      <trkpt lat="49.79034" lon="4.84244">
        <ele>215</ele>
        <time>2021-05-15T10:39:42.000Z</time>
      </trkpt>
      <trkpt lat="49.79027" lon="4.84249">
        <ele>215</ele>
        <time>2021-05-15T10:39:43.000Z</time>
      </trkpt>
      <trkpt lat="49.79021" lon="4.84255">
        <ele>215</ele>
        <time>2021-05-15T10:39:44.000Z</time>
      </trkpt>
      <trkpt lat="49.79014" lon="4.8426">
        <ele>215</ele>
        <time>2021-05-15T10:39:45.000Z</time>
      </trkpt>
      <trkpt lat="49.79007" lon="4.84264">
        <ele>214</ele>
        <time>2021-05-15T10:39:46.000Z</time>
      </trkpt>
      <trkpt lat="49.79" lon="4.84268">
        <ele>214</ele>
        <time>2021-05-15T10:39:47.000Z</time>
      </trkpt>
      <trkpt lat="49.78992" lon="4.84272">
        <ele>214</ele>
        <time>2021-05-15T10:39:48.000Z</time>
      </trkpt>
      <trkpt lat="49.78985" lon="4.84276">
        <ele>214</ele>
        <time>2021-05-15T10:39:49.000Z</time>
      </trkpt>
      <trkpt lat="49.78978" lon="4.84281">
        <ele>214</ele>
        <time>2021-05-15T10:39:50.000Z</time>
      </trkpt>
      <trkpt lat="49.78972" lon="4.84285">
        <ele>214</ele>
        <time>2021-05-15T10:39:51.000Z</time>
      </trkpt>
      <trkpt lat="49.78966" lon="4.84288">
        <ele>214</ele>
        <time>2021-05-15T10:39:52.000Z</time>
      </trkpt>
      <trkpt lat="49.78959" lon="4.84292">
        <ele>214</ele>
        <time>2021-05-15T10:39:53.000Z</time>
      </trkpt>
      <trkpt lat="49.78952" lon="4.84296">
        <ele>214</ele>
        <time>2021-05-15T10:39:54.000Z</time>
      </trkpt>
      <trkpt lat="49.78945" lon="4.843">
        <ele>214</ele>
        <time>2021-05-15T10:39:55.000Z</time>
      </trkpt>
      <trkpt lat="49.78937" lon="4.84304">
        <ele>214</ele>
        <time>2021-05-15T10:39:56.000Z</time>
      </trkpt>
      <trkpt lat="49.78929" lon="4.84307">
        <ele>214</ele>
        <time>2021-05-15T10:39:57.000Z</time>
      </trkpt>
      <trkpt lat="49.78922" lon="4.8431">
        <ele>215</ele>
        <time>2021-05-15T10:39:58.000Z</time>
      </trkpt>
      <trkpt lat="49.78914" lon="4.84313">
        <ele>215</ele>
        <time>2021-05-15T10:39:59.000Z</time>
      </trkpt>
      <trkpt lat="49.78907" lon="4.84316">
        <ele>215</ele>
        <time>2021-05-15T10:40:00.000Z</time>
      </trkpt>
      <trkpt lat="49.78899" lon="4.84318">
        <ele>215</ele>
        <time>2021-05-15T10:40:01.000Z</time>
      </trkpt>
      <trkpt lat="49.78892" lon="4.8432">
        <ele>215</ele>
        <time>2021-05-15T10:40:02.000Z</time>
      </trkpt>
      <trkpt lat="49.78884" lon="4.84322">
        <ele>215</ele>
        <time>2021-05-15T10:40:03.000Z</time>
      </trkpt>
      <trkpt lat="49.78876" lon="4.84323">
        <ele>215</ele>
        <time>2021-05-15T10:40:04.000Z</time>
      </trkpt>
      <trkpt lat="49.78868" lon="4.84323">
        <ele>215</ele>
        <time>2021-05-15T10:40:05.000Z</time>
      </trkpt>
      <trkpt lat="49.78861" lon="4.84324">
        <ele>215</ele>
        <time>2021-05-15T10:40:06.000Z</time>
      </trkpt>
      <trkpt lat="49.78853" lon="4.84323">
        <ele>215</ele>
        <time>2021-05-15T10:40:07.000Z</time>
      </trkpt>
      <trkpt lat="49.78846" lon="4.84323">
        <ele>215</ele>
        <time>2021-05-15T10:40:08.000Z</time>
      </trkpt>
      <trkpt lat="49.78839" lon="4.84322">
        <ele>215</ele>
        <time>2021-05-15T10:40:09.000Z</time>
      </trkpt>
      <trkpt lat="49.78831" lon="4.84322">
        <ele>215</ele>
        <time>2021-05-15T10:40:10.000Z</time>
      </trkpt>
      <trkpt lat="49.78823" lon="4.84322">
        <ele>215</ele>
        <time>2021-05-15T10:40:11.000Z</time>
      </trkpt>
      <trkpt lat="49.78816" lon="4.84323">
        <ele>215</ele>
        <time>2021-05-15T10:40:12.000Z</time>
      </trkpt>
      <trkpt lat="49.78808" lon="4.84323">
        <ele>215</ele>
        <time>2021-05-15T10:40:13.000Z</time>
      </trkpt>
      <trkpt lat="49.788" lon="4.84323">
        <ele>215</ele>
        <time>2021-05-15T10:40:14.000Z</time>
      </trkpt>
      <trkpt lat="49.78792" lon="4.84323">
        <ele>215</ele>
        <time>2021-05-15T10:40:15.000Z</time>
      </trkpt>
      <trkpt lat="49.78785" lon="4.84323">
        <ele>215</ele>
        <time>2021-05-15T10:40:16.000Z</time>
      </trkpt>
      <trkpt lat="49.78777" lon="4.84323">
        <ele>215</ele>
        <time>2021-05-15T10:40:17.000Z</time>
      </trkpt>
      <trkpt lat="49.7877" lon="4.84323">
        <ele>215</ele>
        <time>2021-05-15T10:40:18.000Z</time>
      </trkpt>
      <trkpt lat="49.78762" lon="4.84323">
        <ele>214</ele>
        <time>2021-05-15T10:40:19.000Z</time>
      </trkpt>
      <trkpt lat="49.78755" lon="4.84323">
        <ele>214</ele>
        <time>2021-05-15T10:40:20.000Z</time>
      </trkpt>
      <trkpt lat="49.78748" lon="4.84323">
        <ele>214</ele>
        <time>2021-05-15T10:40:21.000Z</time>
      </trkpt>
      <trkpt lat="49.78741" lon="4.84323">
        <ele>213</ele>
        <time>2021-05-15T10:40:22.000Z</time>
      </trkpt>
      <trkpt lat="49.78734" lon="4.84322">
        <ele>213</ele>
        <time>2021-05-15T10:40:23.000Z</time>
      </trkpt>
      <trkpt lat="49.78727" lon="4.84322">
        <ele>213</ele>
        <time>2021-05-15T10:40:24.000Z</time>
      </trkpt>
      <trkpt lat="49.78719" lon="4.84321">
        <ele>212</ele>
        <time>2021-05-15T10:40:25.000Z</time>
      </trkpt>
      <trkpt lat="49.78712" lon="4.84321">
        <ele>212</ele>
        <time>2021-05-15T10:40:26.000Z</time>
      </trkpt>
      <trkpt lat="49.78705" lon="4.84321">
        <ele>211</ele>
        <time>2021-05-15T10:40:27.000Z</time>
      </trkpt>
      <trkpt lat="49.78697" lon="4.84321">
        <ele>211</ele>
        <time>2021-05-15T10:40:28.000Z</time>
      </trkpt>
      <trkpt lat="49.7869" lon="4.84322">
        <ele>211</ele>
        <time>2021-05-15T10:40:29.000Z</time>
      </trkpt>
      <trkpt lat="49.78682" lon="4.84322">
        <ele>210</ele>
        <time>2021-05-15T10:40:30.000Z</time>
      </trkpt>
      <trkpt lat="49.78675" lon="4.84321">
        <ele>210</ele>
        <time>2021-05-15T10:40:31.000Z</time>
      </trkpt>
      <trkpt lat="49.78667" lon="4.84322">
        <ele>209</ele>
        <time>2021-05-15T10:40:32.000Z</time>
      </trkpt>
      <trkpt lat="49.7866" lon="4.84322">
        <ele>209</ele>
        <time>2021-05-15T10:40:33.000Z</time>
      </trkpt>
      <trkpt lat="49.78652" lon="4.84322">
        <ele>208</ele>
        <time>2021-05-15T10:40:34.000Z</time>
      </trkpt>
      <trkpt lat="49.78645" lon="4.84321">
        <ele>208</ele>
        <time>2021-05-15T10:40:35.000Z</time>
      </trkpt>
      <trkpt lat="49.78638" lon="4.84321">
        <ele>208</ele>
        <time>2021-05-15T10:40:36.000Z</time>
      </trkpt>
      <trkpt lat="49.78631" lon="4.8432">
        <ele>208</ele>
        <time>2021-05-15T10:40:37.000Z</time>
      </trkpt>
      <trkpt lat="49.78623" lon="4.84319">
        <ele>207</ele>
        <time>2021-05-15T10:40:38.000Z</time>
      </trkpt>
      <trkpt lat="49.78616" lon="4.84318">
        <ele>207</ele>
        <time>2021-05-15T10:40:39.000Z</time>
      </trkpt>
      <trkpt lat="49.78609" lon="4.84318">
        <ele>207</ele>
        <time>2021-05-15T10:40:40.000Z</time>
      </trkpt>
      <trkpt lat="49.78601" lon="4.84317">
        <ele>206</ele>
        <time>2021-05-15T10:40:41.000Z</time>
      </trkpt>
      <trkpt lat="49.78594" lon="4.84315">
        <ele>206</ele>
        <time>2021-05-15T10:40:42.000Z</time>
      </trkpt>
      <trkpt lat="49.78587" lon="4.84315">
        <ele>205</ele>
        <time>2021-05-15T10:40:43.000Z</time>
      </trkpt>
      <trkpt lat="49.78581" lon="4.84314">
        <ele>204</ele>
        <time>2021-05-15T10:40:44.000Z</time>
      </trkpt>
      <trkpt lat="49.78574" lon="4.84314">
        <ele>204</ele>
        <time>2021-05-15T10:40:45.000Z</time>
      </trkpt>
      <trkpt lat="49.78567" lon="4.84313">
        <ele>204</ele>
        <time>2021-05-15T10:40:46.000Z</time>
      </trkpt>
      <trkpt lat="49.7856" lon="4.84313">
        <ele>203</ele>
        <time>2021-05-15T10:40:47.000Z</time>
      </trkpt>
      <trkpt lat="49.78553" lon="4.84312">
        <ele>203</ele>
        <time>2021-05-15T10:40:48.000Z</time>
      </trkpt>
      <trkpt lat="49.78547" lon="4.84312">
        <ele>202</ele>
        <time>2021-05-15T10:40:49.000Z</time>
      </trkpt>
      <trkpt lat="49.7854" lon="4.84311">
        <ele>202</ele>
        <time>2021-05-15T10:40:50.000Z</time>
      </trkpt>
      <trkpt lat="49.78534" lon="4.8431">
        <ele>202</ele>
        <time>2021-05-15T10:40:51.000Z</time>
      </trkpt>
      <trkpt lat="49.78527" lon="4.84309">
        <ele>201</ele>
        <time>2021-05-15T10:40:52.000Z</time>
      </trkpt>
      <trkpt lat="49.7852" lon="4.84309">
        <ele>201</ele>
        <time>2021-05-15T10:40:53.000Z</time>
      </trkpt>
      <trkpt lat="49.78514" lon="4.84308">
        <ele>201</ele>
        <time>2021-05-15T10:40:54.000Z</time>
      </trkpt>
      <trkpt lat="49.78507" lon="4.84307">
        <ele>200</ele>
        <time>2021-05-15T10:40:55.000Z</time>
      </trkpt>
      <trkpt lat="49.78501" lon="4.84306">
        <ele>200</ele>
        <time>2021-05-15T10:40:56.000Z</time>
      </trkpt>
      <trkpt lat="49.78494" lon="4.84306">
        <ele>200</ele>
        <time>2021-05-15T10:40:57.000Z</time>
      </trkpt>
      <trkpt lat="49.78488" lon="4.84305">
        <ele>199</ele>
        <time>2021-05-15T10:40:58.000Z</time>
      </trkpt>
      <trkpt lat="49.78481" lon="4.84305">
        <ele>199</ele>
        <time>2021-05-15T10:40:59.000Z</time>
      </trkpt>
      <trkpt lat="49.78475" lon="4.84304">
        <ele>199</ele>
        <time>2021-05-15T10:41:00.000Z</time>
      </trkpt>
      <trkpt lat="49.78468" lon="4.84304">
        <ele>199</ele>
        <time>2021-05-15T10:41:01.000Z</time>
      </trkpt>
      <trkpt lat="49.78461" lon="4.84303">
        <ele>199</ele>
        <time>2021-05-15T10:41:02.000Z</time>
      </trkpt>
      <trkpt lat="49.78455" lon="4.84303">
        <ele>198</ele>
        <time>2021-05-15T10:41:03.000Z</time>
      </trkpt>
      <trkpt lat="49.78449" lon="4.84302">
        <ele>198</ele>
        <time>2021-05-15T10:41:04.000Z</time>
      </trkpt>
      <trkpt lat="49.78443" lon="4.84302">
        <ele>198</ele>
        <time>2021-05-15T10:41:05.000Z</time>
      </trkpt>
      <trkpt lat="49.78437" lon="4.84303">
        <ele>198</ele>
        <time>2021-05-15T10:41:06.000Z</time>
      </trkpt>
      <trkpt lat="49.78431" lon="4.84304">
        <ele>198</ele>
        <time>2021-05-15T10:41:07.000Z</time>
      </trkpt>
      <trkpt lat="49.78426" lon="4.84308">
        <ele>198</ele>
        <time>2021-05-15T10:41:08.000Z</time>
      </trkpt>
      <trkpt lat="49.78421" lon="4.84313">
        <ele>198</ele>
        <time>2021-05-15T10:41:09.000Z</time>
      </trkpt>
      <trkpt lat="49.78416" lon="4.84317">
        <ele>198</ele>
        <time>2021-05-15T10:41:10.000Z</time>
      </trkpt>
      <trkpt lat="49.78411" lon="4.84322">
        <ele>198</ele>
        <time>2021-05-15T10:41:11.000Z</time>
      </trkpt>
      <trkpt lat="49.78406" lon="4.84328">
        <ele>198</ele>
        <time>2021-05-15T10:41:12.000Z</time>
      </trkpt>
      <trkpt lat="49.78401" lon="4.84332">
        <ele>197</ele>
        <time>2021-05-15T10:41:13.000Z</time>
      </trkpt>
      <trkpt lat="49.78396" lon="4.84337">
        <ele>197</ele>
        <time>2021-05-15T10:41:14.000Z</time>
      </trkpt>
      <trkpt lat="49.7839" lon="4.8434">
        <ele>197</ele>
        <time>2021-05-15T10:41:15.000Z</time>
      </trkpt>
      <trkpt lat="49.78385" lon="4.84344">
        <ele>197</ele>
        <time>2021-05-15T10:41:16.000Z</time>
      </trkpt>
      <trkpt lat="49.7838" lon="4.84346">
        <ele>197</ele>
        <time>2021-05-15T10:41:17.000Z</time>
      </trkpt>
      <trkpt lat="49.78375" lon="4.84347">
        <ele>197</ele>
        <time>2021-05-15T10:41:18.000Z</time>
      </trkpt>
      <trkpt lat="49.7837" lon="4.84345">
        <ele>197</ele>
        <time>2021-05-15T10:41:19.000Z</time>
      </trkpt>
      <trkpt lat="49.78366" lon="4.84342">
        <ele>197</ele>
        <time>2021-05-15T10:41:20.000Z</time>
      </trkpt>
      <trkpt lat="49.78362" lon="4.84339">
        <ele>197</ele>
        <time>2021-05-15T10:41:21.000Z</time>
      </trkpt>
      <trkpt lat="49.78357" lon="4.84336">
        <ele>197</ele>
        <time>2021-05-15T10:41:22.000Z</time>
      </trkpt>
      <trkpt lat="49.78353" lon="4.84332">
        <ele>197</ele>
        <time>2021-05-15T10:41:23.000Z</time>
      </trkpt>
      <trkpt lat="49.78348" lon="4.84328">
        <ele>197</ele>
        <time>2021-05-15T10:41:24.000Z</time>
      </trkpt>
      <trkpt lat="49.78343" lon="4.84324">
        <ele>196</ele>
        <time>2021-05-15T10:41:25.000Z</time>
      </trkpt>
      <trkpt lat="49.78338" lon="4.8432">
        <ele>196</ele>
        <time>2021-05-15T10:41:26.000Z</time>
      </trkpt>
      <trkpt lat="49.78333" lon="4.84317">
        <ele>196</ele>
        <time>2021-05-15T10:41:27.000Z</time>
      </trkpt>
      <trkpt lat="49.78329" lon="4.84313">
        <ele>196</ele>
        <time>2021-05-15T10:41:28.000Z</time>
      </trkpt>
      <trkpt lat="49.78325" lon="4.84309">
        <ele>196</ele>
        <time>2021-05-15T10:41:29.000Z</time>
      </trkpt>
      <trkpt lat="49.7832" lon="4.84306">
        <ele>196</ele>
        <time>2021-05-15T10:41:30.000Z</time>
      </trkpt>
      <trkpt lat="49.78315" lon="4.84302">
        <ele>196</ele>
        <time>2021-05-15T10:41:31.000Z</time>
      </trkpt>
      <trkpt lat="49.7831" lon="4.84299">
        <ele>196</ele>
        <time>2021-05-15T10:41:32.000Z</time>
      </trkpt>
      <trkpt lat="49.78305" lon="4.84295">
        <ele>196</ele>
        <time>2021-05-15T10:41:33.000Z</time>
      </trkpt>
      <trkpt lat="49.783" lon="4.84291">
        <ele>196</ele>
        <time>2021-05-15T10:41:34.000Z</time>
      </trkpt>
      <trkpt lat="49.78296" lon="4.84287">
        <ele>196</ele>
        <time>2021-05-15T10:41:35.000Z</time>
      </trkpt>
      <trkpt lat="49.7829" lon="4.84284">
        <ele>196</ele>
        <time>2021-05-15T10:41:36.000Z</time>
      </trkpt>
      <trkpt lat="49.78285" lon="4.84281">
        <ele>196</ele>
        <time>2021-05-15T10:41:37.000Z</time>
      </trkpt>
      <trkpt lat="49.78279" lon="4.84277">
        <ele>196</ele>
        <time>2021-05-15T10:41:38.000Z</time>
      </trkpt>
      <trkpt lat="49.78274" lon="4.84272">
        <ele>196</ele>
        <time>2021-05-15T10:41:39.000Z</time>
      </trkpt>
      <trkpt lat="49.78269" lon="4.84266">
        <ele>196</ele>
        <time>2021-05-15T10:41:40.000Z</time>
      </trkpt>
      <trkpt lat="49.78264" lon="4.8426">
        <ele>196</ele>
        <time>2021-05-15T10:41:41.000Z</time>
      </trkpt>
      <trkpt lat="49.7826" lon="4.84253">
        <ele>196</ele>
        <time>2021-05-15T10:41:42.000Z</time>
      </trkpt>
      <trkpt lat="49.78255" lon="4.84245">
        <ele>196</ele>
        <time>2021-05-15T10:41:43.000Z</time>
      </trkpt>
      <trkpt lat="49.78251" lon="4.84237">
        <ele>196</ele>
        <time>2021-05-15T10:41:44.000Z</time>
      </trkpt>
      <trkpt lat="49.78249" lon="4.8423">
        <ele>196</ele>
        <time>2021-05-15T10:41:45.000Z</time>
      </trkpt>
      <trkpt lat="49.78246" lon="4.84223">
        <ele>196</ele>
        <time>2021-05-15T10:41:46.000Z</time>
      </trkpt>
      <trkpt lat="49.78244" lon="4.84216">
        <ele>196</ele>
        <time>2021-05-15T10:41:47.000Z</time>
      </trkpt>
      <trkpt lat="49.78242" lon="4.84209">
        <ele>196</ele>
        <time>2021-05-15T10:41:48.000Z</time>
      </trkpt>
      <trkpt lat="49.7824" lon="4.84202">
        <ele>195</ele>
        <time>2021-05-15T10:41:49.000Z</time>
      </trkpt>
      <trkpt lat="49.78238" lon="4.84196">
        <ele>195</ele>
        <time>2021-05-15T10:41:50.000Z</time>
      </trkpt>
      <trkpt lat="49.78236" lon="4.8419">
        <ele>195</ele>
        <time>2021-05-15T10:41:51.000Z</time>
      </trkpt>
      <trkpt lat="49.78234" lon="4.84185">
        <ele>195</ele>
        <time>2021-05-15T10:41:52.000Z</time>
      </trkpt>
      <trkpt lat="49.78232" lon="4.84178">
        <ele>195</ele>
        <time>2021-05-15T10:41:53.000Z</time>
      </trkpt>
      <trkpt lat="49.78229" lon="4.84172">
        <ele>195</ele>
        <time>2021-05-15T10:41:54.000Z</time>
      </trkpt>
      <trkpt lat="49.78227" lon="4.84167">
        <ele>195</ele>
        <time>2021-05-15T10:41:55.000Z</time>
      </trkpt>
      <trkpt lat="49.78224" lon="4.84161">
        <ele>195</ele>
        <time>2021-05-15T10:41:56.000Z</time>
      </trkpt>
      <trkpt lat="49.78221" lon="4.84155">
        <ele>195</ele>
        <time>2021-05-15T10:41:57.000Z</time>
      </trkpt>
      <trkpt lat="49.78218" lon="4.8415">
        <ele>195</ele>
        <time>2021-05-15T10:41:58.000Z</time>
      </trkpt>
      <trkpt lat="49.78215" lon="4.84144">
        <ele>195</ele>
        <time>2021-05-15T10:41:59.000Z</time>
      </trkpt>
      <trkpt lat="49.78212" lon="4.84139">
        <ele>194</ele>
        <time>2021-05-15T10:42:00.000Z</time>
      </trkpt>
      <trkpt lat="49.78209" lon="4.84134">
        <ele>194</ele>
        <time>2021-05-15T10:42:01.000Z</time>
      </trkpt>
      <trkpt lat="49.78206" lon="4.84129">
        <ele>194</ele>
        <time>2021-05-15T10:42:02.000Z</time>
      </trkpt>
      <trkpt lat="49.78202" lon="4.84125">
        <ele>194</ele>
        <time>2021-05-15T10:42:03.000Z</time>
      </trkpt>
      <trkpt lat="49.78198" lon="4.84123">
        <ele>194</ele>
        <time>2021-05-15T10:42:04.000Z</time>
      </trkpt>
      <trkpt lat="49.78194" lon="4.8412">
        <ele>194</ele>
        <time>2021-05-15T10:42:05.000Z</time>
      </trkpt>
      <trkpt lat="49.7819" lon="4.84117">
        <ele>194</ele>
        <time>2021-05-15T10:42:06.000Z</time>
      </trkpt>
      <trkpt lat="49.78186" lon="4.84116">
        <ele>194</ele>
        <time>2021-05-15T10:42:07.000Z</time>
      </trkpt>
      <trkpt lat="49.78183" lon="4.84114">
        <ele>194</ele>
        <time>2021-05-15T10:42:08.000Z</time>
      </trkpt>
      <trkpt lat="49.7818" lon="4.84112">
        <ele>194</ele>
        <time>2021-05-15T10:42:09.000Z</time>
      </trkpt>
      <trkpt lat="49.78177" lon="4.84109">
        <ele>194</ele>
        <time>2021-05-15T10:42:10.000Z</time>
      </trkpt>
      <trkpt lat="49.78174" lon="4.84107">
        <ele>194</ele>
        <time>2021-05-15T10:42:11.000Z</time>
      </trkpt>
      <trkpt lat="49.7817" lon="4.84105">
        <ele>194</ele>
        <time>2021-05-15T10:42:12.000Z</time>
      </trkpt>
      <trkpt lat="49.78167" lon="4.84103">
        <ele>194</ele>
        <time>2021-05-15T10:42:13.000Z</time>
      </trkpt>
      <trkpt lat="49.78163" lon="4.84101">
        <ele>194</ele>
        <time>2021-05-15T10:42:14.000Z</time>
      </trkpt>
      <trkpt lat="49.78159" lon="4.84098">
        <ele>194</ele>
        <time>2021-05-15T10:42:15.000Z</time>
      </trkpt>
      <trkpt lat="49.78156" lon="4.84096">
        <ele>194</ele>
        <time>2021-05-15T10:42:16.000Z</time>
      </trkpt>
      <trkpt lat="49.78152" lon="4.84093">
        <ele>194</ele>
        <time>2021-05-15T10:42:17.000Z</time>
      </trkpt>
      <trkpt lat="49.78148" lon="4.84091">
        <ele>194</ele>
        <time>2021-05-15T10:42:18.000Z</time>
      </trkpt>
      <trkpt lat="49.78144" lon="4.84089">
        <ele>194</ele>
        <time>2021-05-15T10:42:19.000Z</time>
      </trkpt>
      <trkpt lat="49.78141" lon="4.84087">
        <ele>194</ele>
        <time>2021-05-15T10:42:20.000Z</time>
      </trkpt>
      <trkpt lat="49.78138" lon="4.84085">
        <ele>194</ele>
        <time>2021-05-15T10:42:21.000Z</time>
      </trkpt>
      <trkpt lat="49.78134" lon="4.84083">
        <ele>194</ele>
        <time>2021-05-15T10:42:22.000Z</time>
      </trkpt>
      <trkpt lat="49.78131" lon="4.84081">
        <ele>194</ele>
        <time>2021-05-15T10:42:23.000Z</time>
      </trkpt>
      <trkpt lat="49.78128" lon="4.84078">
        <ele>194</ele>
        <time>2021-05-15T10:42:24.000Z</time>
      </trkpt>
      <trkpt lat="49.78124" lon="4.84076">
        <ele>194</ele>
        <time>2021-05-15T10:42:25.000Z</time>
      </trkpt>
      <trkpt lat="49.78121" lon="4.84074">
        <ele>194</ele>
        <time>2021-05-15T10:42:26.000Z</time>
      </trkpt>
      <trkpt lat="49.78117" lon="4.84072">
        <ele>194</ele>
        <time>2021-05-15T10:42:27.000Z</time>
      </trkpt>
      <trkpt lat="49.78113" lon="4.84069">
        <ele>194</ele>
        <time>2021-05-15T10:42:28.000Z</time>
      </trkpt>
      <trkpt lat="49.78109" lon="4.84066">
        <ele>194</ele>
        <time>2021-05-15T10:42:29.000Z</time>
      </trkpt>
      <trkpt lat="49.78105" lon="4.84064">
        <ele>194</ele>
        <time>2021-05-15T10:42:30.000Z</time>
      </trkpt>
      <trkpt lat="49.78102" lon="4.84062">
        <ele>194</ele>
        <time>2021-05-15T10:42:31.000Z</time>
      </trkpt>
      <trkpt lat="49.78098" lon="4.8406">
        <ele>195</ele>
        <time>2021-05-15T10:42:32.000Z</time>
      </trkpt>
      <trkpt lat="49.78094" lon="4.84058">
        <ele>195</ele>
        <time>2021-05-15T10:42:33.000Z</time>
      </trkpt>
      <trkpt lat="49.78091" lon="4.84055">
        <ele>195</ele>
        <time>2021-05-15T10:42:34.000Z</time>
      </trkpt>
      <trkpt lat="49.78087" lon="4.84053">
        <ele>195</ele>
        <time>2021-05-15T10:42:35.000Z</time>
      </trkpt>
      <trkpt lat="49.78083" lon="4.8405">
        <ele>195</ele>
        <time>2021-05-15T10:42:36.000Z</time>
      </trkpt>
      <trkpt lat="49.7808" lon="4.84048">
        <ele>195</ele>
        <time>2021-05-15T10:42:37.000Z</time>
      </trkpt>
      <trkpt lat="49.78076" lon="4.84045">
        <ele>195</ele>
        <time>2021-05-15T10:42:38.000Z</time>
      </trkpt>
      <trkpt lat="49.78072" lon="4.84043">
        <ele>195</ele>
        <time>2021-05-15T10:42:39.000Z</time>
      </trkpt>
      <trkpt lat="49.78068" lon="4.8404">
        <ele>195</ele>
        <time>2021-05-15T10:42:40.000Z</time>
      </trkpt>
      <trkpt lat="49.78064" lon="4.84037">
        <ele>195</ele>
        <time>2021-05-15T10:42:41.000Z</time>
      </trkpt>
      <trkpt lat="49.7806" lon="4.84034">
        <ele>196</ele>
        <time>2021-05-15T10:42:42.000Z</time>
      </trkpt>
      <trkpt lat="49.78056" lon="4.84032">
        <ele>196</ele>
        <time>2021-05-15T10:42:43.000Z</time>
      </trkpt>
      <trkpt lat="49.78052" lon="4.8403">
        <ele>196</ele>
        <time>2021-05-15T10:42:44.000Z</time>
      </trkpt>
      <trkpt lat="49.78048" lon="4.84028">
        <ele>196</ele>
        <time>2021-05-15T10:42:45.000Z</time>
      </trkpt>
      <trkpt lat="49.78045" lon="4.84027">
        <ele>196</ele>
        <time>2021-05-15T10:42:46.000Z</time>
      </trkpt>
      <trkpt lat="49.7804" lon="4.84024">
        <ele>196</ele>
        <time>2021-05-15T10:42:47.000Z</time>
      </trkpt>
      <trkpt lat="49.78037" lon="4.84022">
        <ele>197</ele>
        <time>2021-05-15T10:42:48.000Z</time>
      </trkpt>
      <trkpt lat="49.78032" lon="4.8402">
        <ele>197</ele>
        <time>2021-05-15T10:42:49.000Z</time>
      </trkpt>
      <trkpt lat="49.78029" lon="4.84018">
        <ele>197</ele>
        <time>2021-05-15T10:42:50.000Z</time>
      </trkpt>
      <trkpt lat="49.78024" lon="4.84015">
        <ele>197</ele>
        <time>2021-05-15T10:42:51.000Z</time>
      </trkpt>
      <trkpt lat="49.7802" lon="4.84013">
        <ele>197</ele>
        <time>2021-05-15T10:42:52.000Z</time>
      </trkpt>
      <trkpt lat="49.78016" lon="4.8401">
        <ele>197</ele>
        <time>2021-05-15T10:42:53.000Z</time>
      </trkpt>
      <trkpt lat="49.78012" lon="4.84007">
        <ele>197</ele>
        <time>2021-05-15T10:42:54.000Z</time>
      </trkpt>
      <trkpt lat="49.78008" lon="4.84003">
        <ele>197</ele>
        <time>2021-05-15T10:42:55.000Z</time>
      </trkpt>
      <trkpt lat="49.78003" lon="4.83999">
        <ele>197</ele>
        <time>2021-05-15T10:42:56.000Z</time>
      </trkpt>
      <trkpt lat="49.78" lon="4.83995">
        <ele>197</ele>
        <time>2021-05-15T10:42:57.000Z</time>
      </trkpt>
      <trkpt lat="49.77996" lon="4.8399">
        <ele>197</ele>
        <time>2021-05-15T10:42:58.000Z</time>
      </trkpt>
      <trkpt lat="49.77992" lon="4.83986">
        <ele>198</ele>
        <time>2021-05-15T10:42:59.000Z</time>
      </trkpt>
      <trkpt lat="49.77988" lon="4.83982">
        <ele>198</ele>
        <time>2021-05-15T10:43:00.000Z</time>
      </trkpt>
      <trkpt lat="49.77984" lon="4.83977">
        <ele>198</ele>
        <time>2021-05-15T10:43:01.000Z</time>
      </trkpt>
      <trkpt lat="49.7798" lon="4.83973">
        <ele>198</ele>
        <time>2021-05-15T10:43:02.000Z</time>
      </trkpt>
      <trkpt lat="49.77976" lon="4.83969">
        <ele>198</ele>
        <time>2021-05-15T10:43:03.000Z</time>
      </trkpt>
      <trkpt lat="49.77973" lon="4.83965">
        <ele>198</ele>
        <time>2021-05-15T10:43:04.000Z</time>
      </trkpt>
      <trkpt lat="49.77969" lon="4.8396">
        <ele>198</ele>
        <time>2021-05-15T10:43:05.000Z</time>
      </trkpt>
      <trkpt lat="49.77965" lon="4.83955">
        <ele>198</ele>
        <time>2021-05-15T10:43:06.000Z</time>
      </trkpt>
      <trkpt lat="49.77962" lon="4.83951">
        <ele>198</ele>
        <time>2021-05-15T10:43:07.000Z</time>
      </trkpt>
      <trkpt lat="49.77958" lon="4.83946">
        <ele>198</ele>
        <time>2021-05-15T10:43:08.000Z</time>
      </trkpt>
      <trkpt lat="49.77955" lon="4.83941">
        <ele>198</ele>
        <time>2021-05-15T10:43:09.000Z</time>
      </trkpt>
      <trkpt lat="49.77951" lon="4.83936">
        <ele>198</ele>
        <time>2021-05-15T10:43:10.000Z</time>
      </trkpt>
      <trkpt lat="49.77948" lon="4.83931">
        <ele>198</ele>
        <time>2021-05-15T10:43:11.000Z</time>
      </trkpt>
      <trkpt lat="49.77944" lon="4.83926">
        <ele>198</ele>
        <time>2021-05-15T10:43:12.000Z</time>
      </trkpt>
      <trkpt lat="49.7794" lon="4.83921">
        <ele>198</ele>
        <time>2021-05-15T10:43:13.000Z</time>
      </trkpt>
      <trkpt lat="49.77936" lon="4.83916">
        <ele>198</ele>
        <time>2021-05-15T10:43:14.000Z</time>
      </trkpt>
      <trkpt lat="49.77933" lon="4.83912">
        <ele>198</ele>
        <time>2021-05-15T10:43:15.000Z</time>
      </trkpt>
      <trkpt lat="49.77929" lon="4.83907">
        <ele>198</ele>
        <time>2021-05-15T10:43:16.000Z</time>
      </trkpt>
      <trkpt lat="49.77925" lon="4.83902">
        <ele>198</ele>
        <time>2021-05-15T10:43:17.000Z</time>
      </trkpt>
      <trkpt lat="49.77922" lon="4.83897">
        <ele>198</ele>
        <time>2021-05-15T10:43:18.000Z</time>
      </trkpt>
      <trkpt lat="49.77918" lon="4.83893">
        <ele>198</ele>
        <time>2021-05-15T10:43:19.000Z</time>
      </trkpt>
      <trkpt lat="49.77915" lon="4.83888">
        <ele>198</ele>
        <time>2021-05-15T10:43:20.000Z</time>
      </trkpt>
      <trkpt lat="49.77911" lon="4.83883">
        <ele>198</ele>
        <time>2021-05-15T10:43:21.000Z</time>
      </trkpt>
      <trkpt lat="49.77908" lon="4.83879">
        <ele>198</ele>
        <time>2021-05-15T10:43:22.000Z</time>
      </trkpt>
      <trkpt lat="49.77904" lon="4.83874">
        <ele>198</ele>
        <time>2021-05-15T10:43:23.000Z</time>
      </trkpt>
      <trkpt lat="49.77901" lon="4.83869">
        <ele>199</ele>
        <time>2021-05-15T10:43:24.000Z</time>
      </trkpt>
      <trkpt lat="49.77897" lon="4.83865">
        <ele>199</ele>
        <time>2021-05-15T10:43:25.000Z</time>
      </trkpt>
      <trkpt lat="49.77894" lon="4.8386">
        <ele>199</ele>
        <time>2021-05-15T10:43:26.000Z</time>
      </trkpt>
      <trkpt lat="49.7789" lon="4.83856">
        <ele>199</ele>
        <time>2021-05-15T10:43:27.000Z</time>
      </trkpt>
      <trkpt lat="49.77887" lon="4.83851">
        <ele>199</ele>
        <time>2021-05-15T10:43:28.000Z</time>
      </trkpt>
      <trkpt lat="49.77883" lon="4.83846">
        <ele>199</ele>
        <time>2021-05-15T10:43:29.000Z</time>
      </trkpt>
      <trkpt lat="49.77879" lon="4.83842">
        <ele>199</ele>
        <time>2021-05-15T10:43:30.000Z</time>
      </trkpt>
      <trkpt lat="49.77876" lon="4.83837">
        <ele>199</ele>
        <time>2021-05-15T10:43:31.000Z</time>
      </trkpt>
      <trkpt lat="49.77873" lon="4.83832">
        <ele>199</ele>
        <time>2021-05-15T10:43:32.000Z</time>
      </trkpt>
      <trkpt lat="49.77869" lon="4.83828">
        <ele>199</ele>
        <time>2021-05-15T10:43:33.000Z</time>
      </trkpt>
      <trkpt lat="49.77866" lon="4.83824">
        <ele>199</ele>
        <time>2021-05-15T10:43:34.000Z</time>
      </trkpt>
      <trkpt lat="49.77863" lon="4.83822">
        <ele>199</ele>
        <time>2021-05-15T10:43:35.000Z</time>
      </trkpt>
      <trkpt lat="49.7786" lon="4.83822">
        <ele>199</ele>
        <time>2021-05-15T10:43:36.000Z</time>
      </trkpt>
      <trkpt lat="49.77858" lon="4.83822">
        <ele>199</ele>
        <time>2021-05-15T10:43:37.000Z</time>
      </trkpt>
      <trkpt lat="49.77856" lon="4.83823">
        <ele>199</ele>
        <time>2021-05-15T10:43:38.000Z</time>
      </trkpt>
      <trkpt lat="49.77854" lon="4.83824">
        <ele>199</ele>
        <time>2021-05-15T10:43:39.000Z</time>
      </trkpt>
      <trkpt lat="49.77852" lon="4.83823">
        <ele>199</ele>
        <time>2021-05-15T10:43:40.000Z</time>
      </trkpt>
      <trkpt lat="49.7785" lon="4.83823">
        <ele>199</ele>
        <time>2021-05-15T10:43:41.000Z</time>
      </trkpt>
      <trkpt lat="49.77849" lon="4.83822">
        <ele>199</ele>
        <time>2021-05-15T10:43:42.000Z</time>
      </trkpt>
      <trkpt lat="49.77848" lon="4.83822">
        <ele>199</ele>
        <time>2021-05-15T10:43:43.000Z</time>
      </trkpt>
      <trkpt lat="49.77846" lon="4.83822">
        <ele>199</ele>
        <time>2021-05-15T10:43:44.000Z</time>
      </trkpt>
      <trkpt lat="49.77845" lon="4.83821">
        <ele>199</ele>
        <time>2021-05-15T10:43:45.000Z</time>
      </trkpt>
      <trkpt lat="49.77843" lon="4.83821">
        <ele>200</ele>
        <time>2021-05-15T10:43:46.000Z</time>
      </trkpt>
      <trkpt lat="49.77842" lon="4.8382">
        <ele>200</ele>
        <time>2021-05-15T10:43:47.000Z</time>
      </trkpt>
      <trkpt lat="49.77842" lon="4.8382">
        <ele>200</ele>
        <time>2021-05-15T10:43:48.000Z</time>
      </trkpt>
      <trkpt lat="49.77841" lon="4.83819">
        <ele>200</ele>
        <time>2021-05-15T10:43:49.000Z</time>
      </trkpt>
      <trkpt lat="49.7784" lon="4.83819">
        <ele>200</ele>
        <time>2021-05-15T10:43:50.000Z</time>
      </trkpt>
      <trkpt lat="49.77838" lon="4.83819">
        <ele>200</ele>
        <time>2021-05-15T10:43:51.000Z</time>
      </trkpt>
      <trkpt lat="49.77836" lon="4.83818">
        <ele>200</ele>
        <time>2021-05-15T10:43:52.000Z</time>
      </trkpt>
      <trkpt lat="49.77834" lon="4.83818">
        <ele>200</ele>
        <time>2021-05-15T10:43:53.000Z</time>
      </trkpt>
      <trkpt lat="49.77832" lon="4.83817">
        <ele>201</ele>
        <time>2021-05-15T10:43:54.000Z</time>
      </trkpt>
      <trkpt lat="49.7783" lon="4.83815">
        <ele>201</ele>
        <time>2021-05-15T10:43:55.000Z</time>
      </trkpt>
      <trkpt lat="49.77828" lon="4.83815">
        <ele>201</ele>
        <time>2021-05-15T10:43:56.000Z</time>
      </trkpt>
      <trkpt lat="49.77826" lon="4.83815">
        <ele>201</ele>
        <time>2021-05-15T10:43:57.000Z</time>
      </trkpt>
      <trkpt lat="49.77824" lon="4.83814">
        <ele>202</ele>
        <time>2021-05-15T10:43:58.000Z</time>
      </trkpt>
      <trkpt lat="49.77822" lon="4.83814">
        <ele>202</ele>
        <time>2021-05-15T10:43:59.000Z</time>
      </trkpt>
      <trkpt lat="49.7782" lon="4.83814">
        <ele>202</ele>
        <time>2021-05-15T10:44:00.000Z</time>
      </trkpt>
      <trkpt lat="49.77819" lon="4.83814">
        <ele>202</ele>
        <time>2021-05-15T10:44:01.000Z</time>
      </trkpt>
      <trkpt lat="49.77817" lon="4.83813">
        <ele>203</ele>
        <time>2021-05-15T10:44:02.000Z</time>
      </trkpt>
      <trkpt lat="49.77816" lon="4.83812">
        <ele>203</ele>
        <time>2021-05-15T10:44:03.000Z</time>
      </trkpt>
      <trkpt lat="49.77814" lon="4.83812">
        <ele>203</ele>
        <time>2021-05-15T10:44:04.000Z</time>
      </trkpt>
      <trkpt lat="49.77813" lon="4.83812">
        <ele>203</ele>
        <time>2021-05-15T10:44:05.000Z</time>
      </trkpt>
      <trkpt lat="49.77812" lon="4.83811">
        <ele>203</ele>
        <time>2021-05-15T10:44:06.000Z</time>
      </trkpt>
      <trkpt lat="49.7781" lon="4.83811">
        <ele>204</ele>
        <time>2021-05-15T10:44:07.000Z</time>
      </trkpt>
      <trkpt lat="49.77808" lon="4.83811">
        <ele>204</ele>
        <time>2021-05-15T10:44:08.000Z</time>
      </trkpt>
      <trkpt lat="49.77806" lon="4.8381">
        <ele>204</ele>
        <time>2021-05-15T10:44:09.000Z</time>
      </trkpt>
      <trkpt lat="49.77804" lon="4.8381">
        <ele>205</ele>
        <time>2021-05-15T10:44:10.000Z</time>
      </trkpt>
      <trkpt lat="49.77801" lon="4.83808">
        <ele>205</ele>
        <time>2021-05-15T10:44:11.000Z</time>
      </trkpt>
      <trkpt lat="49.77798" lon="4.83808">
        <ele>206</ele>
        <time>2021-05-15T10:44:12.000Z</time>
      </trkpt>
      <trkpt lat="49.77795" lon="4.83806">
        <ele>206</ele>
        <time>2021-05-15T10:44:13.000Z</time>
      </trkpt>
      <trkpt lat="49.77791" lon="4.83805">
        <ele>206</ele>
        <time>2021-05-15T10:44:14.000Z</time>
      </trkpt>
      <trkpt lat="49.77788" lon="4.83805">
        <ele>207</ele>
        <time>2021-05-15T10:44:15.000Z</time>
      </trkpt>
      <trkpt lat="49.77785" lon="4.83805">
        <ele>207</ele>
        <time>2021-05-15T10:44:16.000Z</time>
      </trkpt>
      <trkpt lat="49.77783" lon="4.83805">
        <ele>208</ele>
        <time>2021-05-15T10:44:17.000Z</time>
      </trkpt>
      <trkpt lat="49.77781" lon="4.83804">
        <ele>208</ele>
        <time>2021-05-15T10:44:18.000Z</time>
      </trkpt>
      <trkpt lat="49.77779" lon="4.83804">
        <ele>208</ele>
        <time>2021-05-15T10:44:19.000Z</time>
      </trkpt>
      <trkpt lat="49.77778" lon="4.83804">
        <ele>209</ele>
        <time>2021-05-15T10:44:20.000Z</time>
      </trkpt>
      <trkpt lat="49.77777" lon="4.83804">
        <ele>209</ele>
        <time>2021-05-15T10:44:21.000Z</time>
      </trkpt>
      <trkpt lat="49.77775" lon="4.83804">
        <ele>210</ele>
        <time>2021-05-15T10:44:22.000Z</time>
      </trkpt>
      <trkpt lat="49.77774" lon="4.83803">
        <ele>210</ele>
        <time>2021-05-15T10:44:23.000Z</time>
      </trkpt>
      <trkpt lat="49.77772" lon="4.83802">
        <ele>211</ele>
        <time>2021-05-15T10:44:24.000Z</time>
      </trkpt>
      <trkpt lat="49.77771" lon="4.83802">
        <ele>211</ele>
        <time>2021-05-15T10:44:25.000Z</time>
      </trkpt>
      <trkpt lat="49.77769" lon="4.83802">
        <ele>212</ele>
        <time>2021-05-15T10:44:26.000Z</time>
      </trkpt>
      <trkpt lat="49.77767" lon="4.83802">
        <ele>212</ele>
        <time>2021-05-15T10:44:27.000Z</time>
      </trkpt>
      <trkpt lat="49.77765" lon="4.83801">
        <ele>213</ele>
        <time>2021-05-15T10:44:28.000Z</time>
      </trkpt>
      <trkpt lat="49.77763" lon="4.838">
        <ele>213</ele>
        <time>2021-05-15T10:44:29.000Z</time>
      </trkpt>
      <trkpt lat="49.77762" lon="4.838">
        <ele>214</ele>
        <time>2021-05-15T10:44:30.000Z</time>
      </trkpt>
      <trkpt lat="49.77759" lon="4.83799">
        <ele>214</ele>
        <time>2021-05-15T10:44:31.000Z</time>
      </trkpt>
      <trkpt lat="49.77758" lon="4.83799">
        <ele>215</ele>
        <time>2021-05-15T10:44:32.000Z</time>
      </trkpt>
      <trkpt lat="49.77756" lon="4.83798">
        <ele>215</ele>
        <time>2021-05-15T10:44:33.000Z</time>
      </trkpt>
      <trkpt lat="49.77754" lon="4.83797">
        <ele>216</ele>
        <time>2021-05-15T10:44:34.000Z</time>
      </trkpt>
      <trkpt lat="49.77752" lon="4.83796">
        <ele>216</ele>
        <time>2021-05-15T10:44:35.000Z</time>
      </trkpt>
      <trkpt lat="49.7775" lon="4.83795">
        <ele>216</ele>
        <time>2021-05-15T10:44:36.000Z</time>
      </trkpt>
      <trkpt lat="49.77748" lon="4.83794">
        <ele>217</ele>
        <time>2021-05-15T10:44:37.000Z</time>
      </trkpt>
      <trkpt lat="49.77746" lon="4.83793">
        <ele>217</ele>
        <time>2021-05-15T10:44:38.000Z</time>
      </trkpt>
      <trkpt lat="49.77744" lon="4.83793">
        <ele>217</ele>
        <time>2021-05-15T10:44:39.000Z</time>
      </trkpt>
      <trkpt lat="49.77741" lon="4.83793">
        <ele>218</ele>
        <time>2021-05-15T10:44:40.000Z</time>
      </trkpt>
      <trkpt lat="49.77739" lon="4.83792">
        <ele>218</ele>
        <time>2021-05-15T10:44:41.000Z</time>
      </trkpt>
      <trkpt lat="49.77738" lon="4.83792">
        <ele>219</ele>
        <time>2021-05-15T10:44:42.000Z</time>
      </trkpt>
      <trkpt lat="49.77736" lon="4.83791">
        <ele>219</ele>
        <time>2021-05-15T10:44:43.000Z</time>
      </trkpt>
      <trkpt lat="49.77735" lon="4.83791">
        <ele>219</ele>
        <time>2021-05-15T10:44:44.000Z</time>
      </trkpt>
      <trkpt lat="49.77733" lon="4.8379">
        <ele>220</ele>
        <time>2021-05-15T10:44:45.000Z</time>
      </trkpt>
      <trkpt lat="49.77731" lon="4.8379">
        <ele>220</ele>
        <time>2021-05-15T10:44:46.000Z</time>
      </trkpt>
      <trkpt lat="49.7773" lon="4.8379">
        <ele>221</ele>
        <time>2021-05-15T10:44:47.000Z</time>
      </trkpt>
      <trkpt lat="49.77728" lon="4.8379">
        <ele>221</ele>
        <time>2021-05-15T10:44:48.000Z</time>
      </trkpt>
      <trkpt lat="49.77725" lon="4.83789">
        <ele>221</ele>
        <time>2021-05-15T10:44:49.000Z</time>
      </trkpt>
      <trkpt lat="49.77723" lon="4.83788">
        <ele>222</ele>
        <time>2021-05-15T10:44:50.000Z</time>
      </trkpt>
      <trkpt lat="49.77721" lon="4.83787">
        <ele>222</ele>
        <time>2021-05-15T10:44:51.000Z</time>
      </trkpt>
      <trkpt lat="49.77719" lon="4.83785">
        <ele>223</ele>
        <time>2021-05-15T10:44:52.000Z</time>
      </trkpt>
      <trkpt lat="49.77717" lon="4.83782">
        <ele>223</ele>
        <time>2021-05-15T10:44:53.000Z</time>
      </trkpt>
      <trkpt lat="49.77714" lon="4.83779">
        <ele>223</ele>
        <time>2021-05-15T10:44:54.000Z</time>
      </trkpt>
      <trkpt lat="49.77711" lon="4.83775">
        <ele>223</ele>
        <time>2021-05-15T10:44:55.000Z</time>
      </trkpt>
      <trkpt lat="49.77709" lon="4.8377">
        <ele>224</ele>
        <time>2021-05-15T10:44:56.000Z</time>
      </trkpt>
      <trkpt lat="49.77706" lon="4.83766">
        <ele>224</ele>
        <time>2021-05-15T10:44:57.000Z</time>
      </trkpt>
      <trkpt lat="49.77704" lon="4.83761">
        <ele>224</ele>
        <time>2021-05-15T10:44:58.000Z</time>
      </trkpt>
      <trkpt lat="49.77702" lon="4.83757">
        <ele>224</ele>
        <time>2021-05-15T10:44:59.000Z</time>
      </trkpt>
      <trkpt lat="49.77701" lon="4.83752">
        <ele>224</ele>
        <time>2021-05-15T10:45:00.000Z</time>
      </trkpt>
      <trkpt lat="49.77699" lon="4.83747">
        <ele>224</ele>
        <time>2021-05-15T10:45:01.000Z</time>
      </trkpt>
      <trkpt lat="49.77697" lon="4.83743">
        <ele>225</ele>
        <time>2021-05-15T10:45:02.000Z</time>
      </trkpt>
      <trkpt lat="49.77695" lon="4.83738">
        <ele>225</ele>
        <time>2021-05-15T10:45:03.000Z</time>
      </trkpt>
      <trkpt lat="49.77693" lon="4.83733">
        <ele>225</ele>
        <time>2021-05-15T10:45:04.000Z</time>
      </trkpt>
      <trkpt lat="49.77691" lon="4.83727">
        <ele>225</ele>
        <time>2021-05-15T10:45:05.000Z</time>
      </trkpt>
      <trkpt lat="49.7769" lon="4.83723">
        <ele>225</ele>
        <time>2021-05-15T10:45:06.000Z</time>
      </trkpt>
      <trkpt lat="49.77689" lon="4.83718">
        <ele>225</ele>
        <time>2021-05-15T10:45:07.000Z</time>
      </trkpt>
      <trkpt lat="49.77687" lon="4.83713">
        <ele>225</ele>
        <time>2021-05-15T10:45:08.000Z</time>
      </trkpt>
      <trkpt lat="49.77685" lon="4.83707">
        <ele>225</ele>
        <time>2021-05-15T10:45:09.000Z</time>
      </trkpt>
      <trkpt lat="49.77684" lon="4.83701">
        <ele>225</ele>
        <time>2021-05-15T10:45:10.000Z</time>
      </trkpt>
      <trkpt lat="49.77683" lon="4.83695">
        <ele>225</ele>
        <time>2021-05-15T10:45:11.000Z</time>
      </trkpt>
      <trkpt lat="49.77682" lon="4.83689">
        <ele>225</ele>
        <time>2021-05-15T10:45:12.000Z</time>
      </trkpt>
      <trkpt lat="49.7768" lon="4.83683">
        <ele>224</ele>
        <time>2021-05-15T10:45:13.000Z</time>
      </trkpt>
      <trkpt lat="49.77679" lon="4.83677">
        <ele>224</ele>
        <time>2021-05-15T10:45:14.000Z</time>
      </trkpt>
      <trkpt lat="49.77678" lon="4.83672">
        <ele>224</ele>
        <time>2021-05-15T10:45:15.000Z</time>
      </trkpt>
      <trkpt lat="49.77677" lon="4.83666">
        <ele>224</ele>
        <time>2021-05-15T10:45:16.000Z</time>
      </trkpt>
      <trkpt lat="49.77676" lon="4.8366">
        <ele>224</ele>
        <time>2021-05-15T10:45:17.000Z</time>
      </trkpt>
      <trkpt lat="49.77675" lon="4.83654">
        <ele>224</ele>
        <time>2021-05-15T10:45:18.000Z</time>
      </trkpt>
      <trkpt lat="49.77673" lon="4.83648">
        <ele>224</ele>
        <time>2021-05-15T10:45:19.000Z</time>
      </trkpt>
      <trkpt lat="49.77672" lon="4.83643">
        <ele>224</ele>
        <time>2021-05-15T10:45:20.000Z</time>
      </trkpt>
      <trkpt lat="49.7767" lon="4.83637">
        <ele>224</ele>
        <time>2021-05-15T10:45:21.000Z</time>
      </trkpt>
      <trkpt lat="49.77668" lon="4.83632">
        <ele>224</ele>
        <time>2021-05-15T10:45:22.000Z</time>
      </trkpt>
      <trkpt lat="49.77665" lon="4.83627">
        <ele>224</ele>
        <time>2021-05-15T10:45:23.000Z</time>
      </trkpt>
      <trkpt lat="49.77664" lon="4.83622">
        <ele>224</ele>
        <time>2021-05-15T10:45:24.000Z</time>
      </trkpt>
      <trkpt lat="49.77662" lon="4.83617">
        <ele>224</ele>
        <time>2021-05-15T10:45:25.000Z</time>
      </trkpt>
      <trkpt lat="49.7766" lon="4.83612">
        <ele>224</ele>
        <time>2021-05-15T10:45:26.000Z</time>
      </trkpt>
      <trkpt lat="49.77659" lon="4.83607">
        <ele>224</ele>
        <time>2021-05-15T10:45:27.000Z</time>
      </trkpt>
      <trkpt lat="49.77658" lon="4.83603">
        <ele>224</ele>
        <time>2021-05-15T10:45:28.000Z</time>
      </trkpt>
      <trkpt lat="49.77657" lon="4.83597">
        <ele>224</ele>
        <time>2021-05-15T10:45:29.000Z</time>
      </trkpt>
      <trkpt lat="49.77656" lon="4.83593">
        <ele>224</ele>
        <time>2021-05-15T10:45:30.000Z</time>
      </trkpt>
      <trkpt lat="49.77654" lon="4.8359">
        <ele>224</ele>
        <time>2021-05-15T10:45:31.000Z</time>
      </trkpt>
      <trkpt lat="49.77652" lon="4.83586">
        <ele>224</ele>
        <time>2021-05-15T10:45:32.000Z</time>
      </trkpt>
      <trkpt lat="49.77651" lon="4.83583">
        <ele>224</ele>
        <time>2021-05-15T10:45:33.000Z</time>
      </trkpt>
      <trkpt lat="49.77649" lon="4.8358">
        <ele>224</ele>
        <time>2021-05-15T10:45:34.000Z</time>
      </trkpt>
      <trkpt lat="49.77648" lon="4.83577">
        <ele>224</ele>
        <time>2021-05-15T10:45:35.000Z</time>
      </trkpt>
      <trkpt lat="49.77646" lon="4.83574">
        <ele>224</ele>
        <time>2021-05-15T10:45:36.000Z</time>
      </trkpt>
      <trkpt lat="49.77644" lon="4.8357">
        <ele>224</ele>
        <time>2021-05-15T10:45:37.000Z</time>
      </trkpt>
      <trkpt lat="49.77642" lon="4.83567">
        <ele>224</ele>
        <time>2021-05-15T10:45:38.000Z</time>
      </trkpt>
      <trkpt lat="49.7764" lon="4.83563">
        <ele>224</ele>
        <time>2021-05-15T10:45:39.000Z</time>
      </trkpt>
      <trkpt lat="49.77638" lon="4.8356">
        <ele>224</ele>
        <time>2021-05-15T10:45:40.000Z</time>
      </trkpt>
      <trkpt lat="49.77637" lon="4.83557">
        <ele>224</ele>
        <time>2021-05-15T10:45:41.000Z</time>
      </trkpt>
      <trkpt lat="49.77636" lon="4.83553">
        <ele>224</ele>
        <time>2021-05-15T10:45:42.000Z</time>
      </trkpt>
      <trkpt lat="49.77634" lon="4.83549">
        <ele>224</ele>
        <time>2021-05-15T10:45:43.000Z</time>
      </trkpt>
      <trkpt lat="49.77633" lon="4.83546">
        <ele>224</ele>
        <time>2021-05-15T10:45:44.000Z</time>
      </trkpt>
      <trkpt lat="49.77631" lon="4.83542">
        <ele>225</ele>
        <time>2021-05-15T10:45:45.000Z</time>
      </trkpt>
      <trkpt lat="49.77629" lon="4.83539">
        <ele>225</ele>
        <time>2021-05-15T10:45:46.000Z</time>
      </trkpt>
      <trkpt lat="49.77627" lon="4.83536">
        <ele>225</ele>
        <time>2021-05-15T10:45:47.000Z</time>
      </trkpt>
      <trkpt lat="49.77624" lon="4.83532">
        <ele>225</ele>
        <time>2021-05-15T10:45:48.000Z</time>
      </trkpt>
      <trkpt lat="49.77622" lon="4.83529">
        <ele>225</ele>
        <time>2021-05-15T10:45:49.000Z</time>
      </trkpt>
      <trkpt lat="49.77619" lon="4.83526">
        <ele>225</ele>
        <time>2021-05-15T10:45:50.000Z</time>
      </trkpt>
      <trkpt lat="49.77617" lon="4.83523">
        <ele>226</ele>
        <time>2021-05-15T10:45:51.000Z</time>
      </trkpt>
      <trkpt lat="49.77615" lon="4.8352">
        <ele>226</ele>
        <time>2021-05-15T10:45:52.000Z</time>
      </trkpt>
      <trkpt lat="49.77614" lon="4.83517">
        <ele>226</ele>
        <time>2021-05-15T10:45:53.000Z</time>
      </trkpt>
      <trkpt lat="49.77613" lon="4.83514">
        <ele>226</ele>
        <time>2021-05-15T10:45:54.000Z</time>
      </trkpt>
      <trkpt lat="49.77612" lon="4.83512">
        <ele>226</ele>
        <time>2021-05-15T10:45:55.000Z</time>
      </trkpt>
      <trkpt lat="49.77611" lon="4.8351">
        <ele>227</ele>
        <time>2021-05-15T10:45:56.000Z</time>
      </trkpt>
      <trkpt lat="49.7761" lon="4.83507">
        <ele>227</ele>
        <time>2021-05-15T10:45:57.000Z</time>
      </trkpt>
      <trkpt lat="49.77608" lon="4.83505">
        <ele>227</ele>
        <time>2021-05-15T10:45:58.000Z</time>
      </trkpt>
      <trkpt lat="49.77607" lon="4.83503">
        <ele>227</ele>
        <time>2021-05-15T10:45:59.000Z</time>
      </trkpt>
      <trkpt lat="49.77606" lon="4.83501">
        <ele>227</ele>
        <time>2021-05-15T10:46:00.000Z</time>
      </trkpt>
      <trkpt lat="49.77604" lon="4.83499">
        <ele>228</ele>
        <time>2021-05-15T10:46:01.000Z</time>
      </trkpt>
      <trkpt lat="49.77603" lon="4.83498">
        <ele>228</ele>
        <time>2021-05-15T10:46:02.000Z</time>
      </trkpt>
      <trkpt lat="49.77601" lon="4.83496">
        <ele>228</ele>
        <time>2021-05-15T10:46:03.000Z</time>
      </trkpt>
      <trkpt lat="49.77599" lon="4.83494">
        <ele>228</ele>
        <time>2021-05-15T10:46:04.000Z</time>
      </trkpt>
      <trkpt lat="49.77597" lon="4.83492">
        <ele>228</ele>
        <time>2021-05-15T10:46:05.000Z</time>
      </trkpt>
      <trkpt lat="49.77594" lon="4.8349">
        <ele>228</ele>
        <time>2021-05-15T10:46:06.000Z</time>
      </trkpt>
      <trkpt lat="49.77592" lon="4.83488">
        <ele>229</ele>
        <time>2021-05-15T10:46:07.000Z</time>
      </trkpt>
      <trkpt lat="49.7759" lon="4.83486">
        <ele>229</ele>
        <time>2021-05-15T10:46:08.000Z</time>
      </trkpt>
      <trkpt lat="49.77587" lon="4.83484">
        <ele>229</ele>
        <time>2021-05-15T10:46:09.000Z</time>
      </trkpt>
      <trkpt lat="49.77585" lon="4.83482">
        <ele>229</ele>
        <time>2021-05-15T10:46:10.000Z</time>
      </trkpt>
      <trkpt lat="49.77582" lon="4.8348">
        <ele>229</ele>
        <time>2021-05-15T10:46:11.000Z</time>
      </trkpt>
      <trkpt lat="49.77579" lon="4.83478">
        <ele>230</ele>
        <time>2021-05-15T10:46:12.000Z</time>
      </trkpt>
      <trkpt lat="49.77576" lon="4.83477">
        <ele>230</ele>
        <time>2021-05-15T10:46:13.000Z</time>
      </trkpt>
      <trkpt lat="49.77573" lon="4.83475">
        <ele>230</ele>
        <time>2021-05-15T10:46:14.000Z</time>
      </trkpt>
      <trkpt lat="49.7757" lon="4.83473">
        <ele>230</ele>
        <time>2021-05-15T10:46:15.000Z</time>
      </trkpt>
      <trkpt lat="49.77567" lon="4.83471">
        <ele>231</ele>
        <time>2021-05-15T10:46:16.000Z</time>
      </trkpt>
      <trkpt lat="49.77564" lon="4.8347">
        <ele>231</ele>
        <time>2021-05-15T10:46:17.000Z</time>
      </trkpt>
      <trkpt lat="49.77561" lon="4.83469">
        <ele>231</ele>
        <time>2021-05-15T10:46:18.000Z</time>
      </trkpt>
      <trkpt lat="49.77558" lon="4.83468">
        <ele>231</ele>
        <time>2021-05-15T10:46:19.000Z</time>
      </trkpt>
      <trkpt lat="49.77554" lon="4.83467">
        <ele>231</ele>
        <time>2021-05-15T10:46:20.000Z</time>
      </trkpt>
      <trkpt lat="49.77551" lon="4.83466">
        <ele>231</ele>
        <time>2021-05-15T10:46:21.000Z</time>
      </trkpt>
      <trkpt lat="49.77547" lon="4.83465">
        <ele>231</ele>
        <time>2021-05-15T10:46:22.000Z</time>
      </trkpt>
      <trkpt lat="49.77543" lon="4.83463">
        <ele>231</ele>
        <time>2021-05-15T10:46:23.000Z</time>
      </trkpt>
      <trkpt lat="49.77539" lon="4.83462">
        <ele>231</ele>
        <time>2021-05-15T10:46:24.000Z</time>
      </trkpt>
      <trkpt lat="49.77535" lon="4.83461">
        <ele>232</ele>
        <time>2021-05-15T10:46:25.000Z</time>
      </trkpt>
      <trkpt lat="49.77531" lon="4.83461">
        <ele>232</ele>
        <time>2021-05-15T10:46:26.000Z</time>
      </trkpt>
      <trkpt lat="49.77527" lon="4.83461">
        <ele>232</ele>
        <time>2021-05-15T10:46:27.000Z</time>
      </trkpt>
      <trkpt lat="49.77524" lon="4.8346">
        <ele>232</ele>
        <time>2021-05-15T10:46:28.000Z</time>
      </trkpt>
      <trkpt lat="49.7752" lon="4.8346">
        <ele>232</ele>
        <time>2021-05-15T10:46:29.000Z</time>
      </trkpt>
      <trkpt lat="49.77516" lon="4.83459">
        <ele>233</ele>
        <time>2021-05-15T10:46:30.000Z</time>
      </trkpt>
      <trkpt lat="49.77512" lon="4.83459">
        <ele>233</ele>
        <time>2021-05-15T10:46:31.000Z</time>
      </trkpt>
      <trkpt lat="49.77508" lon="4.83458">
        <ele>233</ele>
        <time>2021-05-15T10:46:32.000Z</time>
      </trkpt>
      <trkpt lat="49.77505" lon="4.83458">
        <ele>233</ele>
        <time>2021-05-15T10:46:33.000Z</time>
      </trkpt>
      <trkpt lat="49.77501" lon="4.83457">
        <ele>233</ele>
        <time>2021-05-15T10:46:34.000Z</time>
      </trkpt>
      <trkpt lat="49.77497" lon="4.83457">
        <ele>234</ele>
        <time>2021-05-15T10:46:35.000Z</time>
      </trkpt>
      <trkpt lat="49.77494" lon="4.83456">
        <ele>234</ele>
        <time>2021-05-15T10:46:36.000Z</time>
      </trkpt>
      <trkpt lat="49.7749" lon="4.83456">
        <ele>234</ele>
        <time>2021-05-15T10:46:37.000Z</time>
      </trkpt>
      <trkpt lat="49.77486" lon="4.83456">
        <ele>235</ele>
        <time>2021-05-15T10:46:38.000Z</time>
      </trkpt>
      <trkpt lat="49.77482" lon="4.83456">
        <ele>235</ele>
        <time>2021-05-15T10:46:39.000Z</time>
      </trkpt>
      <trkpt lat="49.77479" lon="4.83456">
        <ele>235</ele>
        <time>2021-05-15T10:46:40.000Z</time>
      </trkpt>
      <trkpt lat="49.77475" lon="4.83456">
        <ele>235</ele>
        <time>2021-05-15T10:46:41.000Z</time>
      </trkpt>
      <trkpt lat="49.77471" lon="4.83456">
        <ele>235</ele>
        <time>2021-05-15T10:46:42.000Z</time>
      </trkpt>
      <trkpt lat="49.77467" lon="4.83456">
        <ele>236</ele>
        <time>2021-05-15T10:46:43.000Z</time>
      </trkpt>
      <trkpt lat="49.77464" lon="4.83456">
        <ele>236</ele>
        <time>2021-05-15T10:46:44.000Z</time>
      </trkpt>
      <trkpt lat="49.7746" lon="4.83457">
        <ele>236</ele>
        <time>2021-05-15T10:46:45.000Z</time>
      </trkpt>
      <trkpt lat="49.77457" lon="4.83456">
        <ele>236</ele>
        <time>2021-05-15T10:46:46.000Z</time>
      </trkpt>
      <trkpt lat="49.77453" lon="4.83456">
        <ele>236</ele>
        <time>2021-05-15T10:46:47.000Z</time>
      </trkpt>
      <trkpt lat="49.77449" lon="4.83456">
        <ele>237</ele>
        <time>2021-05-15T10:46:48.000Z</time>
      </trkpt>
      <trkpt lat="49.77445" lon="4.83456">
        <ele>237</ele>
        <time>2021-05-15T10:46:49.000Z</time>
      </trkpt>
      <trkpt lat="49.77442" lon="4.83456">
        <ele>238</ele>
        <time>2021-05-15T10:46:50.000Z</time>
      </trkpt>
      <trkpt lat="49.77438" lon="4.83456">
        <ele>238</ele>
        <time>2021-05-15T10:46:51.000Z</time>
      </trkpt>
      <trkpt lat="49.77435" lon="4.83456">
        <ele>238</ele>
        <time>2021-05-15T10:46:52.000Z</time>
      </trkpt>
      <trkpt lat="49.77431" lon="4.83456">
        <ele>239</ele>
        <time>2021-05-15T10:46:53.000Z</time>
      </trkpt>
      <trkpt lat="49.77427" lon="4.83455">
        <ele>239</ele>
        <time>2021-05-15T10:46:54.000Z</time>
      </trkpt>
      <trkpt lat="49.77424" lon="4.83455">
        <ele>239</ele>
        <time>2021-05-15T10:46:55.000Z</time>
      </trkpt>
      <trkpt lat="49.7742" lon="4.83455">
        <ele>239</ele>
        <time>2021-05-15T10:46:56.000Z</time>
      </trkpt>
      <trkpt lat="49.77418" lon="4.83456">
        <ele>240</ele>
        <time>2021-05-15T10:46:57.000Z</time>
      </trkpt>
      <trkpt lat="49.77416" lon="4.83456">
        <ele>240</ele>
        <time>2021-05-15T10:46:58.000Z</time>
      </trkpt>
      <trkpt lat="49.77414" lon="4.83457">
        <ele>240</ele>
        <time>2021-05-15T10:46:59.000Z</time>
      </trkpt>
      <trkpt lat="49.77412" lon="4.83459">
        <ele>240</ele>
        <time>2021-05-15T10:47:00.000Z</time>
      </trkpt>
      <trkpt lat="49.77409" lon="4.83462">
        <ele>241</ele>
        <time>2021-05-15T10:47:01.000Z</time>
      </trkpt>
      <trkpt lat="49.77407" lon="4.83464">
        <ele>241</ele>
        <time>2021-05-15T10:47:02.000Z</time>
      </trkpt>
      <trkpt lat="49.77404" lon="4.83466">
        <ele>241</ele>
        <time>2021-05-15T10:47:03.000Z</time>
      </trkpt>
      <trkpt lat="49.77402" lon="4.83468">
        <ele>241</ele>
        <time>2021-05-15T10:47:04.000Z</time>
      </trkpt>
      <trkpt lat="49.774" lon="4.83469">
        <ele>241</ele>
        <time>2021-05-15T10:47:05.000Z</time>
      </trkpt>
      <trkpt lat="49.77398" lon="4.83471">
        <ele>241</ele>
        <time>2021-05-15T10:47:06.000Z</time>
      </trkpt>
      <trkpt lat="49.77396" lon="4.83472">
        <ele>241</ele>
        <time>2021-05-15T10:47:07.000Z</time>
      </trkpt>
      <trkpt lat="49.77393" lon="4.83472">
        <ele>242</ele>
        <time>2021-05-15T10:47:08.000Z</time>
      </trkpt>
      <trkpt lat="49.77391" lon="4.83473">
        <ele>242</ele>
        <time>2021-05-15T10:47:09.000Z</time>
      </trkpt>
      <trkpt lat="49.77389" lon="4.83474">
        <ele>242</ele>
        <time>2021-05-15T10:47:10.000Z</time>
      </trkpt>
      <trkpt lat="49.77387" lon="4.83475">
        <ele>242</ele>
        <time>2021-05-15T10:47:11.000Z</time>
      </trkpt>
      <trkpt lat="49.77386" lon="4.83476">
        <ele>242</ele>
        <time>2021-05-15T10:47:12.000Z</time>
      </trkpt>
      <trkpt lat="49.77384" lon="4.83478">
        <ele>242</ele>
        <time>2021-05-15T10:47:13.000Z</time>
      </trkpt>
      <trkpt lat="49.77382" lon="4.83479">
        <ele>242</ele>
        <time>2021-05-15T10:47:14.000Z</time>
      </trkpt>
      <trkpt lat="49.7738" lon="4.8348">
        <ele>242</ele>
        <time>2021-05-15T10:47:15.000Z</time>
      </trkpt>
      <trkpt lat="49.77377" lon="4.8348">
        <ele>242</ele>
        <time>2021-05-15T10:47:16.000Z</time>
      </trkpt>
      <trkpt lat="49.77374" lon="4.8348">
        <ele>242</ele>
        <time>2021-05-15T10:47:17.000Z</time>
      </trkpt>
      <trkpt lat="49.77372" lon="4.8348">
        <ele>242</ele>
        <time>2021-05-15T10:47:18.000Z</time>
      </trkpt>
      <trkpt lat="49.77369" lon="4.8348">
        <ele>243</ele>
        <time>2021-05-15T10:47:19.000Z</time>
      </trkpt>
      <trkpt lat="49.77367" lon="4.8348">
        <ele>243</ele>
        <time>2021-05-15T10:47:20.000Z</time>
      </trkpt>
      <trkpt lat="49.77363" lon="4.83479">
        <ele>243</ele>
        <time>2021-05-15T10:47:21.000Z</time>
      </trkpt>
      <trkpt lat="49.77361" lon="4.83478">
        <ele>243</ele>
        <time>2021-05-15T10:47:22.000Z</time>
      </trkpt>
      <trkpt lat="49.77358" lon="4.83477">
        <ele>244</ele>
        <time>2021-05-15T10:47:23.000Z</time>
      </trkpt>
      <trkpt lat="49.77356" lon="4.83475">
        <ele>244</ele>
        <time>2021-05-15T10:47:24.000Z</time>
      </trkpt>
      <trkpt lat="49.77353" lon="4.83474">
        <ele>244</ele>
        <time>2021-05-15T10:47:25.000Z</time>
      </trkpt>
      <trkpt lat="49.7735" lon="4.83471">
        <ele>244</ele>
        <time>2021-05-15T10:47:26.000Z</time>
      </trkpt>
      <trkpt lat="49.77347" lon="4.83469">
        <ele>245</ele>
        <time>2021-05-15T10:47:27.000Z</time>
      </trkpt>
      <trkpt lat="49.77344" lon="4.83467">
        <ele>245</ele>
        <time>2021-05-15T10:47:28.000Z</time>
      </trkpt>
      <trkpt lat="49.7734" lon="4.83464">
        <ele>245</ele>
        <time>2021-05-15T10:47:29.000Z</time>
      </trkpt>
      <trkpt lat="49.77337" lon="4.8346">
        <ele>245</ele>
        <time>2021-05-15T10:47:30.000Z</time>
      </trkpt>
      <trkpt lat="49.77333" lon="4.83456">
        <ele>245</ele>
        <time>2021-05-15T10:47:31.000Z</time>
      </trkpt>
      <trkpt lat="49.7733" lon="4.83453">
        <ele>246</ele>
        <time>2021-05-15T10:47:32.000Z</time>
      </trkpt>
      <trkpt lat="49.77327" lon="4.83449">
        <ele>246</ele>
        <time>2021-05-15T10:47:33.000Z</time>
      </trkpt>
      <trkpt lat="49.77324" lon="4.83446">
        <ele>246</ele>
        <time>2021-05-15T10:47:34.000Z</time>
      </trkpt>
      <trkpt lat="49.7732" lon="4.83444">
        <ele>246</ele>
        <time>2021-05-15T10:47:35.000Z</time>
      </trkpt>
      <trkpt lat="49.77317" lon="4.8344">
        <ele>246</ele>
        <time>2021-05-15T10:47:36.000Z</time>
      </trkpt>
      <trkpt lat="49.77314" lon="4.83437">
        <ele>247</ele>
        <time>2021-05-15T10:47:37.000Z</time>
      </trkpt>
      <trkpt lat="49.77311" lon="4.83434">
        <ele>247</ele>
        <time>2021-05-15T10:47:38.000Z</time>
      </trkpt>
      <trkpt lat="49.77308" lon="4.83431">
        <ele>247</ele>
        <time>2021-05-15T10:47:39.000Z</time>
      </trkpt>
      <trkpt lat="49.77305" lon="4.83427">
        <ele>247</ele>
        <time>2021-05-15T10:47:40.000Z</time>
      </trkpt>
      <trkpt lat="49.77302" lon="4.83424">
        <ele>247</ele>
        <time>2021-05-15T10:47:41.000Z</time>
      </trkpt>
      <trkpt lat="49.77299" lon="4.83421">
        <ele>248</ele>
        <time>2021-05-15T10:47:42.000Z</time>
      </trkpt>
      <trkpt lat="49.77296" lon="4.83418">
        <ele>248</ele>
        <time>2021-05-15T10:47:43.000Z</time>
      </trkpt>
      <trkpt lat="49.77293" lon="4.83415">
        <ele>248</ele>
        <time>2021-05-15T10:47:44.000Z</time>
      </trkpt>
      <trkpt lat="49.7729" lon="4.83412">
        <ele>248</ele>
        <time>2021-05-15T10:47:45.000Z</time>
      </trkpt>
      <trkpt lat="49.77287" lon="4.83409">
        <ele>249</ele>
        <time>2021-05-15T10:47:46.000Z</time>
      </trkpt>
      <trkpt lat="49.77284" lon="4.83406">
        <ele>249</ele>
        <time>2021-05-15T10:47:47.000Z</time>
      </trkpt>
      <trkpt lat="49.7728" lon="4.83403">
        <ele>249</ele>
        <time>2021-05-15T10:47:48.000Z</time>
      </trkpt>
      <trkpt lat="49.77276" lon="4.83401">
        <ele>250</ele>
        <time>2021-05-15T10:47:49.000Z</time>
      </trkpt>
      <trkpt lat="49.77273" lon="4.83398">
        <ele>250</ele>
        <time>2021-05-15T10:47:50.000Z</time>
      </trkpt>
      <trkpt lat="49.7727" lon="4.83395">
        <ele>250</ele>
        <time>2021-05-15T10:47:51.000Z</time>
      </trkpt>
      <trkpt lat="49.77268" lon="4.83393">
        <ele>250</ele>
        <time>2021-05-15T10:47:52.000Z</time>
      </trkpt>
      <trkpt lat="49.77265" lon="4.8339">
        <ele>251</ele>
        <time>2021-05-15T10:47:53.000Z</time>
      </trkpt>
      <trkpt lat="49.77262" lon="4.83388">
        <ele>251</ele>
        <time>2021-05-15T10:47:54.000Z</time>
      </trkpt>
      <trkpt lat="49.7726" lon="4.83386">
        <ele>251</ele>
        <time>2021-05-15T10:47:55.000Z</time>
      </trkpt>
      <trkpt lat="49.77257" lon="4.83384">
        <ele>252</ele>
        <time>2021-05-15T10:47:56.000Z</time>
      </trkpt>
      <trkpt lat="49.77254" lon="4.83383">
        <ele>252</ele>
        <time>2021-05-15T10:47:57.000Z</time>
      </trkpt>
      <trkpt lat="49.77252" lon="4.83381">
        <ele>252</ele>
        <time>2021-05-15T10:47:58.000Z</time>
      </trkpt>
      <trkpt lat="49.7725" lon="4.8338">
        <ele>253</ele>
        <time>2021-05-15T10:47:59.000Z</time>
      </trkpt>
      <trkpt lat="49.77248" lon="4.83379">
        <ele>253</ele>
        <time>2021-05-15T10:48:00.000Z</time>
      </trkpt>
      <trkpt lat="49.77246" lon="4.83377">
        <ele>253</ele>
        <time>2021-05-15T10:48:01.000Z</time>
      </trkpt>
      <trkpt lat="49.77245" lon="4.83376">
        <ele>254</ele>
        <time>2021-05-15T10:48:02.000Z</time>
      </trkpt>
      <trkpt lat="49.77243" lon="4.83375">
        <ele>254</ele>
        <time>2021-05-15T10:48:03.000Z</time>
      </trkpt>
      <trkpt lat="49.77241" lon="4.83374">
        <ele>254</ele>
        <time>2021-05-15T10:48:04.000Z</time>
      </trkpt>
      <trkpt lat="49.77239" lon="4.83373">
        <ele>254</ele>
        <time>2021-05-15T10:48:05.000Z</time>
      </trkpt>
      <trkpt lat="49.77236" lon="4.83372">
        <ele>255</ele>
        <time>2021-05-15T10:48:06.000Z</time>
      </trkpt>
      <trkpt lat="49.77234" lon="4.83371">
        <ele>255</ele>
        <time>2021-05-15T10:48:07.000Z</time>
      </trkpt>
      <trkpt lat="49.77232" lon="4.83369">
        <ele>255</ele>
        <time>2021-05-15T10:48:08.000Z</time>
      </trkpt>
      <trkpt lat="49.77229" lon="4.83368">
        <ele>255</ele>
        <time>2021-05-15T10:48:09.000Z</time>
      </trkpt>
      <trkpt lat="49.77227" lon="4.83368">
        <ele>256</ele>
        <time>2021-05-15T10:48:10.000Z</time>
      </trkpt>
      <trkpt lat="49.77225" lon="4.83368">
        <ele>256</ele>
        <time>2021-05-15T10:48:11.000Z</time>
      </trkpt>
      <trkpt lat="49.77223" lon="4.83367">
        <ele>256</ele>
        <time>2021-05-15T10:48:12.000Z</time>
      </trkpt>
      <trkpt lat="49.77221" lon="4.83367">
        <ele>256</ele>
        <time>2021-05-15T10:48:13.000Z</time>
      </trkpt>
      <trkpt lat="49.77219" lon="4.83366">
        <ele>256</ele>
        <time>2021-05-15T10:48:14.000Z</time>
      </trkpt>
      <trkpt lat="49.77216" lon="4.83365">
        <ele>256</ele>
        <time>2021-05-15T10:48:15.000Z</time>
      </trkpt>
      <trkpt lat="49.77213" lon="4.83365">
        <ele>257</ele>
        <time>2021-05-15T10:48:16.000Z</time>
      </trkpt>
      <trkpt lat="49.7721" lon="4.83365">
        <ele>257</ele>
        <time>2021-05-15T10:48:17.000Z</time>
      </trkpt>
      <trkpt lat="49.77207" lon="4.83364">
        <ele>257</ele>
        <time>2021-05-15T10:48:18.000Z</time>
      </trkpt>
      <trkpt lat="49.77204" lon="4.83364">
        <ele>257</ele>
        <time>2021-05-15T10:48:19.000Z</time>
      </trkpt>
      <trkpt lat="49.77201" lon="4.83363">
        <ele>257</ele>
        <time>2021-05-15T10:48:20.000Z</time>
      </trkpt>
      <trkpt lat="49.77199" lon="4.83362">
        <ele>257</ele>
        <time>2021-05-15T10:48:21.000Z</time>
      </trkpt>
      <trkpt lat="49.77196" lon="4.83362">
        <ele>257</ele>
        <time>2021-05-15T10:48:22.000Z</time>
      </trkpt>
      <trkpt lat="49.77194" lon="4.83362">
        <ele>258</ele>
        <time>2021-05-15T10:48:23.000Z</time>
      </trkpt>
      <trkpt lat="49.77192" lon="4.83362">
        <ele>258</ele>
        <time>2021-05-15T10:48:24.000Z</time>
      </trkpt>
      <trkpt lat="49.7719" lon="4.83363">
        <ele>258</ele>
        <time>2021-05-15T10:48:25.000Z</time>
      </trkpt>
      <trkpt lat="49.77188" lon="4.83363">
        <ele>258</ele>
        <time>2021-05-15T10:48:26.000Z</time>
      </trkpt>
      <trkpt lat="49.77186" lon="4.83364">
        <ele>258</ele>
        <time>2021-05-15T10:48:27.000Z</time>
      </trkpt>
      <trkpt lat="49.77183" lon="4.83364">
        <ele>258</ele>
        <time>2021-05-15T10:48:28.000Z</time>
      </trkpt>
      <trkpt lat="49.7718" lon="4.83365">
        <ele>258</ele>
        <time>2021-05-15T10:48:29.000Z</time>
      </trkpt>
      <trkpt lat="49.77177" lon="4.83366">
        <ele>258</ele>
        <time>2021-05-15T10:48:30.000Z</time>
      </trkpt>
      <trkpt lat="49.77174" lon="4.83367">
        <ele>258</ele>
        <time>2021-05-15T10:48:31.000Z</time>
      </trkpt>
      <trkpt lat="49.77172" lon="4.83368">
        <ele>258</ele>
        <time>2021-05-15T10:48:32.000Z</time>
      </trkpt>
      <trkpt lat="49.77169" lon="4.8337">
        <ele>258</ele>
        <time>2021-05-15T10:48:33.000Z</time>
      </trkpt>
      <trkpt lat="49.77167" lon="4.83371">
        <ele>258</ele>
        <time>2021-05-15T10:48:34.000Z</time>
      </trkpt>
      <trkpt lat="49.77165" lon="4.83373">
        <ele>258</ele>
        <time>2021-05-15T10:48:35.000Z</time>
      </trkpt>
      <trkpt lat="49.77163" lon="4.83374">
        <ele>258</ele>
        <time>2021-05-15T10:48:36.000Z</time>
      </trkpt>
      <trkpt lat="49.77161" lon="4.83375">
        <ele>257</ele>
        <time>2021-05-15T10:48:37.000Z</time>
      </trkpt>
      <trkpt lat="49.7716" lon="4.83376">
        <ele>257</ele>
        <time>2021-05-15T10:48:38.000Z</time>
      </trkpt>
      <trkpt lat="49.77158" lon="4.83378">
        <ele>257</ele>
        <time>2021-05-15T10:48:39.000Z</time>
      </trkpt>
      <trkpt lat="49.77156" lon="4.83379">
        <ele>257</ele>
        <time>2021-05-15T10:48:40.000Z</time>
      </trkpt>
      <trkpt lat="49.77154" lon="4.8338">
        <ele>257</ele>
        <time>2021-05-15T10:48:41.000Z</time>
      </trkpt>
      <trkpt lat="49.77152" lon="4.83381">
        <ele>257</ele>
        <time>2021-05-15T10:48:42.000Z</time>
      </trkpt>
      <trkpt lat="49.7715" lon="4.83382">
        <ele>257</ele>
        <time>2021-05-15T10:48:43.000Z</time>
      </trkpt>
      <trkpt lat="49.77149" lon="4.83382">
        <ele>257</ele>
        <time>2021-05-15T10:48:44.000Z</time>
      </trkpt>
      <trkpt lat="49.77147" lon="4.83383">
        <ele>257</ele>
        <time>2021-05-15T10:48:45.000Z</time>
      </trkpt>
      <trkpt lat="49.77146" lon="4.83384">
        <ele>257</ele>
        <time>2021-05-15T10:48:46.000Z</time>
      </trkpt>
      <trkpt lat="49.77144" lon="4.83385">
        <ele>257</ele>
        <time>2021-05-15T10:48:47.000Z</time>
      </trkpt>
      <trkpt lat="49.77142" lon="4.83385">
        <ele>257</ele>
        <time>2021-05-15T10:48:48.000Z</time>
      </trkpt>
      <trkpt lat="49.7714" lon="4.83386">
        <ele>257</ele>
        <time>2021-05-15T10:48:49.000Z</time>
      </trkpt>
      <trkpt lat="49.77137" lon="4.83387">
        <ele>258</ele>
        <time>2021-05-15T10:48:50.000Z</time>
      </trkpt>
      <trkpt lat="49.77134" lon="4.83388">
        <ele>258</ele>
        <time>2021-05-15T10:48:51.000Z</time>
      </trkpt>
      <trkpt lat="49.77131" lon="4.8339">
        <ele>258</ele>
        <time>2021-05-15T10:48:52.000Z</time>
      </trkpt>
      <trkpt lat="49.77128" lon="4.83391">
        <ele>258</ele>
        <time>2021-05-15T10:48:53.000Z</time>
      </trkpt>
      <trkpt lat="49.77125" lon="4.83392">
        <ele>258</ele>
        <time>2021-05-15T10:48:54.000Z</time>
      </trkpt>
      <trkpt lat="49.77121" lon="4.83394">
        <ele>258</ele>
        <time>2021-05-15T10:48:55.000Z</time>
      </trkpt>
      <trkpt lat="49.77118" lon="4.83395">
        <ele>258</ele>
        <time>2021-05-15T10:48:56.000Z</time>
      </trkpt>
      <trkpt lat="49.77114" lon="4.83396">
        <ele>258</ele>
        <time>2021-05-15T10:48:57.000Z</time>
      </trkpt>
      <trkpt lat="49.77111" lon="4.83396">
        <ele>258</ele>
        <time>2021-05-15T10:48:58.000Z</time>
      </trkpt>
      <trkpt lat="49.77108" lon="4.83395">
        <ele>258</ele>
        <time>2021-05-15T10:48:59.000Z</time>
      </trkpt>
      <trkpt lat="49.77105" lon="4.83395">
        <ele>259</ele>
        <time>2021-05-15T10:49:00.000Z</time>
      </trkpt>
      <trkpt lat="49.77102" lon="4.83394">
        <ele>259</ele>
        <time>2021-05-15T10:49:01.000Z</time>
      </trkpt>
      <trkpt lat="49.77098" lon="4.83393">
        <ele>259</ele>
        <time>2021-05-15T10:49:02.000Z</time>
      </trkpt>
      <trkpt lat="49.77095" lon="4.83392">
        <ele>259</ele>
        <time>2021-05-15T10:49:03.000Z</time>
      </trkpt>
      <trkpt lat="49.77093" lon="4.83391">
        <ele>259</ele>
        <time>2021-05-15T10:49:04.000Z</time>
      </trkpt>
      <trkpt lat="49.7709" lon="4.8339">
        <ele>259</ele>
        <time>2021-05-15T10:49:05.000Z</time>
      </trkpt>
      <trkpt lat="49.77088" lon="4.8339">
        <ele>260</ele>
        <time>2021-05-15T10:49:06.000Z</time>
      </trkpt>
      <trkpt lat="49.77087" lon="4.8339">
        <ele>260</ele>
        <time>2021-05-15T10:49:07.000Z</time>
      </trkpt>
      <trkpt lat="49.77087" lon="4.8339">
        <ele>260</ele>
        <time>2021-05-15T10:49:08.000Z</time>
      </trkpt>
      <trkpt lat="49.77086" lon="4.8339">
        <ele>260</ele>
        <time>2021-05-15T10:49:09.000Z</time>
      </trkpt>
      <trkpt lat="49.77085" lon="4.83389">
        <ele>261</ele>
        <time>2021-05-15T10:49:10.000Z</time>
      </trkpt>
      <trkpt lat="49.77085" lon="4.83389">
        <ele>261</ele>
        <time>2021-05-15T10:49:11.000Z</time>
      </trkpt>
      <trkpt lat="49.77084" lon="4.83389">
        <ele>261</ele>
        <time>2021-05-15T10:49:12.000Z</time>
      </trkpt>
      <trkpt lat="49.77083" lon="4.83388">
        <ele>261</ele>
        <time>2021-05-15T10:49:13.000Z</time>
      </trkpt>
      <trkpt lat="49.77082" lon="4.83388">
        <ele>262</ele>
        <time>2021-05-15T10:49:14.000Z</time>
      </trkpt>
      <trkpt lat="49.77082" lon="4.83388">
        <ele>262</ele>
        <time>2021-05-15T10:49:15.000Z</time>
      </trkpt>
      <trkpt lat="49.77082" lon="4.83388">
        <ele>262</ele>
        <time>2021-05-15T10:49:16.000Z</time>
      </trkpt>
      <trkpt lat="49.77082" lon="4.83387">
        <ele>262</ele>
        <time>2021-05-15T10:49:17.000Z</time>
      </trkpt>
      <trkpt lat="49.77081" lon="4.83387">
        <ele>263</ele>
        <time>2021-05-15T10:49:18.000Z</time>
      </trkpt>
      <trkpt lat="49.77081" lon="4.83387">
        <ele>263</ele>
        <time>2021-05-15T10:49:19.000Z</time>
      </trkpt>
      <trkpt lat="49.77081" lon="4.83387">
        <ele>263</ele>
        <time>2021-05-15T10:49:20.000Z</time>
      </trkpt>
      <trkpt lat="49.77081" lon="4.83387">
        <ele>263</ele>
        <time>2021-05-15T10:49:21.000Z</time>
      </trkpt>
      <trkpt lat="49.77081" lon="4.83386">
        <ele>263</ele>
        <time>2021-05-15T10:49:22.000Z</time>
      </trkpt>
      <trkpt lat="49.77081" lon="4.83386">
        <ele>263</ele>
        <time>2021-05-15T10:49:23.000Z</time>
      </trkpt>
      <trkpt lat="49.77081" lon="4.83386">
        <ele>264</ele>
        <time>2021-05-15T10:49:24.000Z</time>
      </trkpt>
      <trkpt lat="49.77081" lon="4.83386">
        <ele>264</ele>
        <time>2021-05-15T10:49:25.000Z</time>
      </trkpt>
      <trkpt lat="49.7708" lon="4.83386">
        <ele>264</ele>
        <time>2021-05-15T10:49:26.000Z</time>
      </trkpt>
      <trkpt lat="49.7708" lon="4.83386">
        <ele>264</ele>
        <time>2021-05-15T10:49:27.000Z</time>
      </trkpt>
      <trkpt lat="49.7708" lon="4.83386">
        <ele>264</ele>
        <time>2021-05-15T10:49:28.000Z</time>
      </trkpt>
      <trkpt lat="49.7708" lon="4.83386">
        <ele>264</ele>
        <time>2021-05-15T10:49:29.000Z</time>
      </trkpt>
      <trkpt lat="49.7708" lon="4.83386">
        <ele>264</ele>
        <time>2021-05-15T10:49:30.000Z</time>
      </trkpt>
      <trkpt lat="49.7708" lon="4.83386">
        <ele>264</ele>
        <time>2021-05-15T10:49:31.000Z</time>
      </trkpt>
      <trkpt lat="49.7708" lon="4.83386">
        <ele>264</ele>
        <time>2021-05-15T10:49:32.000Z</time>
      </trkpt>
      <trkpt lat="49.7708" lon="4.83386">
        <ele>264</ele>
        <time>2021-05-15T10:49:33.000Z</time>
      </trkpt>
      <trkpt lat="49.7708" lon="4.83385">
        <ele>264</ele>
        <time>2021-05-15T10:49:34.000Z</time>
      </trkpt>
      <trkpt lat="49.7708" lon="4.83385">
        <ele>264</ele>
        <time>2021-05-15T10:49:35.000Z</time>
      </trkpt>
      <trkpt lat="49.7708" lon="4.83385">
        <ele>264</ele>
        <time>2021-05-15T10:49:36.000Z</time>
      </trkpt>
      <trkpt lat="49.7708" lon="4.83385">
        <ele>265</ele>
        <time>2021-05-15T10:49:37.000Z</time>
      </trkpt>
      <trkpt lat="49.7708" lon="4.83385">
        <ele>265</ele>
        <time>2021-05-15T10:49:38.000Z</time>
      </trkpt>
      <trkpt lat="49.7708" lon="4.83385">
        <ele>265</ele>
        <time>2021-05-15T10:49:39.000Z</time>
      </trkpt>
      <trkpt lat="49.7708" lon="4.83385">
        <ele>265</ele>
        <time>2021-05-15T10:49:40.000Z</time>
      </trkpt>
      <trkpt lat="49.7708" lon="4.83385">
        <ele>265</ele>
        <time>2021-05-15T10:49:41.000Z</time>
      </trkpt>
      <trkpt lat="49.77079" lon="4.83385">
        <ele>265</ele>
        <time>2021-05-15T10:49:42.000Z</time>
      </trkpt>
      <trkpt lat="49.77079" lon="4.83385">
        <ele>265</ele>
        <time>2021-05-15T10:49:43.000Z</time>
      </trkpt>
      <trkpt lat="49.77078" lon="4.83384">
        <ele>266</ele>
        <time>2021-05-15T10:49:44.000Z</time>
      </trkpt>
      <trkpt lat="49.77077" lon="4.83384">
        <ele>266</ele>
        <time>2021-05-15T10:49:45.000Z</time>
      </trkpt>
      <trkpt lat="49.77075" lon="4.83384">
        <ele>266</ele>
        <time>2021-05-15T10:49:46.000Z</time>
      </trkpt>
      <trkpt lat="49.77073" lon="4.83384">
        <ele>266</ele>
        <time>2021-05-15T10:49:47.000Z</time>
      </trkpt>
      <trkpt lat="49.77071" lon="4.83383">
        <ele>266</ele>
        <time>2021-05-15T10:49:48.000Z</time>
      </trkpt>
      <trkpt lat="49.77068" lon="4.83383">
        <ele>266</ele>
        <time>2021-05-15T10:49:49.000Z</time>
      </trkpt>
      <trkpt lat="49.77066" lon="4.83382">
        <ele>266</ele>
        <time>2021-05-15T10:49:50.000Z</time>
      </trkpt>
      <trkpt lat="49.77063" lon="4.83381">
        <ele>266</ele>
        <time>2021-05-15T10:49:51.000Z</time>
      </trkpt>
      <trkpt lat="49.7706" lon="4.8338">
        <ele>266</ele>
        <time>2021-05-15T10:49:52.000Z</time>
      </trkpt>
      <trkpt lat="49.77056" lon="4.83379">
        <ele>266</ele>
        <time>2021-05-15T10:49:53.000Z</time>
      </trkpt>
      <trkpt lat="49.77053" lon="4.83377">
        <ele>266</ele>
        <time>2021-05-15T10:49:54.000Z</time>
      </trkpt>
      <trkpt lat="49.7705" lon="4.83376">
        <ele>266</ele>
        <time>2021-05-15T10:49:55.000Z</time>
      </trkpt>
      <trkpt lat="49.77047" lon="4.83375">
        <ele>266</ele>
        <time>2021-05-15T10:49:56.000Z</time>
      </trkpt>
      <trkpt lat="49.77044" lon="4.83374">
        <ele>266</ele>
        <time>2021-05-15T10:49:57.000Z</time>
      </trkpt>
      <trkpt lat="49.77041" lon="4.83373">
        <ele>266</ele>
        <time>2021-05-15T10:49:58.000Z</time>
      </trkpt>
      <trkpt lat="49.77038" lon="4.83372">
        <ele>266</ele>
        <time>2021-05-15T10:49:59.000Z</time>
      </trkpt>
      <trkpt lat="49.77034" lon="4.8337">
        <ele>266</ele>
        <time>2021-05-15T10:50:00.000Z</time>
      </trkpt>
      <trkpt lat="49.77031" lon="4.83369">
        <ele>266</ele>
        <time>2021-05-15T10:50:01.000Z</time>
      </trkpt>
      <trkpt lat="49.77028" lon="4.83367">
        <ele>266</ele>
        <time>2021-05-15T10:50:02.000Z</time>
      </trkpt>
      <trkpt lat="49.77025" lon="4.83366">
        <ele>266</ele>
        <time>2021-05-15T10:50:03.000Z</time>
      </trkpt>
      <trkpt lat="49.77022" lon="4.83364">
        <ele>266</ele>
        <time>2021-05-15T10:50:04.000Z</time>
      </trkpt>
      <trkpt lat="49.77019" lon="4.83362">
        <ele>265</ele>
        <time>2021-05-15T10:50:05.000Z</time>
      </trkpt>
      <trkpt lat="49.77016" lon="4.8336">
        <ele>265</ele>
        <time>2021-05-15T10:50:06.000Z</time>
      </trkpt>
      <trkpt lat="49.77012" lon="4.83358">
        <ele>265</ele>
        <time>2021-05-15T10:50:07.000Z</time>
      </trkpt>
      <trkpt lat="49.77009" lon="4.83356">
        <ele>265</ele>
        <time>2021-05-15T10:50:08.000Z</time>
      </trkpt>
      <trkpt lat="49.77006" lon="4.83354">
        <ele>265</ele>
        <time>2021-05-15T10:50:09.000Z</time>
      </trkpt>
      <trkpt lat="49.77003" lon="4.83351">
        <ele>265</ele>
        <time>2021-05-15T10:50:10.000Z</time>
      </trkpt>
      <trkpt lat="49.77" lon="4.83348">
        <ele>264</ele>
        <time>2021-05-15T10:50:11.000Z</time>
      </trkpt>
      <trkpt lat="49.76997" lon="4.83345">
        <ele>264</ele>
        <time>2021-05-15T10:50:12.000Z</time>
      </trkpt>
      <trkpt lat="49.76994" lon="4.83342">
        <ele>264</ele>
        <time>2021-05-15T10:50:13.000Z</time>
      </trkpt>
      <trkpt lat="49.76991" lon="4.83338">
        <ele>264</ele>
        <time>2021-05-15T10:50:14.000Z</time>
      </trkpt>
      <trkpt lat="49.76988" lon="4.83334">
        <ele>264</ele>
        <time>2021-05-15T10:50:15.000Z</time>
      </trkpt>
      <trkpt lat="49.76986" lon="4.8333">
        <ele>264</ele>
        <time>2021-05-15T10:50:16.000Z</time>
      </trkpt>
      <trkpt lat="49.76984" lon="4.83327">
        <ele>264</ele>
        <time>2021-05-15T10:50:17.000Z</time>
      </trkpt>
      <trkpt lat="49.76982" lon="4.83323">
        <ele>264</ele>
        <time>2021-05-15T10:50:18.000Z</time>
      </trkpt>
      <trkpt lat="49.7698" lon="4.83319">
        <ele>264</ele>
        <time>2021-05-15T10:50:19.000Z</time>
      </trkpt>
      <trkpt lat="49.76978" lon="4.83315">
        <ele>263</ele>
        <time>2021-05-15T10:50:20.000Z</time>
      </trkpt>
      <trkpt lat="49.76976" lon="4.83311">
        <ele>263</ele>
        <time>2021-05-15T10:50:21.000Z</time>
      </trkpt>
      <trkpt lat="49.76974" lon="4.83307">
        <ele>263</ele>
        <time>2021-05-15T10:50:22.000Z</time>
      </trkpt>
      <trkpt lat="49.76972" lon="4.83302">
        <ele>263</ele>
        <time>2021-05-15T10:50:23.000Z</time>
      </trkpt>
      <trkpt lat="49.76971" lon="4.83298">
        <ele>263</ele>
        <time>2021-05-15T10:50:24.000Z</time>
      </trkpt>
      <trkpt lat="49.76969" lon="4.83293">
        <ele>263</ele>
        <time>2021-05-15T10:50:25.000Z</time>
      </trkpt>
      <trkpt lat="49.76967" lon="4.83289">
        <ele>263</ele>
        <time>2021-05-15T10:50:26.000Z</time>
      </trkpt>
      <trkpt lat="49.76965" lon="4.83285">
        <ele>263</ele>
        <time>2021-05-15T10:50:27.000Z</time>
      </trkpt>
      <trkpt lat="49.76964" lon="4.83281">
        <ele>263</ele>
        <time>2021-05-15T10:50:28.000Z</time>
      </trkpt>
      <trkpt lat="49.76962" lon="4.83277">
        <ele>263</ele>
        <time>2021-05-15T10:50:29.000Z</time>
      </trkpt>
      <trkpt lat="49.76959" lon="4.83273">
        <ele>263</ele>
        <time>2021-05-15T10:50:30.000Z</time>
      </trkpt>
      <trkpt lat="49.76957" lon="4.83269">
        <ele>263</ele>
        <time>2021-05-15T10:50:31.000Z</time>
      </trkpt>
      <trkpt lat="49.76955" lon="4.83265">
        <ele>263</ele>
        <time>2021-05-15T10:50:32.000Z</time>
      </trkpt>
      <trkpt lat="49.76953" lon="4.8326">
        <ele>263</ele>
        <time>2021-05-15T10:50:33.000Z</time>
      </trkpt>
      <trkpt lat="49.76951" lon="4.83256">
        <ele>263</ele>
        <time>2021-05-15T10:50:34.000Z</time>
      </trkpt>
      <trkpt lat="49.76949" lon="4.83252">
        <ele>263</ele>
        <time>2021-05-15T10:50:35.000Z</time>
      </trkpt>
      <trkpt lat="49.76947" lon="4.83247">
        <ele>263</ele>
        <time>2021-05-15T10:50:36.000Z</time>
      </trkpt>
      <trkpt lat="49.76945" lon="4.83242">
        <ele>263</ele>
        <time>2021-05-15T10:50:37.000Z</time>
      </trkpt>
      <trkpt lat="49.76943" lon="4.83237">
        <ele>263</ele>
        <time>2021-05-15T10:50:38.000Z</time>
      </trkpt>
      <trkpt lat="49.76941" lon="4.83232">
        <ele>263</ele>
        <time>2021-05-15T10:50:39.000Z</time>
      </trkpt>
      <trkpt lat="49.76938" lon="4.83227">
        <ele>263</ele>
        <time>2021-05-15T10:50:40.000Z</time>
      </trkpt>
      <trkpt lat="49.76935" lon="4.83222">
        <ele>263</ele>
        <time>2021-05-15T10:50:41.000Z</time>
      </trkpt>
      <trkpt lat="49.76933" lon="4.83217">
        <ele>263</ele>
        <time>2021-05-15T10:50:42.000Z</time>
      </trkpt>
      <trkpt lat="49.76931" lon="4.83211">
        <ele>263</ele>
        <time>2021-05-15T10:50:43.000Z</time>
      </trkpt>
      <trkpt lat="49.7693" lon="4.83205">
        <ele>263</ele>
        <time>2021-05-15T10:50:44.000Z</time>
      </trkpt>
      <trkpt lat="49.76929" lon="4.83198">
        <ele>263</ele>
        <time>2021-05-15T10:50:45.000Z</time>
      </trkpt>
      <trkpt lat="49.7693" lon="4.83191">
        <ele>263</ele>
        <time>2021-05-15T10:50:46.000Z</time>
      </trkpt>
      <trkpt lat="49.76932" lon="4.83186">
        <ele>263</ele>
        <time>2021-05-15T10:50:47.000Z</time>
      </trkpt>
      <trkpt lat="49.76934" lon="4.8318">
        <ele>263</ele>
        <time>2021-05-15T10:50:48.000Z</time>
      </trkpt>
      <trkpt lat="49.76937" lon="4.83175">
        <ele>264</ele>
        <time>2021-05-15T10:50:49.000Z</time>
      </trkpt>
      <trkpt lat="49.76939" lon="4.8317">
        <ele>264</ele>
        <time>2021-05-15T10:50:50.000Z</time>
      </trkpt>
      <trkpt lat="49.76941" lon="4.83164">
        <ele>264</ele>
        <time>2021-05-15T10:50:51.000Z</time>
      </trkpt>
      <trkpt lat="49.76942" lon="4.83159">
        <ele>264</ele>
        <time>2021-05-15T10:50:52.000Z</time>
      </trkpt>
      <trkpt lat="49.76941" lon="4.83154">
        <ele>264</ele>
        <time>2021-05-15T10:50:53.000Z</time>
      </trkpt>
      <trkpt lat="49.7694" lon="4.83149">
        <ele>264</ele>
        <time>2021-05-15T10:50:54.000Z</time>
      </trkpt>
      <trkpt lat="49.76939" lon="4.83143">
        <ele>264</ele>
        <time>2021-05-15T10:50:55.000Z</time>
      </trkpt>
      <trkpt lat="49.76937" lon="4.83137">
        <ele>264</ele>
        <time>2021-05-15T10:50:56.000Z</time>
      </trkpt>
      <trkpt lat="49.76934" lon="4.83131">
        <ele>264</ele>
        <time>2021-05-15T10:50:57.000Z</time>
      </trkpt>
      <trkpt lat="49.76932" lon="4.83125">
        <ele>264</ele>
        <time>2021-05-15T10:50:58.000Z</time>
      </trkpt>
      <trkpt lat="49.76929" lon="4.83119">
        <ele>264</ele>
        <time>2021-05-15T10:50:59.000Z</time>
      </trkpt>
      <trkpt lat="49.76926" lon="4.83113">
        <ele>264</ele>
        <time>2021-05-15T10:51:00.000Z</time>
      </trkpt>
      <trkpt lat="49.76923" lon="4.83106">
        <ele>264</ele>
        <time>2021-05-15T10:51:01.000Z</time>
      </trkpt>
      <trkpt lat="49.7692" lon="4.831">
        <ele>264</ele>
        <time>2021-05-15T10:51:02.000Z</time>
      </trkpt>
      <trkpt lat="49.76917" lon="4.83093">
        <ele>264</ele>
        <time>2021-05-15T10:51:03.000Z</time>
      </trkpt>
      <trkpt lat="49.76914" lon="4.83086">
        <ele>264</ele>
        <time>2021-05-15T10:51:04.000Z</time>
      </trkpt>
      <trkpt lat="49.76911" lon="4.83079">
        <ele>264</ele>
        <time>2021-05-15T10:51:05.000Z</time>
      </trkpt>
      <trkpt lat="49.76908" lon="4.83072">
        <ele>264</ele>
        <time>2021-05-15T10:51:06.000Z</time>
      </trkpt>
      <trkpt lat="49.76905" lon="4.83065">
        <ele>263</ele>
        <time>2021-05-15T10:51:07.000Z</time>
      </trkpt>
      <trkpt lat="49.76902" lon="4.83058">
        <ele>263</ele>
        <time>2021-05-15T10:51:08.000Z</time>
      </trkpt>
      <trkpt lat="49.76899" lon="4.83051">
        <ele>263</ele>
        <time>2021-05-15T10:51:09.000Z</time>
      </trkpt>
      <trkpt lat="49.76896" lon="4.83043">
        <ele>263</ele>
        <time>2021-05-15T10:51:10.000Z</time>
      </trkpt>
      <trkpt lat="49.76892" lon="4.83036">
        <ele>263</ele>
        <time>2021-05-15T10:51:11.000Z</time>
      </trkpt>
      <trkpt lat="49.76889" lon="4.83029">
        <ele>263</ele>
        <time>2021-05-15T10:51:12.000Z</time>
      </trkpt>
      <trkpt lat="49.76886" lon="4.83022">
        <ele>263</ele>
        <time>2021-05-15T10:51:13.000Z</time>
      </trkpt>
      <trkpt lat="49.76883" lon="4.83015">
        <ele>263</ele>
        <time>2021-05-15T10:51:14.000Z</time>
      </trkpt>
      <trkpt lat="49.7688" lon="4.83009">
        <ele>263</ele>
        <time>2021-05-15T10:51:15.000Z</time>
      </trkpt>
      <trkpt lat="49.76877" lon="4.83002">
        <ele>263</ele>
        <time>2021-05-15T10:51:16.000Z</time>
      </trkpt>
      <trkpt lat="49.76874" lon="4.82995">
        <ele>262</ele>
        <time>2021-05-15T10:51:17.000Z</time>
      </trkpt>
      <trkpt lat="49.76871" lon="4.82987">
        <ele>262</ele>
        <time>2021-05-15T10:51:18.000Z</time>
      </trkpt>
      <trkpt lat="49.76868" lon="4.8298">
        <ele>262</ele>
        <time>2021-05-15T10:51:19.000Z</time>
      </trkpt>
      <trkpt lat="49.76864" lon="4.82972">
        <ele>262</ele>
        <time>2021-05-15T10:51:20.000Z</time>
      </trkpt>
      <trkpt lat="49.76861" lon="4.82964">
        <ele>262</ele>
        <time>2021-05-15T10:51:21.000Z</time>
      </trkpt>
      <trkpt lat="49.76858" lon="4.82957">
        <ele>262</ele>
        <time>2021-05-15T10:51:22.000Z</time>
      </trkpt>
      <trkpt lat="49.76855" lon="4.82949">
        <ele>262</ele>
        <time>2021-05-15T10:51:23.000Z</time>
      </trkpt>
      <trkpt lat="49.76852" lon="4.82942">
        <ele>261</ele>
        <time>2021-05-15T10:51:24.000Z</time>
      </trkpt>
      <trkpt lat="49.76849" lon="4.82935">
        <ele>261</ele>
        <time>2021-05-15T10:51:25.000Z</time>
      </trkpt>
      <trkpt lat="49.76846" lon="4.82927">
        <ele>261</ele>
        <time>2021-05-15T10:51:26.000Z</time>
      </trkpt>
      <trkpt lat="49.76842" lon="4.8292">
        <ele>261</ele>
        <time>2021-05-15T10:51:27.000Z</time>
      </trkpt>
      <trkpt lat="49.76839" lon="4.82912">
        <ele>261</ele>
        <time>2021-05-15T10:51:28.000Z</time>
      </trkpt>
      <trkpt lat="49.76835" lon="4.82904">
        <ele>261</ele>
        <time>2021-05-15T10:51:29.000Z</time>
      </trkpt>
      <trkpt lat="49.76832" lon="4.82896">
        <ele>260</ele>
        <time>2021-05-15T10:51:30.000Z</time>
      </trkpt>
      <trkpt lat="49.76828" lon="4.82888">
        <ele>260</ele>
        <time>2021-05-15T10:51:31.000Z</time>
      </trkpt>
      <trkpt lat="49.76825" lon="4.82881">
        <ele>260</ele>
        <time>2021-05-15T10:51:32.000Z</time>
      </trkpt>
      <trkpt lat="49.76822" lon="4.82874">
        <ele>260</ele>
        <time>2021-05-15T10:51:33.000Z</time>
      </trkpt>
      <trkpt lat="49.76818" lon="4.82867">
        <ele>260</ele>
        <time>2021-05-15T10:51:34.000Z</time>
      </trkpt>
      <trkpt lat="49.76815" lon="4.8286">
        <ele>260</ele>
        <time>2021-05-15T10:51:35.000Z</time>
      </trkpt>
      <trkpt lat="49.76811" lon="4.82854">
        <ele>260</ele>
        <time>2021-05-15T10:51:36.000Z</time>
      </trkpt>
      <trkpt lat="49.76808" lon="4.82846">
        <ele>260</ele>
        <time>2021-05-15T10:51:37.000Z</time>
      </trkpt>
      <trkpt lat="49.76804" lon="4.82838">
        <ele>260</ele>
        <time>2021-05-15T10:51:38.000Z</time>
      </trkpt>
      <trkpt lat="49.768" lon="4.82831">
        <ele>259</ele>
        <time>2021-05-15T10:51:39.000Z</time>
      </trkpt>
      <trkpt lat="49.76797" lon="4.82823">
        <ele>259</ele>
        <time>2021-05-15T10:51:40.000Z</time>
      </trkpt>
      <trkpt lat="49.76793" lon="4.82815">
        <ele>259</ele>
        <time>2021-05-15T10:51:41.000Z</time>
      </trkpt>
      <trkpt lat="49.76789" lon="4.82807">
        <ele>259</ele>
        <time>2021-05-15T10:51:42.000Z</time>
      </trkpt>
      <trkpt lat="49.76784" lon="4.82799">
        <ele>258</ele>
        <time>2021-05-15T10:51:43.000Z</time>
      </trkpt>
      <trkpt lat="49.7678" lon="4.8279">
        <ele>258</ele>
        <time>2021-05-15T10:51:44.000Z</time>
      </trkpt>
      <trkpt lat="49.76776" lon="4.82781">
        <ele>258</ele>
        <time>2021-05-15T10:51:45.000Z</time>
      </trkpt>
      <trkpt lat="49.76772" lon="4.82772">
        <ele>258</ele>
        <time>2021-05-15T10:51:46.000Z</time>
      </trkpt>
      <trkpt lat="49.76768" lon="4.82764">
        <ele>257</ele>
        <time>2021-05-15T10:51:47.000Z</time>
      </trkpt>
      <trkpt lat="49.76764" lon="4.82755">
        <ele>257</ele>
        <time>2021-05-15T10:51:48.000Z</time>
      </trkpt>
      <trkpt lat="49.76761" lon="4.82746">
        <ele>257</ele>
        <time>2021-05-15T10:51:49.000Z</time>
      </trkpt>
      <trkpt lat="49.76757" lon="4.82737">
        <ele>256</ele>
        <time>2021-05-15T10:51:50.000Z</time>
      </trkpt>
      <trkpt lat="49.76753" lon="4.82728">
        <ele>256</ele>
        <time>2021-05-15T10:51:51.000Z</time>
      </trkpt>
      <trkpt lat="49.76749" lon="4.82719">
        <ele>256</ele>
        <time>2021-05-15T10:51:52.000Z</time>
      </trkpt>
      <trkpt lat="49.76745" lon="4.82711">
        <ele>256</ele>
        <time>2021-05-15T10:51:53.000Z</time>
      </trkpt>
      <trkpt lat="49.76742" lon="4.82702">
        <ele>255</ele>
        <time>2021-05-15T10:51:54.000Z</time>
      </trkpt>
      <trkpt lat="49.76738" lon="4.82693">
        <ele>255</ele>
        <time>2021-05-15T10:51:55.000Z</time>
      </trkpt>
      <trkpt lat="49.76734" lon="4.82684">
        <ele>255</ele>
        <time>2021-05-15T10:51:56.000Z</time>
      </trkpt>
      <trkpt lat="49.76731" lon="4.82675">
        <ele>255</ele>
        <time>2021-05-15T10:51:57.000Z</time>
      </trkpt>
      <trkpt lat="49.76728" lon="4.82665">
        <ele>255</ele>
        <time>2021-05-15T10:51:58.000Z</time>
      </trkpt>
      <trkpt lat="49.76726" lon="4.82655">
        <ele>255</ele>
        <time>2021-05-15T10:51:59.000Z</time>
      </trkpt>
      <trkpt lat="49.76723" lon="4.82645">
        <ele>255</ele>
        <time>2021-05-15T10:52:00.000Z</time>
      </trkpt>
      <trkpt lat="49.76721" lon="4.82636">
        <ele>255</ele>
        <time>2021-05-15T10:52:01.000Z</time>
      </trkpt>
      <trkpt lat="49.76718" lon="4.82626">
        <ele>255</ele>
        <time>2021-05-15T10:52:02.000Z</time>
      </trkpt>
      <trkpt lat="49.76715" lon="4.82617">
        <ele>255</ele>
        <time>2021-05-15T10:52:03.000Z</time>
      </trkpt>
      <trkpt lat="49.76712" lon="4.82607">
        <ele>254</ele>
        <time>2021-05-15T10:52:04.000Z</time>
      </trkpt>
      <trkpt lat="49.7671" lon="4.82597">
        <ele>254</ele>
        <time>2021-05-15T10:52:05.000Z</time>
      </trkpt>
      <trkpt lat="49.76708" lon="4.82589">
        <ele>254</ele>
        <time>2021-05-15T10:52:06.000Z</time>
      </trkpt>
      <trkpt lat="49.76706" lon="4.82581">
        <ele>254</ele>
        <time>2021-05-15T10:52:07.000Z</time>
      </trkpt>
      <trkpt lat="49.76704" lon="4.82573">
        <ele>254</ele>
        <time>2021-05-15T10:52:08.000Z</time>
      </trkpt>
      <trkpt lat="49.76702" lon="4.82565">
        <ele>254</ele>
        <time>2021-05-15T10:52:09.000Z</time>
      </trkpt>
      <trkpt lat="49.76701" lon="4.82557">
        <ele>254</ele>
        <time>2021-05-15T10:52:10.000Z</time>
      </trkpt>
      <trkpt lat="49.76699" lon="4.82548">
        <ele>254</ele>
        <time>2021-05-15T10:52:11.000Z</time>
      </trkpt>
      <trkpt lat="49.76697" lon="4.8254">
        <ele>254</ele>
        <time>2021-05-15T10:52:12.000Z</time>
      </trkpt>
      <trkpt lat="49.76694" lon="4.82532">
        <ele>254</ele>
        <time>2021-05-15T10:52:13.000Z</time>
      </trkpt>
      <trkpt lat="49.76692" lon="4.82524">
        <ele>254</ele>
        <time>2021-05-15T10:52:14.000Z</time>
      </trkpt>
      <trkpt lat="49.7669" lon="4.82515">
        <ele>254</ele>
        <time>2021-05-15T10:52:15.000Z</time>
      </trkpt>
      <trkpt lat="49.76688" lon="4.82506">
        <ele>254</ele>
        <time>2021-05-15T10:52:16.000Z</time>
      </trkpt>
      <trkpt lat="49.76686" lon="4.82497">
        <ele>254</ele>
        <time>2021-05-15T10:52:17.000Z</time>
      </trkpt>
      <trkpt lat="49.76683" lon="4.82488">
        <ele>253</ele>
        <time>2021-05-15T10:52:18.000Z</time>
      </trkpt>
      <trkpt lat="49.7668" lon="4.8248">
        <ele>253</ele>
        <time>2021-05-15T10:52:19.000Z</time>
      </trkpt>
      <trkpt lat="49.76678" lon="4.82471">
        <ele>253</ele>
        <time>2021-05-15T10:52:20.000Z</time>
      </trkpt>
      <trkpt lat="49.76675" lon="4.82462">
        <ele>253</ele>
        <time>2021-05-15T10:52:21.000Z</time>
      </trkpt>
      <trkpt lat="49.76673" lon="4.82454">
        <ele>253</ele>
        <time>2021-05-15T10:52:22.000Z</time>
      </trkpt>
      <trkpt lat="49.7667" lon="4.82446">
        <ele>253</ele>
        <time>2021-05-15T10:52:23.000Z</time>
      </trkpt>
      <trkpt lat="49.76668" lon="4.82437">
        <ele>253</ele>
        <time>2021-05-15T10:52:24.000Z</time>
      </trkpt>
      <trkpt lat="49.76665" lon="4.82429">
        <ele>253</ele>
        <time>2021-05-15T10:52:25.000Z</time>
      </trkpt>
      <trkpt lat="49.76663" lon="4.8242">
        <ele>253</ele>
        <time>2021-05-15T10:52:26.000Z</time>
      </trkpt>
      <trkpt lat="49.76661" lon="4.82411">
        <ele>253</ele>
        <time>2021-05-15T10:52:27.000Z</time>
      </trkpt>
      <trkpt lat="49.7666" lon="4.82402">
        <ele>252</ele>
        <time>2021-05-15T10:52:28.000Z</time>
      </trkpt>
      <trkpt lat="49.76658" lon="4.82393">
        <ele>252</ele>
        <time>2021-05-15T10:52:29.000Z</time>
      </trkpt>
      <trkpt lat="49.76657" lon="4.82384">
        <ele>252</ele>
        <time>2021-05-15T10:52:30.000Z</time>
      </trkpt>
      <trkpt lat="49.76656" lon="4.82375">
        <ele>252</ele>
        <time>2021-05-15T10:52:31.000Z</time>
      </trkpt>
      <trkpt lat="49.76655" lon="4.82366">
        <ele>252</ele>
        <time>2021-05-15T10:52:32.000Z</time>
      </trkpt>
      <trkpt lat="49.76654" lon="4.82356">
        <ele>252</ele>
        <time>2021-05-15T10:52:33.000Z</time>
      </trkpt>
      <trkpt lat="49.76653" lon="4.82347">
        <ele>252</ele>
        <time>2021-05-15T10:52:34.000Z</time>
      </trkpt>
      <trkpt lat="49.76652" lon="4.82337">
        <ele>251</ele>
        <time>2021-05-15T10:52:35.000Z</time>
      </trkpt>
      <trkpt lat="49.76652" lon="4.82328">
        <ele>251</ele>
        <time>2021-05-15T10:52:36.000Z</time>
      </trkpt>
      <trkpt lat="49.76651" lon="4.82319">
        <ele>251</ele>
        <time>2021-05-15T10:52:37.000Z</time>
      </trkpt>
      <trkpt lat="49.76651" lon="4.8231">
        <ele>251</ele>
        <time>2021-05-15T10:52:38.000Z</time>
      </trkpt>
      <trkpt lat="49.76651" lon="4.823">
        <ele>251</ele>
        <time>2021-05-15T10:52:39.000Z</time>
      </trkpt>
      <trkpt lat="49.76652" lon="4.82291">
        <ele>251</ele>
        <time>2021-05-15T10:52:40.000Z</time>
      </trkpt>
      <trkpt lat="49.76651" lon="4.82281">
        <ele>251</ele>
        <time>2021-05-15T10:52:41.000Z</time>
      </trkpt>
      <trkpt lat="49.76651" lon="4.82272">
        <ele>251</ele>
        <time>2021-05-15T10:52:42.000Z</time>
      </trkpt>
      <trkpt lat="49.76649" lon="4.82263">
        <ele>251</ele>
        <time>2021-05-15T10:52:43.000Z</time>
      </trkpt>
      <trkpt lat="49.76647" lon="4.82254">
        <ele>251</ele>
        <time>2021-05-15T10:52:44.000Z</time>
      </trkpt>
      <trkpt lat="49.76646" lon="4.82245">
        <ele>251</ele>
        <time>2021-05-15T10:52:45.000Z</time>
      </trkpt>
      <trkpt lat="49.76644" lon="4.82236">
        <ele>251</ele>
        <time>2021-05-15T10:52:46.000Z</time>
      </trkpt>
      <trkpt lat="49.76642" lon="4.82228">
        <ele>251</ele>
        <time>2021-05-15T10:52:47.000Z</time>
      </trkpt>
      <trkpt lat="49.7664" lon="4.82219">
        <ele>251</ele>
        <time>2021-05-15T10:52:48.000Z</time>
      </trkpt>
      <trkpt lat="49.76638" lon="4.82211">
        <ele>251</ele>
        <time>2021-05-15T10:52:49.000Z</time>
      </trkpt>
      <trkpt lat="49.76636" lon="4.82203">
        <ele>251</ele>
        <time>2021-05-15T10:52:50.000Z</time>
      </trkpt>
      <trkpt lat="49.76635" lon="4.82195">
        <ele>251</ele>
        <time>2021-05-15T10:52:51.000Z</time>
      </trkpt>
      <trkpt lat="49.76633" lon="4.82187">
        <ele>251</ele>
        <time>2021-05-15T10:52:52.000Z</time>
      </trkpt>
      <trkpt lat="49.76632" lon="4.8218">
        <ele>251</ele>
        <time>2021-05-15T10:52:53.000Z</time>
      </trkpt>
      <trkpt lat="49.76631" lon="4.82172">
        <ele>251</ele>
        <time>2021-05-15T10:52:54.000Z</time>
      </trkpt>
      <trkpt lat="49.76629" lon="4.82165">
        <ele>251</ele>
        <time>2021-05-15T10:52:55.000Z</time>
      </trkpt>
      <trkpt lat="49.76628" lon="4.82157">
        <ele>251</ele>
        <time>2021-05-15T10:52:56.000Z</time>
      </trkpt>
      <trkpt lat="49.76625" lon="4.8215">
        <ele>252</ele>
        <time>2021-05-15T10:52:57.000Z</time>
      </trkpt>
      <trkpt lat="49.76623" lon="4.82144">
        <ele>252</ele>
        <time>2021-05-15T10:52:58.000Z</time>
      </trkpt>
      <trkpt lat="49.7662" lon="4.82137">
        <ele>252</ele>
        <time>2021-05-15T10:52:59.000Z</time>
      </trkpt>
      <trkpt lat="49.76618" lon="4.8213">
        <ele>252</ele>
        <time>2021-05-15T10:53:00.000Z</time>
      </trkpt>
      <trkpt lat="49.76616" lon="4.82122">
        <ele>252</ele>
        <time>2021-05-15T10:53:01.000Z</time>
      </trkpt>
      <trkpt lat="49.76614" lon="4.82115">
        <ele>252</ele>
        <time>2021-05-15T10:53:02.000Z</time>
      </trkpt>
      <trkpt lat="49.76612" lon="4.82107">
        <ele>252</ele>
        <time>2021-05-15T10:53:03.000Z</time>
      </trkpt>
      <trkpt lat="49.7661" lon="4.821">
        <ele>252</ele>
        <time>2021-05-15T10:53:04.000Z</time>
      </trkpt>
      <trkpt lat="49.76608" lon="4.82093">
        <ele>252</ele>
        <time>2021-05-15T10:53:05.000Z</time>
      </trkpt>
      <trkpt lat="49.76606" lon="4.82085">
        <ele>252</ele>
        <time>2021-05-15T10:53:06.000Z</time>
      </trkpt>
      <trkpt lat="49.76604" lon="4.82077">
        <ele>252</ele>
        <time>2021-05-15T10:53:07.000Z</time>
      </trkpt>
      <trkpt lat="49.76602" lon="4.8207">
        <ele>252</ele>
        <time>2021-05-15T10:53:08.000Z</time>
      </trkpt>
      <trkpt lat="49.76601" lon="4.82063">
        <ele>252</ele>
        <time>2021-05-15T10:53:09.000Z</time>
      </trkpt>
      <trkpt lat="49.76599" lon="4.82055">
        <ele>252</ele>
        <time>2021-05-15T10:53:10.000Z</time>
      </trkpt>
      <trkpt lat="49.76598" lon="4.82048">
        <ele>252</ele>
        <time>2021-05-15T10:53:11.000Z</time>
      </trkpt>
      <trkpt lat="49.76596" lon="4.8204">
        <ele>252</ele>
        <time>2021-05-15T10:53:12.000Z</time>
      </trkpt>
      <trkpt lat="49.76596" lon="4.82032">
        <ele>252</ele>
        <time>2021-05-15T10:53:13.000Z</time>
      </trkpt>
      <trkpt lat="49.76595" lon="4.82024">
        <ele>252</ele>
        <time>2021-05-15T10:53:14.000Z</time>
      </trkpt>
      <trkpt lat="49.76594" lon="4.82017">
        <ele>252</ele>
        <time>2021-05-15T10:53:15.000Z</time>
      </trkpt>
      <trkpt lat="49.76592" lon="4.82011">
        <ele>251</ele>
        <time>2021-05-15T10:53:16.000Z</time>
      </trkpt>
      <trkpt lat="49.7659" lon="4.82007">
        <ele>251</ele>
        <time>2021-05-15T10:53:17.000Z</time>
      </trkpt>
      <trkpt lat="49.76588" lon="4.82004">
        <ele>251</ele>
        <time>2021-05-15T10:53:18.000Z</time>
      </trkpt>
      <trkpt lat="49.76585" lon="4.82002">
        <ele>252</ele>
        <time>2021-05-15T10:53:19.000Z</time>
      </trkpt>
      <trkpt lat="49.76582" lon="4.82002">
        <ele>252</ele>
        <time>2021-05-15T10:53:20.000Z</time>
      </trkpt>
      <trkpt lat="49.76579" lon="4.82004">
        <ele>251</ele>
        <time>2021-05-15T10:53:21.000Z</time>
      </trkpt>
      <trkpt lat="49.76576" lon="4.82006">
        <ele>251</ele>
        <time>2021-05-15T10:53:22.000Z</time>
      </trkpt>
      <trkpt lat="49.76573" lon="4.82009">
        <ele>252</ele>
        <time>2021-05-15T10:53:23.000Z</time>
      </trkpt>
      <trkpt lat="49.76569" lon="4.82013">
        <ele>252</ele>
        <time>2021-05-15T10:53:24.000Z</time>
      </trkpt>
      <trkpt lat="49.76566" lon="4.82016">
        <ele>252</ele>
        <time>2021-05-15T10:53:25.000Z</time>
      </trkpt>
      <trkpt lat="49.76563" lon="4.8202">
        <ele>252</ele>
        <time>2021-05-15T10:53:26.000Z</time>
      </trkpt>
      <trkpt lat="49.76559" lon="4.82024">
        <ele>252</ele>
        <time>2021-05-15T10:53:27.000Z</time>
      </trkpt>
      <trkpt lat="49.76556" lon="4.82027">
        <ele>251</ele>
        <time>2021-05-15T10:53:28.000Z</time>
      </trkpt>
      <trkpt lat="49.76551" lon="4.82028">
        <ele>251</ele>
        <time>2021-05-15T10:53:29.000Z</time>
      </trkpt>
      <trkpt lat="49.76547" lon="4.82028">
        <ele>251</ele>
        <time>2021-05-15T10:53:30.000Z</time>
      </trkpt>
      <trkpt lat="49.76544" lon="4.82025">
        <ele>251</ele>
        <time>2021-05-15T10:53:31.000Z</time>
      </trkpt>
      <trkpt lat="49.76541" lon="4.82021">
        <ele>251</ele>
        <time>2021-05-15T10:53:32.000Z</time>
      </trkpt>
      <trkpt lat="49.76538" lon="4.82016">
        <ele>251</ele>
        <time>2021-05-15T10:53:33.000Z</time>
      </trkpt>
      <trkpt lat="49.76536" lon="4.8201">
        <ele>251</ele>
        <time>2021-05-15T10:53:34.000Z</time>
      </trkpt>
      <trkpt lat="49.76535" lon="4.82004">
        <ele>251</ele>
        <time>2021-05-15T10:53:35.000Z</time>
      </trkpt>
      <trkpt lat="49.76533" lon="4.81998">
        <ele>251</ele>
        <time>2021-05-15T10:53:36.000Z</time>
      </trkpt>
      <trkpt lat="49.76531" lon="4.81992">
        <ele>251</ele>
        <time>2021-05-15T10:53:37.000Z</time>
      </trkpt>
      <trkpt lat="49.76529" lon="4.81986">
        <ele>251</ele>
        <time>2021-05-15T10:53:38.000Z</time>
      </trkpt>
      <trkpt lat="49.76526" lon="4.8198">
        <ele>252</ele>
        <time>2021-05-15T10:53:39.000Z</time>
      </trkpt>
      <trkpt lat="49.76524" lon="4.81974">
        <ele>252</ele>
        <time>2021-05-15T10:53:40.000Z</time>
      </trkpt>
      <trkpt lat="49.76522" lon="4.81967">
        <ele>252</ele>
        <time>2021-05-15T10:53:41.000Z</time>
      </trkpt>
      <trkpt lat="49.7652" lon="4.81961">
        <ele>252</ele>
        <time>2021-05-15T10:53:42.000Z</time>
      </trkpt>
      <trkpt lat="49.76518" lon="4.81955">
        <ele>252</ele>
        <time>2021-05-15T10:53:43.000Z</time>
      </trkpt>
      <trkpt lat="49.76516" lon="4.81949">
        <ele>252</ele>
        <time>2021-05-15T10:53:44.000Z</time>
      </trkpt>
      <trkpt lat="49.76514" lon="4.81943">
        <ele>252</ele>
        <time>2021-05-15T10:53:45.000Z</time>
      </trkpt>
      <trkpt lat="49.76513" lon="4.81937">
        <ele>252</ele>
        <time>2021-05-15T10:53:46.000Z</time>
      </trkpt>
      <trkpt lat="49.76511" lon="4.81931">
        <ele>252</ele>
        <time>2021-05-15T10:53:47.000Z</time>
      </trkpt>
      <trkpt lat="49.76509" lon="4.81925">
        <ele>252</ele>
        <time>2021-05-15T10:53:48.000Z</time>
      </trkpt>
      <trkpt lat="49.76508" lon="4.81919">
        <ele>252</ele>
        <time>2021-05-15T10:53:49.000Z</time>
      </trkpt>
      <trkpt lat="49.76506" lon="4.81913">
        <ele>253</ele>
        <time>2021-05-15T10:53:50.000Z</time>
      </trkpt>
      <trkpt lat="49.76504" lon="4.81907">
        <ele>253</ele>
        <time>2021-05-15T10:53:51.000Z</time>
      </trkpt>
      <trkpt lat="49.76503" lon="4.81902">
        <ele>253</ele>
        <time>2021-05-15T10:53:52.000Z</time>
      </trkpt>
      <trkpt lat="49.76501" lon="4.81896">
        <ele>253</ele>
        <time>2021-05-15T10:53:53.000Z</time>
      </trkpt>
      <trkpt lat="49.76499" lon="4.81891">
        <ele>253</ele>
        <time>2021-05-15T10:53:54.000Z</time>
      </trkpt>
      <trkpt lat="49.76498" lon="4.81885">
        <ele>253</ele>
        <time>2021-05-15T10:53:55.000Z</time>
      </trkpt>
      <trkpt lat="49.76497" lon="4.81879">
        <ele>253</ele>
        <time>2021-05-15T10:53:56.000Z</time>
      </trkpt>
      <trkpt lat="49.76496" lon="4.81873">
        <ele>253</ele>
        <time>2021-05-15T10:53:57.000Z</time>
      </trkpt>
      <trkpt lat="49.76495" lon="4.81867">
        <ele>254</ele>
        <time>2021-05-15T10:53:58.000Z</time>
      </trkpt>
      <trkpt lat="49.76493" lon="4.8186">
        <ele>254</ele>
        <time>2021-05-15T10:53:59.000Z</time>
      </trkpt>
      <trkpt lat="49.76491" lon="4.81854">
        <ele>254</ele>
        <time>2021-05-15T10:54:00.000Z</time>
      </trkpt>
      <trkpt lat="49.7649" lon="4.81848">
        <ele>254</ele>
        <time>2021-05-15T10:54:01.000Z</time>
      </trkpt>
      <trkpt lat="49.76488" lon="4.81842">
        <ele>254</ele>
        <time>2021-05-15T10:54:02.000Z</time>
      </trkpt>
      <trkpt lat="49.76487" lon="4.81836">
        <ele>254</ele>
        <time>2021-05-15T10:54:03.000Z</time>
      </trkpt>
      <trkpt lat="49.76486" lon="4.8183">
        <ele>254</ele>
        <time>2021-05-15T10:54:04.000Z</time>
      </trkpt>
      <trkpt lat="49.76484" lon="4.81824">
        <ele>254</ele>
        <time>2021-05-15T10:54:05.000Z</time>
      </trkpt>
      <trkpt lat="49.76483" lon="4.81818">
        <ele>254</ele>
        <time>2021-05-15T10:54:06.000Z</time>
      </trkpt>
      <trkpt lat="49.76481" lon="4.81812">
        <ele>254</ele>
        <time>2021-05-15T10:54:07.000Z</time>
      </trkpt>
      <trkpt lat="49.7648" lon="4.81806">
        <ele>254</ele>
        <time>2021-05-15T10:54:08.000Z</time>
      </trkpt>
      <trkpt lat="49.76478" lon="4.81801">
        <ele>254</ele>
        <time>2021-05-15T10:54:09.000Z</time>
      </trkpt>
      <trkpt lat="49.76477" lon="4.81795">
        <ele>255</ele>
        <time>2021-05-15T10:54:10.000Z</time>
      </trkpt>
      <trkpt lat="49.76476" lon="4.8179">
        <ele>255</ele>
        <time>2021-05-15T10:54:11.000Z</time>
      </trkpt>
      <trkpt lat="49.76474" lon="4.81785">
        <ele>255</ele>
        <time>2021-05-15T10:54:12.000Z</time>
      </trkpt>
      <trkpt lat="49.76473" lon="4.81779">
        <ele>255</ele>
        <time>2021-05-15T10:54:13.000Z</time>
      </trkpt>
      <trkpt lat="49.76472" lon="4.81773">
        <ele>255</ele>
        <time>2021-05-15T10:54:14.000Z</time>
      </trkpt>
      <trkpt lat="49.76471" lon="4.81768">
        <ele>255</ele>
        <time>2021-05-15T10:54:15.000Z</time>
      </trkpt>
      <trkpt lat="49.76469" lon="4.81763">
        <ele>255</ele>
        <time>2021-05-15T10:54:16.000Z</time>
      </trkpt>
      <trkpt lat="49.76468" lon="4.81758">
        <ele>256</ele>
        <time>2021-05-15T10:54:17.000Z</time>
      </trkpt>
      <trkpt lat="49.76467" lon="4.81753">
        <ele>256</ele>
        <time>2021-05-15T10:54:18.000Z</time>
      </trkpt>
      <trkpt lat="49.76465" lon="4.81749">
        <ele>256</ele>
        <time>2021-05-15T10:54:19.000Z</time>
      </trkpt>
      <trkpt lat="49.76464" lon="4.81744">
        <ele>256</ele>
        <time>2021-05-15T10:54:20.000Z</time>
      </trkpt>
      <trkpt lat="49.76463" lon="4.81739">
        <ele>256</ele>
        <time>2021-05-15T10:54:21.000Z</time>
      </trkpt>
      <trkpt lat="49.76462" lon="4.81734">
        <ele>256</ele>
        <time>2021-05-15T10:54:22.000Z</time>
      </trkpt>
      <trkpt lat="49.7646" lon="4.81729">
        <ele>257</ele>
        <time>2021-05-15T10:54:23.000Z</time>
      </trkpt>
      <trkpt lat="49.76459" lon="4.81724">
        <ele>257</ele>
        <time>2021-05-15T10:54:24.000Z</time>
      </trkpt>
      <trkpt lat="49.76458" lon="4.81719">
        <ele>257</ele>
        <time>2021-05-15T10:54:25.000Z</time>
      </trkpt>
      <trkpt lat="49.76457" lon="4.81715">
        <ele>257</ele>
        <time>2021-05-15T10:54:26.000Z</time>
      </trkpt>
      <trkpt lat="49.76456" lon="4.8171">
        <ele>257</ele>
        <time>2021-05-15T10:54:27.000Z</time>
      </trkpt>
      <trkpt lat="49.76454" lon="4.81705">
        <ele>257</ele>
        <time>2021-05-15T10:54:28.000Z</time>
      </trkpt>
      <trkpt lat="49.76453" lon="4.81701">
        <ele>257</ele>
        <time>2021-05-15T10:54:29.000Z</time>
      </trkpt>
      <trkpt lat="49.76452" lon="4.81696">
        <ele>258</ele>
        <time>2021-05-15T10:54:30.000Z</time>
      </trkpt>
      <trkpt lat="49.7645" lon="4.81692">
        <ele>258</ele>
        <time>2021-05-15T10:54:31.000Z</time>
      </trkpt>
      <trkpt lat="49.76449" lon="4.81687">
        <ele>258</ele>
        <time>2021-05-15T10:54:32.000Z</time>
      </trkpt>
      <trkpt lat="49.76448" lon="4.81682">
        <ele>258</ele>
        <time>2021-05-15T10:54:33.000Z</time>
      </trkpt>
      <trkpt lat="49.76447" lon="4.81677">
        <ele>258</ele>
        <time>2021-05-15T10:54:34.000Z</time>
      </trkpt>
      <trkpt lat="49.76445" lon="4.81672">
        <ele>258</ele>
        <time>2021-05-15T10:54:35.000Z</time>
      </trkpt>
      <trkpt lat="49.76444" lon="4.81668">
        <ele>258</ele>
        <time>2021-05-15T10:54:36.000Z</time>
      </trkpt>
      <trkpt lat="49.76443" lon="4.81663">
        <ele>259</ele>
        <time>2021-05-15T10:54:37.000Z</time>
      </trkpt>
      <trkpt lat="49.76442" lon="4.81658">
        <ele>259</ele>
        <time>2021-05-15T10:54:38.000Z</time>
      </trkpt>
      <trkpt lat="49.76441" lon="4.81654">
        <ele>259</ele>
        <time>2021-05-15T10:54:39.000Z</time>
      </trkpt>
      <trkpt lat="49.7644" lon="4.8165">
        <ele>259</ele>
        <time>2021-05-15T10:54:40.000Z</time>
      </trkpt>
      <trkpt lat="49.76439" lon="4.81646">
        <ele>259</ele>
        <time>2021-05-15T10:54:41.000Z</time>
      </trkpt>
      <trkpt lat="49.76438" lon="4.81642">
        <ele>259</ele>
        <time>2021-05-15T10:54:42.000Z</time>
      </trkpt>
      <trkpt lat="49.76437" lon="4.81638">
        <ele>259</ele>
        <time>2021-05-15T10:54:43.000Z</time>
      </trkpt>
      <trkpt lat="49.76436" lon="4.81634">
        <ele>260</ele>
        <time>2021-05-15T10:54:44.000Z</time>
      </trkpt>
      <trkpt lat="49.76436" lon="4.8163">
        <ele>260</ele>
        <time>2021-05-15T10:54:45.000Z</time>
      </trkpt>
      <trkpt lat="49.76435" lon="4.81626">
        <ele>260</ele>
        <time>2021-05-15T10:54:46.000Z</time>
      </trkpt>
      <trkpt lat="49.76434" lon="4.81622">
        <ele>260</ele>
        <time>2021-05-15T10:54:47.000Z</time>
      </trkpt>
      <trkpt lat="49.76433" lon="4.81618">
        <ele>260</ele>
        <time>2021-05-15T10:54:48.000Z</time>
      </trkpt>
      <trkpt lat="49.76432" lon="4.81615">
        <ele>260</ele>
        <time>2021-05-15T10:54:49.000Z</time>
      </trkpt>
      <trkpt lat="49.76432" lon="4.81612">
        <ele>261</ele>
        <time>2021-05-15T10:54:50.000Z</time>
      </trkpt>
      <trkpt lat="49.76432" lon="4.8161">
        <ele>261</ele>
        <time>2021-05-15T10:54:51.000Z</time>
      </trkpt>
      <trkpt lat="49.76433" lon="4.81607">
        <ele>261</ele>
        <time>2021-05-15T10:54:52.000Z</time>
      </trkpt>
      <trkpt lat="49.76432" lon="4.81604">
        <ele>261</ele>
        <time>2021-05-15T10:54:53.000Z</time>
      </trkpt>
      <trkpt lat="49.76432" lon="4.81602">
        <ele>261</ele>
        <time>2021-05-15T10:54:54.000Z</time>
      </trkpt>
      <trkpt lat="49.76432" lon="4.81599">
        <ele>261</ele>
        <time>2021-05-15T10:54:55.000Z</time>
      </trkpt>
      <trkpt lat="49.76431" lon="4.81597">
        <ele>261</ele>
        <time>2021-05-15T10:54:56.000Z</time>
      </trkpt>
      <trkpt lat="49.76431" lon="4.81594">
        <ele>261</ele>
        <time>2021-05-15T10:54:57.000Z</time>
      </trkpt>
      <trkpt lat="49.76431" lon="4.81591">
        <ele>261</ele>
        <time>2021-05-15T10:54:58.000Z</time>
      </trkpt>
      <trkpt lat="49.7643" lon="4.81589">
        <ele>261</ele>
        <time>2021-05-15T10:54:59.000Z</time>
      </trkpt>
      <trkpt lat="49.7643" lon="4.81586">
        <ele>261</ele>
        <time>2021-05-15T10:55:00.000Z</time>
      </trkpt>
      <trkpt lat="49.76429" lon="4.81582">
        <ele>262</ele>
        <time>2021-05-15T10:55:01.000Z</time>
      </trkpt>
      <trkpt lat="49.76428" lon="4.8158">
        <ele>262</ele>
        <time>2021-05-15T10:55:02.000Z</time>
      </trkpt>
      <trkpt lat="49.76427" lon="4.81577">
        <ele>262</ele>
        <time>2021-05-15T10:55:03.000Z</time>
      </trkpt>
      <trkpt lat="49.76426" lon="4.81574">
        <ele>262</ele>
        <time>2021-05-15T10:55:04.000Z</time>
      </trkpt>
      <trkpt lat="49.76425" lon="4.81571">
        <ele>262</ele>
        <time>2021-05-15T10:55:05.000Z</time>
      </trkpt>
      <trkpt lat="49.76424" lon="4.81569">
        <ele>262</ele>
        <time>2021-05-15T10:55:06.000Z</time>
      </trkpt>
      <trkpt lat="49.76422" lon="4.81567">
        <ele>262</ele>
        <time>2021-05-15T10:55:07.000Z</time>
      </trkpt>
      <trkpt lat="49.7642" lon="4.81564">
        <ele>263</ele>
        <time>2021-05-15T10:55:08.000Z</time>
      </trkpt>
      <trkpt lat="49.76418" lon="4.81561">
        <ele>263</ele>
        <time>2021-05-15T10:55:09.000Z</time>
      </trkpt>
      <trkpt lat="49.76417" lon="4.81559">
        <ele>263</ele>
        <time>2021-05-15T10:55:10.000Z</time>
      </trkpt>
      <trkpt lat="49.76415" lon="4.81556">
        <ele>263</ele>
        <time>2021-05-15T10:55:11.000Z</time>
      </trkpt>
      <trkpt lat="49.76413" lon="4.81555">
        <ele>264</ele>
        <time>2021-05-15T10:55:12.000Z</time>
      </trkpt>
      <trkpt lat="49.76412" lon="4.81552">
        <ele>264</ele>
        <time>2021-05-15T10:55:13.000Z</time>
      </trkpt>
      <trkpt lat="49.7641" lon="4.8155">
        <ele>264</ele>
        <time>2021-05-15T10:55:14.000Z</time>
      </trkpt>
      <trkpt lat="49.76409" lon="4.81548">
        <ele>265</ele>
        <time>2021-05-15T10:55:15.000Z</time>
      </trkpt>
      <trkpt lat="49.76408" lon="4.81545">
        <ele>265</ele>
        <time>2021-05-15T10:55:16.000Z</time>
      </trkpt>
      <trkpt lat="49.76406" lon="4.81542">
        <ele>265</ele>
        <time>2021-05-15T10:55:17.000Z</time>
      </trkpt>
      <trkpt lat="49.76405" lon="4.81539">
        <ele>265</ele>
        <time>2021-05-15T10:55:18.000Z</time>
      </trkpt>
      <trkpt lat="49.76404" lon="4.81536">
        <ele>266</ele>
        <time>2021-05-15T10:55:19.000Z</time>
      </trkpt>
      <trkpt lat="49.76403" lon="4.81533">
        <ele>266</ele>
        <time>2021-05-15T10:55:20.000Z</time>
      </trkpt>
      <trkpt lat="49.76401" lon="4.8153">
        <ele>266</ele>
        <time>2021-05-15T10:55:21.000Z</time>
      </trkpt>
      <trkpt lat="49.76399" lon="4.81526">
        <ele>266</ele>
        <time>2021-05-15T10:55:22.000Z</time>
      </trkpt>
      <trkpt lat="49.76397" lon="4.81522">
        <ele>267</ele>
        <time>2021-05-15T10:55:23.000Z</time>
      </trkpt>
      <trkpt lat="49.76396" lon="4.81519">
        <ele>267</ele>
        <time>2021-05-15T10:55:24.000Z</time>
      </trkpt>
      <trkpt lat="49.76394" lon="4.81515">
        <ele>267</ele>
        <time>2021-05-15T10:55:25.000Z</time>
      </trkpt>
      <trkpt lat="49.76392" lon="4.81512">
        <ele>268</ele>
        <time>2021-05-15T10:55:26.000Z</time>
      </trkpt>
      <trkpt lat="49.7639" lon="4.81508">
        <ele>268</ele>
        <time>2021-05-15T10:55:27.000Z</time>
      </trkpt>
      <trkpt lat="49.76387" lon="4.81503">
        <ele>268</ele>
        <time>2021-05-15T10:55:28.000Z</time>
      </trkpt>
      <trkpt lat="49.76385" lon="4.81499">
        <ele>269</ele>
        <time>2021-05-15T10:55:29.000Z</time>
      </trkpt>
      <trkpt lat="49.76383" lon="4.81495">
        <ele>269</ele>
        <time>2021-05-15T10:55:30.000Z</time>
      </trkpt>
      <trkpt lat="49.7638" lon="4.81491">
        <ele>269</ele>
        <time>2021-05-15T10:55:31.000Z</time>
      </trkpt>
      <trkpt lat="49.76377" lon="4.81487">
        <ele>270</ele>
        <time>2021-05-15T10:55:32.000Z</time>
      </trkpt>
      <trkpt lat="49.76375" lon="4.81484">
        <ele>270</ele>
        <time>2021-05-15T10:55:33.000Z</time>
      </trkpt>
      <trkpt lat="49.76372" lon="4.81481">
        <ele>270</ele>
        <time>2021-05-15T10:55:34.000Z</time>
      </trkpt>
      <trkpt lat="49.76369" lon="4.81478">
        <ele>271</ele>
        <time>2021-05-15T10:55:35.000Z</time>
      </trkpt>
      <trkpt lat="49.76366" lon="4.81475">
        <ele>271</ele>
        <time>2021-05-15T10:55:36.000Z</time>
      </trkpt>
      <trkpt lat="49.76363" lon="4.81473">
        <ele>271</ele>
        <time>2021-05-15T10:55:37.000Z</time>
      </trkpt>
      <trkpt lat="49.7636" lon="4.81471">
        <ele>271</ele>
        <time>2021-05-15T10:55:38.000Z</time>
      </trkpt>
      <trkpt lat="49.76357" lon="4.8147">
        <ele>272</ele>
        <time>2021-05-15T10:55:39.000Z</time>
      </trkpt>
      <trkpt lat="49.76354" lon="4.81468">
        <ele>272</ele>
        <time>2021-05-15T10:55:40.000Z</time>
      </trkpt>
      <trkpt lat="49.76351" lon="4.81467">
        <ele>272</ele>
        <time>2021-05-15T10:55:41.000Z</time>
      </trkpt>
      <trkpt lat="49.76348" lon="4.81466">
        <ele>273</ele>
        <time>2021-05-15T10:55:42.000Z</time>
      </trkpt>
      <trkpt lat="49.76345" lon="4.81465">
        <ele>273</ele>
        <time>2021-05-15T10:55:43.000Z</time>
      </trkpt>
      <trkpt lat="49.76342" lon="4.81464">
        <ele>273</ele>
        <time>2021-05-15T10:55:44.000Z</time>
      </trkpt>
      <trkpt lat="49.76339" lon="4.81463">
        <ele>273</ele>
        <time>2021-05-15T10:55:45.000Z</time>
      </trkpt>
      <trkpt lat="49.76336" lon="4.81462">
        <ele>273</ele>
        <time>2021-05-15T10:55:46.000Z</time>
      </trkpt>
      <trkpt lat="49.76333" lon="4.81461">
        <ele>274</ele>
        <time>2021-05-15T10:55:47.000Z</time>
      </trkpt>
      <trkpt lat="49.7633" lon="4.81461">
        <ele>274</ele>
        <time>2021-05-15T10:55:48.000Z</time>
      </trkpt>
      <trkpt lat="49.76326" lon="4.8146">
        <ele>274</ele>
        <time>2021-05-15T10:55:49.000Z</time>
      </trkpt>
      <trkpt lat="49.76322" lon="4.81459">
        <ele>274</ele>
        <time>2021-05-15T10:55:50.000Z</time>
      </trkpt>
      <trkpt lat="49.76318" lon="4.81458">
        <ele>274</ele>
        <time>2021-05-15T10:55:51.000Z</time>
      </trkpt>
      <trkpt lat="49.76313" lon="4.81457">
        <ele>274</ele>
        <time>2021-05-15T10:55:52.000Z</time>
      </trkpt>
      <trkpt lat="49.76309" lon="4.81457">
        <ele>274</ele>
        <time>2021-05-15T10:55:53.000Z</time>
      </trkpt>
      <trkpt lat="49.76303" lon="4.81457">
        <ele>274</ele>
        <time>2021-05-15T10:55:54.000Z</time>
      </trkpt>
      <trkpt lat="49.76298" lon="4.81458">
        <ele>274</ele>
        <time>2021-05-15T10:55:55.000Z</time>
      </trkpt>
      <trkpt lat="49.76293" lon="4.81457">
        <ele>274</ele>
        <time>2021-05-15T10:55:56.000Z</time>
      </trkpt>
      <trkpt lat="49.76287" lon="4.81457">
        <ele>274</ele>
        <time>2021-05-15T10:55:57.000Z</time>
      </trkpt>
      <trkpt lat="49.76281" lon="4.81456">
        <ele>274</ele>
        <time>2021-05-15T10:55:58.000Z</time>
      </trkpt>
      <trkpt lat="49.76275" lon="4.81455">
        <ele>274</ele>
        <time>2021-05-15T10:55:59.000Z</time>
      </trkpt>
      <trkpt lat="49.76268" lon="4.81454">
        <ele>274</ele>
        <time>2021-05-15T10:56:00.000Z</time>
      </trkpt>
      <trkpt lat="49.76262" lon="4.81453">
        <ele>274</ele>
        <time>2021-05-15T10:56:01.000Z</time>
      </trkpt>
      <trkpt lat="49.76255" lon="4.81452">
        <ele>274</ele>
        <time>2021-05-15T10:56:02.000Z</time>
      </trkpt>
      <trkpt lat="49.76248" lon="4.8145">
        <ele>274</ele>
        <time>2021-05-15T10:56:03.000Z</time>
      </trkpt>
      <trkpt lat="49.7624" lon="4.81449">
        <ele>274</ele>
        <time>2021-05-15T10:56:04.000Z</time>
      </trkpt>
      <trkpt lat="49.76233" lon="4.81449">
        <ele>274</ele>
        <time>2021-05-15T10:56:05.000Z</time>
      </trkpt>
      <trkpt lat="49.76226" lon="4.81449">
        <ele>274</ele>
        <time>2021-05-15T10:56:06.000Z</time>
      </trkpt>
      <trkpt lat="49.76219" lon="4.81449">
        <ele>274</ele>
        <time>2021-05-15T10:56:07.000Z</time>
      </trkpt>
      <trkpt lat="49.76211" lon="4.8145">
        <ele>273</ele>
        <time>2021-05-15T10:56:08.000Z</time>
      </trkpt>
      <trkpt lat="49.76205" lon="4.8145">
        <ele>273</ele>
        <time>2021-05-15T10:56:09.000Z</time>
      </trkpt>
      <trkpt lat="49.76197" lon="4.8145">
        <ele>273</ele>
        <time>2021-05-15T10:56:10.000Z</time>
      </trkpt>
      <trkpt lat="49.7619" lon="4.81449">
        <ele>273</ele>
        <time>2021-05-15T10:56:11.000Z</time>
      </trkpt>
      <trkpt lat="49.76182" lon="4.81448">
        <ele>273</ele>
        <time>2021-05-15T10:56:12.000Z</time>
      </trkpt>
      <trkpt lat="49.76175" lon="4.81446">
        <ele>273</ele>
        <time>2021-05-15T10:56:13.000Z</time>
      </trkpt>
      <trkpt lat="49.76168" lon="4.81443">
        <ele>272</ele>
        <time>2021-05-15T10:56:14.000Z</time>
      </trkpt>
      <trkpt lat="49.7616" lon="4.81441">
        <ele>272</ele>
        <time>2021-05-15T10:56:15.000Z</time>
      </trkpt>
      <trkpt lat="49.76153" lon="4.81439">
        <ele>272</ele>
        <time>2021-05-15T10:56:16.000Z</time>
      </trkpt>
      <trkpt lat="49.76146" lon="4.81438">
        <ele>271</ele>
        <time>2021-05-15T10:56:17.000Z</time>
      </trkpt>
      <trkpt lat="49.7614" lon="4.81437">
        <ele>271</ele>
        <time>2021-05-15T10:56:18.000Z</time>
      </trkpt>
      <trkpt lat="49.76133" lon="4.81436">
        <ele>270</ele>
        <time>2021-05-15T10:56:19.000Z</time>
      </trkpt>
      <trkpt lat="49.76126" lon="4.81435">
        <ele>270</ele>
        <time>2021-05-15T10:56:20.000Z</time>
      </trkpt>
      <trkpt lat="49.7612" lon="4.81434">
        <ele>270</ele>
        <time>2021-05-15T10:56:21.000Z</time>
      </trkpt>
      <trkpt lat="49.76113" lon="4.81433">
        <ele>269</ele>
        <time>2021-05-15T10:56:22.000Z</time>
      </trkpt>
      <trkpt lat="49.76107" lon="4.8143">
        <ele>269</ele>
        <time>2021-05-15T10:56:23.000Z</time>
      </trkpt>
      <trkpt lat="49.761" lon="4.81426">
        <ele>268</ele>
        <time>2021-05-15T10:56:24.000Z</time>
      </trkpt>
      <trkpt lat="49.76094" lon="4.81422">
        <ele>268</ele>
        <time>2021-05-15T10:56:25.000Z</time>
      </trkpt>
      <trkpt lat="49.76087" lon="4.81418">
        <ele>268</ele>
        <time>2021-05-15T10:56:26.000Z</time>
      </trkpt>
      <trkpt lat="49.76081" lon="4.81413">
        <ele>267</ele>
        <time>2021-05-15T10:56:27.000Z</time>
      </trkpt>
      <trkpt lat="49.76074" lon="4.81409">
        <ele>267</ele>
        <time>2021-05-15T10:56:28.000Z</time>
      </trkpt>
      <trkpt lat="49.76068" lon="4.81404">
        <ele>267</ele>
        <time>2021-05-15T10:56:29.000Z</time>
      </trkpt>
      <trkpt lat="49.76061" lon="4.81399">
        <ele>267</ele>
        <time>2021-05-15T10:56:30.000Z</time>
      </trkpt>
      <trkpt lat="49.76055" lon="4.81395">
        <ele>266</ele>
        <time>2021-05-15T10:56:31.000Z</time>
      </trkpt>
      <trkpt lat="49.76048" lon="4.8139">
        <ele>266</ele>
        <time>2021-05-15T10:56:32.000Z</time>
      </trkpt>
      <trkpt lat="49.76041" lon="4.81385">
        <ele>266</ele>
        <time>2021-05-15T10:56:33.000Z</time>
      </trkpt>
      <trkpt lat="49.76035" lon="4.81381">
        <ele>266</ele>
        <time>2021-05-15T10:56:34.000Z</time>
      </trkpt>
      <trkpt lat="49.76028" lon="4.81376">
        <ele>266</ele>
        <time>2021-05-15T10:56:35.000Z</time>
      </trkpt>
      <trkpt lat="49.76021" lon="4.81372">
        <ele>266</ele>
        <time>2021-05-15T10:56:36.000Z</time>
      </trkpt>
      <trkpt lat="49.76015" lon="4.81368">
        <ele>265</ele>
        <time>2021-05-15T10:56:37.000Z</time>
      </trkpt>
      <trkpt lat="49.76008" lon="4.81364">
        <ele>265</ele>
        <time>2021-05-15T10:56:38.000Z</time>
      </trkpt>
      <trkpt lat="49.76002" lon="4.8136">
        <ele>265</ele>
        <time>2021-05-15T10:56:39.000Z</time>
      </trkpt>
      <trkpt lat="49.75995" lon="4.81356">
        <ele>265</ele>
        <time>2021-05-15T10:56:40.000Z</time>
      </trkpt>
      <trkpt lat="49.75989" lon="4.81353">
        <ele>265</ele>
        <time>2021-05-15T10:56:41.000Z</time>
      </trkpt>
      <trkpt lat="49.75982" lon="4.81349">
        <ele>265</ele>
        <time>2021-05-15T10:56:42.000Z</time>
      </trkpt>
      <trkpt lat="49.75976" lon="4.81346">
        <ele>265</ele>
        <time>2021-05-15T10:56:43.000Z</time>
      </trkpt>
      <trkpt lat="49.75969" lon="4.81343">
        <ele>265</ele>
        <time>2021-05-15T10:56:44.000Z</time>
      </trkpt>
      <trkpt lat="49.75963" lon="4.8134">
        <ele>264</ele>
        <time>2021-05-15T10:56:45.000Z</time>
      </trkpt>
      <trkpt lat="49.75956" lon="4.81336">
        <ele>264</ele>
        <time>2021-05-15T10:56:46.000Z</time>
      </trkpt>
      <trkpt lat="49.75949" lon="4.81333">
        <ele>264</ele>
        <time>2021-05-15T10:56:47.000Z</time>
      </trkpt>
      <trkpt lat="49.75943" lon="4.81331">
        <ele>264</ele>
        <time>2021-05-15T10:56:48.000Z</time>
      </trkpt>
      <trkpt lat="49.75937" lon="4.81327">
        <ele>264</ele>
        <time>2021-05-15T10:56:49.000Z</time>
      </trkpt>
      <trkpt lat="49.75931" lon="4.81325">
        <ele>263</ele>
        <time>2021-05-15T10:56:50.000Z</time>
      </trkpt>
      <trkpt lat="49.75924" lon="4.81323">
        <ele>263</ele>
        <time>2021-05-15T10:56:51.000Z</time>
      </trkpt>
      <trkpt lat="49.75918" lon="4.81323">
        <ele>263</ele>
        <time>2021-05-15T10:56:52.000Z</time>
      </trkpt>
      <trkpt lat="49.75911" lon="4.81324">
        <ele>262</ele>
        <time>2021-05-15T10:56:53.000Z</time>
      </trkpt>
      <trkpt lat="49.75905" lon="4.81325">
        <ele>262</ele>
        <time>2021-05-15T10:56:54.000Z</time>
      </trkpt>
      <trkpt lat="49.75899" lon="4.81328">
        <ele>262</ele>
        <time>2021-05-15T10:56:55.000Z</time>
      </trkpt>
      <trkpt lat="49.75893" lon="4.81331">
        <ele>262</ele>
        <time>2021-05-15T10:56:56.000Z</time>
      </trkpt>
      <trkpt lat="49.75886" lon="4.81334">
        <ele>262</ele>
        <time>2021-05-15T10:56:57.000Z</time>
      </trkpt>
      <trkpt lat="49.7588" lon="4.81338">
        <ele>261</ele>
        <time>2021-05-15T10:56:58.000Z</time>
      </trkpt>
      <trkpt lat="49.75874" lon="4.81341">
        <ele>261</ele>
        <time>2021-05-15T10:56:59.000Z</time>
      </trkpt>
      <trkpt lat="49.75867" lon="4.81344">
        <ele>261</ele>
        <time>2021-05-15T10:57:00.000Z</time>
      </trkpt>
      <trkpt lat="49.75861" lon="4.81348">
        <ele>261</ele>
        <time>2021-05-15T10:57:01.000Z</time>
      </trkpt>
      <trkpt lat="49.75854" lon="4.81352">
        <ele>261</ele>
        <time>2021-05-15T10:57:02.000Z</time>
      </trkpt>
      <trkpt lat="49.75848" lon="4.81357">
        <ele>261</ele>
        <time>2021-05-15T10:57:03.000Z</time>
      </trkpt>
      <trkpt lat="49.75842" lon="4.81362">
        <ele>260</ele>
        <time>2021-05-15T10:57:04.000Z</time>
      </trkpt>
      <trkpt lat="49.75837" lon="4.81367">
        <ele>260</ele>
        <time>2021-05-15T10:57:05.000Z</time>
      </trkpt>
      <trkpt lat="49.75831" lon="4.81373">
        <ele>260</ele>
        <time>2021-05-15T10:57:06.000Z</time>
      </trkpt>
      <trkpt lat="49.75825" lon="4.81379">
        <ele>260</ele>
        <time>2021-05-15T10:57:07.000Z</time>
      </trkpt>
      <trkpt lat="49.7582" lon="4.81385">
        <ele>260</ele>
        <time>2021-05-15T10:57:08.000Z</time>
      </trkpt>
      <trkpt lat="49.75815" lon="4.81392">
        <ele>260</ele>
        <time>2021-05-15T10:57:09.000Z</time>
      </trkpt>
      <trkpt lat="49.75809" lon="4.81398">
        <ele>260</ele>
        <time>2021-05-15T10:57:10.000Z</time>
      </trkpt>
      <trkpt lat="49.75803" lon="4.81405">
        <ele>260</ele>
        <time>2021-05-15T10:57:11.000Z</time>
      </trkpt>
      <trkpt lat="49.75798" lon="4.8141">
        <ele>259</ele>
        <time>2021-05-15T10:57:12.000Z</time>
      </trkpt>
      <trkpt lat="49.75793" lon="4.81414">
        <ele>259</ele>
        <time>2021-05-15T10:57:13.000Z</time>
      </trkpt>
      <trkpt lat="49.75788" lon="4.81418">
        <ele>259</ele>
        <time>2021-05-15T10:57:14.000Z</time>
      </trkpt>
      <trkpt lat="49.75783" lon="4.81422">
        <ele>259</ele>
        <time>2021-05-15T10:57:15.000Z</time>
      </trkpt>
      <trkpt lat="49.75778" lon="4.81425">
        <ele>259</ele>
        <time>2021-05-15T10:57:16.000Z</time>
      </trkpt>
      <trkpt lat="49.75773" lon="4.81429">
        <ele>258</ele>
        <time>2021-05-15T10:57:17.000Z</time>
      </trkpt>
      <trkpt lat="49.75767" lon="4.81433">
        <ele>258</ele>
        <time>2021-05-15T10:57:18.000Z</time>
      </trkpt>
      <trkpt lat="49.75762" lon="4.81436">
        <ele>258</ele>
        <time>2021-05-15T10:57:19.000Z</time>
      </trkpt>
      <trkpt lat="49.75757" lon="4.8144">
        <ele>258</ele>
        <time>2021-05-15T10:57:20.000Z</time>
      </trkpt>
      <trkpt lat="49.75752" lon="4.81444">
        <ele>258</ele>
        <time>2021-05-15T10:57:21.000Z</time>
      </trkpt>
      <trkpt lat="49.75746" lon="4.81448">
        <ele>258</ele>
        <time>2021-05-15T10:57:22.000Z</time>
      </trkpt>
      <trkpt lat="49.7574" lon="4.81451">
        <ele>258</ele>
        <time>2021-05-15T10:57:23.000Z</time>
      </trkpt>
      <trkpt lat="49.75734" lon="4.81454">
        <ele>258</ele>
        <time>2021-05-15T10:57:24.000Z</time>
      </trkpt>
      <trkpt lat="49.75728" lon="4.81457">
        <ele>257</ele>
        <time>2021-05-15T10:57:25.000Z</time>
      </trkpt>
      <trkpt lat="49.75723" lon="4.81459">
        <ele>257</ele>
        <time>2021-05-15T10:57:26.000Z</time>
      </trkpt>
      <trkpt lat="49.75717" lon="4.8146">
        <ele>257</ele>
        <time>2021-05-15T10:57:27.000Z</time>
      </trkpt>
      <trkpt lat="49.75711" lon="4.81462">
        <ele>257</ele>
        <time>2021-05-15T10:57:28.000Z</time>
      </trkpt>
      <trkpt lat="49.75705" lon="4.81465">
        <ele>257</ele>
        <time>2021-05-15T10:57:29.000Z</time>
      </trkpt>
      <trkpt lat="49.75699" lon="4.81468">
        <ele>256</ele>
        <time>2021-05-15T10:57:30.000Z</time>
      </trkpt>
      <trkpt lat="49.75692" lon="4.8147">
        <ele>256</ele>
        <time>2021-05-15T10:57:31.000Z</time>
      </trkpt>
      <trkpt lat="49.75686" lon="4.81473">
        <ele>256</ele>
        <time>2021-05-15T10:57:32.000Z</time>
      </trkpt>
      <trkpt lat="49.75679" lon="4.81476">
        <ele>256</ele>
        <time>2021-05-15T10:57:33.000Z</time>
      </trkpt>
      <trkpt lat="49.75673" lon="4.81478">
        <ele>256</ele>
        <time>2021-05-15T10:57:34.000Z</time>
      </trkpt>
      <trkpt lat="49.75666" lon="4.81481">
        <ele>255</ele>
        <time>2021-05-15T10:57:35.000Z</time>
      </trkpt>
      <trkpt lat="49.7566" lon="4.81483">
        <ele>255</ele>
        <time>2021-05-15T10:57:36.000Z</time>
      </trkpt>
      <trkpt lat="49.75653" lon="4.81486">
        <ele>255</ele>
        <time>2021-05-15T10:57:37.000Z</time>
      </trkpt>
      <trkpt lat="49.75646" lon="4.81488">
        <ele>255</ele>
        <time>2021-05-15T10:57:38.000Z</time>
      </trkpt>
      <trkpt lat="49.7564" lon="4.81491">
        <ele>255</ele>
        <time>2021-05-15T10:57:39.000Z</time>
      </trkpt>
      <trkpt lat="49.75634" lon="4.81494">
        <ele>254</ele>
        <time>2021-05-15T10:57:40.000Z</time>
      </trkpt>
      <trkpt lat="49.75627" lon="4.81497">
        <ele>254</ele>
        <time>2021-05-15T10:57:41.000Z</time>
      </trkpt>
      <trkpt lat="49.75621" lon="4.81501">
        <ele>254</ele>
        <time>2021-05-15T10:57:42.000Z</time>
      </trkpt>
      <trkpt lat="49.75615" lon="4.81505">
        <ele>254</ele>
        <time>2021-05-15T10:57:43.000Z</time>
      </trkpt>
      <trkpt lat="49.75609" lon="4.81509">
        <ele>253</ele>
        <time>2021-05-15T10:57:44.000Z</time>
      </trkpt>
      <trkpt lat="49.75604" lon="4.81514">
        <ele>253</ele>
        <time>2021-05-15T10:57:45.000Z</time>
      </trkpt>
      <trkpt lat="49.75598" lon="4.81519">
        <ele>253</ele>
        <time>2021-05-15T10:57:46.000Z</time>
      </trkpt>
      <trkpt lat="49.75593" lon="4.81524">
        <ele>252</ele>
        <time>2021-05-15T10:57:47.000Z</time>
      </trkpt>
      <trkpt lat="49.75587" lon="4.81529">
        <ele>252</ele>
        <time>2021-05-15T10:57:48.000Z</time>
      </trkpt>
      <trkpt lat="49.75582" lon="4.81534">
        <ele>251</ele>
        <time>2021-05-15T10:57:49.000Z</time>
      </trkpt>
      <trkpt lat="49.75577" lon="4.8154">
        <ele>251</ele>
        <time>2021-05-15T10:57:50.000Z</time>
      </trkpt>
      <trkpt lat="49.75573" lon="4.81545">
        <ele>250</ele>
        <time>2021-05-15T10:57:51.000Z</time>
      </trkpt>
      <trkpt lat="49.75568" lon="4.81552">
        <ele>250</ele>
        <time>2021-05-15T10:57:52.000Z</time>
      </trkpt>
      <trkpt lat="49.75563" lon="4.81558">
        <ele>249</ele>
        <time>2021-05-15T10:57:53.000Z</time>
      </trkpt>
      <trkpt lat="49.75559" lon="4.81564">
        <ele>249</ele>
        <time>2021-05-15T10:57:54.000Z</time>
      </trkpt>
      <trkpt lat="49.75554" lon="4.81571">
        <ele>248</ele>
        <time>2021-05-15T10:57:55.000Z</time>
      </trkpt>
      <trkpt lat="49.7555" lon="4.81577">
        <ele>248</ele>
        <time>2021-05-15T10:57:56.000Z</time>
      </trkpt>
      <trkpt lat="49.75546" lon="4.81584">
        <ele>247</ele>
        <time>2021-05-15T10:57:57.000Z</time>
      </trkpt>
      <trkpt lat="49.75542" lon="4.8159">
        <ele>247</ele>
        <time>2021-05-15T10:57:58.000Z</time>
      </trkpt>
      <trkpt lat="49.75537" lon="4.81597">
        <ele>246</ele>
        <time>2021-05-15T10:57:59.000Z</time>
      </trkpt>
      <trkpt lat="49.75532" lon="4.81603">
        <ele>246</ele>
        <time>2021-05-15T10:58:00.000Z</time>
      </trkpt>
      <trkpt lat="49.75527" lon="4.81609">
        <ele>246</ele>
        <time>2021-05-15T10:58:01.000Z</time>
      </trkpt>
      <trkpt lat="49.75521" lon="4.81614">
        <ele>245</ele>
        <time>2021-05-15T10:58:02.000Z</time>
      </trkpt>
      <trkpt lat="49.75516" lon="4.8162">
        <ele>245</ele>
        <time>2021-05-15T10:58:03.000Z</time>
      </trkpt>
      <trkpt lat="49.7551" lon="4.81626">
        <ele>244</ele>
        <time>2021-05-15T10:58:04.000Z</time>
      </trkpt>
      <trkpt lat="49.75504" lon="4.81631">
        <ele>244</ele>
        <time>2021-05-15T10:58:05.000Z</time>
      </trkpt>
      <trkpt lat="49.75498" lon="4.81636">
        <ele>243</ele>
        <time>2021-05-15T10:58:06.000Z</time>
      </trkpt>
      <trkpt lat="49.75492" lon="4.81641">
        <ele>243</ele>
        <time>2021-05-15T10:58:07.000Z</time>
      </trkpt>
      <trkpt lat="49.75486" lon="4.81646">
        <ele>242</ele>
        <time>2021-05-15T10:58:08.000Z</time>
      </trkpt>
      <trkpt lat="49.75479" lon="4.8165">
        <ele>242</ele>
        <time>2021-05-15T10:58:09.000Z</time>
      </trkpt>
      <trkpt lat="49.75472" lon="4.81653">
        <ele>242</ele>
        <time>2021-05-15T10:58:10.000Z</time>
      </trkpt>
      <trkpt lat="49.75465" lon="4.81657">
        <ele>241</ele>
        <time>2021-05-15T10:58:11.000Z</time>
      </trkpt>
      <trkpt lat="49.75458" lon="4.8166">
        <ele>241</ele>
        <time>2021-05-15T10:58:12.000Z</time>
      </trkpt>
      <trkpt lat="49.75451" lon="4.81665">
        <ele>240</ele>
        <time>2021-05-15T10:58:13.000Z</time>
      </trkpt>
      <trkpt lat="49.75445" lon="4.8167">
        <ele>240</ele>
        <time>2021-05-15T10:58:14.000Z</time>
      </trkpt>
      <trkpt lat="49.75438" lon="4.81675">
        <ele>239</ele>
        <time>2021-05-15T10:58:15.000Z</time>
      </trkpt>
      <trkpt lat="49.75431" lon="4.8168">
        <ele>238</ele>
        <time>2021-05-15T10:58:16.000Z</time>
      </trkpt>
      <trkpt lat="49.75425" lon="4.81685">
        <ele>238</ele>
        <time>2021-05-15T10:58:17.000Z</time>
      </trkpt>
      <trkpt lat="49.75418" lon="4.8169">
        <ele>237</ele>
        <time>2021-05-15T10:58:18.000Z</time>
      </trkpt>
      <trkpt lat="49.75411" lon="4.81694">
        <ele>236</ele>
        <time>2021-05-15T10:58:19.000Z</time>
      </trkpt>
      <trkpt lat="49.75404" lon="4.81699">
        <ele>236</ele>
        <time>2021-05-15T10:58:20.000Z</time>
      </trkpt>
      <trkpt lat="49.75397" lon="4.81704">
        <ele>235</ele>
        <time>2021-05-15T10:58:21.000Z</time>
      </trkpt>
      <trkpt lat="49.7539" lon="4.8171">
        <ele>235</ele>
        <time>2021-05-15T10:58:22.000Z</time>
      </trkpt>
      <trkpt lat="49.75383" lon="4.81715">
        <ele>234</ele>
        <time>2021-05-15T10:58:23.000Z</time>
      </trkpt>
      <trkpt lat="49.75378" lon="4.8172">
        <ele>233</ele>
        <time>2021-05-15T10:58:24.000Z</time>
      </trkpt>
      <trkpt lat="49.75373" lon="4.81726">
        <ele>233</ele>
        <time>2021-05-15T10:58:25.000Z</time>
      </trkpt>
      <trkpt lat="49.75368" lon="4.81732">
        <ele>232</ele>
        <time>2021-05-15T10:58:26.000Z</time>
      </trkpt>
      <trkpt lat="49.75363" lon="4.81738">
        <ele>232</ele>
        <time>2021-05-15T10:58:27.000Z</time>
      </trkpt>
      <trkpt lat="49.75357" lon="4.81743">
        <ele>231</ele>
        <time>2021-05-15T10:58:28.000Z</time>
      </trkpt>
      <trkpt lat="49.7535" lon="4.81746">
        <ele>231</ele>
        <time>2021-05-15T10:58:29.000Z</time>
      </trkpt>
      <trkpt lat="49.75344" lon="4.81749">
        <ele>230</ele>
        <time>2021-05-15T10:58:30.000Z</time>
      </trkpt>
      <trkpt lat="49.75336" lon="4.8175">
        <ele>230</ele>
        <time>2021-05-15T10:58:31.000Z</time>
      </trkpt>
      <trkpt lat="49.75329" lon="4.81751">
        <ele>229</ele>
        <time>2021-05-15T10:58:32.000Z</time>
      </trkpt>
      <trkpt lat="49.75323" lon="4.81752">
        <ele>229</ele>
        <time>2021-05-15T10:58:33.000Z</time>
      </trkpt>
      <trkpt lat="49.75316" lon="4.81753">
        <ele>228</ele>
        <time>2021-05-15T10:58:34.000Z</time>
      </trkpt>
      <trkpt lat="49.7531" lon="4.81754">
        <ele>228</ele>
        <time>2021-05-15T10:58:35.000Z</time>
      </trkpt>
      <trkpt lat="49.75304" lon="4.81754">
        <ele>228</ele>
        <time>2021-05-15T10:58:36.000Z</time>
      </trkpt>
      <trkpt lat="49.75297" lon="4.81754">
        <ele>227</ele>
        <time>2021-05-15T10:58:37.000Z</time>
      </trkpt>
      <trkpt lat="49.75291" lon="4.81754">
        <ele>226</ele>
        <time>2021-05-15T10:58:38.000Z</time>
      </trkpt>
      <trkpt lat="49.75284" lon="4.81753">
        <ele>226</ele>
        <time>2021-05-15T10:58:39.000Z</time>
      </trkpt>
      <trkpt lat="49.75278" lon="4.81751">
        <ele>225</ele>
        <time>2021-05-15T10:58:40.000Z</time>
      </trkpt>
      <trkpt lat="49.75271" lon="4.81749">
        <ele>224</ele>
        <time>2021-05-15T10:58:41.000Z</time>
      </trkpt>
      <trkpt lat="49.75265" lon="4.81746">
        <ele>224</ele>
        <time>2021-05-15T10:58:42.000Z</time>
      </trkpt>
      <trkpt lat="49.75259" lon="4.81742">
        <ele>223</ele>
        <time>2021-05-15T10:58:43.000Z</time>
      </trkpt>
      <trkpt lat="49.75253" lon="4.81738">
        <ele>222</ele>
        <time>2021-05-15T10:58:44.000Z</time>
      </trkpt>
      <trkpt lat="49.75247" lon="4.81734">
        <ele>222</ele>
        <time>2021-05-15T10:58:45.000Z</time>
      </trkpt>
      <trkpt lat="49.75241" lon="4.8173">
        <ele>221</ele>
        <time>2021-05-15T10:58:46.000Z</time>
      </trkpt>
      <trkpt lat="49.75235" lon="4.81726">
        <ele>220</ele>
        <time>2021-05-15T10:58:47.000Z</time>
      </trkpt>
      <trkpt lat="49.75229" lon="4.81721">
        <ele>220</ele>
        <time>2021-05-15T10:58:48.000Z</time>
      </trkpt>
      <trkpt lat="49.75223" lon="4.81716">
        <ele>219</ele>
        <time>2021-05-15T10:58:49.000Z</time>
      </trkpt>
      <trkpt lat="49.75217" lon="4.81711">
        <ele>218</ele>
        <time>2021-05-15T10:58:50.000Z</time>
      </trkpt>
      <trkpt lat="49.75211" lon="4.81706">
        <ele>217</ele>
        <time>2021-05-15T10:58:51.000Z</time>
      </trkpt>
      <trkpt lat="49.75205" lon="4.81702">
        <ele>217</ele>
        <time>2021-05-15T10:58:52.000Z</time>
      </trkpt>
      <trkpt lat="49.75199" lon="4.817">
        <ele>216</ele>
        <time>2021-05-15T10:58:53.000Z</time>
      </trkpt>
      <trkpt lat="49.75193" lon="4.817">
        <ele>215</ele>
        <time>2021-05-15T10:58:54.000Z</time>
      </trkpt>
      <trkpt lat="49.75186" lon="4.81702">
        <ele>214</ele>
        <time>2021-05-15T10:58:55.000Z</time>
      </trkpt>
      <trkpt lat="49.75179" lon="4.81707">
        <ele>214</ele>
        <time>2021-05-15T10:58:56.000Z</time>
      </trkpt>
      <trkpt lat="49.75173" lon="4.81712">
        <ele>213</ele>
        <time>2021-05-15T10:58:57.000Z</time>
      </trkpt>
      <trkpt lat="49.75167" lon="4.81718">
        <ele>213</ele>
        <time>2021-05-15T10:58:58.000Z</time>
      </trkpt>
      <trkpt lat="49.75162" lon="4.81723">
        <ele>212</ele>
        <time>2021-05-15T10:58:59.000Z</time>
      </trkpt>
      <trkpt lat="49.75156" lon="4.81728">
        <ele>211</ele>
        <time>2021-05-15T10:59:00.000Z</time>
      </trkpt>
      <trkpt lat="49.75151" lon="4.81734">
        <ele>211</ele>
        <time>2021-05-15T10:59:01.000Z</time>
      </trkpt>
      <trkpt lat="49.75147" lon="4.81739">
        <ele>210</ele>
        <time>2021-05-15T10:59:02.000Z</time>
      </trkpt>
      <trkpt lat="49.75143" lon="4.81744">
        <ele>210</ele>
        <time>2021-05-15T10:59:03.000Z</time>
      </trkpt>
      <trkpt lat="49.75141" lon="4.81748">
        <ele>209</ele>
        <time>2021-05-15T10:59:04.000Z</time>
      </trkpt>
      <trkpt lat="49.7514" lon="4.81754">
        <ele>209</ele>
        <time>2021-05-15T10:59:05.000Z</time>
      </trkpt>
      <trkpt lat="49.7514" lon="4.8176">
        <ele>208</ele>
        <time>2021-05-15T10:59:06.000Z</time>
      </trkpt>
      <trkpt lat="49.75142" lon="4.81766">
        <ele>208</ele>
        <time>2021-05-15T10:59:07.000Z</time>
      </trkpt>
      <trkpt lat="49.75144" lon="4.81769">
        <ele>207</ele>
        <time>2021-05-15T10:59:08.000Z</time>
      </trkpt>
      <trkpt lat="49.75146" lon="4.81774">
        <ele>207</ele>
        <time>2021-05-15T10:59:09.000Z</time>
      </trkpt>
      <trkpt lat="49.75149" lon="4.81778">
        <ele>207</ele>
        <time>2021-05-15T10:59:10.000Z</time>
      </trkpt>
      <trkpt lat="49.75151" lon="4.81782">
        <ele>207</ele>
        <time>2021-05-15T10:59:11.000Z</time>
      </trkpt>
      <trkpt lat="49.75154" lon="4.81787">
        <ele>207</ele>
        <time>2021-05-15T10:59:12.000Z</time>
      </trkpt>
      <trkpt lat="49.75156" lon="4.81792">
        <ele>207</ele>
        <time>2021-05-15T10:59:13.000Z</time>
      </trkpt>
      <trkpt lat="49.75159" lon="4.81797">
        <ele>206</ele>
        <time>2021-05-15T10:59:14.000Z</time>
      </trkpt>
      <trkpt lat="49.75162" lon="4.81802">
        <ele>206</ele>
        <time>2021-05-15T10:59:15.000Z</time>
      </trkpt>
      <trkpt lat="49.75165" lon="4.81807">
        <ele>206</ele>
        <time>2021-05-15T10:59:16.000Z</time>
      </trkpt>
      <trkpt lat="49.75168" lon="4.81813">
        <ele>206</ele>
        <time>2021-05-15T10:59:17.000Z</time>
      </trkpt>
      <trkpt lat="49.75172" lon="4.81819">
        <ele>206</ele>
        <time>2021-05-15T10:59:18.000Z</time>
      </trkpt>
      <trkpt lat="49.75176" lon="4.81825">
        <ele>205</ele>
        <time>2021-05-15T10:59:19.000Z</time>
      </trkpt>
      <trkpt lat="49.7518" lon="4.81832">
        <ele>205</ele>
        <time>2021-05-15T10:59:20.000Z</time>
      </trkpt>
      <trkpt lat="49.75184" lon="4.81839">
        <ele>205</ele>
        <time>2021-05-15T10:59:21.000Z</time>
      </trkpt>
      <trkpt lat="49.75188" lon="4.81846">
        <ele>205</ele>
        <time>2021-05-15T10:59:22.000Z</time>
      </trkpt>
      <trkpt lat="49.75192" lon="4.81853">
        <ele>205</ele>
        <time>2021-05-15T10:59:23.000Z</time>
      </trkpt>
      <trkpt lat="49.75196" lon="4.8186">
        <ele>204</ele>
        <time>2021-05-15T10:59:24.000Z</time>
      </trkpt>
      <trkpt lat="49.75201" lon="4.81867">
        <ele>204</ele>
        <time>2021-05-15T10:59:25.000Z</time>
      </trkpt>
      <trkpt lat="49.75205" lon="4.81873">
        <ele>204</ele>
        <time>2021-05-15T10:59:26.000Z</time>
      </trkpt>
      <trkpt lat="49.7521" lon="4.81879">
        <ele>203</ele>
        <time>2021-05-15T10:59:27.000Z</time>
      </trkpt>
      <trkpt lat="49.75215" lon="4.81886">
        <ele>203</ele>
        <time>2021-05-15T10:59:28.000Z</time>
      </trkpt>
      <trkpt lat="49.75221" lon="4.81892">
        <ele>202</ele>
        <time>2021-05-15T10:59:29.000Z</time>
      </trkpt>
      <trkpt lat="49.75225" lon="4.81899">
        <ele>202</ele>
        <time>2021-05-15T10:59:30.000Z</time>
      </trkpt>
      <trkpt lat="49.75231" lon="4.81905">
        <ele>202</ele>
        <time>2021-05-15T10:59:31.000Z</time>
      </trkpt>
      <trkpt lat="49.75236" lon="4.8191">
        <ele>201</ele>
        <time>2021-05-15T10:59:32.000Z</time>
      </trkpt>
      <trkpt lat="49.75241" lon="4.81916">
        <ele>201</ele>
        <time>2021-05-15T10:59:33.000Z</time>
      </trkpt>
      <trkpt lat="49.75246" lon="4.81922">
        <ele>201</ele>
        <time>2021-05-15T10:59:34.000Z</time>
      </trkpt>
      <trkpt lat="49.75251" lon="4.81928">
        <ele>200</ele>
        <time>2021-05-15T10:59:35.000Z</time>
      </trkpt>
      <trkpt lat="49.75256" lon="4.81935">
        <ele>200</ele>
        <time>2021-05-15T10:59:36.000Z</time>
      </trkpt>
      <trkpt lat="49.7526" lon="4.81941">
        <ele>199</ele>
        <time>2021-05-15T10:59:37.000Z</time>
      </trkpt>
      <trkpt lat="49.75266" lon="4.81948">
        <ele>199</ele>
        <time>2021-05-15T10:59:38.000Z</time>
      </trkpt>
      <trkpt lat="49.75272" lon="4.81954">
        <ele>199</ele>
        <time>2021-05-15T10:59:39.000Z</time>
      </trkpt>
      <trkpt lat="49.75278" lon="4.81959">
        <ele>199</ele>
        <time>2021-05-15T10:59:40.000Z</time>
      </trkpt>
      <trkpt lat="49.75284" lon="4.81964">
        <ele>198</ele>
        <time>2021-05-15T10:59:41.000Z</time>
      </trkpt>
      <trkpt lat="49.7529" lon="4.8197">
        <ele>198</ele>
        <time>2021-05-15T10:59:42.000Z</time>
      </trkpt>
      <trkpt lat="49.75296" lon="4.81975">
        <ele>198</ele>
        <time>2021-05-15T10:59:43.000Z</time>
      </trkpt>
      <trkpt lat="49.75303" lon="4.81979">
        <ele>197</ele>
        <time>2021-05-15T10:59:44.000Z</time>
      </trkpt>
      <trkpt lat="49.75309" lon="4.81984">
        <ele>197</ele>
        <time>2021-05-15T10:59:45.000Z</time>
      </trkpt>
      <trkpt lat="49.75315" lon="4.81988">
        <ele>197</ele>
        <time>2021-05-15T10:59:46.000Z</time>
      </trkpt>
      <trkpt lat="49.75322" lon="4.81992">
        <ele>196</ele>
        <time>2021-05-15T10:59:47.000Z</time>
      </trkpt>
      <trkpt lat="49.75328" lon="4.81997">
        <ele>196</ele>
        <time>2021-05-15T10:59:48.000Z</time>
      </trkpt>
      <trkpt lat="49.75335" lon="4.82001">
        <ele>195</ele>
        <time>2021-05-15T10:59:49.000Z</time>
      </trkpt>
      <trkpt lat="49.75341" lon="4.82004">
        <ele>195</ele>
        <time>2021-05-15T10:59:50.000Z</time>
      </trkpt>
      <trkpt lat="49.75348" lon="4.82008">
        <ele>195</ele>
        <time>2021-05-15T10:59:51.000Z</time>
      </trkpt>
      <trkpt lat="49.75354" lon="4.82011">
        <ele>194</ele>
        <time>2021-05-15T10:59:52.000Z</time>
      </trkpt>
      <trkpt lat="49.7536" lon="4.82015">
        <ele>194</ele>
        <time>2021-05-15T10:59:53.000Z</time>
      </trkpt>
      <trkpt lat="49.75367" lon="4.82019">
        <ele>194</ele>
        <time>2021-05-15T10:59:54.000Z</time>
      </trkpt>
      <trkpt lat="49.75373" lon="4.82022">
        <ele>194</ele>
        <time>2021-05-15T10:59:55.000Z</time>
      </trkpt>
      <trkpt lat="49.75379" lon="4.82025">
        <ele>194</ele>
        <time>2021-05-15T10:59:56.000Z</time>
      </trkpt>
      <trkpt lat="49.75386" lon="4.82029">
        <ele>193</ele>
        <time>2021-05-15T10:59:57.000Z</time>
      </trkpt>
      <trkpt lat="49.75392" lon="4.82034">
        <ele>193</ele>
        <time>2021-05-15T10:59:58.000Z</time>
      </trkpt>
      <trkpt lat="49.75397" lon="4.82039">
        <ele>193</ele>
        <time>2021-05-15T10:59:59.000Z</time>
      </trkpt>
      <trkpt lat="49.75403" lon="4.82044">
        <ele>193</ele>
        <time>2021-05-15T11:00:00.000Z</time>
      </trkpt>
      <trkpt lat="49.75409" lon="4.8205">
        <ele>193</ele>
        <time>2021-05-15T11:00:01.000Z</time>
      </trkpt>
      <trkpt lat="49.75415" lon="4.82055">
        <ele>193</ele>
        <time>2021-05-15T11:00:02.000Z</time>
      </trkpt>
      <trkpt lat="49.7542" lon="4.82061">
        <ele>192</ele>
        <time>2021-05-15T11:00:03.000Z</time>
      </trkpt>
      <trkpt lat="49.75426" lon="4.82067">
        <ele>192</ele>
        <time>2021-05-15T11:00:04.000Z</time>
      </trkpt>
      <trkpt lat="49.75432" lon="4.82073">
        <ele>192</ele>
        <time>2021-05-15T11:00:05.000Z</time>
      </trkpt>
      <trkpt lat="49.75437" lon="4.82078">
        <ele>192</ele>
        <time>2021-05-15T11:00:06.000Z</time>
      </trkpt>
      <trkpt lat="49.75443" lon="4.82083">
        <ele>192</ele>
        <time>2021-05-15T11:00:07.000Z</time>
      </trkpt>
      <trkpt lat="49.75449" lon="4.82089">
        <ele>192</ele>
        <time>2021-05-15T11:00:08.000Z</time>
      </trkpt>
      <trkpt lat="49.75454" lon="4.82094">
        <ele>192</ele>
        <time>2021-05-15T11:00:09.000Z</time>
      </trkpt>
      <trkpt lat="49.75459" lon="4.821">
        <ele>191</ele>
        <time>2021-05-15T11:00:10.000Z</time>
      </trkpt>
      <trkpt lat="49.75464" lon="4.82107">
        <ele>191</ele>
        <time>2021-05-15T11:00:11.000Z</time>
      </trkpt>
      <trkpt lat="49.7547" lon="4.82114">
        <ele>191</ele>
        <time>2021-05-15T11:00:12.000Z</time>
      </trkpt>
      <trkpt lat="49.75475" lon="4.82121">
        <ele>191</ele>
        <time>2021-05-15T11:00:13.000Z</time>
      </trkpt>
      <trkpt lat="49.7548" lon="4.82128">
        <ele>190</ele>
        <time>2021-05-15T11:00:14.000Z</time>
      </trkpt>
      <trkpt lat="49.75485" lon="4.82136">
        <ele>190</ele>
        <time>2021-05-15T11:00:15.000Z</time>
      </trkpt>
      <trkpt lat="49.75489" lon="4.82144">
        <ele>190</ele>
        <time>2021-05-15T11:00:16.000Z</time>
      </trkpt>
      <trkpt lat="49.75494" lon="4.82152">
        <ele>190</ele>
        <time>2021-05-15T11:00:17.000Z</time>
      </trkpt>
      <trkpt lat="49.75499" lon="4.8216">
        <ele>190</ele>
        <time>2021-05-15T11:00:18.000Z</time>
      </trkpt>
      <trkpt lat="49.75504" lon="4.82168">
        <ele>189</ele>
        <time>2021-05-15T11:00:19.000Z</time>
      </trkpt>
      <trkpt lat="49.75508" lon="4.82176">
        <ele>189</ele>
        <time>2021-05-15T11:00:20.000Z</time>
      </trkpt>
      <trkpt lat="49.75512" lon="4.82184">
        <ele>189</ele>
        <time>2021-05-15T11:00:21.000Z</time>
      </trkpt>
      <trkpt lat="49.75516" lon="4.82193">
        <ele>189</ele>
        <time>2021-05-15T11:00:22.000Z</time>
      </trkpt>
      <trkpt lat="49.7552" lon="4.82201">
        <ele>188</ele>
        <time>2021-05-15T11:00:23.000Z</time>
      </trkpt>
      <trkpt lat="49.75524" lon="4.82209">
        <ele>188</ele>
        <time>2021-05-15T11:00:24.000Z</time>
      </trkpt>
      <trkpt lat="49.75528" lon="4.82217">
        <ele>188</ele>
        <time>2021-05-15T11:00:25.000Z</time>
      </trkpt>
      <trkpt lat="49.75532" lon="4.82225">
        <ele>188</ele>
        <time>2021-05-15T11:00:26.000Z</time>
      </trkpt>
      <trkpt lat="49.75536" lon="4.82233">
        <ele>188</ele>
        <time>2021-05-15T11:00:27.000Z</time>
      </trkpt>
      <trkpt lat="49.7554" lon="4.82241">
        <ele>188</ele>
        <time>2021-05-15T11:00:28.000Z</time>
      </trkpt>
      <trkpt lat="49.75543" lon="4.82248">
        <ele>188</ele>
        <time>2021-05-15T11:00:29.000Z</time>
      </trkpt>
      <trkpt lat="49.75546" lon="4.82256">
        <ele>188</ele>
        <time>2021-05-15T11:00:30.000Z</time>
      </trkpt>
      <trkpt lat="49.75547" lon="4.82265">
        <ele>188</ele>
        <time>2021-05-15T11:00:31.000Z</time>
      </trkpt>
      <trkpt lat="49.75545" lon="4.82272">
        <ele>188</ele>
        <time>2021-05-15T11:00:32.000Z</time>
      </trkpt>
      <trkpt lat="49.75542" lon="4.82278">
        <ele>187</ele>
        <time>2021-05-15T11:00:33.000Z</time>
      </trkpt>
      <trkpt lat="49.75537" lon="4.8228">
        <ele>187</ele>
        <time>2021-05-15T11:00:34.000Z</time>
      </trkpt>
      <trkpt lat="49.75531" lon="4.82279">
        <ele>187</ele>
        <time>2021-05-15T11:00:35.000Z</time>
      </trkpt>
      <trkpt lat="49.75526" lon="4.82276">
        <ele>187</ele>
        <time>2021-05-15T11:00:36.000Z</time>
      </trkpt>
      <trkpt lat="49.75521" lon="4.82273">
        <ele>187</ele>
        <time>2021-05-15T11:00:37.000Z</time>
      </trkpt>
      <trkpt lat="49.75515" lon="4.8227">
        <ele>187</ele>
        <time>2021-05-15T11:00:38.000Z</time>
      </trkpt>
      <trkpt lat="49.75509" lon="4.82267">
        <ele>187</ele>
        <time>2021-05-15T11:00:39.000Z</time>
      </trkpt>
      <trkpt lat="49.75502" lon="4.82263">
        <ele>187</ele>
        <time>2021-05-15T11:00:40.000Z</time>
      </trkpt>
      <trkpt lat="49.75496" lon="4.8226">
        <ele>187</ele>
        <time>2021-05-15T11:00:41.000Z</time>
      </trkpt>
      <trkpt lat="49.75491" lon="4.82255">
        <ele>187</ele>
        <time>2021-05-15T11:00:42.000Z</time>
      </trkpt>
      <trkpt lat="49.75485" lon="4.82251">
        <ele>187</ele>
        <time>2021-05-15T11:00:43.000Z</time>
      </trkpt>
      <trkpt lat="49.7548" lon="4.82246">
        <ele>187</ele>
        <time>2021-05-15T11:00:44.000Z</time>
      </trkpt>
      <trkpt lat="49.75475" lon="4.82241">
        <ele>187</ele>
        <time>2021-05-15T11:00:45.000Z</time>
      </trkpt>
      <trkpt lat="49.7547" lon="4.82235">
        <ele>187</ele>
        <time>2021-05-15T11:00:46.000Z</time>
      </trkpt>
      <trkpt lat="49.75465" lon="4.8223">
        <ele>188</ele>
        <time>2021-05-15T11:00:47.000Z</time>
      </trkpt>
      <trkpt lat="49.7546" lon="4.82226">
        <ele>188</ele>
        <time>2021-05-15T11:00:48.000Z</time>
      </trkpt>
      <trkpt lat="49.75454" lon="4.82223">
        <ele>188</ele>
        <time>2021-05-15T11:00:49.000Z</time>
      </trkpt>
      <trkpt lat="49.75448" lon="4.82219">
        <ele>188</ele>
        <time>2021-05-15T11:00:50.000Z</time>
      </trkpt>
      <trkpt lat="49.75443" lon="4.82216">
        <ele>188</ele>
        <time>2021-05-15T11:00:51.000Z</time>
      </trkpt>
      <trkpt lat="49.75437" lon="4.82212">
        <ele>188</ele>
        <time>2021-05-15T11:00:52.000Z</time>
      </trkpt>
      <trkpt lat="49.7543" lon="4.82209">
        <ele>188</ele>
        <time>2021-05-15T11:00:53.000Z</time>
      </trkpt>
      <trkpt lat="49.75424" lon="4.82206">
        <ele>188</ele>
        <time>2021-05-15T11:00:54.000Z</time>
      </trkpt>
      <trkpt lat="49.75418" lon="4.82203">
        <ele>188</ele>
        <time>2021-05-15T11:00:55.000Z</time>
      </trkpt>
      <trkpt lat="49.75412" lon="4.822">
        <ele>188</ele>
        <time>2021-05-15T11:00:56.000Z</time>
      </trkpt>
      <trkpt lat="49.75406" lon="4.82197">
        <ele>188</ele>
        <time>2021-05-15T11:00:57.000Z</time>
      </trkpt>
      <trkpt lat="49.754" lon="4.82195">
        <ele>188</ele>
        <time>2021-05-15T11:00:58.000Z</time>
      </trkpt>
      <trkpt lat="49.75395" lon="4.82194">
        <ele>188</ele>
        <time>2021-05-15T11:00:59.000Z</time>
      </trkpt>
      <trkpt lat="49.7539" lon="4.82194">
        <ele>188</ele>
        <time>2021-05-15T11:01:00.000Z</time>
      </trkpt>
      <trkpt lat="49.75386" lon="4.82196">
        <ele>188</ele>
        <time>2021-05-15T11:01:01.000Z</time>
      </trkpt>
      <trkpt lat="49.75383" lon="4.82199">
        <ele>188</ele>
        <time>2021-05-15T11:01:02.000Z</time>
      </trkpt>
      <trkpt lat="49.75381" lon="4.82203">
        <ele>188</ele>
        <time>2021-05-15T11:01:03.000Z</time>
      </trkpt>
      <trkpt lat="49.7538" lon="4.82205">
        <ele>188</ele>
        <time>2021-05-15T11:01:04.000Z</time>
      </trkpt>
      <trkpt lat="49.75379" lon="4.82206">
        <ele>188</ele>
        <time>2021-05-15T11:01:05.000Z</time>
      </trkpt>
      <trkpt lat="49.75378" lon="4.82206">
        <ele>188</ele>
        <time>2021-05-15T11:01:06.000Z</time>
      </trkpt>
      <trkpt lat="49.75378" lon="4.82207">
        <ele>188</ele>
        <time>2021-05-15T11:01:07.000Z</time>
      </trkpt>
    </trkseg>
  </trk>
</gpx>